<?xml version="1.0" encoding="UTF-8" standalone="no" ?>
<gpx xmlns="http://www.topografix.com/GPX/1/1" xmlns:xsi="http://www.w3.org/2001/XMLSchema-instance" xsi:schemaLocation="http://www.topografix.com/GPX/1/1 http://www.topografix.com/GPX/1/1/gpx.xsd" version="1.1" creator="VisuGPX - https://www.visugpx.com">
  <metadata>
    <name>Sarenne + Solude</name>
    <desc><![CDATA[Avec Pascal ! ]]></desc>
  </metadata>
  <trk>
    <name><![CDATA[Sarenne + Solude_1]]></name>
    <trkseg>
      <trkpt lat="45.12884" lon="6.04073">
        <ele>728.8</ele>
        <time>2020-09-05T04:35:37Z</time>
      </trkpt>
      <trkpt lat="45.12892" lon="6.0407">
        <ele>729.4</ele>
        <time>2020-09-05T04:35:42Z</time>
      </trkpt>
      <trkpt lat="45.129" lon="6.04082">
        <ele>721.2</ele>
        <time>2020-09-05T04:35:47Z</time>
      </trkpt>
      <trkpt lat="45.12904" lon="6.04094">
        <ele>721.4</ele>
        <time>2020-09-05T04:35:50Z</time>
      </trkpt>
      <trkpt lat="45.1291" lon="6.04106">
        <ele>721.8</ele>
        <time>2020-09-05T04:35:53Z</time>
      </trkpt>
      <trkpt lat="45.12915" lon="6.0412">
        <ele>721.6</ele>
        <time>2020-09-05T04:35:56Z</time>
      </trkpt>
      <trkpt lat="45.1292" lon="6.04135">
        <ele>721.8</ele>
        <time>2020-09-05T04:35:59Z</time>
      </trkpt>
      <trkpt lat="45.12923" lon="6.04151">
        <ele>722</ele>
        <time>2020-09-05T04:36:02Z</time>
      </trkpt>
      <trkpt lat="45.12923" lon="6.04169">
        <ele>722.2</ele>
        <time>2020-09-05T04:36:05Z</time>
      </trkpt>
      <trkpt lat="45.12918" lon="6.04186">
        <ele>722.4</ele>
        <time>2020-09-05T04:36:08Z</time>
      </trkpt>
      <trkpt lat="45.12913" lon="6.04197">
        <ele>722.6</ele>
        <time>2020-09-05T04:36:10Z</time>
      </trkpt>
      <trkpt lat="45.12905" lon="6.04211">
        <ele>723.4</ele>
        <time>2020-09-05T04:36:13Z</time>
      </trkpt>
      <trkpt lat="45.12898" lon="6.04223">
        <ele>724.2</ele>
        <time>2020-09-05T04:36:16Z</time>
      </trkpt>
      <trkpt lat="45.12891" lon="6.04235">
        <ele>725</ele>
        <time>2020-09-05T04:36:19Z</time>
      </trkpt>
      <trkpt lat="45.12885" lon="6.04247">
        <ele>725.6</ele>
        <time>2020-09-05T04:36:22Z</time>
      </trkpt>
      <trkpt lat="45.12879" lon="6.04259">
        <ele>726.2</ele>
        <time>2020-09-05T04:36:25Z</time>
      </trkpt>
      <trkpt lat="45.12874" lon="6.04271">
        <ele>726.8</ele>
        <time>2020-09-05T04:36:28Z</time>
      </trkpt>
      <trkpt lat="45.12868" lon="6.04282">
        <ele>727.2</ele>
        <time>2020-09-05T04:36:31Z</time>
      </trkpt>
      <trkpt lat="45.12862" lon="6.04295">
        <ele>728</ele>
        <time>2020-09-05T04:36:34Z</time>
      </trkpt>
      <trkpt lat="45.12856" lon="6.04306">
        <ele>728.6</ele>
        <time>2020-09-05T04:36:37Z</time>
      </trkpt>
      <trkpt lat="45.12851" lon="6.04317">
        <ele>729.2</ele>
        <time>2020-09-05T04:36:40Z</time>
      </trkpt>
      <trkpt lat="45.12846" lon="6.04328">
        <ele>729.8</ele>
        <time>2020-09-05T04:36:43Z</time>
      </trkpt>
      <trkpt lat="45.1284" lon="6.04339">
        <ele>730.4</ele>
        <time>2020-09-05T04:36:46Z</time>
      </trkpt>
      <trkpt lat="45.12834" lon="6.0435">
        <ele>731.2</ele>
        <time>2020-09-05T04:36:49Z</time>
      </trkpt>
      <trkpt lat="45.12828" lon="6.0436">
        <ele>732.4</ele>
        <time>2020-09-05T04:36:52Z</time>
      </trkpt>
      <trkpt lat="45.1282" lon="6.04367">
        <ele>732.6</ele>
        <time>2020-09-05T04:36:55Z</time>
      </trkpt>
      <trkpt lat="45.1281" lon="6.04373">
        <ele>733.6</ele>
        <time>2020-09-05T04:36:58Z</time>
      </trkpt>
      <trkpt lat="45.12801" lon="6.04379">
        <ele>734.6</ele>
        <time>2020-09-05T04:37:01Z</time>
      </trkpt>
      <trkpt lat="45.12795" lon="6.04389">
        <ele>735</ele>
        <time>2020-09-05T04:37:04Z</time>
      </trkpt>
      <trkpt lat="45.12794" lon="6.04402">
        <ele>735.4</ele>
        <time>2020-09-05T04:37:07Z</time>
      </trkpt>
      <trkpt lat="45.12799" lon="6.04414">
        <ele>735.8</ele>
        <time>2020-09-05T04:37:10Z</time>
      </trkpt>
      <trkpt lat="45.12809" lon="6.0442">
        <ele>736</ele>
        <time>2020-09-05T04:37:13Z</time>
      </trkpt>
      <trkpt lat="45.1282" lon="6.04416">
        <ele>736.6</ele>
        <time>2020-09-05T04:37:16Z</time>
      </trkpt>
      <trkpt lat="45.12829" lon="6.04406">
        <ele>737</ele>
        <time>2020-09-05T04:37:19Z</time>
      </trkpt>
      <trkpt lat="45.12837" lon="6.04395">
        <ele>737.4</ele>
        <time>2020-09-05T04:37:22Z</time>
      </trkpt>
      <trkpt lat="45.12845" lon="6.04385">
        <ele>738</ele>
        <time>2020-09-05T04:37:25Z</time>
      </trkpt>
      <trkpt lat="45.12852" lon="6.04375">
        <ele>738.8</ele>
        <time>2020-09-05T04:37:28Z</time>
      </trkpt>
      <trkpt lat="45.1286" lon="6.04365">
        <ele>739.6</ele>
        <time>2020-09-05T04:37:31Z</time>
      </trkpt>
      <trkpt lat="45.12867" lon="6.04356">
        <ele>740.2</ele>
        <time>2020-09-05T04:37:34Z</time>
      </trkpt>
      <trkpt lat="45.12873" lon="6.04347">
        <ele>741.2</ele>
        <time>2020-09-05T04:37:37Z</time>
      </trkpt>
      <trkpt lat="45.12881" lon="6.04338">
        <ele>741.8</ele>
        <time>2020-09-05T04:37:40Z</time>
      </trkpt>
      <trkpt lat="45.12888" lon="6.04329">
        <ele>742.4</ele>
        <time>2020-09-05T04:37:43Z</time>
      </trkpt>
      <trkpt lat="45.12895" lon="6.0432">
        <ele>743.2</ele>
        <time>2020-09-05T04:37:46Z</time>
      </trkpt>
      <trkpt lat="45.12902" lon="6.0431">
        <ele>744</ele>
        <time>2020-09-05T04:37:49Z</time>
      </trkpt>
      <trkpt lat="45.1291" lon="6.04301">
        <ele>744.8</ele>
        <time>2020-09-05T04:37:52Z</time>
      </trkpt>
      <trkpt lat="45.12917" lon="6.04293">
        <ele>745.4</ele>
        <time>2020-09-05T04:37:55Z</time>
      </trkpt>
      <trkpt lat="45.12925" lon="6.04283">
        <ele>746.4</ele>
        <time>2020-09-05T04:37:58Z</time>
      </trkpt>
      <trkpt lat="45.12932" lon="6.04275">
        <ele>747.2</ele>
        <time>2020-09-05T04:38:01Z</time>
      </trkpt>
      <trkpt lat="45.1294" lon="6.04264">
        <ele>748</ele>
        <time>2020-09-05T04:38:05Z</time>
      </trkpt>
      <trkpt lat="45.12949" lon="6.04254">
        <ele>748.8</ele>
        <time>2020-09-05T04:38:09Z</time>
      </trkpt>
      <trkpt lat="45.12957" lon="6.04242">
        <ele>749.8</ele>
        <time>2020-09-05T04:38:13Z</time>
      </trkpt>
      <trkpt lat="45.12966" lon="6.04231">
        <ele>750.8</ele>
        <time>2020-09-05T04:38:17Z</time>
      </trkpt>
      <trkpt lat="45.12973" lon="6.04223">
        <ele>751.4</ele>
        <time>2020-09-05T04:38:20Z</time>
      </trkpt>
      <trkpt lat="45.12982" lon="6.04211">
        <ele>752.4</ele>
        <time>2020-09-05T04:38:24Z</time>
      </trkpt>
      <trkpt lat="45.12988" lon="6.04203">
        <ele>753.2</ele>
        <time>2020-09-05T04:38:27Z</time>
      </trkpt>
      <trkpt lat="45.12995" lon="6.04194">
        <ele>754</ele>
        <time>2020-09-05T04:38:30Z</time>
      </trkpt>
      <trkpt lat="45.13004" lon="6.04183">
        <ele>754.8</ele>
        <time>2020-09-05T04:38:34Z</time>
      </trkpt>
      <trkpt lat="45.13013" lon="6.04172">
        <ele>755.8</ele>
        <time>2020-09-05T04:38:38Z</time>
      </trkpt>
      <trkpt lat="45.13021" lon="6.04162">
        <ele>756.8</ele>
        <time>2020-09-05T04:38:42Z</time>
      </trkpt>
      <trkpt lat="45.1303" lon="6.0415">
        <ele>757.6</ele>
        <time>2020-09-05T04:38:46Z</time>
      </trkpt>
      <trkpt lat="45.13036" lon="6.0414">
        <ele>758.4</ele>
        <time>2020-09-05T04:38:49Z</time>
      </trkpt>
      <trkpt lat="45.13041" lon="6.04127">
        <ele>759.2</ele>
        <time>2020-09-05T04:38:52Z</time>
      </trkpt>
      <trkpt lat="45.13045" lon="6.04114">
        <ele>760</ele>
        <time>2020-09-05T04:38:55Z</time>
      </trkpt>
      <trkpt lat="45.13048" lon="6.04101">
        <ele>760.6</ele>
        <time>2020-09-05T04:38:58Z</time>
      </trkpt>
      <trkpt lat="45.13052" lon="6.04089">
        <ele>761.2</ele>
        <time>2020-09-05T04:39:01Z</time>
      </trkpt>
      <trkpt lat="45.13053" lon="6.04085">
        <ele>761.4</ele>
        <time>2020-09-05T04:39:02Z</time>
      </trkpt>
      <trkpt lat="45.13056" lon="6.04082">
        <ele>761.6</ele>
        <time>2020-09-05T04:39:03Z</time>
      </trkpt>
      <trkpt lat="45.13059" lon="6.0408">
        <ele>761.8</ele>
        <time>2020-09-05T04:39:04Z</time>
      </trkpt>
      <trkpt lat="45.13066" lon="6.04081">
        <ele>762.2</ele>
        <time>2020-09-05T04:39:06Z</time>
      </trkpt>
      <trkpt lat="45.13069" lon="6.04085">
        <ele>762.6</ele>
        <time>2020-09-05T04:39:07Z</time>
      </trkpt>
      <trkpt lat="45.13071" lon="6.04089">
        <ele>762.8</ele>
        <time>2020-09-05T04:39:08Z</time>
      </trkpt>
      <trkpt lat="45.13073" lon="6.04094">
        <ele>762.8</ele>
        <time>2020-09-05T04:39:09Z</time>
      </trkpt>
      <trkpt lat="45.13073" lon="6.041">
        <ele>763</ele>
        <time>2020-09-05T04:39:10Z</time>
      </trkpt>
      <trkpt lat="45.13071" lon="6.04106">
        <ele>763.2</ele>
        <time>2020-09-05T04:39:11Z</time>
      </trkpt>
      <trkpt lat="45.13068" lon="6.04111">
        <ele>763.4</ele>
        <time>2020-09-05T04:39:12Z</time>
      </trkpt>
      <trkpt lat="45.13065" lon="6.04116">
        <ele>763.6</ele>
        <time>2020-09-05T04:39:13Z</time>
      </trkpt>
      <trkpt lat="45.13062" lon="6.04122">
        <ele>763.6</ele>
        <time>2020-09-05T04:39:14Z</time>
      </trkpt>
      <trkpt lat="45.13058" lon="6.04127">
        <ele>763.6</ele>
        <time>2020-09-05T04:39:15Z</time>
      </trkpt>
      <trkpt lat="45.13055" lon="6.04132">
        <ele>763.6</ele>
        <time>2020-09-05T04:39:16Z</time>
      </trkpt>
      <trkpt lat="45.13051" lon="6.04138">
        <ele>763.8</ele>
        <time>2020-09-05T04:39:17Z</time>
      </trkpt>
      <trkpt lat="45.13048" lon="6.04144">
        <ele>763.8</ele>
        <time>2020-09-05T04:39:18Z</time>
      </trkpt>
      <trkpt lat="45.13044" lon="6.04149">
        <ele>763.8</ele>
        <time>2020-09-05T04:39:19Z</time>
      </trkpt>
      <trkpt lat="45.13041" lon="6.04155">
        <ele>763.6</ele>
        <time>2020-09-05T04:39:20Z</time>
      </trkpt>
      <trkpt lat="45.13037" lon="6.04162">
        <ele>763.8</ele>
        <time>2020-09-05T04:39:21Z</time>
      </trkpt>
      <trkpt lat="45.13034" lon="6.04168">
        <ele>763.8</ele>
        <time>2020-09-05T04:39:22Z</time>
      </trkpt>
      <trkpt lat="45.1303" lon="6.04174">
        <ele>763.8</ele>
        <time>2020-09-05T04:39:23Z</time>
      </trkpt>
      <trkpt lat="45.13026" lon="6.0418">
        <ele>764</ele>
        <time>2020-09-05T04:39:24Z</time>
      </trkpt>
      <trkpt lat="45.13022" lon="6.04186">
        <ele>763.8</ele>
        <time>2020-09-05T04:39:25Z</time>
      </trkpt>
      <trkpt lat="45.13019" lon="6.04193">
        <ele>764</ele>
        <time>2020-09-05T04:39:26Z</time>
      </trkpt>
      <trkpt lat="45.13015" lon="6.04199">
        <ele>764.2</ele>
        <time>2020-09-05T04:39:27Z</time>
      </trkpt>
      <trkpt lat="45.13011" lon="6.04205">
        <ele>764</ele>
        <time>2020-09-05T04:39:28Z</time>
      </trkpt>
      <trkpt lat="45.13007" lon="6.04211">
        <ele>764</ele>
        <time>2020-09-05T04:39:29Z</time>
      </trkpt>
      <trkpt lat="45.13004" lon="6.04217">
        <ele>764</ele>
        <time>2020-09-05T04:39:30Z</time>
      </trkpt>
      <trkpt lat="45.13" lon="6.04223">
        <ele>763.8</ele>
        <time>2020-09-05T04:39:31Z</time>
      </trkpt>
      <trkpt lat="45.12996" lon="6.04229">
        <ele>763.8</ele>
        <time>2020-09-05T04:39:32Z</time>
      </trkpt>
      <trkpt lat="45.12993" lon="6.04234">
        <ele>763.6</ele>
        <time>2020-09-05T04:39:33Z</time>
      </trkpt>
      <trkpt lat="45.12989" lon="6.0424">
        <ele>763.6</ele>
        <time>2020-09-05T04:39:34Z</time>
      </trkpt>
      <trkpt lat="45.12986" lon="6.04246">
        <ele>763.6</ele>
        <time>2020-09-05T04:39:35Z</time>
      </trkpt>
      <trkpt lat="45.12982" lon="6.04252">
        <ele>763.8</ele>
        <time>2020-09-05T04:39:36Z</time>
      </trkpt>
      <trkpt lat="45.12978" lon="6.04258">
        <ele>763.4</ele>
        <time>2020-09-05T04:39:37Z</time>
      </trkpt>
      <trkpt lat="45.12971" lon="6.0427">
        <ele>763.6</ele>
        <time>2020-09-05T04:39:39Z</time>
      </trkpt>
      <trkpt lat="45.12963" lon="6.04284">
        <ele>763.8</ele>
        <time>2020-09-05T04:39:41Z</time>
      </trkpt>
      <trkpt lat="45.12955" lon="6.04297">
        <ele>763.8</ele>
        <time>2020-09-05T04:39:43Z</time>
      </trkpt>
      <trkpt lat="45.12947" lon="6.0431">
        <ele>763.8</ele>
        <time>2020-09-05T04:39:45Z</time>
      </trkpt>
      <trkpt lat="45.12939" lon="6.04323">
        <ele>763.8</ele>
        <time>2020-09-05T04:39:47Z</time>
      </trkpt>
      <trkpt lat="45.12931" lon="6.04337">
        <ele>763.8</ele>
        <time>2020-09-05T04:39:49Z</time>
      </trkpt>
      <trkpt lat="45.12923" lon="6.0435">
        <ele>764</ele>
        <time>2020-09-05T04:39:51Z</time>
      </trkpt>
      <trkpt lat="45.12915" lon="6.04363">
        <ele>763.8</ele>
        <time>2020-09-05T04:39:53Z</time>
      </trkpt>
      <trkpt lat="45.12906" lon="6.04377">
        <ele>764</ele>
        <time>2020-09-05T04:39:55Z</time>
      </trkpt>
      <trkpt lat="45.12898" lon="6.0439">
        <ele>764.4</ele>
        <time>2020-09-05T04:39:57Z</time>
      </trkpt>
      <trkpt lat="45.1289" lon="6.04403">
        <ele>764.6</ele>
        <time>2020-09-05T04:39:59Z</time>
      </trkpt>
      <trkpt lat="45.12882" lon="6.04416">
        <ele>764.2</ele>
        <time>2020-09-05T04:40:01Z</time>
      </trkpt>
      <trkpt lat="45.12874" lon="6.04429">
        <ele>764.2</ele>
        <time>2020-09-05T04:40:03Z</time>
      </trkpt>
      <trkpt lat="45.12866" lon="6.04441">
        <ele>764.4</ele>
        <time>2020-09-05T04:40:05Z</time>
      </trkpt>
      <trkpt lat="45.12859" lon="6.04454">
        <ele>764.4</ele>
        <time>2020-09-05T04:40:07Z</time>
      </trkpt>
      <trkpt lat="45.12851" lon="6.04467">
        <ele>764.4</ele>
        <time>2020-09-05T04:40:09Z</time>
      </trkpt>
      <trkpt lat="45.12843" lon="6.04479">
        <ele>764.8</ele>
        <time>2020-09-05T04:40:11Z</time>
      </trkpt>
      <trkpt lat="45.12836" lon="6.04491">
        <ele>764.6</ele>
        <time>2020-09-05T04:40:13Z</time>
      </trkpt>
      <trkpt lat="45.12828" lon="6.04504">
        <ele>764.6</ele>
        <time>2020-09-05T04:40:15Z</time>
      </trkpt>
      <trkpt lat="45.12821" lon="6.04515">
        <ele>764</ele>
        <time>2020-09-05T04:40:17Z</time>
      </trkpt>
      <trkpt lat="45.12814" lon="6.04526">
        <ele>764</ele>
        <time>2020-09-05T04:40:19Z</time>
      </trkpt>
      <trkpt lat="45.12811" lon="6.04531">
        <ele>763.8</ele>
        <time>2020-09-05T04:40:20Z</time>
      </trkpt>
      <trkpt lat="45.12806" lon="6.04533">
        <ele>763.8</ele>
        <time>2020-09-05T04:40:21Z</time>
      </trkpt>
      <trkpt lat="45.12802" lon="6.04533">
        <ele>763.8</ele>
        <time>2020-09-05T04:40:22Z</time>
      </trkpt>
      <trkpt lat="45.12798" lon="6.0453">
        <ele>763.8</ele>
        <time>2020-09-05T04:40:23Z</time>
      </trkpt>
      <trkpt lat="45.12791" lon="6.04521">
        <ele>763.8</ele>
        <time>2020-09-05T04:40:25Z</time>
      </trkpt>
      <trkpt lat="45.12788" lon="6.04516">
        <ele>763.8</ele>
        <time>2020-09-05T04:40:26Z</time>
      </trkpt>
      <trkpt lat="45.12782" lon="6.04502">
        <ele>763.6</ele>
        <time>2020-09-05T04:40:28Z</time>
      </trkpt>
      <trkpt lat="45.12776" lon="6.04489">
        <ele>763.6</ele>
        <time>2020-09-05T04:40:30Z</time>
      </trkpt>
      <trkpt lat="45.1277" lon="6.04477">
        <ele>763.6</ele>
        <time>2020-09-05T04:40:32Z</time>
      </trkpt>
      <trkpt lat="45.12764" lon="6.04465">
        <ele>763.8</ele>
        <time>2020-09-05T04:40:34Z</time>
      </trkpt>
      <trkpt lat="45.12759" lon="6.04454">
        <ele>764.2</ele>
        <time>2020-09-05T04:40:36Z</time>
      </trkpt>
      <trkpt lat="45.12753" lon="6.04443">
        <ele>764.6</ele>
        <time>2020-09-05T04:40:38Z</time>
      </trkpt>
      <trkpt lat="45.12748" lon="6.04432">
        <ele>764.8</ele>
        <time>2020-09-05T04:40:40Z</time>
      </trkpt>
      <trkpt lat="45.1274" lon="6.04419">
        <ele>765.4</ele>
        <time>2020-09-05T04:40:43Z</time>
      </trkpt>
      <trkpt lat="45.12732" lon="6.0441">
        <ele>766</ele>
        <time>2020-09-05T04:40:46Z</time>
      </trkpt>
      <trkpt lat="45.12724" lon="6.04403">
        <ele>766.8</ele>
        <time>2020-09-05T04:40:49Z</time>
      </trkpt>
      <trkpt lat="45.12715" lon="6.04397">
        <ele>767.4</ele>
        <time>2020-09-05T04:40:52Z</time>
      </trkpt>
      <trkpt lat="45.12707" lon="6.04389">
        <ele>768.4</ele>
        <time>2020-09-05T04:40:55Z</time>
      </trkpt>
      <trkpt lat="45.127" lon="6.04381">
        <ele>769.2</ele>
        <time>2020-09-05T04:40:58Z</time>
      </trkpt>
      <trkpt lat="45.12691" lon="6.04369">
        <ele>770.4</ele>
        <time>2020-09-05T04:41:02Z</time>
      </trkpt>
      <trkpt lat="45.12684" lon="6.04358">
        <ele>771.2</ele>
        <time>2020-09-05T04:41:06Z</time>
      </trkpt>
      <trkpt lat="45.12676" lon="6.04348">
        <ele>772.4</ele>
        <time>2020-09-05T04:41:10Z</time>
      </trkpt>
      <trkpt lat="45.12666" lon="6.0434">
        <ele>773.4</ele>
        <time>2020-09-05T04:41:14Z</time>
      </trkpt>
      <trkpt lat="45.12655" lon="6.04332">
        <ele>774.8</ele>
        <time>2020-09-05T04:41:18Z</time>
      </trkpt>
      <trkpt lat="45.12644" lon="6.04328">
        <ele>776</ele>
        <time>2020-09-05T04:41:22Z</time>
      </trkpt>
      <trkpt lat="45.12633" lon="6.04325">
        <ele>777</ele>
        <time>2020-09-05T04:41:26Z</time>
      </trkpt>
      <trkpt lat="45.12621" lon="6.04319">
        <ele>778</ele>
        <time>2020-09-05T04:41:30Z</time>
      </trkpt>
      <trkpt lat="45.12614" lon="6.04308">
        <ele>779</ele>
        <time>2020-09-05T04:41:34Z</time>
      </trkpt>
      <trkpt lat="45.12611" lon="6.04293">
        <ele>780</ele>
        <time>2020-09-05T04:41:38Z</time>
      </trkpt>
      <trkpt lat="45.12608" lon="6.04278">
        <ele>781</ele>
        <time>2020-09-05T04:41:42Z</time>
      </trkpt>
      <trkpt lat="45.12605" lon="6.04262">
        <ele>782.6</ele>
        <time>2020-09-05T04:41:46Z</time>
      </trkpt>
      <trkpt lat="45.12602" lon="6.04246">
        <ele>783.4</ele>
        <time>2020-09-05T04:41:50Z</time>
      </trkpt>
      <trkpt lat="45.12596" lon="6.04232">
        <ele>784.4</ele>
        <time>2020-09-05T04:41:54Z</time>
      </trkpt>
      <trkpt lat="45.12591" lon="6.04219">
        <ele>785.8</ele>
        <time>2020-09-05T04:41:58Z</time>
      </trkpt>
      <trkpt lat="45.12586" lon="6.04207">
        <ele>786.6</ele>
        <time>2020-09-05T04:42:02Z</time>
      </trkpt>
      <trkpt lat="45.12581" lon="6.04194">
        <ele>787.4</ele>
        <time>2020-09-05T04:42:06Z</time>
      </trkpt>
      <trkpt lat="45.12577" lon="6.0418">
        <ele>788.8</ele>
        <time>2020-09-05T04:42:10Z</time>
      </trkpt>
      <trkpt lat="45.12571" lon="6.04168">
        <ele>789.8</ele>
        <time>2020-09-05T04:42:14Z</time>
      </trkpt>
      <trkpt lat="45.12566" lon="6.04155">
        <ele>790.8</ele>
        <time>2020-09-05T04:42:18Z</time>
      </trkpt>
      <trkpt lat="45.12561" lon="6.04141">
        <ele>792.4</ele>
        <time>2020-09-05T04:42:22Z</time>
      </trkpt>
      <trkpt lat="45.12554" lon="6.04131">
        <ele>793.4</ele>
        <time>2020-09-05T04:42:26Z</time>
      </trkpt>
      <trkpt lat="45.12549" lon="6.04119">
        <ele>794.4</ele>
        <time>2020-09-05T04:42:30Z</time>
      </trkpt>
      <trkpt lat="45.12544" lon="6.04106">
        <ele>795.8</ele>
        <time>2020-09-05T04:42:34Z</time>
      </trkpt>
      <trkpt lat="45.12537" lon="6.04094">
        <ele>796.8</ele>
        <time>2020-09-05T04:42:38Z</time>
      </trkpt>
      <trkpt lat="45.12531" lon="6.04084">
        <ele>797.8</ele>
        <time>2020-09-05T04:42:42Z</time>
      </trkpt>
      <trkpt lat="45.12526" lon="6.04073">
        <ele>798.6</ele>
        <time>2020-09-05T04:42:46Z</time>
      </trkpt>
      <trkpt lat="45.1252" lon="6.0406">
        <ele>799.6</ele>
        <time>2020-09-05T04:42:50Z</time>
      </trkpt>
      <trkpt lat="45.12517" lon="6.04052">
        <ele>800</ele>
        <time>2020-09-05T04:42:52Z</time>
      </trkpt>
      <trkpt lat="45.12516" lon="6.04049">
        <ele>800.2</ele>
        <time>2020-09-05T04:42:53Z</time>
      </trkpt>
      <trkpt lat="45.12515" lon="6.04045">
        <ele>800.4</ele>
        <time>2020-09-05T04:42:54Z</time>
      </trkpt>
      <trkpt lat="45.12514" lon="6.0404">
        <ele>800.6</ele>
        <time>2020-09-05T04:42:55Z</time>
      </trkpt>
      <trkpt lat="45.12513" lon="6.04036">
        <ele>800.6</ele>
        <time>2020-09-05T04:42:56Z</time>
      </trkpt>
      <trkpt lat="45.12512" lon="6.04032">
        <ele>800.8</ele>
        <time>2020-09-05T04:42:57Z</time>
      </trkpt>
      <trkpt lat="45.12511" lon="6.04029">
        <ele>801.2</ele>
        <time>2020-09-05T04:42:58Z</time>
      </trkpt>
      <trkpt lat="45.12509" lon="6.04025">
        <ele>801.2</ele>
        <time>2020-09-05T04:42:59Z</time>
      </trkpt>
      <trkpt lat="45.12507" lon="6.04021">
        <ele>801.4</ele>
        <time>2020-09-05T04:43:00Z</time>
      </trkpt>
      <trkpt lat="45.12505" lon="6.04017">
        <ele>801.6</ele>
        <time>2020-09-05T04:43:01Z</time>
      </trkpt>
      <trkpt lat="45.12497" lon="6.0401">
        <ele>802</ele>
        <time>2020-09-05T04:43:04Z</time>
      </trkpt>
      <trkpt lat="45.12489" lon="6.0402">
        <ele>802.4</ele>
        <time>2020-09-05T04:43:08Z</time>
      </trkpt>
      <trkpt lat="45.12493" lon="6.04033">
        <ele>802.4</ele>
        <time>2020-09-05T04:43:11Z</time>
      </trkpt>
      <trkpt lat="45.12498" lon="6.04046">
        <ele>803</ele>
        <time>2020-09-05T04:43:14Z</time>
      </trkpt>
      <trkpt lat="45.12505" lon="6.04065">
        <ele>803.6</ele>
        <time>2020-09-05T04:43:18Z</time>
      </trkpt>
      <trkpt lat="45.12512" lon="6.0408">
        <ele>804</ele>
        <time>2020-09-05T04:43:21Z</time>
      </trkpt>
      <trkpt lat="45.12518" lon="6.04096">
        <ele>804.2</ele>
        <time>2020-09-05T04:43:24Z</time>
      </trkpt>
      <trkpt lat="45.12522" lon="6.04106">
        <ele>804.6</ele>
        <time>2020-09-05T04:43:26Z</time>
      </trkpt>
      <trkpt lat="45.12525" lon="6.04111">
        <ele>804.8</ele>
        <time>2020-09-05T04:43:27Z</time>
      </trkpt>
      <trkpt lat="45.12531" lon="6.04127">
        <ele>804.8</ele>
        <time>2020-09-05T04:43:30Z</time>
      </trkpt>
      <trkpt lat="45.12536" lon="6.04143">
        <ele>805.2</ele>
        <time>2020-09-05T04:43:33Z</time>
      </trkpt>
      <trkpt lat="45.1254" lon="6.04161">
        <ele>805.6</ele>
        <time>2020-09-05T04:43:36Z</time>
      </trkpt>
      <trkpt lat="45.12542" lon="6.04179">
        <ele>805.8</ele>
        <time>2020-09-05T04:43:39Z</time>
      </trkpt>
      <trkpt lat="45.12546" lon="6.04197">
        <ele>806.4</ele>
        <time>2020-09-05T04:43:42Z</time>
      </trkpt>
      <trkpt lat="45.1255" lon="6.04215">
        <ele>806.8</ele>
        <time>2020-09-05T04:43:45Z</time>
      </trkpt>
      <trkpt lat="45.12553" lon="6.04233">
        <ele>807.6</ele>
        <time>2020-09-05T04:43:48Z</time>
      </trkpt>
      <trkpt lat="45.12556" lon="6.0425">
        <ele>807.8</ele>
        <time>2020-09-05T04:43:51Z</time>
      </trkpt>
      <trkpt lat="45.1256" lon="6.04263">
        <ele>808</ele>
        <time>2020-09-05T04:43:53Z</time>
      </trkpt>
      <trkpt lat="45.12571" lon="6.04299">
        <ele>808.6</ele>
        <time>2020-09-05T04:43:59Z</time>
      </trkpt>
      <trkpt lat="45.12574" lon="6.04312">
        <ele>808.8</ele>
        <time>2020-09-05T04:44:01Z</time>
      </trkpt>
      <trkpt lat="45.12575" lon="6.04331">
        <ele>809.4</ele>
        <time>2020-09-05T04:44:04Z</time>
      </trkpt>
      <trkpt lat="45.12576" lon="6.04348">
        <ele>809.8</ele>
        <time>2020-09-05T04:44:07Z</time>
      </trkpt>
      <trkpt lat="45.12578" lon="6.04366">
        <ele>810</ele>
        <time>2020-09-05T04:44:10Z</time>
      </trkpt>
      <trkpt lat="45.12584" lon="6.04375">
        <ele>810.6</ele>
        <time>2020-09-05T04:44:13Z</time>
      </trkpt>
      <trkpt lat="45.12608" lon="6.04388">
        <ele>810.8</ele>
        <time>2020-09-05T04:44:18Z</time>
      </trkpt>
      <trkpt lat="45.12615" lon="6.04402">
        <ele>811.2</ele>
        <time>2020-09-05T04:44:21Z</time>
      </trkpt>
      <trkpt lat="45.12621" lon="6.04418">
        <ele>812</ele>
        <time>2020-09-05T04:44:24Z</time>
      </trkpt>
      <trkpt lat="45.12627" lon="6.04434">
        <ele>812.6</ele>
        <time>2020-09-05T04:44:27Z</time>
      </trkpt>
      <trkpt lat="45.12634" lon="6.04448">
        <ele>813.2</ele>
        <time>2020-09-05T04:44:30Z</time>
      </trkpt>
      <trkpt lat="45.1264" lon="6.04461">
        <ele>814.2</ele>
        <time>2020-09-05T04:44:33Z</time>
      </trkpt>
      <trkpt lat="45.12648" lon="6.04473">
        <ele>814.8</ele>
        <time>2020-09-05T04:44:36Z</time>
      </trkpt>
      <trkpt lat="45.12658" lon="6.04486">
        <ele>815.4</ele>
        <time>2020-09-05T04:44:39Z</time>
      </trkpt>
      <trkpt lat="45.12665" lon="6.04498">
        <ele>816</ele>
        <time>2020-09-05T04:44:42Z</time>
      </trkpt>
      <trkpt lat="45.12671" lon="6.0451">
        <ele>816.8</ele>
        <time>2020-09-05T04:44:45Z</time>
      </trkpt>
      <trkpt lat="45.12676" lon="6.04521">
        <ele>817.4</ele>
        <time>2020-09-05T04:44:48Z</time>
      </trkpt>
      <trkpt lat="45.12681" lon="6.04534">
        <ele>818.4</ele>
        <time>2020-09-05T04:44:51Z</time>
      </trkpt>
      <trkpt lat="45.12685" lon="6.04546">
        <ele>819.2</ele>
        <time>2020-09-05T04:44:54Z</time>
      </trkpt>
      <trkpt lat="45.12689" lon="6.04562">
        <ele>820.4</ele>
        <time>2020-09-05T04:44:58Z</time>
      </trkpt>
      <trkpt lat="45.12692" lon="6.04577">
        <ele>821.4</ele>
        <time>2020-09-05T04:45:02Z</time>
      </trkpt>
      <trkpt lat="45.12695" lon="6.04589">
        <ele>822.6</ele>
        <time>2020-09-05T04:45:06Z</time>
      </trkpt>
      <trkpt lat="45.12698" lon="6.04602">
        <ele>823.8</ele>
        <time>2020-09-05T04:45:10Z</time>
      </trkpt>
      <trkpt lat="45.12702" lon="6.04617">
        <ele>825.2</ele>
        <time>2020-09-05T04:45:14Z</time>
      </trkpt>
      <trkpt lat="45.12706" lon="6.04631">
        <ele>826</ele>
        <time>2020-09-05T04:45:18Z</time>
      </trkpt>
      <trkpt lat="45.12711" lon="6.04644">
        <ele>826.8</ele>
        <time>2020-09-05T04:45:22Z</time>
      </trkpt>
      <trkpt lat="45.12716" lon="6.04657">
        <ele>828</ele>
        <time>2020-09-05T04:45:26Z</time>
      </trkpt>
      <trkpt lat="45.12721" lon="6.04669">
        <ele>828.8</ele>
        <time>2020-09-05T04:45:30Z</time>
      </trkpt>
      <trkpt lat="45.12726" lon="6.04682">
        <ele>830.2</ele>
        <time>2020-09-05T04:45:34Z</time>
      </trkpt>
      <trkpt lat="45.12729" lon="6.04695">
        <ele>831.4</ele>
        <time>2020-09-05T04:45:38Z</time>
      </trkpt>
      <trkpt lat="45.12732" lon="6.04708">
        <ele>832.4</ele>
        <time>2020-09-05T04:45:42Z</time>
      </trkpt>
      <trkpt lat="45.12737" lon="6.04722">
        <ele>833.2</ele>
        <time>2020-09-05T04:45:46Z</time>
      </trkpt>
      <trkpt lat="45.12742" lon="6.04733">
        <ele>834</ele>
        <time>2020-09-05T04:45:49Z</time>
      </trkpt>
      <trkpt lat="45.12741" lon="6.04746">
        <ele>834.6</ele>
        <time>2020-09-05T04:45:52Z</time>
      </trkpt>
      <trkpt lat="45.12739" lon="6.0475">
        <ele>834.8</ele>
        <time>2020-09-05T04:45:53Z</time>
      </trkpt>
      <trkpt lat="45.12733" lon="6.04754">
        <ele>835.2</ele>
        <time>2020-09-05T04:45:55Z</time>
      </trkpt>
      <trkpt lat="45.1273" lon="6.04754">
        <ele>835.4</ele>
        <time>2020-09-05T04:45:56Z</time>
      </trkpt>
      <trkpt lat="45.12727" lon="6.04753">
        <ele>835.6</ele>
        <time>2020-09-05T04:45:57Z</time>
      </trkpt>
      <trkpt lat="45.12725" lon="6.04751">
        <ele>835.8</ele>
        <time>2020-09-05T04:45:58Z</time>
      </trkpt>
      <trkpt lat="45.1272" lon="6.04737">
        <ele>836.8</ele>
        <time>2020-09-05T04:46:02Z</time>
      </trkpt>
      <trkpt lat="45.12716" lon="6.04722">
        <ele>837.2</ele>
        <time>2020-09-05T04:46:05Z</time>
      </trkpt>
      <trkpt lat="45.12713" lon="6.04709">
        <ele>837.6</ele>
        <time>2020-09-05T04:46:08Z</time>
      </trkpt>
      <trkpt lat="45.12708" lon="6.04698">
        <ele>838</ele>
        <time>2020-09-05T04:46:11Z</time>
      </trkpt>
      <trkpt lat="45.12703" lon="6.04686">
        <ele>838.6</ele>
        <time>2020-09-05T04:46:15Z</time>
      </trkpt>
      <trkpt lat="45.12696" lon="6.04676">
        <ele>839</ele>
        <time>2020-09-05T04:46:19Z</time>
      </trkpt>
      <trkpt lat="45.12687" lon="6.04665">
        <ele>840.4</ele>
        <time>2020-09-05T04:46:23Z</time>
      </trkpt>
      <trkpt lat="45.1268" lon="6.04657">
        <ele>841.2</ele>
        <time>2020-09-05T04:46:26Z</time>
      </trkpt>
      <trkpt lat="45.12673" lon="6.04645">
        <ele>842</ele>
        <time>2020-09-05T04:46:30Z</time>
      </trkpt>
      <trkpt lat="45.12665" lon="6.0463">
        <ele>842.8</ele>
        <time>2020-09-05T04:46:34Z</time>
      </trkpt>
      <trkpt lat="45.12658" lon="6.04622">
        <ele>844</ele>
        <time>2020-09-05T04:46:37Z</time>
      </trkpt>
      <trkpt lat="45.12649" lon="6.04612">
        <ele>845.2</ele>
        <time>2020-09-05T04:46:41Z</time>
      </trkpt>
      <trkpt lat="45.12641" lon="6.04601">
        <ele>846</ele>
        <time>2020-09-05T04:46:45Z</time>
      </trkpt>
      <trkpt lat="45.12634" lon="6.04587">
        <ele>846.8</ele>
        <time>2020-09-05T04:46:49Z</time>
      </trkpt>
      <trkpt lat="45.12627" lon="6.04574">
        <ele>848</ele>
        <time>2020-09-05T04:46:53Z</time>
      </trkpt>
      <trkpt lat="45.12622" lon="6.04559">
        <ele>849</ele>
        <time>2020-09-05T04:46:57Z</time>
      </trkpt>
      <trkpt lat="45.12619" lon="6.04545">
        <ele>849.8</ele>
        <time>2020-09-05T04:47:01Z</time>
      </trkpt>
      <trkpt lat="45.12613" lon="6.04533">
        <ele>850.8</ele>
        <time>2020-09-05T04:47:05Z</time>
      </trkpt>
      <trkpt lat="45.12604" lon="6.04522">
        <ele>851.6</ele>
        <time>2020-09-05T04:47:09Z</time>
      </trkpt>
      <trkpt lat="45.12599" lon="6.04511">
        <ele>852.2</ele>
        <time>2020-09-05T04:47:12Z</time>
      </trkpt>
      <trkpt lat="45.12592" lon="6.04502">
        <ele>853</ele>
        <time>2020-09-05T04:47:15Z</time>
      </trkpt>
      <trkpt lat="45.12587" lon="6.04491">
        <ele>853.6</ele>
        <time>2020-09-05T04:47:18Z</time>
      </trkpt>
      <trkpt lat="45.12579" lon="6.04477">
        <ele>854.6</ele>
        <time>2020-09-05T04:47:22Z</time>
      </trkpt>
      <trkpt lat="45.12573" lon="6.04468">
        <ele>855</ele>
        <time>2020-09-05T04:47:25Z</time>
      </trkpt>
      <trkpt lat="45.12565" lon="6.04461">
        <ele>855.2</ele>
        <time>2020-09-05T04:47:28Z</time>
      </trkpt>
      <trkpt lat="45.12556" lon="6.04452">
        <ele>855.8</ele>
        <time>2020-09-05T04:47:31Z</time>
      </trkpt>
      <trkpt lat="45.12548" lon="6.04445">
        <ele>856.4</ele>
        <time>2020-09-05T04:47:34Z</time>
      </trkpt>
      <trkpt lat="45.12538" lon="6.04436">
        <ele>857</ele>
        <time>2020-09-05T04:47:37Z</time>
      </trkpt>
      <trkpt lat="45.12527" lon="6.04427">
        <ele>857.4</ele>
        <time>2020-09-05T04:47:40Z</time>
      </trkpt>
      <trkpt lat="45.12522" lon="6.04416">
        <ele>857.6</ele>
        <time>2020-09-05T04:47:42Z</time>
      </trkpt>
      <trkpt lat="45.12518" lon="6.04403">
        <ele>858</ele>
        <time>2020-09-05T04:47:44Z</time>
      </trkpt>
      <trkpt lat="45.12515" lon="6.04387">
        <ele>858.4</ele>
        <time>2020-09-05T04:47:47Z</time>
      </trkpt>
      <trkpt lat="45.12516" lon="6.0437">
        <ele>859.2</ele>
        <time>2020-09-05T04:47:50Z</time>
      </trkpt>
      <trkpt lat="45.12515" lon="6.04357">
        <ele>859.8</ele>
        <time>2020-09-05T04:47:53Z</time>
      </trkpt>
      <trkpt lat="45.12511" lon="6.04344">
        <ele>861</ele>
        <time>2020-09-05T04:47:56Z</time>
      </trkpt>
      <trkpt lat="45.12505" lon="6.04332">
        <ele>862</ele>
        <time>2020-09-05T04:47:59Z</time>
      </trkpt>
      <trkpt lat="45.12498" lon="6.04324">
        <ele>862.6</ele>
        <time>2020-09-05T04:48:02Z</time>
      </trkpt>
      <trkpt lat="45.12494" lon="6.04312">
        <ele>863.2</ele>
        <time>2020-09-05T04:48:05Z</time>
      </trkpt>
      <trkpt lat="45.12488" lon="6.04298">
        <ele>864.2</ele>
        <time>2020-09-05T04:48:09Z</time>
      </trkpt>
      <trkpt lat="45.12487" lon="6.04284">
        <ele>865</ele>
        <time>2020-09-05T04:48:12Z</time>
      </trkpt>
      <trkpt lat="45.12483" lon="6.04271">
        <ele>865.6</ele>
        <time>2020-09-05T04:48:15Z</time>
      </trkpt>
      <trkpt lat="45.1248" lon="6.04258">
        <ele>866.4</ele>
        <time>2020-09-05T04:48:18Z</time>
      </trkpt>
      <trkpt lat="45.12475" lon="6.04243">
        <ele>867.6</ele>
        <time>2020-09-05T04:48:22Z</time>
      </trkpt>
      <trkpt lat="45.12471" lon="6.04227">
        <ele>868.6</ele>
        <time>2020-09-05T04:48:26Z</time>
      </trkpt>
      <trkpt lat="45.12468" lon="6.04213">
        <ele>869.6</ele>
        <time>2020-09-05T04:48:30Z</time>
      </trkpt>
      <trkpt lat="45.12462" lon="6.04199">
        <ele>870.6</ele>
        <time>2020-09-05T04:48:34Z</time>
      </trkpt>
      <trkpt lat="45.12455" lon="6.0419">
        <ele>871.2</ele>
        <time>2020-09-05T04:48:37Z</time>
      </trkpt>
      <trkpt lat="45.1245" lon="6.04176">
        <ele>872.2</ele>
        <time>2020-09-05T04:48:41Z</time>
      </trkpt>
      <trkpt lat="45.12444" lon="6.04162">
        <ele>873.4</ele>
        <time>2020-09-05T04:48:45Z</time>
      </trkpt>
      <trkpt lat="45.1244" lon="6.0415">
        <ele>874.2</ele>
        <time>2020-09-05T04:48:48Z</time>
      </trkpt>
      <trkpt lat="45.12435" lon="6.04137">
        <ele>875</ele>
        <time>2020-09-05T04:48:51Z</time>
      </trkpt>
      <trkpt lat="45.1243" lon="6.04127">
        <ele>875.6</ele>
        <time>2020-09-05T04:48:54Z</time>
      </trkpt>
      <trkpt lat="45.12424" lon="6.04117">
        <ele>876.4</ele>
        <time>2020-09-05T04:48:57Z</time>
      </trkpt>
      <trkpt lat="45.12415" lon="6.04109">
        <ele>877.2</ele>
        <time>2020-09-05T04:49:00Z</time>
      </trkpt>
      <trkpt lat="45.12406" lon="6.041">
        <ele>878.2</ele>
        <time>2020-09-05T04:49:04Z</time>
      </trkpt>
      <trkpt lat="45.12395" lon="6.04097">
        <ele>879.2</ele>
        <time>2020-09-05T04:49:08Z</time>
      </trkpt>
      <trkpt lat="45.12385" lon="6.04093">
        <ele>880.2</ele>
        <time>2020-09-05T04:49:12Z</time>
      </trkpt>
      <trkpt lat="45.1238" lon="6.04079">
        <ele>881.2</ele>
        <time>2020-09-05T04:49:16Z</time>
      </trkpt>
      <trkpt lat="45.12373" lon="6.04065">
        <ele>882.4</ele>
        <time>2020-09-05T04:49:20Z</time>
      </trkpt>
      <trkpt lat="45.12366" lon="6.04053">
        <ele>883.4</ele>
        <time>2020-09-05T04:49:24Z</time>
      </trkpt>
      <trkpt lat="45.1236" lon="6.04041">
        <ele>884.2</ele>
        <time>2020-09-05T04:49:28Z</time>
      </trkpt>
      <trkpt lat="45.12352" lon="6.04032">
        <ele>885.2</ele>
        <time>2020-09-05T04:49:32Z</time>
      </trkpt>
      <trkpt lat="45.12343" lon="6.04026">
        <ele>886.2</ele>
        <time>2020-09-05T04:49:36Z</time>
      </trkpt>
      <trkpt lat="45.12334" lon="6.04022">
        <ele>887</ele>
        <time>2020-09-05T04:49:39Z</time>
      </trkpt>
      <trkpt lat="45.12326" lon="6.04014">
        <ele>887.4</ele>
        <time>2020-09-05T04:49:42Z</time>
      </trkpt>
      <trkpt lat="45.12317" lon="6.04012">
        <ele>888.2</ele>
        <time>2020-09-05T04:49:45Z</time>
      </trkpt>
      <trkpt lat="45.12307" lon="6.04007">
        <ele>889</ele>
        <time>2020-09-05T04:49:49Z</time>
      </trkpt>
      <trkpt lat="45.12299" lon="6.03998">
        <ele>890</ele>
        <time>2020-09-05T04:49:53Z</time>
      </trkpt>
      <trkpt lat="45.12291" lon="6.03987">
        <ele>891</ele>
        <time>2020-09-05T04:49:57Z</time>
      </trkpt>
      <trkpt lat="45.12281" lon="6.03977">
        <ele>892</ele>
        <time>2020-09-05T04:50:01Z</time>
      </trkpt>
      <trkpt lat="45.12273" lon="6.03969">
        <ele>892.6</ele>
        <time>2020-09-05T04:50:04Z</time>
      </trkpt>
      <trkpt lat="45.12264" lon="6.03961">
        <ele>893.6</ele>
        <time>2020-09-05T04:50:08Z</time>
      </trkpt>
      <trkpt lat="45.12255" lon="6.03952">
        <ele>894.6</ele>
        <time>2020-09-05T04:50:12Z</time>
      </trkpt>
      <trkpt lat="45.12246" lon="6.03947">
        <ele>895.4</ele>
        <time>2020-09-05T04:50:15Z</time>
      </trkpt>
      <trkpt lat="45.12236" lon="6.0394">
        <ele>896.4</ele>
        <time>2020-09-05T04:50:19Z</time>
      </trkpt>
      <trkpt lat="45.12227" lon="6.03935">
        <ele>897.4</ele>
        <time>2020-09-05T04:50:23Z</time>
      </trkpt>
      <trkpt lat="45.12218" lon="6.03923">
        <ele>898.4</ele>
        <time>2020-09-05T04:50:27Z</time>
      </trkpt>
      <trkpt lat="45.1221" lon="6.03914">
        <ele>899.2</ele>
        <time>2020-09-05T04:50:31Z</time>
      </trkpt>
      <trkpt lat="45.12201" lon="6.03904">
        <ele>900.2</ele>
        <time>2020-09-05T04:50:35Z</time>
      </trkpt>
      <trkpt lat="45.12193" lon="6.03895">
        <ele>901</ele>
        <time>2020-09-05T04:50:38Z</time>
      </trkpt>
      <trkpt lat="45.12184" lon="6.03886">
        <ele>901.4</ele>
        <time>2020-09-05T04:50:41Z</time>
      </trkpt>
      <trkpt lat="45.12174" lon="6.03878">
        <ele>901.8</ele>
        <time>2020-09-05T04:50:44Z</time>
      </trkpt>
      <trkpt lat="45.12171" lon="6.03877">
        <ele>902</ele>
        <time>2020-09-05T04:50:45Z</time>
      </trkpt>
      <trkpt lat="45.1216" lon="6.03877">
        <ele>902.8</ele>
        <time>2020-09-05T04:50:48Z</time>
      </trkpt>
      <trkpt lat="45.12157" lon="6.0388">
        <ele>902.8</ele>
        <time>2020-09-05T04:50:49Z</time>
      </trkpt>
      <trkpt lat="45.12155" lon="6.03882">
        <ele>903</ele>
        <time>2020-09-05T04:50:50Z</time>
      </trkpt>
      <trkpt lat="45.12155" lon="6.03887">
        <ele>903.4</ele>
        <time>2020-09-05T04:50:51Z</time>
      </trkpt>
      <trkpt lat="45.12154" lon="6.03893">
        <ele>903.4</ele>
        <time>2020-09-05T04:50:52Z</time>
      </trkpt>
      <trkpt lat="45.12156" lon="6.03896">
        <ele>903.4</ele>
        <time>2020-09-05T04:50:53Z</time>
      </trkpt>
      <trkpt lat="45.12158" lon="6.03899">
        <ele>903.6</ele>
        <time>2020-09-05T04:50:54Z</time>
      </trkpt>
      <trkpt lat="45.12162" lon="6.03902">
        <ele>903.8</ele>
        <time>2020-09-05T04:50:55Z</time>
      </trkpt>
      <trkpt lat="45.12165" lon="6.03905">
        <ele>904</ele>
        <time>2020-09-05T04:50:56Z</time>
      </trkpt>
      <trkpt lat="45.12169" lon="6.03907">
        <ele>904.2</ele>
        <time>2020-09-05T04:50:57Z</time>
      </trkpt>
      <trkpt lat="45.12173" lon="6.03908">
        <ele>904.2</ele>
        <time>2020-09-05T04:50:58Z</time>
      </trkpt>
      <trkpt lat="45.12177" lon="6.0391">
        <ele>904.2</ele>
        <time>2020-09-05T04:50:59Z</time>
      </trkpt>
      <trkpt lat="45.12181" lon="6.03911">
        <ele>904.2</ele>
        <time>2020-09-05T04:51:00Z</time>
      </trkpt>
      <trkpt lat="45.12185" lon="6.03912">
        <ele>904.4</ele>
        <time>2020-09-05T04:51:01Z</time>
      </trkpt>
      <trkpt lat="45.12188" lon="6.03914">
        <ele>904.6</ele>
        <time>2020-09-05T04:51:02Z</time>
      </trkpt>
      <trkpt lat="45.12192" lon="6.03916">
        <ele>904.8</ele>
        <time>2020-09-05T04:51:03Z</time>
      </trkpt>
      <trkpt lat="45.12195" lon="6.03918">
        <ele>905</ele>
        <time>2020-09-05T04:51:04Z</time>
      </trkpt>
      <trkpt lat="45.12198" lon="6.0392">
        <ele>905.4</ele>
        <time>2020-09-05T04:51:05Z</time>
      </trkpt>
      <trkpt lat="45.12201" lon="6.03922">
        <ele>905.6</ele>
        <time>2020-09-05T04:51:06Z</time>
      </trkpt>
      <trkpt lat="45.12209" lon="6.03931">
        <ele>906.2</ele>
        <time>2020-09-05T04:51:09Z</time>
      </trkpt>
      <trkpt lat="45.12216" lon="6.03941">
        <ele>906.8</ele>
        <time>2020-09-05T04:51:12Z</time>
      </trkpt>
      <trkpt lat="45.1222" lon="6.03953">
        <ele>907.2</ele>
        <time>2020-09-05T04:51:15Z</time>
      </trkpt>
      <trkpt lat="45.12225" lon="6.03966">
        <ele>907.8</ele>
        <time>2020-09-05T04:51:18Z</time>
      </trkpt>
      <trkpt lat="45.1223" lon="6.03978">
        <ele>908.6</ele>
        <time>2020-09-05T04:51:21Z</time>
      </trkpt>
      <trkpt lat="45.12238" lon="6.0399">
        <ele>909.2</ele>
        <time>2020-09-05T04:51:24Z</time>
      </trkpt>
      <trkpt lat="45.12247" lon="6.04002">
        <ele>910</ele>
        <time>2020-09-05T04:51:27Z</time>
      </trkpt>
      <trkpt lat="45.12256" lon="6.04012">
        <ele>911</ele>
        <time>2020-09-05T04:51:30Z</time>
      </trkpt>
      <trkpt lat="45.12264" lon="6.0402">
        <ele>912</ele>
        <time>2020-09-05T04:51:33Z</time>
      </trkpt>
      <trkpt lat="45.12272" lon="6.04029">
        <ele>912.8</ele>
        <time>2020-09-05T04:51:36Z</time>
      </trkpt>
      <trkpt lat="45.12274" lon="6.04032">
        <ele>913</ele>
        <time>2020-09-05T04:51:37Z</time>
      </trkpt>
      <trkpt lat="45.12277" lon="6.04035">
        <ele>913.4</ele>
        <time>2020-09-05T04:51:38Z</time>
      </trkpt>
      <trkpt lat="45.12279" lon="6.04038">
        <ele>913.6</ele>
        <time>2020-09-05T04:51:39Z</time>
      </trkpt>
      <trkpt lat="45.12282" lon="6.04041">
        <ele>914</ele>
        <time>2020-09-05T04:51:40Z</time>
      </trkpt>
      <trkpt lat="45.12287" lon="6.04047">
        <ele>914.2</ele>
        <time>2020-09-05T04:51:42Z</time>
      </trkpt>
      <trkpt lat="45.12289" lon="6.0405">
        <ele>914.4</ele>
        <time>2020-09-05T04:51:43Z</time>
      </trkpt>
      <trkpt lat="45.12299" lon="6.0406">
        <ele>915.6</ele>
        <time>2020-09-05T04:51:47Z</time>
      </trkpt>
      <trkpt lat="45.12301" lon="6.04062">
        <ele>915.8</ele>
        <time>2020-09-05T04:51:48Z</time>
      </trkpt>
      <trkpt lat="45.12303" lon="6.04065">
        <ele>915.8</ele>
        <time>2020-09-05T04:51:49Z</time>
      </trkpt>
      <trkpt lat="45.12312" lon="6.04075">
        <ele>916.8</ele>
        <time>2020-09-05T04:51:53Z</time>
      </trkpt>
      <trkpt lat="45.12319" lon="6.04085">
        <ele>918</ele>
        <time>2020-09-05T04:51:56Z</time>
      </trkpt>
      <trkpt lat="45.12325" lon="6.04094">
        <ele>918.8</ele>
        <time>2020-09-05T04:51:59Z</time>
      </trkpt>
      <trkpt lat="45.12332" lon="6.04107">
        <ele>919.8</ele>
        <time>2020-09-05T04:52:03Z</time>
      </trkpt>
      <trkpt lat="45.12337" lon="6.04121">
        <ele>920.4</ele>
        <time>2020-09-05T04:52:07Z</time>
      </trkpt>
      <trkpt lat="45.12342" lon="6.04135">
        <ele>921.6</ele>
        <time>2020-09-05T04:52:11Z</time>
      </trkpt>
      <trkpt lat="45.12346" lon="6.04149">
        <ele>922.6</ele>
        <time>2020-09-05T04:52:15Z</time>
      </trkpt>
      <trkpt lat="45.1235" lon="6.04163">
        <ele>923.8</ele>
        <time>2020-09-05T04:52:19Z</time>
      </trkpt>
      <trkpt lat="45.12353" lon="6.04177">
        <ele>924.8</ele>
        <time>2020-09-05T04:52:23Z</time>
      </trkpt>
      <trkpt lat="45.12356" lon="6.04194">
        <ele>925.6</ele>
        <time>2020-09-05T04:52:27Z</time>
      </trkpt>
      <trkpt lat="45.12357" lon="6.0421">
        <ele>926.8</ele>
        <time>2020-09-05T04:52:31Z</time>
      </trkpt>
      <trkpt lat="45.12357" lon="6.04223">
        <ele>927.4</ele>
        <time>2020-09-05T04:52:34Z</time>
      </trkpt>
      <trkpt lat="45.12358" lon="6.04239">
        <ele>928.6</ele>
        <time>2020-09-05T04:52:38Z</time>
      </trkpt>
      <trkpt lat="45.12358" lon="6.04252">
        <ele>929.4</ele>
        <time>2020-09-05T04:52:41Z</time>
      </trkpt>
      <trkpt lat="45.12361" lon="6.04265">
        <ele>930</ele>
        <time>2020-09-05T04:52:44Z</time>
      </trkpt>
      <trkpt lat="45.12364" lon="6.04278">
        <ele>930.6</ele>
        <time>2020-09-05T04:52:47Z</time>
      </trkpt>
      <trkpt lat="45.12369" lon="6.04293">
        <ele>931.6</ele>
        <time>2020-09-05T04:52:51Z</time>
      </trkpt>
      <trkpt lat="45.12374" lon="6.04307">
        <ele>932.6</ele>
        <time>2020-09-05T04:52:55Z</time>
      </trkpt>
      <trkpt lat="45.12379" lon="6.0432">
        <ele>933.6</ele>
        <time>2020-09-05T04:52:59Z</time>
      </trkpt>
      <trkpt lat="45.12385" lon="6.04333">
        <ele>934.4</ele>
        <time>2020-09-05T04:53:03Z</time>
      </trkpt>
      <trkpt lat="45.12389" lon="6.04346">
        <ele>936</ele>
        <time>2020-09-05T04:53:07Z</time>
      </trkpt>
      <trkpt lat="45.12394" lon="6.04358">
        <ele>937</ele>
        <time>2020-09-05T04:53:11Z</time>
      </trkpt>
      <trkpt lat="45.12397" lon="6.04368">
        <ele>937.8</ele>
        <time>2020-09-05T04:53:14Z</time>
      </trkpt>
      <trkpt lat="45.12396" lon="6.04384">
        <ele>939</ele>
        <time>2020-09-05T04:53:18Z</time>
      </trkpt>
      <trkpt lat="45.12387" lon="6.0438">
        <ele>940</ele>
        <time>2020-09-05T04:53:22Z</time>
      </trkpt>
      <trkpt lat="45.12385" lon="6.04372">
        <ele>940.6</ele>
        <time>2020-09-05T04:53:24Z</time>
      </trkpt>
      <trkpt lat="45.12384" lon="6.04367">
        <ele>940.8</ele>
        <time>2020-09-05T04:53:25Z</time>
      </trkpt>
      <trkpt lat="45.12383" lon="6.04363">
        <ele>940.8</ele>
        <time>2020-09-05T04:53:26Z</time>
      </trkpt>
      <trkpt lat="45.12378" lon="6.04348">
        <ele>941.4</ele>
        <time>2020-09-05T04:53:29Z</time>
      </trkpt>
      <trkpt lat="45.12371" lon="6.04335">
        <ele>941.6</ele>
        <time>2020-09-05T04:53:32Z</time>
      </trkpt>
      <trkpt lat="45.12364" lon="6.04324">
        <ele>942.2</ele>
        <time>2020-09-05T04:53:35Z</time>
      </trkpt>
      <trkpt lat="45.12355" lon="6.04316">
        <ele>942.8</ele>
        <time>2020-09-05T04:53:38Z</time>
      </trkpt>
      <trkpt lat="45.1235" lon="6.04309">
        <ele>943.2</ele>
        <time>2020-09-05T04:53:40Z</time>
      </trkpt>
      <trkpt lat="45.12347" lon="6.04306">
        <ele>943.4</ele>
        <time>2020-09-05T04:53:41Z</time>
      </trkpt>
      <trkpt lat="45.12344" lon="6.04304">
        <ele>943.6</ele>
        <time>2020-09-05T04:53:42Z</time>
      </trkpt>
      <trkpt lat="45.12342" lon="6.043">
        <ele>944</ele>
        <time>2020-09-05T04:53:43Z</time>
      </trkpt>
      <trkpt lat="45.1234" lon="6.04298">
        <ele>944.2</ele>
        <time>2020-09-05T04:53:44Z</time>
      </trkpt>
      <trkpt lat="45.12337" lon="6.04295">
        <ele>944.2</ele>
        <time>2020-09-05T04:53:45Z</time>
      </trkpt>
      <trkpt lat="45.12335" lon="6.04293">
        <ele>944.4</ele>
        <time>2020-09-05T04:53:46Z</time>
      </trkpt>
      <trkpt lat="45.12333" lon="6.04291">
        <ele>944.6</ele>
        <time>2020-09-05T04:53:47Z</time>
      </trkpt>
      <trkpt lat="45.1233" lon="6.0429">
        <ele>944.8</ele>
        <time>2020-09-05T04:53:48Z</time>
      </trkpt>
      <trkpt lat="45.12322" lon="6.0428">
        <ele>946</ele>
        <time>2020-09-05T04:53:52Z</time>
      </trkpt>
      <trkpt lat="45.12316" lon="6.04273">
        <ele>946.4</ele>
        <time>2020-09-05T04:53:55Z</time>
      </trkpt>
      <trkpt lat="45.12314" lon="6.0427">
        <ele>946.6</ele>
        <time>2020-09-05T04:53:56Z</time>
      </trkpt>
      <trkpt lat="45.12312" lon="6.04267">
        <ele>947</ele>
        <time>2020-09-05T04:53:57Z</time>
      </trkpt>
      <trkpt lat="45.12304" lon="6.0426">
        <ele>948</ele>
        <time>2020-09-05T04:54:00Z</time>
      </trkpt>
      <trkpt lat="45.12298" lon="6.04252">
        <ele>948.8</ele>
        <time>2020-09-05T04:54:03Z</time>
      </trkpt>
      <trkpt lat="45.12291" lon="6.04243">
        <ele>949.6</ele>
        <time>2020-09-05T04:54:06Z</time>
      </trkpt>
      <trkpt lat="45.1229" lon="6.0424">
        <ele>949.8</ele>
        <time>2020-09-05T04:54:07Z</time>
      </trkpt>
      <trkpt lat="45.12288" lon="6.04237">
        <ele>950.2</ele>
        <time>2020-09-05T04:54:08Z</time>
      </trkpt>
      <trkpt lat="45.12287" lon="6.04233">
        <ele>950.4</ele>
        <time>2020-09-05T04:54:09Z</time>
      </trkpt>
      <trkpt lat="45.12285" lon="6.0423">
        <ele>950.6</ele>
        <time>2020-09-05T04:54:10Z</time>
      </trkpt>
      <trkpt lat="45.12283" lon="6.04227">
        <ele>950.8</ele>
        <time>2020-09-05T04:54:11Z</time>
      </trkpt>
      <trkpt lat="45.12281" lon="6.04224">
        <ele>950.8</ele>
        <time>2020-09-05T04:54:12Z</time>
      </trkpt>
      <trkpt lat="45.12279" lon="6.04221">
        <ele>951.2</ele>
        <time>2020-09-05T04:54:13Z</time>
      </trkpt>
      <trkpt lat="45.12278" lon="6.04218">
        <ele>951.4</ele>
        <time>2020-09-05T04:54:14Z</time>
      </trkpt>
      <trkpt lat="45.12276" lon="6.04215">
        <ele>951.8</ele>
        <time>2020-09-05T04:54:15Z</time>
      </trkpt>
      <trkpt lat="45.12274" lon="6.04211">
        <ele>952</ele>
        <time>2020-09-05T04:54:16Z</time>
      </trkpt>
      <trkpt lat="45.12272" lon="6.04208">
        <ele>952.4</ele>
        <time>2020-09-05T04:54:17Z</time>
      </trkpt>
      <trkpt lat="45.1227" lon="6.04205">
        <ele>952.6</ele>
        <time>2020-09-05T04:54:18Z</time>
      </trkpt>
      <trkpt lat="45.12268" lon="6.04203">
        <ele>952.8</ele>
        <time>2020-09-05T04:54:19Z</time>
      </trkpt>
      <trkpt lat="45.12265" lon="6.042">
        <ele>953.2</ele>
        <time>2020-09-05T04:54:20Z</time>
      </trkpt>
      <trkpt lat="45.12263" lon="6.04197">
        <ele>953.4</ele>
        <time>2020-09-05T04:54:21Z</time>
      </trkpt>
      <trkpt lat="45.12261" lon="6.04194">
        <ele>953.8</ele>
        <time>2020-09-05T04:54:22Z</time>
      </trkpt>
      <trkpt lat="45.12259" lon="6.04192">
        <ele>953.8</ele>
        <time>2020-09-05T04:54:23Z</time>
      </trkpt>
      <trkpt lat="45.12256" lon="6.04189">
        <ele>954.2</ele>
        <time>2020-09-05T04:54:24Z</time>
      </trkpt>
      <trkpt lat="45.12254" lon="6.04186">
        <ele>954.4</ele>
        <time>2020-09-05T04:54:25Z</time>
      </trkpt>
      <trkpt lat="45.12252" lon="6.04184">
        <ele>954.6</ele>
        <time>2020-09-05T04:54:26Z</time>
      </trkpt>
      <trkpt lat="45.1225" lon="6.04182">
        <ele>954.6</ele>
        <time>2020-09-05T04:54:27Z</time>
      </trkpt>
      <trkpt lat="45.12247" lon="6.04179">
        <ele>955</ele>
        <time>2020-09-05T04:54:28Z</time>
      </trkpt>
      <trkpt lat="45.12245" lon="6.04177">
        <ele>955.4</ele>
        <time>2020-09-05T04:54:29Z</time>
      </trkpt>
      <trkpt lat="45.12242" lon="6.04174">
        <ele>955.8</ele>
        <time>2020-09-05T04:54:30Z</time>
      </trkpt>
      <trkpt lat="45.1224" lon="6.04171">
        <ele>956</ele>
        <time>2020-09-05T04:54:31Z</time>
      </trkpt>
      <trkpt lat="45.12238" lon="6.04169">
        <ele>956</ele>
        <time>2020-09-05T04:54:32Z</time>
      </trkpt>
      <trkpt lat="45.12235" lon="6.04166">
        <ele>956.4</ele>
        <time>2020-09-05T04:54:33Z</time>
      </trkpt>
      <trkpt lat="45.12233" lon="6.04164">
        <ele>956.6</ele>
        <time>2020-09-05T04:54:34Z</time>
      </trkpt>
      <trkpt lat="45.12231" lon="6.04161">
        <ele>957</ele>
        <time>2020-09-05T04:54:35Z</time>
      </trkpt>
      <trkpt lat="45.12229" lon="6.04159">
        <ele>957.4</ele>
        <time>2020-09-05T04:54:36Z</time>
      </trkpt>
      <trkpt lat="45.12226" lon="6.04157">
        <ele>957.4</ele>
        <time>2020-09-05T04:54:37Z</time>
      </trkpt>
      <trkpt lat="45.12224" lon="6.04154">
        <ele>957.8</ele>
        <time>2020-09-05T04:54:38Z</time>
      </trkpt>
      <trkpt lat="45.12222" lon="6.04152">
        <ele>958</ele>
        <time>2020-09-05T04:54:39Z</time>
      </trkpt>
      <trkpt lat="45.1222" lon="6.0415">
        <ele>958.2</ele>
        <time>2020-09-05T04:54:40Z</time>
      </trkpt>
      <trkpt lat="45.12217" lon="6.04147">
        <ele>958.4</ele>
        <time>2020-09-05T04:54:41Z</time>
      </trkpt>
      <trkpt lat="45.12215" lon="6.04145">
        <ele>958.6</ele>
        <time>2020-09-05T04:54:42Z</time>
      </trkpt>
      <trkpt lat="45.12212" lon="6.04142">
        <ele>958.8</ele>
        <time>2020-09-05T04:54:43Z</time>
      </trkpt>
      <trkpt lat="45.1221" lon="6.0414">
        <ele>959.2</ele>
        <time>2020-09-05T04:54:44Z</time>
      </trkpt>
      <trkpt lat="45.12207" lon="6.04138">
        <ele>959.4</ele>
        <time>2020-09-05T04:54:45Z</time>
      </trkpt>
      <trkpt lat="45.12205" lon="6.04136">
        <ele>959.8</ele>
        <time>2020-09-05T04:54:46Z</time>
      </trkpt>
      <trkpt lat="45.12197" lon="6.0413">
        <ele>960.6</ele>
        <time>2020-09-05T04:54:49Z</time>
      </trkpt>
      <trkpt lat="45.12194" lon="6.04128">
        <ele>961</ele>
        <time>2020-09-05T04:54:50Z</time>
      </trkpt>
      <trkpt lat="45.1219" lon="6.04127">
        <ele>961.4</ele>
        <time>2020-09-05T04:54:51Z</time>
      </trkpt>
      <trkpt lat="45.12181" lon="6.04124">
        <ele>962.2</ele>
        <time>2020-09-05T04:54:54Z</time>
      </trkpt>
      <trkpt lat="45.12178" lon="6.04122">
        <ele>962.2</ele>
        <time>2020-09-05T04:54:55Z</time>
      </trkpt>
      <trkpt lat="45.12175" lon="6.04121">
        <ele>962.6</ele>
        <time>2020-09-05T04:54:56Z</time>
      </trkpt>
      <trkpt lat="45.12172" lon="6.04121">
        <ele>962.8</ele>
        <time>2020-09-05T04:54:57Z</time>
      </trkpt>
      <trkpt lat="45.12169" lon="6.0412">
        <ele>963</ele>
        <time>2020-09-05T04:54:58Z</time>
      </trkpt>
      <trkpt lat="45.12166" lon="6.0412">
        <ele>963.2</ele>
        <time>2020-09-05T04:54:59Z</time>
      </trkpt>
      <trkpt lat="45.12163" lon="6.0412">
        <ele>963.4</ele>
        <time>2020-09-05T04:55:00Z</time>
      </trkpt>
      <trkpt lat="45.12159" lon="6.04119">
        <ele>963.6</ele>
        <time>2020-09-05T04:55:01Z</time>
      </trkpt>
      <trkpt lat="45.12157" lon="6.04119">
        <ele>964</ele>
        <time>2020-09-05T04:55:02Z</time>
      </trkpt>
      <trkpt lat="45.12151" lon="6.04118">
        <ele>964.6</ele>
        <time>2020-09-05T04:55:04Z</time>
      </trkpt>
      <trkpt lat="45.12148" lon="6.04118">
        <ele>964.8</ele>
        <time>2020-09-05T04:55:05Z</time>
      </trkpt>
      <trkpt lat="45.12145" lon="6.04119">
        <ele>965.2</ele>
        <time>2020-09-05T04:55:06Z</time>
      </trkpt>
      <trkpt lat="45.12142" lon="6.04119">
        <ele>965.4</ele>
        <time>2020-09-05T04:55:07Z</time>
      </trkpt>
      <trkpt lat="45.12139" lon="6.04118">
        <ele>965.6</ele>
        <time>2020-09-05T04:55:08Z</time>
      </trkpt>
      <trkpt lat="45.12136" lon="6.04118">
        <ele>966</ele>
        <time>2020-09-05T04:55:09Z</time>
      </trkpt>
      <trkpt lat="45.12133" lon="6.04118">
        <ele>966.2</ele>
        <time>2020-09-05T04:55:10Z</time>
      </trkpt>
      <trkpt lat="45.1213" lon="6.04118">
        <ele>966.4</ele>
        <time>2020-09-05T04:55:11Z</time>
      </trkpt>
      <trkpt lat="45.12127" lon="6.04118">
        <ele>966.8</ele>
        <time>2020-09-05T04:55:12Z</time>
      </trkpt>
      <trkpt lat="45.12124" lon="6.04118">
        <ele>966.8</ele>
        <time>2020-09-05T04:55:13Z</time>
      </trkpt>
      <trkpt lat="45.12121" lon="6.04118">
        <ele>967</ele>
        <time>2020-09-05T04:55:14Z</time>
      </trkpt>
      <trkpt lat="45.12118" lon="6.04118">
        <ele>967</ele>
        <time>2020-09-05T04:55:15Z</time>
      </trkpt>
      <trkpt lat="45.12115" lon="6.04119">
        <ele>967.4</ele>
        <time>2020-09-05T04:55:16Z</time>
      </trkpt>
      <trkpt lat="45.12112" lon="6.04119">
        <ele>967.6</ele>
        <time>2020-09-05T04:55:17Z</time>
      </trkpt>
      <trkpt lat="45.12109" lon="6.04119">
        <ele>968</ele>
        <time>2020-09-05T04:55:18Z</time>
      </trkpt>
      <trkpt lat="45.12107" lon="6.04119">
        <ele>968.2</ele>
        <time>2020-09-05T04:55:19Z</time>
      </trkpt>
      <trkpt lat="45.12104" lon="6.04119">
        <ele>968.2</ele>
        <time>2020-09-05T04:55:20Z</time>
      </trkpt>
      <trkpt lat="45.12101" lon="6.04119">
        <ele>968.4</ele>
        <time>2020-09-05T04:55:21Z</time>
      </trkpt>
      <trkpt lat="45.12098" lon="6.04119">
        <ele>968.6</ele>
        <time>2020-09-05T04:55:22Z</time>
      </trkpt>
      <trkpt lat="45.12095" lon="6.04118">
        <ele>969</ele>
        <time>2020-09-05T04:55:23Z</time>
      </trkpt>
      <trkpt lat="45.12093" lon="6.04118">
        <ele>969.4</ele>
        <time>2020-09-05T04:55:24Z</time>
      </trkpt>
      <trkpt lat="45.1209" lon="6.04118">
        <ele>969.6</ele>
        <time>2020-09-05T04:55:25Z</time>
      </trkpt>
      <trkpt lat="45.12087" lon="6.04117">
        <ele>969.8</ele>
        <time>2020-09-05T04:55:26Z</time>
      </trkpt>
      <trkpt lat="45.12082" lon="6.04115">
        <ele>970.2</ele>
        <time>2020-09-05T04:55:28Z</time>
      </trkpt>
      <trkpt lat="45.12079" lon="6.04114">
        <ele>970.6</ele>
        <time>2020-09-05T04:55:29Z</time>
      </trkpt>
      <trkpt lat="45.12076" lon="6.04113">
        <ele>970.8</ele>
        <time>2020-09-05T04:55:30Z</time>
      </trkpt>
      <trkpt lat="45.12074" lon="6.04112">
        <ele>971.2</ele>
        <time>2020-09-05T04:55:31Z</time>
      </trkpt>
      <trkpt lat="45.12071" lon="6.04111">
        <ele>971.2</ele>
        <time>2020-09-05T04:55:32Z</time>
      </trkpt>
      <trkpt lat="45.12069" lon="6.04109">
        <ele>971.6</ele>
        <time>2020-09-05T04:55:33Z</time>
      </trkpt>
      <trkpt lat="45.12067" lon="6.04108">
        <ele>971.8</ele>
        <time>2020-09-05T04:55:34Z</time>
      </trkpt>
      <trkpt lat="45.12064" lon="6.04107">
        <ele>972.2</ele>
        <time>2020-09-05T04:55:35Z</time>
      </trkpt>
      <trkpt lat="45.12063" lon="6.04105">
        <ele>972.4</ele>
        <time>2020-09-05T04:55:36Z</time>
      </trkpt>
      <trkpt lat="45.12053" lon="6.04098">
        <ele>973.2</ele>
        <time>2020-09-05T04:55:40Z</time>
      </trkpt>
      <trkpt lat="45.12048" lon="6.04095">
        <ele>973.6</ele>
        <time>2020-09-05T04:55:42Z</time>
      </trkpt>
      <trkpt lat="45.1204" lon="6.04085">
        <ele>974.6</ele>
        <time>2020-09-05T04:55:46Z</time>
      </trkpt>
      <trkpt lat="45.12038" lon="6.04084">
        <ele>975</ele>
        <time>2020-09-05T04:55:47Z</time>
      </trkpt>
      <trkpt lat="45.12035" lon="6.04082">
        <ele>975.2</ele>
        <time>2020-09-05T04:55:48Z</time>
      </trkpt>
      <trkpt lat="45.1203" lon="6.04079">
        <ele>975.6</ele>
        <time>2020-09-05T04:55:50Z</time>
      </trkpt>
      <trkpt lat="45.12028" lon="6.04078">
        <ele>975.8</ele>
        <time>2020-09-05T04:55:51Z</time>
      </trkpt>
      <trkpt lat="45.12025" lon="6.04077">
        <ele>976</ele>
        <time>2020-09-05T04:55:52Z</time>
      </trkpt>
      <trkpt lat="45.12022" lon="6.04077">
        <ele>976.2</ele>
        <time>2020-09-05T04:55:53Z</time>
      </trkpt>
      <trkpt lat="45.12019" lon="6.04076">
        <ele>976.4</ele>
        <time>2020-09-05T04:55:54Z</time>
      </trkpt>
      <trkpt lat="45.12017" lon="6.04076">
        <ele>976.8</ele>
        <time>2020-09-05T04:55:55Z</time>
      </trkpt>
      <trkpt lat="45.12014" lon="6.04075">
        <ele>976.8</ele>
        <time>2020-09-05T04:55:56Z</time>
      </trkpt>
      <trkpt lat="45.12011" lon="6.04075">
        <ele>977</ele>
        <time>2020-09-05T04:55:57Z</time>
      </trkpt>
      <trkpt lat="45.12008" lon="6.04075">
        <ele>977.4</ele>
        <time>2020-09-05T04:55:58Z</time>
      </trkpt>
      <trkpt lat="45.12006" lon="6.04076">
        <ele>977.6</ele>
        <time>2020-09-05T04:55:59Z</time>
      </trkpt>
      <trkpt lat="45.12003" lon="6.04076">
        <ele>977.8</ele>
        <time>2020-09-05T04:56:00Z</time>
      </trkpt>
      <trkpt lat="45.12" lon="6.04076">
        <ele>978</ele>
        <time>2020-09-05T04:56:01Z</time>
      </trkpt>
      <trkpt lat="45.11997" lon="6.04076">
        <ele>978.4</ele>
        <time>2020-09-05T04:56:02Z</time>
      </trkpt>
      <trkpt lat="45.11995" lon="6.04076">
        <ele>978.8</ele>
        <time>2020-09-05T04:56:03Z</time>
      </trkpt>
      <trkpt lat="45.11985" lon="6.04077">
        <ele>979.8</ele>
        <time>2020-09-05T04:56:07Z</time>
      </trkpt>
      <trkpt lat="45.11982" lon="6.04078">
        <ele>980</ele>
        <time>2020-09-05T04:56:08Z</time>
      </trkpt>
      <trkpt lat="45.11979" lon="6.04078">
        <ele>980.2</ele>
        <time>2020-09-05T04:56:09Z</time>
      </trkpt>
      <trkpt lat="45.11977" lon="6.04078">
        <ele>980.6</ele>
        <time>2020-09-05T04:56:10Z</time>
      </trkpt>
      <trkpt lat="45.11974" lon="6.04079">
        <ele>980.8</ele>
        <time>2020-09-05T04:56:11Z</time>
      </trkpt>
      <trkpt lat="45.11972" lon="6.04079">
        <ele>981.2</ele>
        <time>2020-09-05T04:56:12Z</time>
      </trkpt>
      <trkpt lat="45.1197" lon="6.0408">
        <ele>981.4</ele>
        <time>2020-09-05T04:56:13Z</time>
      </trkpt>
      <trkpt lat="45.11967" lon="6.04081">
        <ele>981.8</ele>
        <time>2020-09-05T04:56:14Z</time>
      </trkpt>
      <trkpt lat="45.11965" lon="6.04082">
        <ele>982</ele>
        <time>2020-09-05T04:56:15Z</time>
      </trkpt>
      <trkpt lat="45.11963" lon="6.04083">
        <ele>982.2</ele>
        <time>2020-09-05T04:56:16Z</time>
      </trkpt>
      <trkpt lat="45.1196" lon="6.04085">
        <ele>982.6</ele>
        <time>2020-09-05T04:56:17Z</time>
      </trkpt>
      <trkpt lat="45.11958" lon="6.04087">
        <ele>982.8</ele>
        <time>2020-09-05T04:56:18Z</time>
      </trkpt>
      <trkpt lat="45.11956" lon="6.04089">
        <ele>983.2</ele>
        <time>2020-09-05T04:56:19Z</time>
      </trkpt>
      <trkpt lat="45.11954" lon="6.04091">
        <ele>983.4</ele>
        <time>2020-09-05T04:56:20Z</time>
      </trkpt>
      <trkpt lat="45.11952" lon="6.04093">
        <ele>983.6</ele>
        <time>2020-09-05T04:56:21Z</time>
      </trkpt>
      <trkpt lat="45.11949" lon="6.04095">
        <ele>983.8</ele>
        <time>2020-09-05T04:56:22Z</time>
      </trkpt>
      <trkpt lat="45.11948" lon="6.04096">
        <ele>984</ele>
        <time>2020-09-05T04:56:23Z</time>
      </trkpt>
      <trkpt lat="45.11946" lon="6.04098">
        <ele>984.4</ele>
        <time>2020-09-05T04:56:24Z</time>
      </trkpt>
      <trkpt lat="45.11944" lon="6.04099">
        <ele>984.8</ele>
        <time>2020-09-05T04:56:25Z</time>
      </trkpt>
      <trkpt lat="45.11942" lon="6.04101">
        <ele>985</ele>
        <time>2020-09-05T04:56:26Z</time>
      </trkpt>
      <trkpt lat="45.1194" lon="6.04103">
        <ele>985.2</ele>
        <time>2020-09-05T04:56:27Z</time>
      </trkpt>
      <trkpt lat="45.11938" lon="6.04105">
        <ele>985.4</ele>
        <time>2020-09-05T04:56:28Z</time>
      </trkpt>
      <trkpt lat="45.11936" lon="6.04107">
        <ele>985.6</ele>
        <time>2020-09-05T04:56:29Z</time>
      </trkpt>
      <trkpt lat="45.11934" lon="6.04109">
        <ele>986</ele>
        <time>2020-09-05T04:56:30Z</time>
      </trkpt>
      <trkpt lat="45.11932" lon="6.04111">
        <ele>986.2</ele>
        <time>2020-09-05T04:56:31Z</time>
      </trkpt>
      <trkpt lat="45.1193" lon="6.04113">
        <ele>986.2</ele>
        <time>2020-09-05T04:56:32Z</time>
      </trkpt>
      <trkpt lat="45.11928" lon="6.04115">
        <ele>986.4</ele>
        <time>2020-09-05T04:56:33Z</time>
      </trkpt>
      <trkpt lat="45.11926" lon="6.04117">
        <ele>986.8</ele>
        <time>2020-09-05T04:56:34Z</time>
      </trkpt>
      <trkpt lat="45.11924" lon="6.04118">
        <ele>986.8</ele>
        <time>2020-09-05T04:56:35Z</time>
      </trkpt>
      <trkpt lat="45.11922" lon="6.0412">
        <ele>987.2</ele>
        <time>2020-09-05T04:56:36Z</time>
      </trkpt>
      <trkpt lat="45.11919" lon="6.04122">
        <ele>987.4</ele>
        <time>2020-09-05T04:56:37Z</time>
      </trkpt>
      <trkpt lat="45.11918" lon="6.04123">
        <ele>987.8</ele>
        <time>2020-09-05T04:56:38Z</time>
      </trkpt>
      <trkpt lat="45.11916" lon="6.04125">
        <ele>987.8</ele>
        <time>2020-09-05T04:56:39Z</time>
      </trkpt>
      <trkpt lat="45.11911" lon="6.04129">
        <ele>988.2</ele>
        <time>2020-09-05T04:56:41Z</time>
      </trkpt>
      <trkpt lat="45.11903" lon="6.04136">
        <ele>989.4</ele>
        <time>2020-09-05T04:56:45Z</time>
      </trkpt>
      <trkpt lat="45.11901" lon="6.04138">
        <ele>990</ele>
        <time>2020-09-05T04:56:46Z</time>
      </trkpt>
      <trkpt lat="45.11898" lon="6.0414">
        <ele>990.2</ele>
        <time>2020-09-05T04:56:47Z</time>
      </trkpt>
      <trkpt lat="45.11896" lon="6.04141">
        <ele>990.4</ele>
        <time>2020-09-05T04:56:48Z</time>
      </trkpt>
      <trkpt lat="45.11893" lon="6.04143">
        <ele>990.6</ele>
        <time>2020-09-05T04:56:49Z</time>
      </trkpt>
      <trkpt lat="45.1189" lon="6.04145">
        <ele>991</ele>
        <time>2020-09-05T04:56:50Z</time>
      </trkpt>
      <trkpt lat="45.11887" lon="6.04146">
        <ele>991.2</ele>
        <time>2020-09-05T04:56:51Z</time>
      </trkpt>
      <trkpt lat="45.11883" lon="6.04148">
        <ele>991</ele>
        <time>2020-09-05T04:56:52Z</time>
      </trkpt>
      <trkpt lat="45.11879" lon="6.04149">
        <ele>991</ele>
        <time>2020-09-05T04:56:53Z</time>
      </trkpt>
      <trkpt lat="45.11875" lon="6.04149">
        <ele>991</ele>
        <time>2020-09-05T04:56:54Z</time>
      </trkpt>
      <trkpt lat="45.1187" lon="6.04149">
        <ele>991</ele>
        <time>2020-09-05T04:56:55Z</time>
      </trkpt>
      <trkpt lat="45.11866" lon="6.04149">
        <ele>991.2</ele>
        <time>2020-09-05T04:56:56Z</time>
      </trkpt>
      <trkpt lat="45.11861" lon="6.04149">
        <ele>991.4</ele>
        <time>2020-09-05T04:56:57Z</time>
      </trkpt>
      <trkpt lat="45.11857" lon="6.04148">
        <ele>991.6</ele>
        <time>2020-09-05T04:56:58Z</time>
      </trkpt>
      <trkpt lat="45.11853" lon="6.04147">
        <ele>991.8</ele>
        <time>2020-09-05T04:56:59Z</time>
      </trkpt>
      <trkpt lat="45.1185" lon="6.04146">
        <ele>991.8</ele>
        <time>2020-09-05T04:57:00Z</time>
      </trkpt>
      <trkpt lat="45.11846" lon="6.04144">
        <ele>992</ele>
        <time>2020-09-05T04:57:01Z</time>
      </trkpt>
      <trkpt lat="45.11843" lon="6.04144">
        <ele>992.4</ele>
        <time>2020-09-05T04:57:02Z</time>
      </trkpt>
      <trkpt lat="45.1184" lon="6.04142">
        <ele>992.6</ele>
        <time>2020-09-05T04:57:03Z</time>
      </trkpt>
      <trkpt lat="45.11829" lon="6.04135">
        <ele>994</ele>
        <time>2020-09-05T04:57:07Z</time>
      </trkpt>
      <trkpt lat="45.11821" lon="6.04127">
        <ele>995</ele>
        <time>2020-09-05T04:57:11Z</time>
      </trkpt>
      <trkpt lat="45.11819" lon="6.04124">
        <ele>995.4</ele>
        <time>2020-09-05T04:57:12Z</time>
      </trkpt>
      <trkpt lat="45.1181" lon="6.04113">
        <ele>996.4</ele>
        <time>2020-09-05T04:57:16Z</time>
      </trkpt>
      <trkpt lat="45.11804" lon="6.04101">
        <ele>997.2</ele>
        <time>2020-09-05T04:57:19Z</time>
      </trkpt>
      <trkpt lat="45.118" lon="6.04089">
        <ele>998</ele>
        <time>2020-09-05T04:57:22Z</time>
      </trkpt>
      <trkpt lat="45.11796" lon="6.04073">
        <ele>998.8</ele>
        <time>2020-09-05T04:57:26Z</time>
      </trkpt>
      <trkpt lat="45.11795" lon="6.04066">
        <ele>999</ele>
        <time>2020-09-05T04:57:28Z</time>
      </trkpt>
      <trkpt lat="45.11795" lon="6.04062">
        <ele>999.4</ele>
        <time>2020-09-05T04:57:29Z</time>
      </trkpt>
      <trkpt lat="45.11794" lon="6.04058">
        <ele>999.6</ele>
        <time>2020-09-05T04:57:30Z</time>
      </trkpt>
      <trkpt lat="45.11791" lon="6.04045">
        <ele>1000</ele>
        <time>2020-09-05T04:57:33Z</time>
      </trkpt>
      <trkpt lat="45.1179" lon="6.04041">
        <ele>1000.4</ele>
        <time>2020-09-05T04:57:34Z</time>
      </trkpt>
      <trkpt lat="45.11789" lon="6.04036">
        <ele>1000.6</ele>
        <time>2020-09-05T04:57:35Z</time>
      </trkpt>
      <trkpt lat="45.11787" lon="6.04029">
        <ele>1001.2</ele>
        <time>2020-09-05T04:57:37Z</time>
      </trkpt>
      <trkpt lat="45.11781" lon="6.04015">
        <ele>1001.8</ele>
        <time>2020-09-05T04:57:41Z</time>
      </trkpt>
      <trkpt lat="45.1178" lon="6.04011">
        <ele>1002</ele>
        <time>2020-09-05T04:57:42Z</time>
      </trkpt>
      <trkpt lat="45.11779" lon="6.04008">
        <ele>1002.2</ele>
        <time>2020-09-05T04:57:43Z</time>
      </trkpt>
      <trkpt lat="45.11778" lon="6.04004">
        <ele>1002.4</ele>
        <time>2020-09-05T04:57:44Z</time>
      </trkpt>
      <trkpt lat="45.11777" lon="6.04">
        <ele>1002.6</ele>
        <time>2020-09-05T04:57:45Z</time>
      </trkpt>
      <trkpt lat="45.11776" lon="6.03996">
        <ele>1003</ele>
        <time>2020-09-05T04:57:46Z</time>
      </trkpt>
      <trkpt lat="45.11774" lon="6.03992">
        <ele>1003.2</ele>
        <time>2020-09-05T04:57:47Z</time>
      </trkpt>
      <trkpt lat="45.11772" lon="6.03988">
        <ele>1003.6</ele>
        <time>2020-09-05T04:57:48Z</time>
      </trkpt>
      <trkpt lat="45.11771" lon="6.03985">
        <ele>1003.8</ele>
        <time>2020-09-05T04:57:49Z</time>
      </trkpt>
      <trkpt lat="45.1177" lon="6.03981">
        <ele>1004.2</ele>
        <time>2020-09-05T04:57:50Z</time>
      </trkpt>
      <trkpt lat="45.11768" lon="6.03977">
        <ele>1004.6</ele>
        <time>2020-09-05T04:57:51Z</time>
      </trkpt>
      <trkpt lat="45.11767" lon="6.03973">
        <ele>1004.8</ele>
        <time>2020-09-05T04:57:52Z</time>
      </trkpt>
      <trkpt lat="45.11766" lon="6.03969">
        <ele>1005</ele>
        <time>2020-09-05T04:57:53Z</time>
      </trkpt>
      <trkpt lat="45.11765" lon="6.03965">
        <ele>1005.4</ele>
        <time>2020-09-05T04:57:54Z</time>
      </trkpt>
      <trkpt lat="45.11764" lon="6.03962">
        <ele>1005.6</ele>
        <time>2020-09-05T04:57:55Z</time>
      </trkpt>
      <trkpt lat="45.11762" lon="6.03958">
        <ele>1005.6</ele>
        <time>2020-09-05T04:57:56Z</time>
      </trkpt>
      <trkpt lat="45.11761" lon="6.03954">
        <ele>1005.8</ele>
        <time>2020-09-05T04:57:57Z</time>
      </trkpt>
      <trkpt lat="45.11761" lon="6.03951">
        <ele>1006</ele>
        <time>2020-09-05T04:57:58Z</time>
      </trkpt>
      <trkpt lat="45.1176" lon="6.03948">
        <ele>1006.4</ele>
        <time>2020-09-05T04:57:59Z</time>
      </trkpt>
      <trkpt lat="45.11759" lon="6.03944">
        <ele>1006.4</ele>
        <time>2020-09-05T04:58:00Z</time>
      </trkpt>
      <trkpt lat="45.11758" lon="6.03941">
        <ele>1006.8</ele>
        <time>2020-09-05T04:58:01Z</time>
      </trkpt>
      <trkpt lat="45.11757" lon="6.03937">
        <ele>1006.8</ele>
        <time>2020-09-05T04:58:02Z</time>
      </trkpt>
      <trkpt lat="45.11756" lon="6.03933">
        <ele>1007</ele>
        <time>2020-09-05T04:58:03Z</time>
      </trkpt>
      <trkpt lat="45.11755" lon="6.0393">
        <ele>1007.2</ele>
        <time>2020-09-05T04:58:04Z</time>
      </trkpt>
      <trkpt lat="45.11754" lon="6.03927">
        <ele>1007.4</ele>
        <time>2020-09-05T04:58:05Z</time>
      </trkpt>
      <trkpt lat="45.11753" lon="6.03923">
        <ele>1007.6</ele>
        <time>2020-09-05T04:58:06Z</time>
      </trkpt>
      <trkpt lat="45.11752" lon="6.03919">
        <ele>1008</ele>
        <time>2020-09-05T04:58:07Z</time>
      </trkpt>
      <trkpt lat="45.11751" lon="6.03916">
        <ele>1008.2</ele>
        <time>2020-09-05T04:58:08Z</time>
      </trkpt>
      <trkpt lat="45.1175" lon="6.03912">
        <ele>1008.4</ele>
        <time>2020-09-05T04:58:09Z</time>
      </trkpt>
      <trkpt lat="45.11749" lon="6.03908">
        <ele>1008.6</ele>
        <time>2020-09-05T04:58:10Z</time>
      </trkpt>
      <trkpt lat="45.11749" lon="6.03905">
        <ele>1008.8</ele>
        <time>2020-09-05T04:58:11Z</time>
      </trkpt>
      <trkpt lat="45.11748" lon="6.03901">
        <ele>1009.2</ele>
        <time>2020-09-05T04:58:12Z</time>
      </trkpt>
      <trkpt lat="45.11747" lon="6.03898">
        <ele>1009.4</ele>
        <time>2020-09-05T04:58:13Z</time>
      </trkpt>
      <trkpt lat="45.11747" lon="6.03895">
        <ele>1009.6</ele>
        <time>2020-09-05T04:58:14Z</time>
      </trkpt>
      <trkpt lat="45.11746" lon="6.03891">
        <ele>1009.8</ele>
        <time>2020-09-05T04:58:15Z</time>
      </trkpt>
      <trkpt lat="45.11745" lon="6.03888">
        <ele>1010.2</ele>
        <time>2020-09-05T04:58:16Z</time>
      </trkpt>
      <trkpt lat="45.11745" lon="6.03885">
        <ele>1010.6</ele>
        <time>2020-09-05T04:58:17Z</time>
      </trkpt>
      <trkpt lat="45.11744" lon="6.03881">
        <ele>1010.8</ele>
        <time>2020-09-05T04:58:18Z</time>
      </trkpt>
      <trkpt lat="45.11744" lon="6.03878">
        <ele>1011</ele>
        <time>2020-09-05T04:58:19Z</time>
      </trkpt>
      <trkpt lat="45.11743" lon="6.03875">
        <ele>1011.4</ele>
        <time>2020-09-05T04:58:20Z</time>
      </trkpt>
      <trkpt lat="45.11742" lon="6.03871">
        <ele>1011.8</ele>
        <time>2020-09-05T04:58:21Z</time>
      </trkpt>
      <trkpt lat="45.11741" lon="6.03869">
        <ele>1012</ele>
        <time>2020-09-05T04:58:22Z</time>
      </trkpt>
      <trkpt lat="45.11741" lon="6.03866">
        <ele>1012</ele>
        <time>2020-09-05T04:58:23Z</time>
      </trkpt>
      <trkpt lat="45.11741" lon="6.03863">
        <ele>1012.4</ele>
        <time>2020-09-05T04:58:24Z</time>
      </trkpt>
      <trkpt lat="45.1174" lon="6.0386">
        <ele>1012.6</ele>
        <time>2020-09-05T04:58:25Z</time>
      </trkpt>
      <trkpt lat="45.1174" lon="6.03856">
        <ele>1012.8</ele>
        <time>2020-09-05T04:58:26Z</time>
      </trkpt>
      <trkpt lat="45.1174" lon="6.03853">
        <ele>1013</ele>
        <time>2020-09-05T04:58:27Z</time>
      </trkpt>
      <trkpt lat="45.11739" lon="6.0385">
        <ele>1013</ele>
        <time>2020-09-05T04:58:28Z</time>
      </trkpt>
      <trkpt lat="45.11738" lon="6.03847">
        <ele>1013.4</ele>
        <time>2020-09-05T04:58:29Z</time>
      </trkpt>
      <trkpt lat="45.11738" lon="6.03844">
        <ele>1013.8</ele>
        <time>2020-09-05T04:58:30Z</time>
      </trkpt>
      <trkpt lat="45.11737" lon="6.03841">
        <ele>1014.2</ele>
        <time>2020-09-05T04:58:31Z</time>
      </trkpt>
      <trkpt lat="45.11736" lon="6.03837">
        <ele>1014.2</ele>
        <time>2020-09-05T04:58:32Z</time>
      </trkpt>
      <trkpt lat="45.11735" lon="6.03834">
        <ele>1014.4</ele>
        <time>2020-09-05T04:58:33Z</time>
      </trkpt>
      <trkpt lat="45.11735" lon="6.0383">
        <ele>1014.6</ele>
        <time>2020-09-05T04:58:34Z</time>
      </trkpt>
      <trkpt lat="45.11734" lon="6.03827">
        <ele>1015</ele>
        <time>2020-09-05T04:58:35Z</time>
      </trkpt>
      <trkpt lat="45.11734" lon="6.03824">
        <ele>1015.2</ele>
        <time>2020-09-05T04:58:36Z</time>
      </trkpt>
      <trkpt lat="45.11733" lon="6.03821">
        <ele>1015.6</ele>
        <time>2020-09-05T04:58:37Z</time>
      </trkpt>
      <trkpt lat="45.11732" lon="6.03818">
        <ele>1016</ele>
        <time>2020-09-05T04:58:38Z</time>
      </trkpt>
      <trkpt lat="45.11732" lon="6.03813">
        <ele>1016.4</ele>
        <time>2020-09-05T04:58:40Z</time>
      </trkpt>
      <trkpt lat="45.11731" lon="6.0381">
        <ele>1016.8</ele>
        <time>2020-09-05T04:58:41Z</time>
      </trkpt>
      <trkpt lat="45.11731" lon="6.03807">
        <ele>1017</ele>
        <time>2020-09-05T04:58:42Z</time>
      </trkpt>
      <trkpt lat="45.11731" lon="6.03805">
        <ele>1017.2</ele>
        <time>2020-09-05T04:58:43Z</time>
      </trkpt>
      <trkpt lat="45.1173" lon="6.03802">
        <ele>1017.4</ele>
        <time>2020-09-05T04:58:44Z</time>
      </trkpt>
      <trkpt lat="45.11729" lon="6.03799">
        <ele>1017.6</ele>
        <time>2020-09-05T04:58:45Z</time>
      </trkpt>
      <trkpt lat="45.11729" lon="6.03797">
        <ele>1017.8</ele>
        <time>2020-09-05T04:58:46Z</time>
      </trkpt>
      <trkpt lat="45.11728" lon="6.03794">
        <ele>1018.2</ele>
        <time>2020-09-05T04:58:47Z</time>
      </trkpt>
      <trkpt lat="45.11728" lon="6.03791">
        <ele>1018.4</ele>
        <time>2020-09-05T04:58:48Z</time>
      </trkpt>
      <trkpt lat="45.11727" lon="6.03786">
        <ele>1018.8</ele>
        <time>2020-09-05T04:58:50Z</time>
      </trkpt>
      <trkpt lat="45.11726" lon="6.03783">
        <ele>1019</ele>
        <time>2020-09-05T04:58:51Z</time>
      </trkpt>
      <trkpt lat="45.11726" lon="6.0378">
        <ele>1019.2</ele>
        <time>2020-09-05T04:58:52Z</time>
      </trkpt>
      <trkpt lat="45.11723" lon="6.03768">
        <ele>1020.2</ele>
        <time>2020-09-05T04:58:56Z</time>
      </trkpt>
      <trkpt lat="45.1172" lon="6.03753">
        <ele>1021.6</ele>
        <time>2020-09-05T04:59:01Z</time>
      </trkpt>
      <trkpt lat="45.1172" lon="6.0375">
        <ele>1021.8</ele>
        <time>2020-09-05T04:59:02Z</time>
      </trkpt>
      <trkpt lat="45.1172" lon="6.03747">
        <ele>1022</ele>
        <time>2020-09-05T04:59:03Z</time>
      </trkpt>
      <trkpt lat="45.1172" lon="6.03744">
        <ele>1022.2</ele>
        <time>2020-09-05T04:59:04Z</time>
      </trkpt>
      <trkpt lat="45.11719" lon="6.03741">
        <ele>1022.4</ele>
        <time>2020-09-05T04:59:05Z</time>
      </trkpt>
      <trkpt lat="45.11719" lon="6.03738">
        <ele>1022.6</ele>
        <time>2020-09-05T04:59:06Z</time>
      </trkpt>
      <trkpt lat="45.11718" lon="6.03735">
        <ele>1022.8</ele>
        <time>2020-09-05T04:59:07Z</time>
      </trkpt>
      <trkpt lat="45.11718" lon="6.03732">
        <ele>1023.2</ele>
        <time>2020-09-05T04:59:08Z</time>
      </trkpt>
      <trkpt lat="45.11718" lon="6.03729">
        <ele>1023.4</ele>
        <time>2020-09-05T04:59:09Z</time>
      </trkpt>
      <trkpt lat="45.11717" lon="6.03726">
        <ele>1023.8</ele>
        <time>2020-09-05T04:59:10Z</time>
      </trkpt>
      <trkpt lat="45.11717" lon="6.03722">
        <ele>1024</ele>
        <time>2020-09-05T04:59:11Z</time>
      </trkpt>
      <trkpt lat="45.11717" lon="6.03719">
        <ele>1024.4</ele>
        <time>2020-09-05T04:59:12Z</time>
      </trkpt>
      <trkpt lat="45.11716" lon="6.03716">
        <ele>1024.6</ele>
        <time>2020-09-05T04:59:13Z</time>
      </trkpt>
      <trkpt lat="45.11716" lon="6.03711">
        <ele>1025.2</ele>
        <time>2020-09-05T04:59:15Z</time>
      </trkpt>
      <trkpt lat="45.11716" lon="6.03709">
        <ele>1025.6</ele>
        <time>2020-09-05T04:59:16Z</time>
      </trkpt>
      <trkpt lat="45.11715" lon="6.03703">
        <ele>1026</ele>
        <time>2020-09-05T04:59:18Z</time>
      </trkpt>
      <trkpt lat="45.11715" lon="6.03701">
        <ele>1026.4</ele>
        <time>2020-09-05T04:59:19Z</time>
      </trkpt>
      <trkpt lat="45.11714" lon="6.03698">
        <ele>1026.6</ele>
        <time>2020-09-05T04:59:20Z</time>
      </trkpt>
      <trkpt lat="45.11713" lon="6.03695">
        <ele>1027</ele>
        <time>2020-09-05T04:59:21Z</time>
      </trkpt>
      <trkpt lat="45.11713" lon="6.03693">
        <ele>1027.2</ele>
        <time>2020-09-05T04:59:22Z</time>
      </trkpt>
      <trkpt lat="45.11712" lon="6.0369">
        <ele>1027.4</ele>
        <time>2020-09-05T04:59:23Z</time>
      </trkpt>
      <trkpt lat="45.11712" lon="6.03687">
        <ele>1027.8</ele>
        <time>2020-09-05T04:59:24Z</time>
      </trkpt>
      <trkpt lat="45.11711" lon="6.03685">
        <ele>1028</ele>
        <time>2020-09-05T04:59:25Z</time>
      </trkpt>
      <trkpt lat="45.1171" lon="6.0368">
        <ele>1028.6</ele>
        <time>2020-09-05T04:59:27Z</time>
      </trkpt>
      <trkpt lat="45.11709" lon="6.03678">
        <ele>1028.8</ele>
        <time>2020-09-05T04:59:28Z</time>
      </trkpt>
      <trkpt lat="45.11709" lon="6.03675">
        <ele>1029</ele>
        <time>2020-09-05T04:59:29Z</time>
      </trkpt>
      <trkpt lat="45.11708" lon="6.03672">
        <ele>1029</ele>
        <time>2020-09-05T04:59:30Z</time>
      </trkpt>
      <trkpt lat="45.11707" lon="6.03669">
        <ele>1029.2</ele>
        <time>2020-09-05T04:59:31Z</time>
      </trkpt>
      <trkpt lat="45.11706" lon="6.03666">
        <ele>1029.6</ele>
        <time>2020-09-05T04:59:32Z</time>
      </trkpt>
      <trkpt lat="45.11705" lon="6.03663">
        <ele>1029.8</ele>
        <time>2020-09-05T04:59:33Z</time>
      </trkpt>
      <trkpt lat="45.11705" lon="6.0366">
        <ele>1030</ele>
        <time>2020-09-05T04:59:34Z</time>
      </trkpt>
      <trkpt lat="45.11704" lon="6.03657">
        <ele>1030.6</ele>
        <time>2020-09-05T04:59:35Z</time>
      </trkpt>
      <trkpt lat="45.11703" lon="6.03654">
        <ele>1030.8</ele>
        <time>2020-09-05T04:59:36Z</time>
      </trkpt>
      <trkpt lat="45.11702" lon="6.03651">
        <ele>1030.8</ele>
        <time>2020-09-05T04:59:37Z</time>
      </trkpt>
      <trkpt lat="45.11701" lon="6.03649">
        <ele>1031</ele>
        <time>2020-09-05T04:59:38Z</time>
      </trkpt>
      <trkpt lat="45.117" lon="6.03646">
        <ele>1031.2</ele>
        <time>2020-09-05T04:59:39Z</time>
      </trkpt>
      <trkpt lat="45.117" lon="6.03643">
        <ele>1031.6</ele>
        <time>2020-09-05T04:59:40Z</time>
      </trkpt>
      <trkpt lat="45.11699" lon="6.03641">
        <ele>1031.8</ele>
        <time>2020-09-05T04:59:41Z</time>
      </trkpt>
      <trkpt lat="45.11698" lon="6.03638">
        <ele>1032</ele>
        <time>2020-09-05T04:59:42Z</time>
      </trkpt>
      <trkpt lat="45.11697" lon="6.03635">
        <ele>1032.2</ele>
        <time>2020-09-05T04:59:43Z</time>
      </trkpt>
      <trkpt lat="45.11695" lon="6.03633">
        <ele>1032.4</ele>
        <time>2020-09-05T04:59:44Z</time>
      </trkpt>
      <trkpt lat="45.11694" lon="6.0363">
        <ele>1032.6</ele>
        <time>2020-09-05T04:59:45Z</time>
      </trkpt>
      <trkpt lat="45.11693" lon="6.03628">
        <ele>1032.8</ele>
        <time>2020-09-05T04:59:46Z</time>
      </trkpt>
      <trkpt lat="45.11692" lon="6.03625">
        <ele>1033.2</ele>
        <time>2020-09-05T04:59:47Z</time>
      </trkpt>
      <trkpt lat="45.11691" lon="6.03622">
        <ele>1033.6</ele>
        <time>2020-09-05T04:59:48Z</time>
      </trkpt>
      <trkpt lat="45.1169" lon="6.03619">
        <ele>1033.8</ele>
        <time>2020-09-05T04:59:49Z</time>
      </trkpt>
      <trkpt lat="45.11689" lon="6.03616">
        <ele>1033.8</ele>
        <time>2020-09-05T04:59:50Z</time>
      </trkpt>
      <trkpt lat="45.11688" lon="6.03613">
        <ele>1034.2</ele>
        <time>2020-09-05T04:59:51Z</time>
      </trkpt>
      <trkpt lat="45.11687" lon="6.03611">
        <ele>1034.4</ele>
        <time>2020-09-05T04:59:52Z</time>
      </trkpt>
      <trkpt lat="45.11686" lon="6.03608">
        <ele>1034.6</ele>
        <time>2020-09-05T04:59:53Z</time>
      </trkpt>
      <trkpt lat="45.11685" lon="6.03605">
        <ele>1035</ele>
        <time>2020-09-05T04:59:54Z</time>
      </trkpt>
      <trkpt lat="45.11684" lon="6.03602">
        <ele>1035.4</ele>
        <time>2020-09-05T04:59:55Z</time>
      </trkpt>
      <trkpt lat="45.11684" lon="6.03599">
        <ele>1035.6</ele>
        <time>2020-09-05T04:59:56Z</time>
      </trkpt>
      <trkpt lat="45.11683" lon="6.03596">
        <ele>1036</ele>
        <time>2020-09-05T04:59:57Z</time>
      </trkpt>
      <trkpt lat="45.11682" lon="6.03594">
        <ele>1036.2</ele>
        <time>2020-09-05T04:59:58Z</time>
      </trkpt>
      <trkpt lat="45.11681" lon="6.03591">
        <ele>1036.6</ele>
        <time>2020-09-05T04:59:59Z</time>
      </trkpt>
      <trkpt lat="45.1168" lon="6.03588">
        <ele>1036.6</ele>
        <time>2020-09-05T05:00:00Z</time>
      </trkpt>
      <trkpt lat="45.1168" lon="6.03585">
        <ele>1036.8</ele>
        <time>2020-09-05T05:00:01Z</time>
      </trkpt>
      <trkpt lat="45.11679" lon="6.03582">
        <ele>1037.2</ele>
        <time>2020-09-05T05:00:02Z</time>
      </trkpt>
      <trkpt lat="45.11678" lon="6.03579">
        <ele>1037.6</ele>
        <time>2020-09-05T05:00:03Z</time>
      </trkpt>
      <trkpt lat="45.11678" lon="6.03576">
        <ele>1037.8</ele>
        <time>2020-09-05T05:00:04Z</time>
      </trkpt>
      <trkpt lat="45.11677" lon="6.03573">
        <ele>1038.2</ele>
        <time>2020-09-05T05:00:05Z</time>
      </trkpt>
      <trkpt lat="45.11676" lon="6.0357">
        <ele>1038.2</ele>
        <time>2020-09-05T05:00:06Z</time>
      </trkpt>
      <trkpt lat="45.11676" lon="6.03566">
        <ele>1038.6</ele>
        <time>2020-09-05T05:00:07Z</time>
      </trkpt>
      <trkpt lat="45.11675" lon="6.03563">
        <ele>1038.8</ele>
        <time>2020-09-05T05:00:08Z</time>
      </trkpt>
      <trkpt lat="45.11674" lon="6.0356">
        <ele>1039.2</ele>
        <time>2020-09-05T05:00:09Z</time>
      </trkpt>
      <trkpt lat="45.11673" lon="6.03556">
        <ele>1039.4</ele>
        <time>2020-09-05T05:00:10Z</time>
      </trkpt>
      <trkpt lat="45.11673" lon="6.03553">
        <ele>1039.8</ele>
        <time>2020-09-05T05:00:11Z</time>
      </trkpt>
      <trkpt lat="45.11672" lon="6.0355">
        <ele>1040</ele>
        <time>2020-09-05T05:00:12Z</time>
      </trkpt>
      <trkpt lat="45.1167" lon="6.03547">
        <ele>1040.2</ele>
        <time>2020-09-05T05:00:13Z</time>
      </trkpt>
      <trkpt lat="45.11669" lon="6.03544">
        <ele>1040.4</ele>
        <time>2020-09-05T05:00:14Z</time>
      </trkpt>
      <trkpt lat="45.11667" lon="6.03543">
        <ele>1040.6</ele>
        <time>2020-09-05T05:00:15Z</time>
      </trkpt>
      <trkpt lat="45.11664" lon="6.03542">
        <ele>1040.8</ele>
        <time>2020-09-05T05:00:16Z</time>
      </trkpt>
      <trkpt lat="45.11662" lon="6.03543">
        <ele>1041</ele>
        <time>2020-09-05T05:00:17Z</time>
      </trkpt>
      <trkpt lat="45.1166" lon="6.03545">
        <ele>1041.2</ele>
        <time>2020-09-05T05:00:18Z</time>
      </trkpt>
      <trkpt lat="45.11658" lon="6.03548">
        <ele>1041.4</ele>
        <time>2020-09-05T05:00:19Z</time>
      </trkpt>
      <trkpt lat="45.11657" lon="6.03551">
        <ele>1041.6</ele>
        <time>2020-09-05T05:00:20Z</time>
      </trkpt>
      <trkpt lat="45.11656" lon="6.03555">
        <ele>1041.8</ele>
        <time>2020-09-05T05:00:21Z</time>
      </trkpt>
      <trkpt lat="45.11656" lon="6.03559">
        <ele>1041.8</ele>
        <time>2020-09-05T05:00:22Z</time>
      </trkpt>
      <trkpt lat="45.11658" lon="6.03572">
        <ele>1042.2</ele>
        <time>2020-09-05T05:00:25Z</time>
      </trkpt>
      <trkpt lat="45.1166" lon="6.03584">
        <ele>1042.6</ele>
        <time>2020-09-05T05:00:28Z</time>
      </trkpt>
      <trkpt lat="45.11662" lon="6.03601">
        <ele>1043.2</ele>
        <time>2020-09-05T05:00:32Z</time>
      </trkpt>
      <trkpt lat="45.11664" lon="6.03616">
        <ele>1043.8</ele>
        <time>2020-09-05T05:00:36Z</time>
      </trkpt>
      <trkpt lat="45.11667" lon="6.03632">
        <ele>1044.8</ele>
        <time>2020-09-05T05:00:40Z</time>
      </trkpt>
      <trkpt lat="45.1167" lon="6.03645">
        <ele>1045.2</ele>
        <time>2020-09-05T05:00:43Z</time>
      </trkpt>
      <trkpt lat="45.11673" lon="6.03659">
        <ele>1045.6</ele>
        <time>2020-09-05T05:00:46Z</time>
      </trkpt>
      <trkpt lat="45.11676" lon="6.03672">
        <ele>1046.4</ele>
        <time>2020-09-05T05:00:49Z</time>
      </trkpt>
      <trkpt lat="45.11679" lon="6.03686">
        <ele>1047</ele>
        <time>2020-09-05T05:00:52Z</time>
      </trkpt>
      <trkpt lat="45.11682" lon="6.03699">
        <ele>1047.6</ele>
        <time>2020-09-05T05:00:55Z</time>
      </trkpt>
      <trkpt lat="45.11682" lon="6.03713">
        <ele>1048</ele>
        <time>2020-09-05T05:00:58Z</time>
      </trkpt>
      <trkpt lat="45.1168" lon="6.03727">
        <ele>1048.6</ele>
        <time>2020-09-05T05:01:01Z</time>
      </trkpt>
      <trkpt lat="45.11679" lon="6.0374">
        <ele>1049.6</ele>
        <time>2020-09-05T05:01:04Z</time>
      </trkpt>
      <trkpt lat="45.11676" lon="6.03754">
        <ele>1050.2</ele>
        <time>2020-09-05T05:01:07Z</time>
      </trkpt>
      <trkpt lat="45.11673" lon="6.03766">
        <ele>1050.8</ele>
        <time>2020-09-05T05:01:10Z</time>
      </trkpt>
      <trkpt lat="45.11669" lon="6.03783">
        <ele>1051.8</ele>
        <time>2020-09-05T05:01:14Z</time>
      </trkpt>
      <trkpt lat="45.11666" lon="6.03796">
        <ele>1052.2</ele>
        <time>2020-09-05T05:01:17Z</time>
      </trkpt>
      <trkpt lat="45.11663" lon="6.03808">
        <ele>1053</ele>
        <time>2020-09-05T05:01:20Z</time>
      </trkpt>
      <trkpt lat="45.11662" lon="6.03824">
        <ele>1053.8</ele>
        <time>2020-09-05T05:01:24Z</time>
      </trkpt>
      <trkpt lat="45.1166" lon="6.03839">
        <ele>1055</ele>
        <time>2020-09-05T05:01:28Z</time>
      </trkpt>
      <trkpt lat="45.11659" lon="6.03846">
        <ele>1055.2</ele>
        <time>2020-09-05T05:01:30Z</time>
      </trkpt>
      <trkpt lat="45.11658" lon="6.0385">
        <ele>1055.2</ele>
        <time>2020-09-05T05:01:31Z</time>
      </trkpt>
      <trkpt lat="45.11657" lon="6.03854">
        <ele>1055.4</ele>
        <time>2020-09-05T05:01:32Z</time>
      </trkpt>
      <trkpt lat="45.11657" lon="6.03858">
        <ele>1055.8</ele>
        <time>2020-09-05T05:01:33Z</time>
      </trkpt>
      <trkpt lat="45.11656" lon="6.03862">
        <ele>1056.2</ele>
        <time>2020-09-05T05:01:34Z</time>
      </trkpt>
      <trkpt lat="45.11656" lon="6.03866">
        <ele>1056.4</ele>
        <time>2020-09-05T05:01:35Z</time>
      </trkpt>
      <trkpt lat="45.11655" lon="6.0387">
        <ele>1056.4</ele>
        <time>2020-09-05T05:01:36Z</time>
      </trkpt>
      <trkpt lat="45.11655" lon="6.03875">
        <ele>1056.6</ele>
        <time>2020-09-05T05:01:37Z</time>
      </trkpt>
      <trkpt lat="45.11653" lon="6.03883">
        <ele>1057.4</ele>
        <time>2020-09-05T05:01:39Z</time>
      </trkpt>
      <trkpt lat="45.11652" lon="6.03887">
        <ele>1057.8</ele>
        <time>2020-09-05T05:01:40Z</time>
      </trkpt>
      <trkpt lat="45.11652" lon="6.03891">
        <ele>1058</ele>
        <time>2020-09-05T05:01:41Z</time>
      </trkpt>
      <trkpt lat="45.11651" lon="6.03895">
        <ele>1058</ele>
        <time>2020-09-05T05:01:42Z</time>
      </trkpt>
      <trkpt lat="45.1165" lon="6.03899">
        <ele>1058.2</ele>
        <time>2020-09-05T05:01:43Z</time>
      </trkpt>
      <trkpt lat="45.11648" lon="6.03915">
        <ele>1058.8</ele>
        <time>2020-09-05T05:01:47Z</time>
      </trkpt>
      <trkpt lat="45.11647" lon="6.03931">
        <ele>1059.6</ele>
        <time>2020-09-05T05:01:51Z</time>
      </trkpt>
      <trkpt lat="45.11646" lon="6.03947">
        <ele>1060.4</ele>
        <time>2020-09-05T05:01:55Z</time>
      </trkpt>
      <trkpt lat="45.11645" lon="6.03963">
        <ele>1061.4</ele>
        <time>2020-09-05T05:01:59Z</time>
      </trkpt>
      <trkpt lat="45.11644" lon="6.03971">
        <ele>1062</ele>
        <time>2020-09-05T05:02:01Z</time>
      </trkpt>
      <trkpt lat="45.11643" lon="6.03979">
        <ele>1062.2</ele>
        <time>2020-09-05T05:02:03Z</time>
      </trkpt>
      <trkpt lat="45.11642" lon="6.03983">
        <ele>1062.2</ele>
        <time>2020-09-05T05:02:04Z</time>
      </trkpt>
      <trkpt lat="45.11642" lon="6.03987">
        <ele>1062.6</ele>
        <time>2020-09-05T05:02:05Z</time>
      </trkpt>
      <trkpt lat="45.11641" lon="6.03991">
        <ele>1062.8</ele>
        <time>2020-09-05T05:02:06Z</time>
      </trkpt>
      <trkpt lat="45.11641" lon="6.03995">
        <ele>1063</ele>
        <time>2020-09-05T05:02:07Z</time>
      </trkpt>
      <trkpt lat="45.1164" lon="6.04">
        <ele>1063.2</ele>
        <time>2020-09-05T05:02:08Z</time>
      </trkpt>
      <trkpt lat="45.1164" lon="6.04004">
        <ele>1063.4</ele>
        <time>2020-09-05T05:02:09Z</time>
      </trkpt>
      <trkpt lat="45.11639" lon="6.04008">
        <ele>1063.6</ele>
        <time>2020-09-05T05:02:10Z</time>
      </trkpt>
      <trkpt lat="45.11639" lon="6.04012">
        <ele>1063.8</ele>
        <time>2020-09-05T05:02:11Z</time>
      </trkpt>
      <trkpt lat="45.11638" lon="6.04016">
        <ele>1064.2</ele>
        <time>2020-09-05T05:02:12Z</time>
      </trkpt>
      <trkpt lat="45.11637" lon="6.0402">
        <ele>1064.4</ele>
        <time>2020-09-05T05:02:13Z</time>
      </trkpt>
      <trkpt lat="45.11637" lon="6.04024">
        <ele>1064.6</ele>
        <time>2020-09-05T05:02:14Z</time>
      </trkpt>
      <trkpt lat="45.11636" lon="6.04028">
        <ele>1064.8</ele>
        <time>2020-09-05T05:02:15Z</time>
      </trkpt>
      <trkpt lat="45.11636" lon="6.04033">
        <ele>1065.2</ele>
        <time>2020-09-05T05:02:16Z</time>
      </trkpt>
      <trkpt lat="45.11636" lon="6.04037">
        <ele>1065.2</ele>
        <time>2020-09-05T05:02:17Z</time>
      </trkpt>
      <trkpt lat="45.11635" lon="6.04046">
        <ele>1065.6</ele>
        <time>2020-09-05T05:02:19Z</time>
      </trkpt>
      <trkpt lat="45.11635" lon="6.04059">
        <ele>1066</ele>
        <time>2020-09-05T05:02:22Z</time>
      </trkpt>
      <trkpt lat="45.11634" lon="6.04075">
        <ele>1066.8</ele>
        <time>2020-09-05T05:02:26Z</time>
      </trkpt>
      <trkpt lat="45.11633" lon="6.0408">
        <ele>1067</ele>
        <time>2020-09-05T05:02:27Z</time>
      </trkpt>
      <trkpt lat="45.11633" lon="6.04084">
        <ele>1067.2</ele>
        <time>2020-09-05T05:02:28Z</time>
      </trkpt>
      <trkpt lat="45.11633" lon="6.04088">
        <ele>1067.4</ele>
        <time>2020-09-05T05:02:29Z</time>
      </trkpt>
      <trkpt lat="45.11632" lon="6.04092">
        <ele>1067.8</ele>
        <time>2020-09-05T05:02:30Z</time>
      </trkpt>
      <trkpt lat="45.11632" lon="6.04096">
        <ele>1068</ele>
        <time>2020-09-05T05:02:31Z</time>
      </trkpt>
      <trkpt lat="45.11632" lon="6.041">
        <ele>1068.2</ele>
        <time>2020-09-05T05:02:32Z</time>
      </trkpt>
      <trkpt lat="45.11632" lon="6.04105">
        <ele>1068.4</ele>
        <time>2020-09-05T05:02:33Z</time>
      </trkpt>
      <trkpt lat="45.11632" lon="6.04109">
        <ele>1068.6</ele>
        <time>2020-09-05T05:02:34Z</time>
      </trkpt>
      <trkpt lat="45.11632" lon="6.04113">
        <ele>1068.8</ele>
        <time>2020-09-05T05:02:35Z</time>
      </trkpt>
      <trkpt lat="45.11633" lon="6.04118">
        <ele>1069.2</ele>
        <time>2020-09-05T05:02:36Z</time>
      </trkpt>
      <trkpt lat="45.11633" lon="6.04122">
        <ele>1069.4</ele>
        <time>2020-09-05T05:02:37Z</time>
      </trkpt>
      <trkpt lat="45.11634" lon="6.04127">
        <ele>1069.4</ele>
        <time>2020-09-05T05:02:38Z</time>
      </trkpt>
      <trkpt lat="45.11634" lon="6.04131">
        <ele>1069.6</ele>
        <time>2020-09-05T05:02:39Z</time>
      </trkpt>
      <trkpt lat="45.11635" lon="6.04135">
        <ele>1069.8</ele>
        <time>2020-09-05T05:02:40Z</time>
      </trkpt>
      <trkpt lat="45.11636" lon="6.04139">
        <ele>1070</ele>
        <time>2020-09-05T05:02:41Z</time>
      </trkpt>
      <trkpt lat="45.11637" lon="6.04143">
        <ele>1070.2</ele>
        <time>2020-09-05T05:02:42Z</time>
      </trkpt>
      <trkpt lat="45.11638" lon="6.04147">
        <ele>1070.4</ele>
        <time>2020-09-05T05:02:43Z</time>
      </trkpt>
      <trkpt lat="45.11638" lon="6.04151">
        <ele>1070.6</ele>
        <time>2020-09-05T05:02:44Z</time>
      </trkpt>
      <trkpt lat="45.11639" lon="6.04155">
        <ele>1070.8</ele>
        <time>2020-09-05T05:02:45Z</time>
      </trkpt>
      <trkpt lat="45.1164" lon="6.04159">
        <ele>1070.8</ele>
        <time>2020-09-05T05:02:46Z</time>
      </trkpt>
      <trkpt lat="45.11641" lon="6.04163">
        <ele>1071</ele>
        <time>2020-09-05T05:02:47Z</time>
      </trkpt>
      <trkpt lat="45.11642" lon="6.04167">
        <ele>1071.4</ele>
        <time>2020-09-05T05:02:48Z</time>
      </trkpt>
      <trkpt lat="45.11642" lon="6.04171">
        <ele>1071.6</ele>
        <time>2020-09-05T05:02:49Z</time>
      </trkpt>
      <trkpt lat="45.11642" lon="6.04175">
        <ele>1071.6</ele>
        <time>2020-09-05T05:02:50Z</time>
      </trkpt>
      <trkpt lat="45.11643" lon="6.04179">
        <ele>1072</ele>
        <time>2020-09-05T05:02:51Z</time>
      </trkpt>
      <trkpt lat="45.11643" lon="6.04184">
        <ele>1072.4</ele>
        <time>2020-09-05T05:02:52Z</time>
      </trkpt>
      <trkpt lat="45.11642" lon="6.04187">
        <ele>1072.6</ele>
        <time>2020-09-05T05:02:53Z</time>
      </trkpt>
      <trkpt lat="45.11641" lon="6.0419">
        <ele>1073</ele>
        <time>2020-09-05T05:02:54Z</time>
      </trkpt>
      <trkpt lat="45.11639" lon="6.04191">
        <ele>1073.2</ele>
        <time>2020-09-05T05:02:55Z</time>
      </trkpt>
      <trkpt lat="45.11637" lon="6.04192">
        <ele>1073.4</ele>
        <time>2020-09-05T05:02:56Z</time>
      </trkpt>
      <trkpt lat="45.11634" lon="6.04191">
        <ele>1073.8</ele>
        <time>2020-09-05T05:02:57Z</time>
      </trkpt>
      <trkpt lat="45.11632" lon="6.04188">
        <ele>1073.8</ele>
        <time>2020-09-05T05:02:58Z</time>
      </trkpt>
      <trkpt lat="45.11631" lon="6.04185">
        <ele>1074.2</ele>
        <time>2020-09-05T05:02:59Z</time>
      </trkpt>
      <trkpt lat="45.11629" lon="6.04178">
        <ele>1075</ele>
        <time>2020-09-05T05:03:01Z</time>
      </trkpt>
      <trkpt lat="45.11628" lon="6.04174">
        <ele>1075.4</ele>
        <time>2020-09-05T05:03:02Z</time>
      </trkpt>
      <trkpt lat="45.11627" lon="6.0417">
        <ele>1075.6</ele>
        <time>2020-09-05T05:03:03Z</time>
      </trkpt>
      <trkpt lat="45.11626" lon="6.04167">
        <ele>1075.8</ele>
        <time>2020-09-05T05:03:04Z</time>
      </trkpt>
      <trkpt lat="45.11624" lon="6.04164">
        <ele>1075.8</ele>
        <time>2020-09-05T05:03:05Z</time>
      </trkpt>
      <trkpt lat="45.11623" lon="6.04161">
        <ele>1076</ele>
        <time>2020-09-05T05:03:06Z</time>
      </trkpt>
      <trkpt lat="45.11621" lon="6.04158">
        <ele>1076.4</ele>
        <time>2020-09-05T05:03:07Z</time>
      </trkpt>
      <trkpt lat="45.1162" lon="6.04155">
        <ele>1076.6</ele>
        <time>2020-09-05T05:03:08Z</time>
      </trkpt>
      <trkpt lat="45.11618" lon="6.04151">
        <ele>1077</ele>
        <time>2020-09-05T05:03:09Z</time>
      </trkpt>
      <trkpt lat="45.11615" lon="6.0414">
        <ele>1077.8</ele>
        <time>2020-09-05T05:03:12Z</time>
      </trkpt>
      <trkpt lat="45.11614" lon="6.04137">
        <ele>1078</ele>
        <time>2020-09-05T05:03:13Z</time>
      </trkpt>
      <trkpt lat="45.11613" lon="6.04134">
        <ele>1078.4</ele>
        <time>2020-09-05T05:03:14Z</time>
      </trkpt>
      <trkpt lat="45.11613" lon="6.04131">
        <ele>1078.8</ele>
        <time>2020-09-05T05:03:15Z</time>
      </trkpt>
      <trkpt lat="45.11612" lon="6.04128">
        <ele>1079.2</ele>
        <time>2020-09-05T05:03:16Z</time>
      </trkpt>
      <trkpt lat="45.11611" lon="6.04125">
        <ele>1079.4</ele>
        <time>2020-09-05T05:03:17Z</time>
      </trkpt>
      <trkpt lat="45.1161" lon="6.04122">
        <ele>1079.6</ele>
        <time>2020-09-05T05:03:18Z</time>
      </trkpt>
      <trkpt lat="45.11609" lon="6.04118">
        <ele>1079.8</ele>
        <time>2020-09-05T05:03:19Z</time>
      </trkpt>
      <trkpt lat="45.11608" lon="6.04115">
        <ele>1080</ele>
        <time>2020-09-05T05:03:20Z</time>
      </trkpt>
      <trkpt lat="45.11608" lon="6.04112">
        <ele>1080.2</ele>
        <time>2020-09-05T05:03:21Z</time>
      </trkpt>
      <trkpt lat="45.11608" lon="6.04108">
        <ele>1080.6</ele>
        <time>2020-09-05T05:03:22Z</time>
      </trkpt>
      <trkpt lat="45.11607" lon="6.04105">
        <ele>1080.8</ele>
        <time>2020-09-05T05:03:23Z</time>
      </trkpt>
      <trkpt lat="45.11607" lon="6.04101">
        <ele>1080.8</ele>
        <time>2020-09-05T05:03:24Z</time>
      </trkpt>
      <trkpt lat="45.11606" lon="6.04098">
        <ele>1081.2</ele>
        <time>2020-09-05T05:03:25Z</time>
      </trkpt>
      <trkpt lat="45.11606" lon="6.04094">
        <ele>1081.6</ele>
        <time>2020-09-05T05:03:26Z</time>
      </trkpt>
      <trkpt lat="45.11606" lon="6.04091">
        <ele>1081.8</ele>
        <time>2020-09-05T05:03:27Z</time>
      </trkpt>
      <trkpt lat="45.11606" lon="6.04087">
        <ele>1082</ele>
        <time>2020-09-05T05:03:28Z</time>
      </trkpt>
      <trkpt lat="45.11606" lon="6.04084">
        <ele>1082.4</ele>
        <time>2020-09-05T05:03:29Z</time>
      </trkpt>
      <trkpt lat="45.11606" lon="6.04081">
        <ele>1082.6</ele>
        <time>2020-09-05T05:03:30Z</time>
      </trkpt>
      <trkpt lat="45.11606" lon="6.04078">
        <ele>1083</ele>
        <time>2020-09-05T05:03:31Z</time>
      </trkpt>
      <trkpt lat="45.11606" lon="6.04075">
        <ele>1083.2</ele>
        <time>2020-09-05T05:03:32Z</time>
      </trkpt>
      <trkpt lat="45.11606" lon="6.04071">
        <ele>1083.4</ele>
        <time>2020-09-05T05:03:33Z</time>
      </trkpt>
      <trkpt lat="45.11605" lon="6.04067">
        <ele>1083.6</ele>
        <time>2020-09-05T05:03:34Z</time>
      </trkpt>
      <trkpt lat="45.11605" lon="6.0406">
        <ele>1084</ele>
        <time>2020-09-05T05:03:36Z</time>
      </trkpt>
      <trkpt lat="45.11605" lon="6.04056">
        <ele>1084.2</ele>
        <time>2020-09-05T05:03:37Z</time>
      </trkpt>
      <trkpt lat="45.11605" lon="6.04053">
        <ele>1084.4</ele>
        <time>2020-09-05T05:03:38Z</time>
      </trkpt>
      <trkpt lat="45.11605" lon="6.0405">
        <ele>1084.6</ele>
        <time>2020-09-05T05:03:39Z</time>
      </trkpt>
      <trkpt lat="45.11604" lon="6.04035">
        <ele>1085.8</ele>
        <time>2020-09-05T05:03:43Z</time>
      </trkpt>
      <trkpt lat="45.11603" lon="6.04021">
        <ele>1086.6</ele>
        <time>2020-09-05T05:03:47Z</time>
      </trkpt>
      <trkpt lat="45.11603" lon="6.04014">
        <ele>1087.2</ele>
        <time>2020-09-05T05:03:49Z</time>
      </trkpt>
      <trkpt lat="45.11602" lon="6.04011">
        <ele>1087.4</ele>
        <time>2020-09-05T05:03:50Z</time>
      </trkpt>
      <trkpt lat="45.11602" lon="6.04008">
        <ele>1087.6</ele>
        <time>2020-09-05T05:03:51Z</time>
      </trkpt>
      <trkpt lat="45.116" lon="6.03995">
        <ele>1088.4</ele>
        <time>2020-09-05T05:03:54Z</time>
      </trkpt>
      <trkpt lat="45.11599" lon="6.0398">
        <ele>1089.4</ele>
        <time>2020-09-05T05:03:58Z</time>
      </trkpt>
      <trkpt lat="45.11598" lon="6.03966">
        <ele>1090.2</ele>
        <time>2020-09-05T05:04:02Z</time>
      </trkpt>
      <trkpt lat="45.11598" lon="6.03951">
        <ele>1091.2</ele>
        <time>2020-09-05T05:04:06Z</time>
      </trkpt>
      <trkpt lat="45.116" lon="6.03936">
        <ele>1092.4</ele>
        <time>2020-09-05T05:04:11Z</time>
      </trkpt>
      <trkpt lat="45.11602" lon="6.03921">
        <ele>1093.6</ele>
        <time>2020-09-05T05:04:16Z</time>
      </trkpt>
      <trkpt lat="45.11604" lon="6.03905">
        <ele>1094.6</ele>
        <time>2020-09-05T05:04:21Z</time>
      </trkpt>
      <trkpt lat="45.11604" lon="6.0389">
        <ele>1095.6</ele>
        <time>2020-09-05T05:04:25Z</time>
      </trkpt>
      <trkpt lat="45.11604" lon="6.03877">
        <ele>1096.4</ele>
        <time>2020-09-05T05:04:28Z</time>
      </trkpt>
      <trkpt lat="45.11604" lon="6.03864">
        <ele>1097.4</ele>
        <time>2020-09-05T05:04:32Z</time>
      </trkpt>
      <trkpt lat="45.11602" lon="6.03849">
        <ele>1098.6</ele>
        <time>2020-09-05T05:04:36Z</time>
      </trkpt>
      <trkpt lat="45.11603" lon="6.03835">
        <ele>1099.6</ele>
        <time>2020-09-05T05:04:40Z</time>
      </trkpt>
      <trkpt lat="45.11602" lon="6.03821">
        <ele>1100.8</ele>
        <time>2020-09-05T05:04:45Z</time>
      </trkpt>
      <trkpt lat="45.11602" lon="6.03811">
        <ele>1101.4</ele>
        <time>2020-09-05T05:04:48Z</time>
      </trkpt>
      <trkpt lat="45.11602" lon="6.03808">
        <ele>1101.6</ele>
        <time>2020-09-05T05:04:49Z</time>
      </trkpt>
      <trkpt lat="45.11603" lon="6.03801">
        <ele>1101.8</ele>
        <time>2020-09-05T05:04:51Z</time>
      </trkpt>
      <trkpt lat="45.11602" lon="6.03797">
        <ele>1102</ele>
        <time>2020-09-05T05:04:52Z</time>
      </trkpt>
      <trkpt lat="45.11602" lon="6.03795">
        <ele>1102.4</ele>
        <time>2020-09-05T05:04:53Z</time>
      </trkpt>
      <trkpt lat="45.11602" lon="6.03792">
        <ele>1102.6</ele>
        <time>2020-09-05T05:04:54Z</time>
      </trkpt>
      <trkpt lat="45.11602" lon="6.03789">
        <ele>1103</ele>
        <time>2020-09-05T05:04:55Z</time>
      </trkpt>
      <trkpt lat="45.11602" lon="6.03786">
        <ele>1103</ele>
        <time>2020-09-05T05:04:56Z</time>
      </trkpt>
      <trkpt lat="45.11602" lon="6.03783">
        <ele>1103.2</ele>
        <time>2020-09-05T05:04:57Z</time>
      </trkpt>
      <trkpt lat="45.11602" lon="6.03781">
        <ele>1103.6</ele>
        <time>2020-09-05T05:04:58Z</time>
      </trkpt>
      <trkpt lat="45.11602" lon="6.03778">
        <ele>1103.6</ele>
        <time>2020-09-05T05:04:59Z</time>
      </trkpt>
      <trkpt lat="45.11602" lon="6.03775">
        <ele>1103.8</ele>
        <time>2020-09-05T05:05:00Z</time>
      </trkpt>
      <trkpt lat="45.11602" lon="6.03772">
        <ele>1104.2</ele>
        <time>2020-09-05T05:05:01Z</time>
      </trkpt>
      <trkpt lat="45.11602" lon="6.03769">
        <ele>1104.4</ele>
        <time>2020-09-05T05:05:02Z</time>
      </trkpt>
      <trkpt lat="45.11601" lon="6.03766">
        <ele>1104.6</ele>
        <time>2020-09-05T05:05:03Z</time>
      </trkpt>
      <trkpt lat="45.11601" lon="6.03762">
        <ele>1104.8</ele>
        <time>2020-09-05T05:05:04Z</time>
      </trkpt>
      <trkpt lat="45.116" lon="6.03759">
        <ele>1105.2</ele>
        <time>2020-09-05T05:05:05Z</time>
      </trkpt>
      <trkpt lat="45.116" lon="6.03756">
        <ele>1105.4</ele>
        <time>2020-09-05T05:05:06Z</time>
      </trkpt>
      <trkpt lat="45.116" lon="6.03753">
        <ele>1105.6</ele>
        <time>2020-09-05T05:05:07Z</time>
      </trkpt>
      <trkpt lat="45.116" lon="6.0375">
        <ele>1105.8</ele>
        <time>2020-09-05T05:05:08Z</time>
      </trkpt>
      <trkpt lat="45.11599" lon="6.03748">
        <ele>1106</ele>
        <time>2020-09-05T05:05:09Z</time>
      </trkpt>
      <trkpt lat="45.11599" lon="6.03743">
        <ele>1106.4</ele>
        <time>2020-09-05T05:05:11Z</time>
      </trkpt>
      <trkpt lat="45.11598" lon="6.03739">
        <ele>1106.4</ele>
        <time>2020-09-05T05:05:12Z</time>
      </trkpt>
      <trkpt lat="45.11598" lon="6.03736">
        <ele>1106.8</ele>
        <time>2020-09-05T05:05:13Z</time>
      </trkpt>
      <trkpt lat="45.11597" lon="6.03733">
        <ele>1107</ele>
        <time>2020-09-05T05:05:14Z</time>
      </trkpt>
      <trkpt lat="45.11597" lon="6.0373">
        <ele>1107</ele>
        <time>2020-09-05T05:05:15Z</time>
      </trkpt>
      <trkpt lat="45.11597" lon="6.03726">
        <ele>1107.4</ele>
        <time>2020-09-05T05:05:16Z</time>
      </trkpt>
      <trkpt lat="45.11596" lon="6.03723">
        <ele>1107.4</ele>
        <time>2020-09-05T05:05:17Z</time>
      </trkpt>
      <trkpt lat="45.11596" lon="6.03719">
        <ele>1107.6</ele>
        <time>2020-09-05T05:05:18Z</time>
      </trkpt>
      <trkpt lat="45.11596" lon="6.03716">
        <ele>1107.8</ele>
        <time>2020-09-05T05:05:19Z</time>
      </trkpt>
      <trkpt lat="45.11595" lon="6.03713">
        <ele>1108</ele>
        <time>2020-09-05T05:05:20Z</time>
      </trkpt>
      <trkpt lat="45.11595" lon="6.03709">
        <ele>1108.2</ele>
        <time>2020-09-05T05:05:21Z</time>
      </trkpt>
      <trkpt lat="45.11594" lon="6.03705">
        <ele>1108.4</ele>
        <time>2020-09-05T05:05:22Z</time>
      </trkpt>
      <trkpt lat="45.11594" lon="6.03702">
        <ele>1108.8</ele>
        <time>2020-09-05T05:05:23Z</time>
      </trkpt>
      <trkpt lat="45.11593" lon="6.03698">
        <ele>1109</ele>
        <time>2020-09-05T05:05:24Z</time>
      </trkpt>
      <trkpt lat="45.11593" lon="6.03695">
        <ele>1109</ele>
        <time>2020-09-05T05:05:25Z</time>
      </trkpt>
      <trkpt lat="45.11593" lon="6.03692">
        <ele>1109.4</ele>
        <time>2020-09-05T05:05:26Z</time>
      </trkpt>
      <trkpt lat="45.11592" lon="6.03688">
        <ele>1109.4</ele>
        <time>2020-09-05T05:05:27Z</time>
      </trkpt>
      <trkpt lat="45.11592" lon="6.03685">
        <ele>1109.6</ele>
        <time>2020-09-05T05:05:28Z</time>
      </trkpt>
      <trkpt lat="45.11592" lon="6.03681">
        <ele>1109.8</ele>
        <time>2020-09-05T05:05:29Z</time>
      </trkpt>
      <trkpt lat="45.11591" lon="6.03678">
        <ele>1110</ele>
        <time>2020-09-05T05:05:30Z</time>
      </trkpt>
      <trkpt lat="45.11592" lon="6.03675">
        <ele>1110.4</ele>
        <time>2020-09-05T05:05:31Z</time>
      </trkpt>
      <trkpt lat="45.11591" lon="6.03672">
        <ele>1110.6</ele>
        <time>2020-09-05T05:05:32Z</time>
      </trkpt>
      <trkpt lat="45.11591" lon="6.03669">
        <ele>1111</ele>
        <time>2020-09-05T05:05:33Z</time>
      </trkpt>
      <trkpt lat="45.1159" lon="6.03666">
        <ele>1111.2</ele>
        <time>2020-09-05T05:05:34Z</time>
      </trkpt>
      <trkpt lat="45.1159" lon="6.03661">
        <ele>1111.8</ele>
        <time>2020-09-05T05:05:36Z</time>
      </trkpt>
      <trkpt lat="45.1159" lon="6.03655">
        <ele>1112.4</ele>
        <time>2020-09-05T05:05:38Z</time>
      </trkpt>
      <trkpt lat="45.11589" lon="6.03651">
        <ele>1112.6</ele>
        <time>2020-09-05T05:05:39Z</time>
      </trkpt>
      <trkpt lat="45.11588" lon="6.03648">
        <ele>1112.8</ele>
        <time>2020-09-05T05:05:40Z</time>
      </trkpt>
      <trkpt lat="45.11587" lon="6.03645">
        <ele>1113</ele>
        <time>2020-09-05T05:05:41Z</time>
      </trkpt>
      <trkpt lat="45.11587" lon="6.03641">
        <ele>1113.2</ele>
        <time>2020-09-05T05:05:42Z</time>
      </trkpt>
      <trkpt lat="45.11587" lon="6.03638">
        <ele>1113.4</ele>
        <time>2020-09-05T05:05:43Z</time>
      </trkpt>
      <trkpt lat="45.11586" lon="6.03635">
        <ele>1113.6</ele>
        <time>2020-09-05T05:05:44Z</time>
      </trkpt>
      <trkpt lat="45.11586" lon="6.03631">
        <ele>1114</ele>
        <time>2020-09-05T05:05:45Z</time>
      </trkpt>
      <trkpt lat="45.11585" lon="6.03628">
        <ele>1114.2</ele>
        <time>2020-09-05T05:05:46Z</time>
      </trkpt>
      <trkpt lat="45.11584" lon="6.03626">
        <ele>1114.4</ele>
        <time>2020-09-05T05:05:47Z</time>
      </trkpt>
      <trkpt lat="45.11583" lon="6.03623">
        <ele>1114.8</ele>
        <time>2020-09-05T05:05:48Z</time>
      </trkpt>
      <trkpt lat="45.11583" lon="6.03619">
        <ele>1115</ele>
        <time>2020-09-05T05:05:49Z</time>
      </trkpt>
      <trkpt lat="45.11582" lon="6.03616">
        <ele>1115.4</ele>
        <time>2020-09-05T05:05:50Z</time>
      </trkpt>
      <trkpt lat="45.11581" lon="6.03613">
        <ele>1115.4</ele>
        <time>2020-09-05T05:05:51Z</time>
      </trkpt>
      <trkpt lat="45.11581" lon="6.0361">
        <ele>1115.8</ele>
        <time>2020-09-05T05:05:52Z</time>
      </trkpt>
      <trkpt lat="45.1158" lon="6.03608">
        <ele>1116</ele>
        <time>2020-09-05T05:05:53Z</time>
      </trkpt>
      <trkpt lat="45.11579" lon="6.03605">
        <ele>1116.2</ele>
        <time>2020-09-05T05:05:54Z</time>
      </trkpt>
      <trkpt lat="45.11579" lon="6.03602">
        <ele>1116.6</ele>
        <time>2020-09-05T05:05:55Z</time>
      </trkpt>
      <trkpt lat="45.11578" lon="6.036">
        <ele>1116.8</ele>
        <time>2020-09-05T05:05:56Z</time>
      </trkpt>
      <trkpt lat="45.11576" lon="6.03596">
        <ele>1117.2</ele>
        <time>2020-09-05T05:05:58Z</time>
      </trkpt>
      <trkpt lat="45.11574" lon="6.03591">
        <ele>1117.6</ele>
        <time>2020-09-05T05:06:00Z</time>
      </trkpt>
      <trkpt lat="45.11573" lon="6.03587">
        <ele>1118</ele>
        <time>2020-09-05T05:06:02Z</time>
      </trkpt>
      <trkpt lat="45.11572" lon="6.03585">
        <ele>1118.2</ele>
        <time>2020-09-05T05:06:03Z</time>
      </trkpt>
      <trkpt lat="45.11571" lon="6.03582">
        <ele>1118.6</ele>
        <time>2020-09-05T05:06:04Z</time>
      </trkpt>
      <trkpt lat="45.1157" lon="6.0358">
        <ele>1118.6</ele>
        <time>2020-09-05T05:06:05Z</time>
      </trkpt>
      <trkpt lat="45.11569" lon="6.03577">
        <ele>1118.8</ele>
        <time>2020-09-05T05:06:06Z</time>
      </trkpt>
      <trkpt lat="45.11568" lon="6.03575">
        <ele>1119</ele>
        <time>2020-09-05T05:06:07Z</time>
      </trkpt>
      <trkpt lat="45.11568" lon="6.03572">
        <ele>1119.2</ele>
        <time>2020-09-05T05:06:08Z</time>
      </trkpt>
      <trkpt lat="45.11566" lon="6.03568">
        <ele>1119.8</ele>
        <time>2020-09-05T05:06:10Z</time>
      </trkpt>
      <trkpt lat="45.11564" lon="6.03564">
        <ele>1120.2</ele>
        <time>2020-09-05T05:06:12Z</time>
      </trkpt>
      <trkpt lat="45.11563" lon="6.03559">
        <ele>1120.8</ele>
        <time>2020-09-05T05:06:14Z</time>
      </trkpt>
      <trkpt lat="45.11562" lon="6.03557">
        <ele>1121.2</ele>
        <time>2020-09-05T05:06:15Z</time>
      </trkpt>
      <trkpt lat="45.11561" lon="6.03554">
        <ele>1121.4</ele>
        <time>2020-09-05T05:06:16Z</time>
      </trkpt>
      <trkpt lat="45.1156" lon="6.03552">
        <ele>1121.6</ele>
        <time>2020-09-05T05:06:17Z</time>
      </trkpt>
      <trkpt lat="45.11559" lon="6.03548">
        <ele>1122</ele>
        <time>2020-09-05T05:06:19Z</time>
      </trkpt>
      <trkpt lat="45.11557" lon="6.03544">
        <ele>1122.4</ele>
        <time>2020-09-05T05:06:21Z</time>
      </trkpt>
      <trkpt lat="45.11556" lon="6.03541">
        <ele>1122.8</ele>
        <time>2020-09-05T05:06:22Z</time>
      </trkpt>
      <trkpt lat="45.11555" lon="6.03539">
        <ele>1123</ele>
        <time>2020-09-05T05:06:23Z</time>
      </trkpt>
      <trkpt lat="45.11554" lon="6.03537">
        <ele>1123.4</ele>
        <time>2020-09-05T05:06:24Z</time>
      </trkpt>
      <trkpt lat="45.11554" lon="6.03534">
        <ele>1123.6</ele>
        <time>2020-09-05T05:06:25Z</time>
      </trkpt>
      <trkpt lat="45.11553" lon="6.03532">
        <ele>1123.8</ele>
        <time>2020-09-05T05:06:26Z</time>
      </trkpt>
      <trkpt lat="45.11552" lon="6.0353">
        <ele>1124</ele>
        <time>2020-09-05T05:06:27Z</time>
      </trkpt>
      <trkpt lat="45.11551" lon="6.03527">
        <ele>1124.4</ele>
        <time>2020-09-05T05:06:28Z</time>
      </trkpt>
      <trkpt lat="45.1155" lon="6.03525">
        <ele>1124.6</ele>
        <time>2020-09-05T05:06:29Z</time>
      </trkpt>
      <trkpt lat="45.11548" lon="6.03523">
        <ele>1124.8</ele>
        <time>2020-09-05T05:06:30Z</time>
      </trkpt>
      <trkpt lat="45.11547" lon="6.03521">
        <ele>1125.2</ele>
        <time>2020-09-05T05:06:31Z</time>
      </trkpt>
      <trkpt lat="45.11545" lon="6.03519">
        <ele>1125.4</ele>
        <time>2020-09-05T05:06:32Z</time>
      </trkpt>
      <trkpt lat="45.11543" lon="6.03519">
        <ele>1125.6</ele>
        <time>2020-09-05T05:06:33Z</time>
      </trkpt>
      <trkpt lat="45.11541" lon="6.03519">
        <ele>1125.8</ele>
        <time>2020-09-05T05:06:34Z</time>
      </trkpt>
      <trkpt lat="45.11538" lon="6.0352">
        <ele>1126.2</ele>
        <time>2020-09-05T05:06:35Z</time>
      </trkpt>
      <trkpt lat="45.11536" lon="6.03521">
        <ele>1126.4</ele>
        <time>2020-09-05T05:06:36Z</time>
      </trkpt>
      <trkpt lat="45.11534" lon="6.03523">
        <ele>1126.4</ele>
        <time>2020-09-05T05:06:37Z</time>
      </trkpt>
      <trkpt lat="45.11532" lon="6.03525">
        <ele>1126.4</ele>
        <time>2020-09-05T05:06:38Z</time>
      </trkpt>
      <trkpt lat="45.11531" lon="6.03529">
        <ele>1126.6</ele>
        <time>2020-09-05T05:06:39Z</time>
      </trkpt>
      <trkpt lat="45.11531" lon="6.03532">
        <ele>1126.8</ele>
        <time>2020-09-05T05:06:40Z</time>
      </trkpt>
      <trkpt lat="45.1153" lon="6.03535">
        <ele>1127</ele>
        <time>2020-09-05T05:06:41Z</time>
      </trkpt>
      <trkpt lat="45.1153" lon="6.03539">
        <ele>1126.8</ele>
        <time>2020-09-05T05:06:42Z</time>
      </trkpt>
      <trkpt lat="45.1153" lon="6.03542">
        <ele>1126.8</ele>
        <time>2020-09-05T05:06:43Z</time>
      </trkpt>
      <trkpt lat="45.11531" lon="6.03549">
        <ele>1127.2</ele>
        <time>2020-09-05T05:06:45Z</time>
      </trkpt>
      <trkpt lat="45.11531" lon="6.03553">
        <ele>1127.4</ele>
        <time>2020-09-05T05:06:46Z</time>
      </trkpt>
      <trkpt lat="45.11532" lon="6.03557">
        <ele>1127.6</ele>
        <time>2020-09-05T05:06:47Z</time>
      </trkpt>
      <trkpt lat="45.11533" lon="6.0356">
        <ele>1127.8</ele>
        <time>2020-09-05T05:06:48Z</time>
      </trkpt>
      <trkpt lat="45.11534" lon="6.03564">
        <ele>1128</ele>
        <time>2020-09-05T05:06:49Z</time>
      </trkpt>
      <trkpt lat="45.11536" lon="6.03567">
        <ele>1128.2</ele>
        <time>2020-09-05T05:06:50Z</time>
      </trkpt>
      <trkpt lat="45.11537" lon="6.03571">
        <ele>1128.2</ele>
        <time>2020-09-05T05:06:51Z</time>
      </trkpt>
      <trkpt lat="45.11538" lon="6.03574">
        <ele>1128.6</ele>
        <time>2020-09-05T05:06:52Z</time>
      </trkpt>
      <trkpt lat="45.11538" lon="6.03578">
        <ele>1128.8</ele>
        <time>2020-09-05T05:06:53Z</time>
      </trkpt>
      <trkpt lat="45.11539" lon="6.03582">
        <ele>1129</ele>
        <time>2020-09-05T05:06:54Z</time>
      </trkpt>
      <trkpt lat="45.1154" lon="6.03585">
        <ele>1129.2</ele>
        <time>2020-09-05T05:06:55Z</time>
      </trkpt>
      <trkpt lat="45.11542" lon="6.0359">
        <ele>1129.4</ele>
        <time>2020-09-05T05:06:56Z</time>
      </trkpt>
      <trkpt lat="45.11543" lon="6.03594">
        <ele>1129.6</ele>
        <time>2020-09-05T05:06:57Z</time>
      </trkpt>
      <trkpt lat="45.11545" lon="6.03598">
        <ele>1129.6</ele>
        <time>2020-09-05T05:06:58Z</time>
      </trkpt>
      <trkpt lat="45.11546" lon="6.03602">
        <ele>1129.8</ele>
        <time>2020-09-05T05:06:59Z</time>
      </trkpt>
      <trkpt lat="45.11548" lon="6.03606">
        <ele>1129.8</ele>
        <time>2020-09-05T05:07:00Z</time>
      </trkpt>
      <trkpt lat="45.11549" lon="6.0361">
        <ele>1130</ele>
        <time>2020-09-05T05:07:01Z</time>
      </trkpt>
      <trkpt lat="45.1155" lon="6.03615">
        <ele>1130</ele>
        <time>2020-09-05T05:07:02Z</time>
      </trkpt>
      <trkpt lat="45.11552" lon="6.03623">
        <ele>1130.2</ele>
        <time>2020-09-05T05:07:04Z</time>
      </trkpt>
      <trkpt lat="45.11553" lon="6.03628">
        <ele>1130.6</ele>
        <time>2020-09-05T05:07:05Z</time>
      </trkpt>
      <trkpt lat="45.11553" lon="6.03632">
        <ele>1130.8</ele>
        <time>2020-09-05T05:07:06Z</time>
      </trkpt>
      <trkpt lat="45.11553" lon="6.03637">
        <ele>1130.8</ele>
        <time>2020-09-05T05:07:07Z</time>
      </trkpt>
      <trkpt lat="45.11554" lon="6.03641">
        <ele>1131</ele>
        <time>2020-09-05T05:07:08Z</time>
      </trkpt>
      <trkpt lat="45.11554" lon="6.03646">
        <ele>1131</ele>
        <time>2020-09-05T05:07:09Z</time>
      </trkpt>
      <trkpt lat="45.11553" lon="6.03651">
        <ele>1131.4</ele>
        <time>2020-09-05T05:07:10Z</time>
      </trkpt>
      <trkpt lat="45.11553" lon="6.03656">
        <ele>1131.6</ele>
        <time>2020-09-05T05:07:11Z</time>
      </trkpt>
      <trkpt lat="45.11553" lon="6.0366">
        <ele>1131.8</ele>
        <time>2020-09-05T05:07:12Z</time>
      </trkpt>
      <trkpt lat="45.11553" lon="6.03665">
        <ele>1132.2</ele>
        <time>2020-09-05T05:07:13Z</time>
      </trkpt>
      <trkpt lat="45.11553" lon="6.0367">
        <ele>1132.4</ele>
        <time>2020-09-05T05:07:14Z</time>
      </trkpt>
      <trkpt lat="45.11553" lon="6.03674">
        <ele>1132.6</ele>
        <time>2020-09-05T05:07:15Z</time>
      </trkpt>
      <trkpt lat="45.11553" lon="6.03678">
        <ele>1132.8</ele>
        <time>2020-09-05T05:07:16Z</time>
      </trkpt>
      <trkpt lat="45.11552" lon="6.03683">
        <ele>1132.8</ele>
        <time>2020-09-05T05:07:17Z</time>
      </trkpt>
      <trkpt lat="45.11552" lon="6.03687">
        <ele>1133.2</ele>
        <time>2020-09-05T05:07:18Z</time>
      </trkpt>
      <trkpt lat="45.11552" lon="6.03691">
        <ele>1133.6</ele>
        <time>2020-09-05T05:07:19Z</time>
      </trkpt>
      <trkpt lat="45.11551" lon="6.03695">
        <ele>1133.8</ele>
        <time>2020-09-05T05:07:20Z</time>
      </trkpt>
      <trkpt lat="45.11551" lon="6.03699">
        <ele>1134.2</ele>
        <time>2020-09-05T05:07:21Z</time>
      </trkpt>
      <trkpt lat="45.1155" lon="6.03702">
        <ele>1134.2</ele>
        <time>2020-09-05T05:07:22Z</time>
      </trkpt>
      <trkpt lat="45.1155" lon="6.03706">
        <ele>1134.2</ele>
        <time>2020-09-05T05:07:23Z</time>
      </trkpt>
      <trkpt lat="45.11549" lon="6.03709">
        <ele>1134.6</ele>
        <time>2020-09-05T05:07:24Z</time>
      </trkpt>
      <trkpt lat="45.11548" lon="6.03712">
        <ele>1134.8</ele>
        <time>2020-09-05T05:07:25Z</time>
      </trkpt>
      <trkpt lat="45.11547" lon="6.0372">
        <ele>1135.2</ele>
        <time>2020-09-05T05:07:27Z</time>
      </trkpt>
      <trkpt lat="45.11546" lon="6.03724">
        <ele>1135.4</ele>
        <time>2020-09-05T05:07:28Z</time>
      </trkpt>
      <trkpt lat="45.11545" lon="6.03728">
        <ele>1135.6</ele>
        <time>2020-09-05T05:07:29Z</time>
      </trkpt>
      <trkpt lat="45.11544" lon="6.03732">
        <ele>1135.8</ele>
        <time>2020-09-05T05:07:30Z</time>
      </trkpt>
      <trkpt lat="45.11543" lon="6.03735">
        <ele>1136.2</ele>
        <time>2020-09-05T05:07:31Z</time>
      </trkpt>
      <trkpt lat="45.11542" lon="6.0374">
        <ele>1136.4</ele>
        <time>2020-09-05T05:07:32Z</time>
      </trkpt>
      <trkpt lat="45.1154" lon="6.03743">
        <ele>1136.6</ele>
        <time>2020-09-05T05:07:33Z</time>
      </trkpt>
      <trkpt lat="45.11539" lon="6.03747">
        <ele>1137</ele>
        <time>2020-09-05T05:07:34Z</time>
      </trkpt>
      <trkpt lat="45.11539" lon="6.0375">
        <ele>1137.4</ele>
        <time>2020-09-05T05:07:35Z</time>
      </trkpt>
      <trkpt lat="45.11538" lon="6.03753">
        <ele>1137.6</ele>
        <time>2020-09-05T05:07:36Z</time>
      </trkpt>
      <trkpt lat="45.11537" lon="6.03756">
        <ele>1137.6</ele>
        <time>2020-09-05T05:07:37Z</time>
      </trkpt>
      <trkpt lat="45.11537" lon="6.0376">
        <ele>1137.8</ele>
        <time>2020-09-05T05:07:38Z</time>
      </trkpt>
      <trkpt lat="45.11537" lon="6.03763">
        <ele>1138</ele>
        <time>2020-09-05T05:07:39Z</time>
      </trkpt>
      <trkpt lat="45.11536" lon="6.03766">
        <ele>1138.6</ele>
        <time>2020-09-05T05:07:40Z</time>
      </trkpt>
      <trkpt lat="45.11536" lon="6.0377">
        <ele>1138.6</ele>
        <time>2020-09-05T05:07:41Z</time>
      </trkpt>
      <trkpt lat="45.11535" lon="6.03773">
        <ele>1139</ele>
        <time>2020-09-05T05:07:42Z</time>
      </trkpt>
      <trkpt lat="45.11534" lon="6.03777">
        <ele>1139</ele>
        <time>2020-09-05T05:07:43Z</time>
      </trkpt>
      <trkpt lat="45.11533" lon="6.0378">
        <ele>1139.4</ele>
        <time>2020-09-05T05:07:44Z</time>
      </trkpt>
      <trkpt lat="45.11533" lon="6.03784">
        <ele>1139.6</ele>
        <time>2020-09-05T05:07:45Z</time>
      </trkpt>
      <trkpt lat="45.11532" lon="6.03788">
        <ele>1139.6</ele>
        <time>2020-09-05T05:07:46Z</time>
      </trkpt>
      <trkpt lat="45.1153" lon="6.03794">
        <ele>1140.6</ele>
        <time>2020-09-05T05:07:48Z</time>
      </trkpt>
      <trkpt lat="45.11529" lon="6.03797">
        <ele>1140.6</ele>
        <time>2020-09-05T05:07:49Z</time>
      </trkpt>
      <trkpt lat="45.11526" lon="6.03806">
        <ele>1141.2</ele>
        <time>2020-09-05T05:07:52Z</time>
      </trkpt>
      <trkpt lat="45.11525" lon="6.03818">
        <ele>1142</ele>
        <time>2020-09-05T05:07:55Z</time>
      </trkpt>
      <trkpt lat="45.11525" lon="6.03821">
        <ele>1142.2</ele>
        <time>2020-09-05T05:07:56Z</time>
      </trkpt>
      <trkpt lat="45.11525" lon="6.03825">
        <ele>1142.6</ele>
        <time>2020-09-05T05:07:57Z</time>
      </trkpt>
      <trkpt lat="45.11524" lon="6.03829">
        <ele>1142.6</ele>
        <time>2020-09-05T05:07:58Z</time>
      </trkpt>
      <trkpt lat="45.11523" lon="6.03832">
        <ele>1142.6</ele>
        <time>2020-09-05T05:07:59Z</time>
      </trkpt>
      <trkpt lat="45.11523" lon="6.03835">
        <ele>1143</ele>
        <time>2020-09-05T05:08:00Z</time>
      </trkpt>
      <trkpt lat="45.11522" lon="6.03839">
        <ele>1143</ele>
        <time>2020-09-05T05:08:01Z</time>
      </trkpt>
      <trkpt lat="45.11521" lon="6.03842">
        <ele>1143.4</ele>
        <time>2020-09-05T05:08:02Z</time>
      </trkpt>
      <trkpt lat="45.11519" lon="6.03853">
        <ele>1144</ele>
        <time>2020-09-05T05:08:05Z</time>
      </trkpt>
      <trkpt lat="45.11519" lon="6.03856">
        <ele>1144.4</ele>
        <time>2020-09-05T05:08:06Z</time>
      </trkpt>
      <trkpt lat="45.11518" lon="6.0386">
        <ele>1144.6</ele>
        <time>2020-09-05T05:08:07Z</time>
      </trkpt>
      <trkpt lat="45.11517" lon="6.03864">
        <ele>1144.8</ele>
        <time>2020-09-05T05:08:08Z</time>
      </trkpt>
      <trkpt lat="45.11516" lon="6.03867">
        <ele>1145</ele>
        <time>2020-09-05T05:08:09Z</time>
      </trkpt>
      <trkpt lat="45.11514" lon="6.03874">
        <ele>1145.4</ele>
        <time>2020-09-05T05:08:11Z</time>
      </trkpt>
      <trkpt lat="45.11514" lon="6.03878">
        <ele>1145.8</ele>
        <time>2020-09-05T05:08:12Z</time>
      </trkpt>
      <trkpt lat="45.11513" lon="6.03882">
        <ele>1146</ele>
        <time>2020-09-05T05:08:13Z</time>
      </trkpt>
      <trkpt lat="45.11511" lon="6.03889">
        <ele>1146.4</ele>
        <time>2020-09-05T05:08:15Z</time>
      </trkpt>
      <trkpt lat="45.1151" lon="6.03893">
        <ele>1146.8</ele>
        <time>2020-09-05T05:08:16Z</time>
      </trkpt>
      <trkpt lat="45.11509" lon="6.03896">
        <ele>1147</ele>
        <time>2020-09-05T05:08:17Z</time>
      </trkpt>
      <trkpt lat="45.11508" lon="6.03899">
        <ele>1147.2</ele>
        <time>2020-09-05T05:08:18Z</time>
      </trkpt>
      <trkpt lat="45.11507" lon="6.03903">
        <ele>1147.6</ele>
        <time>2020-09-05T05:08:19Z</time>
      </trkpt>
      <trkpt lat="45.11506" lon="6.03906">
        <ele>1147.8</ele>
        <time>2020-09-05T05:08:20Z</time>
      </trkpt>
      <trkpt lat="45.11505" lon="6.03909">
        <ele>1148.2</ele>
        <time>2020-09-05T05:08:21Z</time>
      </trkpt>
      <trkpt lat="45.11504" lon="6.03913">
        <ele>1148.2</ele>
        <time>2020-09-05T05:08:22Z</time>
      </trkpt>
      <trkpt lat="45.11503" lon="6.03917">
        <ele>1148.4</ele>
        <time>2020-09-05T05:08:23Z</time>
      </trkpt>
      <trkpt lat="45.11501" lon="6.03921">
        <ele>1148.8</ele>
        <time>2020-09-05T05:08:24Z</time>
      </trkpt>
      <trkpt lat="45.115" lon="6.03924">
        <ele>1148.8</ele>
        <time>2020-09-05T05:08:25Z</time>
      </trkpt>
      <trkpt lat="45.11496" lon="6.03937">
        <ele>1149.8</ele>
        <time>2020-09-05T05:08:29Z</time>
      </trkpt>
      <trkpt lat="45.11495" lon="6.03941">
        <ele>1150</ele>
        <time>2020-09-05T05:08:30Z</time>
      </trkpt>
      <trkpt lat="45.11494" lon="6.03944">
        <ele>1150.4</ele>
        <time>2020-09-05T05:08:31Z</time>
      </trkpt>
      <trkpt lat="45.11489" lon="6.03958">
        <ele>1151.6</ele>
        <time>2020-09-05T05:08:35Z</time>
      </trkpt>
      <trkpt lat="45.11486" lon="6.03969">
        <ele>1152.4</ele>
        <time>2020-09-05T05:08:38Z</time>
      </trkpt>
      <trkpt lat="45.11484" lon="6.03976">
        <ele>1152.8</ele>
        <time>2020-09-05T05:08:40Z</time>
      </trkpt>
      <trkpt lat="45.11483" lon="6.0398">
        <ele>1153</ele>
        <time>2020-09-05T05:08:41Z</time>
      </trkpt>
      <trkpt lat="45.11482" lon="6.03983">
        <ele>1153.2</ele>
        <time>2020-09-05T05:08:42Z</time>
      </trkpt>
      <trkpt lat="45.11481" lon="6.03986">
        <ele>1153.4</ele>
        <time>2020-09-05T05:08:43Z</time>
      </trkpt>
      <trkpt lat="45.1148" lon="6.03989">
        <ele>1153.6</ele>
        <time>2020-09-05T05:08:44Z</time>
      </trkpt>
      <trkpt lat="45.11479" lon="6.03993">
        <ele>1153.6</ele>
        <time>2020-09-05T05:08:45Z</time>
      </trkpt>
      <trkpt lat="45.11478" lon="6.03996">
        <ele>1153.8</ele>
        <time>2020-09-05T05:08:46Z</time>
      </trkpt>
      <trkpt lat="45.11477" lon="6.03999">
        <ele>1153.8</ele>
        <time>2020-09-05T05:08:47Z</time>
      </trkpt>
      <trkpt lat="45.11476" lon="6.04002">
        <ele>1154</ele>
        <time>2020-09-05T05:08:48Z</time>
      </trkpt>
      <trkpt lat="45.11475" lon="6.04005">
        <ele>1154.6</ele>
        <time>2020-09-05T05:08:49Z</time>
      </trkpt>
      <trkpt lat="45.11474" lon="6.04009">
        <ele>1154.6</ele>
        <time>2020-09-05T05:08:50Z</time>
      </trkpt>
      <trkpt lat="45.11473" lon="6.04012">
        <ele>1154.8</ele>
        <time>2020-09-05T05:08:51Z</time>
      </trkpt>
      <trkpt lat="45.11472" lon="6.04016">
        <ele>1155</ele>
        <time>2020-09-05T05:08:52Z</time>
      </trkpt>
      <trkpt lat="45.11471" lon="6.04019">
        <ele>1155.2</ele>
        <time>2020-09-05T05:08:53Z</time>
      </trkpt>
      <trkpt lat="45.1147" lon="6.04022">
        <ele>1155.6</ele>
        <time>2020-09-05T05:08:54Z</time>
      </trkpt>
      <trkpt lat="45.11469" lon="6.04029">
        <ele>1156</ele>
        <time>2020-09-05T05:08:56Z</time>
      </trkpt>
      <trkpt lat="45.11468" lon="6.04032">
        <ele>1156</ele>
        <time>2020-09-05T05:08:57Z</time>
      </trkpt>
      <trkpt lat="45.11465" lon="6.04046">
        <ele>1157</ele>
        <time>2020-09-05T05:09:01Z</time>
      </trkpt>
      <trkpt lat="45.11462" lon="6.0406">
        <ele>1158</ele>
        <time>2020-09-05T05:09:05Z</time>
      </trkpt>
      <trkpt lat="45.11461" lon="6.04063">
        <ele>1158.4</ele>
        <time>2020-09-05T05:09:06Z</time>
      </trkpt>
      <trkpt lat="45.11459" lon="6.04066">
        <ele>1158.8</ele>
        <time>2020-09-05T05:09:07Z</time>
      </trkpt>
      <trkpt lat="45.11459" lon="6.04069">
        <ele>1158.8</ele>
        <time>2020-09-05T05:09:08Z</time>
      </trkpt>
      <trkpt lat="45.11458" lon="6.04073">
        <ele>1159</ele>
        <time>2020-09-05T05:09:09Z</time>
      </trkpt>
      <trkpt lat="45.11457" lon="6.04076">
        <ele>1159.2</ele>
        <time>2020-09-05T05:09:10Z</time>
      </trkpt>
      <trkpt lat="45.11456" lon="6.0408">
        <ele>1159.4</ele>
        <time>2020-09-05T05:09:11Z</time>
      </trkpt>
      <trkpt lat="45.11455" lon="6.04083">
        <ele>1159.4</ele>
        <time>2020-09-05T05:09:12Z</time>
      </trkpt>
      <trkpt lat="45.11455" lon="6.04087">
        <ele>1159.6</ele>
        <time>2020-09-05T05:09:13Z</time>
      </trkpt>
      <trkpt lat="45.11454" lon="6.0409">
        <ele>1160</ele>
        <time>2020-09-05T05:09:14Z</time>
      </trkpt>
      <trkpt lat="45.11453" lon="6.04094">
        <ele>1160.2</ele>
        <time>2020-09-05T05:09:15Z</time>
      </trkpt>
      <trkpt lat="45.11452" lon="6.04097">
        <ele>1160.2</ele>
        <time>2020-09-05T05:09:16Z</time>
      </trkpt>
      <trkpt lat="45.11449" lon="6.04111">
        <ele>1161.6</ele>
        <time>2020-09-05T05:09:20Z</time>
      </trkpt>
      <trkpt lat="45.11448" lon="6.04126">
        <ele>1162.4</ele>
        <time>2020-09-05T05:09:24Z</time>
      </trkpt>
      <trkpt lat="45.11447" lon="6.04136">
        <ele>1163</ele>
        <time>2020-09-05T05:09:27Z</time>
      </trkpt>
      <trkpt lat="45.11447" lon="6.0414">
        <ele>1163.4</ele>
        <time>2020-09-05T05:09:28Z</time>
      </trkpt>
      <trkpt lat="45.11446" lon="6.04143">
        <ele>1163.6</ele>
        <time>2020-09-05T05:09:29Z</time>
      </trkpt>
      <trkpt lat="45.11446" lon="6.04147">
        <ele>1164</ele>
        <time>2020-09-05T05:09:30Z</time>
      </trkpt>
      <trkpt lat="45.11446" lon="6.0415">
        <ele>1164.4</ele>
        <time>2020-09-05T05:09:31Z</time>
      </trkpt>
      <trkpt lat="45.11446" lon="6.04154">
        <ele>1164.4</ele>
        <time>2020-09-05T05:09:32Z</time>
      </trkpt>
      <trkpt lat="45.11445" lon="6.04158">
        <ele>1164.6</ele>
        <time>2020-09-05T05:09:33Z</time>
      </trkpt>
      <trkpt lat="45.11445" lon="6.04161">
        <ele>1164.8</ele>
        <time>2020-09-05T05:09:34Z</time>
      </trkpt>
      <trkpt lat="45.11444" lon="6.04165">
        <ele>1165</ele>
        <time>2020-09-05T05:09:35Z</time>
      </trkpt>
      <trkpt lat="45.11444" lon="6.04168">
        <ele>1165.2</ele>
        <time>2020-09-05T05:09:36Z</time>
      </trkpt>
      <trkpt lat="45.11443" lon="6.04172">
        <ele>1165.4</ele>
        <time>2020-09-05T05:09:37Z</time>
      </trkpt>
      <trkpt lat="45.11443" lon="6.04176">
        <ele>1165.6</ele>
        <time>2020-09-05T05:09:38Z</time>
      </trkpt>
      <trkpt lat="45.11442" lon="6.04179">
        <ele>1166.2</ele>
        <time>2020-09-05T05:09:39Z</time>
      </trkpt>
      <trkpt lat="45.11442" lon="6.04182">
        <ele>1166.4</ele>
        <time>2020-09-05T05:09:40Z</time>
      </trkpt>
      <trkpt lat="45.11441" lon="6.04185">
        <ele>1166.6</ele>
        <time>2020-09-05T05:09:41Z</time>
      </trkpt>
      <trkpt lat="45.11439" lon="6.04188">
        <ele>1166.8</ele>
        <time>2020-09-05T05:09:42Z</time>
      </trkpt>
      <trkpt lat="45.11438" lon="6.04191">
        <ele>1166.8</ele>
        <time>2020-09-05T05:09:43Z</time>
      </trkpt>
      <trkpt lat="45.11436" lon="6.04193">
        <ele>1167</ele>
        <time>2020-09-05T05:09:44Z</time>
      </trkpt>
      <trkpt lat="45.11426" lon="6.04189">
        <ele>1167.8</ele>
        <time>2020-09-05T05:09:48Z</time>
      </trkpt>
      <trkpt lat="45.11425" lon="6.04185">
        <ele>1168</ele>
        <time>2020-09-05T05:09:49Z</time>
      </trkpt>
      <trkpt lat="45.11424" lon="6.04181">
        <ele>1168</ele>
        <time>2020-09-05T05:09:50Z</time>
      </trkpt>
      <trkpt lat="45.11424" lon="6.04177">
        <ele>1168.2</ele>
        <time>2020-09-05T05:09:51Z</time>
      </trkpt>
      <trkpt lat="45.11424" lon="6.04173">
        <ele>1168.4</ele>
        <time>2020-09-05T05:09:52Z</time>
      </trkpt>
      <trkpt lat="45.11426" lon="6.0416">
        <ele>1168.6</ele>
        <time>2020-09-05T05:09:55Z</time>
      </trkpt>
      <trkpt lat="45.11427" lon="6.04146">
        <ele>1169.2</ele>
        <time>2020-09-05T05:09:58Z</time>
      </trkpt>
      <trkpt lat="45.11429" lon="6.04134">
        <ele>1169.6</ele>
        <time>2020-09-05T05:10:01Z</time>
      </trkpt>
      <trkpt lat="45.1143" lon="6.04126">
        <ele>1170</ele>
        <time>2020-09-05T05:10:03Z</time>
      </trkpt>
      <trkpt lat="45.11432" lon="6.04112">
        <ele>1170.4</ele>
        <time>2020-09-05T05:10:06Z</time>
      </trkpt>
      <trkpt lat="45.11433" lon="6.04097">
        <ele>1171</ele>
        <time>2020-09-05T05:10:09Z</time>
      </trkpt>
      <trkpt lat="45.11435" lon="6.04085">
        <ele>1171.6</ele>
        <time>2020-09-05T05:10:12Z</time>
      </trkpt>
      <trkpt lat="45.11437" lon="6.04072">
        <ele>1172.2</ele>
        <time>2020-09-05T05:10:15Z</time>
      </trkpt>
      <trkpt lat="45.11438" lon="6.04058">
        <ele>1173</ele>
        <time>2020-09-05T05:10:18Z</time>
      </trkpt>
      <trkpt lat="45.11441" lon="6.04043">
        <ele>1174</ele>
        <time>2020-09-05T05:10:22Z</time>
      </trkpt>
      <trkpt lat="45.11443" lon="6.04026">
        <ele>1174.8</ele>
        <time>2020-09-05T05:10:26Z</time>
      </trkpt>
      <trkpt lat="45.11444" lon="6.04014">
        <ele>1175.4</ele>
        <time>2020-09-05T05:10:29Z</time>
      </trkpt>
      <trkpt lat="45.11445" lon="6.03998">
        <ele>1176.2</ele>
        <time>2020-09-05T05:10:33Z</time>
      </trkpt>
      <trkpt lat="45.11445" lon="6.03994">
        <ele>1176.4</ele>
        <time>2020-09-05T05:10:34Z</time>
      </trkpt>
      <trkpt lat="45.11446" lon="6.0399">
        <ele>1176.6</ele>
        <time>2020-09-05T05:10:35Z</time>
      </trkpt>
      <trkpt lat="45.11446" lon="6.03986">
        <ele>1176.8</ele>
        <time>2020-09-05T05:10:36Z</time>
      </trkpt>
      <trkpt lat="45.11447" lon="6.03983">
        <ele>1177.2</ele>
        <time>2020-09-05T05:10:37Z</time>
      </trkpt>
      <trkpt lat="45.11448" lon="6.03979">
        <ele>1177.4</ele>
        <time>2020-09-05T05:10:38Z</time>
      </trkpt>
      <trkpt lat="45.11451" lon="6.03964">
        <ele>1178.2</ele>
        <time>2020-09-05T05:10:42Z</time>
      </trkpt>
      <trkpt lat="45.11453" lon="6.03948">
        <ele>1179.2</ele>
        <time>2020-09-05T05:10:46Z</time>
      </trkpt>
      <trkpt lat="45.11457" lon="6.03936">
        <ele>1180</ele>
        <time>2020-09-05T05:10:50Z</time>
      </trkpt>
      <trkpt lat="45.1146" lon="6.03921">
        <ele>1180.8</ele>
        <time>2020-09-05T05:10:54Z</time>
      </trkpt>
      <trkpt lat="45.11462" lon="6.03905">
        <ele>1181.6</ele>
        <time>2020-09-05T05:10:58Z</time>
      </trkpt>
      <trkpt lat="45.11463" lon="6.03891">
        <ele>1182.2</ele>
        <time>2020-09-05T05:11:02Z</time>
      </trkpt>
      <trkpt lat="45.11463" lon="6.03878">
        <ele>1183.2</ele>
        <time>2020-09-05T05:11:05Z</time>
      </trkpt>
      <trkpt lat="45.11466" lon="6.03862">
        <ele>1184</ele>
        <time>2020-09-05T05:11:09Z</time>
      </trkpt>
      <trkpt lat="45.11468" lon="6.0385">
        <ele>1184.6</ele>
        <time>2020-09-05T05:11:12Z</time>
      </trkpt>
      <trkpt lat="45.1147" lon="6.03834">
        <ele>1185.4</ele>
        <time>2020-09-05T05:11:16Z</time>
      </trkpt>
      <trkpt lat="45.11472" lon="6.03819">
        <ele>1186.4</ele>
        <time>2020-09-05T05:11:20Z</time>
      </trkpt>
      <trkpt lat="45.11473" lon="6.03815">
        <ele>1186.6</ele>
        <time>2020-09-05T05:11:21Z</time>
      </trkpt>
      <trkpt lat="45.11473" lon="6.03811">
        <ele>1186.8</ele>
        <time>2020-09-05T05:11:22Z</time>
      </trkpt>
      <trkpt lat="45.11474" lon="6.03796">
        <ele>1187.6</ele>
        <time>2020-09-05T05:11:26Z</time>
      </trkpt>
      <trkpt lat="45.11475" lon="6.03785">
        <ele>1188.2</ele>
        <time>2020-09-05T05:11:29Z</time>
      </trkpt>
      <trkpt lat="45.11475" lon="6.03777">
        <ele>1188.4</ele>
        <time>2020-09-05T05:11:31Z</time>
      </trkpt>
      <trkpt lat="45.11475" lon="6.03773">
        <ele>1188.8</ele>
        <time>2020-09-05T05:11:32Z</time>
      </trkpt>
      <trkpt lat="45.11475" lon="6.03769">
        <ele>1189</ele>
        <time>2020-09-05T05:11:33Z</time>
      </trkpt>
      <trkpt lat="45.11475" lon="6.03765">
        <ele>1189.2</ele>
        <time>2020-09-05T05:11:34Z</time>
      </trkpt>
      <trkpt lat="45.11475" lon="6.03761">
        <ele>1189.2</ele>
        <time>2020-09-05T05:11:35Z</time>
      </trkpt>
      <trkpt lat="45.11475" lon="6.03757">
        <ele>1189.4</ele>
        <time>2020-09-05T05:11:36Z</time>
      </trkpt>
      <trkpt lat="45.11475" lon="6.03753">
        <ele>1189.6</ele>
        <time>2020-09-05T05:11:37Z</time>
      </trkpt>
      <trkpt lat="45.11475" lon="6.03749">
        <ele>1190</ele>
        <time>2020-09-05T05:11:38Z</time>
      </trkpt>
      <trkpt lat="45.11475" lon="6.03746">
        <ele>1190</ele>
        <time>2020-09-05T05:11:39Z</time>
      </trkpt>
      <trkpt lat="45.11475" lon="6.03742">
        <ele>1190.2</ele>
        <time>2020-09-05T05:11:40Z</time>
      </trkpt>
      <trkpt lat="45.11474" lon="6.03739">
        <ele>1190.4</ele>
        <time>2020-09-05T05:11:41Z</time>
      </trkpt>
      <trkpt lat="45.11474" lon="6.03735">
        <ele>1190.6</ele>
        <time>2020-09-05T05:11:42Z</time>
      </trkpt>
      <trkpt lat="45.11474" lon="6.03731">
        <ele>1190.8</ele>
        <time>2020-09-05T05:11:43Z</time>
      </trkpt>
      <trkpt lat="45.11473" lon="6.03726">
        <ele>1191</ele>
        <time>2020-09-05T05:11:44Z</time>
      </trkpt>
      <trkpt lat="45.11472" lon="6.03722">
        <ele>1191.2</ele>
        <time>2020-09-05T05:11:45Z</time>
      </trkpt>
      <trkpt lat="45.11472" lon="6.03718">
        <ele>1191.4</ele>
        <time>2020-09-05T05:11:46Z</time>
      </trkpt>
      <trkpt lat="45.11471" lon="6.03714">
        <ele>1191.6</ele>
        <time>2020-09-05T05:11:47Z</time>
      </trkpt>
      <trkpt lat="45.11471" lon="6.03711">
        <ele>1192</ele>
        <time>2020-09-05T05:11:48Z</time>
      </trkpt>
      <trkpt lat="45.11471" lon="6.03707">
        <ele>1192.2</ele>
        <time>2020-09-05T05:11:49Z</time>
      </trkpt>
      <trkpt lat="45.11471" lon="6.03704">
        <ele>1192.8</ele>
        <time>2020-09-05T05:11:50Z</time>
      </trkpt>
      <trkpt lat="45.11471" lon="6.037">
        <ele>1193</ele>
        <time>2020-09-05T05:11:51Z</time>
      </trkpt>
      <trkpt lat="45.11471" lon="6.03697">
        <ele>1193.2</ele>
        <time>2020-09-05T05:11:52Z</time>
      </trkpt>
      <trkpt lat="45.11472" lon="6.03693">
        <ele>1193.4</ele>
        <time>2020-09-05T05:11:53Z</time>
      </trkpt>
      <trkpt lat="45.11471" lon="6.03689">
        <ele>1193.6</ele>
        <time>2020-09-05T05:11:54Z</time>
      </trkpt>
      <trkpt lat="45.11471" lon="6.03686">
        <ele>1193.8</ele>
        <time>2020-09-05T05:11:55Z</time>
      </trkpt>
      <trkpt lat="45.11471" lon="6.03682">
        <ele>1194</ele>
        <time>2020-09-05T05:11:56Z</time>
      </trkpt>
      <trkpt lat="45.11471" lon="6.03679">
        <ele>1194.4</ele>
        <time>2020-09-05T05:11:57Z</time>
      </trkpt>
      <trkpt lat="45.11471" lon="6.03675">
        <ele>1194.6</ele>
        <time>2020-09-05T05:11:58Z</time>
      </trkpt>
      <trkpt lat="45.11471" lon="6.03672">
        <ele>1194.8</ele>
        <time>2020-09-05T05:11:59Z</time>
      </trkpt>
      <trkpt lat="45.1147" lon="6.03669">
        <ele>1194.8</ele>
        <time>2020-09-05T05:12:00Z</time>
      </trkpt>
      <trkpt lat="45.1147" lon="6.03667">
        <ele>1195</ele>
        <time>2020-09-05T05:12:01Z</time>
      </trkpt>
      <trkpt lat="45.1147" lon="6.03663">
        <ele>1195.2</ele>
        <time>2020-09-05T05:12:02Z</time>
      </trkpt>
      <trkpt lat="45.1147" lon="6.03657">
        <ele>1195.8</ele>
        <time>2020-09-05T05:12:04Z</time>
      </trkpt>
      <trkpt lat="45.1147" lon="6.03655">
        <ele>1196</ele>
        <time>2020-09-05T05:12:05Z</time>
      </trkpt>
      <trkpt lat="45.11469" lon="6.03652">
        <ele>1196.2</ele>
        <time>2020-09-05T05:12:06Z</time>
      </trkpt>
      <trkpt lat="45.11469" lon="6.03649">
        <ele>1196.6</ele>
        <time>2020-09-05T05:12:07Z</time>
      </trkpt>
      <trkpt lat="45.11469" lon="6.03646">
        <ele>1196.6</ele>
        <time>2020-09-05T05:12:08Z</time>
      </trkpt>
      <trkpt lat="45.11467" lon="6.0363">
        <ele>1197.6</ele>
        <time>2020-09-05T05:12:12Z</time>
      </trkpt>
      <trkpt lat="45.11466" lon="6.03626">
        <ele>1197.8</ele>
        <time>2020-09-05T05:12:13Z</time>
      </trkpt>
      <trkpt lat="45.11466" lon="6.03623">
        <ele>1198</ele>
        <time>2020-09-05T05:12:14Z</time>
      </trkpt>
      <trkpt lat="45.11465" lon="6.03619">
        <ele>1198.2</ele>
        <time>2020-09-05T05:12:15Z</time>
      </trkpt>
      <trkpt lat="45.11465" lon="6.03616">
        <ele>1198.4</ele>
        <time>2020-09-05T05:12:16Z</time>
      </trkpt>
      <trkpt lat="45.11465" lon="6.03612">
        <ele>1198.6</ele>
        <time>2020-09-05T05:12:17Z</time>
      </trkpt>
      <trkpt lat="45.11465" lon="6.03608">
        <ele>1199</ele>
        <time>2020-09-05T05:12:18Z</time>
      </trkpt>
      <trkpt lat="45.11464" lon="6.03604">
        <ele>1199.2</ele>
        <time>2020-09-05T05:12:19Z</time>
      </trkpt>
      <trkpt lat="45.11464" lon="6.03601">
        <ele>1199.4</ele>
        <time>2020-09-05T05:12:20Z</time>
      </trkpt>
      <trkpt lat="45.11464" lon="6.03597">
        <ele>1199.6</ele>
        <time>2020-09-05T05:12:21Z</time>
      </trkpt>
      <trkpt lat="45.11464" lon="6.03594">
        <ele>1199.8</ele>
        <time>2020-09-05T05:12:22Z</time>
      </trkpt>
      <trkpt lat="45.11464" lon="6.0359">
        <ele>1200</ele>
        <time>2020-09-05T05:12:23Z</time>
      </trkpt>
      <trkpt lat="45.11464" lon="6.03586">
        <ele>1200.2</ele>
        <time>2020-09-05T05:12:24Z</time>
      </trkpt>
      <trkpt lat="45.11462" lon="6.0357">
        <ele>1201</ele>
        <time>2020-09-05T05:12:28Z</time>
      </trkpt>
      <trkpt lat="45.11462" lon="6.03566">
        <ele>1201.2</ele>
        <time>2020-09-05T05:12:29Z</time>
      </trkpt>
      <trkpt lat="45.11461" lon="6.03562">
        <ele>1201.4</ele>
        <time>2020-09-05T05:12:30Z</time>
      </trkpt>
      <trkpt lat="45.11461" lon="6.03558">
        <ele>1201.6</ele>
        <time>2020-09-05T05:12:31Z</time>
      </trkpt>
      <trkpt lat="45.1146" lon="6.03553">
        <ele>1201.8</ele>
        <time>2020-09-05T05:12:32Z</time>
      </trkpt>
      <trkpt lat="45.1146" lon="6.03549">
        <ele>1202</ele>
        <time>2020-09-05T05:12:33Z</time>
      </trkpt>
      <trkpt lat="45.11459" lon="6.03545">
        <ele>1202</ele>
        <time>2020-09-05T05:12:34Z</time>
      </trkpt>
      <trkpt lat="45.11459" lon="6.03541">
        <ele>1202.4</ele>
        <time>2020-09-05T05:12:35Z</time>
      </trkpt>
      <trkpt lat="45.11458" lon="6.03537">
        <ele>1202.6</ele>
        <time>2020-09-05T05:12:36Z</time>
      </trkpt>
      <trkpt lat="45.11458" lon="6.03533">
        <ele>1202.8</ele>
        <time>2020-09-05T05:12:37Z</time>
      </trkpt>
      <trkpt lat="45.11457" lon="6.03529">
        <ele>1203</ele>
        <time>2020-09-05T05:12:38Z</time>
      </trkpt>
      <trkpt lat="45.11457" lon="6.03525">
        <ele>1203.2</ele>
        <time>2020-09-05T05:12:39Z</time>
      </trkpt>
      <trkpt lat="45.11456" lon="6.03521">
        <ele>1203.6</ele>
        <time>2020-09-05T05:12:40Z</time>
      </trkpt>
      <trkpt lat="45.11455" lon="6.03517">
        <ele>1203.8</ele>
        <time>2020-09-05T05:12:41Z</time>
      </trkpt>
      <trkpt lat="45.11454" lon="6.03513">
        <ele>1204</ele>
        <time>2020-09-05T05:12:42Z</time>
      </trkpt>
      <trkpt lat="45.11452" lon="6.0351">
        <ele>1204.2</ele>
        <time>2020-09-05T05:12:43Z</time>
      </trkpt>
      <trkpt lat="45.1145" lon="6.03506">
        <ele>1204.2</ele>
        <time>2020-09-05T05:12:44Z</time>
      </trkpt>
      <trkpt lat="45.11448" lon="6.03504">
        <ele>1204.4</ele>
        <time>2020-09-05T05:12:45Z</time>
      </trkpt>
      <trkpt lat="45.11445" lon="6.03503">
        <ele>1204.6</ele>
        <time>2020-09-05T05:12:46Z</time>
      </trkpt>
      <trkpt lat="45.11443" lon="6.03504">
        <ele>1204.6</ele>
        <time>2020-09-05T05:12:47Z</time>
      </trkpt>
      <trkpt lat="45.11441" lon="6.03506">
        <ele>1204.8</ele>
        <time>2020-09-05T05:12:48Z</time>
      </trkpt>
      <trkpt lat="45.11439" lon="6.03509">
        <ele>1205</ele>
        <time>2020-09-05T05:12:49Z</time>
      </trkpt>
      <trkpt lat="45.11439" lon="6.03514">
        <ele>1205.2</ele>
        <time>2020-09-05T05:12:50Z</time>
      </trkpt>
      <trkpt lat="45.11439" lon="6.03518">
        <ele>1205.4</ele>
        <time>2020-09-05T05:12:51Z</time>
      </trkpt>
      <trkpt lat="45.11439" lon="6.03522">
        <ele>1205.6</ele>
        <time>2020-09-05T05:12:52Z</time>
      </trkpt>
      <trkpt lat="45.11439" lon="6.03527">
        <ele>1205.8</ele>
        <time>2020-09-05T05:12:53Z</time>
      </trkpt>
      <trkpt lat="45.1144" lon="6.03531">
        <ele>1205.8</ele>
        <time>2020-09-05T05:12:54Z</time>
      </trkpt>
      <trkpt lat="45.1144" lon="6.03536">
        <ele>1206</ele>
        <time>2020-09-05T05:12:55Z</time>
      </trkpt>
      <trkpt lat="45.11441" lon="6.0354">
        <ele>1206</ele>
        <time>2020-09-05T05:12:56Z</time>
      </trkpt>
      <trkpt lat="45.11442" lon="6.03544">
        <ele>1206</ele>
        <time>2020-09-05T05:12:57Z</time>
      </trkpt>
      <trkpt lat="45.11442" lon="6.03549">
        <ele>1206.2</ele>
        <time>2020-09-05T05:12:58Z</time>
      </trkpt>
      <trkpt lat="45.11443" lon="6.03553">
        <ele>1206.4</ele>
        <time>2020-09-05T05:12:59Z</time>
      </trkpt>
      <trkpt lat="45.11443" lon="6.03558">
        <ele>1206.6</ele>
        <time>2020-09-05T05:13:00Z</time>
      </trkpt>
      <trkpt lat="45.11443" lon="6.03562">
        <ele>1206.8</ele>
        <time>2020-09-05T05:13:01Z</time>
      </trkpt>
      <trkpt lat="45.11443" lon="6.03567">
        <ele>1207</ele>
        <time>2020-09-05T05:13:02Z</time>
      </trkpt>
      <trkpt lat="45.11443" lon="6.03571">
        <ele>1207.2</ele>
        <time>2020-09-05T05:13:03Z</time>
      </trkpt>
      <trkpt lat="45.11443" lon="6.03576">
        <ele>1207.6</ele>
        <time>2020-09-05T05:13:04Z</time>
      </trkpt>
      <trkpt lat="45.11443" lon="6.0358">
        <ele>1207.8</ele>
        <time>2020-09-05T05:13:05Z</time>
      </trkpt>
      <trkpt lat="45.11443" lon="6.03585">
        <ele>1208</ele>
        <time>2020-09-05T05:13:06Z</time>
      </trkpt>
      <trkpt lat="45.11443" lon="6.03589">
        <ele>1208.2</ele>
        <time>2020-09-05T05:13:07Z</time>
      </trkpt>
      <trkpt lat="45.11442" lon="6.03594">
        <ele>1208.2</ele>
        <time>2020-09-05T05:13:08Z</time>
      </trkpt>
      <trkpt lat="45.11442" lon="6.03598">
        <ele>1208.6</ele>
        <time>2020-09-05T05:13:09Z</time>
      </trkpt>
      <trkpt lat="45.11442" lon="6.03602">
        <ele>1208.8</ele>
        <time>2020-09-05T05:13:10Z</time>
      </trkpt>
      <trkpt lat="45.11442" lon="6.03606">
        <ele>1209.2</ele>
        <time>2020-09-05T05:13:11Z</time>
      </trkpt>
      <trkpt lat="45.11442" lon="6.0361">
        <ele>1209.4</ele>
        <time>2020-09-05T05:13:12Z</time>
      </trkpt>
      <trkpt lat="45.11442" lon="6.03614">
        <ele>1209.6</ele>
        <time>2020-09-05T05:13:13Z</time>
      </trkpt>
      <trkpt lat="45.11442" lon="6.03618">
        <ele>1209.8</ele>
        <time>2020-09-05T05:13:14Z</time>
      </trkpt>
      <trkpt lat="45.11442" lon="6.03621">
        <ele>1210</ele>
        <time>2020-09-05T05:13:15Z</time>
      </trkpt>
      <trkpt lat="45.11441" lon="6.03625">
        <ele>1210.2</ele>
        <time>2020-09-05T05:13:16Z</time>
      </trkpt>
      <trkpt lat="45.11441" lon="6.03628">
        <ele>1210.4</ele>
        <time>2020-09-05T05:13:17Z</time>
      </trkpt>
      <trkpt lat="45.11441" lon="6.03632">
        <ele>1210.8</ele>
        <time>2020-09-05T05:13:18Z</time>
      </trkpt>
      <trkpt lat="45.11441" lon="6.03635">
        <ele>1211</ele>
        <time>2020-09-05T05:13:19Z</time>
      </trkpt>
      <trkpt lat="45.1144" lon="6.03639">
        <ele>1211.2</ele>
        <time>2020-09-05T05:13:20Z</time>
      </trkpt>
      <trkpt lat="45.1144" lon="6.03643">
        <ele>1211.2</ele>
        <time>2020-09-05T05:13:21Z</time>
      </trkpt>
      <trkpt lat="45.1144" lon="6.03646">
        <ele>1211.4</ele>
        <time>2020-09-05T05:13:22Z</time>
      </trkpt>
      <trkpt lat="45.11439" lon="6.0365">
        <ele>1211.8</ele>
        <time>2020-09-05T05:13:23Z</time>
      </trkpt>
      <trkpt lat="45.11439" lon="6.03653">
        <ele>1212</ele>
        <time>2020-09-05T05:13:24Z</time>
      </trkpt>
      <trkpt lat="45.11438" lon="6.03657">
        <ele>1212.4</ele>
        <time>2020-09-05T05:13:25Z</time>
      </trkpt>
      <trkpt lat="45.11438" lon="6.03661">
        <ele>1212.8</ele>
        <time>2020-09-05T05:13:26Z</time>
      </trkpt>
      <trkpt lat="45.11437" lon="6.03664">
        <ele>1212.8</ele>
        <time>2020-09-05T05:13:27Z</time>
      </trkpt>
      <trkpt lat="45.11436" lon="6.03668">
        <ele>1213</ele>
        <time>2020-09-05T05:13:28Z</time>
      </trkpt>
      <trkpt lat="45.11436" lon="6.03671">
        <ele>1213.4</ele>
        <time>2020-09-05T05:13:29Z</time>
      </trkpt>
      <trkpt lat="45.11435" lon="6.03675">
        <ele>1213.4</ele>
        <time>2020-09-05T05:13:30Z</time>
      </trkpt>
      <trkpt lat="45.11434" lon="6.03682">
        <ele>1213.8</ele>
        <time>2020-09-05T05:13:32Z</time>
      </trkpt>
      <trkpt lat="45.11434" lon="6.03686">
        <ele>1213.8</ele>
        <time>2020-09-05T05:13:33Z</time>
      </trkpt>
      <trkpt lat="45.11433" lon="6.03689">
        <ele>1214.2</ele>
        <time>2020-09-05T05:13:34Z</time>
      </trkpt>
      <trkpt lat="45.11432" lon="6.03692">
        <ele>1214.4</ele>
        <time>2020-09-05T05:13:35Z</time>
      </trkpt>
      <trkpt lat="45.11432" lon="6.03696">
        <ele>1214.6</ele>
        <time>2020-09-05T05:13:36Z</time>
      </trkpt>
      <trkpt lat="45.11431" lon="6.03699">
        <ele>1214.6</ele>
        <time>2020-09-05T05:13:37Z</time>
      </trkpt>
      <trkpt lat="45.11431" lon="6.03702">
        <ele>1214.8</ele>
        <time>2020-09-05T05:13:38Z</time>
      </trkpt>
      <trkpt lat="45.1143" lon="6.03705">
        <ele>1215</ele>
        <time>2020-09-05T05:13:39Z</time>
      </trkpt>
      <trkpt lat="45.1143" lon="6.03709">
        <ele>1215.2</ele>
        <time>2020-09-05T05:13:40Z</time>
      </trkpt>
      <trkpt lat="45.11429" lon="6.03712">
        <ele>1215.6</ele>
        <time>2020-09-05T05:13:41Z</time>
      </trkpt>
      <trkpt lat="45.11428" lon="6.03716">
        <ele>1215.8</ele>
        <time>2020-09-05T05:13:42Z</time>
      </trkpt>
      <trkpt lat="45.11428" lon="6.03719">
        <ele>1215.8</ele>
        <time>2020-09-05T05:13:43Z</time>
      </trkpt>
      <trkpt lat="45.11427" lon="6.03723">
        <ele>1216</ele>
        <time>2020-09-05T05:13:44Z</time>
      </trkpt>
      <trkpt lat="45.11427" lon="6.03727">
        <ele>1216.4</ele>
        <time>2020-09-05T05:13:45Z</time>
      </trkpt>
      <trkpt lat="45.11426" lon="6.0373">
        <ele>1216.6</ele>
        <time>2020-09-05T05:13:46Z</time>
      </trkpt>
      <trkpt lat="45.11425" lon="6.03734">
        <ele>1216.8</ele>
        <time>2020-09-05T05:13:47Z</time>
      </trkpt>
      <trkpt lat="45.11423" lon="6.03747">
        <ele>1218</ele>
        <time>2020-09-05T05:13:51Z</time>
      </trkpt>
      <trkpt lat="45.11419" lon="6.03761">
        <ele>1218.6</ele>
        <time>2020-09-05T05:13:55Z</time>
      </trkpt>
      <trkpt lat="45.11415" lon="6.03774">
        <ele>1219.6</ele>
        <time>2020-09-05T05:13:59Z</time>
      </trkpt>
      <trkpt lat="45.11411" lon="6.03787">
        <ele>1220.2</ele>
        <time>2020-09-05T05:14:03Z</time>
      </trkpt>
      <trkpt lat="45.11407" lon="6.03802">
        <ele>1221.2</ele>
        <time>2020-09-05T05:14:07Z</time>
      </trkpt>
      <trkpt lat="45.11403" lon="6.03817">
        <ele>1222.4</ele>
        <time>2020-09-05T05:14:11Z</time>
      </trkpt>
      <trkpt lat="45.11399" lon="6.03831">
        <ele>1223.2</ele>
        <time>2020-09-05T05:14:15Z</time>
      </trkpt>
      <trkpt lat="45.11395" lon="6.03845">
        <ele>1223.8</ele>
        <time>2020-09-05T05:14:19Z</time>
      </trkpt>
      <trkpt lat="45.11389" lon="6.03859">
        <ele>1224.8</ele>
        <time>2020-09-05T05:14:23Z</time>
      </trkpt>
      <trkpt lat="45.11388" lon="6.03862">
        <ele>1225</ele>
        <time>2020-09-05T05:14:24Z</time>
      </trkpt>
      <trkpt lat="45.11383" lon="6.03871">
        <ele>1225.8</ele>
        <time>2020-09-05T05:14:27Z</time>
      </trkpt>
      <trkpt lat="45.11382" lon="6.03875">
        <ele>1226</ele>
        <time>2020-09-05T05:14:28Z</time>
      </trkpt>
      <trkpt lat="45.1138" lon="6.03878">
        <ele>1226.2</ele>
        <time>2020-09-05T05:14:29Z</time>
      </trkpt>
      <trkpt lat="45.11378" lon="6.03882">
        <ele>1226.4</ele>
        <time>2020-09-05T05:14:30Z</time>
      </trkpt>
      <trkpt lat="45.11377" lon="6.03885">
        <ele>1226.6</ele>
        <time>2020-09-05T05:14:31Z</time>
      </trkpt>
      <trkpt lat="45.11375" lon="6.03889">
        <ele>1227</ele>
        <time>2020-09-05T05:14:32Z</time>
      </trkpt>
      <trkpt lat="45.11374" lon="6.03892">
        <ele>1227.2</ele>
        <time>2020-09-05T05:14:33Z</time>
      </trkpt>
      <trkpt lat="45.11372" lon="6.03895">
        <ele>1227.2</ele>
        <time>2020-09-05T05:14:34Z</time>
      </trkpt>
      <trkpt lat="45.11371" lon="6.03899">
        <ele>1227.6</ele>
        <time>2020-09-05T05:14:35Z</time>
      </trkpt>
      <trkpt lat="45.11369" lon="6.03902">
        <ele>1227.8</ele>
        <time>2020-09-05T05:14:36Z</time>
      </trkpt>
      <trkpt lat="45.11368" lon="6.03905">
        <ele>1228</ele>
        <time>2020-09-05T05:14:37Z</time>
      </trkpt>
      <trkpt lat="45.11366" lon="6.03909">
        <ele>1228.2</ele>
        <time>2020-09-05T05:14:38Z</time>
      </trkpt>
      <trkpt lat="45.11365" lon="6.03912">
        <ele>1228.4</ele>
        <time>2020-09-05T05:14:39Z</time>
      </trkpt>
      <trkpt lat="45.11364" lon="6.03915">
        <ele>1228.6</ele>
        <time>2020-09-05T05:14:40Z</time>
      </trkpt>
      <trkpt lat="45.11362" lon="6.03919">
        <ele>1228.8</ele>
        <time>2020-09-05T05:14:41Z</time>
      </trkpt>
      <trkpt lat="45.1136" lon="6.03926">
        <ele>1229.4</ele>
        <time>2020-09-05T05:14:43Z</time>
      </trkpt>
      <trkpt lat="45.11358" lon="6.0393">
        <ele>1229.4</ele>
        <time>2020-09-05T05:14:44Z</time>
      </trkpt>
      <trkpt lat="45.11357" lon="6.03933">
        <ele>1229.8</ele>
        <time>2020-09-05T05:14:45Z</time>
      </trkpt>
      <trkpt lat="45.11356" lon="6.03937">
        <ele>1230</ele>
        <time>2020-09-05T05:14:46Z</time>
      </trkpt>
      <trkpt lat="45.11355" lon="6.03941">
        <ele>1230.2</ele>
        <time>2020-09-05T05:14:47Z</time>
      </trkpt>
      <trkpt lat="45.11354" lon="6.03944">
        <ele>1230.4</ele>
        <time>2020-09-05T05:14:48Z</time>
      </trkpt>
      <trkpt lat="45.11352" lon="6.03947">
        <ele>1230.6</ele>
        <time>2020-09-05T05:14:49Z</time>
      </trkpt>
      <trkpt lat="45.11351" lon="6.03951">
        <ele>1231</ele>
        <time>2020-09-05T05:14:50Z</time>
      </trkpt>
      <trkpt lat="45.1135" lon="6.03954">
        <ele>1230.8</ele>
        <time>2020-09-05T05:14:51Z</time>
      </trkpt>
      <trkpt lat="45.11348" lon="6.03958">
        <ele>1231</ele>
        <time>2020-09-05T05:14:52Z</time>
      </trkpt>
      <trkpt lat="45.11347" lon="6.03961">
        <ele>1231.4</ele>
        <time>2020-09-05T05:14:53Z</time>
      </trkpt>
      <trkpt lat="45.11346" lon="6.03965">
        <ele>1231.4</ele>
        <time>2020-09-05T05:14:54Z</time>
      </trkpt>
      <trkpt lat="45.11343" lon="6.03971">
        <ele>1231.8</ele>
        <time>2020-09-05T05:14:56Z</time>
      </trkpt>
      <trkpt lat="45.11342" lon="6.03975">
        <ele>1232</ele>
        <time>2020-09-05T05:14:57Z</time>
      </trkpt>
      <trkpt lat="45.11341" lon="6.03979">
        <ele>1232</ele>
        <time>2020-09-05T05:14:58Z</time>
      </trkpt>
      <trkpt lat="45.1134" lon="6.03983">
        <ele>1232.2</ele>
        <time>2020-09-05T05:14:59Z</time>
      </trkpt>
      <trkpt lat="45.11338" lon="6.03986">
        <ele>1232.4</ele>
        <time>2020-09-05T05:15:00Z</time>
      </trkpt>
      <trkpt lat="45.11337" lon="6.0399">
        <ele>1232.8</ele>
        <time>2020-09-05T05:15:01Z</time>
      </trkpt>
      <trkpt lat="45.11336" lon="6.03994">
        <ele>1233.2</ele>
        <time>2020-09-05T05:15:02Z</time>
      </trkpt>
      <trkpt lat="45.11334" lon="6.03997">
        <ele>1233.4</ele>
        <time>2020-09-05T05:15:03Z</time>
      </trkpt>
      <trkpt lat="45.11333" lon="6.04001">
        <ele>1233.6</ele>
        <time>2020-09-05T05:15:04Z</time>
      </trkpt>
      <trkpt lat="45.11331" lon="6.04005">
        <ele>1233.8</ele>
        <time>2020-09-05T05:15:05Z</time>
      </trkpt>
      <trkpt lat="45.1133" lon="6.04008">
        <ele>1234</ele>
        <time>2020-09-05T05:15:06Z</time>
      </trkpt>
      <trkpt lat="45.11329" lon="6.04012">
        <ele>1234</ele>
        <time>2020-09-05T05:15:07Z</time>
      </trkpt>
      <trkpt lat="45.11327" lon="6.04016">
        <ele>1234</ele>
        <time>2020-09-05T05:15:08Z</time>
      </trkpt>
      <trkpt lat="45.11326" lon="6.04019">
        <ele>1234.4</ele>
        <time>2020-09-05T05:15:09Z</time>
      </trkpt>
      <trkpt lat="45.11325" lon="6.04023">
        <ele>1234.6</ele>
        <time>2020-09-05T05:15:10Z</time>
      </trkpt>
      <trkpt lat="45.11324" lon="6.04026">
        <ele>1234.8</ele>
        <time>2020-09-05T05:15:11Z</time>
      </trkpt>
      <trkpt lat="45.11323" lon="6.04029">
        <ele>1235</ele>
        <time>2020-09-05T05:15:12Z</time>
      </trkpt>
      <trkpt lat="45.11321" lon="6.04033">
        <ele>1235.2</ele>
        <time>2020-09-05T05:15:13Z</time>
      </trkpt>
      <trkpt lat="45.1132" lon="6.04036">
        <ele>1235.4</ele>
        <time>2020-09-05T05:15:14Z</time>
      </trkpt>
      <trkpt lat="45.1132" lon="6.0404">
        <ele>1235.6</ele>
        <time>2020-09-05T05:15:15Z</time>
      </trkpt>
      <trkpt lat="45.11318" lon="6.04044">
        <ele>1235.8</ele>
        <time>2020-09-05T05:15:16Z</time>
      </trkpt>
      <trkpt lat="45.11317" lon="6.04048">
        <ele>1235.8</ele>
        <time>2020-09-05T05:15:17Z</time>
      </trkpt>
      <trkpt lat="45.11316" lon="6.04052">
        <ele>1236.2</ele>
        <time>2020-09-05T05:15:18Z</time>
      </trkpt>
      <trkpt lat="45.11315" lon="6.04056">
        <ele>1236.4</ele>
        <time>2020-09-05T05:15:19Z</time>
      </trkpt>
      <trkpt lat="45.11314" lon="6.04059">
        <ele>1236.8</ele>
        <time>2020-09-05T05:15:20Z</time>
      </trkpt>
      <trkpt lat="45.11313" lon="6.04063">
        <ele>1236.8</ele>
        <time>2020-09-05T05:15:21Z</time>
      </trkpt>
      <trkpt lat="45.11312" lon="6.04067">
        <ele>1237</ele>
        <time>2020-09-05T05:15:22Z</time>
      </trkpt>
      <trkpt lat="45.11311" lon="6.04071">
        <ele>1237.4</ele>
        <time>2020-09-05T05:15:23Z</time>
      </trkpt>
      <trkpt lat="45.1131" lon="6.04074">
        <ele>1237.6</ele>
        <time>2020-09-05T05:15:24Z</time>
      </trkpt>
      <trkpt lat="45.11309" lon="6.04078">
        <ele>1237.6</ele>
        <time>2020-09-05T05:15:25Z</time>
      </trkpt>
      <trkpt lat="45.11308" lon="6.04082">
        <ele>1237.8</ele>
        <time>2020-09-05T05:15:26Z</time>
      </trkpt>
      <trkpt lat="45.11307" lon="6.04086">
        <ele>1238</ele>
        <time>2020-09-05T05:15:27Z</time>
      </trkpt>
      <trkpt lat="45.11306" lon="6.04089">
        <ele>1238.2</ele>
        <time>2020-09-05T05:15:28Z</time>
      </trkpt>
      <trkpt lat="45.11305" lon="6.04093">
        <ele>1238.6</ele>
        <time>2020-09-05T05:15:29Z</time>
      </trkpt>
      <trkpt lat="45.11304" lon="6.04096">
        <ele>1238.6</ele>
        <time>2020-09-05T05:15:30Z</time>
      </trkpt>
      <trkpt lat="45.11303" lon="6.041">
        <ele>1238.8</ele>
        <time>2020-09-05T05:15:31Z</time>
      </trkpt>
      <trkpt lat="45.11302" lon="6.04104">
        <ele>1239</ele>
        <time>2020-09-05T05:15:32Z</time>
      </trkpt>
      <trkpt lat="45.11302" lon="6.04108">
        <ele>1239.2</ele>
        <time>2020-09-05T05:15:33Z</time>
      </trkpt>
      <trkpt lat="45.11301" lon="6.04111">
        <ele>1239.4</ele>
        <time>2020-09-05T05:15:34Z</time>
      </trkpt>
      <trkpt lat="45.113" lon="6.04114">
        <ele>1239.6</ele>
        <time>2020-09-05T05:15:35Z</time>
      </trkpt>
      <trkpt lat="45.11299" lon="6.04117">
        <ele>1239.6</ele>
        <time>2020-09-05T05:15:36Z</time>
      </trkpt>
      <trkpt lat="45.11298" lon="6.0412">
        <ele>1240</ele>
        <time>2020-09-05T05:15:37Z</time>
      </trkpt>
      <trkpt lat="45.11297" lon="6.04123">
        <ele>1240.2</ele>
        <time>2020-09-05T05:15:38Z</time>
      </trkpt>
      <trkpt lat="45.11296" lon="6.04126">
        <ele>1240.2</ele>
        <time>2020-09-05T05:15:39Z</time>
      </trkpt>
      <trkpt lat="45.11295" lon="6.0413">
        <ele>1240.4</ele>
        <time>2020-09-05T05:15:40Z</time>
      </trkpt>
      <trkpt lat="45.11294" lon="6.04133">
        <ele>1240.6</ele>
        <time>2020-09-05T05:15:41Z</time>
      </trkpt>
      <trkpt lat="45.11293" lon="6.04136">
        <ele>1240.8</ele>
        <time>2020-09-05T05:15:42Z</time>
      </trkpt>
      <trkpt lat="45.11291" lon="6.04139">
        <ele>1241.2</ele>
        <time>2020-09-05T05:15:43Z</time>
      </trkpt>
      <trkpt lat="45.11291" lon="6.04143">
        <ele>1241.4</ele>
        <time>2020-09-05T05:15:44Z</time>
      </trkpt>
      <trkpt lat="45.1129" lon="6.04147">
        <ele>1241.8</ele>
        <time>2020-09-05T05:15:45Z</time>
      </trkpt>
      <trkpt lat="45.11289" lon="6.0415">
        <ele>1241.6</ele>
        <time>2020-09-05T05:15:46Z</time>
      </trkpt>
      <trkpt lat="45.11288" lon="6.04154">
        <ele>1242</ele>
        <time>2020-09-05T05:15:47Z</time>
      </trkpt>
      <trkpt lat="45.11286" lon="6.04157">
        <ele>1242.2</ele>
        <time>2020-09-05T05:15:48Z</time>
      </trkpt>
      <trkpt lat="45.11286" lon="6.04161">
        <ele>1242.4</ele>
        <time>2020-09-05T05:15:49Z</time>
      </trkpt>
      <trkpt lat="45.11285" lon="6.04164">
        <ele>1242.6</ele>
        <time>2020-09-05T05:15:50Z</time>
      </trkpt>
      <trkpt lat="45.11284" lon="6.04168">
        <ele>1242.8</ele>
        <time>2020-09-05T05:15:51Z</time>
      </trkpt>
      <trkpt lat="45.11283" lon="6.04172">
        <ele>1242.8</ele>
        <time>2020-09-05T05:15:52Z</time>
      </trkpt>
      <trkpt lat="45.11282" lon="6.04176">
        <ele>1243.2</ele>
        <time>2020-09-05T05:15:53Z</time>
      </trkpt>
      <trkpt lat="45.11281" lon="6.0418">
        <ele>1243.4</ele>
        <time>2020-09-05T05:15:54Z</time>
      </trkpt>
      <trkpt lat="45.11279" lon="6.04184">
        <ele>1243.6</ele>
        <time>2020-09-05T05:15:55Z</time>
      </trkpt>
      <trkpt lat="45.11278" lon="6.04188">
        <ele>1244</ele>
        <time>2020-09-05T05:15:56Z</time>
      </trkpt>
      <trkpt lat="45.11277" lon="6.04192">
        <ele>1244.2</ele>
        <time>2020-09-05T05:15:57Z</time>
      </trkpt>
      <trkpt lat="45.11276" lon="6.04195">
        <ele>1244.4</ele>
        <time>2020-09-05T05:15:58Z</time>
      </trkpt>
      <trkpt lat="45.11275" lon="6.042">
        <ele>1244.6</ele>
        <time>2020-09-05T05:15:59Z</time>
      </trkpt>
      <trkpt lat="45.11274" lon="6.04203">
        <ele>1244.8</ele>
        <time>2020-09-05T05:16:00Z</time>
      </trkpt>
      <trkpt lat="45.11274" lon="6.04207">
        <ele>1244.8</ele>
        <time>2020-09-05T05:16:01Z</time>
      </trkpt>
      <trkpt lat="45.11273" lon="6.04211">
        <ele>1244.8</ele>
        <time>2020-09-05T05:16:02Z</time>
      </trkpt>
      <trkpt lat="45.11272" lon="6.04214">
        <ele>1245.2</ele>
        <time>2020-09-05T05:16:03Z</time>
      </trkpt>
      <trkpt lat="45.1127" lon="6.04221">
        <ele>1245.6</ele>
        <time>2020-09-05T05:16:05Z</time>
      </trkpt>
      <trkpt lat="45.11269" lon="6.04224">
        <ele>1245.8</ele>
        <time>2020-09-05T05:16:06Z</time>
      </trkpt>
      <trkpt lat="45.11268" lon="6.04228">
        <ele>1246</ele>
        <time>2020-09-05T05:16:07Z</time>
      </trkpt>
      <trkpt lat="45.11267" lon="6.04231">
        <ele>1246.6</ele>
        <time>2020-09-05T05:16:08Z</time>
      </trkpt>
      <trkpt lat="45.11266" lon="6.04234">
        <ele>1246.8</ele>
        <time>2020-09-05T05:16:09Z</time>
      </trkpt>
      <trkpt lat="45.11265" lon="6.04238">
        <ele>1246.6</ele>
        <time>2020-09-05T05:16:10Z</time>
      </trkpt>
      <trkpt lat="45.11264" lon="6.04241">
        <ele>1246.8</ele>
        <time>2020-09-05T05:16:11Z</time>
      </trkpt>
      <trkpt lat="45.11263" lon="6.04245">
        <ele>1247.2</ele>
        <time>2020-09-05T05:16:12Z</time>
      </trkpt>
      <trkpt lat="45.11262" lon="6.04248">
        <ele>1247.4</ele>
        <time>2020-09-05T05:16:13Z</time>
      </trkpt>
      <trkpt lat="45.11261" lon="6.04252">
        <ele>1247.6</ele>
        <time>2020-09-05T05:16:14Z</time>
      </trkpt>
      <trkpt lat="45.1126" lon="6.04255">
        <ele>1247.8</ele>
        <time>2020-09-05T05:16:15Z</time>
      </trkpt>
      <trkpt lat="45.11259" lon="6.04258">
        <ele>1248.2</ele>
        <time>2020-09-05T05:16:16Z</time>
      </trkpt>
      <trkpt lat="45.11258" lon="6.04262">
        <ele>1248.4</ele>
        <time>2020-09-05T05:16:17Z</time>
      </trkpt>
      <trkpt lat="45.11257" lon="6.04265">
        <ele>1248.6</ele>
        <time>2020-09-05T05:16:18Z</time>
      </trkpt>
      <trkpt lat="45.11256" lon="6.04268">
        <ele>1248.8</ele>
        <time>2020-09-05T05:16:19Z</time>
      </trkpt>
      <trkpt lat="45.11255" lon="6.04272">
        <ele>1249.2</ele>
        <time>2020-09-05T05:16:20Z</time>
      </trkpt>
      <trkpt lat="45.11254" lon="6.04275">
        <ele>1249.4</ele>
        <time>2020-09-05T05:16:21Z</time>
      </trkpt>
      <trkpt lat="45.11253" lon="6.04278">
        <ele>1249.6</ele>
        <time>2020-09-05T05:16:22Z</time>
      </trkpt>
      <trkpt lat="45.11252" lon="6.04282">
        <ele>1249.8</ele>
        <time>2020-09-05T05:16:23Z</time>
      </trkpt>
      <trkpt lat="45.11249" lon="6.04293">
        <ele>1250.6</ele>
        <time>2020-09-05T05:16:26Z</time>
      </trkpt>
      <trkpt lat="45.11248" lon="6.04296">
        <ele>1250.8</ele>
        <time>2020-09-05T05:16:27Z</time>
      </trkpt>
      <trkpt lat="45.11247" lon="6.043">
        <ele>1251</ele>
        <time>2020-09-05T05:16:28Z</time>
      </trkpt>
      <trkpt lat="45.11245" lon="6.04303">
        <ele>1251.2</ele>
        <time>2020-09-05T05:16:29Z</time>
      </trkpt>
      <trkpt lat="45.11244" lon="6.04307">
        <ele>1251.4</ele>
        <time>2020-09-05T05:16:30Z</time>
      </trkpt>
      <trkpt lat="45.11241" lon="6.0432">
        <ele>1252.2</ele>
        <time>2020-09-05T05:16:34Z</time>
      </trkpt>
      <trkpt lat="45.11237" lon="6.04332">
        <ele>1253</ele>
        <time>2020-09-05T05:16:38Z</time>
      </trkpt>
      <trkpt lat="45.11236" lon="6.04335">
        <ele>1253.2</ele>
        <time>2020-09-05T05:16:39Z</time>
      </trkpt>
      <trkpt lat="45.11235" lon="6.04338">
        <ele>1253.4</ele>
        <time>2020-09-05T05:16:40Z</time>
      </trkpt>
      <trkpt lat="45.11234" lon="6.04342">
        <ele>1253.8</ele>
        <time>2020-09-05T05:16:41Z</time>
      </trkpt>
      <trkpt lat="45.11233" lon="6.04345">
        <ele>1254</ele>
        <time>2020-09-05T05:16:42Z</time>
      </trkpt>
      <trkpt lat="45.11232" lon="6.04348">
        <ele>1254.2</ele>
        <time>2020-09-05T05:16:43Z</time>
      </trkpt>
      <trkpt lat="45.11231" lon="6.04351">
        <ele>1254.2</ele>
        <time>2020-09-05T05:16:44Z</time>
      </trkpt>
      <trkpt lat="45.11226" lon="6.04363">
        <ele>1255.4</ele>
        <time>2020-09-05T05:16:48Z</time>
      </trkpt>
      <trkpt lat="45.11219" lon="6.04375">
        <ele>1256.8</ele>
        <time>2020-09-05T05:16:53Z</time>
      </trkpt>
      <trkpt lat="45.1121" lon="6.04373">
        <ele>1257.8</ele>
        <time>2020-09-05T05:16:57Z</time>
      </trkpt>
      <trkpt lat="45.11208" lon="6.04372">
        <ele>1258.2</ele>
        <time>2020-09-05T05:16:58Z</time>
      </trkpt>
      <trkpt lat="45.11206" lon="6.04369">
        <ele>1258.4</ele>
        <time>2020-09-05T05:16:59Z</time>
      </trkpt>
      <trkpt lat="45.11205" lon="6.04366">
        <ele>1258.4</ele>
        <time>2020-09-05T05:17:00Z</time>
      </trkpt>
      <trkpt lat="45.11205" lon="6.04363">
        <ele>1258.6</ele>
        <time>2020-09-05T05:17:01Z</time>
      </trkpt>
      <trkpt lat="45.11205" lon="6.04359">
        <ele>1258.6</ele>
        <time>2020-09-05T05:17:02Z</time>
      </trkpt>
      <trkpt lat="45.11207" lon="6.04347">
        <ele>1259.2</ele>
        <time>2020-09-05T05:17:05Z</time>
      </trkpt>
      <trkpt lat="45.11209" lon="6.04343">
        <ele>1259.2</ele>
        <time>2020-09-05T05:17:06Z</time>
      </trkpt>
      <trkpt lat="45.1121" lon="6.04339">
        <ele>1259.4</ele>
        <time>2020-09-05T05:17:07Z</time>
      </trkpt>
      <trkpt lat="45.11211" lon="6.04335">
        <ele>1259.4</ele>
        <time>2020-09-05T05:17:08Z</time>
      </trkpt>
      <trkpt lat="45.11212" lon="6.04331">
        <ele>1259.8</ele>
        <time>2020-09-05T05:17:09Z</time>
      </trkpt>
      <trkpt lat="45.11214" lon="6.04327">
        <ele>1259.8</ele>
        <time>2020-09-05T05:17:10Z</time>
      </trkpt>
      <trkpt lat="45.11216" lon="6.04319">
        <ele>1260.2</ele>
        <time>2020-09-05T05:17:12Z</time>
      </trkpt>
      <trkpt lat="45.11217" lon="6.04315">
        <ele>1260.6</ele>
        <time>2020-09-05T05:17:13Z</time>
      </trkpt>
      <trkpt lat="45.11219" lon="6.04312">
        <ele>1260.8</ele>
        <time>2020-09-05T05:17:14Z</time>
      </trkpt>
      <trkpt lat="45.11221" lon="6.04308">
        <ele>1261</ele>
        <time>2020-09-05T05:17:15Z</time>
      </trkpt>
      <trkpt lat="45.11222" lon="6.04304">
        <ele>1261.4</ele>
        <time>2020-09-05T05:17:16Z</time>
      </trkpt>
      <trkpt lat="45.11223" lon="6.043">
        <ele>1261.4</ele>
        <time>2020-09-05T05:17:17Z</time>
      </trkpt>
      <trkpt lat="45.11225" lon="6.04296">
        <ele>1261.6</ele>
        <time>2020-09-05T05:17:18Z</time>
      </trkpt>
      <trkpt lat="45.11226" lon="6.04292">
        <ele>1261.6</ele>
        <time>2020-09-05T05:17:19Z</time>
      </trkpt>
      <trkpt lat="45.11227" lon="6.04288">
        <ele>1261.8</ele>
        <time>2020-09-05T05:17:20Z</time>
      </trkpt>
      <trkpt lat="45.11228" lon="6.04284">
        <ele>1262.2</ele>
        <time>2020-09-05T05:17:21Z</time>
      </trkpt>
      <trkpt lat="45.11229" lon="6.04281">
        <ele>1262.4</ele>
        <time>2020-09-05T05:17:22Z</time>
      </trkpt>
      <trkpt lat="45.1123" lon="6.04277">
        <ele>1262.6</ele>
        <time>2020-09-05T05:17:23Z</time>
      </trkpt>
      <trkpt lat="45.11231" lon="6.04273">
        <ele>1262.8</ele>
        <time>2020-09-05T05:17:24Z</time>
      </trkpt>
      <trkpt lat="45.11231" lon="6.0427">
        <ele>1263</ele>
        <time>2020-09-05T05:17:25Z</time>
      </trkpt>
      <trkpt lat="45.11232" lon="6.04266">
        <ele>1263</ele>
        <time>2020-09-05T05:17:26Z</time>
      </trkpt>
      <trkpt lat="45.11233" lon="6.04262">
        <ele>1263.2</ele>
        <time>2020-09-05T05:17:27Z</time>
      </trkpt>
      <trkpt lat="45.11233" lon="6.04258">
        <ele>1263.4</ele>
        <time>2020-09-05T05:17:28Z</time>
      </trkpt>
      <trkpt lat="45.11234" lon="6.04255">
        <ele>1263.6</ele>
        <time>2020-09-05T05:17:29Z</time>
      </trkpt>
      <trkpt lat="45.11235" lon="6.04251">
        <ele>1263.8</ele>
        <time>2020-09-05T05:17:30Z</time>
      </trkpt>
      <trkpt lat="45.11235" lon="6.04247">
        <ele>1264</ele>
        <time>2020-09-05T05:17:31Z</time>
      </trkpt>
      <trkpt lat="45.11236" lon="6.04243">
        <ele>1264</ele>
        <time>2020-09-05T05:17:32Z</time>
      </trkpt>
      <trkpt lat="45.11236" lon="6.04239">
        <ele>1264.4</ele>
        <time>2020-09-05T05:17:33Z</time>
      </trkpt>
      <trkpt lat="45.11237" lon="6.04235">
        <ele>1264.4</ele>
        <time>2020-09-05T05:17:34Z</time>
      </trkpt>
      <trkpt lat="45.11238" lon="6.04231">
        <ele>1264.6</ele>
        <time>2020-09-05T05:17:35Z</time>
      </trkpt>
      <trkpt lat="45.11238" lon="6.04227">
        <ele>1264.8</ele>
        <time>2020-09-05T05:17:36Z</time>
      </trkpt>
      <trkpt lat="45.11239" lon="6.04223">
        <ele>1265</ele>
        <time>2020-09-05T05:17:37Z</time>
      </trkpt>
      <trkpt lat="45.11239" lon="6.04219">
        <ele>1265.2</ele>
        <time>2020-09-05T05:17:38Z</time>
      </trkpt>
      <trkpt lat="45.1124" lon="6.04215">
        <ele>1265.6</ele>
        <time>2020-09-05T05:17:39Z</time>
      </trkpt>
      <trkpt lat="45.11241" lon="6.04212">
        <ele>1266</ele>
        <time>2020-09-05T05:17:40Z</time>
      </trkpt>
      <trkpt lat="45.11241" lon="6.04208">
        <ele>1266.2</ele>
        <time>2020-09-05T05:17:41Z</time>
      </trkpt>
      <trkpt lat="45.11242" lon="6.04204">
        <ele>1266.4</ele>
        <time>2020-09-05T05:17:42Z</time>
      </trkpt>
      <trkpt lat="45.11242" lon="6.042">
        <ele>1266.8</ele>
        <time>2020-09-05T05:17:43Z</time>
      </trkpt>
      <trkpt lat="45.11243" lon="6.04196">
        <ele>1266.8</ele>
        <time>2020-09-05T05:17:44Z</time>
      </trkpt>
      <trkpt lat="45.11244" lon="6.04193">
        <ele>1266.8</ele>
        <time>2020-09-05T05:17:45Z</time>
      </trkpt>
      <trkpt lat="45.11244" lon="6.04188">
        <ele>1267.2</ele>
        <time>2020-09-05T05:17:46Z</time>
      </trkpt>
      <trkpt lat="45.11247" lon="6.04175">
        <ele>1267.8</ele>
        <time>2020-09-05T05:17:50Z</time>
      </trkpt>
      <trkpt lat="45.11248" lon="6.04168">
        <ele>1268.2</ele>
        <time>2020-09-05T05:17:52Z</time>
      </trkpt>
      <trkpt lat="45.11248" lon="6.04165">
        <ele>1268.4</ele>
        <time>2020-09-05T05:17:53Z</time>
      </trkpt>
      <trkpt lat="45.11248" lon="6.04161">
        <ele>1268.6</ele>
        <time>2020-09-05T05:17:54Z</time>
      </trkpt>
      <trkpt lat="45.11249" lon="6.04157">
        <ele>1269</ele>
        <time>2020-09-05T05:17:55Z</time>
      </trkpt>
      <trkpt lat="45.11249" lon="6.0415">
        <ele>1269.8</ele>
        <time>2020-09-05T05:17:57Z</time>
      </trkpt>
      <trkpt lat="45.1125" lon="6.04146">
        <ele>1270</ele>
        <time>2020-09-05T05:17:58Z</time>
      </trkpt>
      <trkpt lat="45.1125" lon="6.04142">
        <ele>1270</ele>
        <time>2020-09-05T05:17:59Z</time>
      </trkpt>
      <trkpt lat="45.11251" lon="6.04138">
        <ele>1270.2</ele>
        <time>2020-09-05T05:18:00Z</time>
      </trkpt>
      <trkpt lat="45.11251" lon="6.04131">
        <ele>1270.6</ele>
        <time>2020-09-05T05:18:02Z</time>
      </trkpt>
      <trkpt lat="45.11252" lon="6.04128">
        <ele>1270.8</ele>
        <time>2020-09-05T05:18:03Z</time>
      </trkpt>
      <trkpt lat="45.11253" lon="6.04124">
        <ele>1271</ele>
        <time>2020-09-05T05:18:04Z</time>
      </trkpt>
      <trkpt lat="45.11254" lon="6.04117">
        <ele>1271.6</ele>
        <time>2020-09-05T05:18:06Z</time>
      </trkpt>
      <trkpt lat="45.11255" lon="6.04114">
        <ele>1271.8</ele>
        <time>2020-09-05T05:18:07Z</time>
      </trkpt>
      <trkpt lat="45.11255" lon="6.04111">
        <ele>1272</ele>
        <time>2020-09-05T05:18:08Z</time>
      </trkpt>
      <trkpt lat="45.11257" lon="6.04101">
        <ele>1272.6</ele>
        <time>2020-09-05T05:18:11Z</time>
      </trkpt>
      <trkpt lat="45.11257" lon="6.04098">
        <ele>1272.8</ele>
        <time>2020-09-05T05:18:12Z</time>
      </trkpt>
      <trkpt lat="45.11257" lon="6.04095">
        <ele>1273.2</ele>
        <time>2020-09-05T05:18:13Z</time>
      </trkpt>
      <trkpt lat="45.11258" lon="6.04092">
        <ele>1273.4</ele>
        <time>2020-09-05T05:18:14Z</time>
      </trkpt>
      <trkpt lat="45.11258" lon="6.04087">
        <ele>1273.8</ele>
        <time>2020-09-05T05:18:16Z</time>
      </trkpt>
      <trkpt lat="45.11258" lon="6.04083">
        <ele>1273.8</ele>
        <time>2020-09-05T05:18:17Z</time>
      </trkpt>
      <trkpt lat="45.11258" lon="6.04081">
        <ele>1274</ele>
        <time>2020-09-05T05:18:18Z</time>
      </trkpt>
      <trkpt lat="45.11259" lon="6.04068">
        <ele>1274.6</ele>
        <time>2020-09-05T05:18:22Z</time>
      </trkpt>
      <trkpt lat="45.1126" lon="6.04065">
        <ele>1274.8</ele>
        <time>2020-09-05T05:18:23Z</time>
      </trkpt>
      <trkpt lat="45.1126" lon="6.04062">
        <ele>1275</ele>
        <time>2020-09-05T05:18:24Z</time>
      </trkpt>
      <trkpt lat="45.11261" lon="6.04059">
        <ele>1275.2</ele>
        <time>2020-09-05T05:18:25Z</time>
      </trkpt>
      <trkpt lat="45.11261" lon="6.04055">
        <ele>1275.4</ele>
        <time>2020-09-05T05:18:26Z</time>
      </trkpt>
      <trkpt lat="45.11261" lon="6.04052">
        <ele>1275.8</ele>
        <time>2020-09-05T05:18:27Z</time>
      </trkpt>
      <trkpt lat="45.11262" lon="6.04049">
        <ele>1276</ele>
        <time>2020-09-05T05:18:28Z</time>
      </trkpt>
      <trkpt lat="45.11262" lon="6.04046">
        <ele>1276.2</ele>
        <time>2020-09-05T05:18:29Z</time>
      </trkpt>
      <trkpt lat="45.11262" lon="6.04042">
        <ele>1276.4</ele>
        <time>2020-09-05T05:18:30Z</time>
      </trkpt>
      <trkpt lat="45.11263" lon="6.04039">
        <ele>1276.6</ele>
        <time>2020-09-05T05:18:31Z</time>
      </trkpt>
      <trkpt lat="45.11265" lon="6.04025">
        <ele>1277.2</ele>
        <time>2020-09-05T05:18:35Z</time>
      </trkpt>
      <trkpt lat="45.11269" lon="6.04011">
        <ele>1278</ele>
        <time>2020-09-05T05:18:39Z</time>
      </trkpt>
      <trkpt lat="45.11271" lon="6.03996">
        <ele>1278.8</ele>
        <time>2020-09-05T05:18:43Z</time>
      </trkpt>
      <trkpt lat="45.11271" lon="6.03988">
        <ele>1279.2</ele>
        <time>2020-09-05T05:18:45Z</time>
      </trkpt>
      <trkpt lat="45.11272" lon="6.03984">
        <ele>1279.6</ele>
        <time>2020-09-05T05:18:46Z</time>
      </trkpt>
      <trkpt lat="45.11272" lon="6.03981">
        <ele>1279.8</ele>
        <time>2020-09-05T05:18:47Z</time>
      </trkpt>
      <trkpt lat="45.11273" lon="6.03977">
        <ele>1280</ele>
        <time>2020-09-05T05:18:48Z</time>
      </trkpt>
      <trkpt lat="45.11273" lon="6.03973">
        <ele>1280.2</ele>
        <time>2020-09-05T05:18:49Z</time>
      </trkpt>
      <trkpt lat="45.11276" lon="6.03958">
        <ele>1281</ele>
        <time>2020-09-05T05:18:53Z</time>
      </trkpt>
      <trkpt lat="45.11277" lon="6.0395">
        <ele>1281.4</ele>
        <time>2020-09-05T05:18:55Z</time>
      </trkpt>
      <trkpt lat="45.11278" lon="6.03946">
        <ele>1281.4</ele>
        <time>2020-09-05T05:18:56Z</time>
      </trkpt>
      <trkpt lat="45.11279" lon="6.03938">
        <ele>1282.2</ele>
        <time>2020-09-05T05:18:58Z</time>
      </trkpt>
      <trkpt lat="45.1128" lon="6.03934">
        <ele>1282.4</ele>
        <time>2020-09-05T05:18:59Z</time>
      </trkpt>
      <trkpt lat="45.11281" lon="6.03931">
        <ele>1282.8</ele>
        <time>2020-09-05T05:19:00Z</time>
      </trkpt>
      <trkpt lat="45.11281" lon="6.03927">
        <ele>1283</ele>
        <time>2020-09-05T05:19:01Z</time>
      </trkpt>
      <trkpt lat="45.11285" lon="6.03912">
        <ele>1283.6</ele>
        <time>2020-09-05T05:19:05Z</time>
      </trkpt>
      <trkpt lat="45.11288" lon="6.03896">
        <ele>1284.6</ele>
        <time>2020-09-05T05:19:09Z</time>
      </trkpt>
      <trkpt lat="45.11291" lon="6.03882">
        <ele>1285.4</ele>
        <time>2020-09-05T05:19:13Z</time>
      </trkpt>
      <trkpt lat="45.11294" lon="6.03867">
        <ele>1286.6</ele>
        <time>2020-09-05T05:19:17Z</time>
      </trkpt>
      <trkpt lat="45.11294" lon="6.03864">
        <ele>1286.8</ele>
        <time>2020-09-05T05:19:18Z</time>
      </trkpt>
      <trkpt lat="45.11295" lon="6.03861">
        <ele>1287</ele>
        <time>2020-09-05T05:19:19Z</time>
      </trkpt>
      <trkpt lat="45.11296" lon="6.03858">
        <ele>1287.4</ele>
        <time>2020-09-05T05:19:20Z</time>
      </trkpt>
      <trkpt lat="45.11297" lon="6.03854">
        <ele>1287.6</ele>
        <time>2020-09-05T05:19:21Z</time>
      </trkpt>
      <trkpt lat="45.11298" lon="6.03851">
        <ele>1288</ele>
        <time>2020-09-05T05:19:22Z</time>
      </trkpt>
      <trkpt lat="45.11302" lon="6.03839">
        <ele>1288.8</ele>
        <time>2020-09-05T05:19:26Z</time>
      </trkpt>
      <trkpt lat="45.11307" lon="6.03826">
        <ele>1289.8</ele>
        <time>2020-09-05T05:19:30Z</time>
      </trkpt>
      <trkpt lat="45.11309" lon="6.03812">
        <ele>1290.8</ele>
        <time>2020-09-05T05:19:34Z</time>
      </trkpt>
      <trkpt lat="45.1131" lon="6.03809">
        <ele>1291.2</ele>
        <time>2020-09-05T05:19:35Z</time>
      </trkpt>
      <trkpt lat="45.11311" lon="6.03806">
        <ele>1291.6</ele>
        <time>2020-09-05T05:19:36Z</time>
      </trkpt>
      <trkpt lat="45.11312" lon="6.03803">
        <ele>1291.6</ele>
        <time>2020-09-05T05:19:37Z</time>
      </trkpt>
      <trkpt lat="45.11313" lon="6.03799">
        <ele>1291.8</ele>
        <time>2020-09-05T05:19:38Z</time>
      </trkpt>
      <trkpt lat="45.11314" lon="6.03796">
        <ele>1292</ele>
        <time>2020-09-05T05:19:39Z</time>
      </trkpt>
      <trkpt lat="45.11315" lon="6.03792">
        <ele>1292.2</ele>
        <time>2020-09-05T05:19:40Z</time>
      </trkpt>
      <trkpt lat="45.11316" lon="6.03789">
        <ele>1292.4</ele>
        <time>2020-09-05T05:19:41Z</time>
      </trkpt>
      <trkpt lat="45.11316" lon="6.03785">
        <ele>1292.6</ele>
        <time>2020-09-05T05:19:42Z</time>
      </trkpt>
      <trkpt lat="45.11317" lon="6.03781">
        <ele>1293</ele>
        <time>2020-09-05T05:19:43Z</time>
      </trkpt>
      <trkpt lat="45.11317" lon="6.03777">
        <ele>1293.2</ele>
        <time>2020-09-05T05:19:44Z</time>
      </trkpt>
      <trkpt lat="45.11318" lon="6.03774">
        <ele>1293.6</ele>
        <time>2020-09-05T05:19:45Z</time>
      </trkpt>
      <trkpt lat="45.11318" lon="6.0377">
        <ele>1293.8</ele>
        <time>2020-09-05T05:19:46Z</time>
      </trkpt>
      <trkpt lat="45.11319" lon="6.03767">
        <ele>1294.2</ele>
        <time>2020-09-05T05:19:47Z</time>
      </trkpt>
      <trkpt lat="45.1132" lon="6.03764">
        <ele>1294.4</ele>
        <time>2020-09-05T05:19:48Z</time>
      </trkpt>
      <trkpt lat="45.1132" lon="6.03761">
        <ele>1294.6</ele>
        <time>2020-09-05T05:19:49Z</time>
      </trkpt>
      <trkpt lat="45.11321" lon="6.03758">
        <ele>1294.8</ele>
        <time>2020-09-05T05:19:50Z</time>
      </trkpt>
      <trkpt lat="45.11322" lon="6.03755">
        <ele>1295</ele>
        <time>2020-09-05T05:19:51Z</time>
      </trkpt>
      <trkpt lat="45.11322" lon="6.03751">
        <ele>1295.2</ele>
        <time>2020-09-05T05:19:52Z</time>
      </trkpt>
      <trkpt lat="45.11323" lon="6.03748">
        <ele>1295.4</ele>
        <time>2020-09-05T05:19:53Z</time>
      </trkpt>
      <trkpt lat="45.11324" lon="6.03745">
        <ele>1295.8</ele>
        <time>2020-09-05T05:19:54Z</time>
      </trkpt>
      <trkpt lat="45.11325" lon="6.03741">
        <ele>1296</ele>
        <time>2020-09-05T05:19:55Z</time>
      </trkpt>
      <trkpt lat="45.11326" lon="6.03738">
        <ele>1296</ele>
        <time>2020-09-05T05:19:56Z</time>
      </trkpt>
      <trkpt lat="45.11327" lon="6.03734">
        <ele>1296.2</ele>
        <time>2020-09-05T05:19:57Z</time>
      </trkpt>
      <trkpt lat="45.11328" lon="6.03731">
        <ele>1296.4</ele>
        <time>2020-09-05T05:19:58Z</time>
      </trkpt>
      <trkpt lat="45.11328" lon="6.03727">
        <ele>1296.6</ele>
        <time>2020-09-05T05:19:59Z</time>
      </trkpt>
      <trkpt lat="45.11329" lon="6.03724">
        <ele>1296.8</ele>
        <time>2020-09-05T05:20:00Z</time>
      </trkpt>
      <trkpt lat="45.1133" lon="6.0372">
        <ele>1297</ele>
        <time>2020-09-05T05:20:01Z</time>
      </trkpt>
      <trkpt lat="45.11331" lon="6.03717">
        <ele>1297.2</ele>
        <time>2020-09-05T05:20:02Z</time>
      </trkpt>
      <trkpt lat="45.11332" lon="6.03713">
        <ele>1297.4</ele>
        <time>2020-09-05T05:20:03Z</time>
      </trkpt>
      <trkpt lat="45.11333" lon="6.0371">
        <ele>1297.6</ele>
        <time>2020-09-05T05:20:04Z</time>
      </trkpt>
      <trkpt lat="45.11334" lon="6.03707">
        <ele>1298</ele>
        <time>2020-09-05T05:20:05Z</time>
      </trkpt>
      <trkpt lat="45.11334" lon="6.03704">
        <ele>1298.2</ele>
        <time>2020-09-05T05:20:06Z</time>
      </trkpt>
      <trkpt lat="45.11335" lon="6.03701">
        <ele>1298.4</ele>
        <time>2020-09-05T05:20:07Z</time>
      </trkpt>
      <trkpt lat="45.11335" lon="6.03699">
        <ele>1298.4</ele>
        <time>2020-09-05T05:20:08Z</time>
      </trkpt>
      <trkpt lat="45.11336" lon="6.03696">
        <ele>1298.6</ele>
        <time>2020-09-05T05:20:09Z</time>
      </trkpt>
      <trkpt lat="45.11337" lon="6.03693">
        <ele>1298.6</ele>
        <time>2020-09-05T05:20:10Z</time>
      </trkpt>
      <trkpt lat="45.11337" lon="6.0369">
        <ele>1298.6</ele>
        <time>2020-09-05T05:20:11Z</time>
      </trkpt>
      <trkpt lat="45.11338" lon="6.03688">
        <ele>1298.8</ele>
        <time>2020-09-05T05:20:12Z</time>
      </trkpt>
      <trkpt lat="45.11339" lon="6.03685">
        <ele>1299.2</ele>
        <time>2020-09-05T05:20:13Z</time>
      </trkpt>
      <trkpt lat="45.1134" lon="6.03682">
        <ele>1299.2</ele>
        <time>2020-09-05T05:20:14Z</time>
      </trkpt>
      <trkpt lat="45.1134" lon="6.03678">
        <ele>1299.6</ele>
        <time>2020-09-05T05:20:15Z</time>
      </trkpt>
      <trkpt lat="45.1134" lon="6.03675">
        <ele>1299.6</ele>
        <time>2020-09-05T05:20:16Z</time>
      </trkpt>
      <trkpt lat="45.11341" lon="6.03671">
        <ele>1300</ele>
        <time>2020-09-05T05:20:17Z</time>
      </trkpt>
      <trkpt lat="45.11341" lon="6.03667">
        <ele>1300</ele>
        <time>2020-09-05T05:20:18Z</time>
      </trkpt>
      <trkpt lat="45.11342" lon="6.03664">
        <ele>1300.2</ele>
        <time>2020-09-05T05:20:19Z</time>
      </trkpt>
      <trkpt lat="45.11342" lon="6.0366">
        <ele>1300.6</ele>
        <time>2020-09-05T05:20:20Z</time>
      </trkpt>
      <trkpt lat="45.11343" lon="6.03657">
        <ele>1300.8</ele>
        <time>2020-09-05T05:20:21Z</time>
      </trkpt>
      <trkpt lat="45.11343" lon="6.03653">
        <ele>1300.8</ele>
        <time>2020-09-05T05:20:22Z</time>
      </trkpt>
      <trkpt lat="45.11342" lon="6.0365">
        <ele>1301</ele>
        <time>2020-09-05T05:20:23Z</time>
      </trkpt>
      <trkpt lat="45.11338" lon="6.03638">
        <ele>1301.4</ele>
        <time>2020-09-05T05:20:26Z</time>
      </trkpt>
      <trkpt lat="45.11337" lon="6.03634">
        <ele>1301.8</ele>
        <time>2020-09-05T05:20:27Z</time>
      </trkpt>
      <trkpt lat="45.11335" lon="6.0363">
        <ele>1301.8</ele>
        <time>2020-09-05T05:20:28Z</time>
      </trkpt>
      <trkpt lat="45.11334" lon="6.03626">
        <ele>1302.2</ele>
        <time>2020-09-05T05:20:29Z</time>
      </trkpt>
      <trkpt lat="45.11333" lon="6.03623">
        <ele>1302.6</ele>
        <time>2020-09-05T05:20:30Z</time>
      </trkpt>
      <trkpt lat="45.11331" lon="6.0362">
        <ele>1302.8</ele>
        <time>2020-09-05T05:20:31Z</time>
      </trkpt>
      <trkpt lat="45.11329" lon="6.03618">
        <ele>1303</ele>
        <time>2020-09-05T05:20:32Z</time>
      </trkpt>
      <trkpt lat="45.11326" lon="6.03616">
        <ele>1303.2</ele>
        <time>2020-09-05T05:20:33Z</time>
      </trkpt>
      <trkpt lat="45.11323" lon="6.03616">
        <ele>1303.8</ele>
        <time>2020-09-05T05:20:34Z</time>
      </trkpt>
      <trkpt lat="45.11321" lon="6.03616">
        <ele>1304</ele>
        <time>2020-09-05T05:20:35Z</time>
      </trkpt>
      <trkpt lat="45.11318" lon="6.03617">
        <ele>1304.2</ele>
        <time>2020-09-05T05:20:36Z</time>
      </trkpt>
      <trkpt lat="45.11315" lon="6.03619">
        <ele>1304.4</ele>
        <time>2020-09-05T05:20:37Z</time>
      </trkpt>
      <trkpt lat="45.11312" lon="6.03621">
        <ele>1304.6</ele>
        <time>2020-09-05T05:20:38Z</time>
      </trkpt>
      <trkpt lat="45.11309" lon="6.03622">
        <ele>1304.8</ele>
        <time>2020-09-05T05:20:39Z</time>
      </trkpt>
      <trkpt lat="45.11307" lon="6.03625">
        <ele>1305</ele>
        <time>2020-09-05T05:20:40Z</time>
      </trkpt>
      <trkpt lat="45.11304" lon="6.03627">
        <ele>1305</ele>
        <time>2020-09-05T05:20:41Z</time>
      </trkpt>
      <trkpt lat="45.11302" lon="6.0363">
        <ele>1305.4</ele>
        <time>2020-09-05T05:20:42Z</time>
      </trkpt>
      <trkpt lat="45.113" lon="6.03633">
        <ele>1305.6</ele>
        <time>2020-09-05T05:20:43Z</time>
      </trkpt>
      <trkpt lat="45.11299" lon="6.03636">
        <ele>1305.6</ele>
        <time>2020-09-05T05:20:44Z</time>
      </trkpt>
      <trkpt lat="45.11297" lon="6.0364">
        <ele>1306</ele>
        <time>2020-09-05T05:20:45Z</time>
      </trkpt>
      <trkpt lat="45.11296" lon="6.03644">
        <ele>1306.2</ele>
        <time>2020-09-05T05:20:46Z</time>
      </trkpt>
      <trkpt lat="45.11294" lon="6.03647">
        <ele>1306.4</ele>
        <time>2020-09-05T05:20:47Z</time>
      </trkpt>
      <trkpt lat="45.11292" lon="6.0365">
        <ele>1306.6</ele>
        <time>2020-09-05T05:20:48Z</time>
      </trkpt>
      <trkpt lat="45.1129" lon="6.03653">
        <ele>1307</ele>
        <time>2020-09-05T05:20:49Z</time>
      </trkpt>
      <trkpt lat="45.11288" lon="6.03655">
        <ele>1307.2</ele>
        <time>2020-09-05T05:20:50Z</time>
      </trkpt>
      <trkpt lat="45.11286" lon="6.03658">
        <ele>1307.4</ele>
        <time>2020-09-05T05:20:51Z</time>
      </trkpt>
      <trkpt lat="45.11284" lon="6.0366">
        <ele>1307.6</ele>
        <time>2020-09-05T05:20:52Z</time>
      </trkpt>
      <trkpt lat="45.11282" lon="6.03663">
        <ele>1307.6</ele>
        <time>2020-09-05T05:20:53Z</time>
      </trkpt>
      <trkpt lat="45.1128" lon="6.03665">
        <ele>1308</ele>
        <time>2020-09-05T05:20:54Z</time>
      </trkpt>
      <trkpt lat="45.11277" lon="6.03667">
        <ele>1308.2</ele>
        <time>2020-09-05T05:20:55Z</time>
      </trkpt>
      <trkpt lat="45.11275" lon="6.03669">
        <ele>1308.4</ele>
        <time>2020-09-05T05:20:56Z</time>
      </trkpt>
      <trkpt lat="45.11273" lon="6.03672">
        <ele>1308.8</ele>
        <time>2020-09-05T05:20:57Z</time>
      </trkpt>
      <trkpt lat="45.11271" lon="6.03674">
        <ele>1309</ele>
        <time>2020-09-05T05:20:58Z</time>
      </trkpt>
      <trkpt lat="45.11269" lon="6.03676">
        <ele>1309.2</ele>
        <time>2020-09-05T05:20:59Z</time>
      </trkpt>
      <trkpt lat="45.11266" lon="6.03677">
        <ele>1309.4</ele>
        <time>2020-09-05T05:21:00Z</time>
      </trkpt>
      <trkpt lat="45.11264" lon="6.03679">
        <ele>1309.6</ele>
        <time>2020-09-05T05:21:01Z</time>
      </trkpt>
      <trkpt lat="45.11261" lon="6.0368">
        <ele>1309.8</ele>
        <time>2020-09-05T05:21:02Z</time>
      </trkpt>
      <trkpt lat="45.11259" lon="6.03681">
        <ele>1310</ele>
        <time>2020-09-05T05:21:03Z</time>
      </trkpt>
      <trkpt lat="45.11256" lon="6.03683">
        <ele>1310.4</ele>
        <time>2020-09-05T05:21:04Z</time>
      </trkpt>
      <trkpt lat="45.11254" lon="6.03684">
        <ele>1310.6</ele>
        <time>2020-09-05T05:21:05Z</time>
      </trkpt>
      <trkpt lat="45.11252" lon="6.03686">
        <ele>1310.8</ele>
        <time>2020-09-05T05:21:06Z</time>
      </trkpt>
      <trkpt lat="45.1125" lon="6.03687">
        <ele>1311</ele>
        <time>2020-09-05T05:21:07Z</time>
      </trkpt>
      <trkpt lat="45.11248" lon="6.03688">
        <ele>1311.2</ele>
        <time>2020-09-05T05:21:08Z</time>
      </trkpt>
      <trkpt lat="45.11245" lon="6.03689">
        <ele>1311.6</ele>
        <time>2020-09-05T05:21:09Z</time>
      </trkpt>
      <trkpt lat="45.11243" lon="6.0369">
        <ele>1311.8</ele>
        <time>2020-09-05T05:21:10Z</time>
      </trkpt>
      <trkpt lat="45.11241" lon="6.03691">
        <ele>1311.8</ele>
        <time>2020-09-05T05:21:11Z</time>
      </trkpt>
      <trkpt lat="45.11238" lon="6.03692">
        <ele>1312.2</ele>
        <time>2020-09-05T05:21:12Z</time>
      </trkpt>
      <trkpt lat="45.11236" lon="6.03692">
        <ele>1312.4</ele>
        <time>2020-09-05T05:21:13Z</time>
      </trkpt>
      <trkpt lat="45.11234" lon="6.03693">
        <ele>1312.4</ele>
        <time>2020-09-05T05:21:14Z</time>
      </trkpt>
      <trkpt lat="45.11232" lon="6.03694">
        <ele>1312.6</ele>
        <time>2020-09-05T05:21:15Z</time>
      </trkpt>
      <trkpt lat="45.11229" lon="6.03695">
        <ele>1312.8</ele>
        <time>2020-09-05T05:21:16Z</time>
      </trkpt>
      <trkpt lat="45.11227" lon="6.03695">
        <ele>1313.2</ele>
        <time>2020-09-05T05:21:17Z</time>
      </trkpt>
      <trkpt lat="45.11224" lon="6.03696">
        <ele>1313.2</ele>
        <time>2020-09-05T05:21:18Z</time>
      </trkpt>
      <trkpt lat="45.11212" lon="6.03694">
        <ele>1313.8</ele>
        <time>2020-09-05T05:21:22Z</time>
      </trkpt>
      <trkpt lat="45.11202" lon="6.03694">
        <ele>1314</ele>
        <time>2020-09-05T05:21:25Z</time>
      </trkpt>
      <trkpt lat="45.11192" lon="6.03693">
        <ele>1314.6</ele>
        <time>2020-09-05T05:21:28Z</time>
      </trkpt>
      <trkpt lat="45.11181" lon="6.03693">
        <ele>1314.8</ele>
        <time>2020-09-05T05:21:31Z</time>
      </trkpt>
      <trkpt lat="45.1117" lon="6.03693">
        <ele>1315.2</ele>
        <time>2020-09-05T05:21:34Z</time>
      </trkpt>
      <trkpt lat="45.1116" lon="6.03695">
        <ele>1315.8</ele>
        <time>2020-09-05T05:21:37Z</time>
      </trkpt>
      <trkpt lat="45.1115" lon="6.03697">
        <ele>1316</ele>
        <time>2020-09-05T05:21:40Z</time>
      </trkpt>
      <trkpt lat="45.11139" lon="6.03698">
        <ele>1316.2</ele>
        <time>2020-09-05T05:21:43Z</time>
      </trkpt>
      <trkpt lat="45.11129" lon="6.03698">
        <ele>1316.6</ele>
        <time>2020-09-05T05:21:46Z</time>
      </trkpt>
      <trkpt lat="45.11117" lon="6.037">
        <ele>1317</ele>
        <time>2020-09-05T05:21:49Z</time>
      </trkpt>
      <trkpt lat="45.11106" lon="6.03699">
        <ele>1317.4</ele>
        <time>2020-09-05T05:21:52Z</time>
      </trkpt>
      <trkpt lat="45.11094" lon="6.03699">
        <ele>1317.6</ele>
        <time>2020-09-05T05:21:55Z</time>
      </trkpt>
      <trkpt lat="45.11082" lon="6.03698">
        <ele>1318</ele>
        <time>2020-09-05T05:21:58Z</time>
      </trkpt>
      <trkpt lat="45.1107" lon="6.03698">
        <ele>1318.6</ele>
        <time>2020-09-05T05:22:01Z</time>
      </trkpt>
      <trkpt lat="45.11059" lon="6.03696">
        <ele>1319.4</ele>
        <time>2020-09-05T05:22:04Z</time>
      </trkpt>
      <trkpt lat="45.11047" lon="6.03696">
        <ele>1320.2</ele>
        <time>2020-09-05T05:22:07Z</time>
      </trkpt>
      <trkpt lat="45.11035" lon="6.03698">
        <ele>1320.8</ele>
        <time>2020-09-05T05:22:10Z</time>
      </trkpt>
      <trkpt lat="45.11024" lon="6.03707">
        <ele>1321.8</ele>
        <time>2020-09-05T05:22:13Z</time>
      </trkpt>
      <trkpt lat="45.11017" lon="6.03718">
        <ele>1322.4</ele>
        <time>2020-09-05T05:22:16Z</time>
      </trkpt>
      <trkpt lat="45.1101" lon="6.03728">
        <ele>1323</ele>
        <time>2020-09-05T05:22:19Z</time>
      </trkpt>
      <trkpt lat="45.11004" lon="6.03739">
        <ele>1323.8</ele>
        <time>2020-09-05T05:22:22Z</time>
      </trkpt>
      <trkpt lat="45.10998" lon="6.03749">
        <ele>1324.4</ele>
        <time>2020-09-05T05:22:25Z</time>
      </trkpt>
      <trkpt lat="45.1099" lon="6.03757">
        <ele>1325.4</ele>
        <time>2020-09-05T05:22:28Z</time>
      </trkpt>
      <trkpt lat="45.1098" lon="6.03763">
        <ele>1326</ele>
        <time>2020-09-05T05:22:31Z</time>
      </trkpt>
      <trkpt lat="45.1097" lon="6.03766">
        <ele>1326.8</ele>
        <time>2020-09-05T05:22:34Z</time>
      </trkpt>
      <trkpt lat="45.10961" lon="6.03769">
        <ele>1327.2</ele>
        <time>2020-09-05T05:22:37Z</time>
      </trkpt>
      <trkpt lat="45.10952" lon="6.03772">
        <ele>1328</ele>
        <time>2020-09-05T05:22:40Z</time>
      </trkpt>
      <trkpt lat="45.10943" lon="6.03777">
        <ele>1328.8</ele>
        <time>2020-09-05T05:22:43Z</time>
      </trkpt>
      <trkpt lat="45.10935" lon="6.03785">
        <ele>1329.4</ele>
        <time>2020-09-05T05:22:46Z</time>
      </trkpt>
      <trkpt lat="45.10928" lon="6.03792">
        <ele>1330.2</ele>
        <time>2020-09-05T05:22:49Z</time>
      </trkpt>
      <trkpt lat="45.10921" lon="6.038">
        <ele>1331</ele>
        <time>2020-09-05T05:22:52Z</time>
      </trkpt>
      <trkpt lat="45.10913" lon="6.03811">
        <ele>1331.8</ele>
        <time>2020-09-05T05:22:56Z</time>
      </trkpt>
      <trkpt lat="45.10904" lon="6.03822">
        <ele>1333.2</ele>
        <time>2020-09-05T05:23:00Z</time>
      </trkpt>
      <trkpt lat="45.10899" lon="6.03836">
        <ele>1334.6</ele>
        <time>2020-09-05T05:23:04Z</time>
      </trkpt>
      <trkpt lat="45.1089" lon="6.03841">
        <ele>1335.8</ele>
        <time>2020-09-05T05:23:09Z</time>
      </trkpt>
      <trkpt lat="45.10879" lon="6.03844">
        <ele>1337</ele>
        <time>2020-09-05T05:23:14Z</time>
      </trkpt>
      <trkpt lat="45.1087" lon="6.03846">
        <ele>1338</ele>
        <time>2020-09-05T05:23:18Z</time>
      </trkpt>
      <trkpt lat="45.1086" lon="6.03846">
        <ele>1338.8</ele>
        <time>2020-09-05T05:23:22Z</time>
      </trkpt>
      <trkpt lat="45.1085" lon="6.03849">
        <ele>1339.6</ele>
        <time>2020-09-05T05:23:26Z</time>
      </trkpt>
      <trkpt lat="45.10842" lon="6.03854">
        <ele>1340.2</ele>
        <time>2020-09-05T05:23:30Z</time>
      </trkpt>
      <trkpt lat="45.10834" lon="6.0386">
        <ele>1341</ele>
        <time>2020-09-05T05:23:34Z</time>
      </trkpt>
      <trkpt lat="45.10823" lon="6.03866">
        <ele>1342</ele>
        <time>2020-09-05T05:23:39Z</time>
      </trkpt>
      <trkpt lat="45.10812" lon="6.03868">
        <ele>1342.8</ele>
        <time>2020-09-05T05:23:43Z</time>
      </trkpt>
      <trkpt lat="45.10803" lon="6.03868">
        <ele>1343.2</ele>
        <time>2020-09-05T05:23:46Z</time>
      </trkpt>
      <trkpt lat="45.10793" lon="6.03865">
        <ele>1343.6</ele>
        <time>2020-09-05T05:23:49Z</time>
      </trkpt>
      <trkpt lat="45.10785" lon="6.03859">
        <ele>1343.8</ele>
        <time>2020-09-05T05:23:52Z</time>
      </trkpt>
      <trkpt lat="45.10779" lon="6.03854">
        <ele>1344.4</ele>
        <time>2020-09-05T05:23:54Z</time>
      </trkpt>
      <trkpt lat="45.10776" lon="6.03852">
        <ele>1344.6</ele>
        <time>2020-09-05T05:23:55Z</time>
      </trkpt>
      <trkpt lat="45.10774" lon="6.03849">
        <ele>1344.6</ele>
        <time>2020-09-05T05:23:56Z</time>
      </trkpt>
      <trkpt lat="45.10771" lon="6.03847">
        <ele>1344.8</ele>
        <time>2020-09-05T05:23:57Z</time>
      </trkpt>
      <trkpt lat="45.10769" lon="6.03844">
        <ele>1345.2</ele>
        <time>2020-09-05T05:23:58Z</time>
      </trkpt>
      <trkpt lat="45.10766" lon="6.03842">
        <ele>1345.4</ele>
        <time>2020-09-05T05:23:59Z</time>
      </trkpt>
      <trkpt lat="45.10764" lon="6.03839">
        <ele>1345.6</ele>
        <time>2020-09-05T05:24:00Z</time>
      </trkpt>
      <trkpt lat="45.10762" lon="6.03837">
        <ele>1345.8</ele>
        <time>2020-09-05T05:24:01Z</time>
      </trkpt>
      <trkpt lat="45.10759" lon="6.03835">
        <ele>1346.2</ele>
        <time>2020-09-05T05:24:02Z</time>
      </trkpt>
      <trkpt lat="45.10757" lon="6.03832">
        <ele>1346.4</ele>
        <time>2020-09-05T05:24:03Z</time>
      </trkpt>
      <trkpt lat="45.10754" lon="6.0383">
        <ele>1346.6</ele>
        <time>2020-09-05T05:24:04Z</time>
      </trkpt>
      <trkpt lat="45.10751" lon="6.03827">
        <ele>1346.4</ele>
        <time>2020-09-05T05:24:05Z</time>
      </trkpt>
      <trkpt lat="45.10749" lon="6.03824">
        <ele>1346.8</ele>
        <time>2020-09-05T05:24:06Z</time>
      </trkpt>
      <trkpt lat="45.10746" lon="6.03821">
        <ele>1347</ele>
        <time>2020-09-05T05:24:07Z</time>
      </trkpt>
      <trkpt lat="45.10744" lon="6.03819">
        <ele>1347.4</ele>
        <time>2020-09-05T05:24:08Z</time>
      </trkpt>
      <trkpt lat="45.10742" lon="6.03817">
        <ele>1347.6</ele>
        <time>2020-09-05T05:24:09Z</time>
      </trkpt>
      <trkpt lat="45.10739" lon="6.03815">
        <ele>1348</ele>
        <time>2020-09-05T05:24:10Z</time>
      </trkpt>
      <trkpt lat="45.10736" lon="6.03813">
        <ele>1348.2</ele>
        <time>2020-09-05T05:24:11Z</time>
      </trkpt>
      <trkpt lat="45.10733" lon="6.03811">
        <ele>1348.4</ele>
        <time>2020-09-05T05:24:12Z</time>
      </trkpt>
      <trkpt lat="45.10731" lon="6.0381">
        <ele>1348.6</ele>
        <time>2020-09-05T05:24:13Z</time>
      </trkpt>
      <trkpt lat="45.10728" lon="6.03809">
        <ele>1349</ele>
        <time>2020-09-05T05:24:14Z</time>
      </trkpt>
      <trkpt lat="45.10724" lon="6.03808">
        <ele>1349.4</ele>
        <time>2020-09-05T05:24:15Z</time>
      </trkpt>
      <trkpt lat="45.10721" lon="6.03807">
        <ele>1349.6</ele>
        <time>2020-09-05T05:24:16Z</time>
      </trkpt>
      <trkpt lat="45.10718" lon="6.03806">
        <ele>1349.8</ele>
        <time>2020-09-05T05:24:17Z</time>
      </trkpt>
      <trkpt lat="45.10715" lon="6.03806">
        <ele>1350</ele>
        <time>2020-09-05T05:24:18Z</time>
      </trkpt>
      <trkpt lat="45.10712" lon="6.03805">
        <ele>1350.2</ele>
        <time>2020-09-05T05:24:19Z</time>
      </trkpt>
      <trkpt lat="45.10708" lon="6.03805">
        <ele>1350.6</ele>
        <time>2020-09-05T05:24:20Z</time>
      </trkpt>
      <trkpt lat="45.10705" lon="6.03805">
        <ele>1350.6</ele>
        <time>2020-09-05T05:24:21Z</time>
      </trkpt>
      <trkpt lat="45.10702" lon="6.03804">
        <ele>1350.8</ele>
        <time>2020-09-05T05:24:22Z</time>
      </trkpt>
      <trkpt lat="45.10699" lon="6.03804">
        <ele>1351.2</ele>
        <time>2020-09-05T05:24:23Z</time>
      </trkpt>
      <trkpt lat="45.10696" lon="6.03803">
        <ele>1351.6</ele>
        <time>2020-09-05T05:24:24Z</time>
      </trkpt>
      <trkpt lat="45.10693" lon="6.03802">
        <ele>1351.6</ele>
        <time>2020-09-05T05:24:25Z</time>
      </trkpt>
      <trkpt lat="45.10689" lon="6.03802">
        <ele>1352</ele>
        <time>2020-09-05T05:24:26Z</time>
      </trkpt>
      <trkpt lat="45.10686" lon="6.03801">
        <ele>1352</ele>
        <time>2020-09-05T05:24:27Z</time>
      </trkpt>
      <trkpt lat="45.10683" lon="6.038">
        <ele>1352.2</ele>
        <time>2020-09-05T05:24:28Z</time>
      </trkpt>
      <trkpt lat="45.1068" lon="6.038">
        <ele>1352.4</ele>
        <time>2020-09-05T05:24:29Z</time>
      </trkpt>
      <trkpt lat="45.10677" lon="6.038">
        <ele>1352.6</ele>
        <time>2020-09-05T05:24:30Z</time>
      </trkpt>
      <trkpt lat="45.10674" lon="6.03801">
        <ele>1353</ele>
        <time>2020-09-05T05:24:31Z</time>
      </trkpt>
      <trkpt lat="45.10671" lon="6.03802">
        <ele>1353.2</ele>
        <time>2020-09-05T05:24:32Z</time>
      </trkpt>
      <trkpt lat="45.10668" lon="6.03803">
        <ele>1353.2</ele>
        <time>2020-09-05T05:24:33Z</time>
      </trkpt>
      <trkpt lat="45.10665" lon="6.03805">
        <ele>1353.4</ele>
        <time>2020-09-05T05:24:34Z</time>
      </trkpt>
      <trkpt lat="45.10662" lon="6.03808">
        <ele>1353.6</ele>
        <time>2020-09-05T05:24:35Z</time>
      </trkpt>
      <trkpt lat="45.1066" lon="6.03811">
        <ele>1354</ele>
        <time>2020-09-05T05:24:36Z</time>
      </trkpt>
      <trkpt lat="45.10658" lon="6.03814">
        <ele>1354.2</ele>
        <time>2020-09-05T05:24:37Z</time>
      </trkpt>
      <trkpt lat="45.10656" lon="6.03818">
        <ele>1354.2</ele>
        <time>2020-09-05T05:24:38Z</time>
      </trkpt>
      <trkpt lat="45.10654" lon="6.03822">
        <ele>1354.4</ele>
        <time>2020-09-05T05:24:39Z</time>
      </trkpt>
      <trkpt lat="45.10652" lon="6.03826">
        <ele>1354.6</ele>
        <time>2020-09-05T05:24:40Z</time>
      </trkpt>
      <trkpt lat="45.1065" lon="6.0383">
        <ele>1354.8</ele>
        <time>2020-09-05T05:24:41Z</time>
      </trkpt>
      <trkpt lat="45.10647" lon="6.03833">
        <ele>1355.2</ele>
        <time>2020-09-05T05:24:42Z</time>
      </trkpt>
      <trkpt lat="45.10645" lon="6.03837">
        <ele>1355.2</ele>
        <time>2020-09-05T05:24:43Z</time>
      </trkpt>
      <trkpt lat="45.10643" lon="6.0384">
        <ele>1355</ele>
        <time>2020-09-05T05:24:44Z</time>
      </trkpt>
      <trkpt lat="45.10641" lon="6.03843">
        <ele>1355.4</ele>
        <time>2020-09-05T05:24:45Z</time>
      </trkpt>
      <trkpt lat="45.10639" lon="6.03846">
        <ele>1355.6</ele>
        <time>2020-09-05T05:24:46Z</time>
      </trkpt>
      <trkpt lat="45.10636" lon="6.03849">
        <ele>1355.6</ele>
        <time>2020-09-05T05:24:47Z</time>
      </trkpt>
      <trkpt lat="45.10634" lon="6.03852">
        <ele>1355.8</ele>
        <time>2020-09-05T05:24:48Z</time>
      </trkpt>
      <trkpt lat="45.10632" lon="6.03855">
        <ele>1355.8</ele>
        <time>2020-09-05T05:24:49Z</time>
      </trkpt>
      <trkpt lat="45.10629" lon="6.03858">
        <ele>1356.2</ele>
        <time>2020-09-05T05:24:50Z</time>
      </trkpt>
      <trkpt lat="45.10627" lon="6.03861">
        <ele>1356.4</ele>
        <time>2020-09-05T05:24:51Z</time>
      </trkpt>
      <trkpt lat="45.10624" lon="6.03863">
        <ele>1356.6</ele>
        <time>2020-09-05T05:24:52Z</time>
      </trkpt>
      <trkpt lat="45.10621" lon="6.03866">
        <ele>1356.8</ele>
        <time>2020-09-05T05:24:53Z</time>
      </trkpt>
      <trkpt lat="45.10619" lon="6.03869">
        <ele>1357</ele>
        <time>2020-09-05T05:24:54Z</time>
      </trkpt>
      <trkpt lat="45.10616" lon="6.03871">
        <ele>1357.4</ele>
        <time>2020-09-05T05:24:55Z</time>
      </trkpt>
      <trkpt lat="45.10608" lon="6.03879">
        <ele>1358.2</ele>
        <time>2020-09-05T05:24:58Z</time>
      </trkpt>
      <trkpt lat="45.106" lon="6.03888">
        <ele>1359</ele>
        <time>2020-09-05T05:25:01Z</time>
      </trkpt>
      <trkpt lat="45.10597" lon="6.0389">
        <ele>1359.4</ele>
        <time>2020-09-05T05:25:02Z</time>
      </trkpt>
      <trkpt lat="45.10594" lon="6.03891">
        <ele>1359.8</ele>
        <time>2020-09-05T05:25:03Z</time>
      </trkpt>
      <trkpt lat="45.10592" lon="6.03893">
        <ele>1360</ele>
        <time>2020-09-05T05:25:04Z</time>
      </trkpt>
      <trkpt lat="45.1059" lon="6.03894">
        <ele>1360.2</ele>
        <time>2020-09-05T05:25:05Z</time>
      </trkpt>
      <trkpt lat="45.10579" lon="6.039">
        <ele>1361.4</ele>
        <time>2020-09-05T05:25:09Z</time>
      </trkpt>
      <trkpt lat="45.10573" lon="6.03902">
        <ele>1361.8</ele>
        <time>2020-09-05T05:25:11Z</time>
      </trkpt>
      <trkpt lat="45.1057" lon="6.03903">
        <ele>1361.8</ele>
        <time>2020-09-05T05:25:12Z</time>
      </trkpt>
      <trkpt lat="45.10567" lon="6.03905">
        <ele>1362</ele>
        <time>2020-09-05T05:25:13Z</time>
      </trkpt>
      <trkpt lat="45.10564" lon="6.03906">
        <ele>1362.4</ele>
        <time>2020-09-05T05:25:14Z</time>
      </trkpt>
      <trkpt lat="45.10562" lon="6.03908">
        <ele>1362.6</ele>
        <time>2020-09-05T05:25:15Z</time>
      </trkpt>
      <trkpt lat="45.10556" lon="6.03911">
        <ele>1363</ele>
        <time>2020-09-05T05:25:17Z</time>
      </trkpt>
      <trkpt lat="45.10553" lon="6.03913">
        <ele>1363</ele>
        <time>2020-09-05T05:25:18Z</time>
      </trkpt>
      <trkpt lat="45.1055" lon="6.03914">
        <ele>1363</ele>
        <time>2020-09-05T05:25:19Z</time>
      </trkpt>
      <trkpt lat="45.10547" lon="6.03916">
        <ele>1363.2</ele>
        <time>2020-09-05T05:25:20Z</time>
      </trkpt>
      <trkpt lat="45.10544" lon="6.03918">
        <ele>1363.2</ele>
        <time>2020-09-05T05:25:21Z</time>
      </trkpt>
      <trkpt lat="45.1054" lon="6.0392">
        <ele>1363.6</ele>
        <time>2020-09-05T05:25:22Z</time>
      </trkpt>
      <trkpt lat="45.10537" lon="6.03921">
        <ele>1363.8</ele>
        <time>2020-09-05T05:25:23Z</time>
      </trkpt>
      <trkpt lat="45.10535" lon="6.03923">
        <ele>1364</ele>
        <time>2020-09-05T05:25:24Z</time>
      </trkpt>
      <trkpt lat="45.10532" lon="6.03924">
        <ele>1364.4</ele>
        <time>2020-09-05T05:25:25Z</time>
      </trkpt>
      <trkpt lat="45.10528" lon="6.03926">
        <ele>1364.6</ele>
        <time>2020-09-05T05:25:26Z</time>
      </trkpt>
      <trkpt lat="45.10525" lon="6.03927">
        <ele>1364.8</ele>
        <time>2020-09-05T05:25:27Z</time>
      </trkpt>
      <trkpt lat="45.10522" lon="6.03928">
        <ele>1365</ele>
        <time>2020-09-05T05:25:28Z</time>
      </trkpt>
      <trkpt lat="45.10519" lon="6.03929">
        <ele>1365.4</ele>
        <time>2020-09-05T05:25:29Z</time>
      </trkpt>
      <trkpt lat="45.10516" lon="6.03929">
        <ele>1365.4</ele>
        <time>2020-09-05T05:25:30Z</time>
      </trkpt>
      <trkpt lat="45.10512" lon="6.0393">
        <ele>1365.6</ele>
        <time>2020-09-05T05:25:31Z</time>
      </trkpt>
      <trkpt lat="45.10509" lon="6.0393">
        <ele>1365.6</ele>
        <time>2020-09-05T05:25:32Z</time>
      </trkpt>
      <trkpt lat="45.10506" lon="6.03929">
        <ele>1365.8</ele>
        <time>2020-09-05T05:25:33Z</time>
      </trkpt>
      <trkpt lat="45.10503" lon="6.03928">
        <ele>1366</ele>
        <time>2020-09-05T05:25:34Z</time>
      </trkpt>
      <trkpt lat="45.105" lon="6.03926">
        <ele>1366.2</ele>
        <time>2020-09-05T05:25:35Z</time>
      </trkpt>
      <trkpt lat="45.10496" lon="6.03924">
        <ele>1366.6</ele>
        <time>2020-09-05T05:25:36Z</time>
      </trkpt>
      <trkpt lat="45.10493" lon="6.03922">
        <ele>1366.6</ele>
        <time>2020-09-05T05:25:37Z</time>
      </trkpt>
      <trkpt lat="45.10491" lon="6.03919">
        <ele>1366.8</ele>
        <time>2020-09-05T05:25:38Z</time>
      </trkpt>
      <trkpt lat="45.10488" lon="6.03917">
        <ele>1367</ele>
        <time>2020-09-05T05:25:39Z</time>
      </trkpt>
      <trkpt lat="45.10485" lon="6.03914">
        <ele>1367.2</ele>
        <time>2020-09-05T05:25:40Z</time>
      </trkpt>
      <trkpt lat="45.10482" lon="6.03911">
        <ele>1367.6</ele>
        <time>2020-09-05T05:25:41Z</time>
      </trkpt>
      <trkpt lat="45.10479" lon="6.03909">
        <ele>1368</ele>
        <time>2020-09-05T05:25:42Z</time>
      </trkpt>
      <trkpt lat="45.10477" lon="6.03906">
        <ele>1368.2</ele>
        <time>2020-09-05T05:25:43Z</time>
      </trkpt>
      <trkpt lat="45.10474" lon="6.03903">
        <ele>1368.4</ele>
        <time>2020-09-05T05:25:44Z</time>
      </trkpt>
      <trkpt lat="45.10471" lon="6.039">
        <ele>1368.6</ele>
        <time>2020-09-05T05:25:45Z</time>
      </trkpt>
      <trkpt lat="45.10468" lon="6.03897">
        <ele>1368.8</ele>
        <time>2020-09-05T05:25:46Z</time>
      </trkpt>
      <trkpt lat="45.10466" lon="6.03895">
        <ele>1369.2</ele>
        <time>2020-09-05T05:25:47Z</time>
      </trkpt>
      <trkpt lat="45.10463" lon="6.03892">
        <ele>1369.4</ele>
        <time>2020-09-05T05:25:48Z</time>
      </trkpt>
      <trkpt lat="45.1046" lon="6.0389">
        <ele>1369.6</ele>
        <time>2020-09-05T05:25:49Z</time>
      </trkpt>
      <trkpt lat="45.10457" lon="6.03888">
        <ele>1369.8</ele>
        <time>2020-09-05T05:25:50Z</time>
      </trkpt>
      <trkpt lat="45.10454" lon="6.03886">
        <ele>1370</ele>
        <time>2020-09-05T05:25:51Z</time>
      </trkpt>
      <trkpt lat="45.10451" lon="6.03884">
        <ele>1370</ele>
        <time>2020-09-05T05:25:52Z</time>
      </trkpt>
      <trkpt lat="45.10449" lon="6.03882">
        <ele>1370.2</ele>
        <time>2020-09-05T05:25:53Z</time>
      </trkpt>
      <trkpt lat="45.10445" lon="6.03881">
        <ele>1370.4</ele>
        <time>2020-09-05T05:25:54Z</time>
      </trkpt>
      <trkpt lat="45.10442" lon="6.0388">
        <ele>1370.6</ele>
        <time>2020-09-05T05:25:55Z</time>
      </trkpt>
      <trkpt lat="45.10439" lon="6.03879">
        <ele>1370.8</ele>
        <time>2020-09-05T05:25:56Z</time>
      </trkpt>
      <trkpt lat="45.10436" lon="6.03879">
        <ele>1371.2</ele>
        <time>2020-09-05T05:25:57Z</time>
      </trkpt>
      <trkpt lat="45.10433" lon="6.03879">
        <ele>1371.4</ele>
        <time>2020-09-05T05:25:58Z</time>
      </trkpt>
      <trkpt lat="45.10429" lon="6.03879">
        <ele>1371.4</ele>
        <time>2020-09-05T05:25:59Z</time>
      </trkpt>
      <trkpt lat="45.10426" lon="6.0388">
        <ele>1371.4</ele>
        <time>2020-09-05T05:26:00Z</time>
      </trkpt>
      <trkpt lat="45.10423" lon="6.03881">
        <ele>1371.8</ele>
        <time>2020-09-05T05:26:01Z</time>
      </trkpt>
      <trkpt lat="45.1042" lon="6.03882">
        <ele>1372</ele>
        <time>2020-09-05T05:26:02Z</time>
      </trkpt>
      <trkpt lat="45.10416" lon="6.03883">
        <ele>1372</ele>
        <time>2020-09-05T05:26:03Z</time>
      </trkpt>
      <trkpt lat="45.10413" lon="6.03885">
        <ele>1372</ele>
        <time>2020-09-05T05:26:04Z</time>
      </trkpt>
      <trkpt lat="45.1041" lon="6.03886">
        <ele>1372</ele>
        <time>2020-09-05T05:26:05Z</time>
      </trkpt>
      <trkpt lat="45.10407" lon="6.03887">
        <ele>1372.2</ele>
        <time>2020-09-05T05:26:06Z</time>
      </trkpt>
      <trkpt lat="45.10404" lon="6.03889">
        <ele>1372.2</ele>
        <time>2020-09-05T05:26:07Z</time>
      </trkpt>
      <trkpt lat="45.10401" lon="6.0389">
        <ele>1372.4</ele>
        <time>2020-09-05T05:26:08Z</time>
      </trkpt>
      <trkpt lat="45.10398" lon="6.03891">
        <ele>1372.4</ele>
        <time>2020-09-05T05:26:09Z</time>
      </trkpt>
      <trkpt lat="45.10395" lon="6.03892">
        <ele>1372.8</ele>
        <time>2020-09-05T05:26:10Z</time>
      </trkpt>
      <trkpt lat="45.10392" lon="6.03892">
        <ele>1372.8</ele>
        <time>2020-09-05T05:26:11Z</time>
      </trkpt>
      <trkpt lat="45.10388" lon="6.03892">
        <ele>1373</ele>
        <time>2020-09-05T05:26:12Z</time>
      </trkpt>
      <trkpt lat="45.10385" lon="6.03892">
        <ele>1373</ele>
        <time>2020-09-05T05:26:13Z</time>
      </trkpt>
      <trkpt lat="45.10382" lon="6.0389">
        <ele>1373.2</ele>
        <time>2020-09-05T05:26:14Z</time>
      </trkpt>
      <trkpt lat="45.10379" lon="6.03889">
        <ele>1373.4</ele>
        <time>2020-09-05T05:26:15Z</time>
      </trkpt>
      <trkpt lat="45.10369" lon="6.03884">
        <ele>1373.4</ele>
        <time>2020-09-05T05:26:18Z</time>
      </trkpt>
      <trkpt lat="45.10359" lon="6.03877">
        <ele>1374</ele>
        <time>2020-09-05T05:26:21Z</time>
      </trkpt>
      <trkpt lat="45.10354" lon="6.03865">
        <ele>1374.2</ele>
        <time>2020-09-05T05:26:24Z</time>
      </trkpt>
      <trkpt lat="45.10349" lon="6.03847">
        <ele>1374.8</ele>
        <time>2020-09-05T05:26:27Z</time>
      </trkpt>
      <trkpt lat="45.10344" lon="6.03833">
        <ele>1375.2</ele>
        <time>2020-09-05T05:26:29Z</time>
      </trkpt>
      <trkpt lat="45.10342" lon="6.03828">
        <ele>1375.4</ele>
        <time>2020-09-05T05:26:30Z</time>
      </trkpt>
      <trkpt lat="45.10336" lon="6.03816">
        <ele>1376</ele>
        <time>2020-09-05T05:26:33Z</time>
      </trkpt>
      <trkpt lat="45.10331" lon="6.03807">
        <ele>1376.4</ele>
        <time>2020-09-05T05:26:35Z</time>
      </trkpt>
      <trkpt lat="45.10328" lon="6.03804">
        <ele>1376.8</ele>
        <time>2020-09-05T05:26:36Z</time>
      </trkpt>
      <trkpt lat="45.10325" lon="6.038">
        <ele>1377.2</ele>
        <time>2020-09-05T05:26:37Z</time>
      </trkpt>
      <trkpt lat="45.10322" lon="6.03796">
        <ele>1377.4</ele>
        <time>2020-09-05T05:26:38Z</time>
      </trkpt>
      <trkpt lat="45.10319" lon="6.03793">
        <ele>1377.4</ele>
        <time>2020-09-05T05:26:39Z</time>
      </trkpt>
      <trkpt lat="45.10316" lon="6.0379">
        <ele>1377.8</ele>
        <time>2020-09-05T05:26:40Z</time>
      </trkpt>
      <trkpt lat="45.10313" lon="6.03787">
        <ele>1377.8</ele>
        <time>2020-09-05T05:26:41Z</time>
      </trkpt>
      <trkpt lat="45.1031" lon="6.03784">
        <ele>1378</ele>
        <time>2020-09-05T05:26:42Z</time>
      </trkpt>
      <trkpt lat="45.10307" lon="6.03781">
        <ele>1378.2</ele>
        <time>2020-09-05T05:26:43Z</time>
      </trkpt>
      <trkpt lat="45.10304" lon="6.03778">
        <ele>1378.2</ele>
        <time>2020-09-05T05:26:44Z</time>
      </trkpt>
      <trkpt lat="45.10301" lon="6.03776">
        <ele>1378.4</ele>
        <time>2020-09-05T05:26:45Z</time>
      </trkpt>
      <trkpt lat="45.10298" lon="6.03773">
        <ele>1378.8</ele>
        <time>2020-09-05T05:26:46Z</time>
      </trkpt>
      <trkpt lat="45.10295" lon="6.03769">
        <ele>1379.2</ele>
        <time>2020-09-05T05:26:47Z</time>
      </trkpt>
      <trkpt lat="45.10292" lon="6.03766">
        <ele>1379</ele>
        <time>2020-09-05T05:26:48Z</time>
      </trkpt>
      <trkpt lat="45.10289" lon="6.03763">
        <ele>1379.4</ele>
        <time>2020-09-05T05:26:49Z</time>
      </trkpt>
      <trkpt lat="45.10287" lon="6.0376">
        <ele>1379.6</ele>
        <time>2020-09-05T05:26:50Z</time>
      </trkpt>
      <trkpt lat="45.10285" lon="6.03757">
        <ele>1379.6</ele>
        <time>2020-09-05T05:26:51Z</time>
      </trkpt>
      <trkpt lat="45.10282" lon="6.03753">
        <ele>1379.8</ele>
        <time>2020-09-05T05:26:52Z</time>
      </trkpt>
      <trkpt lat="45.1028" lon="6.0375">
        <ele>1380</ele>
        <time>2020-09-05T05:26:53Z</time>
      </trkpt>
      <trkpt lat="45.10276" lon="6.03742">
        <ele>1380.4</ele>
        <time>2020-09-05T05:26:55Z</time>
      </trkpt>
      <trkpt lat="45.10274" lon="6.03738">
        <ele>1380.6</ele>
        <time>2020-09-05T05:26:56Z</time>
      </trkpt>
      <trkpt lat="45.10272" lon="6.03734">
        <ele>1381</ele>
        <time>2020-09-05T05:26:57Z</time>
      </trkpt>
      <trkpt lat="45.10268" lon="6.03723">
        <ele>1381.4</ele>
        <time>2020-09-05T05:27:00Z</time>
      </trkpt>
      <trkpt lat="45.10263" lon="6.03714">
        <ele>1382</ele>
        <time>2020-09-05T05:27:02Z</time>
      </trkpt>
      <trkpt lat="45.1026" lon="6.0371">
        <ele>1382</ele>
        <time>2020-09-05T05:27:03Z</time>
      </trkpt>
      <trkpt lat="45.10256" lon="6.03702">
        <ele>1382.4</ele>
        <time>2020-09-05T05:27:05Z</time>
      </trkpt>
      <trkpt lat="45.10251" lon="6.03694">
        <ele>1382.8</ele>
        <time>2020-09-05T05:27:07Z</time>
      </trkpt>
      <trkpt lat="45.10248" lon="6.0369">
        <ele>1383</ele>
        <time>2020-09-05T05:27:08Z</time>
      </trkpt>
      <trkpt lat="45.10245" lon="6.03687">
        <ele>1383.2</ele>
        <time>2020-09-05T05:27:09Z</time>
      </trkpt>
      <trkpt lat="45.10243" lon="6.03683">
        <ele>1383.4</ele>
        <time>2020-09-05T05:27:10Z</time>
      </trkpt>
      <trkpt lat="45.1024" lon="6.0368">
        <ele>1383.8</ele>
        <time>2020-09-05T05:27:11Z</time>
      </trkpt>
      <trkpt lat="45.10237" lon="6.03677">
        <ele>1384.2</ele>
        <time>2020-09-05T05:27:12Z</time>
      </trkpt>
      <trkpt lat="45.10235" lon="6.03675">
        <ele>1384.2</ele>
        <time>2020-09-05T05:27:13Z</time>
      </trkpt>
      <trkpt lat="45.10232" lon="6.03672">
        <ele>1384.6</ele>
        <time>2020-09-05T05:27:14Z</time>
      </trkpt>
      <trkpt lat="45.10229" lon="6.0367">
        <ele>1384.8</ele>
        <time>2020-09-05T05:27:15Z</time>
      </trkpt>
      <trkpt lat="45.10226" lon="6.03668">
        <ele>1385.2</ele>
        <time>2020-09-05T05:27:16Z</time>
      </trkpt>
      <trkpt lat="45.10223" lon="6.03666">
        <ele>1385.6</ele>
        <time>2020-09-05T05:27:17Z</time>
      </trkpt>
      <trkpt lat="45.10219" lon="6.03665">
        <ele>1385.8</ele>
        <time>2020-09-05T05:27:18Z</time>
      </trkpt>
      <trkpt lat="45.10216" lon="6.03664">
        <ele>1386</ele>
        <time>2020-09-05T05:27:19Z</time>
      </trkpt>
      <trkpt lat="45.10213" lon="6.03663">
        <ele>1386.2</ele>
        <time>2020-09-05T05:27:20Z</time>
      </trkpt>
      <trkpt lat="45.1021" lon="6.03662">
        <ele>1386.4</ele>
        <time>2020-09-05T05:27:21Z</time>
      </trkpt>
      <trkpt lat="45.10207" lon="6.03661">
        <ele>1386.8</ele>
        <time>2020-09-05T05:27:22Z</time>
      </trkpt>
      <trkpt lat="45.10204" lon="6.0366">
        <ele>1387</ele>
        <time>2020-09-05T05:27:23Z</time>
      </trkpt>
      <trkpt lat="45.102" lon="6.03659">
        <ele>1387.4</ele>
        <time>2020-09-05T05:27:24Z</time>
      </trkpt>
      <trkpt lat="45.10197" lon="6.03658">
        <ele>1387.6</ele>
        <time>2020-09-05T05:27:25Z</time>
      </trkpt>
      <trkpt lat="45.10194" lon="6.03658">
        <ele>1387.8</ele>
        <time>2020-09-05T05:27:26Z</time>
      </trkpt>
      <trkpt lat="45.1019" lon="6.03657">
        <ele>1388</ele>
        <time>2020-09-05T05:27:27Z</time>
      </trkpt>
      <trkpt lat="45.10187" lon="6.03656">
        <ele>1388.2</ele>
        <time>2020-09-05T05:27:28Z</time>
      </trkpt>
      <trkpt lat="45.10184" lon="6.03655">
        <ele>1388.6</ele>
        <time>2020-09-05T05:27:29Z</time>
      </trkpt>
      <trkpt lat="45.1018" lon="6.03653">
        <ele>1388.6</ele>
        <time>2020-09-05T05:27:30Z</time>
      </trkpt>
      <trkpt lat="45.10177" lon="6.03652">
        <ele>1389</ele>
        <time>2020-09-05T05:27:31Z</time>
      </trkpt>
      <trkpt lat="45.10174" lon="6.03651">
        <ele>1389.2</ele>
        <time>2020-09-05T05:27:32Z</time>
      </trkpt>
      <trkpt lat="45.10171" lon="6.0365">
        <ele>1389.4</ele>
        <time>2020-09-05T05:27:33Z</time>
      </trkpt>
      <trkpt lat="45.10168" lon="6.03649">
        <ele>1389.6</ele>
        <time>2020-09-05T05:27:34Z</time>
      </trkpt>
      <trkpt lat="45.10165" lon="6.03648">
        <ele>1389.8</ele>
        <time>2020-09-05T05:27:35Z</time>
      </trkpt>
      <trkpt lat="45.10162" lon="6.03648">
        <ele>1390</ele>
        <time>2020-09-05T05:27:36Z</time>
      </trkpt>
      <trkpt lat="45.1016" lon="6.03647">
        <ele>1390.4</ele>
        <time>2020-09-05T05:27:37Z</time>
      </trkpt>
      <trkpt lat="45.10157" lon="6.03646">
        <ele>1390.4</ele>
        <time>2020-09-05T05:27:38Z</time>
      </trkpt>
      <trkpt lat="45.10154" lon="6.03645">
        <ele>1390.6</ele>
        <time>2020-09-05T05:27:39Z</time>
      </trkpt>
      <trkpt lat="45.10151" lon="6.03644">
        <ele>1390.8</ele>
        <time>2020-09-05T05:27:40Z</time>
      </trkpt>
      <trkpt lat="45.10149" lon="6.03643">
        <ele>1391</ele>
        <time>2020-09-05T05:27:41Z</time>
      </trkpt>
      <trkpt lat="45.10146" lon="6.03641">
        <ele>1391.2</ele>
        <time>2020-09-05T05:27:42Z</time>
      </trkpt>
      <trkpt lat="45.10143" lon="6.0364">
        <ele>1391.2</ele>
        <time>2020-09-05T05:27:43Z</time>
      </trkpt>
      <trkpt lat="45.1014" lon="6.03638">
        <ele>1391.6</ele>
        <time>2020-09-05T05:27:44Z</time>
      </trkpt>
      <trkpt lat="45.10137" lon="6.03637">
        <ele>1391.8</ele>
        <time>2020-09-05T05:27:45Z</time>
      </trkpt>
      <trkpt lat="45.10134" lon="6.03636">
        <ele>1391.8</ele>
        <time>2020-09-05T05:27:46Z</time>
      </trkpt>
      <trkpt lat="45.10131" lon="6.03634">
        <ele>1392.2</ele>
        <time>2020-09-05T05:27:47Z</time>
      </trkpt>
      <trkpt lat="45.10129" lon="6.03633">
        <ele>1392.4</ele>
        <time>2020-09-05T05:27:48Z</time>
      </trkpt>
      <trkpt lat="45.10126" lon="6.03631">
        <ele>1392.6</ele>
        <time>2020-09-05T05:27:49Z</time>
      </trkpt>
      <trkpt lat="45.10122" lon="6.0363">
        <ele>1393</ele>
        <time>2020-09-05T05:27:50Z</time>
      </trkpt>
      <trkpt lat="45.10119" lon="6.03628">
        <ele>1393</ele>
        <time>2020-09-05T05:27:51Z</time>
      </trkpt>
      <trkpt lat="45.10116" lon="6.03626">
        <ele>1393.2</ele>
        <time>2020-09-05T05:27:52Z</time>
      </trkpt>
      <trkpt lat="45.10113" lon="6.03624">
        <ele>1393.4</ele>
        <time>2020-09-05T05:27:53Z</time>
      </trkpt>
      <trkpt lat="45.1011" lon="6.03622">
        <ele>1393.6</ele>
        <time>2020-09-05T05:27:54Z</time>
      </trkpt>
      <trkpt lat="45.10107" lon="6.0362">
        <ele>1393.8</ele>
        <time>2020-09-05T05:27:55Z</time>
      </trkpt>
      <trkpt lat="45.10104" lon="6.03617">
        <ele>1394.2</ele>
        <time>2020-09-05T05:27:56Z</time>
      </trkpt>
      <trkpt lat="45.10101" lon="6.03615">
        <ele>1394.2</ele>
        <time>2020-09-05T05:27:57Z</time>
      </trkpt>
      <trkpt lat="45.10098" lon="6.03612">
        <ele>1394.4</ele>
        <time>2020-09-05T05:27:58Z</time>
      </trkpt>
      <trkpt lat="45.10096" lon="6.03609">
        <ele>1394.6</ele>
        <time>2020-09-05T05:27:59Z</time>
      </trkpt>
      <trkpt lat="45.10093" lon="6.03606">
        <ele>1394.6</ele>
        <time>2020-09-05T05:28:00Z</time>
      </trkpt>
      <trkpt lat="45.10091" lon="6.03602">
        <ele>1394.6</ele>
        <time>2020-09-05T05:28:01Z</time>
      </trkpt>
      <trkpt lat="45.1009" lon="6.03599">
        <ele>1394.8</ele>
        <time>2020-09-05T05:28:02Z</time>
      </trkpt>
      <trkpt lat="45.10088" lon="6.03596">
        <ele>1395</ele>
        <time>2020-09-05T05:28:03Z</time>
      </trkpt>
      <trkpt lat="45.10087" lon="6.03593">
        <ele>1395.2</ele>
        <time>2020-09-05T05:28:04Z</time>
      </trkpt>
      <trkpt lat="45.10085" lon="6.03589">
        <ele>1395.4</ele>
        <time>2020-09-05T05:28:05Z</time>
      </trkpt>
      <trkpt lat="45.10083" lon="6.03584">
        <ele>1395.6</ele>
        <time>2020-09-05T05:28:06Z</time>
      </trkpt>
      <trkpt lat="45.10081" lon="6.0358">
        <ele>1395.8</ele>
        <time>2020-09-05T05:28:07Z</time>
      </trkpt>
      <trkpt lat="45.10079" lon="6.03575">
        <ele>1396</ele>
        <time>2020-09-05T05:28:08Z</time>
      </trkpt>
      <trkpt lat="45.10077" lon="6.0357">
        <ele>1396.2</ele>
        <time>2020-09-05T05:28:09Z</time>
      </trkpt>
      <trkpt lat="45.10075" lon="6.03566">
        <ele>1396.2</ele>
        <time>2020-09-05T05:28:10Z</time>
      </trkpt>
      <trkpt lat="45.10072" lon="6.03561">
        <ele>1396.2</ele>
        <time>2020-09-05T05:28:11Z</time>
      </trkpt>
      <trkpt lat="45.1007" lon="6.03556">
        <ele>1396.6</ele>
        <time>2020-09-05T05:28:12Z</time>
      </trkpt>
      <trkpt lat="45.10067" lon="6.03552">
        <ele>1396.6</ele>
        <time>2020-09-05T05:28:13Z</time>
      </trkpt>
      <trkpt lat="45.10065" lon="6.03548">
        <ele>1397</ele>
        <time>2020-09-05T05:28:14Z</time>
      </trkpt>
      <trkpt lat="45.10062" lon="6.03544">
        <ele>1397.2</ele>
        <time>2020-09-05T05:28:15Z</time>
      </trkpt>
      <trkpt lat="45.10058" lon="6.0354">
        <ele>1397.4</ele>
        <time>2020-09-05T05:28:16Z</time>
      </trkpt>
      <trkpt lat="45.10055" lon="6.03536">
        <ele>1397.8</ele>
        <time>2020-09-05T05:28:17Z</time>
      </trkpt>
      <trkpt lat="45.10051" lon="6.03531">
        <ele>1397.8</ele>
        <time>2020-09-05T05:28:18Z</time>
      </trkpt>
      <trkpt lat="45.10048" lon="6.03528">
        <ele>1398.2</ele>
        <time>2020-09-05T05:28:19Z</time>
      </trkpt>
      <trkpt lat="45.10045" lon="6.03524">
        <ele>1398.4</ele>
        <time>2020-09-05T05:28:20Z</time>
      </trkpt>
      <trkpt lat="45.10041" lon="6.03521">
        <ele>1398.6</ele>
        <time>2020-09-05T05:28:21Z</time>
      </trkpt>
      <trkpt lat="45.10038" lon="6.03518">
        <ele>1398.8</ele>
        <time>2020-09-05T05:28:22Z</time>
      </trkpt>
      <trkpt lat="45.10035" lon="6.03515">
        <ele>1399.2</ele>
        <time>2020-09-05T05:28:23Z</time>
      </trkpt>
      <trkpt lat="45.10032" lon="6.03512">
        <ele>1399.4</ele>
        <time>2020-09-05T05:28:24Z</time>
      </trkpt>
      <trkpt lat="45.10029" lon="6.03509">
        <ele>1399.6</ele>
        <time>2020-09-05T05:28:25Z</time>
      </trkpt>
      <trkpt lat="45.10026" lon="6.03507">
        <ele>1399.8</ele>
        <time>2020-09-05T05:28:26Z</time>
      </trkpt>
      <trkpt lat="45.10023" lon="6.03504">
        <ele>1399.8</ele>
        <time>2020-09-05T05:28:27Z</time>
      </trkpt>
      <trkpt lat="45.1002" lon="6.03501">
        <ele>1399.8</ele>
        <time>2020-09-05T05:28:28Z</time>
      </trkpt>
      <trkpt lat="45.10018" lon="6.03498">
        <ele>1400.4</ele>
        <time>2020-09-05T05:28:29Z</time>
      </trkpt>
      <trkpt lat="45.10015" lon="6.03495">
        <ele>1400.6</ele>
        <time>2020-09-05T05:28:30Z</time>
      </trkpt>
      <trkpt lat="45.10012" lon="6.03492">
        <ele>1400.8</ele>
        <time>2020-09-05T05:28:31Z</time>
      </trkpt>
      <trkpt lat="45.10009" lon="6.03489">
        <ele>1401</ele>
        <time>2020-09-05T05:28:32Z</time>
      </trkpt>
      <trkpt lat="45.10006" lon="6.03486">
        <ele>1401.2</ele>
        <time>2020-09-05T05:28:33Z</time>
      </trkpt>
      <trkpt lat="45.10003" lon="6.03482">
        <ele>1401.4</ele>
        <time>2020-09-05T05:28:34Z</time>
      </trkpt>
      <trkpt lat="45.10001" lon="6.03479">
        <ele>1401.6</ele>
        <time>2020-09-05T05:28:35Z</time>
      </trkpt>
      <trkpt lat="45.09998" lon="6.03475">
        <ele>1402</ele>
        <time>2020-09-05T05:28:36Z</time>
      </trkpt>
      <trkpt lat="45.09995" lon="6.03472">
        <ele>1402.2</ele>
        <time>2020-09-05T05:28:37Z</time>
      </trkpt>
      <trkpt lat="45.09992" lon="6.03468">
        <ele>1402.4</ele>
        <time>2020-09-05T05:28:38Z</time>
      </trkpt>
      <trkpt lat="45.09989" lon="6.03464">
        <ele>1402.8</ele>
        <time>2020-09-05T05:28:39Z</time>
      </trkpt>
      <trkpt lat="45.09987" lon="6.0346">
        <ele>1403</ele>
        <time>2020-09-05T05:28:40Z</time>
      </trkpt>
      <trkpt lat="45.09984" lon="6.03456">
        <ele>1403.2</ele>
        <time>2020-09-05T05:28:41Z</time>
      </trkpt>
      <trkpt lat="45.09982" lon="6.03452">
        <ele>1403.4</ele>
        <time>2020-09-05T05:28:42Z</time>
      </trkpt>
      <trkpt lat="45.09979" lon="6.03449">
        <ele>1403.6</ele>
        <time>2020-09-05T05:28:43Z</time>
      </trkpt>
      <trkpt lat="45.09976" lon="6.03445">
        <ele>1403.8</ele>
        <time>2020-09-05T05:28:44Z</time>
      </trkpt>
      <trkpt lat="45.09974" lon="6.03441">
        <ele>1404.2</ele>
        <time>2020-09-05T05:28:45Z</time>
      </trkpt>
      <trkpt lat="45.09971" lon="6.03437">
        <ele>1404.2</ele>
        <time>2020-09-05T05:28:46Z</time>
      </trkpt>
      <trkpt lat="45.09968" lon="6.03433">
        <ele>1404.4</ele>
        <time>2020-09-05T05:28:47Z</time>
      </trkpt>
      <trkpt lat="45.09966" lon="6.0343">
        <ele>1404.8</ele>
        <time>2020-09-05T05:28:48Z</time>
      </trkpt>
      <trkpt lat="45.09963" lon="6.03426">
        <ele>1405</ele>
        <time>2020-09-05T05:28:49Z</time>
      </trkpt>
      <trkpt lat="45.0996" lon="6.03422">
        <ele>1405.2</ele>
        <time>2020-09-05T05:28:50Z</time>
      </trkpt>
      <trkpt lat="45.09958" lon="6.03419">
        <ele>1405.8</ele>
        <time>2020-09-05T05:28:51Z</time>
      </trkpt>
      <trkpt lat="45.09954" lon="6.03416">
        <ele>1405.8</ele>
        <time>2020-09-05T05:28:52Z</time>
      </trkpt>
      <trkpt lat="45.09951" lon="6.03413">
        <ele>1406</ele>
        <time>2020-09-05T05:28:53Z</time>
      </trkpt>
      <trkpt lat="45.09948" lon="6.0341">
        <ele>1406.4</ele>
        <time>2020-09-05T05:28:54Z</time>
      </trkpt>
      <trkpt lat="45.09945" lon="6.03407">
        <ele>1406.6</ele>
        <time>2020-09-05T05:28:55Z</time>
      </trkpt>
      <trkpt lat="45.09942" lon="6.03404">
        <ele>1406.6</ele>
        <time>2020-09-05T05:28:56Z</time>
      </trkpt>
      <trkpt lat="45.09938" lon="6.03402">
        <ele>1406.8</ele>
        <time>2020-09-05T05:28:57Z</time>
      </trkpt>
      <trkpt lat="45.09935" lon="6.03399">
        <ele>1407.2</ele>
        <time>2020-09-05T05:28:58Z</time>
      </trkpt>
      <trkpt lat="45.09931" lon="6.03396">
        <ele>1407.6</ele>
        <time>2020-09-05T05:28:59Z</time>
      </trkpt>
      <trkpt lat="45.09928" lon="6.03394">
        <ele>1407.8</ele>
        <time>2020-09-05T05:29:00Z</time>
      </trkpt>
      <trkpt lat="45.09924" lon="6.03391">
        <ele>1408</ele>
        <time>2020-09-05T05:29:01Z</time>
      </trkpt>
      <trkpt lat="45.09921" lon="6.03388">
        <ele>1408.2</ele>
        <time>2020-09-05T05:29:02Z</time>
      </trkpt>
      <trkpt lat="45.09918" lon="6.03385">
        <ele>1408.4</ele>
        <time>2020-09-05T05:29:03Z</time>
      </trkpt>
      <trkpt lat="45.09915" lon="6.03382">
        <ele>1408.8</ele>
        <time>2020-09-05T05:29:04Z</time>
      </trkpt>
      <trkpt lat="45.09912" lon="6.03379">
        <ele>1409</ele>
        <time>2020-09-05T05:29:05Z</time>
      </trkpt>
      <trkpt lat="45.09909" lon="6.03376">
        <ele>1409.2</ele>
        <time>2020-09-05T05:29:06Z</time>
      </trkpt>
      <trkpt lat="45.09906" lon="6.03373">
        <ele>1409.4</ele>
        <time>2020-09-05T05:29:07Z</time>
      </trkpt>
      <trkpt lat="45.09904" lon="6.0337">
        <ele>1409.8</ele>
        <time>2020-09-05T05:29:08Z</time>
      </trkpt>
      <trkpt lat="45.09901" lon="6.03366">
        <ele>1410.2</ele>
        <time>2020-09-05T05:29:09Z</time>
      </trkpt>
      <trkpt lat="45.09898" lon="6.03363">
        <ele>1410.4</ele>
        <time>2020-09-05T05:29:10Z</time>
      </trkpt>
      <trkpt lat="45.09895" lon="6.0336">
        <ele>1410.6</ele>
        <time>2020-09-05T05:29:11Z</time>
      </trkpt>
      <trkpt lat="45.09892" lon="6.03357">
        <ele>1410.8</ele>
        <time>2020-09-05T05:29:12Z</time>
      </trkpt>
      <trkpt lat="45.09889" lon="6.03355">
        <ele>1411</ele>
        <time>2020-09-05T05:29:13Z</time>
      </trkpt>
      <trkpt lat="45.09886" lon="6.03352">
        <ele>1411</ele>
        <time>2020-09-05T05:29:14Z</time>
      </trkpt>
      <trkpt lat="45.09882" lon="6.03349">
        <ele>1411.4</ele>
        <time>2020-09-05T05:29:15Z</time>
      </trkpt>
      <trkpt lat="45.09879" lon="6.03347">
        <ele>1411.6</ele>
        <time>2020-09-05T05:29:16Z</time>
      </trkpt>
      <trkpt lat="45.09876" lon="6.03344">
        <ele>1411.8</ele>
        <time>2020-09-05T05:29:17Z</time>
      </trkpt>
      <trkpt lat="45.09873" lon="6.03342">
        <ele>1412</ele>
        <time>2020-09-05T05:29:18Z</time>
      </trkpt>
      <trkpt lat="45.09869" lon="6.03339">
        <ele>1412.2</ele>
        <time>2020-09-05T05:29:19Z</time>
      </trkpt>
      <trkpt lat="45.09866" lon="6.03337">
        <ele>1412.4</ele>
        <time>2020-09-05T05:29:20Z</time>
      </trkpt>
      <trkpt lat="45.09863" lon="6.03335">
        <ele>1412.8</ele>
        <time>2020-09-05T05:29:21Z</time>
      </trkpt>
      <trkpt lat="45.09859" lon="6.03333">
        <ele>1413</ele>
        <time>2020-09-05T05:29:22Z</time>
      </trkpt>
      <trkpt lat="45.09856" lon="6.03331">
        <ele>1413.2</ele>
        <time>2020-09-05T05:29:23Z</time>
      </trkpt>
      <trkpt lat="45.09853" lon="6.03329">
        <ele>1413.4</ele>
        <time>2020-09-05T05:29:24Z</time>
      </trkpt>
      <trkpt lat="45.09849" lon="6.03327">
        <ele>1413.4</ele>
        <time>2020-09-05T05:29:25Z</time>
      </trkpt>
      <trkpt lat="45.09846" lon="6.03326">
        <ele>1413.4</ele>
        <time>2020-09-05T05:29:26Z</time>
      </trkpt>
      <trkpt lat="45.09842" lon="6.03325">
        <ele>1413.6</ele>
        <time>2020-09-05T05:29:27Z</time>
      </trkpt>
      <trkpt lat="45.09838" lon="6.03325">
        <ele>1413.8</ele>
        <time>2020-09-05T05:29:28Z</time>
      </trkpt>
      <trkpt lat="45.09835" lon="6.03324">
        <ele>1414.2</ele>
        <time>2020-09-05T05:29:29Z</time>
      </trkpt>
      <trkpt lat="45.09831" lon="6.03324">
        <ele>1414.4</ele>
        <time>2020-09-05T05:29:30Z</time>
      </trkpt>
      <trkpt lat="45.09827" lon="6.03324">
        <ele>1414.6</ele>
        <time>2020-09-05T05:29:31Z</time>
      </trkpt>
      <trkpt lat="45.09824" lon="6.03325">
        <ele>1415</ele>
        <time>2020-09-05T05:29:32Z</time>
      </trkpt>
      <trkpt lat="45.0982" lon="6.03325">
        <ele>1415.2</ele>
        <time>2020-09-05T05:29:33Z</time>
      </trkpt>
      <trkpt lat="45.09817" lon="6.03326">
        <ele>1415.2</ele>
        <time>2020-09-05T05:29:34Z</time>
      </trkpt>
      <trkpt lat="45.09813" lon="6.03326">
        <ele>1415.4</ele>
        <time>2020-09-05T05:29:35Z</time>
      </trkpt>
      <trkpt lat="45.0981" lon="6.03327">
        <ele>1415.6</ele>
        <time>2020-09-05T05:29:36Z</time>
      </trkpt>
      <trkpt lat="45.09803" lon="6.03328">
        <ele>1416</ele>
        <time>2020-09-05T05:29:38Z</time>
      </trkpt>
      <trkpt lat="45.098" lon="6.03329">
        <ele>1416.4</ele>
        <time>2020-09-05T05:29:39Z</time>
      </trkpt>
      <trkpt lat="45.09797" lon="6.03329">
        <ele>1416.6</ele>
        <time>2020-09-05T05:29:40Z</time>
      </trkpt>
      <trkpt lat="45.09794" lon="6.0333">
        <ele>1416.8</ele>
        <time>2020-09-05T05:29:41Z</time>
      </trkpt>
      <trkpt lat="45.0979" lon="6.0333">
        <ele>1416.8</ele>
        <time>2020-09-05T05:29:42Z</time>
      </trkpt>
      <trkpt lat="45.09787" lon="6.0333">
        <ele>1417</ele>
        <time>2020-09-05T05:29:43Z</time>
      </trkpt>
      <trkpt lat="45.09784" lon="6.03329">
        <ele>1417.4</ele>
        <time>2020-09-05T05:29:44Z</time>
      </trkpt>
      <trkpt lat="45.09781" lon="6.03328">
        <ele>1417.8</ele>
        <time>2020-09-05T05:29:45Z</time>
      </trkpt>
      <trkpt lat="45.09778" lon="6.03327">
        <ele>1418</ele>
        <time>2020-09-05T05:29:46Z</time>
      </trkpt>
      <trkpt lat="45.09776" lon="6.03326">
        <ele>1418.2</ele>
        <time>2020-09-05T05:29:47Z</time>
      </trkpt>
      <trkpt lat="45.09773" lon="6.03324">
        <ele>1418.4</ele>
        <time>2020-09-05T05:29:48Z</time>
      </trkpt>
      <trkpt lat="45.09771" lon="6.03322">
        <ele>1418.8</ele>
        <time>2020-09-05T05:29:49Z</time>
      </trkpt>
      <trkpt lat="45.09768" lon="6.0332">
        <ele>1419</ele>
        <time>2020-09-05T05:29:50Z</time>
      </trkpt>
      <trkpt lat="45.09766" lon="6.03318">
        <ele>1419.2</ele>
        <time>2020-09-05T05:29:51Z</time>
      </trkpt>
      <trkpt lat="45.09764" lon="6.03316">
        <ele>1419.6</ele>
        <time>2020-09-05T05:29:52Z</time>
      </trkpt>
      <trkpt lat="45.09761" lon="6.03313">
        <ele>1419.8</ele>
        <time>2020-09-05T05:29:53Z</time>
      </trkpt>
      <trkpt lat="45.09759" lon="6.03311">
        <ele>1420</ele>
        <time>2020-09-05T05:29:54Z</time>
      </trkpt>
      <trkpt lat="45.09756" lon="6.03309">
        <ele>1420.4</ele>
        <time>2020-09-05T05:29:55Z</time>
      </trkpt>
      <trkpt lat="45.09754" lon="6.03306">
        <ele>1420.6</ele>
        <time>2020-09-05T05:29:56Z</time>
      </trkpt>
      <trkpt lat="45.09751" lon="6.03303">
        <ele>1420.8</ele>
        <time>2020-09-05T05:29:57Z</time>
      </trkpt>
      <trkpt lat="45.09749" lon="6.03301">
        <ele>1421</ele>
        <time>2020-09-05T05:29:58Z</time>
      </trkpt>
      <trkpt lat="45.09746" lon="6.03298">
        <ele>1421.2</ele>
        <time>2020-09-05T05:29:59Z</time>
      </trkpt>
      <trkpt lat="45.09744" lon="6.03295">
        <ele>1421.6</ele>
        <time>2020-09-05T05:30:00Z</time>
      </trkpt>
      <trkpt lat="45.09741" lon="6.03292">
        <ele>1422</ele>
        <time>2020-09-05T05:30:01Z</time>
      </trkpt>
      <trkpt lat="45.09739" lon="6.03289">
        <ele>1422</ele>
        <time>2020-09-05T05:30:02Z</time>
      </trkpt>
      <trkpt lat="45.09737" lon="6.03286">
        <ele>1422</ele>
        <time>2020-09-05T05:30:03Z</time>
      </trkpt>
      <trkpt lat="45.09734" lon="6.03283">
        <ele>1422.4</ele>
        <time>2020-09-05T05:30:04Z</time>
      </trkpt>
      <trkpt lat="45.09732" lon="6.03281">
        <ele>1422.4</ele>
        <time>2020-09-05T05:30:05Z</time>
      </trkpt>
      <trkpt lat="45.09729" lon="6.03278">
        <ele>1422.6</ele>
        <time>2020-09-05T05:30:06Z</time>
      </trkpt>
      <trkpt lat="45.09727" lon="6.03275">
        <ele>1422.8</ele>
        <time>2020-09-05T05:30:07Z</time>
      </trkpt>
      <trkpt lat="45.09725" lon="6.03272">
        <ele>1423.2</ele>
        <time>2020-09-05T05:30:08Z</time>
      </trkpt>
      <trkpt lat="45.09723" lon="6.03269">
        <ele>1423.4</ele>
        <time>2020-09-05T05:30:09Z</time>
      </trkpt>
      <trkpt lat="45.0972" lon="6.03267">
        <ele>1423.6</ele>
        <time>2020-09-05T05:30:10Z</time>
      </trkpt>
      <trkpt lat="45.09718" lon="6.03264">
        <ele>1424</ele>
        <time>2020-09-05T05:30:11Z</time>
      </trkpt>
      <trkpt lat="45.09716" lon="6.03261">
        <ele>1424</ele>
        <time>2020-09-05T05:30:12Z</time>
      </trkpt>
      <trkpt lat="45.09713" lon="6.03258">
        <ele>1424.4</ele>
        <time>2020-09-05T05:30:13Z</time>
      </trkpt>
      <trkpt lat="45.09711" lon="6.03255">
        <ele>1424.6</ele>
        <time>2020-09-05T05:30:14Z</time>
      </trkpt>
      <trkpt lat="45.09708" lon="6.03253">
        <ele>1424.8</ele>
        <time>2020-09-05T05:30:15Z</time>
      </trkpt>
      <trkpt lat="45.09706" lon="6.0325">
        <ele>1424.8</ele>
        <time>2020-09-05T05:30:16Z</time>
      </trkpt>
      <trkpt lat="45.09703" lon="6.03247">
        <ele>1424.8</ele>
        <time>2020-09-05T05:30:17Z</time>
      </trkpt>
      <trkpt lat="45.09701" lon="6.03244">
        <ele>1425</ele>
        <time>2020-09-05T05:30:18Z</time>
      </trkpt>
      <trkpt lat="45.09698" lon="6.03241">
        <ele>1425.2</ele>
        <time>2020-09-05T05:30:19Z</time>
      </trkpt>
      <trkpt lat="45.09696" lon="6.03238">
        <ele>1425.6</ele>
        <time>2020-09-05T05:30:20Z</time>
      </trkpt>
      <trkpt lat="45.09693" lon="6.03235">
        <ele>1425.8</ele>
        <time>2020-09-05T05:30:21Z</time>
      </trkpt>
      <trkpt lat="45.09691" lon="6.03232">
        <ele>1426</ele>
        <time>2020-09-05T05:30:22Z</time>
      </trkpt>
      <trkpt lat="45.09688" lon="6.03229">
        <ele>1426.4</ele>
        <time>2020-09-05T05:30:23Z</time>
      </trkpt>
      <trkpt lat="45.09686" lon="6.03226">
        <ele>1426.6</ele>
        <time>2020-09-05T05:30:24Z</time>
      </trkpt>
      <trkpt lat="45.09683" lon="6.03223">
        <ele>1426.8</ele>
        <time>2020-09-05T05:30:25Z</time>
      </trkpt>
      <trkpt lat="45.09681" lon="6.03221">
        <ele>1427</ele>
        <time>2020-09-05T05:30:26Z</time>
      </trkpt>
      <trkpt lat="45.09678" lon="6.03218">
        <ele>1427.4</ele>
        <time>2020-09-05T05:30:27Z</time>
      </trkpt>
      <trkpt lat="45.09675" lon="6.03215">
        <ele>1427.6</ele>
        <time>2020-09-05T05:30:28Z</time>
      </trkpt>
      <trkpt lat="45.09673" lon="6.03213">
        <ele>1427.8</ele>
        <time>2020-09-05T05:30:29Z</time>
      </trkpt>
      <trkpt lat="45.0967" lon="6.0321">
        <ele>1427.8</ele>
        <time>2020-09-05T05:30:30Z</time>
      </trkpt>
      <trkpt lat="45.09667" lon="6.03207">
        <ele>1427.8</ele>
        <time>2020-09-05T05:30:31Z</time>
      </trkpt>
      <trkpt lat="45.09665" lon="6.03204">
        <ele>1428</ele>
        <time>2020-09-05T05:30:32Z</time>
      </trkpt>
      <trkpt lat="45.09662" lon="6.03202">
        <ele>1428</ele>
        <time>2020-09-05T05:30:33Z</time>
      </trkpt>
      <trkpt lat="45.09659" lon="6.03199">
        <ele>1428.2</ele>
        <time>2020-09-05T05:30:34Z</time>
      </trkpt>
      <trkpt lat="45.09657" lon="6.03196">
        <ele>1428.2</ele>
        <time>2020-09-05T05:30:35Z</time>
      </trkpt>
      <trkpt lat="45.09654" lon="6.03193">
        <ele>1428.4</ele>
        <time>2020-09-05T05:30:36Z</time>
      </trkpt>
      <trkpt lat="45.09652" lon="6.0319">
        <ele>1428.6</ele>
        <time>2020-09-05T05:30:37Z</time>
      </trkpt>
      <trkpt lat="45.09649" lon="6.03188">
        <ele>1428.6</ele>
        <time>2020-09-05T05:30:38Z</time>
      </trkpt>
      <trkpt lat="45.09646" lon="6.03185">
        <ele>1429</ele>
        <time>2020-09-05T05:30:39Z</time>
      </trkpt>
      <trkpt lat="45.09644" lon="6.03182">
        <ele>1429.2</ele>
        <time>2020-09-05T05:30:40Z</time>
      </trkpt>
      <trkpt lat="45.09641" lon="6.0318">
        <ele>1429.4</ele>
        <time>2020-09-05T05:30:41Z</time>
      </trkpt>
      <trkpt lat="45.09639" lon="6.03177">
        <ele>1429.4</ele>
        <time>2020-09-05T05:30:42Z</time>
      </trkpt>
      <trkpt lat="45.09636" lon="6.03175">
        <ele>1429.8</ele>
        <time>2020-09-05T05:30:43Z</time>
      </trkpt>
      <trkpt lat="45.09633" lon="6.03172">
        <ele>1429.8</ele>
        <time>2020-09-05T05:30:44Z</time>
      </trkpt>
      <trkpt lat="45.09631" lon="6.0317">
        <ele>1430</ele>
        <time>2020-09-05T05:30:45Z</time>
      </trkpt>
      <trkpt lat="45.09628" lon="6.03167">
        <ele>1430.2</ele>
        <time>2020-09-05T05:30:46Z</time>
      </trkpt>
      <trkpt lat="45.09625" lon="6.03165">
        <ele>1430.2</ele>
        <time>2020-09-05T05:30:47Z</time>
      </trkpt>
      <trkpt lat="45.09622" lon="6.03162">
        <ele>1430.4</ele>
        <time>2020-09-05T05:30:48Z</time>
      </trkpt>
      <trkpt lat="45.09619" lon="6.0316">
        <ele>1430.6</ele>
        <time>2020-09-05T05:30:49Z</time>
      </trkpt>
      <trkpt lat="45.09616" lon="6.03158">
        <ele>1430.8</ele>
        <time>2020-09-05T05:30:50Z</time>
      </trkpt>
      <trkpt lat="45.09613" lon="6.03156">
        <ele>1431</ele>
        <time>2020-09-05T05:30:51Z</time>
      </trkpt>
      <trkpt lat="45.0961" lon="6.03154">
        <ele>1431.2</ele>
        <time>2020-09-05T05:30:52Z</time>
      </trkpt>
      <trkpt lat="45.09607" lon="6.03152">
        <ele>1431.4</ele>
        <time>2020-09-05T05:30:53Z</time>
      </trkpt>
      <trkpt lat="45.09604" lon="6.03151">
        <ele>1431.6</ele>
        <time>2020-09-05T05:30:54Z</time>
      </trkpt>
      <trkpt lat="45.09602" lon="6.03149">
        <ele>1431.8</ele>
        <time>2020-09-05T05:30:55Z</time>
      </trkpt>
      <trkpt lat="45.09599" lon="6.03146">
        <ele>1432</ele>
        <time>2020-09-05T05:30:56Z</time>
      </trkpt>
      <trkpt lat="45.09596" lon="6.03145">
        <ele>1432.2</ele>
        <time>2020-09-05T05:30:57Z</time>
      </trkpt>
      <trkpt lat="45.09593" lon="6.03143">
        <ele>1432.4</ele>
        <time>2020-09-05T05:30:58Z</time>
      </trkpt>
      <trkpt lat="45.0959" lon="6.03142">
        <ele>1432.6</ele>
        <time>2020-09-05T05:30:59Z</time>
      </trkpt>
      <trkpt lat="45.09588" lon="6.0314">
        <ele>1432.8</ele>
        <time>2020-09-05T05:31:00Z</time>
      </trkpt>
      <trkpt lat="45.09585" lon="6.03138">
        <ele>1432.8</ele>
        <time>2020-09-05T05:31:01Z</time>
      </trkpt>
      <trkpt lat="45.09582" lon="6.03136">
        <ele>1433</ele>
        <time>2020-09-05T05:31:02Z</time>
      </trkpt>
      <trkpt lat="45.0958" lon="6.03135">
        <ele>1433.4</ele>
        <time>2020-09-05T05:31:03Z</time>
      </trkpt>
      <trkpt lat="45.09577" lon="6.03133">
        <ele>1433.6</ele>
        <time>2020-09-05T05:31:04Z</time>
      </trkpt>
      <trkpt lat="45.09575" lon="6.03131">
        <ele>1434</ele>
        <time>2020-09-05T05:31:05Z</time>
      </trkpt>
      <trkpt lat="45.09572" lon="6.03129">
        <ele>1434.2</ele>
        <time>2020-09-05T05:31:06Z</time>
      </trkpt>
      <trkpt lat="45.0957" lon="6.03127">
        <ele>1434.6</ele>
        <time>2020-09-05T05:31:07Z</time>
      </trkpt>
      <trkpt lat="45.09567" lon="6.03126">
        <ele>1434.8</ele>
        <time>2020-09-05T05:31:08Z</time>
      </trkpt>
      <trkpt lat="45.09565" lon="6.03124">
        <ele>1435</ele>
        <time>2020-09-05T05:31:09Z</time>
      </trkpt>
      <trkpt lat="45.09563" lon="6.03123">
        <ele>1435.2</ele>
        <time>2020-09-05T05:31:10Z</time>
      </trkpt>
      <trkpt lat="45.09561" lon="6.03122">
        <ele>1435.6</ele>
        <time>2020-09-05T05:31:11Z</time>
      </trkpt>
      <trkpt lat="45.09558" lon="6.03121">
        <ele>1435.6</ele>
        <time>2020-09-05T05:31:12Z</time>
      </trkpt>
      <trkpt lat="45.09556" lon="6.03119">
        <ele>1436</ele>
        <time>2020-09-05T05:31:13Z</time>
      </trkpt>
      <trkpt lat="45.09554" lon="6.03118">
        <ele>1436.2</ele>
        <time>2020-09-05T05:31:14Z</time>
      </trkpt>
      <trkpt lat="45.09551" lon="6.03117">
        <ele>1436.6</ele>
        <time>2020-09-05T05:31:15Z</time>
      </trkpt>
      <trkpt lat="45.09549" lon="6.03116">
        <ele>1436.8</ele>
        <time>2020-09-05T05:31:16Z</time>
      </trkpt>
      <trkpt lat="45.09546" lon="6.03115">
        <ele>1437</ele>
        <time>2020-09-05T05:31:17Z</time>
      </trkpt>
      <trkpt lat="45.09543" lon="6.03113">
        <ele>1437.2</ele>
        <time>2020-09-05T05:31:18Z</time>
      </trkpt>
      <trkpt lat="45.09541" lon="6.03112">
        <ele>1437.4</ele>
        <time>2020-09-05T05:31:19Z</time>
      </trkpt>
      <trkpt lat="45.09538" lon="6.03111">
        <ele>1437.6</ele>
        <time>2020-09-05T05:31:20Z</time>
      </trkpt>
      <trkpt lat="45.09535" lon="6.03109">
        <ele>1437.8</ele>
        <time>2020-09-05T05:31:21Z</time>
      </trkpt>
      <trkpt lat="45.09532" lon="6.03108">
        <ele>1438.2</ele>
        <time>2020-09-05T05:31:22Z</time>
      </trkpt>
      <trkpt lat="45.0953" lon="6.03107">
        <ele>1438.4</ele>
        <time>2020-09-05T05:31:23Z</time>
      </trkpt>
      <trkpt lat="45.09527" lon="6.03105">
        <ele>1438.6</ele>
        <time>2020-09-05T05:31:24Z</time>
      </trkpt>
      <trkpt lat="45.09524" lon="6.03104">
        <ele>1438.6</ele>
        <time>2020-09-05T05:31:25Z</time>
      </trkpt>
      <trkpt lat="45.09521" lon="6.03103">
        <ele>1438.8</ele>
        <time>2020-09-05T05:31:26Z</time>
      </trkpt>
      <trkpt lat="45.09518" lon="6.03101">
        <ele>1439.2</ele>
        <time>2020-09-05T05:31:27Z</time>
      </trkpt>
      <trkpt lat="45.09516" lon="6.031">
        <ele>1439.4</ele>
        <time>2020-09-05T05:31:28Z</time>
      </trkpt>
      <trkpt lat="45.09513" lon="6.03099">
        <ele>1439.6</ele>
        <time>2020-09-05T05:31:29Z</time>
      </trkpt>
      <trkpt lat="45.0951" lon="6.03098">
        <ele>1440</ele>
        <time>2020-09-05T05:31:30Z</time>
      </trkpt>
      <trkpt lat="45.09507" lon="6.03096">
        <ele>1440</ele>
        <time>2020-09-05T05:31:31Z</time>
      </trkpt>
      <trkpt lat="45.09504" lon="6.03095">
        <ele>1440.4</ele>
        <time>2020-09-05T05:31:32Z</time>
      </trkpt>
      <trkpt lat="45.09501" lon="6.03094">
        <ele>1440.6</ele>
        <time>2020-09-05T05:31:33Z</time>
      </trkpt>
      <trkpt lat="45.09498" lon="6.03093">
        <ele>1440.8</ele>
        <time>2020-09-05T05:31:34Z</time>
      </trkpt>
      <trkpt lat="45.09495" lon="6.03092">
        <ele>1441</ele>
        <time>2020-09-05T05:31:35Z</time>
      </trkpt>
      <trkpt lat="45.09491" lon="6.03092">
        <ele>1441.2</ele>
        <time>2020-09-05T05:31:36Z</time>
      </trkpt>
      <trkpt lat="45.09488" lon="6.03091">
        <ele>1441.2</ele>
        <time>2020-09-05T05:31:37Z</time>
      </trkpt>
      <trkpt lat="45.09485" lon="6.0309">
        <ele>1441.2</ele>
        <time>2020-09-05T05:31:38Z</time>
      </trkpt>
      <trkpt lat="45.09482" lon="6.03089">
        <ele>1441.4</ele>
        <time>2020-09-05T05:31:39Z</time>
      </trkpt>
      <trkpt lat="45.09479" lon="6.03088">
        <ele>1441.6</ele>
        <time>2020-09-05T05:31:40Z</time>
      </trkpt>
      <trkpt lat="45.09476" lon="6.03086">
        <ele>1441.8</ele>
        <time>2020-09-05T05:31:41Z</time>
      </trkpt>
      <trkpt lat="45.09472" lon="6.03085">
        <ele>1442</ele>
        <time>2020-09-05T05:31:42Z</time>
      </trkpt>
      <trkpt lat="45.09469" lon="6.03084">
        <ele>1442</ele>
        <time>2020-09-05T05:31:43Z</time>
      </trkpt>
      <trkpt lat="45.09466" lon="6.03083">
        <ele>1442.4</ele>
        <time>2020-09-05T05:31:44Z</time>
      </trkpt>
      <trkpt lat="45.09462" lon="6.03081">
        <ele>1442.4</ele>
        <time>2020-09-05T05:31:45Z</time>
      </trkpt>
      <trkpt lat="45.09459" lon="6.0308">
        <ele>1442.6</ele>
        <time>2020-09-05T05:31:46Z</time>
      </trkpt>
      <trkpt lat="45.09455" lon="6.03079">
        <ele>1442.6</ele>
        <time>2020-09-05T05:31:47Z</time>
      </trkpt>
      <trkpt lat="45.09451" lon="6.03077">
        <ele>1442.8</ele>
        <time>2020-09-05T05:31:48Z</time>
      </trkpt>
      <trkpt lat="45.09448" lon="6.03076">
        <ele>1443</ele>
        <time>2020-09-05T05:31:49Z</time>
      </trkpt>
      <trkpt lat="45.09444" lon="6.03075">
        <ele>1443.2</ele>
        <time>2020-09-05T05:31:50Z</time>
      </trkpt>
      <trkpt lat="45.0944" lon="6.03074">
        <ele>1443.4</ele>
        <time>2020-09-05T05:31:51Z</time>
      </trkpt>
      <trkpt lat="45.09436" lon="6.03074">
        <ele>1443.2</ele>
        <time>2020-09-05T05:31:52Z</time>
      </trkpt>
      <trkpt lat="45.09432" lon="6.03073">
        <ele>1443.6</ele>
        <time>2020-09-05T05:31:53Z</time>
      </trkpt>
      <trkpt lat="45.09428" lon="6.03073">
        <ele>1443.8</ele>
        <time>2020-09-05T05:31:54Z</time>
      </trkpt>
      <trkpt lat="45.09424" lon="6.03072">
        <ele>1444</ele>
        <time>2020-09-05T05:31:55Z</time>
      </trkpt>
      <trkpt lat="45.0942" lon="6.03072">
        <ele>1444.2</ele>
        <time>2020-09-05T05:31:56Z</time>
      </trkpt>
      <trkpt lat="45.09416" lon="6.03072">
        <ele>1444.2</ele>
        <time>2020-09-05T05:31:57Z</time>
      </trkpt>
      <trkpt lat="45.09413" lon="6.03072">
        <ele>1444.4</ele>
        <time>2020-09-05T05:31:58Z</time>
      </trkpt>
      <trkpt lat="45.09409" lon="6.03072">
        <ele>1444.6</ele>
        <time>2020-09-05T05:31:59Z</time>
      </trkpt>
      <trkpt lat="45.09405" lon="6.03071">
        <ele>1444.8</ele>
        <time>2020-09-05T05:32:00Z</time>
      </trkpt>
      <trkpt lat="45.09402" lon="6.03071">
        <ele>1445</ele>
        <time>2020-09-05T05:32:01Z</time>
      </trkpt>
      <trkpt lat="45.09398" lon="6.0307">
        <ele>1445.2</ele>
        <time>2020-09-05T05:32:02Z</time>
      </trkpt>
      <trkpt lat="45.09395" lon="6.0307">
        <ele>1445.4</ele>
        <time>2020-09-05T05:32:03Z</time>
      </trkpt>
      <trkpt lat="45.09391" lon="6.0307">
        <ele>1445.4</ele>
        <time>2020-09-05T05:32:04Z</time>
      </trkpt>
      <trkpt lat="45.09388" lon="6.0307">
        <ele>1445.4</ele>
        <time>2020-09-05T05:32:05Z</time>
      </trkpt>
      <trkpt lat="45.09384" lon="6.0307">
        <ele>1445.2</ele>
        <time>2020-09-05T05:32:06Z</time>
      </trkpt>
      <trkpt lat="45.0938" lon="6.0307">
        <ele>1445</ele>
        <time>2020-09-05T05:32:07Z</time>
      </trkpt>
      <trkpt lat="45.09376" lon="6.03069">
        <ele>1444.8</ele>
        <time>2020-09-05T05:32:08Z</time>
      </trkpt>
      <trkpt lat="45.09371" lon="6.03068">
        <ele>1444.6</ele>
        <time>2020-09-05T05:32:09Z</time>
      </trkpt>
      <trkpt lat="45.09366" lon="6.03067">
        <ele>1444.4</ele>
        <time>2020-09-05T05:32:10Z</time>
      </trkpt>
      <trkpt lat="45.0936" lon="6.03066">
        <ele>1444.2</ele>
        <time>2020-09-05T05:32:11Z</time>
      </trkpt>
      <trkpt lat="45.09354" lon="6.03064">
        <ele>1443.6</ele>
        <time>2020-09-05T05:32:12Z</time>
      </trkpt>
      <trkpt lat="45.09347" lon="6.03064">
        <ele>1443</ele>
        <time>2020-09-05T05:32:13Z</time>
      </trkpt>
      <trkpt lat="45.09341" lon="6.03062">
        <ele>1442.4</ele>
        <time>2020-09-05T05:32:14Z</time>
      </trkpt>
      <trkpt lat="45.09334" lon="6.03061">
        <ele>1441.8</ele>
        <time>2020-09-05T05:32:15Z</time>
      </trkpt>
      <trkpt lat="45.09327" lon="6.03061">
        <ele>1441.2</ele>
        <time>2020-09-05T05:32:16Z</time>
      </trkpt>
      <trkpt lat="45.0932" lon="6.0306">
        <ele>1440.6</ele>
        <time>2020-09-05T05:32:17Z</time>
      </trkpt>
      <trkpt lat="45.09313" lon="6.03059">
        <ele>1440</ele>
        <time>2020-09-05T05:32:18Z</time>
      </trkpt>
      <trkpt lat="45.09305" lon="6.03057">
        <ele>1439.4</ele>
        <time>2020-09-05T05:32:19Z</time>
      </trkpt>
      <trkpt lat="45.09298" lon="6.03054">
        <ele>1438.4</ele>
        <time>2020-09-05T05:32:20Z</time>
      </trkpt>
      <trkpt lat="45.09291" lon="6.03053">
        <ele>1437.8</ele>
        <time>2020-09-05T05:32:21Z</time>
      </trkpt>
      <trkpt lat="45.09284" lon="6.03051">
        <ele>1437</ele>
        <time>2020-09-05T05:32:22Z</time>
      </trkpt>
      <trkpt lat="45.09276" lon="6.03049">
        <ele>1436.2</ele>
        <time>2020-09-05T05:32:23Z</time>
      </trkpt>
      <trkpt lat="45.09269" lon="6.03047">
        <ele>1435.6</ele>
        <time>2020-09-05T05:32:24Z</time>
      </trkpt>
      <trkpt lat="45.09261" lon="6.03043">
        <ele>1435</ele>
        <time>2020-09-05T05:32:25Z</time>
      </trkpt>
      <trkpt lat="45.09253" lon="6.0304">
        <ele>1434.6</ele>
        <time>2020-09-05T05:32:26Z</time>
      </trkpt>
      <trkpt lat="45.09244" lon="6.03037">
        <ele>1433.8</ele>
        <time>2020-09-05T05:32:27Z</time>
      </trkpt>
      <trkpt lat="45.09235" lon="6.03034">
        <ele>1433</ele>
        <time>2020-09-05T05:32:28Z</time>
      </trkpt>
      <trkpt lat="45.09226" lon="6.03031">
        <ele>1432</ele>
        <time>2020-09-05T05:32:29Z</time>
      </trkpt>
      <trkpt lat="45.09217" lon="6.0303">
        <ele>1431.2</ele>
        <time>2020-09-05T05:32:30Z</time>
      </trkpt>
      <trkpt lat="45.0921" lon="6.03032">
        <ele>1430.4</ele>
        <time>2020-09-05T05:32:31Z</time>
      </trkpt>
      <trkpt lat="45.09202" lon="6.03038">
        <ele>1429.6</ele>
        <time>2020-09-05T05:32:32Z</time>
      </trkpt>
      <trkpt lat="45.09196" lon="6.03046">
        <ele>1428.8</ele>
        <time>2020-09-05T05:32:33Z</time>
      </trkpt>
      <trkpt lat="45.09191" lon="6.03056">
        <ele>1427.8</ele>
        <time>2020-09-05T05:32:34Z</time>
      </trkpt>
      <trkpt lat="45.09188" lon="6.03065">
        <ele>1427.2</ele>
        <time>2020-09-05T05:32:35Z</time>
      </trkpt>
      <trkpt lat="45.09183" lon="6.03074">
        <ele>1426.2</ele>
        <time>2020-09-05T05:32:36Z</time>
      </trkpt>
      <trkpt lat="45.09176" lon="6.03083">
        <ele>1425.2</ele>
        <time>2020-09-05T05:32:37Z</time>
      </trkpt>
      <trkpt lat="45.09169" lon="6.03092">
        <ele>1424.8</ele>
        <time>2020-09-05T05:32:38Z</time>
      </trkpt>
      <trkpt lat="45.09162" lon="6.03102">
        <ele>1424.2</ele>
        <time>2020-09-05T05:32:39Z</time>
      </trkpt>
      <trkpt lat="45.09157" lon="6.03112">
        <ele>1423.8</ele>
        <time>2020-09-05T05:32:40Z</time>
      </trkpt>
      <trkpt lat="45.09155" lon="6.03122">
        <ele>1423.4</ele>
        <time>2020-09-05T05:32:41Z</time>
      </trkpt>
      <trkpt lat="45.09155" lon="6.03131">
        <ele>1423.6</ele>
        <time>2020-09-05T05:32:42Z</time>
      </trkpt>
      <trkpt lat="45.09156" lon="6.03138">
        <ele>1423.4</ele>
        <time>2020-09-05T05:32:43Z</time>
      </trkpt>
      <trkpt lat="45.09158" lon="6.03143">
        <ele>1423.4</ele>
        <time>2020-09-05T05:32:44Z</time>
      </trkpt>
      <trkpt lat="45.09161" lon="6.03147">
        <ele>1423.4</ele>
        <time>2020-09-05T05:32:45Z</time>
      </trkpt>
      <trkpt lat="45.09163" lon="6.03152">
        <ele>1423.4</ele>
        <time>2020-09-05T05:32:46Z</time>
      </trkpt>
      <trkpt lat="45.09167" lon="6.03158">
        <ele>1423.2</ele>
        <time>2020-09-05T05:32:47Z</time>
      </trkpt>
      <trkpt lat="45.09169" lon="6.03165">
        <ele>1423.2</ele>
        <time>2020-09-05T05:32:48Z</time>
      </trkpt>
      <trkpt lat="45.0917" lon="6.03173">
        <ele>1422.6</ele>
        <time>2020-09-05T05:32:49Z</time>
      </trkpt>
      <trkpt lat="45.0917" lon="6.03183">
        <ele>1422.4</ele>
        <time>2020-09-05T05:32:50Z</time>
      </trkpt>
      <trkpt lat="45.09169" lon="6.03193">
        <ele>1422</ele>
        <time>2020-09-05T05:32:51Z</time>
      </trkpt>
      <trkpt lat="45.09167" lon="6.03204">
        <ele>1422</ele>
        <time>2020-09-05T05:32:52Z</time>
      </trkpt>
      <trkpt lat="45.09165" lon="6.03214">
        <ele>1421.8</ele>
        <time>2020-09-05T05:32:53Z</time>
      </trkpt>
      <trkpt lat="45.09162" lon="6.03224">
        <ele>1421.2</ele>
        <time>2020-09-05T05:32:54Z</time>
      </trkpt>
      <trkpt lat="45.0916" lon="6.03234">
        <ele>1421</ele>
        <time>2020-09-05T05:32:55Z</time>
      </trkpt>
      <trkpt lat="45.09157" lon="6.03244">
        <ele>1420.8</ele>
        <time>2020-09-05T05:32:56Z</time>
      </trkpt>
      <trkpt lat="45.09156" lon="6.03255">
        <ele>1420.6</ele>
        <time>2020-09-05T05:32:57Z</time>
      </trkpt>
      <trkpt lat="45.09155" lon="6.03266">
        <ele>1420.4</ele>
        <time>2020-09-05T05:32:58Z</time>
      </trkpt>
      <trkpt lat="45.09155" lon="6.03276">
        <ele>1420.4</ele>
        <time>2020-09-05T05:32:59Z</time>
      </trkpt>
      <trkpt lat="45.09155" lon="6.03286">
        <ele>1420.2</ele>
        <time>2020-09-05T05:33:00Z</time>
      </trkpt>
      <trkpt lat="45.09155" lon="6.03294">
        <ele>1420.4</ele>
        <time>2020-09-05T05:33:01Z</time>
      </trkpt>
      <trkpt lat="45.09155" lon="6.03302">
        <ele>1420.4</ele>
        <time>2020-09-05T05:33:02Z</time>
      </trkpt>
      <trkpt lat="45.09155" lon="6.0331">
        <ele>1420.4</ele>
        <time>2020-09-05T05:33:03Z</time>
      </trkpt>
      <trkpt lat="45.09154" lon="6.03318">
        <ele>1420.4</ele>
        <time>2020-09-05T05:33:04Z</time>
      </trkpt>
      <trkpt lat="45.09153" lon="6.03326">
        <ele>1420.4</ele>
        <time>2020-09-05T05:33:05Z</time>
      </trkpt>
      <trkpt lat="45.09152" lon="6.03334">
        <ele>1420.6</ele>
        <time>2020-09-05T05:33:06Z</time>
      </trkpt>
      <trkpt lat="45.09151" lon="6.03342">
        <ele>1420.6</ele>
        <time>2020-09-05T05:33:07Z</time>
      </trkpt>
      <trkpt lat="45.0915" lon="6.0335">
        <ele>1420.6</ele>
        <time>2020-09-05T05:33:08Z</time>
      </trkpt>
      <trkpt lat="45.09148" lon="6.03357">
        <ele>1420.8</ele>
        <time>2020-09-05T05:33:09Z</time>
      </trkpt>
      <trkpt lat="45.09146" lon="6.03363">
        <ele>1420.6</ele>
        <time>2020-09-05T05:33:10Z</time>
      </trkpt>
      <trkpt lat="45.09143" lon="6.03368">
        <ele>1420.8</ele>
        <time>2020-09-05T05:33:11Z</time>
      </trkpt>
      <trkpt lat="45.09139" lon="6.03371">
        <ele>1421</ele>
        <time>2020-09-05T05:33:12Z</time>
      </trkpt>
      <trkpt lat="45.09135" lon="6.03371">
        <ele>1420.8</ele>
        <time>2020-09-05T05:33:13Z</time>
      </trkpt>
      <trkpt lat="45.09132" lon="6.0337">
        <ele>1421.2</ele>
        <time>2020-09-05T05:33:14Z</time>
      </trkpt>
      <trkpt lat="45.0913" lon="6.03368">
        <ele>1421.2</ele>
        <time>2020-09-05T05:33:15Z</time>
      </trkpt>
      <trkpt lat="45.09127" lon="6.03365">
        <ele>1421.6</ele>
        <time>2020-09-05T05:33:16Z</time>
      </trkpt>
      <trkpt lat="45.09124" lon="6.03363">
        <ele>1421.8</ele>
        <time>2020-09-05T05:33:17Z</time>
      </trkpt>
      <trkpt lat="45.09123" lon="6.03362">
        <ele>1422</ele>
        <time>2020-09-05T05:33:18Z</time>
      </trkpt>
      <trkpt lat="45.09121" lon="6.0336">
        <ele>1422.2</ele>
        <time>2020-09-05T05:33:19Z</time>
      </trkpt>
      <trkpt lat="45.09119" lon="6.03358">
        <ele>1422.6</ele>
        <time>2020-09-05T05:33:20Z</time>
      </trkpt>
      <trkpt lat="45.09116" lon="6.03357">
        <ele>1422.8</ele>
        <time>2020-09-05T05:33:21Z</time>
      </trkpt>
      <trkpt lat="45.09113" lon="6.03355">
        <ele>1423</ele>
        <time>2020-09-05T05:33:22Z</time>
      </trkpt>
      <trkpt lat="45.09109" lon="6.03354">
        <ele>1423</ele>
        <time>2020-09-05T05:33:23Z</time>
      </trkpt>
      <trkpt lat="45.09106" lon="6.03353">
        <ele>1423.4</ele>
        <time>2020-09-05T05:33:24Z</time>
      </trkpt>
      <trkpt lat="45.09102" lon="6.03352">
        <ele>1423.8</ele>
        <time>2020-09-05T05:33:25Z</time>
      </trkpt>
      <trkpt lat="45.09099" lon="6.03351">
        <ele>1424</ele>
        <time>2020-09-05T05:33:26Z</time>
      </trkpt>
      <trkpt lat="45.09095" lon="6.0335">
        <ele>1424.4</ele>
        <time>2020-09-05T05:33:27Z</time>
      </trkpt>
      <trkpt lat="45.09092" lon="6.03349">
        <ele>1424.8</ele>
        <time>2020-09-05T05:33:28Z</time>
      </trkpt>
      <trkpt lat="45.09088" lon="6.03348">
        <ele>1425.2</ele>
        <time>2020-09-05T05:33:29Z</time>
      </trkpt>
      <trkpt lat="45.09085" lon="6.03347">
        <ele>1425.4</ele>
        <time>2020-09-05T05:33:30Z</time>
      </trkpt>
      <trkpt lat="45.09082" lon="6.03346">
        <ele>1425.6</ele>
        <time>2020-09-05T05:33:31Z</time>
      </trkpt>
      <trkpt lat="45.09079" lon="6.03346">
        <ele>1425.8</ele>
        <time>2020-09-05T05:33:32Z</time>
      </trkpt>
      <trkpt lat="45.09076" lon="6.03346">
        <ele>1426</ele>
        <time>2020-09-05T05:33:33Z</time>
      </trkpt>
      <trkpt lat="45.09073" lon="6.03345">
        <ele>1426.4</ele>
        <time>2020-09-05T05:33:34Z</time>
      </trkpt>
      <trkpt lat="45.0907" lon="6.03345">
        <ele>1426.8</ele>
        <time>2020-09-05T05:33:35Z</time>
      </trkpt>
      <trkpt lat="45.09066" lon="6.03345">
        <ele>1427</ele>
        <time>2020-09-05T05:33:36Z</time>
      </trkpt>
      <trkpt lat="45.09063" lon="6.03346">
        <ele>1427.4</ele>
        <time>2020-09-05T05:33:37Z</time>
      </trkpt>
      <trkpt lat="45.0906" lon="6.03346">
        <ele>1427.6</ele>
        <time>2020-09-05T05:33:38Z</time>
      </trkpt>
      <trkpt lat="45.09057" lon="6.03346">
        <ele>1427.6</ele>
        <time>2020-09-05T05:33:39Z</time>
      </trkpt>
      <trkpt lat="45.09054" lon="6.03347">
        <ele>1428</ele>
        <time>2020-09-05T05:33:40Z</time>
      </trkpt>
      <trkpt lat="45.09051" lon="6.03347">
        <ele>1428.2</ele>
        <time>2020-09-05T05:33:41Z</time>
      </trkpt>
      <trkpt lat="45.09048" lon="6.03347">
        <ele>1428.4</ele>
        <time>2020-09-05T05:33:42Z</time>
      </trkpt>
      <trkpt lat="45.09045" lon="6.03347">
        <ele>1428.6</ele>
        <time>2020-09-05T05:33:43Z</time>
      </trkpt>
      <trkpt lat="45.09042" lon="6.03347">
        <ele>1429</ele>
        <time>2020-09-05T05:33:44Z</time>
      </trkpt>
      <trkpt lat="45.09039" lon="6.03347">
        <ele>1429.2</ele>
        <time>2020-09-05T05:33:45Z</time>
      </trkpt>
      <trkpt lat="45.09036" lon="6.03348">
        <ele>1429.6</ele>
        <time>2020-09-05T05:33:46Z</time>
      </trkpt>
      <trkpt lat="45.09033" lon="6.03348">
        <ele>1430</ele>
        <time>2020-09-05T05:33:47Z</time>
      </trkpt>
      <trkpt lat="45.0903" lon="6.03348">
        <ele>1430.2</ele>
        <time>2020-09-05T05:33:48Z</time>
      </trkpt>
      <trkpt lat="45.09027" lon="6.03349">
        <ele>1430.4</ele>
        <time>2020-09-05T05:33:49Z</time>
      </trkpt>
      <trkpt lat="45.09024" lon="6.0335">
        <ele>1430.6</ele>
        <time>2020-09-05T05:33:50Z</time>
      </trkpt>
      <trkpt lat="45.09022" lon="6.03351">
        <ele>1430.8</ele>
        <time>2020-09-05T05:33:51Z</time>
      </trkpt>
      <trkpt lat="45.09019" lon="6.03352">
        <ele>1431</ele>
        <time>2020-09-05T05:33:52Z</time>
      </trkpt>
      <trkpt lat="45.09016" lon="6.03352">
        <ele>1431.4</ele>
        <time>2020-09-05T05:33:53Z</time>
      </trkpt>
      <trkpt lat="45.09012" lon="6.03352">
        <ele>1431.6</ele>
        <time>2020-09-05T05:33:54Z</time>
      </trkpt>
      <trkpt lat="45.09009" lon="6.03352">
        <ele>1432</ele>
        <time>2020-09-05T05:33:55Z</time>
      </trkpt>
      <trkpt lat="45.09006" lon="6.03353">
        <ele>1432</ele>
        <time>2020-09-05T05:33:56Z</time>
      </trkpt>
      <trkpt lat="45.09003" lon="6.03353">
        <ele>1432.2</ele>
        <time>2020-09-05T05:33:57Z</time>
      </trkpt>
      <trkpt lat="45.09" lon="6.03354">
        <ele>1432.6</ele>
        <time>2020-09-05T05:33:58Z</time>
      </trkpt>
      <trkpt lat="45.08997" lon="6.03355">
        <ele>1432.8</ele>
        <time>2020-09-05T05:33:59Z</time>
      </trkpt>
      <trkpt lat="45.08994" lon="6.03356">
        <ele>1433.2</ele>
        <time>2020-09-05T05:34:00Z</time>
      </trkpt>
      <trkpt lat="45.08991" lon="6.03357">
        <ele>1433.6</ele>
        <time>2020-09-05T05:34:01Z</time>
      </trkpt>
      <trkpt lat="45.08988" lon="6.03359">
        <ele>1433.8</ele>
        <time>2020-09-05T05:34:02Z</time>
      </trkpt>
      <trkpt lat="45.08985" lon="6.0336">
        <ele>1434</ele>
        <time>2020-09-05T05:34:03Z</time>
      </trkpt>
      <trkpt lat="45.08982" lon="6.03361">
        <ele>1434.2</ele>
        <time>2020-09-05T05:34:04Z</time>
      </trkpt>
      <trkpt lat="45.0898" lon="6.03362">
        <ele>1434.4</ele>
        <time>2020-09-05T05:34:05Z</time>
      </trkpt>
      <trkpt lat="45.08977" lon="6.03363">
        <ele>1434.8</ele>
        <time>2020-09-05T05:34:06Z</time>
      </trkpt>
      <trkpt lat="45.08974" lon="6.03365">
        <ele>1435</ele>
        <time>2020-09-05T05:34:07Z</time>
      </trkpt>
      <trkpt lat="45.08971" lon="6.03366">
        <ele>1435.4</ele>
        <time>2020-09-05T05:34:08Z</time>
      </trkpt>
      <trkpt lat="45.08968" lon="6.03367">
        <ele>1435.8</ele>
        <time>2020-09-05T05:34:09Z</time>
      </trkpt>
      <trkpt lat="45.08965" lon="6.03369">
        <ele>1435.8</ele>
        <time>2020-09-05T05:34:10Z</time>
      </trkpt>
      <trkpt lat="45.08962" lon="6.0337">
        <ele>1436.2</ele>
        <time>2020-09-05T05:34:11Z</time>
      </trkpt>
      <trkpt lat="45.0896" lon="6.03371">
        <ele>1436.2</ele>
        <time>2020-09-05T05:34:12Z</time>
      </trkpt>
      <trkpt lat="45.08957" lon="6.03373">
        <ele>1436.4</ele>
        <time>2020-09-05T05:34:13Z</time>
      </trkpt>
      <trkpt lat="45.08954" lon="6.03374">
        <ele>1436.8</ele>
        <time>2020-09-05T05:34:14Z</time>
      </trkpt>
      <trkpt lat="45.08952" lon="6.03375">
        <ele>1437</ele>
        <time>2020-09-05T05:34:15Z</time>
      </trkpt>
      <trkpt lat="45.08949" lon="6.03378">
        <ele>1437.2</ele>
        <time>2020-09-05T05:34:16Z</time>
      </trkpt>
      <trkpt lat="45.08947" lon="6.0338">
        <ele>1437.4</ele>
        <time>2020-09-05T05:34:17Z</time>
      </trkpt>
      <trkpt lat="45.08944" lon="6.03382">
        <ele>1437.8</ele>
        <time>2020-09-05T05:34:18Z</time>
      </trkpt>
      <trkpt lat="45.08942" lon="6.03384">
        <ele>1438</ele>
        <time>2020-09-05T05:34:19Z</time>
      </trkpt>
      <trkpt lat="45.08939" lon="6.03386">
        <ele>1438.2</ele>
        <time>2020-09-05T05:34:20Z</time>
      </trkpt>
      <trkpt lat="45.08936" lon="6.03388">
        <ele>1438.2</ele>
        <time>2020-09-05T05:34:21Z</time>
      </trkpt>
      <trkpt lat="45.08933" lon="6.0339">
        <ele>1438.4</ele>
        <time>2020-09-05T05:34:22Z</time>
      </trkpt>
      <trkpt lat="45.08931" lon="6.03392">
        <ele>1438.6</ele>
        <time>2020-09-05T05:34:23Z</time>
      </trkpt>
      <trkpt lat="45.08928" lon="6.03395">
        <ele>1438.8</ele>
        <time>2020-09-05T05:34:24Z</time>
      </trkpt>
      <trkpt lat="45.08926" lon="6.03397">
        <ele>1439</ele>
        <time>2020-09-05T05:34:25Z</time>
      </trkpt>
      <trkpt lat="45.08923" lon="6.034">
        <ele>1439</ele>
        <time>2020-09-05T05:34:26Z</time>
      </trkpt>
      <trkpt lat="45.0892" lon="6.03402">
        <ele>1439.4</ele>
        <time>2020-09-05T05:34:27Z</time>
      </trkpt>
      <trkpt lat="45.08918" lon="6.03405">
        <ele>1439.6</ele>
        <time>2020-09-05T05:34:28Z</time>
      </trkpt>
      <trkpt lat="45.08915" lon="6.03408">
        <ele>1439.8</ele>
        <time>2020-09-05T05:34:29Z</time>
      </trkpt>
      <trkpt lat="45.08913" lon="6.03411">
        <ele>1439.6</ele>
        <time>2020-09-05T05:34:30Z</time>
      </trkpt>
      <trkpt lat="45.0891" lon="6.03414">
        <ele>1440</ele>
        <time>2020-09-05T05:34:31Z</time>
      </trkpt>
      <trkpt lat="45.08908" lon="6.03417">
        <ele>1440</ele>
        <time>2020-09-05T05:34:32Z</time>
      </trkpt>
      <trkpt lat="45.08906" lon="6.0342">
        <ele>1440.2</ele>
        <time>2020-09-05T05:34:33Z</time>
      </trkpt>
      <trkpt lat="45.08903" lon="6.03423">
        <ele>1440.6</ele>
        <time>2020-09-05T05:34:34Z</time>
      </trkpt>
      <trkpt lat="45.08901" lon="6.03427">
        <ele>1441</ele>
        <time>2020-09-05T05:34:35Z</time>
      </trkpt>
      <trkpt lat="45.08899" lon="6.0343">
        <ele>1441.2</ele>
        <time>2020-09-05T05:34:36Z</time>
      </trkpt>
      <trkpt lat="45.08897" lon="6.03433">
        <ele>1441.6</ele>
        <time>2020-09-05T05:34:37Z</time>
      </trkpt>
      <trkpt lat="45.08895" lon="6.03437">
        <ele>1441.8</ele>
        <time>2020-09-05T05:34:38Z</time>
      </trkpt>
      <trkpt lat="45.08893" lon="6.0344">
        <ele>1442</ele>
        <time>2020-09-05T05:34:39Z</time>
      </trkpt>
      <trkpt lat="45.08891" lon="6.03444">
        <ele>1442.2</ele>
        <time>2020-09-05T05:34:40Z</time>
      </trkpt>
      <trkpt lat="45.08889" lon="6.03448">
        <ele>1442.2</ele>
        <time>2020-09-05T05:34:41Z</time>
      </trkpt>
      <trkpt lat="45.08889" lon="6.03452">
        <ele>1442.6</ele>
        <time>2020-09-05T05:34:42Z</time>
      </trkpt>
      <trkpt lat="45.08888" lon="6.03456">
        <ele>1442.8</ele>
        <time>2020-09-05T05:34:43Z</time>
      </trkpt>
      <trkpt lat="45.08887" lon="6.0346">
        <ele>1443</ele>
        <time>2020-09-05T05:34:44Z</time>
      </trkpt>
      <trkpt lat="45.08886" lon="6.03464">
        <ele>1443.4</ele>
        <time>2020-09-05T05:34:45Z</time>
      </trkpt>
      <trkpt lat="45.08885" lon="6.03468">
        <ele>1443.8</ele>
        <time>2020-09-05T05:34:46Z</time>
      </trkpt>
      <trkpt lat="45.08884" lon="6.03471">
        <ele>1443.8</ele>
        <time>2020-09-05T05:34:47Z</time>
      </trkpt>
      <trkpt lat="45.08883" lon="6.03475">
        <ele>1444.2</ele>
        <time>2020-09-05T05:34:48Z</time>
      </trkpt>
      <trkpt lat="45.08882" lon="6.03479">
        <ele>1444.4</ele>
        <time>2020-09-05T05:34:49Z</time>
      </trkpt>
      <trkpt lat="45.08881" lon="6.03483">
        <ele>1444.8</ele>
        <time>2020-09-05T05:34:50Z</time>
      </trkpt>
      <trkpt lat="45.0888" lon="6.03487">
        <ele>1444.8</ele>
        <time>2020-09-05T05:34:51Z</time>
      </trkpt>
      <trkpt lat="45.0888" lon="6.03491">
        <ele>1445</ele>
        <time>2020-09-05T05:34:52Z</time>
      </trkpt>
      <trkpt lat="45.08879" lon="6.03495">
        <ele>1445</ele>
        <time>2020-09-05T05:34:53Z</time>
      </trkpt>
      <trkpt lat="45.08878" lon="6.035">
        <ele>1445.4</ele>
        <time>2020-09-05T05:34:54Z</time>
      </trkpt>
      <trkpt lat="45.08877" lon="6.03504">
        <ele>1445.4</ele>
        <time>2020-09-05T05:34:55Z</time>
      </trkpt>
      <trkpt lat="45.08876" lon="6.03508">
        <ele>1445.8</ele>
        <time>2020-09-05T05:34:56Z</time>
      </trkpt>
      <trkpt lat="45.08875" lon="6.03512">
        <ele>1445.8</ele>
        <time>2020-09-05T05:34:57Z</time>
      </trkpt>
      <trkpt lat="45.08874" lon="6.03516">
        <ele>1446.2</ele>
        <time>2020-09-05T05:34:58Z</time>
      </trkpt>
      <trkpt lat="45.08873" lon="6.0352">
        <ele>1446.6</ele>
        <time>2020-09-05T05:34:59Z</time>
      </trkpt>
      <trkpt lat="45.08872" lon="6.03524">
        <ele>1446.6</ele>
        <time>2020-09-05T05:35:00Z</time>
      </trkpt>
      <trkpt lat="45.08871" lon="6.03527">
        <ele>1446.8</ele>
        <time>2020-09-05T05:35:01Z</time>
      </trkpt>
      <trkpt lat="45.08868" lon="6.03529">
        <ele>1447.2</ele>
        <time>2020-09-05T05:35:02Z</time>
      </trkpt>
      <trkpt lat="45.08866" lon="6.03531">
        <ele>1447.4</ele>
        <time>2020-09-05T05:35:03Z</time>
      </trkpt>
      <trkpt lat="45.08863" lon="6.03532">
        <ele>1447.8</ele>
        <time>2020-09-05T05:35:04Z</time>
      </trkpt>
      <trkpt lat="45.08861" lon="6.03534">
        <ele>1447.8</ele>
        <time>2020-09-05T05:35:05Z</time>
      </trkpt>
      <trkpt lat="45.08858" lon="6.03536">
        <ele>1448.2</ele>
        <time>2020-09-05T05:35:06Z</time>
      </trkpt>
      <trkpt lat="45.08856" lon="6.03537">
        <ele>1448.4</ele>
        <time>2020-09-05T05:35:07Z</time>
      </trkpt>
      <trkpt lat="45.08854" lon="6.03538">
        <ele>1448.6</ele>
        <time>2020-09-05T05:35:08Z</time>
      </trkpt>
      <trkpt lat="45.08851" lon="6.03539">
        <ele>1448.8</ele>
        <time>2020-09-05T05:35:09Z</time>
      </trkpt>
      <trkpt lat="45.08849" lon="6.03541">
        <ele>1448.8</ele>
        <time>2020-09-05T05:35:10Z</time>
      </trkpt>
      <trkpt lat="45.08846" lon="6.03542">
        <ele>1449.2</ele>
        <time>2020-09-05T05:35:11Z</time>
      </trkpt>
      <trkpt lat="45.08844" lon="6.03543">
        <ele>1449.4</ele>
        <time>2020-09-05T05:35:12Z</time>
      </trkpt>
      <trkpt lat="45.08841" lon="6.03545">
        <ele>1449.6</ele>
        <time>2020-09-05T05:35:13Z</time>
      </trkpt>
      <trkpt lat="45.08839" lon="6.03546">
        <ele>1449.8</ele>
        <time>2020-09-05T05:35:14Z</time>
      </trkpt>
      <trkpt lat="45.08836" lon="6.03547">
        <ele>1450.2</ele>
        <time>2020-09-05T05:35:15Z</time>
      </trkpt>
      <trkpt lat="45.08834" lon="6.03549">
        <ele>1450.4</ele>
        <time>2020-09-05T05:35:16Z</time>
      </trkpt>
      <trkpt lat="45.08831" lon="6.0355">
        <ele>1450.8</ele>
        <time>2020-09-05T05:35:17Z</time>
      </trkpt>
      <trkpt lat="45.08829" lon="6.03552">
        <ele>1451</ele>
        <time>2020-09-05T05:35:18Z</time>
      </trkpt>
      <trkpt lat="45.08826" lon="6.03553">
        <ele>1451.4</ele>
        <time>2020-09-05T05:35:19Z</time>
      </trkpt>
      <trkpt lat="45.08824" lon="6.03556">
        <ele>1451.6</ele>
        <time>2020-09-05T05:35:20Z</time>
      </trkpt>
      <trkpt lat="45.08822" lon="6.03558">
        <ele>1451.8</ele>
        <time>2020-09-05T05:35:21Z</time>
      </trkpt>
      <trkpt lat="45.0882" lon="6.03561">
        <ele>1452.2</ele>
        <time>2020-09-05T05:35:22Z</time>
      </trkpt>
      <trkpt lat="45.08818" lon="6.03563">
        <ele>1452.4</ele>
        <time>2020-09-05T05:35:23Z</time>
      </trkpt>
      <trkpt lat="45.08816" lon="6.03565">
        <ele>1452.6</ele>
        <time>2020-09-05T05:35:24Z</time>
      </trkpt>
      <trkpt lat="45.08815" lon="6.03567">
        <ele>1452.8</ele>
        <time>2020-09-05T05:35:25Z</time>
      </trkpt>
      <trkpt lat="45.08813" lon="6.03569">
        <ele>1453</ele>
        <time>2020-09-05T05:35:26Z</time>
      </trkpt>
      <trkpt lat="45.08812" lon="6.03571">
        <ele>1453.2</ele>
        <time>2020-09-05T05:35:27Z</time>
      </trkpt>
      <trkpt lat="45.08811" lon="6.03573">
        <ele>1453.2</ele>
        <time>2020-09-05T05:35:28Z</time>
      </trkpt>
      <trkpt lat="45.08809" lon="6.03575">
        <ele>1453.4</ele>
        <time>2020-09-05T05:35:29Z</time>
      </trkpt>
      <trkpt lat="45.08808" lon="6.03577">
        <ele>1453.4</ele>
        <time>2020-09-05T05:35:30Z</time>
      </trkpt>
      <trkpt lat="45.08807" lon="6.0358">
        <ele>1453.6</ele>
        <time>2020-09-05T05:35:31Z</time>
      </trkpt>
      <trkpt lat="45.08806" lon="6.03582">
        <ele>1453.6</ele>
        <time>2020-09-05T05:35:32Z</time>
      </trkpt>
      <trkpt lat="45.08804" lon="6.03585">
        <ele>1453.8</ele>
        <time>2020-09-05T05:35:33Z</time>
      </trkpt>
      <trkpt lat="45.08803" lon="6.03587">
        <ele>1454.2</ele>
        <time>2020-09-05T05:35:34Z</time>
      </trkpt>
      <trkpt lat="45.08801" lon="6.0359">
        <ele>1454.6</ele>
        <time>2020-09-05T05:35:35Z</time>
      </trkpt>
      <trkpt lat="45.08799" lon="6.03592">
        <ele>1454.8</ele>
        <time>2020-09-05T05:35:36Z</time>
      </trkpt>
      <trkpt lat="45.08798" lon="6.03595">
        <ele>1454.8</ele>
        <time>2020-09-05T05:35:37Z</time>
      </trkpt>
      <trkpt lat="45.08796" lon="6.03598">
        <ele>1455</ele>
        <time>2020-09-05T05:35:38Z</time>
      </trkpt>
      <trkpt lat="45.08795" lon="6.036">
        <ele>1455.2</ele>
        <time>2020-09-05T05:35:39Z</time>
      </trkpt>
      <trkpt lat="45.08793" lon="6.03602">
        <ele>1455.4</ele>
        <time>2020-09-05T05:35:40Z</time>
      </trkpt>
      <trkpt lat="45.08791" lon="6.03604">
        <ele>1455.6</ele>
        <time>2020-09-05T05:35:41Z</time>
      </trkpt>
      <trkpt lat="45.08789" lon="6.03606">
        <ele>1455.8</ele>
        <time>2020-09-05T05:35:42Z</time>
      </trkpt>
      <trkpt lat="45.08787" lon="6.03608">
        <ele>1456</ele>
        <time>2020-09-05T05:35:43Z</time>
      </trkpt>
      <trkpt lat="45.08785" lon="6.03609">
        <ele>1456.2</ele>
        <time>2020-09-05T05:35:44Z</time>
      </trkpt>
      <trkpt lat="45.08783" lon="6.03611">
        <ele>1456.4</ele>
        <time>2020-09-05T05:35:45Z</time>
      </trkpt>
      <trkpt lat="45.08781" lon="6.03612">
        <ele>1457</ele>
        <time>2020-09-05T05:35:46Z</time>
      </trkpt>
      <trkpt lat="45.08778" lon="6.03613">
        <ele>1457.2</ele>
        <time>2020-09-05T05:35:47Z</time>
      </trkpt>
      <trkpt lat="45.08776" lon="6.03613">
        <ele>1457.2</ele>
        <time>2020-09-05T05:35:48Z</time>
      </trkpt>
      <trkpt lat="45.08774" lon="6.03613">
        <ele>1457.4</ele>
        <time>2020-09-05T05:35:49Z</time>
      </trkpt>
      <trkpt lat="45.08771" lon="6.03613">
        <ele>1457.8</ele>
        <time>2020-09-05T05:35:50Z</time>
      </trkpt>
      <trkpt lat="45.08769" lon="6.03613">
        <ele>1458</ele>
        <time>2020-09-05T05:35:51Z</time>
      </trkpt>
      <trkpt lat="45.08766" lon="6.03612">
        <ele>1458.2</ele>
        <time>2020-09-05T05:35:52Z</time>
      </trkpt>
      <trkpt lat="45.08764" lon="6.03612">
        <ele>1458.4</ele>
        <time>2020-09-05T05:35:53Z</time>
      </trkpt>
      <trkpt lat="45.08761" lon="6.03611">
        <ele>1458.6</ele>
        <time>2020-09-05T05:35:54Z</time>
      </trkpt>
      <trkpt lat="45.08759" lon="6.03611">
        <ele>1458.8</ele>
        <time>2020-09-05T05:35:55Z</time>
      </trkpt>
      <trkpt lat="45.08757" lon="6.03611">
        <ele>1458.8</ele>
        <time>2020-09-05T05:35:56Z</time>
      </trkpt>
      <trkpt lat="45.08754" lon="6.03611">
        <ele>1459</ele>
        <time>2020-09-05T05:35:57Z</time>
      </trkpt>
      <trkpt lat="45.08752" lon="6.03611">
        <ele>1459.2</ele>
        <time>2020-09-05T05:35:58Z</time>
      </trkpt>
      <trkpt lat="45.08749" lon="6.03611">
        <ele>1459.6</ele>
        <time>2020-09-05T05:35:59Z</time>
      </trkpt>
      <trkpt lat="45.08747" lon="6.0361">
        <ele>1459.8</ele>
        <time>2020-09-05T05:36:00Z</time>
      </trkpt>
      <trkpt lat="45.08744" lon="6.0361">
        <ele>1460</ele>
        <time>2020-09-05T05:36:01Z</time>
      </trkpt>
      <trkpt lat="45.08742" lon="6.0361">
        <ele>1460.2</ele>
        <time>2020-09-05T05:36:02Z</time>
      </trkpt>
      <trkpt lat="45.08739" lon="6.0361">
        <ele>1460.6</ele>
        <time>2020-09-05T05:36:03Z</time>
      </trkpt>
      <trkpt lat="45.08737" lon="6.03611">
        <ele>1460.8</ele>
        <time>2020-09-05T05:36:04Z</time>
      </trkpt>
      <trkpt lat="45.08734" lon="6.03611">
        <ele>1460.8</ele>
        <time>2020-09-05T05:36:05Z</time>
      </trkpt>
      <trkpt lat="45.08732" lon="6.03611">
        <ele>1461</ele>
        <time>2020-09-05T05:36:06Z</time>
      </trkpt>
      <trkpt lat="45.08729" lon="6.03611">
        <ele>1461.4</ele>
        <time>2020-09-05T05:36:07Z</time>
      </trkpt>
      <trkpt lat="45.08727" lon="6.03611">
        <ele>1461.6</ele>
        <time>2020-09-05T05:36:08Z</time>
      </trkpt>
      <trkpt lat="45.08724" lon="6.03611">
        <ele>1461.8</ele>
        <time>2020-09-05T05:36:09Z</time>
      </trkpt>
      <trkpt lat="45.08722" lon="6.03612">
        <ele>1462</ele>
        <time>2020-09-05T05:36:10Z</time>
      </trkpt>
      <trkpt lat="45.08719" lon="6.03611">
        <ele>1462.4</ele>
        <time>2020-09-05T05:36:11Z</time>
      </trkpt>
      <trkpt lat="45.08717" lon="6.03611">
        <ele>1462.4</ele>
        <time>2020-09-05T05:36:12Z</time>
      </trkpt>
      <trkpt lat="45.08714" lon="6.03611">
        <ele>1462.6</ele>
        <time>2020-09-05T05:36:13Z</time>
      </trkpt>
      <trkpt lat="45.08711" lon="6.03611">
        <ele>1463</ele>
        <time>2020-09-05T05:36:14Z</time>
      </trkpt>
      <trkpt lat="45.08709" lon="6.03612">
        <ele>1463.2</ele>
        <time>2020-09-05T05:36:15Z</time>
      </trkpt>
      <trkpt lat="45.08706" lon="6.03612">
        <ele>1463.4</ele>
        <time>2020-09-05T05:36:16Z</time>
      </trkpt>
      <trkpt lat="45.08703" lon="6.03612">
        <ele>1463.6</ele>
        <time>2020-09-05T05:36:17Z</time>
      </trkpt>
      <trkpt lat="45.087" lon="6.03613">
        <ele>1463.8</ele>
        <time>2020-09-05T05:36:18Z</time>
      </trkpt>
      <trkpt lat="45.08698" lon="6.03613">
        <ele>1464</ele>
        <time>2020-09-05T05:36:19Z</time>
      </trkpt>
      <trkpt lat="45.08695" lon="6.03613">
        <ele>1464.2</ele>
        <time>2020-09-05T05:36:20Z</time>
      </trkpt>
      <trkpt lat="45.08693" lon="6.03613">
        <ele>1464.4</ele>
        <time>2020-09-05T05:36:21Z</time>
      </trkpt>
      <trkpt lat="45.0869" lon="6.03613">
        <ele>1464.6</ele>
        <time>2020-09-05T05:36:22Z</time>
      </trkpt>
      <trkpt lat="45.08688" lon="6.03614">
        <ele>1464.6</ele>
        <time>2020-09-05T05:36:23Z</time>
      </trkpt>
      <trkpt lat="45.08686" lon="6.03615">
        <ele>1464.8</ele>
        <time>2020-09-05T05:36:24Z</time>
      </trkpt>
      <trkpt lat="45.08684" lon="6.03614">
        <ele>1465</ele>
        <time>2020-09-05T05:36:25Z</time>
      </trkpt>
      <trkpt lat="45.08681" lon="6.03614">
        <ele>1465.2</ele>
        <time>2020-09-05T05:36:26Z</time>
      </trkpt>
      <trkpt lat="45.08679" lon="6.03614">
        <ele>1465.4</ele>
        <time>2020-09-05T05:36:27Z</time>
      </trkpt>
      <trkpt lat="45.08676" lon="6.03614">
        <ele>1465.6</ele>
        <time>2020-09-05T05:36:28Z</time>
      </trkpt>
      <trkpt lat="45.08674" lon="6.03614">
        <ele>1465.8</ele>
        <time>2020-09-05T05:36:29Z</time>
      </trkpt>
      <trkpt lat="45.08671" lon="6.03613">
        <ele>1466</ele>
        <time>2020-09-05T05:36:30Z</time>
      </trkpt>
      <trkpt lat="45.08668" lon="6.03613">
        <ele>1466.2</ele>
        <time>2020-09-05T05:36:31Z</time>
      </trkpt>
      <trkpt lat="45.08666" lon="6.03613">
        <ele>1466.4</ele>
        <time>2020-09-05T05:36:32Z</time>
      </trkpt>
      <trkpt lat="45.08663" lon="6.03612">
        <ele>1466.8</ele>
        <time>2020-09-05T05:36:33Z</time>
      </trkpt>
      <trkpt lat="45.08661" lon="6.03611">
        <ele>1466.8</ele>
        <time>2020-09-05T05:36:34Z</time>
      </trkpt>
      <trkpt lat="45.08659" lon="6.03611">
        <ele>1467.2</ele>
        <time>2020-09-05T05:36:35Z</time>
      </trkpt>
      <trkpt lat="45.08656" lon="6.03609">
        <ele>1467.4</ele>
        <time>2020-09-05T05:36:36Z</time>
      </trkpt>
      <trkpt lat="45.08654" lon="6.03608">
        <ele>1467.6</ele>
        <time>2020-09-05T05:36:37Z</time>
      </trkpt>
      <trkpt lat="45.08652" lon="6.03606">
        <ele>1467.8</ele>
        <time>2020-09-05T05:36:38Z</time>
      </trkpt>
      <trkpt lat="45.0865" lon="6.03605">
        <ele>1468</ele>
        <time>2020-09-05T05:36:39Z</time>
      </trkpt>
      <trkpt lat="45.08648" lon="6.03604">
        <ele>1468.6</ele>
        <time>2020-09-05T05:36:40Z</time>
      </trkpt>
      <trkpt lat="45.08645" lon="6.03603">
        <ele>1468.8</ele>
        <time>2020-09-05T05:36:41Z</time>
      </trkpt>
      <trkpt lat="45.08643" lon="6.03601">
        <ele>1468.8</ele>
        <time>2020-09-05T05:36:42Z</time>
      </trkpt>
      <trkpt lat="45.08641" lon="6.036">
        <ele>1469</ele>
        <time>2020-09-05T05:36:43Z</time>
      </trkpt>
      <trkpt lat="45.08638" lon="6.03599">
        <ele>1469.2</ele>
        <time>2020-09-05T05:36:44Z</time>
      </trkpt>
      <trkpt lat="45.08636" lon="6.03597">
        <ele>1469.6</ele>
        <time>2020-09-05T05:36:45Z</time>
      </trkpt>
      <trkpt lat="45.08634" lon="6.03596">
        <ele>1469.6</ele>
        <time>2020-09-05T05:36:46Z</time>
      </trkpt>
      <trkpt lat="45.08631" lon="6.03595">
        <ele>1469.8</ele>
        <time>2020-09-05T05:36:47Z</time>
      </trkpt>
      <trkpt lat="45.08629" lon="6.03594">
        <ele>1470</ele>
        <time>2020-09-05T05:36:48Z</time>
      </trkpt>
      <trkpt lat="45.08627" lon="6.03592">
        <ele>1470.2</ele>
        <time>2020-09-05T05:36:49Z</time>
      </trkpt>
      <trkpt lat="45.08625" lon="6.03591">
        <ele>1470.2</ele>
        <time>2020-09-05T05:36:50Z</time>
      </trkpt>
      <trkpt lat="45.08622" lon="6.0359">
        <ele>1470.4</ele>
        <time>2020-09-05T05:36:51Z</time>
      </trkpt>
      <trkpt lat="45.0862" lon="6.03589">
        <ele>1470.8</ele>
        <time>2020-09-05T05:36:52Z</time>
      </trkpt>
      <trkpt lat="45.08618" lon="6.03589">
        <ele>1471</ele>
        <time>2020-09-05T05:36:53Z</time>
      </trkpt>
      <trkpt lat="45.08616" lon="6.03588">
        <ele>1471.4</ele>
        <time>2020-09-05T05:36:54Z</time>
      </trkpt>
      <trkpt lat="45.08614" lon="6.03587">
        <ele>1471.4</ele>
        <time>2020-09-05T05:36:55Z</time>
      </trkpt>
      <trkpt lat="45.08611" lon="6.03586">
        <ele>1471.4</ele>
        <time>2020-09-05T05:36:56Z</time>
      </trkpt>
      <trkpt lat="45.08609" lon="6.03585">
        <ele>1471.6</ele>
        <time>2020-09-05T05:36:57Z</time>
      </trkpt>
      <trkpt lat="45.08607" lon="6.03583">
        <ele>1472</ele>
        <time>2020-09-05T05:36:58Z</time>
      </trkpt>
      <trkpt lat="45.08604" lon="6.03582">
        <ele>1472.4</ele>
        <time>2020-09-05T05:36:59Z</time>
      </trkpt>
      <trkpt lat="45.08602" lon="6.03581">
        <ele>1472.6</ele>
        <time>2020-09-05T05:37:00Z</time>
      </trkpt>
      <trkpt lat="45.08599" lon="6.0358">
        <ele>1472.6</ele>
        <time>2020-09-05T05:37:01Z</time>
      </trkpt>
      <trkpt lat="45.08597" lon="6.03579">
        <ele>1473</ele>
        <time>2020-09-05T05:37:02Z</time>
      </trkpt>
      <trkpt lat="45.08594" lon="6.03578">
        <ele>1473.2</ele>
        <time>2020-09-05T05:37:03Z</time>
      </trkpt>
      <trkpt lat="45.08592" lon="6.03577">
        <ele>1473.4</ele>
        <time>2020-09-05T05:37:04Z</time>
      </trkpt>
      <trkpt lat="45.0859" lon="6.03576">
        <ele>1473.6</ele>
        <time>2020-09-05T05:37:05Z</time>
      </trkpt>
      <trkpt lat="45.08588" lon="6.03575">
        <ele>1474</ele>
        <time>2020-09-05T05:37:06Z</time>
      </trkpt>
      <trkpt lat="45.08585" lon="6.03574">
        <ele>1474.2</ele>
        <time>2020-09-05T05:37:07Z</time>
      </trkpt>
      <trkpt lat="45.08583" lon="6.03574">
        <ele>1474.4</ele>
        <time>2020-09-05T05:37:08Z</time>
      </trkpt>
      <trkpt lat="45.0858" lon="6.03574">
        <ele>1474.8</ele>
        <time>2020-09-05T05:37:09Z</time>
      </trkpt>
      <trkpt lat="45.08578" lon="6.03576">
        <ele>1475</ele>
        <time>2020-09-05T05:37:10Z</time>
      </trkpt>
      <trkpt lat="45.08575" lon="6.03577">
        <ele>1475.4</ele>
        <time>2020-09-05T05:37:11Z</time>
      </trkpt>
      <trkpt lat="45.08573" lon="6.0358">
        <ele>1475.6</ele>
        <time>2020-09-05T05:37:12Z</time>
      </trkpt>
      <trkpt lat="45.08572" lon="6.03583">
        <ele>1475.8</ele>
        <time>2020-09-05T05:37:13Z</time>
      </trkpt>
      <trkpt lat="45.0857" lon="6.03586">
        <ele>1476.2</ele>
        <time>2020-09-05T05:37:14Z</time>
      </trkpt>
      <trkpt lat="45.08568" lon="6.03589">
        <ele>1476.4</ele>
        <time>2020-09-05T05:37:15Z</time>
      </trkpt>
      <trkpt lat="45.08567" lon="6.03592">
        <ele>1476.6</ele>
        <time>2020-09-05T05:37:16Z</time>
      </trkpt>
      <trkpt lat="45.08565" lon="6.03595">
        <ele>1476.8</ele>
        <time>2020-09-05T05:37:17Z</time>
      </trkpt>
      <trkpt lat="45.08563" lon="6.03598">
        <ele>1477</ele>
        <time>2020-09-05T05:37:18Z</time>
      </trkpt>
      <trkpt lat="45.08562" lon="6.03601">
        <ele>1477.2</ele>
        <time>2020-09-05T05:37:19Z</time>
      </trkpt>
      <trkpt lat="45.0856" lon="6.03604">
        <ele>1477.4</ele>
        <time>2020-09-05T05:37:20Z</time>
      </trkpt>
      <trkpt lat="45.08559" lon="6.03607">
        <ele>1477.6</ele>
        <time>2020-09-05T05:37:21Z</time>
      </trkpt>
      <trkpt lat="45.08557" lon="6.0361">
        <ele>1477.6</ele>
        <time>2020-09-05T05:37:22Z</time>
      </trkpt>
      <trkpt lat="45.08555" lon="6.03613">
        <ele>1477.8</ele>
        <time>2020-09-05T05:37:23Z</time>
      </trkpt>
      <trkpt lat="45.08553" lon="6.03615">
        <ele>1478</ele>
        <time>2020-09-05T05:37:24Z</time>
      </trkpt>
      <trkpt lat="45.08551" lon="6.03617">
        <ele>1478.4</ele>
        <time>2020-09-05T05:37:25Z</time>
      </trkpt>
      <trkpt lat="45.08548" lon="6.03619">
        <ele>1478.6</ele>
        <time>2020-09-05T05:37:26Z</time>
      </trkpt>
      <trkpt lat="45.08546" lon="6.0362">
        <ele>1479</ele>
        <time>2020-09-05T05:37:27Z</time>
      </trkpt>
      <trkpt lat="45.08543" lon="6.03621">
        <ele>1479.2</ele>
        <time>2020-09-05T05:37:28Z</time>
      </trkpt>
      <trkpt lat="45.08541" lon="6.03622">
        <ele>1479.4</ele>
        <time>2020-09-05T05:37:29Z</time>
      </trkpt>
      <trkpt lat="45.08538" lon="6.03623">
        <ele>1479.4</ele>
        <time>2020-09-05T05:37:30Z</time>
      </trkpt>
      <trkpt lat="45.08536" lon="6.03623">
        <ele>1479.8</ele>
        <time>2020-09-05T05:37:31Z</time>
      </trkpt>
      <trkpt lat="45.08533" lon="6.03624">
        <ele>1480</ele>
        <time>2020-09-05T05:37:32Z</time>
      </trkpt>
      <trkpt lat="45.08531" lon="6.03624">
        <ele>1480</ele>
        <time>2020-09-05T05:37:33Z</time>
      </trkpt>
      <trkpt lat="45.08528" lon="6.03624">
        <ele>1480.4</ele>
        <time>2020-09-05T05:37:34Z</time>
      </trkpt>
      <trkpt lat="45.08526" lon="6.03624">
        <ele>1480.8</ele>
        <time>2020-09-05T05:37:35Z</time>
      </trkpt>
      <trkpt lat="45.08523" lon="6.03624">
        <ele>1481.4</ele>
        <time>2020-09-05T05:37:36Z</time>
      </trkpt>
      <trkpt lat="45.08521" lon="6.03624">
        <ele>1481.4</ele>
        <time>2020-09-05T05:37:37Z</time>
      </trkpt>
      <trkpt lat="45.08518" lon="6.03625">
        <ele>1481.6</ele>
        <time>2020-09-05T05:37:38Z</time>
      </trkpt>
      <trkpt lat="45.08516" lon="6.03625">
        <ele>1482</ele>
        <time>2020-09-05T05:37:39Z</time>
      </trkpt>
      <trkpt lat="45.08513" lon="6.03625">
        <ele>1482.4</ele>
        <time>2020-09-05T05:37:40Z</time>
      </trkpt>
      <trkpt lat="45.0851" lon="6.03626">
        <ele>1482.4</ele>
        <time>2020-09-05T05:37:41Z</time>
      </trkpt>
      <trkpt lat="45.08508" lon="6.03626">
        <ele>1482.6</ele>
        <time>2020-09-05T05:37:42Z</time>
      </trkpt>
      <trkpt lat="45.08505" lon="6.03627">
        <ele>1483</ele>
        <time>2020-09-05T05:37:43Z</time>
      </trkpt>
      <trkpt lat="45.08503" lon="6.03627">
        <ele>1483.4</ele>
        <time>2020-09-05T05:37:44Z</time>
      </trkpt>
      <trkpt lat="45.085" lon="6.03628">
        <ele>1483.8</ele>
        <time>2020-09-05T05:37:45Z</time>
      </trkpt>
      <trkpt lat="45.08498" lon="6.03628">
        <ele>1484.2</ele>
        <time>2020-09-05T05:37:46Z</time>
      </trkpt>
      <trkpt lat="45.08495" lon="6.03629">
        <ele>1484.4</ele>
        <time>2020-09-05T05:37:47Z</time>
      </trkpt>
      <trkpt lat="45.08493" lon="6.03631">
        <ele>1484.6</ele>
        <time>2020-09-05T05:37:48Z</time>
      </trkpt>
      <trkpt lat="45.08491" lon="6.03633">
        <ele>1485</ele>
        <time>2020-09-05T05:37:49Z</time>
      </trkpt>
      <trkpt lat="45.08489" lon="6.03635">
        <ele>1485.2</ele>
        <time>2020-09-05T05:37:50Z</time>
      </trkpt>
      <trkpt lat="45.08487" lon="6.03638">
        <ele>1485.4</ele>
        <time>2020-09-05T05:37:51Z</time>
      </trkpt>
      <trkpt lat="45.08485" lon="6.0364">
        <ele>1485.6</ele>
        <time>2020-09-05T05:37:52Z</time>
      </trkpt>
      <trkpt lat="45.08484" lon="6.03643">
        <ele>1486</ele>
        <time>2020-09-05T05:37:53Z</time>
      </trkpt>
      <trkpt lat="45.08482" lon="6.03645">
        <ele>1486.2</ele>
        <time>2020-09-05T05:37:54Z</time>
      </trkpt>
      <trkpt lat="45.08481" lon="6.03648">
        <ele>1486.6</ele>
        <time>2020-09-05T05:37:55Z</time>
      </trkpt>
      <trkpt lat="45.0848" lon="6.0365">
        <ele>1487</ele>
        <time>2020-09-05T05:37:56Z</time>
      </trkpt>
      <trkpt lat="45.08478" lon="6.03653">
        <ele>1486.8</ele>
        <time>2020-09-05T05:37:57Z</time>
      </trkpt>
      <trkpt lat="45.08476" lon="6.03655">
        <ele>1487.2</ele>
        <time>2020-09-05T05:37:58Z</time>
      </trkpt>
      <trkpt lat="45.08475" lon="6.03658">
        <ele>1487.4</ele>
        <time>2020-09-05T05:37:59Z</time>
      </trkpt>
      <trkpt lat="45.08473" lon="6.0366">
        <ele>1487.8</ele>
        <time>2020-09-05T05:38:00Z</time>
      </trkpt>
      <trkpt lat="45.08471" lon="6.03663">
        <ele>1488</ele>
        <time>2020-09-05T05:38:01Z</time>
      </trkpt>
      <trkpt lat="45.0847" lon="6.03665">
        <ele>1488</ele>
        <time>2020-09-05T05:38:02Z</time>
      </trkpt>
      <trkpt lat="45.08468" lon="6.03668">
        <ele>1488.2</ele>
        <time>2020-09-05T05:38:03Z</time>
      </trkpt>
      <trkpt lat="45.08467" lon="6.0367">
        <ele>1488.4</ele>
        <time>2020-09-05T05:38:04Z</time>
      </trkpt>
      <trkpt lat="45.08465" lon="6.03673">
        <ele>1488.6</ele>
        <time>2020-09-05T05:38:05Z</time>
      </trkpt>
      <trkpt lat="45.08463" lon="6.03675">
        <ele>1488.8</ele>
        <time>2020-09-05T05:38:06Z</time>
      </trkpt>
      <trkpt lat="45.08461" lon="6.03677">
        <ele>1489</ele>
        <time>2020-09-05T05:38:07Z</time>
      </trkpt>
      <trkpt lat="45.0846" lon="6.03679">
        <ele>1489.2</ele>
        <time>2020-09-05T05:38:08Z</time>
      </trkpt>
      <trkpt lat="45.08458" lon="6.03682">
        <ele>1489.4</ele>
        <time>2020-09-05T05:38:09Z</time>
      </trkpt>
      <trkpt lat="45.08457" lon="6.03684">
        <ele>1489.6</ele>
        <time>2020-09-05T05:38:10Z</time>
      </trkpt>
      <trkpt lat="45.08455" lon="6.03687">
        <ele>1489.8</ele>
        <time>2020-09-05T05:38:11Z</time>
      </trkpt>
      <trkpt lat="45.08454" lon="6.03689">
        <ele>1490.2</ele>
        <time>2020-09-05T05:38:12Z</time>
      </trkpt>
      <trkpt lat="45.08454" lon="6.03692">
        <ele>1490.2</ele>
        <time>2020-09-05T05:38:13Z</time>
      </trkpt>
      <trkpt lat="45.08454" lon="6.03694">
        <ele>1490.4</ele>
        <time>2020-09-05T05:38:14Z</time>
      </trkpt>
      <trkpt lat="45.08454" lon="6.03697">
        <ele>1490.8</ele>
        <time>2020-09-05T05:38:15Z</time>
      </trkpt>
      <trkpt lat="45.08454" lon="6.037">
        <ele>1491.2</ele>
        <time>2020-09-05T05:38:16Z</time>
      </trkpt>
      <trkpt lat="45.08454" lon="6.03704">
        <ele>1491.2</ele>
        <time>2020-09-05T05:38:17Z</time>
      </trkpt>
      <trkpt lat="45.08454" lon="6.03707">
        <ele>1491.4</ele>
        <time>2020-09-05T05:38:18Z</time>
      </trkpt>
      <trkpt lat="45.08453" lon="6.0371">
        <ele>1491.8</ele>
        <time>2020-09-05T05:38:19Z</time>
      </trkpt>
      <trkpt lat="45.08452" lon="6.03713">
        <ele>1492</ele>
        <time>2020-09-05T05:38:20Z</time>
      </trkpt>
      <trkpt lat="45.08451" lon="6.03716">
        <ele>1492</ele>
        <time>2020-09-05T05:38:21Z</time>
      </trkpt>
      <trkpt lat="45.08449" lon="6.03718">
        <ele>1492.4</ele>
        <time>2020-09-05T05:38:22Z</time>
      </trkpt>
      <trkpt lat="45.08448" lon="6.03721">
        <ele>1492.6</ele>
        <time>2020-09-05T05:38:23Z</time>
      </trkpt>
      <trkpt lat="45.08446" lon="6.03723">
        <ele>1492.8</ele>
        <time>2020-09-05T05:38:24Z</time>
      </trkpt>
      <trkpt lat="45.08444" lon="6.03726">
        <ele>1493</ele>
        <time>2020-09-05T05:38:25Z</time>
      </trkpt>
      <trkpt lat="45.08442" lon="6.03728">
        <ele>1493.2</ele>
        <time>2020-09-05T05:38:26Z</time>
      </trkpt>
      <trkpt lat="45.08441" lon="6.03731">
        <ele>1493.4</ele>
        <time>2020-09-05T05:38:27Z</time>
      </trkpt>
      <trkpt lat="45.08439" lon="6.03734">
        <ele>1493.6</ele>
        <time>2020-09-05T05:38:28Z</time>
      </trkpt>
      <trkpt lat="45.08437" lon="6.03737">
        <ele>1493.8</ele>
        <time>2020-09-05T05:38:29Z</time>
      </trkpt>
      <trkpt lat="45.08435" lon="6.0374">
        <ele>1494</ele>
        <time>2020-09-05T05:38:30Z</time>
      </trkpt>
      <trkpt lat="45.08434" lon="6.03743">
        <ele>1494</ele>
        <time>2020-09-05T05:38:31Z</time>
      </trkpt>
      <trkpt lat="45.08432" lon="6.03746">
        <ele>1494.2</ele>
        <time>2020-09-05T05:38:32Z</time>
      </trkpt>
      <trkpt lat="45.08431" lon="6.0375">
        <ele>1494.4</ele>
        <time>2020-09-05T05:38:33Z</time>
      </trkpt>
      <trkpt lat="45.08429" lon="6.03753">
        <ele>1494.4</ele>
        <time>2020-09-05T05:38:34Z</time>
      </trkpt>
      <trkpt lat="45.08428" lon="6.03757">
        <ele>1494.8</ele>
        <time>2020-09-05T05:38:35Z</time>
      </trkpt>
      <trkpt lat="45.08428" lon="6.03761">
        <ele>1494.6</ele>
        <time>2020-09-05T05:38:36Z</time>
      </trkpt>
      <trkpt lat="45.08427" lon="6.03766">
        <ele>1494.8</ele>
        <time>2020-09-05T05:38:37Z</time>
      </trkpt>
      <trkpt lat="45.08427" lon="6.0377">
        <ele>1494.8</ele>
        <time>2020-09-05T05:38:38Z</time>
      </trkpt>
      <trkpt lat="45.08428" lon="6.03775">
        <ele>1495</ele>
        <time>2020-09-05T05:38:39Z</time>
      </trkpt>
      <trkpt lat="45.08428" lon="6.0378">
        <ele>1495.2</ele>
        <time>2020-09-05T05:38:40Z</time>
      </trkpt>
      <trkpt lat="45.08428" lon="6.03784">
        <ele>1495.2</ele>
        <time>2020-09-05T05:38:41Z</time>
      </trkpt>
      <trkpt lat="45.08427" lon="6.03789">
        <ele>1495.4</ele>
        <time>2020-09-05T05:38:42Z</time>
      </trkpt>
      <trkpt lat="45.08427" lon="6.03794">
        <ele>1495.6</ele>
        <time>2020-09-05T05:38:43Z</time>
      </trkpt>
      <trkpt lat="45.08426" lon="6.03799">
        <ele>1495.8</ele>
        <time>2020-09-05T05:38:44Z</time>
      </trkpt>
      <trkpt lat="45.08425" lon="6.03804">
        <ele>1496</ele>
        <time>2020-09-05T05:38:45Z</time>
      </trkpt>
      <trkpt lat="45.08424" lon="6.03809">
        <ele>1496</ele>
        <time>2020-09-05T05:38:46Z</time>
      </trkpt>
      <trkpt lat="45.08423" lon="6.03814">
        <ele>1496.2</ele>
        <time>2020-09-05T05:38:47Z</time>
      </trkpt>
      <trkpt lat="45.08422" lon="6.03819">
        <ele>1496.2</ele>
        <time>2020-09-05T05:38:48Z</time>
      </trkpt>
      <trkpt lat="45.08421" lon="6.03824">
        <ele>1496.2</ele>
        <time>2020-09-05T05:38:49Z</time>
      </trkpt>
      <trkpt lat="45.08421" lon="6.03829">
        <ele>1496.4</ele>
        <time>2020-09-05T05:38:50Z</time>
      </trkpt>
      <trkpt lat="45.0842" lon="6.03835">
        <ele>1496.4</ele>
        <time>2020-09-05T05:38:51Z</time>
      </trkpt>
      <trkpt lat="45.08419" lon="6.0384">
        <ele>1496.6</ele>
        <time>2020-09-05T05:38:52Z</time>
      </trkpt>
      <trkpt lat="45.08418" lon="6.03845">
        <ele>1496.8</ele>
        <time>2020-09-05T05:38:53Z</time>
      </trkpt>
      <trkpt lat="45.08417" lon="6.0385">
        <ele>1496.6</ele>
        <time>2020-09-05T05:38:54Z</time>
      </trkpt>
      <trkpt lat="45.08415" lon="6.03855">
        <ele>1496.6</ele>
        <time>2020-09-05T05:38:55Z</time>
      </trkpt>
      <trkpt lat="45.08413" lon="6.03859">
        <ele>1496.4</ele>
        <time>2020-09-05T05:38:56Z</time>
      </trkpt>
      <trkpt lat="45.08411" lon="6.03864">
        <ele>1496.6</ele>
        <time>2020-09-05T05:38:57Z</time>
      </trkpt>
      <trkpt lat="45.08408" lon="6.03868">
        <ele>1496.8</ele>
        <time>2020-09-05T05:38:58Z</time>
      </trkpt>
      <trkpt lat="45.08405" lon="6.03872">
        <ele>1496.8</ele>
        <time>2020-09-05T05:38:59Z</time>
      </trkpt>
      <trkpt lat="45.08402" lon="6.03876">
        <ele>1497</ele>
        <time>2020-09-05T05:39:00Z</time>
      </trkpt>
      <trkpt lat="45.08399" lon="6.03881">
        <ele>1497</ele>
        <time>2020-09-05T05:39:01Z</time>
      </trkpt>
      <trkpt lat="45.08396" lon="6.03886">
        <ele>1497</ele>
        <time>2020-09-05T05:39:02Z</time>
      </trkpt>
      <trkpt lat="45.08393" lon="6.03891">
        <ele>1497</ele>
        <time>2020-09-05T05:39:03Z</time>
      </trkpt>
      <trkpt lat="45.0839" lon="6.03897">
        <ele>1497.2</ele>
        <time>2020-09-05T05:39:04Z</time>
      </trkpt>
      <trkpt lat="45.08388" lon="6.03902">
        <ele>1497.4</ele>
        <time>2020-09-05T05:39:05Z</time>
      </trkpt>
      <trkpt lat="45.08386" lon="6.03908">
        <ele>1497.6</ele>
        <time>2020-09-05T05:39:06Z</time>
      </trkpt>
      <trkpt lat="45.08385" lon="6.03915">
        <ele>1497.6</ele>
        <time>2020-09-05T05:39:07Z</time>
      </trkpt>
      <trkpt lat="45.08386" lon="6.03921">
        <ele>1497.8</ele>
        <time>2020-09-05T05:39:08Z</time>
      </trkpt>
      <trkpt lat="45.08387" lon="6.03927">
        <ele>1497.8</ele>
        <time>2020-09-05T05:39:09Z</time>
      </trkpt>
      <trkpt lat="45.08388" lon="6.03932">
        <ele>1498</ele>
        <time>2020-09-05T05:39:10Z</time>
      </trkpt>
      <trkpt lat="45.08389" lon="6.03938">
        <ele>1498</ele>
        <time>2020-09-05T05:39:11Z</time>
      </trkpt>
      <trkpt lat="45.08389" lon="6.03944">
        <ele>1498.2</ele>
        <time>2020-09-05T05:39:12Z</time>
      </trkpt>
      <trkpt lat="45.08388" lon="6.03949">
        <ele>1498.2</ele>
        <time>2020-09-05T05:39:13Z</time>
      </trkpt>
      <trkpt lat="45.08387" lon="6.03954">
        <ele>1498.6</ele>
        <time>2020-09-05T05:39:14Z</time>
      </trkpt>
      <trkpt lat="45.08385" lon="6.03959">
        <ele>1498.8</ele>
        <time>2020-09-05T05:39:15Z</time>
      </trkpt>
      <trkpt lat="45.08383" lon="6.03962">
        <ele>1499</ele>
        <time>2020-09-05T05:39:16Z</time>
      </trkpt>
      <trkpt lat="45.08379" lon="6.03965">
        <ele>1499.2</ele>
        <time>2020-09-05T05:39:17Z</time>
      </trkpt>
      <trkpt lat="45.08376" lon="6.03966">
        <ele>1499.2</ele>
        <time>2020-09-05T05:39:18Z</time>
      </trkpt>
      <trkpt lat="45.08372" lon="6.03967">
        <ele>1499.4</ele>
        <time>2020-09-05T05:39:19Z</time>
      </trkpt>
      <trkpt lat="45.08368" lon="6.03968">
        <ele>1499.4</ele>
        <time>2020-09-05T05:39:20Z</time>
      </trkpt>
      <trkpt lat="45.08363" lon="6.03968">
        <ele>1499.6</ele>
        <time>2020-09-05T05:39:21Z</time>
      </trkpt>
      <trkpt lat="45.08359" lon="6.03968">
        <ele>1499.8</ele>
        <time>2020-09-05T05:39:22Z</time>
      </trkpt>
      <trkpt lat="45.08355" lon="6.03969">
        <ele>1499.8</ele>
        <time>2020-09-05T05:39:23Z</time>
      </trkpt>
      <trkpt lat="45.08351" lon="6.0397">
        <ele>1500</ele>
        <time>2020-09-05T05:39:24Z</time>
      </trkpt>
      <trkpt lat="45.08347" lon="6.03973">
        <ele>1500</ele>
        <time>2020-09-05T05:39:25Z</time>
      </trkpt>
      <trkpt lat="45.08343" lon="6.03977">
        <ele>1500.2</ele>
        <time>2020-09-05T05:39:26Z</time>
      </trkpt>
      <trkpt lat="45.08341" lon="6.03982">
        <ele>1500.4</ele>
        <time>2020-09-05T05:39:27Z</time>
      </trkpt>
      <trkpt lat="45.08339" lon="6.03987">
        <ele>1500.4</ele>
        <time>2020-09-05T05:39:28Z</time>
      </trkpt>
      <trkpt lat="45.08337" lon="6.03993">
        <ele>1500.8</ele>
        <time>2020-09-05T05:39:29Z</time>
      </trkpt>
      <trkpt lat="45.08334" lon="6.03998">
        <ele>1500.8</ele>
        <time>2020-09-05T05:39:30Z</time>
      </trkpt>
      <trkpt lat="45.08332" lon="6.04003">
        <ele>1501</ele>
        <time>2020-09-05T05:39:31Z</time>
      </trkpt>
      <trkpt lat="45.08329" lon="6.04007">
        <ele>1501.2</ele>
        <time>2020-09-05T05:39:32Z</time>
      </trkpt>
      <trkpt lat="45.08326" lon="6.04011">
        <ele>1501.2</ele>
        <time>2020-09-05T05:39:33Z</time>
      </trkpt>
      <trkpt lat="45.08322" lon="6.04015">
        <ele>1501.2</ele>
        <time>2020-09-05T05:39:34Z</time>
      </trkpt>
      <trkpt lat="45.08318" lon="6.04018">
        <ele>1501.4</ele>
        <time>2020-09-05T05:39:35Z</time>
      </trkpt>
      <trkpt lat="45.08314" lon="6.04021">
        <ele>1501.4</ele>
        <time>2020-09-05T05:39:36Z</time>
      </trkpt>
      <trkpt lat="45.0831" lon="6.04023">
        <ele>1501.2</ele>
        <time>2020-09-05T05:39:37Z</time>
      </trkpt>
      <trkpt lat="45.08306" lon="6.04025">
        <ele>1501.2</ele>
        <time>2020-09-05T05:39:38Z</time>
      </trkpt>
      <trkpt lat="45.08301" lon="6.04027">
        <ele>1501.2</ele>
        <time>2020-09-05T05:39:39Z</time>
      </trkpt>
      <trkpt lat="45.08296" lon="6.04028">
        <ele>1501.2</ele>
        <time>2020-09-05T05:39:40Z</time>
      </trkpt>
      <trkpt lat="45.08291" lon="6.04029">
        <ele>1501.2</ele>
        <time>2020-09-05T05:39:41Z</time>
      </trkpt>
      <trkpt lat="45.08286" lon="6.0403">
        <ele>1501.2</ele>
        <time>2020-09-05T05:39:42Z</time>
      </trkpt>
      <trkpt lat="45.08281" lon="6.04031">
        <ele>1501.4</ele>
        <time>2020-09-05T05:39:43Z</time>
      </trkpt>
      <trkpt lat="45.08276" lon="6.04033">
        <ele>1501.6</ele>
        <time>2020-09-05T05:39:44Z</time>
      </trkpt>
      <trkpt lat="45.08272" lon="6.04036">
        <ele>1501.8</ele>
        <time>2020-09-05T05:39:45Z</time>
      </trkpt>
      <trkpt lat="45.08268" lon="6.0404">
        <ele>1502</ele>
        <time>2020-09-05T05:39:46Z</time>
      </trkpt>
      <trkpt lat="45.08264" lon="6.04044">
        <ele>1502.2</ele>
        <time>2020-09-05T05:39:47Z</time>
      </trkpt>
      <trkpt lat="45.0826" lon="6.04048">
        <ele>1502.2</ele>
        <time>2020-09-05T05:39:48Z</time>
      </trkpt>
      <trkpt lat="45.08256" lon="6.04052">
        <ele>1502.4</ele>
        <time>2020-09-05T05:39:49Z</time>
      </trkpt>
      <trkpt lat="45.08252" lon="6.04055">
        <ele>1502.6</ele>
        <time>2020-09-05T05:39:50Z</time>
      </trkpt>
      <trkpt lat="45.08249" lon="6.04059">
        <ele>1502.8</ele>
        <time>2020-09-05T05:39:51Z</time>
      </trkpt>
      <trkpt lat="45.08245" lon="6.04062">
        <ele>1503</ele>
        <time>2020-09-05T05:39:52Z</time>
      </trkpt>
      <trkpt lat="45.08241" lon="6.04065">
        <ele>1503</ele>
        <time>2020-09-05T05:39:53Z</time>
      </trkpt>
      <trkpt lat="45.08237" lon="6.04068">
        <ele>1503.2</ele>
        <time>2020-09-05T05:39:54Z</time>
      </trkpt>
      <trkpt lat="45.08233" lon="6.0407">
        <ele>1503.4</ele>
        <time>2020-09-05T05:39:55Z</time>
      </trkpt>
      <trkpt lat="45.08229" lon="6.04072">
        <ele>1503.6</ele>
        <time>2020-09-05T05:39:56Z</time>
      </trkpt>
      <trkpt lat="45.08225" lon="6.04073">
        <ele>1503.8</ele>
        <time>2020-09-05T05:39:57Z</time>
      </trkpt>
      <trkpt lat="45.0822" lon="6.04074">
        <ele>1503.8</ele>
        <time>2020-09-05T05:39:58Z</time>
      </trkpt>
      <trkpt lat="45.08216" lon="6.04076">
        <ele>1503.8</ele>
        <time>2020-09-05T05:39:59Z</time>
      </trkpt>
      <trkpt lat="45.08212" lon="6.04077">
        <ele>1504</ele>
        <time>2020-09-05T05:40:00Z</time>
      </trkpt>
      <trkpt lat="45.08207" lon="6.04078">
        <ele>1504</ele>
        <time>2020-09-05T05:40:01Z</time>
      </trkpt>
      <trkpt lat="45.08203" lon="6.0408">
        <ele>1504.2</ele>
        <time>2020-09-05T05:40:02Z</time>
      </trkpt>
      <trkpt lat="45.08198" lon="6.04082">
        <ele>1504.4</ele>
        <time>2020-09-05T05:40:03Z</time>
      </trkpt>
      <trkpt lat="45.08194" lon="6.04085">
        <ele>1504.4</ele>
        <time>2020-09-05T05:40:04Z</time>
      </trkpt>
      <trkpt lat="45.0819" lon="6.04087">
        <ele>1504.4</ele>
        <time>2020-09-05T05:40:05Z</time>
      </trkpt>
      <trkpt lat="45.08185" lon="6.04089">
        <ele>1504.8</ele>
        <time>2020-09-05T05:40:06Z</time>
      </trkpt>
      <trkpt lat="45.08181" lon="6.0409">
        <ele>1505</ele>
        <time>2020-09-05T05:40:07Z</time>
      </trkpt>
      <trkpt lat="45.08176" lon="6.04091">
        <ele>1505</ele>
        <time>2020-09-05T05:40:08Z</time>
      </trkpt>
      <trkpt lat="45.08172" lon="6.04092">
        <ele>1505.2</ele>
        <time>2020-09-05T05:40:09Z</time>
      </trkpt>
      <trkpt lat="45.08167" lon="6.04093">
        <ele>1505.4</ele>
        <time>2020-09-05T05:40:10Z</time>
      </trkpt>
      <trkpt lat="45.08163" lon="6.04093">
        <ele>1505.6</ele>
        <time>2020-09-05T05:40:11Z</time>
      </trkpt>
      <trkpt lat="45.08159" lon="6.04094">
        <ele>1505.6</ele>
        <time>2020-09-05T05:40:12Z</time>
      </trkpt>
      <trkpt lat="45.08155" lon="6.04095">
        <ele>1505.8</ele>
        <time>2020-09-05T05:40:13Z</time>
      </trkpt>
      <trkpt lat="45.08151" lon="6.04096">
        <ele>1506.2</ele>
        <time>2020-09-05T05:40:14Z</time>
      </trkpt>
      <trkpt lat="45.08147" lon="6.04097">
        <ele>1506.2</ele>
        <time>2020-09-05T05:40:15Z</time>
      </trkpt>
      <trkpt lat="45.08143" lon="6.04098">
        <ele>1506.6</ele>
        <time>2020-09-05T05:40:16Z</time>
      </trkpt>
      <trkpt lat="45.08139" lon="6.04099">
        <ele>1506.8</ele>
        <time>2020-09-05T05:40:17Z</time>
      </trkpt>
      <trkpt lat="45.08131" lon="6.04102">
        <ele>1507</ele>
        <time>2020-09-05T05:40:19Z</time>
      </trkpt>
      <trkpt lat="45.08128" lon="6.04103">
        <ele>1507.2</ele>
        <time>2020-09-05T05:40:20Z</time>
      </trkpt>
      <trkpt lat="45.08125" lon="6.04105">
        <ele>1507.6</ele>
        <time>2020-09-05T05:40:21Z</time>
      </trkpt>
      <trkpt lat="45.08121" lon="6.04107">
        <ele>1508</ele>
        <time>2020-09-05T05:40:22Z</time>
      </trkpt>
      <trkpt lat="45.08118" lon="6.04109">
        <ele>1508.2</ele>
        <time>2020-09-05T05:40:23Z</time>
      </trkpt>
      <trkpt lat="45.08115" lon="6.04111">
        <ele>1508.2</ele>
        <time>2020-09-05T05:40:24Z</time>
      </trkpt>
      <trkpt lat="45.08112" lon="6.04114">
        <ele>1508.6</ele>
        <time>2020-09-05T05:40:25Z</time>
      </trkpt>
      <trkpt lat="45.08108" lon="6.04116">
        <ele>1508.8</ele>
        <time>2020-09-05T05:40:26Z</time>
      </trkpt>
      <trkpt lat="45.08105" lon="6.04118">
        <ele>1508.8</ele>
        <time>2020-09-05T05:40:27Z</time>
      </trkpt>
      <trkpt lat="45.08102" lon="6.0412">
        <ele>1509</ele>
        <time>2020-09-05T05:40:28Z</time>
      </trkpt>
      <trkpt lat="45.08098" lon="6.04122">
        <ele>1509.2</ele>
        <time>2020-09-05T05:40:29Z</time>
      </trkpt>
      <trkpt lat="45.08095" lon="6.04124">
        <ele>1509.2</ele>
        <time>2020-09-05T05:40:30Z</time>
      </trkpt>
      <trkpt lat="45.08091" lon="6.04126">
        <ele>1509.6</ele>
        <time>2020-09-05T05:40:31Z</time>
      </trkpt>
      <trkpt lat="45.08087" lon="6.04127">
        <ele>1509.8</ele>
        <time>2020-09-05T05:40:32Z</time>
      </trkpt>
      <trkpt lat="45.08084" lon="6.04129">
        <ele>1509.8</ele>
        <time>2020-09-05T05:40:33Z</time>
      </trkpt>
      <trkpt lat="45.0808" lon="6.0413">
        <ele>1510</ele>
        <time>2020-09-05T05:40:34Z</time>
      </trkpt>
      <trkpt lat="45.08076" lon="6.04131">
        <ele>1510.2</ele>
        <time>2020-09-05T05:40:35Z</time>
      </trkpt>
      <trkpt lat="45.08072" lon="6.04132">
        <ele>1510.4</ele>
        <time>2020-09-05T05:40:36Z</time>
      </trkpt>
      <trkpt lat="45.08068" lon="6.04133">
        <ele>1510.6</ele>
        <time>2020-09-05T05:40:37Z</time>
      </trkpt>
      <trkpt lat="45.08064" lon="6.04134">
        <ele>1510.8</ele>
        <time>2020-09-05T05:40:38Z</time>
      </trkpt>
      <trkpt lat="45.0806" lon="6.04135">
        <ele>1510.8</ele>
        <time>2020-09-05T05:40:39Z</time>
      </trkpt>
      <trkpt lat="45.08056" lon="6.04136">
        <ele>1511</ele>
        <time>2020-09-05T05:40:40Z</time>
      </trkpt>
      <trkpt lat="45.08044" lon="6.0414">
        <ele>1511.4</ele>
        <time>2020-09-05T05:40:43Z</time>
      </trkpt>
      <trkpt lat="45.0804" lon="6.04142">
        <ele>1511.6</ele>
        <time>2020-09-05T05:40:44Z</time>
      </trkpt>
      <trkpt lat="45.08036" lon="6.04145">
        <ele>1511.8</ele>
        <time>2020-09-05T05:40:45Z</time>
      </trkpt>
      <trkpt lat="45.08033" lon="6.04148">
        <ele>1512.2</ele>
        <time>2020-09-05T05:40:46Z</time>
      </trkpt>
      <trkpt lat="45.08031" lon="6.04151">
        <ele>1512.4</ele>
        <time>2020-09-05T05:40:47Z</time>
      </trkpt>
      <trkpt lat="45.08028" lon="6.04155">
        <ele>1512.6</ele>
        <time>2020-09-05T05:40:48Z</time>
      </trkpt>
      <trkpt lat="45.08027" lon="6.04159">
        <ele>1512.8</ele>
        <time>2020-09-05T05:40:49Z</time>
      </trkpt>
      <trkpt lat="45.08026" lon="6.04162">
        <ele>1512.8</ele>
        <time>2020-09-05T05:40:50Z</time>
      </trkpt>
      <trkpt lat="45.08025" lon="6.04165">
        <ele>1513</ele>
        <time>2020-09-05T05:40:51Z</time>
      </trkpt>
      <trkpt lat="45.08025" lon="6.04168">
        <ele>1513</ele>
        <time>2020-09-05T05:40:52Z</time>
      </trkpt>
      <trkpt lat="45.08025" lon="6.04171">
        <ele>1513</ele>
        <time>2020-09-05T05:40:54Z</time>
      </trkpt>
      <trkpt lat="45.08028" lon="6.04173">
        <ele>1512.8</ele>
        <time>2020-09-05T05:42:14Z</time>
      </trkpt>
      <trkpt lat="45.0803" lon="6.04177">
        <ele>1512.8</ele>
        <time>2020-09-05T05:42:16Z</time>
      </trkpt>
      <trkpt lat="45.08032" lon="6.04181">
        <ele>1513</ele>
        <time>2020-09-05T05:42:18Z</time>
      </trkpt>
      <trkpt lat="45.08033" lon="6.04184">
        <ele>1513</ele>
        <time>2020-09-05T05:42:19Z</time>
      </trkpt>
      <trkpt lat="45.08035" lon="6.04187">
        <ele>1513</ele>
        <time>2020-09-05T05:42:20Z</time>
      </trkpt>
      <trkpt lat="45.08036" lon="6.04191">
        <ele>1512.8</ele>
        <time>2020-09-05T05:42:21Z</time>
      </trkpt>
      <trkpt lat="45.08038" lon="6.04196">
        <ele>1512.8</ele>
        <time>2020-09-05T05:42:22Z</time>
      </trkpt>
      <trkpt lat="45.0804" lon="6.04201">
        <ele>1512.8</ele>
        <time>2020-09-05T05:42:23Z</time>
      </trkpt>
      <trkpt lat="45.08042" lon="6.04206">
        <ele>1512.6</ele>
        <time>2020-09-05T05:42:24Z</time>
      </trkpt>
      <trkpt lat="45.08044" lon="6.04212">
        <ele>1512.6</ele>
        <time>2020-09-05T05:42:25Z</time>
      </trkpt>
      <trkpt lat="45.08046" lon="6.04217">
        <ele>1512.4</ele>
        <time>2020-09-05T05:42:26Z</time>
      </trkpt>
      <trkpt lat="45.08048" lon="6.04223">
        <ele>1512.6</ele>
        <time>2020-09-05T05:42:27Z</time>
      </trkpt>
      <trkpt lat="45.0805" lon="6.0423">
        <ele>1512.4</ele>
        <time>2020-09-05T05:42:28Z</time>
      </trkpt>
      <trkpt lat="45.08051" lon="6.04237">
        <ele>1512.4</ele>
        <time>2020-09-05T05:42:29Z</time>
      </trkpt>
      <trkpt lat="45.08052" lon="6.04244">
        <ele>1512.2</ele>
        <time>2020-09-05T05:42:30Z</time>
      </trkpt>
      <trkpt lat="45.08054" lon="6.0425">
        <ele>1512</ele>
        <time>2020-09-05T05:42:31Z</time>
      </trkpt>
      <trkpt lat="45.08055" lon="6.04257">
        <ele>1511.8</ele>
        <time>2020-09-05T05:42:32Z</time>
      </trkpt>
      <trkpt lat="45.08058" lon="6.04264">
        <ele>1511.6</ele>
        <time>2020-09-05T05:42:33Z</time>
      </trkpt>
      <trkpt lat="45.08061" lon="6.0427">
        <ele>1511.8</ele>
        <time>2020-09-05T05:42:34Z</time>
      </trkpt>
      <trkpt lat="45.08064" lon="6.04276">
        <ele>1511.6</ele>
        <time>2020-09-05T05:42:35Z</time>
      </trkpt>
      <trkpt lat="45.08067" lon="6.04283">
        <ele>1511.4</ele>
        <time>2020-09-05T05:42:36Z</time>
      </trkpt>
      <trkpt lat="45.0807" lon="6.04289">
        <ele>1511</ele>
        <time>2020-09-05T05:42:37Z</time>
      </trkpt>
      <trkpt lat="45.08072" lon="6.04297">
        <ele>1510.8</ele>
        <time>2020-09-05T05:42:38Z</time>
      </trkpt>
      <trkpt lat="45.08073" lon="6.04305">
        <ele>1510.6</ele>
        <time>2020-09-05T05:42:39Z</time>
      </trkpt>
      <trkpt lat="45.08072" lon="6.04313">
        <ele>1510.6</ele>
        <time>2020-09-05T05:42:40Z</time>
      </trkpt>
      <trkpt lat="45.08071" lon="6.04321">
        <ele>1510.4</ele>
        <time>2020-09-05T05:42:41Z</time>
      </trkpt>
      <trkpt lat="45.08071" lon="6.04329">
        <ele>1510.6</ele>
        <time>2020-09-05T05:42:42Z</time>
      </trkpt>
      <trkpt lat="45.08072" lon="6.04337">
        <ele>1510.4</ele>
        <time>2020-09-05T05:42:43Z</time>
      </trkpt>
      <trkpt lat="45.08075" lon="6.04345">
        <ele>1510.4</ele>
        <time>2020-09-05T05:42:44Z</time>
      </trkpt>
      <trkpt lat="45.08078" lon="6.04352">
        <ele>1510.4</ele>
        <time>2020-09-05T05:42:45Z</time>
      </trkpt>
      <trkpt lat="45.08082" lon="6.04358">
        <ele>1510.4</ele>
        <time>2020-09-05T05:42:46Z</time>
      </trkpt>
      <trkpt lat="45.08086" lon="6.04364">
        <ele>1510.4</ele>
        <time>2020-09-05T05:42:47Z</time>
      </trkpt>
      <trkpt lat="45.0809" lon="6.04371">
        <ele>1510.2</ele>
        <time>2020-09-05T05:42:48Z</time>
      </trkpt>
      <trkpt lat="45.08092" lon="6.04378">
        <ele>1510</ele>
        <time>2020-09-05T05:42:49Z</time>
      </trkpt>
      <trkpt lat="45.08091" lon="6.04387">
        <ele>1509.8</ele>
        <time>2020-09-05T05:42:50Z</time>
      </trkpt>
      <trkpt lat="45.0809" lon="6.04396">
        <ele>1509.6</ele>
        <time>2020-09-05T05:42:51Z</time>
      </trkpt>
      <trkpt lat="45.08087" lon="6.04404">
        <ele>1509.4</ele>
        <time>2020-09-05T05:42:52Z</time>
      </trkpt>
      <trkpt lat="45.08085" lon="6.04413">
        <ele>1509.2</ele>
        <time>2020-09-05T05:42:53Z</time>
      </trkpt>
      <trkpt lat="45.08084" lon="6.04423">
        <ele>1509.2</ele>
        <time>2020-09-05T05:42:54Z</time>
      </trkpt>
      <trkpt lat="45.08085" lon="6.04432">
        <ele>1508.6</ele>
        <time>2020-09-05T05:42:55Z</time>
      </trkpt>
      <trkpt lat="45.08088" lon="6.04441">
        <ele>1508.6</ele>
        <time>2020-09-05T05:42:56Z</time>
      </trkpt>
      <trkpt lat="45.08092" lon="6.04449">
        <ele>1508.4</ele>
        <time>2020-09-05T05:42:57Z</time>
      </trkpt>
      <trkpt lat="45.08097" lon="6.04456">
        <ele>1508.4</ele>
        <time>2020-09-05T05:42:58Z</time>
      </trkpt>
      <trkpt lat="45.08102" lon="6.04463">
        <ele>1508.2</ele>
        <time>2020-09-05T05:42:59Z</time>
      </trkpt>
      <trkpt lat="45.08106" lon="6.04472">
        <ele>1508</ele>
        <time>2020-09-05T05:43:00Z</time>
      </trkpt>
      <trkpt lat="45.08109" lon="6.04482">
        <ele>1507.6</ele>
        <time>2020-09-05T05:43:01Z</time>
      </trkpt>
      <trkpt lat="45.08109" lon="6.04493">
        <ele>1507</ele>
        <time>2020-09-05T05:43:02Z</time>
      </trkpt>
      <trkpt lat="45.0811" lon="6.04504">
        <ele>1506.8</ele>
        <time>2020-09-05T05:43:03Z</time>
      </trkpt>
      <trkpt lat="45.08112" lon="6.04515">
        <ele>1506.8</ele>
        <time>2020-09-05T05:43:04Z</time>
      </trkpt>
      <trkpt lat="45.08114" lon="6.04525">
        <ele>1506.2</ele>
        <time>2020-09-05T05:43:05Z</time>
      </trkpt>
      <trkpt lat="45.08115" lon="6.04535">
        <ele>1506</ele>
        <time>2020-09-05T05:43:06Z</time>
      </trkpt>
      <trkpt lat="45.08112" lon="6.04544">
        <ele>1505.8</ele>
        <time>2020-09-05T05:43:07Z</time>
      </trkpt>
      <trkpt lat="45.08107" lon="6.0455">
        <ele>1505.4</ele>
        <time>2020-09-05T05:43:08Z</time>
      </trkpt>
      <trkpt lat="45.08101" lon="6.04556">
        <ele>1505</ele>
        <time>2020-09-05T05:43:09Z</time>
      </trkpt>
      <trkpt lat="45.08095" lon="6.04562">
        <ele>1505</ele>
        <time>2020-09-05T05:43:10Z</time>
      </trkpt>
      <trkpt lat="45.08089" lon="6.04568">
        <ele>1504.8</ele>
        <time>2020-09-05T05:43:11Z</time>
      </trkpt>
      <trkpt lat="45.08083" lon="6.04573">
        <ele>1504.4</ele>
        <time>2020-09-05T05:43:12Z</time>
      </trkpt>
      <trkpt lat="45.08077" lon="6.04578">
        <ele>1504</ele>
        <time>2020-09-05T05:43:13Z</time>
      </trkpt>
      <trkpt lat="45.08072" lon="6.04584">
        <ele>1503.8</ele>
        <time>2020-09-05T05:43:14Z</time>
      </trkpt>
      <trkpt lat="45.08069" lon="6.04591">
        <ele>1503.8</ele>
        <time>2020-09-05T05:43:15Z</time>
      </trkpt>
      <trkpt lat="45.0807" lon="6.04599">
        <ele>1503.6</ele>
        <time>2020-09-05T05:43:16Z</time>
      </trkpt>
      <trkpt lat="45.08073" lon="6.04607">
        <ele>1503.4</ele>
        <time>2020-09-05T05:43:17Z</time>
      </trkpt>
      <trkpt lat="45.08075" lon="6.04615">
        <ele>1503.2</ele>
        <time>2020-09-05T05:43:18Z</time>
      </trkpt>
      <trkpt lat="45.08076" lon="6.04624">
        <ele>1502.8</ele>
        <time>2020-09-05T05:43:19Z</time>
      </trkpt>
      <trkpt lat="45.08074" lon="6.04633">
        <ele>1502.4</ele>
        <time>2020-09-05T05:43:20Z</time>
      </trkpt>
      <trkpt lat="45.0807" lon="6.0464">
        <ele>1502.2</ele>
        <time>2020-09-05T05:43:21Z</time>
      </trkpt>
      <trkpt lat="45.08066" lon="6.04647">
        <ele>1502</ele>
        <time>2020-09-05T05:43:22Z</time>
      </trkpt>
      <trkpt lat="45.08061" lon="6.04654">
        <ele>1501.6</ele>
        <time>2020-09-05T05:43:23Z</time>
      </trkpt>
      <trkpt lat="45.08056" lon="6.04661">
        <ele>1501.4</ele>
        <time>2020-09-05T05:43:24Z</time>
      </trkpt>
      <trkpt lat="45.08053" lon="6.0467">
        <ele>1501</ele>
        <time>2020-09-05T05:43:25Z</time>
      </trkpt>
      <trkpt lat="45.0805" lon="6.0468">
        <ele>1500.6</ele>
        <time>2020-09-05T05:43:26Z</time>
      </trkpt>
      <trkpt lat="45.08047" lon="6.04691">
        <ele>1500.2</ele>
        <time>2020-09-05T05:43:27Z</time>
      </trkpt>
      <trkpt lat="45.08044" lon="6.04701">
        <ele>1499.8</ele>
        <time>2020-09-05T05:43:28Z</time>
      </trkpt>
      <trkpt lat="45.08039" lon="6.04711">
        <ele>1499.4</ele>
        <time>2020-09-05T05:43:29Z</time>
      </trkpt>
      <trkpt lat="45.08034" lon="6.04721">
        <ele>1499</ele>
        <time>2020-09-05T05:43:30Z</time>
      </trkpt>
      <trkpt lat="45.0803" lon="6.04731">
        <ele>1498.4</ele>
        <time>2020-09-05T05:43:31Z</time>
      </trkpt>
      <trkpt lat="45.08025" lon="6.0474">
        <ele>1498</ele>
        <time>2020-09-05T05:43:32Z</time>
      </trkpt>
      <trkpt lat="45.08023" lon="6.04748">
        <ele>1497.6</ele>
        <time>2020-09-05T05:43:33Z</time>
      </trkpt>
      <trkpt lat="45.08022" lon="6.04757">
        <ele>1497.4</ele>
        <time>2020-09-05T05:43:34Z</time>
      </trkpt>
      <trkpt lat="45.08024" lon="6.04765">
        <ele>1496.8</ele>
        <time>2020-09-05T05:43:35Z</time>
      </trkpt>
      <trkpt lat="45.08028" lon="6.04772">
        <ele>1496.2</ele>
        <time>2020-09-05T05:43:36Z</time>
      </trkpt>
      <trkpt lat="45.08033" lon="6.0478">
        <ele>1496</ele>
        <time>2020-09-05T05:43:37Z</time>
      </trkpt>
      <trkpt lat="45.08038" lon="6.04787">
        <ele>1495.6</ele>
        <time>2020-09-05T05:43:38Z</time>
      </trkpt>
      <trkpt lat="45.08043" lon="6.04795">
        <ele>1495.2</ele>
        <time>2020-09-05T05:43:39Z</time>
      </trkpt>
      <trkpt lat="45.08046" lon="6.04804">
        <ele>1495</ele>
        <time>2020-09-05T05:43:40Z</time>
      </trkpt>
      <trkpt lat="45.0805" lon="6.04815">
        <ele>1494.6</ele>
        <time>2020-09-05T05:43:41Z</time>
      </trkpt>
      <trkpt lat="45.08052" lon="6.04825">
        <ele>1494.4</ele>
        <time>2020-09-05T05:43:42Z</time>
      </trkpt>
      <trkpt lat="45.08055" lon="6.04835">
        <ele>1494.4</ele>
        <time>2020-09-05T05:43:43Z</time>
      </trkpt>
      <trkpt lat="45.08059" lon="6.04845">
        <ele>1494.4</ele>
        <time>2020-09-05T05:43:44Z</time>
      </trkpt>
      <trkpt lat="45.08062" lon="6.04855">
        <ele>1494.4</ele>
        <time>2020-09-05T05:43:45Z</time>
      </trkpt>
      <trkpt lat="45.08066" lon="6.04864">
        <ele>1494</ele>
        <time>2020-09-05T05:43:46Z</time>
      </trkpt>
      <trkpt lat="45.08068" lon="6.04875">
        <ele>1494</ele>
        <time>2020-09-05T05:43:47Z</time>
      </trkpt>
      <trkpt lat="45.08069" lon="6.04885">
        <ele>1493.6</ele>
        <time>2020-09-05T05:43:48Z</time>
      </trkpt>
      <trkpt lat="45.08069" lon="6.04896">
        <ele>1493.4</ele>
        <time>2020-09-05T05:43:49Z</time>
      </trkpt>
      <trkpt lat="45.08068" lon="6.04906">
        <ele>1493.4</ele>
        <time>2020-09-05T05:43:50Z</time>
      </trkpt>
      <trkpt lat="45.08067" lon="6.04917">
        <ele>1493.2</ele>
        <time>2020-09-05T05:43:51Z</time>
      </trkpt>
      <trkpt lat="45.08066" lon="6.04927">
        <ele>1493.4</ele>
        <time>2020-09-05T05:43:52Z</time>
      </trkpt>
      <trkpt lat="45.08064" lon="6.04937">
        <ele>1493.2</ele>
        <time>2020-09-05T05:43:53Z</time>
      </trkpt>
      <trkpt lat="45.08063" lon="6.04948">
        <ele>1492.8</ele>
        <time>2020-09-05T05:43:54Z</time>
      </trkpt>
      <trkpt lat="45.0806" lon="6.04958">
        <ele>1492.6</ele>
        <time>2020-09-05T05:43:55Z</time>
      </trkpt>
      <trkpt lat="45.08057" lon="6.04968">
        <ele>1492.4</ele>
        <time>2020-09-05T05:43:56Z</time>
      </trkpt>
      <trkpt lat="45.08054" lon="6.04977">
        <ele>1492</ele>
        <time>2020-09-05T05:43:57Z</time>
      </trkpt>
      <trkpt lat="45.0805" lon="6.04987">
        <ele>1491.6</ele>
        <time>2020-09-05T05:43:58Z</time>
      </trkpt>
      <trkpt lat="45.08047" lon="6.04997">
        <ele>1491.6</ele>
        <time>2020-09-05T05:43:59Z</time>
      </trkpt>
      <trkpt lat="45.08043" lon="6.05007">
        <ele>1491.2</ele>
        <time>2020-09-05T05:44:00Z</time>
      </trkpt>
      <trkpt lat="45.0804" lon="6.05018">
        <ele>1490.8</ele>
        <time>2020-09-05T05:44:01Z</time>
      </trkpt>
      <trkpt lat="45.08036" lon="6.05029">
        <ele>1490.4</ele>
        <time>2020-09-05T05:44:02Z</time>
      </trkpt>
      <trkpt lat="45.08033" lon="6.0504">
        <ele>1490</ele>
        <time>2020-09-05T05:44:03Z</time>
      </trkpt>
      <trkpt lat="45.0803" lon="6.05051">
        <ele>1489.6</ele>
        <time>2020-09-05T05:44:04Z</time>
      </trkpt>
      <trkpt lat="45.08026" lon="6.05062">
        <ele>1489.2</ele>
        <time>2020-09-05T05:44:05Z</time>
      </trkpt>
      <trkpt lat="45.08023" lon="6.05074">
        <ele>1488.8</ele>
        <time>2020-09-05T05:44:06Z</time>
      </trkpt>
      <trkpt lat="45.0802" lon="6.05086">
        <ele>1488.6</ele>
        <time>2020-09-05T05:44:07Z</time>
      </trkpt>
      <trkpt lat="45.08016" lon="6.05099">
        <ele>1488.2</ele>
        <time>2020-09-05T05:44:08Z</time>
      </trkpt>
      <trkpt lat="45.08013" lon="6.05111">
        <ele>1488.2</ele>
        <time>2020-09-05T05:44:09Z</time>
      </trkpt>
      <trkpt lat="45.08009" lon="6.05124">
        <ele>1487.8</ele>
        <time>2020-09-05T05:44:10Z</time>
      </trkpt>
      <trkpt lat="45.08005" lon="6.05137">
        <ele>1487.4</ele>
        <time>2020-09-05T05:44:11Z</time>
      </trkpt>
      <trkpt lat="45.08002" lon="6.05149">
        <ele>1486.8</ele>
        <time>2020-09-05T05:44:12Z</time>
      </trkpt>
      <trkpt lat="45.07998" lon="6.05162">
        <ele>1486.6</ele>
        <time>2020-09-05T05:44:13Z</time>
      </trkpt>
      <trkpt lat="45.07994" lon="6.05175">
        <ele>1486</ele>
        <time>2020-09-05T05:44:14Z</time>
      </trkpt>
      <trkpt lat="45.07991" lon="6.05188">
        <ele>1485.4</ele>
        <time>2020-09-05T05:44:15Z</time>
      </trkpt>
      <trkpt lat="45.07989" lon="6.052">
        <ele>1484.8</ele>
        <time>2020-09-05T05:44:16Z</time>
      </trkpt>
      <trkpt lat="45.07989" lon="6.05213">
        <ele>1484.4</ele>
        <time>2020-09-05T05:44:17Z</time>
      </trkpt>
      <trkpt lat="45.0799" lon="6.05226">
        <ele>1483.6</ele>
        <time>2020-09-05T05:44:18Z</time>
      </trkpt>
      <trkpt lat="45.07991" lon="6.05237">
        <ele>1482.8</ele>
        <time>2020-09-05T05:44:19Z</time>
      </trkpt>
      <trkpt lat="45.07996" lon="6.05246">
        <ele>1482.4</ele>
        <time>2020-09-05T05:44:20Z</time>
      </trkpt>
      <trkpt lat="45.08004" lon="6.05253">
        <ele>1482</ele>
        <time>2020-09-05T05:44:21Z</time>
      </trkpt>
      <trkpt lat="45.08012" lon="6.05258">
        <ele>1481.8</ele>
        <time>2020-09-05T05:44:22Z</time>
      </trkpt>
      <trkpt lat="45.0802" lon="6.05262">
        <ele>1481</ele>
        <time>2020-09-05T05:44:23Z</time>
      </trkpt>
      <trkpt lat="45.08029" lon="6.05265">
        <ele>1480.8</ele>
        <time>2020-09-05T05:44:24Z</time>
      </trkpt>
      <trkpt lat="45.08038" lon="6.05269">
        <ele>1480.6</ele>
        <time>2020-09-05T05:44:25Z</time>
      </trkpt>
      <trkpt lat="45.08047" lon="6.05272">
        <ele>1480.2</ele>
        <time>2020-09-05T05:44:26Z</time>
      </trkpt>
      <trkpt lat="45.08056" lon="6.05275">
        <ele>1479.8</ele>
        <time>2020-09-05T05:44:27Z</time>
      </trkpt>
      <trkpt lat="45.08066" lon="6.05278">
        <ele>1479.4</ele>
        <time>2020-09-05T05:44:28Z</time>
      </trkpt>
      <trkpt lat="45.08075" lon="6.05278">
        <ele>1479.2</ele>
        <time>2020-09-05T05:44:29Z</time>
      </trkpt>
      <trkpt lat="45.08083" lon="6.05278">
        <ele>1478.8</ele>
        <time>2020-09-05T05:44:30Z</time>
      </trkpt>
      <trkpt lat="45.08091" lon="6.05278">
        <ele>1478.6</ele>
        <time>2020-09-05T05:44:31Z</time>
      </trkpt>
      <trkpt lat="45.081" lon="6.05277">
        <ele>1478</ele>
        <time>2020-09-05T05:44:32Z</time>
      </trkpt>
      <trkpt lat="45.08114" lon="6.05274">
        <ele>1477.2</ele>
        <time>2020-09-05T05:44:34Z</time>
      </trkpt>
      <trkpt lat="45.08124" lon="6.05273">
        <ele>1477</ele>
        <time>2020-09-05T05:44:35Z</time>
      </trkpt>
      <trkpt lat="45.08134" lon="6.05271">
        <ele>1476.8</ele>
        <time>2020-09-05T05:44:36Z</time>
      </trkpt>
      <trkpt lat="45.08145" lon="6.05269">
        <ele>1476.2</ele>
        <time>2020-09-05T05:44:37Z</time>
      </trkpt>
      <trkpt lat="45.08155" lon="6.05267">
        <ele>1476</ele>
        <time>2020-09-05T05:44:38Z</time>
      </trkpt>
      <trkpt lat="45.08165" lon="6.05264">
        <ele>1475.8</ele>
        <time>2020-09-05T05:44:39Z</time>
      </trkpt>
      <trkpt lat="45.08174" lon="6.05259">
        <ele>1475.4</ele>
        <time>2020-09-05T05:44:40Z</time>
      </trkpt>
      <trkpt lat="45.08184" lon="6.05256">
        <ele>1475.2</ele>
        <time>2020-09-05T05:44:41Z</time>
      </trkpt>
      <trkpt lat="45.08195" lon="6.05269">
        <ele>1474</ele>
        <time>2020-09-05T05:44:43Z</time>
      </trkpt>
      <trkpt lat="45.08197" lon="6.0529">
        <ele>1473.2</ele>
        <time>2020-09-05T05:44:45Z</time>
      </trkpt>
      <trkpt lat="45.08195" lon="6.05312">
        <ele>1472.6</ele>
        <time>2020-09-05T05:44:47Z</time>
      </trkpt>
      <trkpt lat="45.08192" lon="6.05335">
        <ele>1472.2</ele>
        <time>2020-09-05T05:44:49Z</time>
      </trkpt>
      <trkpt lat="45.08191" lon="6.05348">
        <ele>1472</ele>
        <time>2020-09-05T05:44:50Z</time>
      </trkpt>
      <trkpt lat="45.08192" lon="6.05373">
        <ele>1471.4</ele>
        <time>2020-09-05T05:44:52Z</time>
      </trkpt>
      <trkpt lat="45.08195" lon="6.05385">
        <ele>1471.4</ele>
        <time>2020-09-05T05:44:53Z</time>
      </trkpt>
      <trkpt lat="45.08199" lon="6.05396">
        <ele>1471.2</ele>
        <time>2020-09-05T05:44:54Z</time>
      </trkpt>
      <trkpt lat="45.08205" lon="6.05407">
        <ele>1470.8</ele>
        <time>2020-09-05T05:44:55Z</time>
      </trkpt>
      <trkpt lat="45.0821" lon="6.05419">
        <ele>1470.6</ele>
        <time>2020-09-05T05:44:56Z</time>
      </trkpt>
      <trkpt lat="45.08214" lon="6.0543">
        <ele>1470</ele>
        <time>2020-09-05T05:44:57Z</time>
      </trkpt>
      <trkpt lat="45.0822" lon="6.05442">
        <ele>1469.6</ele>
        <time>2020-09-05T05:44:58Z</time>
      </trkpt>
      <trkpt lat="45.08225" lon="6.05454">
        <ele>1469.4</ele>
        <time>2020-09-05T05:44:59Z</time>
      </trkpt>
      <trkpt lat="45.0823" lon="6.05465">
        <ele>1469</ele>
        <time>2020-09-05T05:45:00Z</time>
      </trkpt>
      <trkpt lat="45.08237" lon="6.05476">
        <ele>1468.6</ele>
        <time>2020-09-05T05:45:01Z</time>
      </trkpt>
      <trkpt lat="45.08245" lon="6.05485">
        <ele>1468.2</ele>
        <time>2020-09-05T05:45:02Z</time>
      </trkpt>
      <trkpt lat="45.08252" lon="6.05494">
        <ele>1467.8</ele>
        <time>2020-09-05T05:45:03Z</time>
      </trkpt>
      <trkpt lat="45.08259" lon="6.05504">
        <ele>1467.4</ele>
        <time>2020-09-05T05:45:04Z</time>
      </trkpt>
      <trkpt lat="45.08265" lon="6.05515">
        <ele>1466.8</ele>
        <time>2020-09-05T05:45:05Z</time>
      </trkpt>
      <trkpt lat="45.08269" lon="6.05528">
        <ele>1466.8</ele>
        <time>2020-09-05T05:45:06Z</time>
      </trkpt>
      <trkpt lat="45.08274" lon="6.05542">
        <ele>1466.4</ele>
        <time>2020-09-05T05:45:07Z</time>
      </trkpt>
      <trkpt lat="45.08279" lon="6.05556">
        <ele>1465.2</ele>
        <time>2020-09-05T05:45:08Z</time>
      </trkpt>
      <trkpt lat="45.08282" lon="6.0557">
        <ele>1464.4</ele>
        <time>2020-09-05T05:45:09Z</time>
      </trkpt>
      <trkpt lat="45.08286" lon="6.05584">
        <ele>1463.2</ele>
        <time>2020-09-05T05:45:10Z</time>
      </trkpt>
      <trkpt lat="45.08288" lon="6.05597">
        <ele>1462.2</ele>
        <time>2020-09-05T05:45:11Z</time>
      </trkpt>
      <trkpt lat="45.08289" lon="6.05608">
        <ele>1461</ele>
        <time>2020-09-05T05:45:12Z</time>
      </trkpt>
      <trkpt lat="45.08288" lon="6.05618">
        <ele>1460.2</ele>
        <time>2020-09-05T05:45:13Z</time>
      </trkpt>
      <trkpt lat="45.08283" lon="6.05624">
        <ele>1459.4</ele>
        <time>2020-09-05T05:45:14Z</time>
      </trkpt>
      <trkpt lat="45.08277" lon="6.05626">
        <ele>1458.8</ele>
        <time>2020-09-05T05:45:15Z</time>
      </trkpt>
      <trkpt lat="45.08271" lon="6.05625">
        <ele>1458</ele>
        <time>2020-09-05T05:45:16Z</time>
      </trkpt>
      <trkpt lat="45.08265" lon="6.05623">
        <ele>1457.4</ele>
        <time>2020-09-05T05:45:17Z</time>
      </trkpt>
      <trkpt lat="45.08259" lon="6.05623">
        <ele>1457</ele>
        <time>2020-09-05T05:45:18Z</time>
      </trkpt>
      <trkpt lat="45.08253" lon="6.05624">
        <ele>1456.8</ele>
        <time>2020-09-05T05:45:19Z</time>
      </trkpt>
      <trkpt lat="45.08246" lon="6.05625">
        <ele>1456.4</ele>
        <time>2020-09-05T05:45:20Z</time>
      </trkpt>
      <trkpt lat="45.08239" lon="6.05627">
        <ele>1456</ele>
        <time>2020-09-05T05:45:21Z</time>
      </trkpt>
      <trkpt lat="45.08232" lon="6.05629">
        <ele>1455.8</ele>
        <time>2020-09-05T05:45:22Z</time>
      </trkpt>
      <trkpt lat="45.08226" lon="6.0563">
        <ele>1455.4</ele>
        <time>2020-09-05T05:45:23Z</time>
      </trkpt>
      <trkpt lat="45.08219" lon="6.0563">
        <ele>1455.4</ele>
        <time>2020-09-05T05:45:24Z</time>
      </trkpt>
      <trkpt lat="45.08212" lon="6.05629">
        <ele>1454.6</ele>
        <time>2020-09-05T05:45:25Z</time>
      </trkpt>
      <trkpt lat="45.08205" lon="6.05629">
        <ele>1454.4</ele>
        <time>2020-09-05T05:45:26Z</time>
      </trkpt>
      <trkpt lat="45.08199" lon="6.05631">
        <ele>1454.4</ele>
        <time>2020-09-05T05:45:27Z</time>
      </trkpt>
      <trkpt lat="45.08195" lon="6.05632">
        <ele>1454</ele>
        <time>2020-09-05T05:45:28Z</time>
      </trkpt>
      <trkpt lat="45.08191" lon="6.05633">
        <ele>1453.4</ele>
        <time>2020-09-05T05:45:29Z</time>
      </trkpt>
      <trkpt lat="45.08187" lon="6.05634">
        <ele>1453.2</ele>
        <time>2020-09-05T05:45:30Z</time>
      </trkpt>
      <trkpt lat="45.08183" lon="6.05636">
        <ele>1453</ele>
        <time>2020-09-05T05:45:31Z</time>
      </trkpt>
      <trkpt lat="45.08178" lon="6.05639">
        <ele>1452.4</ele>
        <time>2020-09-05T05:45:32Z</time>
      </trkpt>
      <trkpt lat="45.08172" lon="6.0564">
        <ele>1452</ele>
        <time>2020-09-05T05:45:33Z</time>
      </trkpt>
      <trkpt lat="45.08165" lon="6.05641">
        <ele>1451.4</ele>
        <time>2020-09-05T05:45:34Z</time>
      </trkpt>
      <trkpt lat="45.08157" lon="6.05642">
        <ele>1451</ele>
        <time>2020-09-05T05:45:35Z</time>
      </trkpt>
      <trkpt lat="45.0815" lon="6.05642">
        <ele>1450.6</ele>
        <time>2020-09-05T05:45:36Z</time>
      </trkpt>
      <trkpt lat="45.08142" lon="6.05642">
        <ele>1450</ele>
        <time>2020-09-05T05:45:37Z</time>
      </trkpt>
      <trkpt lat="45.08133" lon="6.05645">
        <ele>1449.4</ele>
        <time>2020-09-05T05:45:38Z</time>
      </trkpt>
      <trkpt lat="45.08125" lon="6.05649">
        <ele>1449</ele>
        <time>2020-09-05T05:45:39Z</time>
      </trkpt>
      <trkpt lat="45.08118" lon="6.05655">
        <ele>1447.8</ele>
        <time>2020-09-05T05:45:40Z</time>
      </trkpt>
      <trkpt lat="45.08111" lon="6.05658">
        <ele>1447.2</ele>
        <time>2020-09-05T05:45:41Z</time>
      </trkpt>
      <trkpt lat="45.08104" lon="6.05663">
        <ele>1446.2</ele>
        <time>2020-09-05T05:45:42Z</time>
      </trkpt>
      <trkpt lat="45.08098" lon="6.05669">
        <ele>1445</ele>
        <time>2020-09-05T05:45:43Z</time>
      </trkpt>
      <trkpt lat="45.08095" lon="6.05676">
        <ele>1444</ele>
        <time>2020-09-05T05:45:44Z</time>
      </trkpt>
      <trkpt lat="45.08093" lon="6.05683">
        <ele>1443.6</ele>
        <time>2020-09-05T05:45:45Z</time>
      </trkpt>
      <trkpt lat="45.0809" lon="6.05692">
        <ele>1443</ele>
        <time>2020-09-05T05:45:46Z</time>
      </trkpt>
      <trkpt lat="45.08087" lon="6.05701">
        <ele>1442.6</ele>
        <time>2020-09-05T05:45:47Z</time>
      </trkpt>
      <trkpt lat="45.08083" lon="6.05711">
        <ele>1441.8</ele>
        <time>2020-09-05T05:45:48Z</time>
      </trkpt>
      <trkpt lat="45.08079" lon="6.05722">
        <ele>1441.4</ele>
        <time>2020-09-05T05:45:49Z</time>
      </trkpt>
      <trkpt lat="45.08077" lon="6.05732">
        <ele>1440.6</ele>
        <time>2020-09-05T05:45:50Z</time>
      </trkpt>
      <trkpt lat="45.08075" lon="6.05741">
        <ele>1440</ele>
        <time>2020-09-05T05:45:51Z</time>
      </trkpt>
      <trkpt lat="45.08073" lon="6.05751">
        <ele>1439.6</ele>
        <time>2020-09-05T05:45:52Z</time>
      </trkpt>
      <trkpt lat="45.08073" lon="6.05762">
        <ele>1439.2</ele>
        <time>2020-09-05T05:45:53Z</time>
      </trkpt>
      <trkpt lat="45.08073" lon="6.05775">
        <ele>1438.6</ele>
        <time>2020-09-05T05:45:54Z</time>
      </trkpt>
      <trkpt lat="45.08073" lon="6.05788">
        <ele>1438.4</ele>
        <time>2020-09-05T05:45:55Z</time>
      </trkpt>
      <trkpt lat="45.08074" lon="6.05801">
        <ele>1438</ele>
        <time>2020-09-05T05:45:56Z</time>
      </trkpt>
      <trkpt lat="45.08076" lon="6.05815">
        <ele>1436.8</ele>
        <time>2020-09-05T05:45:57Z</time>
      </trkpt>
      <trkpt lat="45.08078" lon="6.05828">
        <ele>1436</ele>
        <time>2020-09-05T05:45:58Z</time>
      </trkpt>
      <trkpt lat="45.08081" lon="6.05841">
        <ele>1434.8</ele>
        <time>2020-09-05T05:45:59Z</time>
      </trkpt>
      <trkpt lat="45.08084" lon="6.05853">
        <ele>1433.8</ele>
        <time>2020-09-05T05:46:00Z</time>
      </trkpt>
      <trkpt lat="45.08086" lon="6.05862">
        <ele>1432.4</ele>
        <time>2020-09-05T05:46:01Z</time>
      </trkpt>
      <trkpt lat="45.08087" lon="6.05869">
        <ele>1431.6</ele>
        <time>2020-09-05T05:46:02Z</time>
      </trkpt>
      <trkpt lat="45.08085" lon="6.05873">
        <ele>1431</ele>
        <time>2020-09-05T05:46:03Z</time>
      </trkpt>
      <trkpt lat="45.08082" lon="6.05873">
        <ele>1430.4</ele>
        <time>2020-09-05T05:46:04Z</time>
      </trkpt>
      <trkpt lat="45.08079" lon="6.05869">
        <ele>1430</ele>
        <time>2020-09-05T05:46:05Z</time>
      </trkpt>
      <trkpt lat="45.08076" lon="6.05862">
        <ele>1429.6</ele>
        <time>2020-09-05T05:46:06Z</time>
      </trkpt>
      <trkpt lat="45.08073" lon="6.05854">
        <ele>1429.4</ele>
        <time>2020-09-05T05:46:07Z</time>
      </trkpt>
      <trkpt lat="45.0807" lon="6.05844">
        <ele>1429</ele>
        <time>2020-09-05T05:46:08Z</time>
      </trkpt>
      <trkpt lat="45.08066" lon="6.05835">
        <ele>1428.6</ele>
        <time>2020-09-05T05:46:09Z</time>
      </trkpt>
      <trkpt lat="45.08062" lon="6.05825">
        <ele>1428</ele>
        <time>2020-09-05T05:46:10Z</time>
      </trkpt>
      <trkpt lat="45.08058" lon="6.05814">
        <ele>1427.8</ele>
        <time>2020-09-05T05:46:11Z</time>
      </trkpt>
      <trkpt lat="45.08054" lon="6.05802">
        <ele>1427.4</ele>
        <time>2020-09-05T05:46:12Z</time>
      </trkpt>
      <trkpt lat="45.08049" lon="6.0579">
        <ele>1426.8</ele>
        <time>2020-09-05T05:46:13Z</time>
      </trkpt>
      <trkpt lat="45.08045" lon="6.05778">
        <ele>1426.4</ele>
        <time>2020-09-05T05:46:14Z</time>
      </trkpt>
      <trkpt lat="45.0804" lon="6.05764">
        <ele>1425.8</ele>
        <time>2020-09-05T05:46:15Z</time>
      </trkpt>
      <trkpt lat="45.08035" lon="6.05751">
        <ele>1425.6</ele>
        <time>2020-09-05T05:46:16Z</time>
      </trkpt>
      <trkpt lat="45.08029" lon="6.05738">
        <ele>1425.2</ele>
        <time>2020-09-05T05:46:17Z</time>
      </trkpt>
      <trkpt lat="45.08023" lon="6.05726">
        <ele>1424.8</ele>
        <time>2020-09-05T05:46:18Z</time>
      </trkpt>
      <trkpt lat="45.08017" lon="6.05713">
        <ele>1424.2</ele>
        <time>2020-09-05T05:46:19Z</time>
      </trkpt>
      <trkpt lat="45.08013" lon="6.057">
        <ele>1423.6</ele>
        <time>2020-09-05T05:46:20Z</time>
      </trkpt>
      <trkpt lat="45.08009" lon="6.05686">
        <ele>1422.8</ele>
        <time>2020-09-05T05:46:21Z</time>
      </trkpt>
      <trkpt lat="45.08006" lon="6.05671">
        <ele>1422</ele>
        <time>2020-09-05T05:46:22Z</time>
      </trkpt>
      <trkpt lat="45.08006" lon="6.05655">
        <ele>1421.4</ele>
        <time>2020-09-05T05:46:23Z</time>
      </trkpt>
      <trkpt lat="45.08007" lon="6.05639">
        <ele>1420.8</ele>
        <time>2020-09-05T05:46:24Z</time>
      </trkpt>
      <trkpt lat="45.0801" lon="6.05624">
        <ele>1420.2</ele>
        <time>2020-09-05T05:46:25Z</time>
      </trkpt>
      <trkpt lat="45.08013" lon="6.05608">
        <ele>1419.4</ele>
        <time>2020-09-05T05:46:26Z</time>
      </trkpt>
      <trkpt lat="45.08016" lon="6.05595">
        <ele>1418.6</ele>
        <time>2020-09-05T05:46:27Z</time>
      </trkpt>
      <trkpt lat="45.08021" lon="6.05583">
        <ele>1417.6</ele>
        <time>2020-09-05T05:46:28Z</time>
      </trkpt>
      <trkpt lat="45.08027" lon="6.05573">
        <ele>1416.8</ele>
        <time>2020-09-05T05:46:29Z</time>
      </trkpt>
      <trkpt lat="45.08036" lon="6.05566">
        <ele>1416.4</ele>
        <time>2020-09-05T05:46:30Z</time>
      </trkpt>
      <trkpt lat="45.08046" lon="6.05561">
        <ele>1415.4</ele>
        <time>2020-09-05T05:46:31Z</time>
      </trkpt>
      <trkpt lat="45.08056" lon="6.05557">
        <ele>1414.2</ele>
        <time>2020-09-05T05:46:32Z</time>
      </trkpt>
      <trkpt lat="45.08066" lon="6.05552">
        <ele>1412.6</ele>
        <time>2020-09-05T05:46:33Z</time>
      </trkpt>
      <trkpt lat="45.08075" lon="6.05547">
        <ele>1411.4</ele>
        <time>2020-09-05T05:46:34Z</time>
      </trkpt>
      <trkpt lat="45.08082" lon="6.05541">
        <ele>1410.2</ele>
        <time>2020-09-05T05:46:35Z</time>
      </trkpt>
      <trkpt lat="45.08084" lon="6.0553">
        <ele>1409.2</ele>
        <time>2020-09-05T05:46:36Z</time>
      </trkpt>
      <trkpt lat="45.08083" lon="6.05516">
        <ele>1408.4</ele>
        <time>2020-09-05T05:46:37Z</time>
      </trkpt>
      <trkpt lat="45.08078" lon="6.05503">
        <ele>1408</ele>
        <time>2020-09-05T05:46:38Z</time>
      </trkpt>
      <trkpt lat="45.08072" lon="6.05493">
        <ele>1407.2</ele>
        <time>2020-09-05T05:46:39Z</time>
      </trkpt>
      <trkpt lat="45.08064" lon="6.05484">
        <ele>1406.6</ele>
        <time>2020-09-05T05:46:40Z</time>
      </trkpt>
      <trkpt lat="45.08054" lon="6.05477">
        <ele>1405.6</ele>
        <time>2020-09-05T05:46:41Z</time>
      </trkpt>
      <trkpt lat="45.08044" lon="6.05473">
        <ele>1405</ele>
        <time>2020-09-05T05:46:42Z</time>
      </trkpt>
      <trkpt lat="45.08034" lon="6.05471">
        <ele>1404.2</ele>
        <time>2020-09-05T05:46:43Z</time>
      </trkpt>
      <trkpt lat="45.08022" lon="6.05467">
        <ele>1403</ele>
        <time>2020-09-05T05:46:44Z</time>
      </trkpt>
      <trkpt lat="45.08009" lon="6.05463">
        <ele>1403.6</ele>
        <time>2020-09-05T05:46:45Z</time>
      </trkpt>
      <trkpt lat="45.07996" lon="6.05461">
        <ele>1402.6</ele>
        <time>2020-09-05T05:46:46Z</time>
      </trkpt>
      <trkpt lat="45.07983" lon="6.05458">
        <ele>1401.8</ele>
        <time>2020-09-05T05:46:47Z</time>
      </trkpt>
      <trkpt lat="45.0797" lon="6.05456">
        <ele>1400.8</ele>
        <time>2020-09-05T05:46:48Z</time>
      </trkpt>
      <trkpt lat="45.07957" lon="6.05456">
        <ele>1399.4</ele>
        <time>2020-09-05T05:46:49Z</time>
      </trkpt>
      <trkpt lat="45.07944" lon="6.05459">
        <ele>1398.2</ele>
        <time>2020-09-05T05:46:50Z</time>
      </trkpt>
      <trkpt lat="45.07931" lon="6.05461">
        <ele>1397.6</ele>
        <time>2020-09-05T05:46:51Z</time>
      </trkpt>
      <trkpt lat="45.07918" lon="6.05461">
        <ele>1396.8</ele>
        <time>2020-09-05T05:46:52Z</time>
      </trkpt>
      <trkpt lat="45.07905" lon="6.05457">
        <ele>1396</ele>
        <time>2020-09-05T05:46:53Z</time>
      </trkpt>
      <trkpt lat="45.07892" lon="6.05451">
        <ele>1394.8</ele>
        <time>2020-09-05T05:46:54Z</time>
      </trkpt>
      <trkpt lat="45.07879" lon="6.05443">
        <ele>1393.8</ele>
        <time>2020-09-05T05:46:55Z</time>
      </trkpt>
      <trkpt lat="45.07865" lon="6.05435">
        <ele>1392.6</ele>
        <time>2020-09-05T05:46:56Z</time>
      </trkpt>
      <trkpt lat="45.07853" lon="6.05427">
        <ele>1391.4</ele>
        <time>2020-09-05T05:46:57Z</time>
      </trkpt>
      <trkpt lat="45.0784" lon="6.05419">
        <ele>1390</ele>
        <time>2020-09-05T05:46:58Z</time>
      </trkpt>
      <trkpt lat="45.07828" lon="6.05411">
        <ele>1388</ele>
        <time>2020-09-05T05:46:59Z</time>
      </trkpt>
      <trkpt lat="45.07816" lon="6.05403">
        <ele>1387</ele>
        <time>2020-09-05T05:47:00Z</time>
      </trkpt>
      <trkpt lat="45.07805" lon="6.05395">
        <ele>1385.8</ele>
        <time>2020-09-05T05:47:01Z</time>
      </trkpt>
      <trkpt lat="45.07794" lon="6.05386">
        <ele>1384.2</ele>
        <time>2020-09-05T05:47:02Z</time>
      </trkpt>
      <trkpt lat="45.07784" lon="6.05378">
        <ele>1382.8</ele>
        <time>2020-09-05T05:47:03Z</time>
      </trkpt>
      <trkpt lat="45.07774" lon="6.0537">
        <ele>1381.2</ele>
        <time>2020-09-05T05:47:04Z</time>
      </trkpt>
      <trkpt lat="45.07764" lon="6.05363">
        <ele>1379.8</ele>
        <time>2020-09-05T05:47:05Z</time>
      </trkpt>
      <trkpt lat="45.07754" lon="6.05357">
        <ele>1378.2</ele>
        <time>2020-09-05T05:47:06Z</time>
      </trkpt>
      <trkpt lat="45.07744" lon="6.05353">
        <ele>1377</ele>
        <time>2020-09-05T05:47:07Z</time>
      </trkpt>
      <trkpt lat="45.07733" lon="6.0535">
        <ele>1375.4</ele>
        <time>2020-09-05T05:47:08Z</time>
      </trkpt>
      <trkpt lat="45.07722" lon="6.05347">
        <ele>1374</ele>
        <time>2020-09-05T05:47:09Z</time>
      </trkpt>
      <trkpt lat="45.07714" lon="6.05343">
        <ele>1372.8</ele>
        <time>2020-09-05T05:47:10Z</time>
      </trkpt>
      <trkpt lat="45.07708" lon="6.05337">
        <ele>1371.6</ele>
        <time>2020-09-05T05:47:11Z</time>
      </trkpt>
      <trkpt lat="45.07705" lon="6.05327">
        <ele>1370.6</ele>
        <time>2020-09-05T05:47:12Z</time>
      </trkpt>
      <trkpt lat="45.07706" lon="6.05317">
        <ele>1369.8</ele>
        <time>2020-09-05T05:47:13Z</time>
      </trkpt>
      <trkpt lat="45.0771" lon="6.05308">
        <ele>1369.4</ele>
        <time>2020-09-05T05:47:14Z</time>
      </trkpt>
      <trkpt lat="45.07717" lon="6.053">
        <ele>1369</ele>
        <time>2020-09-05T05:47:15Z</time>
      </trkpt>
      <trkpt lat="45.07724" lon="6.05293">
        <ele>1368.6</ele>
        <time>2020-09-05T05:47:16Z</time>
      </trkpt>
      <trkpt lat="45.07732" lon="6.05286">
        <ele>1368.4</ele>
        <time>2020-09-05T05:47:17Z</time>
      </trkpt>
      <trkpt lat="45.07739" lon="6.05277">
        <ele>1368</ele>
        <time>2020-09-05T05:47:18Z</time>
      </trkpt>
      <trkpt lat="45.07745" lon="6.05268">
        <ele>1367.6</ele>
        <time>2020-09-05T05:47:19Z</time>
      </trkpt>
      <trkpt lat="45.07752" lon="6.05258">
        <ele>1367.4</ele>
        <time>2020-09-05T05:47:20Z</time>
      </trkpt>
      <trkpt lat="45.07758" lon="6.05247">
        <ele>1366.8</ele>
        <time>2020-09-05T05:47:21Z</time>
      </trkpt>
      <trkpt lat="45.07763" lon="6.05236">
        <ele>1366</ele>
        <time>2020-09-05T05:47:22Z</time>
      </trkpt>
      <trkpt lat="45.07769" lon="6.05223">
        <ele>1365.2</ele>
        <time>2020-09-05T05:47:23Z</time>
      </trkpt>
      <trkpt lat="45.07773" lon="6.05209">
        <ele>1364.4</ele>
        <time>2020-09-05T05:47:24Z</time>
      </trkpt>
      <trkpt lat="45.07777" lon="6.05194">
        <ele>1363.4</ele>
        <time>2020-09-05T05:47:25Z</time>
      </trkpt>
      <trkpt lat="45.07781" lon="6.05179">
        <ele>1362.8</ele>
        <time>2020-09-05T05:47:26Z</time>
      </trkpt>
      <trkpt lat="45.07785" lon="6.05163">
        <ele>1362.2</ele>
        <time>2020-09-05T05:47:27Z</time>
      </trkpt>
      <trkpt lat="45.0779" lon="6.05147">
        <ele>1361.4</ele>
        <time>2020-09-05T05:47:28Z</time>
      </trkpt>
      <trkpt lat="45.07796" lon="6.05131">
        <ele>1361.2</ele>
        <time>2020-09-05T05:47:29Z</time>
      </trkpt>
      <trkpt lat="45.07802" lon="6.05114">
        <ele>1360</ele>
        <time>2020-09-05T05:47:30Z</time>
      </trkpt>
      <trkpt lat="45.07808" lon="6.05097">
        <ele>1359.4</ele>
        <time>2020-09-05T05:47:31Z</time>
      </trkpt>
      <trkpt lat="45.07815" lon="6.0508">
        <ele>1358.4</ele>
        <time>2020-09-05T05:47:32Z</time>
      </trkpt>
      <trkpt lat="45.07821" lon="6.05063">
        <ele>1357</ele>
        <time>2020-09-05T05:47:33Z</time>
      </trkpt>
      <trkpt lat="45.07827" lon="6.05045">
        <ele>1356.2</ele>
        <time>2020-09-05T05:47:34Z</time>
      </trkpt>
      <trkpt lat="45.07833" lon="6.05027">
        <ele>1355.2</ele>
        <time>2020-09-05T05:47:35Z</time>
      </trkpt>
      <trkpt lat="45.07838" lon="6.05007">
        <ele>1354</ele>
        <time>2020-09-05T05:47:36Z</time>
      </trkpt>
      <trkpt lat="45.07842" lon="6.04988">
        <ele>1352.8</ele>
        <time>2020-09-05T05:47:37Z</time>
      </trkpt>
      <trkpt lat="45.07844" lon="6.04968">
        <ele>1351.2</ele>
        <time>2020-09-05T05:47:38Z</time>
      </trkpt>
      <trkpt lat="45.07845" lon="6.04949">
        <ele>1349.4</ele>
        <time>2020-09-05T05:47:39Z</time>
      </trkpt>
      <trkpt lat="45.07845" lon="6.04931">
        <ele>1347.2</ele>
        <time>2020-09-05T05:47:40Z</time>
      </trkpt>
      <trkpt lat="45.07844" lon="6.04915">
        <ele>1345.6</ele>
        <time>2020-09-05T05:47:41Z</time>
      </trkpt>
      <trkpt lat="45.07841" lon="6.04901">
        <ele>1343.8</ele>
        <time>2020-09-05T05:47:42Z</time>
      </trkpt>
      <trkpt lat="45.07833" lon="6.04887">
        <ele>1342.2</ele>
        <time>2020-09-05T05:47:43Z</time>
      </trkpt>
      <trkpt lat="45.07824" lon="6.04874">
        <ele>1341</ele>
        <time>2020-09-05T05:47:44Z</time>
      </trkpt>
      <trkpt lat="45.07817" lon="6.04859">
        <ele>1339.2</ele>
        <time>2020-09-05T05:47:45Z</time>
      </trkpt>
      <trkpt lat="45.0781" lon="6.04844">
        <ele>1338.8</ele>
        <time>2020-09-05T05:47:46Z</time>
      </trkpt>
      <trkpt lat="45.07806" lon="6.04828">
        <ele>1337.4</ele>
        <time>2020-09-05T05:47:47Z</time>
      </trkpt>
      <trkpt lat="45.07801" lon="6.04813">
        <ele>1335.6</ele>
        <time>2020-09-05T05:47:48Z</time>
      </trkpt>
      <trkpt lat="45.07798" lon="6.04799">
        <ele>1334</ele>
        <time>2020-09-05T05:47:49Z</time>
      </trkpt>
      <trkpt lat="45.07795" lon="6.04788">
        <ele>1332.4</ele>
        <time>2020-09-05T05:47:50Z</time>
      </trkpt>
      <trkpt lat="45.07792" lon="6.04779">
        <ele>1331.2</ele>
        <time>2020-09-05T05:47:51Z</time>
      </trkpt>
      <trkpt lat="45.07787" lon="6.04775">
        <ele>1330.2</ele>
        <time>2020-09-05T05:47:52Z</time>
      </trkpt>
      <trkpt lat="45.07779" lon="6.04786">
        <ele>1329</ele>
        <time>2020-09-05T05:47:54Z</time>
      </trkpt>
      <trkpt lat="45.07781" lon="6.04806">
        <ele>1328</ele>
        <time>2020-09-05T05:47:56Z</time>
      </trkpt>
      <trkpt lat="45.07784" lon="6.04816">
        <ele>1327.6</ele>
        <time>2020-09-05T05:47:57Z</time>
      </trkpt>
      <trkpt lat="45.07787" lon="6.04826">
        <ele>1327.2</ele>
        <time>2020-09-05T05:47:58Z</time>
      </trkpt>
      <trkpt lat="45.0779" lon="6.04837">
        <ele>1326.8</ele>
        <time>2020-09-05T05:47:59Z</time>
      </trkpt>
      <trkpt lat="45.07792" lon="6.0485">
        <ele>1326.2</ele>
        <time>2020-09-05T05:48:00Z</time>
      </trkpt>
      <trkpt lat="45.07793" lon="6.04863">
        <ele>1325.8</ele>
        <time>2020-09-05T05:48:01Z</time>
      </trkpt>
      <trkpt lat="45.07793" lon="6.04876">
        <ele>1324.8</ele>
        <time>2020-09-05T05:48:02Z</time>
      </trkpt>
      <trkpt lat="45.07795" lon="6.04891">
        <ele>1324</ele>
        <time>2020-09-05T05:48:03Z</time>
      </trkpt>
      <trkpt lat="45.07798" lon="6.04906">
        <ele>1322.8</ele>
        <time>2020-09-05T05:48:04Z</time>
      </trkpt>
      <trkpt lat="45.07801" lon="6.04919">
        <ele>1321.8</ele>
        <time>2020-09-05T05:48:05Z</time>
      </trkpt>
      <trkpt lat="45.07803" lon="6.04932">
        <ele>1321</ele>
        <time>2020-09-05T05:48:06Z</time>
      </trkpt>
      <trkpt lat="45.07802" lon="6.04945">
        <ele>1320.2</ele>
        <time>2020-09-05T05:48:07Z</time>
      </trkpt>
      <trkpt lat="45.07799" lon="6.04958">
        <ele>1319</ele>
        <time>2020-09-05T05:48:08Z</time>
      </trkpt>
      <trkpt lat="45.07794" lon="6.04971">
        <ele>1318.4</ele>
        <time>2020-09-05T05:48:09Z</time>
      </trkpt>
      <trkpt lat="45.07787" lon="6.04984">
        <ele>1317.4</ele>
        <time>2020-09-05T05:48:10Z</time>
      </trkpt>
      <trkpt lat="45.0778" lon="6.04997">
        <ele>1316.8</ele>
        <time>2020-09-05T05:48:11Z</time>
      </trkpt>
      <trkpt lat="45.07772" lon="6.05011">
        <ele>1316.2</ele>
        <time>2020-09-05T05:48:12Z</time>
      </trkpt>
      <trkpt lat="45.07762" lon="6.05025">
        <ele>1315</ele>
        <time>2020-09-05T05:48:13Z</time>
      </trkpt>
      <trkpt lat="45.07753" lon="6.05039">
        <ele>1314</ele>
        <time>2020-09-05T05:48:14Z</time>
      </trkpt>
      <trkpt lat="45.07742" lon="6.05054">
        <ele>1312.8</ele>
        <time>2020-09-05T05:48:15Z</time>
      </trkpt>
      <trkpt lat="45.07731" lon="6.05069">
        <ele>1311.8</ele>
        <time>2020-09-05T05:48:16Z</time>
      </trkpt>
      <trkpt lat="45.07721" lon="6.05085">
        <ele>1310.2</ele>
        <time>2020-09-05T05:48:17Z</time>
      </trkpt>
      <trkpt lat="45.07711" lon="6.05101">
        <ele>1308.4</ele>
        <time>2020-09-05T05:48:18Z</time>
      </trkpt>
      <trkpt lat="45.07702" lon="6.05116">
        <ele>1307</ele>
        <time>2020-09-05T05:48:19Z</time>
      </trkpt>
      <trkpt lat="45.07694" lon="6.0513">
        <ele>1306</ele>
        <time>2020-09-05T05:48:20Z</time>
      </trkpt>
      <trkpt lat="45.07686" lon="6.05143">
        <ele>1304.6</ele>
        <time>2020-09-05T05:48:21Z</time>
      </trkpt>
      <trkpt lat="45.07677" lon="6.05155">
        <ele>1303</ele>
        <time>2020-09-05T05:48:22Z</time>
      </trkpt>
      <trkpt lat="45.07667" lon="6.05165">
        <ele>1301.6</ele>
        <time>2020-09-05T05:48:23Z</time>
      </trkpt>
      <trkpt lat="45.07654" lon="6.05172">
        <ele>1300.4</ele>
        <time>2020-09-05T05:48:24Z</time>
      </trkpt>
      <trkpt lat="45.07641" lon="6.05177">
        <ele>1299</ele>
        <time>2020-09-05T05:48:25Z</time>
      </trkpt>
      <trkpt lat="45.07628" lon="6.05181">
        <ele>1298</ele>
        <time>2020-09-05T05:48:26Z</time>
      </trkpt>
      <trkpt lat="45.07614" lon="6.05184">
        <ele>1296.4</ele>
        <time>2020-09-05T05:48:27Z</time>
      </trkpt>
      <trkpt lat="45.076" lon="6.05188">
        <ele>1295.2</ele>
        <time>2020-09-05T05:48:28Z</time>
      </trkpt>
      <trkpt lat="45.07586" lon="6.05191">
        <ele>1293.8</ele>
        <time>2020-09-05T05:48:29Z</time>
      </trkpt>
      <trkpt lat="45.07571" lon="6.05195">
        <ele>1292</ele>
        <time>2020-09-05T05:48:30Z</time>
      </trkpt>
      <trkpt lat="45.07558" lon="6.052">
        <ele>1290.4</ele>
        <time>2020-09-05T05:48:31Z</time>
      </trkpt>
      <trkpt lat="45.07544" lon="6.05205">
        <ele>1289</ele>
        <time>2020-09-05T05:48:32Z</time>
      </trkpt>
      <trkpt lat="45.07531" lon="6.05211">
        <ele>1287</ele>
        <time>2020-09-05T05:48:33Z</time>
      </trkpt>
      <trkpt lat="45.07519" lon="6.05216">
        <ele>1284.6</ele>
        <time>2020-09-05T05:48:34Z</time>
      </trkpt>
      <trkpt lat="45.07509" lon="6.05221">
        <ele>1282.4</ele>
        <time>2020-09-05T05:48:35Z</time>
      </trkpt>
      <trkpt lat="45.075" lon="6.05227">
        <ele>1280.6</ele>
        <time>2020-09-05T05:48:36Z</time>
      </trkpt>
      <trkpt lat="45.07491" lon="6.05234">
        <ele>1278.4</ele>
        <time>2020-09-05T05:48:37Z</time>
      </trkpt>
      <trkpt lat="45.07485" lon="6.0524">
        <ele>1277.2</ele>
        <time>2020-09-05T05:48:38Z</time>
      </trkpt>
      <trkpt lat="45.07479" lon="6.05244">
        <ele>1275.8</ele>
        <time>2020-09-05T05:48:39Z</time>
      </trkpt>
      <trkpt lat="45.07475" lon="6.05244">
        <ele>1274.6</ele>
        <time>2020-09-05T05:48:40Z</time>
      </trkpt>
      <trkpt lat="45.07473" lon="6.05238">
        <ele>1274.2</ele>
        <time>2020-09-05T05:48:41Z</time>
      </trkpt>
      <trkpt lat="45.07475" lon="6.05232">
        <ele>1273.8</ele>
        <time>2020-09-05T05:48:42Z</time>
      </trkpt>
      <trkpt lat="45.07479" lon="6.05227">
        <ele>1273.4</ele>
        <time>2020-09-05T05:48:43Z</time>
      </trkpt>
      <trkpt lat="45.07484" lon="6.05223">
        <ele>1273</ele>
        <time>2020-09-05T05:48:44Z</time>
      </trkpt>
      <trkpt lat="45.07491" lon="6.05219">
        <ele>1272.4</ele>
        <time>2020-09-05T05:48:45Z</time>
      </trkpt>
      <trkpt lat="45.07498" lon="6.05216">
        <ele>1272</ele>
        <time>2020-09-05T05:48:46Z</time>
      </trkpt>
      <trkpt lat="45.07505" lon="6.05212">
        <ele>1271.2</ele>
        <time>2020-09-05T05:48:47Z</time>
      </trkpt>
      <trkpt lat="45.07513" lon="6.05208">
        <ele>1270.6</ele>
        <time>2020-09-05T05:48:48Z</time>
      </trkpt>
      <trkpt lat="45.07521" lon="6.05203">
        <ele>1270</ele>
        <time>2020-09-05T05:48:49Z</time>
      </trkpt>
      <trkpt lat="45.0753" lon="6.05197">
        <ele>1269.2</ele>
        <time>2020-09-05T05:48:50Z</time>
      </trkpt>
      <trkpt lat="45.07539" lon="6.05191">
        <ele>1268.6</ele>
        <time>2020-09-05T05:48:51Z</time>
      </trkpt>
      <trkpt lat="45.07548" lon="6.05185">
        <ele>1268.8</ele>
        <time>2020-09-05T05:48:52Z</time>
      </trkpt>
      <trkpt lat="45.07558" lon="6.05179">
        <ele>1268.2</ele>
        <time>2020-09-05T05:48:53Z</time>
      </trkpt>
      <trkpt lat="45.07568" lon="6.05172">
        <ele>1267.4</ele>
        <time>2020-09-05T05:48:54Z</time>
      </trkpt>
      <trkpt lat="45.07578" lon="6.05165">
        <ele>1266.4</ele>
        <time>2020-09-05T05:48:55Z</time>
      </trkpt>
      <trkpt lat="45.07588" lon="6.05156">
        <ele>1265.8</ele>
        <time>2020-09-05T05:48:56Z</time>
      </trkpt>
      <trkpt lat="45.07598" lon="6.05146">
        <ele>1265</ele>
        <time>2020-09-05T05:48:57Z</time>
      </trkpt>
      <trkpt lat="45.07608" lon="6.05134">
        <ele>1263.8</ele>
        <time>2020-09-05T05:48:58Z</time>
      </trkpt>
      <trkpt lat="45.07617" lon="6.0512">
        <ele>1262.6</ele>
        <time>2020-09-05T05:48:59Z</time>
      </trkpt>
      <trkpt lat="45.07626" lon="6.05106">
        <ele>1261</ele>
        <time>2020-09-05T05:49:00Z</time>
      </trkpt>
      <trkpt lat="45.07634" lon="6.05092">
        <ele>1259.6</ele>
        <time>2020-09-05T05:49:01Z</time>
      </trkpt>
      <trkpt lat="45.07641" lon="6.05076">
        <ele>1258</ele>
        <time>2020-09-05T05:49:02Z</time>
      </trkpt>
      <trkpt lat="45.07646" lon="6.0506">
        <ele>1256.6</ele>
        <time>2020-09-05T05:49:03Z</time>
      </trkpt>
      <trkpt lat="45.07649" lon="6.05042">
        <ele>1255</ele>
        <time>2020-09-05T05:49:04Z</time>
      </trkpt>
      <trkpt lat="45.07651" lon="6.05024">
        <ele>1254.2</ele>
        <time>2020-09-05T05:49:05Z</time>
      </trkpt>
      <trkpt lat="45.07653" lon="6.05006">
        <ele>1253.2</ele>
        <time>2020-09-05T05:49:06Z</time>
      </trkpt>
      <trkpt lat="45.07656" lon="6.04989">
        <ele>1251.6</ele>
        <time>2020-09-05T05:49:07Z</time>
      </trkpt>
      <trkpt lat="45.0766" lon="6.04972">
        <ele>1250.6</ele>
        <time>2020-09-05T05:49:08Z</time>
      </trkpt>
      <trkpt lat="45.07665" lon="6.04954">
        <ele>1250</ele>
        <time>2020-09-05T05:49:09Z</time>
      </trkpt>
      <trkpt lat="45.07669" lon="6.04936">
        <ele>1249.4</ele>
        <time>2020-09-05T05:49:10Z</time>
      </trkpt>
      <trkpt lat="45.0767" lon="6.04917">
        <ele>1248</ele>
        <time>2020-09-05T05:49:11Z</time>
      </trkpt>
      <trkpt lat="45.0767" lon="6.04897">
        <ele>1246</ele>
        <time>2020-09-05T05:49:12Z</time>
      </trkpt>
      <trkpt lat="45.07667" lon="6.04864">
        <ele>1242.4</ele>
        <time>2020-09-05T05:49:14Z</time>
      </trkpt>
      <trkpt lat="45.07663" lon="6.04849">
        <ele>1240.8</ele>
        <time>2020-09-05T05:49:15Z</time>
      </trkpt>
      <trkpt lat="45.07658" lon="6.04835">
        <ele>1239.6</ele>
        <time>2020-09-05T05:49:16Z</time>
      </trkpt>
      <trkpt lat="45.07652" lon="6.04821">
        <ele>1238</ele>
        <time>2020-09-05T05:49:17Z</time>
      </trkpt>
      <trkpt lat="45.07648" lon="6.04808">
        <ele>1236.4</ele>
        <time>2020-09-05T05:49:18Z</time>
      </trkpt>
      <trkpt lat="45.07645" lon="6.04795">
        <ele>1235.2</ele>
        <time>2020-09-05T05:49:19Z</time>
      </trkpt>
      <trkpt lat="45.07644" lon="6.04782">
        <ele>1234.2</ele>
        <time>2020-09-05T05:49:20Z</time>
      </trkpt>
      <trkpt lat="45.07647" lon="6.04768">
        <ele>1233</ele>
        <time>2020-09-05T05:49:21Z</time>
      </trkpt>
      <trkpt lat="45.07653" lon="6.04756">
        <ele>1232.2</ele>
        <time>2020-09-05T05:49:22Z</time>
      </trkpt>
      <trkpt lat="45.07658" lon="6.04744">
        <ele>1231.4</ele>
        <time>2020-09-05T05:49:23Z</time>
      </trkpt>
      <trkpt lat="45.07661" lon="6.04734">
        <ele>1230.2</ele>
        <time>2020-09-05T05:49:24Z</time>
      </trkpt>
      <trkpt lat="45.07661" lon="6.04725">
        <ele>1228.8</ele>
        <time>2020-09-05T05:49:25Z</time>
      </trkpt>
      <trkpt lat="45.07656" lon="6.04721">
        <ele>1228</ele>
        <time>2020-09-05T05:49:26Z</time>
      </trkpt>
      <trkpt lat="45.07649" lon="6.04722">
        <ele>1227.4</ele>
        <time>2020-09-05T05:49:27Z</time>
      </trkpt>
      <trkpt lat="45.07644" lon="6.04728">
        <ele>1226.8</ele>
        <time>2020-09-05T05:49:28Z</time>
      </trkpt>
      <trkpt lat="45.07641" lon="6.04738">
        <ele>1226</ele>
        <time>2020-09-05T05:49:29Z</time>
      </trkpt>
      <trkpt lat="45.07639" lon="6.04748">
        <ele>1225.8</ele>
        <time>2020-09-05T05:49:30Z</time>
      </trkpt>
      <trkpt lat="45.07637" lon="6.04759">
        <ele>1225.6</ele>
        <time>2020-09-05T05:49:31Z</time>
      </trkpt>
      <trkpt lat="45.07633" lon="6.0477">
        <ele>1225.2</ele>
        <time>2020-09-05T05:49:32Z</time>
      </trkpt>
      <trkpt lat="45.0763" lon="6.04779">
        <ele>1224.8</ele>
        <time>2020-09-05T05:49:33Z</time>
      </trkpt>
      <trkpt lat="45.07627" lon="6.04789">
        <ele>1224</ele>
        <time>2020-09-05T05:49:34Z</time>
      </trkpt>
      <trkpt lat="45.07625" lon="6.04799">
        <ele>1223.2</ele>
        <time>2020-09-05T05:49:35Z</time>
      </trkpt>
      <trkpt lat="45.07626" lon="6.04824">
        <ele>1221.8</ele>
        <time>2020-09-05T05:49:37Z</time>
      </trkpt>
      <trkpt lat="45.07629" lon="6.04837">
        <ele>1221.6</ele>
        <time>2020-09-05T05:49:38Z</time>
      </trkpt>
      <trkpt lat="45.07631" lon="6.04851">
        <ele>1220.6</ele>
        <time>2020-09-05T05:49:39Z</time>
      </trkpt>
      <trkpt lat="45.07633" lon="6.04865">
        <ele>1219.4</ele>
        <time>2020-09-05T05:49:40Z</time>
      </trkpt>
      <trkpt lat="45.07633" lon="6.04879">
        <ele>1218.8</ele>
        <time>2020-09-05T05:49:41Z</time>
      </trkpt>
      <trkpt lat="45.07632" lon="6.04893">
        <ele>1218.2</ele>
        <time>2020-09-05T05:49:42Z</time>
      </trkpt>
      <trkpt lat="45.07628" lon="6.04907">
        <ele>1217.4</ele>
        <time>2020-09-05T05:49:43Z</time>
      </trkpt>
      <trkpt lat="45.07621" lon="6.0492">
        <ele>1217</ele>
        <time>2020-09-05T05:49:44Z</time>
      </trkpt>
      <trkpt lat="45.07615" lon="6.04934">
        <ele>1216</ele>
        <time>2020-09-05T05:49:45Z</time>
      </trkpt>
      <trkpt lat="45.07609" lon="6.04948">
        <ele>1215.2</ele>
        <time>2020-09-05T05:49:46Z</time>
      </trkpt>
      <trkpt lat="45.07598" lon="6.04979">
        <ele>1213.6</ele>
        <time>2020-09-05T05:49:48Z</time>
      </trkpt>
      <trkpt lat="45.07593" lon="6.04994">
        <ele>1212.4</ele>
        <time>2020-09-05T05:49:49Z</time>
      </trkpt>
      <trkpt lat="45.07588" lon="6.05009">
        <ele>1211.8</ele>
        <time>2020-09-05T05:49:50Z</time>
      </trkpt>
      <trkpt lat="45.07581" lon="6.05021">
        <ele>1210.8</ele>
        <time>2020-09-05T05:49:51Z</time>
      </trkpt>
      <trkpt lat="45.07572" lon="6.05032">
        <ele>1209.8</ele>
        <time>2020-09-05T05:49:52Z</time>
      </trkpt>
      <trkpt lat="45.07562" lon="6.0504">
        <ele>1209</ele>
        <time>2020-09-05T05:49:53Z</time>
      </trkpt>
      <trkpt lat="45.07551" lon="6.05049">
        <ele>1208.2</ele>
        <time>2020-09-05T05:49:54Z</time>
      </trkpt>
      <trkpt lat="45.0754" lon="6.05057">
        <ele>1207.2</ele>
        <time>2020-09-05T05:49:55Z</time>
      </trkpt>
      <trkpt lat="45.07528" lon="6.05064">
        <ele>1206.2</ele>
        <time>2020-09-05T05:49:56Z</time>
      </trkpt>
      <trkpt lat="45.07515" lon="6.05068">
        <ele>1205.2</ele>
        <time>2020-09-05T05:49:57Z</time>
      </trkpt>
      <trkpt lat="45.07501" lon="6.05071">
        <ele>1204</ele>
        <time>2020-09-05T05:49:58Z</time>
      </trkpt>
      <trkpt lat="45.07474" lon="6.05078">
        <ele>1202</ele>
        <time>2020-09-05T05:50:00Z</time>
      </trkpt>
      <trkpt lat="45.0746" lon="6.05084">
        <ele>1201.2</ele>
        <time>2020-09-05T05:50:01Z</time>
      </trkpt>
      <trkpt lat="45.07447" lon="6.05092">
        <ele>1200</ele>
        <time>2020-09-05T05:50:02Z</time>
      </trkpt>
      <trkpt lat="45.07434" lon="6.05101">
        <ele>1198.4</ele>
        <time>2020-09-05T05:50:03Z</time>
      </trkpt>
      <trkpt lat="45.07422" lon="6.05111">
        <ele>1197</ele>
        <time>2020-09-05T05:50:04Z</time>
      </trkpt>
      <trkpt lat="45.0741" lon="6.05122">
        <ele>1196</ele>
        <time>2020-09-05T05:50:05Z</time>
      </trkpt>
      <trkpt lat="45.07398" lon="6.05133">
        <ele>1194.8</ele>
        <time>2020-09-05T05:50:06Z</time>
      </trkpt>
      <trkpt lat="45.07376" lon="6.05154">
        <ele>1191.8</ele>
        <time>2020-09-05T05:50:08Z</time>
      </trkpt>
      <trkpt lat="45.07365" lon="6.05165">
        <ele>1190.8</ele>
        <time>2020-09-05T05:50:09Z</time>
      </trkpt>
      <trkpt lat="45.07355" lon="6.05176">
        <ele>1189.2</ele>
        <time>2020-09-05T05:50:10Z</time>
      </trkpt>
      <trkpt lat="45.07346" lon="6.05186">
        <ele>1187.4</ele>
        <time>2020-09-05T05:50:11Z</time>
      </trkpt>
      <trkpt lat="45.07338" lon="6.05195">
        <ele>1186</ele>
        <time>2020-09-05T05:50:12Z</time>
      </trkpt>
      <trkpt lat="45.07326" lon="6.0521">
        <ele>1183.6</ele>
        <time>2020-09-05T05:50:14Z</time>
      </trkpt>
      <trkpt lat="45.07321" lon="6.05214">
        <ele>1182.8</ele>
        <time>2020-09-05T05:50:15Z</time>
      </trkpt>
      <trkpt lat="45.07318" lon="6.05211">
        <ele>1182.2</ele>
        <time>2020-09-05T05:50:16Z</time>
      </trkpt>
      <trkpt lat="45.07317" lon="6.05205">
        <ele>1181.8</ele>
        <time>2020-09-05T05:50:17Z</time>
      </trkpt>
      <trkpt lat="45.07319" lon="6.05199">
        <ele>1181.6</ele>
        <time>2020-09-05T05:50:18Z</time>
      </trkpt>
      <trkpt lat="45.07329" lon="6.05188">
        <ele>1180.8</ele>
        <time>2020-09-05T05:50:20Z</time>
      </trkpt>
      <trkpt lat="45.07341" lon="6.0518">
        <ele>1179.8</ele>
        <time>2020-09-05T05:50:22Z</time>
      </trkpt>
      <trkpt lat="45.07347" lon="6.05174">
        <ele>1179.4</ele>
        <time>2020-09-05T05:50:23Z</time>
      </trkpt>
      <trkpt lat="45.07353" lon="6.05168">
        <ele>1179.2</ele>
        <time>2020-09-05T05:50:24Z</time>
      </trkpt>
      <trkpt lat="45.07359" lon="6.05161">
        <ele>1178.8</ele>
        <time>2020-09-05T05:50:25Z</time>
      </trkpt>
      <trkpt lat="45.07365" lon="6.05154">
        <ele>1178.4</ele>
        <time>2020-09-05T05:50:26Z</time>
      </trkpt>
      <trkpt lat="45.07371" lon="6.05146">
        <ele>1178</ele>
        <time>2020-09-05T05:50:27Z</time>
      </trkpt>
      <trkpt lat="45.07377" lon="6.05138">
        <ele>1177.4</ele>
        <time>2020-09-05T05:50:28Z</time>
      </trkpt>
      <trkpt lat="45.07389" lon="6.0512">
        <ele>1176.8</ele>
        <time>2020-09-05T05:50:30Z</time>
      </trkpt>
      <trkpt lat="45.07396" lon="6.0511">
        <ele>1176.4</ele>
        <time>2020-09-05T05:50:31Z</time>
      </trkpt>
      <trkpt lat="45.07403" lon="6.05101">
        <ele>1175.6</ele>
        <time>2020-09-05T05:50:32Z</time>
      </trkpt>
      <trkpt lat="45.0741" lon="6.05091">
        <ele>1174.8</ele>
        <time>2020-09-05T05:50:33Z</time>
      </trkpt>
      <trkpt lat="45.07417" lon="6.05081">
        <ele>1173.8</ele>
        <time>2020-09-05T05:50:34Z</time>
      </trkpt>
      <trkpt lat="45.07423" lon="6.0507">
        <ele>1173.2</ele>
        <time>2020-09-05T05:50:35Z</time>
      </trkpt>
      <trkpt lat="45.07428" lon="6.05058">
        <ele>1172.8</ele>
        <time>2020-09-05T05:50:36Z</time>
      </trkpt>
      <trkpt lat="45.07441" lon="6.05033">
        <ele>1170.8</ele>
        <time>2020-09-05T05:50:38Z</time>
      </trkpt>
      <trkpt lat="45.07449" lon="6.05023">
        <ele>1169.4</ele>
        <time>2020-09-05T05:50:39Z</time>
      </trkpt>
      <trkpt lat="45.07458" lon="6.05016">
        <ele>1169.2</ele>
        <time>2020-09-05T05:50:40Z</time>
      </trkpt>
      <trkpt lat="45.07469" lon="6.05011">
        <ele>1168.4</ele>
        <time>2020-09-05T05:50:41Z</time>
      </trkpt>
      <trkpt lat="45.0748" lon="6.05007">
        <ele>1167.4</ele>
        <time>2020-09-05T05:50:42Z</time>
      </trkpt>
      <trkpt lat="45.0749" lon="6.05002">
        <ele>1166.2</ele>
        <time>2020-09-05T05:50:43Z</time>
      </trkpt>
      <trkpt lat="45.075" lon="6.04995">
        <ele>1165.4</ele>
        <time>2020-09-05T05:50:44Z</time>
      </trkpt>
      <trkpt lat="45.07508" lon="6.04987">
        <ele>1164</ele>
        <time>2020-09-05T05:50:45Z</time>
      </trkpt>
      <trkpt lat="45.07515" lon="6.04977">
        <ele>1163.2</ele>
        <time>2020-09-05T05:50:46Z</time>
      </trkpt>
      <trkpt lat="45.0752" lon="6.04965">
        <ele>1162</ele>
        <time>2020-09-05T05:50:47Z</time>
      </trkpt>
      <trkpt lat="45.07523" lon="6.04951">
        <ele>1161</ele>
        <time>2020-09-05T05:50:48Z</time>
      </trkpt>
      <trkpt lat="45.07525" lon="6.04935">
        <ele>1160.6</ele>
        <time>2020-09-05T05:50:49Z</time>
      </trkpt>
      <trkpt lat="45.07525" lon="6.04919">
        <ele>1159.8</ele>
        <time>2020-09-05T05:50:50Z</time>
      </trkpt>
      <trkpt lat="45.07525" lon="6.04903">
        <ele>1159</ele>
        <time>2020-09-05T05:50:51Z</time>
      </trkpt>
      <trkpt lat="45.07523" lon="6.04887">
        <ele>1157.8</ele>
        <time>2020-09-05T05:50:52Z</time>
      </trkpt>
      <trkpt lat="45.0752" lon="6.0487">
        <ele>1156.6</ele>
        <time>2020-09-05T05:50:53Z</time>
      </trkpt>
      <trkpt lat="45.07512" lon="6.04836">
        <ele>1155.2</ele>
        <time>2020-09-05T05:50:55Z</time>
      </trkpt>
      <trkpt lat="45.07505" lon="6.04821">
        <ele>1154</ele>
        <time>2020-09-05T05:50:56Z</time>
      </trkpt>
      <trkpt lat="45.07499" lon="6.04806">
        <ele>1152.6</ele>
        <time>2020-09-05T05:50:57Z</time>
      </trkpt>
      <trkpt lat="45.07495" lon="6.04791">
        <ele>1151.6</ele>
        <time>2020-09-05T05:50:58Z</time>
      </trkpt>
      <trkpt lat="45.07492" lon="6.04776">
        <ele>1150</ele>
        <time>2020-09-05T05:50:59Z</time>
      </trkpt>
      <trkpt lat="45.0749" lon="6.04764">
        <ele>1148.8</ele>
        <time>2020-09-05T05:51:00Z</time>
      </trkpt>
      <trkpt lat="45.07482" lon="6.04751">
        <ele>1146.8</ele>
        <time>2020-09-05T05:51:02Z</time>
      </trkpt>
      <trkpt lat="45.07477" lon="6.04752">
        <ele>1146.2</ele>
        <time>2020-09-05T05:51:03Z</time>
      </trkpt>
      <trkpt lat="45.07474" lon="6.04758">
        <ele>1145.4</ele>
        <time>2020-09-05T05:51:04Z</time>
      </trkpt>
      <trkpt lat="45.07473" lon="6.04767">
        <ele>1145.2</ele>
        <time>2020-09-05T05:51:05Z</time>
      </trkpt>
      <trkpt lat="45.07475" lon="6.04776">
        <ele>1144.8</ele>
        <time>2020-09-05T05:51:06Z</time>
      </trkpt>
      <trkpt lat="45.07478" lon="6.04784">
        <ele>1144.2</ele>
        <time>2020-09-05T05:51:07Z</time>
      </trkpt>
      <trkpt lat="45.07481" lon="6.04793">
        <ele>1144</ele>
        <time>2020-09-05T05:51:08Z</time>
      </trkpt>
      <trkpt lat="45.07485" lon="6.04802">
        <ele>1143.4</ele>
        <time>2020-09-05T05:51:09Z</time>
      </trkpt>
      <trkpt lat="45.07488" lon="6.04811">
        <ele>1142.8</ele>
        <time>2020-09-05T05:51:10Z</time>
      </trkpt>
      <trkpt lat="45.07491" lon="6.04821">
        <ele>1142.8</ele>
        <time>2020-09-05T05:51:11Z</time>
      </trkpt>
      <trkpt lat="45.07495" lon="6.04832">
        <ele>1142.4</ele>
        <time>2020-09-05T05:51:12Z</time>
      </trkpt>
      <trkpt lat="45.07496" lon="6.04845">
        <ele>1142.2</ele>
        <time>2020-09-05T05:51:13Z</time>
      </trkpt>
      <trkpt lat="45.07496" lon="6.04858">
        <ele>1141.4</ele>
        <time>2020-09-05T05:51:14Z</time>
      </trkpt>
      <trkpt lat="45.07493" lon="6.04873">
        <ele>1140.2</ele>
        <time>2020-09-05T05:51:15Z</time>
      </trkpt>
      <trkpt lat="45.07489" lon="6.04887">
        <ele>1139</ele>
        <time>2020-09-05T05:51:16Z</time>
      </trkpt>
      <trkpt lat="45.07484" lon="6.04901">
        <ele>1137.6</ele>
        <time>2020-09-05T05:51:17Z</time>
      </trkpt>
      <trkpt lat="45.07479" lon="6.04915">
        <ele>1136.4</ele>
        <time>2020-09-05T05:51:18Z</time>
      </trkpt>
      <trkpt lat="45.07473" lon="6.04927">
        <ele>1135.4</ele>
        <time>2020-09-05T05:51:19Z</time>
      </trkpt>
      <trkpt lat="45.07466" lon="6.04937">
        <ele>1134.6</ele>
        <time>2020-09-05T05:51:20Z</time>
      </trkpt>
      <trkpt lat="45.07456" lon="6.04945">
        <ele>1133.6</ele>
        <time>2020-09-05T05:51:21Z</time>
      </trkpt>
      <trkpt lat="45.07446" lon="6.04951">
        <ele>1133</ele>
        <time>2020-09-05T05:51:22Z</time>
      </trkpt>
      <trkpt lat="45.07434" lon="6.04953">
        <ele>1132.2</ele>
        <time>2020-09-05T05:51:23Z</time>
      </trkpt>
      <trkpt lat="45.07421" lon="6.04954">
        <ele>1130.8</ele>
        <time>2020-09-05T05:51:24Z</time>
      </trkpt>
      <trkpt lat="45.07409" lon="6.04956">
        <ele>1130</ele>
        <time>2020-09-05T05:51:25Z</time>
      </trkpt>
      <trkpt lat="45.07397" lon="6.0496">
        <ele>1128.8</ele>
        <time>2020-09-05T05:51:26Z</time>
      </trkpt>
      <trkpt lat="45.07377" lon="6.04978">
        <ele>1127.2</ele>
        <time>2020-09-05T05:51:28Z</time>
      </trkpt>
      <trkpt lat="45.07359" lon="6.05002">
        <ele>1125</ele>
        <time>2020-09-05T05:51:30Z</time>
      </trkpt>
      <trkpt lat="45.07337" lon="6.05023">
        <ele>1122.4</ele>
        <time>2020-09-05T05:51:32Z</time>
      </trkpt>
      <trkpt lat="45.07326" lon="6.05034">
        <ele>1121</ele>
        <time>2020-09-05T05:51:33Z</time>
      </trkpt>
      <trkpt lat="45.07302" lon="6.05053">
        <ele>1119.2</ele>
        <time>2020-09-05T05:51:35Z</time>
      </trkpt>
      <trkpt lat="45.07291" lon="6.05063">
        <ele>1117.8</ele>
        <time>2020-09-05T05:51:36Z</time>
      </trkpt>
      <trkpt lat="45.0728" lon="6.05072">
        <ele>1116.2</ele>
        <time>2020-09-05T05:51:37Z</time>
      </trkpt>
      <trkpt lat="45.07271" lon="6.05081">
        <ele>1114.4</ele>
        <time>2020-09-05T05:51:38Z</time>
      </trkpt>
      <trkpt lat="45.07264" lon="6.05091">
        <ele>1112.8</ele>
        <time>2020-09-05T05:51:39Z</time>
      </trkpt>
      <trkpt lat="45.07257" lon="6.05101">
        <ele>1111</ele>
        <time>2020-09-05T05:51:40Z</time>
      </trkpt>
      <trkpt lat="45.07253" lon="6.05111">
        <ele>1109.6</ele>
        <time>2020-09-05T05:51:41Z</time>
      </trkpt>
      <trkpt lat="45.07248" lon="6.05118">
        <ele>1108</ele>
        <time>2020-09-05T05:51:42Z</time>
      </trkpt>
      <trkpt lat="45.0724" lon="6.05115">
        <ele>1105.6</ele>
        <time>2020-09-05T05:51:44Z</time>
      </trkpt>
      <trkpt lat="45.07244" lon="6.05098">
        <ele>1103.8</ele>
        <time>2020-09-05T05:51:46Z</time>
      </trkpt>
      <trkpt lat="45.0725" lon="6.0509">
        <ele>1103.4</ele>
        <time>2020-09-05T05:51:47Z</time>
      </trkpt>
      <trkpt lat="45.07256" lon="6.05081">
        <ele>1103</ele>
        <time>2020-09-05T05:51:48Z</time>
      </trkpt>
      <trkpt lat="45.07262" lon="6.05072">
        <ele>1102.8</ele>
        <time>2020-09-05T05:51:49Z</time>
      </trkpt>
      <trkpt lat="45.07269" lon="6.05061">
        <ele>1102.4</ele>
        <time>2020-09-05T05:51:50Z</time>
      </trkpt>
      <trkpt lat="45.07275" lon="6.0505">
        <ele>1101.8</ele>
        <time>2020-09-05T05:51:51Z</time>
      </trkpt>
      <trkpt lat="45.0729" lon="6.05028">
        <ele>1099.4</ele>
        <time>2020-09-05T05:51:53Z</time>
      </trkpt>
      <trkpt lat="45.07298" lon="6.05015">
        <ele>1098.8</ele>
        <time>2020-09-05T05:51:54Z</time>
      </trkpt>
      <trkpt lat="45.07314" lon="6.0499">
        <ele>1096.4</ele>
        <time>2020-09-05T05:51:56Z</time>
      </trkpt>
      <trkpt lat="45.0732" lon="6.04977">
        <ele>1094.6</ele>
        <time>2020-09-05T05:51:57Z</time>
      </trkpt>
      <trkpt lat="45.07326" lon="6.04962">
        <ele>1093.8</ele>
        <time>2020-09-05T05:51:58Z</time>
      </trkpt>
      <trkpt lat="45.0733" lon="6.04946">
        <ele>1092.8</ele>
        <time>2020-09-05T05:51:59Z</time>
      </trkpt>
      <trkpt lat="45.07334" lon="6.0493">
        <ele>1091.4</ele>
        <time>2020-09-05T05:52:00Z</time>
      </trkpt>
      <trkpt lat="45.07339" lon="6.04915">
        <ele>1089.6</ele>
        <time>2020-09-05T05:52:01Z</time>
      </trkpt>
      <trkpt lat="45.07346" lon="6.04902">
        <ele>1088.6</ele>
        <time>2020-09-05T05:52:02Z</time>
      </trkpt>
      <trkpt lat="45.07353" lon="6.04891">
        <ele>1087.6</ele>
        <time>2020-09-05T05:52:03Z</time>
      </trkpt>
      <trkpt lat="45.0736" lon="6.04881">
        <ele>1086.6</ele>
        <time>2020-09-05T05:52:04Z</time>
      </trkpt>
      <trkpt lat="45.07365" lon="6.04869">
        <ele>1085.2</ele>
        <time>2020-09-05T05:52:05Z</time>
      </trkpt>
      <trkpt lat="45.07367" lon="6.04855">
        <ele>1084.2</ele>
        <time>2020-09-05T05:52:06Z</time>
      </trkpt>
      <trkpt lat="45.07365" lon="6.04841">
        <ele>1083.2</ele>
        <time>2020-09-05T05:52:07Z</time>
      </trkpt>
      <trkpt lat="45.07362" lon="6.04825">
        <ele>1082.2</ele>
        <time>2020-09-05T05:52:08Z</time>
      </trkpt>
      <trkpt lat="45.07359" lon="6.0481">
        <ele>1081.8</ele>
        <time>2020-09-05T05:52:09Z</time>
      </trkpt>
      <trkpt lat="45.07349" lon="6.04781">
        <ele>1080.4</ele>
        <time>2020-09-05T05:52:11Z</time>
      </trkpt>
      <trkpt lat="45.0733" lon="6.04763">
        <ele>1078.6</ele>
        <time>2020-09-05T05:52:13Z</time>
      </trkpt>
      <trkpt lat="45.07318" lon="6.04759">
        <ele>1077.6</ele>
        <time>2020-09-05T05:52:14Z</time>
      </trkpt>
      <trkpt lat="45.07306" lon="6.04757">
        <ele>1077.2</ele>
        <time>2020-09-05T05:52:15Z</time>
      </trkpt>
      <trkpt lat="45.07293" lon="6.04754">
        <ele>1076.4</ele>
        <time>2020-09-05T05:52:16Z</time>
      </trkpt>
      <trkpt lat="45.07268" lon="6.04742">
        <ele>1075.2</ele>
        <time>2020-09-05T05:52:18Z</time>
      </trkpt>
      <trkpt lat="45.07243" lon="6.04725">
        <ele>1073.4</ele>
        <time>2020-09-05T05:52:20Z</time>
      </trkpt>
      <trkpt lat="45.07231" lon="6.04716">
        <ele>1072</ele>
        <time>2020-09-05T05:52:21Z</time>
      </trkpt>
      <trkpt lat="45.07219" lon="6.04707">
        <ele>1071</ele>
        <time>2020-09-05T05:52:22Z</time>
      </trkpt>
      <trkpt lat="45.07209" lon="6.04698">
        <ele>1069.4</ele>
        <time>2020-09-05T05:52:23Z</time>
      </trkpt>
      <trkpt lat="45.07198" lon="6.04689">
        <ele>1068.6</ele>
        <time>2020-09-05T05:52:24Z</time>
      </trkpt>
      <trkpt lat="45.07188" lon="6.04678">
        <ele>1067.8</ele>
        <time>2020-09-05T05:52:25Z</time>
      </trkpt>
      <trkpt lat="45.07178" lon="6.04666">
        <ele>1067</ele>
        <time>2020-09-05T05:52:26Z</time>
      </trkpt>
      <trkpt lat="45.07169" lon="6.04652">
        <ele>1065</ele>
        <time>2020-09-05T05:52:27Z</time>
      </trkpt>
      <trkpt lat="45.07161" lon="6.04638">
        <ele>1063.4</ele>
        <time>2020-09-05T05:52:28Z</time>
      </trkpt>
      <trkpt lat="45.07155" lon="6.04623">
        <ele>1062.6</ele>
        <time>2020-09-05T05:52:29Z</time>
      </trkpt>
      <trkpt lat="45.0715" lon="6.04606">
        <ele>1061.2</ele>
        <time>2020-09-05T05:52:30Z</time>
      </trkpt>
      <trkpt lat="45.07147" lon="6.04588">
        <ele>1060.2</ele>
        <time>2020-09-05T05:52:31Z</time>
      </trkpt>
      <trkpt lat="45.07145" lon="6.04569">
        <ele>1058.8</ele>
        <time>2020-09-05T05:52:32Z</time>
      </trkpt>
      <trkpt lat="45.07142" lon="6.04551">
        <ele>1057.6</ele>
        <time>2020-09-05T05:52:33Z</time>
      </trkpt>
      <trkpt lat="45.07139" lon="6.04532">
        <ele>1056.6</ele>
        <time>2020-09-05T05:52:34Z</time>
      </trkpt>
      <trkpt lat="45.07135" lon="6.04513">
        <ele>1055.2</ele>
        <time>2020-09-05T05:52:35Z</time>
      </trkpt>
      <trkpt lat="45.07126" lon="6.04477">
        <ele>1051.6</ele>
        <time>2020-09-05T05:52:37Z</time>
      </trkpt>
      <trkpt lat="45.07121" lon="6.04461">
        <ele>1050.4</ele>
        <time>2020-09-05T05:52:38Z</time>
      </trkpt>
      <trkpt lat="45.07114" lon="6.04447">
        <ele>1048.6</ele>
        <time>2020-09-05T05:52:39Z</time>
      </trkpt>
      <trkpt lat="45.07109" lon="6.04434">
        <ele>1047</ele>
        <time>2020-09-05T05:52:40Z</time>
      </trkpt>
      <trkpt lat="45.07097" lon="6.04418">
        <ele>1044</ele>
        <time>2020-09-05T05:52:42Z</time>
      </trkpt>
      <trkpt lat="45.07091" lon="6.04417">
        <ele>1042.8</ele>
        <time>2020-09-05T05:52:43Z</time>
      </trkpt>
      <trkpt lat="45.07087" lon="6.04423">
        <ele>1042</ele>
        <time>2020-09-05T05:52:44Z</time>
      </trkpt>
      <trkpt lat="45.07084" lon="6.04433">
        <ele>1041.2</ele>
        <time>2020-09-05T05:52:45Z</time>
      </trkpt>
      <trkpt lat="45.07085" lon="6.04444">
        <ele>1040.6</ele>
        <time>2020-09-05T05:52:46Z</time>
      </trkpt>
      <trkpt lat="45.07088" lon="6.04454">
        <ele>1040.2</ele>
        <time>2020-09-05T05:52:47Z</time>
      </trkpt>
      <trkpt lat="45.07093" lon="6.04465">
        <ele>1039.4</ele>
        <time>2020-09-05T05:52:48Z</time>
      </trkpt>
      <trkpt lat="45.07097" lon="6.04477">
        <ele>1038.6</ele>
        <time>2020-09-05T05:52:49Z</time>
      </trkpt>
      <trkpt lat="45.07101" lon="6.0449">
        <ele>1038.8</ele>
        <time>2020-09-05T05:52:50Z</time>
      </trkpt>
      <trkpt lat="45.07104" lon="6.04504">
        <ele>1038.4</ele>
        <time>2020-09-05T05:52:51Z</time>
      </trkpt>
      <trkpt lat="45.07105" lon="6.04517">
        <ele>1037.6</ele>
        <time>2020-09-05T05:52:52Z</time>
      </trkpt>
      <trkpt lat="45.07105" lon="6.04532">
        <ele>1037</ele>
        <time>2020-09-05T05:52:53Z</time>
      </trkpt>
      <trkpt lat="45.07104" lon="6.04546">
        <ele>1036</ele>
        <time>2020-09-05T05:52:54Z</time>
      </trkpt>
      <trkpt lat="45.07104" lon="6.04562">
        <ele>1035.4</ele>
        <time>2020-09-05T05:52:55Z</time>
      </trkpt>
      <trkpt lat="45.07104" lon="6.04577">
        <ele>1034.8</ele>
        <time>2020-09-05T05:52:56Z</time>
      </trkpt>
      <trkpt lat="45.07104" lon="6.04593">
        <ele>1034.4</ele>
        <time>2020-09-05T05:52:57Z</time>
      </trkpt>
      <trkpt lat="45.07103" lon="6.0461">
        <ele>1033.8</ele>
        <time>2020-09-05T05:52:58Z</time>
      </trkpt>
      <trkpt lat="45.07102" lon="6.04627">
        <ele>1033</ele>
        <time>2020-09-05T05:52:59Z</time>
      </trkpt>
      <trkpt lat="45.07103" lon="6.04644">
        <ele>1032.6</ele>
        <time>2020-09-05T05:53:00Z</time>
      </trkpt>
      <trkpt lat="45.07104" lon="6.04662">
        <ele>1032</ele>
        <time>2020-09-05T05:53:01Z</time>
      </trkpt>
      <trkpt lat="45.07108" lon="6.04678">
        <ele>1031.8</ele>
        <time>2020-09-05T05:53:02Z</time>
      </trkpt>
      <trkpt lat="45.07114" lon="6.04694">
        <ele>1030.8</ele>
        <time>2020-09-05T05:53:03Z</time>
      </trkpt>
      <trkpt lat="45.07122" lon="6.04708">
        <ele>1030</ele>
        <time>2020-09-05T05:53:04Z</time>
      </trkpt>
      <trkpt lat="45.07131" lon="6.04722">
        <ele>1029.6</ele>
        <time>2020-09-05T05:53:05Z</time>
      </trkpt>
      <trkpt lat="45.07139" lon="6.04736">
        <ele>1028</ele>
        <time>2020-09-05T05:53:06Z</time>
      </trkpt>
      <trkpt lat="45.07149" lon="6.04749">
        <ele>1026.6</ele>
        <time>2020-09-05T05:53:07Z</time>
      </trkpt>
      <trkpt lat="45.07158" lon="6.04762">
        <ele>1024.8</ele>
        <time>2020-09-05T05:53:08Z</time>
      </trkpt>
      <trkpt lat="45.07167" lon="6.04773">
        <ele>1023</ele>
        <time>2020-09-05T05:53:09Z</time>
      </trkpt>
      <trkpt lat="45.07176" lon="6.04782">
        <ele>1021.4</ele>
        <time>2020-09-05T05:53:10Z</time>
      </trkpt>
      <trkpt lat="45.07183" lon="6.04789">
        <ele>1019.8</ele>
        <time>2020-09-05T05:53:11Z</time>
      </trkpt>
      <trkpt lat="45.0719" lon="6.04793">
        <ele>1018.4</ele>
        <time>2020-09-05T05:53:12Z</time>
      </trkpt>
      <trkpt lat="45.07196" lon="6.04798">
        <ele>1017.4</ele>
        <time>2020-09-05T05:53:13Z</time>
      </trkpt>
      <trkpt lat="45.07198" lon="6.04805">
        <ele>1016.6</ele>
        <time>2020-09-05T05:53:14Z</time>
      </trkpt>
      <trkpt lat="45.07195" lon="6.04811">
        <ele>1015.8</ele>
        <time>2020-09-05T05:53:15Z</time>
      </trkpt>
      <trkpt lat="45.0719" lon="6.04814">
        <ele>1015</ele>
        <time>2020-09-05T05:53:16Z</time>
      </trkpt>
      <trkpt lat="45.07184" lon="6.04812">
        <ele>1014.4</ele>
        <time>2020-09-05T05:53:17Z</time>
      </trkpt>
      <trkpt lat="45.07178" lon="6.04805">
        <ele>1013.8</ele>
        <time>2020-09-05T05:53:18Z</time>
      </trkpt>
      <trkpt lat="45.07172" lon="6.04797">
        <ele>1013</ele>
        <time>2020-09-05T05:53:19Z</time>
      </trkpt>
      <trkpt lat="45.07166" lon="6.04789">
        <ele>1012.6</ele>
        <time>2020-09-05T05:53:20Z</time>
      </trkpt>
      <trkpt lat="45.07159" lon="6.04781">
        <ele>1012.2</ele>
        <time>2020-09-05T05:53:21Z</time>
      </trkpt>
      <trkpt lat="45.07143" lon="6.04764">
        <ele>1010.8</ele>
        <time>2020-09-05T05:53:23Z</time>
      </trkpt>
      <trkpt lat="45.07134" lon="6.04756">
        <ele>1010.2</ele>
        <time>2020-09-05T05:53:24Z</time>
      </trkpt>
      <trkpt lat="45.07125" lon="6.04748">
        <ele>1010</ele>
        <time>2020-09-05T05:53:25Z</time>
      </trkpt>
      <trkpt lat="45.07115" lon="6.04739">
        <ele>1009.4</ele>
        <time>2020-09-05T05:53:26Z</time>
      </trkpt>
      <trkpt lat="45.07106" lon="6.0473">
        <ele>1008.6</ele>
        <time>2020-09-05T05:53:27Z</time>
      </trkpt>
      <trkpt lat="45.07096" lon="6.04721">
        <ele>1008.2</ele>
        <time>2020-09-05T05:53:28Z</time>
      </trkpt>
      <trkpt lat="45.07085" lon="6.04711">
        <ele>1007.6</ele>
        <time>2020-09-05T05:53:29Z</time>
      </trkpt>
      <trkpt lat="45.07075" lon="6.04701">
        <ele>1006.6</ele>
        <time>2020-09-05T05:53:30Z</time>
      </trkpt>
      <trkpt lat="45.07065" lon="6.0469">
        <ele>1005.8</ele>
        <time>2020-09-05T05:53:31Z</time>
      </trkpt>
      <trkpt lat="45.07055" lon="6.04677">
        <ele>1005.2</ele>
        <time>2020-09-05T05:53:32Z</time>
      </trkpt>
      <trkpt lat="45.07046" lon="6.04662">
        <ele>1003.8</ele>
        <time>2020-09-05T05:53:33Z</time>
      </trkpt>
      <trkpt lat="45.07038" lon="6.04646">
        <ele>1002.4</ele>
        <time>2020-09-05T05:53:34Z</time>
      </trkpt>
      <trkpt lat="45.07029" lon="6.0463">
        <ele>1001.6</ele>
        <time>2020-09-05T05:53:35Z</time>
      </trkpt>
      <trkpt lat="45.0702" lon="6.04614">
        <ele>1000.4</ele>
        <time>2020-09-05T05:53:36Z</time>
      </trkpt>
      <trkpt lat="45.07012" lon="6.04599">
        <ele>998.4</ele>
        <time>2020-09-05T05:53:37Z</time>
      </trkpt>
      <trkpt lat="45.07003" lon="6.04588">
        <ele>996.8</ele>
        <time>2020-09-05T05:53:38Z</time>
      </trkpt>
      <trkpt lat="45.06992" lon="6.0458">
        <ele>995</ele>
        <time>2020-09-05T05:53:39Z</time>
      </trkpt>
      <trkpt lat="45.0698" lon="6.04574">
        <ele>994.2</ele>
        <time>2020-09-05T05:53:40Z</time>
      </trkpt>
      <trkpt lat="45.06968" lon="6.04569">
        <ele>993.2</ele>
        <time>2020-09-05T05:53:41Z</time>
      </trkpt>
      <trkpt lat="45.06956" lon="6.04564">
        <ele>992.2</ele>
        <time>2020-09-05T05:53:42Z</time>
      </trkpt>
      <trkpt lat="45.06945" lon="6.04558">
        <ele>991.2</ele>
        <time>2020-09-05T05:53:43Z</time>
      </trkpt>
      <trkpt lat="45.06934" lon="6.0455">
        <ele>990</ele>
        <time>2020-09-05T05:53:44Z</time>
      </trkpt>
      <trkpt lat="45.06924" lon="6.04541">
        <ele>988.8</ele>
        <time>2020-09-05T05:53:45Z</time>
      </trkpt>
      <trkpt lat="45.06914" lon="6.04531">
        <ele>987.6</ele>
        <time>2020-09-05T05:53:46Z</time>
      </trkpt>
      <trkpt lat="45.06897" lon="6.04509">
        <ele>985.4</ele>
        <time>2020-09-05T05:53:48Z</time>
      </trkpt>
      <trkpt lat="45.06888" lon="6.04498">
        <ele>984.2</ele>
        <time>2020-09-05T05:53:49Z</time>
      </trkpt>
      <trkpt lat="45.06878" lon="6.04489">
        <ele>983.2</ele>
        <time>2020-09-05T05:53:50Z</time>
      </trkpt>
      <trkpt lat="45.06867" lon="6.04483">
        <ele>983.2</ele>
        <time>2020-09-05T05:53:51Z</time>
      </trkpt>
      <trkpt lat="45.06855" lon="6.04478">
        <ele>982.2</ele>
        <time>2020-09-05T05:53:52Z</time>
      </trkpt>
      <trkpt lat="45.06843" lon="6.04475">
        <ele>981.6</ele>
        <time>2020-09-05T05:53:53Z</time>
      </trkpt>
      <trkpt lat="45.0683" lon="6.04471">
        <ele>980.4</ele>
        <time>2020-09-05T05:53:54Z</time>
      </trkpt>
      <trkpt lat="45.06817" lon="6.04468">
        <ele>979.4</ele>
        <time>2020-09-05T05:53:55Z</time>
      </trkpt>
      <trkpt lat="45.06804" lon="6.04464">
        <ele>978.8</ele>
        <time>2020-09-05T05:53:56Z</time>
      </trkpt>
      <trkpt lat="45.06791" lon="6.04459">
        <ele>977.6</ele>
        <time>2020-09-05T05:53:57Z</time>
      </trkpt>
      <trkpt lat="45.0678" lon="6.04454">
        <ele>976.4</ele>
        <time>2020-09-05T05:53:58Z</time>
      </trkpt>
      <trkpt lat="45.0677" lon="6.04448">
        <ele>975.4</ele>
        <time>2020-09-05T05:53:59Z</time>
      </trkpt>
      <trkpt lat="45.06762" lon="6.04442">
        <ele>974.2</ele>
        <time>2020-09-05T05:54:00Z</time>
      </trkpt>
      <trkpt lat="45.06753" lon="6.04435">
        <ele>972.8</ele>
        <time>2020-09-05T05:54:01Z</time>
      </trkpt>
      <trkpt lat="45.06747" lon="6.04429">
        <ele>972</ele>
        <time>2020-09-05T05:54:02Z</time>
      </trkpt>
      <trkpt lat="45.06742" lon="6.04423">
        <ele>970.8</ele>
        <time>2020-09-05T05:54:03Z</time>
      </trkpt>
      <trkpt lat="45.06737" lon="6.04419">
        <ele>969.8</ele>
        <time>2020-09-05T05:54:04Z</time>
      </trkpt>
      <trkpt lat="45.06733" lon="6.04417">
        <ele>969</ele>
        <time>2020-09-05T05:54:05Z</time>
      </trkpt>
      <trkpt lat="45.0673" lon="6.04417">
        <ele>968.4</ele>
        <time>2020-09-05T05:54:06Z</time>
      </trkpt>
      <trkpt lat="45.06728" lon="6.04421">
        <ele>967.8</ele>
        <time>2020-09-05T05:54:07Z</time>
      </trkpt>
      <trkpt lat="45.06728" lon="6.04427">
        <ele>967.4</ele>
        <time>2020-09-05T05:54:08Z</time>
      </trkpt>
      <trkpt lat="45.0673" lon="6.04432">
        <ele>967.4</ele>
        <time>2020-09-05T05:54:09Z</time>
      </trkpt>
      <trkpt lat="45.06733" lon="6.04439">
        <ele>967.2</ele>
        <time>2020-09-05T05:54:10Z</time>
      </trkpt>
      <trkpt lat="45.06737" lon="6.04445">
        <ele>966.6</ele>
        <time>2020-09-05T05:54:11Z</time>
      </trkpt>
      <trkpt lat="45.0674" lon="6.04452">
        <ele>966.2</ele>
        <time>2020-09-05T05:54:12Z</time>
      </trkpt>
      <trkpt lat="45.06744" lon="6.04459">
        <ele>966</ele>
        <time>2020-09-05T05:54:13Z</time>
      </trkpt>
      <trkpt lat="45.06748" lon="6.04466">
        <ele>965.4</ele>
        <time>2020-09-05T05:54:14Z</time>
      </trkpt>
      <trkpt lat="45.06753" lon="6.04473">
        <ele>965</ele>
        <time>2020-09-05T05:54:15Z</time>
      </trkpt>
      <trkpt lat="45.0676" lon="6.04479">
        <ele>964.8</ele>
        <time>2020-09-05T05:54:16Z</time>
      </trkpt>
      <trkpt lat="45.06767" lon="6.04484">
        <ele>964.4</ele>
        <time>2020-09-05T05:54:17Z</time>
      </trkpt>
      <trkpt lat="45.06775" lon="6.04486">
        <ele>964.4</ele>
        <time>2020-09-05T05:54:18Z</time>
      </trkpt>
      <trkpt lat="45.06784" lon="6.04488">
        <ele>964.2</ele>
        <time>2020-09-05T05:54:19Z</time>
      </trkpt>
      <trkpt lat="45.06792" lon="6.04491">
        <ele>963.8</ele>
        <time>2020-09-05T05:54:20Z</time>
      </trkpt>
      <trkpt lat="45.068" lon="6.04494">
        <ele>963.8</ele>
        <time>2020-09-05T05:54:21Z</time>
      </trkpt>
      <trkpt lat="45.06808" lon="6.04499">
        <ele>963.4</ele>
        <time>2020-09-05T05:54:22Z</time>
      </trkpt>
      <trkpt lat="45.06815" lon="6.04506">
        <ele>963</ele>
        <time>2020-09-05T05:54:23Z</time>
      </trkpt>
      <trkpt lat="45.06822" lon="6.04514">
        <ele>962.6</ele>
        <time>2020-09-05T05:54:24Z</time>
      </trkpt>
      <trkpt lat="45.06828" lon="6.04523">
        <ele>962.8</ele>
        <time>2020-09-05T05:54:25Z</time>
      </trkpt>
      <trkpt lat="45.06833" lon="6.04532">
        <ele>962.4</ele>
        <time>2020-09-05T05:54:26Z</time>
      </trkpt>
      <trkpt lat="45.06838" lon="6.04542">
        <ele>961.8</ele>
        <time>2020-09-05T05:54:27Z</time>
      </trkpt>
      <trkpt lat="45.06843" lon="6.04551">
        <ele>961.8</ele>
        <time>2020-09-05T05:54:28Z</time>
      </trkpt>
      <trkpt lat="45.06848" lon="6.04561">
        <ele>961.4</ele>
        <time>2020-09-05T05:54:29Z</time>
      </trkpt>
      <trkpt lat="45.06852" lon="6.0457">
        <ele>961.2</ele>
        <time>2020-09-05T05:54:30Z</time>
      </trkpt>
      <trkpt lat="45.06858" lon="6.04578">
        <ele>960.8</ele>
        <time>2020-09-05T05:54:31Z</time>
      </trkpt>
      <trkpt lat="45.06865" lon="6.04584">
        <ele>960.8</ele>
        <time>2020-09-05T05:54:32Z</time>
      </trkpt>
      <trkpt lat="45.06872" lon="6.0459">
        <ele>960.8</ele>
        <time>2020-09-05T05:54:33Z</time>
      </trkpt>
      <trkpt lat="45.0688" lon="6.04596">
        <ele>960.6</ele>
        <time>2020-09-05T05:54:34Z</time>
      </trkpt>
      <trkpt lat="45.06887" lon="6.04601">
        <ele>960.4</ele>
        <time>2020-09-05T05:54:35Z</time>
      </trkpt>
      <trkpt lat="45.06895" lon="6.04607">
        <ele>960.6</ele>
        <time>2020-09-05T05:54:36Z</time>
      </trkpt>
      <trkpt lat="45.06903" lon="6.04612">
        <ele>960.2</ele>
        <time>2020-09-05T05:54:37Z</time>
      </trkpt>
      <trkpt lat="45.06911" lon="6.04617">
        <ele>960</ele>
        <time>2020-09-05T05:54:38Z</time>
      </trkpt>
      <trkpt lat="45.06919" lon="6.04621">
        <ele>960</ele>
        <time>2020-09-05T05:54:39Z</time>
      </trkpt>
      <trkpt lat="45.06926" lon="6.04626">
        <ele>959.8</ele>
        <time>2020-09-05T05:54:40Z</time>
      </trkpt>
      <trkpt lat="45.06934" lon="6.04632">
        <ele>959.4</ele>
        <time>2020-09-05T05:54:41Z</time>
      </trkpt>
      <trkpt lat="45.06942" lon="6.04638">
        <ele>959</ele>
        <time>2020-09-05T05:54:42Z</time>
      </trkpt>
      <trkpt lat="45.0695" lon="6.04645">
        <ele>959</ele>
        <time>2020-09-05T05:54:43Z</time>
      </trkpt>
      <trkpt lat="45.06957" lon="6.04653">
        <ele>958.6</ele>
        <time>2020-09-05T05:54:44Z</time>
      </trkpt>
      <trkpt lat="45.06964" lon="6.04662">
        <ele>958.2</ele>
        <time>2020-09-05T05:54:45Z</time>
      </trkpt>
      <trkpt lat="45.0697" lon="6.04671">
        <ele>958</ele>
        <time>2020-09-05T05:54:46Z</time>
      </trkpt>
      <trkpt lat="45.06975" lon="6.04682">
        <ele>958.2</ele>
        <time>2020-09-05T05:54:47Z</time>
      </trkpt>
      <trkpt lat="45.06984" lon="6.04702">
        <ele>957.8</ele>
        <time>2020-09-05T05:54:49Z</time>
      </trkpt>
      <trkpt lat="45.06988" lon="6.04713">
        <ele>957.6</ele>
        <time>2020-09-05T05:54:50Z</time>
      </trkpt>
      <trkpt lat="45.06991" lon="6.04723">
        <ele>957.6</ele>
        <time>2020-09-05T05:54:51Z</time>
      </trkpt>
      <trkpt lat="45.06995" lon="6.04734">
        <ele>957.4</ele>
        <time>2020-09-05T05:54:52Z</time>
      </trkpt>
      <trkpt lat="45.06999" lon="6.04743">
        <ele>957.4</ele>
        <time>2020-09-05T05:54:53Z</time>
      </trkpt>
      <trkpt lat="45.07003" lon="6.04753">
        <ele>957.4</ele>
        <time>2020-09-05T05:54:54Z</time>
      </trkpt>
      <trkpt lat="45.07006" lon="6.04762">
        <ele>957.4</ele>
        <time>2020-09-05T05:54:55Z</time>
      </trkpt>
      <trkpt lat="45.0701" lon="6.04771">
        <ele>957.2</ele>
        <time>2020-09-05T05:54:56Z</time>
      </trkpt>
      <trkpt lat="45.07013" lon="6.04781">
        <ele>957.4</ele>
        <time>2020-09-05T05:54:57Z</time>
      </trkpt>
      <trkpt lat="45.07015" lon="6.0479">
        <ele>957.6</ele>
        <time>2020-09-05T05:54:58Z</time>
      </trkpt>
      <trkpt lat="45.07017" lon="6.04799">
        <ele>958</ele>
        <time>2020-09-05T05:54:59Z</time>
      </trkpt>
      <trkpt lat="45.07018" lon="6.04808">
        <ele>958</ele>
        <time>2020-09-05T05:55:00Z</time>
      </trkpt>
      <trkpt lat="45.07019" lon="6.04817">
        <ele>958.2</ele>
        <time>2020-09-05T05:55:01Z</time>
      </trkpt>
      <trkpt lat="45.07021" lon="6.04825">
        <ele>958.2</ele>
        <time>2020-09-05T05:55:02Z</time>
      </trkpt>
      <trkpt lat="45.07023" lon="6.04833">
        <ele>958.2</ele>
        <time>2020-09-05T05:55:03Z</time>
      </trkpt>
      <trkpt lat="45.07026" lon="6.0484">
        <ele>958</ele>
        <time>2020-09-05T05:55:04Z</time>
      </trkpt>
      <trkpt lat="45.0703" lon="6.04845">
        <ele>958</ele>
        <time>2020-09-05T05:55:05Z</time>
      </trkpt>
      <trkpt lat="45.07035" lon="6.04848">
        <ele>958</ele>
        <time>2020-09-05T05:55:06Z</time>
      </trkpt>
      <trkpt lat="45.0704" lon="6.04849">
        <ele>958</ele>
        <time>2020-09-05T05:55:07Z</time>
      </trkpt>
      <trkpt lat="45.07045" lon="6.04849">
        <ele>958.2</ele>
        <time>2020-09-05T05:55:08Z</time>
      </trkpt>
      <trkpt lat="45.07049" lon="6.04848">
        <ele>958.2</ele>
        <time>2020-09-05T05:55:09Z</time>
      </trkpt>
      <trkpt lat="45.07054" lon="6.04849">
        <ele>958.4</ele>
        <time>2020-09-05T05:55:10Z</time>
      </trkpt>
      <trkpt lat="45.07059" lon="6.04851">
        <ele>958.2</ele>
        <time>2020-09-05T05:55:11Z</time>
      </trkpt>
      <trkpt lat="45.07064" lon="6.04855">
        <ele>958.2</ele>
        <time>2020-09-05T05:55:12Z</time>
      </trkpt>
      <trkpt lat="45.07067" lon="6.04862">
        <ele>958</ele>
        <time>2020-09-05T05:55:13Z</time>
      </trkpt>
      <trkpt lat="45.07068" lon="6.0487">
        <ele>958</ele>
        <time>2020-09-05T05:55:14Z</time>
      </trkpt>
      <trkpt lat="45.07066" lon="6.04878">
        <ele>958.2</ele>
        <time>2020-09-05T05:55:15Z</time>
      </trkpt>
      <trkpt lat="45.07062" lon="6.04885">
        <ele>958.2</ele>
        <time>2020-09-05T05:55:16Z</time>
      </trkpt>
      <trkpt lat="45.07057" lon="6.0489">
        <ele>958</ele>
        <time>2020-09-05T05:55:17Z</time>
      </trkpt>
      <trkpt lat="45.07052" lon="6.04895">
        <ele>958</ele>
        <time>2020-09-05T05:55:18Z</time>
      </trkpt>
      <trkpt lat="45.07046" lon="6.049">
        <ele>957.6</ele>
        <time>2020-09-05T05:55:19Z</time>
      </trkpt>
      <trkpt lat="45.07042" lon="6.04906">
        <ele>957.6</ele>
        <time>2020-09-05T05:55:20Z</time>
      </trkpt>
      <trkpt lat="45.07039" lon="6.04915">
        <ele>957.6</ele>
        <time>2020-09-05T05:55:21Z</time>
      </trkpt>
      <trkpt lat="45.07038" lon="6.04925">
        <ele>957.6</ele>
        <time>2020-09-05T05:55:22Z</time>
      </trkpt>
      <trkpt lat="45.07038" lon="6.04935">
        <ele>957.6</ele>
        <time>2020-09-05T05:55:23Z</time>
      </trkpt>
      <trkpt lat="45.07039" lon="6.04945">
        <ele>957.6</ele>
        <time>2020-09-05T05:55:24Z</time>
      </trkpt>
      <trkpt lat="45.0704" lon="6.04956">
        <ele>957.8</ele>
        <time>2020-09-05T05:55:25Z</time>
      </trkpt>
      <trkpt lat="45.07042" lon="6.04966">
        <ele>957.8</ele>
        <time>2020-09-05T05:55:26Z</time>
      </trkpt>
      <trkpt lat="45.07044" lon="6.04976">
        <ele>957.6</ele>
        <time>2020-09-05T05:55:27Z</time>
      </trkpt>
      <trkpt lat="45.07047" lon="6.04985">
        <ele>957.8</ele>
        <time>2020-09-05T05:55:28Z</time>
      </trkpt>
      <trkpt lat="45.07051" lon="6.04994">
        <ele>957.4</ele>
        <time>2020-09-05T05:55:29Z</time>
      </trkpt>
      <trkpt lat="45.07054" lon="6.05004">
        <ele>957.4</ele>
        <time>2020-09-05T05:55:30Z</time>
      </trkpt>
      <trkpt lat="45.07057" lon="6.05013">
        <ele>957.2</ele>
        <time>2020-09-05T05:55:31Z</time>
      </trkpt>
      <trkpt lat="45.07059" lon="6.05023">
        <ele>957.4</ele>
        <time>2020-09-05T05:55:32Z</time>
      </trkpt>
      <trkpt lat="45.07061" lon="6.05032">
        <ele>957.6</ele>
        <time>2020-09-05T05:55:33Z</time>
      </trkpt>
      <trkpt lat="45.07062" lon="6.05042">
        <ele>957.8</ele>
        <time>2020-09-05T05:55:34Z</time>
      </trkpt>
      <trkpt lat="45.07063" lon="6.05051">
        <ele>957.8</ele>
        <time>2020-09-05T05:55:35Z</time>
      </trkpt>
      <trkpt lat="45.07063" lon="6.0506">
        <ele>957.8</ele>
        <time>2020-09-05T05:55:36Z</time>
      </trkpt>
      <trkpt lat="45.07063" lon="6.05069">
        <ele>958.2</ele>
        <time>2020-09-05T05:55:37Z</time>
      </trkpt>
      <trkpt lat="45.07062" lon="6.05078">
        <ele>958.2</ele>
        <time>2020-09-05T05:55:38Z</time>
      </trkpt>
      <trkpt lat="45.07061" lon="6.05087">
        <ele>958.6</ele>
        <time>2020-09-05T05:55:39Z</time>
      </trkpt>
      <trkpt lat="45.0706" lon="6.05095">
        <ele>958.8</ele>
        <time>2020-09-05T05:55:40Z</time>
      </trkpt>
      <trkpt lat="45.07059" lon="6.05103">
        <ele>959</ele>
        <time>2020-09-05T05:55:41Z</time>
      </trkpt>
      <trkpt lat="45.07057" lon="6.0511">
        <ele>959.2</ele>
        <time>2020-09-05T05:55:42Z</time>
      </trkpt>
      <trkpt lat="45.07056" lon="6.05118">
        <ele>959.2</ele>
        <time>2020-09-05T05:55:43Z</time>
      </trkpt>
      <trkpt lat="45.07055" lon="6.05126">
        <ele>959.4</ele>
        <time>2020-09-05T05:55:44Z</time>
      </trkpt>
      <trkpt lat="45.07054" lon="6.05133">
        <ele>959.4</ele>
        <time>2020-09-05T05:55:45Z</time>
      </trkpt>
      <trkpt lat="45.07054" lon="6.05139">
        <ele>959.6</ele>
        <time>2020-09-05T05:55:46Z</time>
      </trkpt>
      <trkpt lat="45.07054" lon="6.05146">
        <ele>959.8</ele>
        <time>2020-09-05T05:55:47Z</time>
      </trkpt>
      <trkpt lat="45.07054" lon="6.05152">
        <ele>959.8</ele>
        <time>2020-09-05T05:55:48Z</time>
      </trkpt>
      <trkpt lat="45.07054" lon="6.05159">
        <ele>960</ele>
        <time>2020-09-05T05:55:49Z</time>
      </trkpt>
      <trkpt lat="45.07054" lon="6.05166">
        <ele>960.2</ele>
        <time>2020-09-05T05:55:50Z</time>
      </trkpt>
      <trkpt lat="45.07055" lon="6.05173">
        <ele>960.4</ele>
        <time>2020-09-05T05:55:51Z</time>
      </trkpt>
      <trkpt lat="45.07055" lon="6.05179">
        <ele>960.6</ele>
        <time>2020-09-05T05:55:52Z</time>
      </trkpt>
      <trkpt lat="45.07055" lon="6.05185">
        <ele>960.8</ele>
        <time>2020-09-05T05:55:53Z</time>
      </trkpt>
      <trkpt lat="45.07054" lon="6.05192">
        <ele>960.8</ele>
        <time>2020-09-05T05:55:54Z</time>
      </trkpt>
      <trkpt lat="45.07053" lon="6.05199">
        <ele>961</ele>
        <time>2020-09-05T05:55:55Z</time>
      </trkpt>
      <trkpt lat="45.07052" lon="6.05205">
        <ele>961</ele>
        <time>2020-09-05T05:55:56Z</time>
      </trkpt>
      <trkpt lat="45.0705" lon="6.05212">
        <ele>961.2</ele>
        <time>2020-09-05T05:55:57Z</time>
      </trkpt>
      <trkpt lat="45.07048" lon="6.05218">
        <ele>961.6</ele>
        <time>2020-09-05T05:55:58Z</time>
      </trkpt>
      <trkpt lat="45.07046" lon="6.05224">
        <ele>961.8</ele>
        <time>2020-09-05T05:55:59Z</time>
      </trkpt>
      <trkpt lat="45.07044" lon="6.0523">
        <ele>962</ele>
        <time>2020-09-05T05:56:00Z</time>
      </trkpt>
      <trkpt lat="45.07042" lon="6.05235">
        <ele>962</ele>
        <time>2020-09-05T05:56:01Z</time>
      </trkpt>
      <trkpt lat="45.0704" lon="6.05241">
        <ele>962.2</ele>
        <time>2020-09-05T05:56:02Z</time>
      </trkpt>
      <trkpt lat="45.07039" lon="6.05247">
        <ele>962.2</ele>
        <time>2020-09-05T05:56:03Z</time>
      </trkpt>
      <trkpt lat="45.07039" lon="6.05253">
        <ele>962.6</ele>
        <time>2020-09-05T05:56:04Z</time>
      </trkpt>
      <trkpt lat="45.07039" lon="6.05259">
        <ele>962.8</ele>
        <time>2020-09-05T05:56:05Z</time>
      </trkpt>
      <trkpt lat="45.07038" lon="6.05265">
        <ele>962.8</ele>
        <time>2020-09-05T05:56:06Z</time>
      </trkpt>
      <trkpt lat="45.07037" lon="6.05271">
        <ele>963</ele>
        <time>2020-09-05T05:56:07Z</time>
      </trkpt>
      <trkpt lat="45.07037" lon="6.05278">
        <ele>963</ele>
        <time>2020-09-05T05:56:08Z</time>
      </trkpt>
      <trkpt lat="45.07036" lon="6.05284">
        <ele>963</ele>
        <time>2020-09-05T05:56:09Z</time>
      </trkpt>
      <trkpt lat="45.07036" lon="6.05291">
        <ele>963.4</ele>
        <time>2020-09-05T05:56:10Z</time>
      </trkpt>
      <trkpt lat="45.07035" lon="6.05298">
        <ele>963.4</ele>
        <time>2020-09-05T05:56:11Z</time>
      </trkpt>
      <trkpt lat="45.07034" lon="6.05304">
        <ele>963.6</ele>
        <time>2020-09-05T05:56:12Z</time>
      </trkpt>
      <trkpt lat="45.07032" lon="6.0531">
        <ele>963.8</ele>
        <time>2020-09-05T05:56:13Z</time>
      </trkpt>
      <trkpt lat="45.0703" lon="6.05316">
        <ele>963.8</ele>
        <time>2020-09-05T05:56:14Z</time>
      </trkpt>
      <trkpt lat="45.07028" lon="6.05322">
        <ele>964</ele>
        <time>2020-09-05T05:56:15Z</time>
      </trkpt>
      <trkpt lat="45.07026" lon="6.05327">
        <ele>964</ele>
        <time>2020-09-05T05:56:16Z</time>
      </trkpt>
      <trkpt lat="45.07024" lon="6.05331">
        <ele>964.2</ele>
        <time>2020-09-05T05:56:17Z</time>
      </trkpt>
      <trkpt lat="45.07019" lon="6.05346">
        <ele>964</ele>
        <time>2020-09-05T05:56:20Z</time>
      </trkpt>
      <trkpt lat="45.07014" lon="6.05357">
        <ele>964.4</ele>
        <time>2020-09-05T05:56:23Z</time>
      </trkpt>
      <trkpt lat="45.07012" lon="6.05357">
        <ele>964.4</ele>
        <time>2020-09-05T05:56:24Z</time>
      </trkpt>
      <trkpt lat="45.07009" lon="6.05355">
        <ele>964.4</ele>
        <time>2020-09-05T05:56:25Z</time>
      </trkpt>
      <trkpt lat="45.07004" lon="6.05352">
        <ele>964.4</ele>
        <time>2020-09-05T05:56:26Z</time>
      </trkpt>
      <trkpt lat="45.07" lon="6.05349">
        <ele>964.2</ele>
        <time>2020-09-05T05:56:27Z</time>
      </trkpt>
      <trkpt lat="45.06991" lon="6.05338">
        <ele>964.6</ele>
        <time>2020-09-05T05:56:29Z</time>
      </trkpt>
      <trkpt lat="45.06987" lon="6.05324">
        <ele>964.8</ele>
        <time>2020-09-05T05:56:31Z</time>
      </trkpt>
      <trkpt lat="45.06987" lon="6.0531">
        <ele>965</ele>
        <time>2020-09-05T05:56:33Z</time>
      </trkpt>
      <trkpt lat="45.06987" lon="6.05304">
        <ele>965.2</ele>
        <time>2020-09-05T05:56:34Z</time>
      </trkpt>
      <trkpt lat="45.06988" lon="6.05298">
        <ele>965.2</ele>
        <time>2020-09-05T05:56:35Z</time>
      </trkpt>
      <trkpt lat="45.06988" lon="6.05292">
        <ele>965.4</ele>
        <time>2020-09-05T05:56:36Z</time>
      </trkpt>
      <trkpt lat="45.06987" lon="6.0528">
        <ele>965.6</ele>
        <time>2020-09-05T05:56:38Z</time>
      </trkpt>
      <trkpt lat="45.06986" lon="6.05274">
        <ele>965.8</ele>
        <time>2020-09-05T05:56:39Z</time>
      </trkpt>
      <trkpt lat="45.06979" lon="6.05259">
        <ele>966.8</ele>
        <time>2020-09-05T05:56:42Z</time>
      </trkpt>
      <trkpt lat="45.06976" lon="6.05254">
        <ele>966.8</ele>
        <time>2020-09-05T05:56:43Z</time>
      </trkpt>
      <trkpt lat="45.06972" lon="6.0525">
        <ele>967</ele>
        <time>2020-09-05T05:56:44Z</time>
      </trkpt>
      <trkpt lat="45.06969" lon="6.05246">
        <ele>967.2</ele>
        <time>2020-09-05T05:56:45Z</time>
      </trkpt>
      <trkpt lat="45.06967" lon="6.05242">
        <ele>967.4</ele>
        <time>2020-09-05T05:56:46Z</time>
      </trkpt>
      <trkpt lat="45.06965" lon="6.05238">
        <ele>967.8</ele>
        <time>2020-09-05T05:56:47Z</time>
      </trkpt>
      <trkpt lat="45.06962" lon="6.05235">
        <ele>968.2</ele>
        <time>2020-09-05T05:56:48Z</time>
      </trkpt>
      <trkpt lat="45.0696" lon="6.05232">
        <ele>968.4</ele>
        <time>2020-09-05T05:56:49Z</time>
      </trkpt>
      <trkpt lat="45.06959" lon="6.0523">
        <ele>968.8</ele>
        <time>2020-09-05T05:56:50Z</time>
      </trkpt>
      <trkpt lat="45.06959" lon="6.05227">
        <ele>969</ele>
        <time>2020-09-05T05:56:51Z</time>
      </trkpt>
      <trkpt lat="45.06958" lon="6.05224">
        <ele>969.2</ele>
        <time>2020-09-05T05:56:52Z</time>
      </trkpt>
      <trkpt lat="45.06957" lon="6.05222">
        <ele>969.6</ele>
        <time>2020-09-05T05:56:53Z</time>
      </trkpt>
      <trkpt lat="45.06955" lon="6.05219">
        <ele>969.8</ele>
        <time>2020-09-05T05:56:54Z</time>
      </trkpt>
      <trkpt lat="45.06953" lon="6.05217">
        <ele>969.8</ele>
        <time>2020-09-05T05:56:55Z</time>
      </trkpt>
      <trkpt lat="45.06949" lon="6.05211">
        <ele>970.4</ele>
        <time>2020-09-05T05:56:57Z</time>
      </trkpt>
      <trkpt lat="45.06946" lon="6.05208">
        <ele>970.6</ele>
        <time>2020-09-05T05:56:58Z</time>
      </trkpt>
      <trkpt lat="45.06945" lon="6.05206">
        <ele>970.8</ele>
        <time>2020-09-05T05:56:59Z</time>
      </trkpt>
      <trkpt lat="45.06944" lon="6.05203">
        <ele>971</ele>
        <time>2020-09-05T05:57:00Z</time>
      </trkpt>
      <trkpt lat="45.06941" lon="6.05201">
        <ele>971.2</ele>
        <time>2020-09-05T05:57:01Z</time>
      </trkpt>
      <trkpt lat="45.06939" lon="6.05199">
        <ele>971.4</ele>
        <time>2020-09-05T05:57:02Z</time>
      </trkpt>
      <trkpt lat="45.06938" lon="6.05196">
        <ele>971.8</ele>
        <time>2020-09-05T05:57:03Z</time>
      </trkpt>
      <trkpt lat="45.06934" lon="6.05192">
        <ele>972</ele>
        <time>2020-09-05T05:57:05Z</time>
      </trkpt>
      <trkpt lat="45.06933" lon="6.0519">
        <ele>972.2</ele>
        <time>2020-09-05T05:57:06Z</time>
      </trkpt>
      <trkpt lat="45.06931" lon="6.05187">
        <ele>972.4</ele>
        <time>2020-09-05T05:57:07Z</time>
      </trkpt>
      <trkpt lat="45.06929" lon="6.05185">
        <ele>972.6</ele>
        <time>2020-09-05T05:57:08Z</time>
      </trkpt>
      <trkpt lat="45.06927" lon="6.05183">
        <ele>972.8</ele>
        <time>2020-09-05T05:57:09Z</time>
      </trkpt>
      <trkpt lat="45.06926" lon="6.05181">
        <ele>973</ele>
        <time>2020-09-05T05:57:10Z</time>
      </trkpt>
      <trkpt lat="45.06924" lon="6.05178">
        <ele>973.2</ele>
        <time>2020-09-05T05:57:11Z</time>
      </trkpt>
      <trkpt lat="45.06923" lon="6.05176">
        <ele>973.4</ele>
        <time>2020-09-05T05:57:12Z</time>
      </trkpt>
      <trkpt lat="45.06921" lon="6.05174">
        <ele>973.6</ele>
        <time>2020-09-05T05:57:13Z</time>
      </trkpt>
      <trkpt lat="45.06919" lon="6.05171">
        <ele>973.8</ele>
        <time>2020-09-05T05:57:14Z</time>
      </trkpt>
      <trkpt lat="45.06918" lon="6.05169">
        <ele>974</ele>
        <time>2020-09-05T05:57:15Z</time>
      </trkpt>
      <trkpt lat="45.06917" lon="6.05166">
        <ele>974.2</ele>
        <time>2020-09-05T05:57:16Z</time>
      </trkpt>
      <trkpt lat="45.06915" lon="6.05165">
        <ele>974.4</ele>
        <time>2020-09-05T05:57:17Z</time>
      </trkpt>
      <trkpt lat="45.06913" lon="6.05164">
        <ele>974.6</ele>
        <time>2020-09-05T05:57:18Z</time>
      </trkpt>
      <trkpt lat="45.06903" lon="6.0516">
        <ele>975.4</ele>
        <time>2020-09-05T05:57:22Z</time>
      </trkpt>
      <trkpt lat="45.06895" lon="6.05154">
        <ele>976.4</ele>
        <time>2020-09-05T05:57:26Z</time>
      </trkpt>
      <trkpt lat="45.06888" lon="6.05142">
        <ele>977.4</ele>
        <time>2020-09-05T05:57:31Z</time>
      </trkpt>
      <trkpt lat="45.0688" lon="6.05139">
        <ele>978.4</ele>
        <time>2020-09-05T05:57:35Z</time>
      </trkpt>
      <trkpt lat="45.06869" lon="6.05133">
        <ele>979.2</ele>
        <time>2020-09-05T05:57:39Z</time>
      </trkpt>
      <trkpt lat="45.0686" lon="6.05122">
        <ele>980.2</ele>
        <time>2020-09-05T05:57:43Z</time>
      </trkpt>
      <trkpt lat="45.06854" lon="6.05109">
        <ele>980.8</ele>
        <time>2020-09-05T05:57:47Z</time>
      </trkpt>
      <trkpt lat="45.06848" lon="6.05095">
        <ele>982</ele>
        <time>2020-09-05T05:57:52Z</time>
      </trkpt>
      <trkpt lat="45.06842" lon="6.05084">
        <ele>982.8</ele>
        <time>2020-09-05T05:57:56Z</time>
      </trkpt>
      <trkpt lat="45.06835" lon="6.05075">
        <ele>983.4</ele>
        <time>2020-09-05T05:57:59Z</time>
      </trkpt>
      <trkpt lat="45.06833" lon="6.05073">
        <ele>983.8</ele>
        <time>2020-09-05T05:58:00Z</time>
      </trkpt>
      <trkpt lat="45.06831" lon="6.05071">
        <ele>984</ele>
        <time>2020-09-05T05:58:01Z</time>
      </trkpt>
      <trkpt lat="45.0683" lon="6.05069">
        <ele>984.2</ele>
        <time>2020-09-05T05:58:02Z</time>
      </trkpt>
      <trkpt lat="45.06824" lon="6.05066">
        <ele>984.8</ele>
        <time>2020-09-05T05:58:04Z</time>
      </trkpt>
      <trkpt lat="45.06821" lon="6.05065">
        <ele>985</ele>
        <time>2020-09-05T05:58:05Z</time>
      </trkpt>
      <trkpt lat="45.06811" lon="6.05061">
        <ele>986</ele>
        <time>2020-09-05T05:58:09Z</time>
      </trkpt>
      <trkpt lat="45.06801" lon="6.05057">
        <ele>986.6</ele>
        <time>2020-09-05T05:58:13Z</time>
      </trkpt>
      <trkpt lat="45.06793" lon="6.0505">
        <ele>987.2</ele>
        <time>2020-09-05T05:58:17Z</time>
      </trkpt>
      <trkpt lat="45.06784" lon="6.0504">
        <ele>988</ele>
        <time>2020-09-05T05:58:21Z</time>
      </trkpt>
      <trkpt lat="45.06779" lon="6.05032">
        <ele>988.6</ele>
        <time>2020-09-05T05:58:24Z</time>
      </trkpt>
      <trkpt lat="45.06777" lon="6.0503">
        <ele>988.8</ele>
        <time>2020-09-05T05:58:25Z</time>
      </trkpt>
      <trkpt lat="45.06775" lon="6.05024">
        <ele>989.4</ele>
        <time>2020-09-05T05:58:27Z</time>
      </trkpt>
      <trkpt lat="45.06774" lon="6.05021">
        <ele>989.6</ele>
        <time>2020-09-05T05:58:28Z</time>
      </trkpt>
      <trkpt lat="45.06766" lon="6.05009">
        <ele>990.8</ele>
        <time>2020-09-05T05:58:32Z</time>
      </trkpt>
      <trkpt lat="45.06758" lon="6.04998">
        <ele>991.2</ele>
        <time>2020-09-05T05:58:36Z</time>
      </trkpt>
      <trkpt lat="45.06751" lon="6.04987">
        <ele>992.2</ele>
        <time>2020-09-05T05:58:40Z</time>
      </trkpt>
      <trkpt lat="45.0675" lon="6.04984">
        <ele>992.2</ele>
        <time>2020-09-05T05:58:41Z</time>
      </trkpt>
      <trkpt lat="45.06748" lon="6.04981">
        <ele>992.6</ele>
        <time>2020-09-05T05:58:42Z</time>
      </trkpt>
      <trkpt lat="45.06747" lon="6.04978">
        <ele>992.8</ele>
        <time>2020-09-05T05:58:43Z</time>
      </trkpt>
      <trkpt lat="45.06746" lon="6.04975">
        <ele>993</ele>
        <time>2020-09-05T05:58:44Z</time>
      </trkpt>
      <trkpt lat="45.06745" lon="6.04972">
        <ele>993.4</ele>
        <time>2020-09-05T05:58:45Z</time>
      </trkpt>
      <trkpt lat="45.06743" lon="6.04969">
        <ele>993.6</ele>
        <time>2020-09-05T05:58:46Z</time>
      </trkpt>
      <trkpt lat="45.06742" lon="6.04967">
        <ele>994</ele>
        <time>2020-09-05T05:58:47Z</time>
      </trkpt>
      <trkpt lat="45.0674" lon="6.04964">
        <ele>994.2</ele>
        <time>2020-09-05T05:58:48Z</time>
      </trkpt>
      <trkpt lat="45.06739" lon="6.04962">
        <ele>994.2</ele>
        <time>2020-09-05T05:58:49Z</time>
      </trkpt>
      <trkpt lat="45.06737" lon="6.04959">
        <ele>994.4</ele>
        <time>2020-09-05T05:58:50Z</time>
      </trkpt>
      <trkpt lat="45.06736" lon="6.04956">
        <ele>994.6</ele>
        <time>2020-09-05T05:58:51Z</time>
      </trkpt>
      <trkpt lat="45.06734" lon="6.04954">
        <ele>994.6</ele>
        <time>2020-09-05T05:58:52Z</time>
      </trkpt>
      <trkpt lat="45.06729" lon="6.0495">
        <ele>995.2</ele>
        <time>2020-09-05T05:58:54Z</time>
      </trkpt>
      <trkpt lat="45.06727" lon="6.04949">
        <ele>995.4</ele>
        <time>2020-09-05T05:58:55Z</time>
      </trkpt>
      <trkpt lat="45.06725" lon="6.04947">
        <ele>995.6</ele>
        <time>2020-09-05T05:58:56Z</time>
      </trkpt>
      <trkpt lat="45.06722" lon="6.04946">
        <ele>995.8</ele>
        <time>2020-09-05T05:58:57Z</time>
      </trkpt>
      <trkpt lat="45.0672" lon="6.04944">
        <ele>996</ele>
        <time>2020-09-05T05:58:58Z</time>
      </trkpt>
      <trkpt lat="45.06718" lon="6.04943">
        <ele>996.4</ele>
        <time>2020-09-05T05:58:59Z</time>
      </trkpt>
      <trkpt lat="45.06716" lon="6.04942">
        <ele>996.6</ele>
        <time>2020-09-05T05:59:00Z</time>
      </trkpt>
      <trkpt lat="45.06714" lon="6.0494">
        <ele>996.8</ele>
        <time>2020-09-05T05:59:01Z</time>
      </trkpt>
      <trkpt lat="45.06711" lon="6.04938">
        <ele>997</ele>
        <time>2020-09-05T05:59:02Z</time>
      </trkpt>
      <trkpt lat="45.06709" lon="6.04937">
        <ele>997.2</ele>
        <time>2020-09-05T05:59:03Z</time>
      </trkpt>
      <trkpt lat="45.06707" lon="6.04935">
        <ele>997.4</ele>
        <time>2020-09-05T05:59:04Z</time>
      </trkpt>
      <trkpt lat="45.06705" lon="6.04934">
        <ele>997.6</ele>
        <time>2020-09-05T05:59:05Z</time>
      </trkpt>
      <trkpt lat="45.06703" lon="6.04933">
        <ele>997.6</ele>
        <time>2020-09-05T05:59:06Z</time>
      </trkpt>
      <trkpt lat="45.06701" lon="6.04932">
        <ele>997.8</ele>
        <time>2020-09-05T05:59:07Z</time>
      </trkpt>
      <trkpt lat="45.06699" lon="6.0493">
        <ele>998</ele>
        <time>2020-09-05T05:59:08Z</time>
      </trkpt>
      <trkpt lat="45.06698" lon="6.04929">
        <ele>998.2</ele>
        <time>2020-09-05T05:59:09Z</time>
      </trkpt>
      <trkpt lat="45.06696" lon="6.04928">
        <ele>998.4</ele>
        <time>2020-09-05T05:59:10Z</time>
      </trkpt>
      <trkpt lat="45.06694" lon="6.04926">
        <ele>998.8</ele>
        <time>2020-09-05T05:59:11Z</time>
      </trkpt>
      <trkpt lat="45.06692" lon="6.04925">
        <ele>999</ele>
        <time>2020-09-05T05:59:12Z</time>
      </trkpt>
      <trkpt lat="45.06689" lon="6.04923">
        <ele>999.2</ele>
        <time>2020-09-05T05:59:13Z</time>
      </trkpt>
      <trkpt lat="45.06682" lon="6.04918">
        <ele>999.8</ele>
        <time>2020-09-05T05:59:16Z</time>
      </trkpt>
      <trkpt lat="45.0668" lon="6.04916">
        <ele>1000</ele>
        <time>2020-09-05T05:59:17Z</time>
      </trkpt>
      <trkpt lat="45.06678" lon="6.04914">
        <ele>1000.4</ele>
        <time>2020-09-05T05:59:18Z</time>
      </trkpt>
      <trkpt lat="45.06674" lon="6.04911">
        <ele>1000.8</ele>
        <time>2020-09-05T05:59:20Z</time>
      </trkpt>
      <trkpt lat="45.06672" lon="6.04909">
        <ele>1001</ele>
        <time>2020-09-05T05:59:21Z</time>
      </trkpt>
      <trkpt lat="45.06667" lon="6.04906">
        <ele>1001.4</ele>
        <time>2020-09-05T05:59:23Z</time>
      </trkpt>
      <trkpt lat="45.06662" lon="6.04901">
        <ele>1001.6</ele>
        <time>2020-09-05T05:59:26Z</time>
      </trkpt>
      <trkpt lat="45.0666" lon="6.049">
        <ele>1002</ele>
        <time>2020-09-05T05:59:27Z</time>
      </trkpt>
      <trkpt lat="45.06658" lon="6.04899">
        <ele>1002.2</ele>
        <time>2020-09-05T05:59:28Z</time>
      </trkpt>
      <trkpt lat="45.06656" lon="6.04897">
        <ele>1002.4</ele>
        <time>2020-09-05T05:59:29Z</time>
      </trkpt>
      <trkpt lat="45.06654" lon="6.04896">
        <ele>1002.6</ele>
        <time>2020-09-05T05:59:30Z</time>
      </trkpt>
      <trkpt lat="45.06652" lon="6.04895">
        <ele>1002.8</ele>
        <time>2020-09-05T05:59:31Z</time>
      </trkpt>
      <trkpt lat="45.0665" lon="6.04893">
        <ele>1003</ele>
        <time>2020-09-05T05:59:32Z</time>
      </trkpt>
      <trkpt lat="45.06648" lon="6.04892">
        <ele>1003</ele>
        <time>2020-09-05T05:59:33Z</time>
      </trkpt>
      <trkpt lat="45.06646" lon="6.04891">
        <ele>1003.2</ele>
        <time>2020-09-05T05:59:34Z</time>
      </trkpt>
      <trkpt lat="45.06638" lon="6.04884">
        <ele>1004</ele>
        <time>2020-09-05T05:59:38Z</time>
      </trkpt>
      <trkpt lat="45.06632" lon="6.04878">
        <ele>1004.4</ele>
        <time>2020-09-05T05:59:41Z</time>
      </trkpt>
      <trkpt lat="45.0663" lon="6.04875">
        <ele>1004.6</ele>
        <time>2020-09-05T05:59:42Z</time>
      </trkpt>
      <trkpt lat="45.06629" lon="6.04873">
        <ele>1005</ele>
        <time>2020-09-05T05:59:43Z</time>
      </trkpt>
      <trkpt lat="45.06627" lon="6.0487">
        <ele>1005.4</ele>
        <time>2020-09-05T05:59:44Z</time>
      </trkpt>
      <trkpt lat="45.06625" lon="6.04868">
        <ele>1005.6</ele>
        <time>2020-09-05T05:59:45Z</time>
      </trkpt>
      <trkpt lat="45.06624" lon="6.04865">
        <ele>1005.8</ele>
        <time>2020-09-05T05:59:46Z</time>
      </trkpt>
      <trkpt lat="45.06623" lon="6.04863">
        <ele>1006</ele>
        <time>2020-09-05T05:59:47Z</time>
      </trkpt>
      <trkpt lat="45.06621" lon="6.0486">
        <ele>1006.2</ele>
        <time>2020-09-05T05:59:48Z</time>
      </trkpt>
      <trkpt lat="45.0662" lon="6.04858">
        <ele>1006.4</ele>
        <time>2020-09-05T05:59:49Z</time>
      </trkpt>
      <trkpt lat="45.06618" lon="6.04855">
        <ele>1006.8</ele>
        <time>2020-09-05T05:59:50Z</time>
      </trkpt>
      <trkpt lat="45.06616" lon="6.04853">
        <ele>1006.8</ele>
        <time>2020-09-05T05:59:51Z</time>
      </trkpt>
      <trkpt lat="45.06615" lon="6.0485">
        <ele>1007</ele>
        <time>2020-09-05T05:59:52Z</time>
      </trkpt>
      <trkpt lat="45.06613" lon="6.04847">
        <ele>1007.2</ele>
        <time>2020-09-05T05:59:53Z</time>
      </trkpt>
      <trkpt lat="45.06611" lon="6.04845">
        <ele>1007.4</ele>
        <time>2020-09-05T05:59:54Z</time>
      </trkpt>
      <trkpt lat="45.06609" lon="6.04843">
        <ele>1007.4</ele>
        <time>2020-09-05T05:59:55Z</time>
      </trkpt>
      <trkpt lat="45.06607" lon="6.04841">
        <ele>1007.6</ele>
        <time>2020-09-05T05:59:56Z</time>
      </trkpt>
      <trkpt lat="45.06599" lon="6.04834">
        <ele>1008.6</ele>
        <time>2020-09-05T06:00:00Z</time>
      </trkpt>
      <trkpt lat="45.06597" lon="6.04833">
        <ele>1008.6</ele>
        <time>2020-09-05T06:00:01Z</time>
      </trkpt>
      <trkpt lat="45.06594" lon="6.04832">
        <ele>1008.8</ele>
        <time>2020-09-05T06:00:02Z</time>
      </trkpt>
      <trkpt lat="45.06592" lon="6.04831">
        <ele>1009</ele>
        <time>2020-09-05T06:00:03Z</time>
      </trkpt>
      <trkpt lat="45.0659" lon="6.04829">
        <ele>1009.4</ele>
        <time>2020-09-05T06:00:04Z</time>
      </trkpt>
      <trkpt lat="45.06588" lon="6.04828">
        <ele>1009.6</ele>
        <time>2020-09-05T06:00:05Z</time>
      </trkpt>
      <trkpt lat="45.06586" lon="6.04826">
        <ele>1009.8</ele>
        <time>2020-09-05T06:00:06Z</time>
      </trkpt>
      <trkpt lat="45.06584" lon="6.04825">
        <ele>1010.2</ele>
        <time>2020-09-05T06:00:07Z</time>
      </trkpt>
      <trkpt lat="45.06582" lon="6.04824">
        <ele>1010.6</ele>
        <time>2020-09-05T06:00:08Z</time>
      </trkpt>
      <trkpt lat="45.0658" lon="6.04822">
        <ele>1010.8</ele>
        <time>2020-09-05T06:00:09Z</time>
      </trkpt>
      <trkpt lat="45.06578" lon="6.0482">
        <ele>1011</ele>
        <time>2020-09-05T06:00:10Z</time>
      </trkpt>
      <trkpt lat="45.06576" lon="6.04819">
        <ele>1011.4</ele>
        <time>2020-09-05T06:00:11Z</time>
      </trkpt>
      <trkpt lat="45.06574" lon="6.04817">
        <ele>1011.4</ele>
        <time>2020-09-05T06:00:12Z</time>
      </trkpt>
      <trkpt lat="45.06572" lon="6.04815">
        <ele>1011.8</ele>
        <time>2020-09-05T06:00:13Z</time>
      </trkpt>
      <trkpt lat="45.0657" lon="6.04814">
        <ele>1012</ele>
        <time>2020-09-05T06:00:14Z</time>
      </trkpt>
      <trkpt lat="45.06568" lon="6.04813">
        <ele>1012.4</ele>
        <time>2020-09-05T06:00:15Z</time>
      </trkpt>
      <trkpt lat="45.06566" lon="6.04811">
        <ele>1012.6</ele>
        <time>2020-09-05T06:00:16Z</time>
      </trkpt>
      <trkpt lat="45.06564" lon="6.0481">
        <ele>1013</ele>
        <time>2020-09-05T06:00:17Z</time>
      </trkpt>
      <trkpt lat="45.06562" lon="6.04809">
        <ele>1013.2</ele>
        <time>2020-09-05T06:00:18Z</time>
      </trkpt>
      <trkpt lat="45.0656" lon="6.04808">
        <ele>1013.2</ele>
        <time>2020-09-05T06:00:19Z</time>
      </trkpt>
      <trkpt lat="45.06558" lon="6.04806">
        <ele>1013.4</ele>
        <time>2020-09-05T06:00:20Z</time>
      </trkpt>
      <trkpt lat="45.06556" lon="6.04805">
        <ele>1013.6</ele>
        <time>2020-09-05T06:00:21Z</time>
      </trkpt>
      <trkpt lat="45.06554" lon="6.04804">
        <ele>1013.8</ele>
        <time>2020-09-05T06:00:22Z</time>
      </trkpt>
      <trkpt lat="45.06552" lon="6.04803">
        <ele>1014.2</ele>
        <time>2020-09-05T06:00:23Z</time>
      </trkpt>
      <trkpt lat="45.0655" lon="6.04802">
        <ele>1014.4</ele>
        <time>2020-09-05T06:00:24Z</time>
      </trkpt>
      <trkpt lat="45.06548" lon="6.04801">
        <ele>1014.8</ele>
        <time>2020-09-05T06:00:25Z</time>
      </trkpt>
      <trkpt lat="45.06545" lon="6.04801">
        <ele>1015</ele>
        <time>2020-09-05T06:00:26Z</time>
      </trkpt>
      <trkpt lat="45.06543" lon="6.04801">
        <ele>1015.2</ele>
        <time>2020-09-05T06:00:27Z</time>
      </trkpt>
      <trkpt lat="45.06536" lon="6.048">
        <ele>1015.8</ele>
        <time>2020-09-05T06:00:30Z</time>
      </trkpt>
      <trkpt lat="45.06534" lon="6.04801">
        <ele>1016.2</ele>
        <time>2020-09-05T06:00:31Z</time>
      </trkpt>
      <trkpt lat="45.06532" lon="6.04801">
        <ele>1016.6</ele>
        <time>2020-09-05T06:00:32Z</time>
      </trkpt>
      <trkpt lat="45.06531" lon="6.04803">
        <ele>1016.8</ele>
        <time>2020-09-05T06:00:33Z</time>
      </trkpt>
      <trkpt lat="45.06528" lon="6.04804">
        <ele>1017</ele>
        <time>2020-09-05T06:00:34Z</time>
      </trkpt>
      <trkpt lat="45.06526" lon="6.04805">
        <ele>1017.4</ele>
        <time>2020-09-05T06:00:35Z</time>
      </trkpt>
      <trkpt lat="45.06524" lon="6.04806">
        <ele>1017.6</ele>
        <time>2020-09-05T06:00:36Z</time>
      </trkpt>
      <trkpt lat="45.06522" lon="6.04807">
        <ele>1017.8</ele>
        <time>2020-09-05T06:00:37Z</time>
      </trkpt>
      <trkpt lat="45.0652" lon="6.04809">
        <ele>1018.2</ele>
        <time>2020-09-05T06:00:38Z</time>
      </trkpt>
      <trkpt lat="45.06518" lon="6.04811">
        <ele>1018.4</ele>
        <time>2020-09-05T06:00:39Z</time>
      </trkpt>
      <trkpt lat="45.06516" lon="6.04813">
        <ele>1018.8</ele>
        <time>2020-09-05T06:00:40Z</time>
      </trkpt>
      <trkpt lat="45.06512" lon="6.04816">
        <ele>1019.2</ele>
        <time>2020-09-05T06:00:42Z</time>
      </trkpt>
      <trkpt lat="45.0651" lon="6.04817">
        <ele>1019.4</ele>
        <time>2020-09-05T06:00:43Z</time>
      </trkpt>
      <trkpt lat="45.06508" lon="6.04819">
        <ele>1019.4</ele>
        <time>2020-09-05T06:00:44Z</time>
      </trkpt>
      <trkpt lat="45.06506" lon="6.04821">
        <ele>1020</ele>
        <time>2020-09-05T06:00:45Z</time>
      </trkpt>
      <trkpt lat="45.06504" lon="6.04822">
        <ele>1020.2</ele>
        <time>2020-09-05T06:00:46Z</time>
      </trkpt>
      <trkpt lat="45.06499" lon="6.04823">
        <ele>1020.6</ele>
        <time>2020-09-05T06:00:48Z</time>
      </trkpt>
      <trkpt lat="45.06494" lon="6.04827">
        <ele>1021</ele>
        <time>2020-09-05T06:00:51Z</time>
      </trkpt>
      <trkpt lat="45.06492" lon="6.04829">
        <ele>1021.2</ele>
        <time>2020-09-05T06:00:52Z</time>
      </trkpt>
      <trkpt lat="45.06483" lon="6.0483">
        <ele>1022.6</ele>
        <time>2020-09-05T06:00:57Z</time>
      </trkpt>
      <trkpt lat="45.06473" lon="6.04831">
        <ele>1023.4</ele>
        <time>2020-09-05T06:01:02Z</time>
      </trkpt>
      <trkpt lat="45.06463" lon="6.04831">
        <ele>1024.8</ele>
        <time>2020-09-05T06:01:07Z</time>
      </trkpt>
      <trkpt lat="45.06452" lon="6.0483">
        <ele>1025.6</ele>
        <time>2020-09-05T06:01:12Z</time>
      </trkpt>
      <trkpt lat="45.06446" lon="6.04829">
        <ele>1026.6</ele>
        <time>2020-09-05T06:01:15Z</time>
      </trkpt>
      <trkpt lat="45.06439" lon="6.04827">
        <ele>1027.2</ele>
        <time>2020-09-05T06:01:18Z</time>
      </trkpt>
      <trkpt lat="45.06429" lon="6.04823">
        <ele>1028.6</ele>
        <time>2020-09-05T06:01:23Z</time>
      </trkpt>
      <trkpt lat="45.06419" lon="6.04819">
        <ele>1029.8</ele>
        <time>2020-09-05T06:01:28Z</time>
      </trkpt>
      <trkpt lat="45.06409" lon="6.04813">
        <ele>1030.6</ele>
        <time>2020-09-05T06:01:33Z</time>
      </trkpt>
      <trkpt lat="45.064" lon="6.0481">
        <ele>1031.8</ele>
        <time>2020-09-05T06:01:37Z</time>
      </trkpt>
      <trkpt lat="45.06398" lon="6.04809">
        <ele>1032</ele>
        <time>2020-09-05T06:01:38Z</time>
      </trkpt>
      <trkpt lat="45.06396" lon="6.04808">
        <ele>1032.2</ele>
        <time>2020-09-05T06:01:39Z</time>
      </trkpt>
      <trkpt lat="45.06394" lon="6.04807">
        <ele>1032.4</ele>
        <time>2020-09-05T06:01:40Z</time>
      </trkpt>
      <trkpt lat="45.06392" lon="6.04806">
        <ele>1032.6</ele>
        <time>2020-09-05T06:01:41Z</time>
      </trkpt>
      <trkpt lat="45.0639" lon="6.04805">
        <ele>1032.8</ele>
        <time>2020-09-05T06:01:42Z</time>
      </trkpt>
      <trkpt lat="45.06388" lon="6.04804">
        <ele>1033.2</ele>
        <time>2020-09-05T06:01:43Z</time>
      </trkpt>
      <trkpt lat="45.06386" lon="6.04802">
        <ele>1033.4</ele>
        <time>2020-09-05T06:01:44Z</time>
      </trkpt>
      <trkpt lat="45.06377" lon="6.04799">
        <ele>1034.4</ele>
        <time>2020-09-05T06:01:48Z</time>
      </trkpt>
      <trkpt lat="45.06375" lon="6.04798">
        <ele>1034.8</ele>
        <time>2020-09-05T06:01:49Z</time>
      </trkpt>
      <trkpt lat="45.06373" lon="6.04797">
        <ele>1035.2</ele>
        <time>2020-09-05T06:01:50Z</time>
      </trkpt>
      <trkpt lat="45.06371" lon="6.04796">
        <ele>1035.2</ele>
        <time>2020-09-05T06:01:51Z</time>
      </trkpt>
      <trkpt lat="45.06369" lon="6.04795">
        <ele>1035.6</ele>
        <time>2020-09-05T06:01:52Z</time>
      </trkpt>
      <trkpt lat="45.06367" lon="6.04794">
        <ele>1035.8</ele>
        <time>2020-09-05T06:01:53Z</time>
      </trkpt>
      <trkpt lat="45.06364" lon="6.04793">
        <ele>1036</ele>
        <time>2020-09-05T06:01:54Z</time>
      </trkpt>
      <trkpt lat="45.06362" lon="6.04793">
        <ele>1036.2</ele>
        <time>2020-09-05T06:01:55Z</time>
      </trkpt>
      <trkpt lat="45.0636" lon="6.04792">
        <ele>1036.2</ele>
        <time>2020-09-05T06:01:56Z</time>
      </trkpt>
      <trkpt lat="45.06358" lon="6.04791">
        <ele>1036.4</ele>
        <time>2020-09-05T06:01:57Z</time>
      </trkpt>
      <trkpt lat="45.06356" lon="6.0479">
        <ele>1036.8</ele>
        <time>2020-09-05T06:01:58Z</time>
      </trkpt>
      <trkpt lat="45.06354" lon="6.04789">
        <ele>1037</ele>
        <time>2020-09-05T06:01:59Z</time>
      </trkpt>
      <trkpt lat="45.06352" lon="6.04788">
        <ele>1037</ele>
        <time>2020-09-05T06:02:00Z</time>
      </trkpt>
      <trkpt lat="45.06351" lon="6.04787">
        <ele>1037.2</ele>
        <time>2020-09-05T06:02:01Z</time>
      </trkpt>
      <trkpt lat="45.06349" lon="6.04786">
        <ele>1037.4</ele>
        <time>2020-09-05T06:02:02Z</time>
      </trkpt>
      <trkpt lat="45.06347" lon="6.04785">
        <ele>1037.6</ele>
        <time>2020-09-05T06:02:03Z</time>
      </trkpt>
      <trkpt lat="45.06345" lon="6.04784">
        <ele>1037.8</ele>
        <time>2020-09-05T06:02:04Z</time>
      </trkpt>
      <trkpt lat="45.06343" lon="6.04783">
        <ele>1038.2</ele>
        <time>2020-09-05T06:02:05Z</time>
      </trkpt>
      <trkpt lat="45.06335" lon="6.04779">
        <ele>1039.2</ele>
        <time>2020-09-05T06:02:09Z</time>
      </trkpt>
      <trkpt lat="45.06328" lon="6.04777">
        <ele>1039.8</ele>
        <time>2020-09-05T06:02:12Z</time>
      </trkpt>
      <trkpt lat="45.06319" lon="6.04773">
        <ele>1041</ele>
        <time>2020-09-05T06:02:16Z</time>
      </trkpt>
      <trkpt lat="45.0631" lon="6.0477">
        <ele>1041.8</ele>
        <time>2020-09-05T06:02:20Z</time>
      </trkpt>
      <trkpt lat="45.06299" lon="6.04766">
        <ele>1043</ele>
        <time>2020-09-05T06:02:25Z</time>
      </trkpt>
      <trkpt lat="45.0629" lon="6.0476">
        <ele>1044.2</ele>
        <time>2020-09-05T06:02:30Z</time>
      </trkpt>
      <trkpt lat="45.06287" lon="6.04758">
        <ele>1044.4</ele>
        <time>2020-09-05T06:02:32Z</time>
      </trkpt>
      <trkpt lat="45.06285" lon="6.04757">
        <ele>1044.6</ele>
        <time>2020-09-05T06:02:33Z</time>
      </trkpt>
      <trkpt lat="45.06283" lon="6.04756">
        <ele>1045</ele>
        <time>2020-09-05T06:02:34Z</time>
      </trkpt>
      <trkpt lat="45.06281" lon="6.04754">
        <ele>1045.2</ele>
        <time>2020-09-05T06:02:35Z</time>
      </trkpt>
      <trkpt lat="45.06279" lon="6.04753">
        <ele>1045.4</ele>
        <time>2020-09-05T06:02:36Z</time>
      </trkpt>
      <trkpt lat="45.06277" lon="6.04752">
        <ele>1045.6</ele>
        <time>2020-09-05T06:02:37Z</time>
      </trkpt>
      <trkpt lat="45.06275" lon="6.0475">
        <ele>1045.6</ele>
        <time>2020-09-05T06:02:38Z</time>
      </trkpt>
      <trkpt lat="45.06273" lon="6.04749">
        <ele>1046</ele>
        <time>2020-09-05T06:02:39Z</time>
      </trkpt>
      <trkpt lat="45.06271" lon="6.04748">
        <ele>1046.4</ele>
        <time>2020-09-05T06:02:40Z</time>
      </trkpt>
      <trkpt lat="45.06268" lon="6.04747">
        <ele>1046.6</ele>
        <time>2020-09-05T06:02:41Z</time>
      </trkpt>
      <trkpt lat="45.06266" lon="6.04746">
        <ele>1046.8</ele>
        <time>2020-09-05T06:02:42Z</time>
      </trkpt>
      <trkpt lat="45.06264" lon="6.04745">
        <ele>1047</ele>
        <time>2020-09-05T06:02:43Z</time>
      </trkpt>
      <trkpt lat="45.06262" lon="6.04744">
        <ele>1047.2</ele>
        <time>2020-09-05T06:02:44Z</time>
      </trkpt>
      <trkpt lat="45.06259" lon="6.04743">
        <ele>1047.6</ele>
        <time>2020-09-05T06:02:45Z</time>
      </trkpt>
      <trkpt lat="45.06257" lon="6.04742">
        <ele>1047.8</ele>
        <time>2020-09-05T06:02:46Z</time>
      </trkpt>
      <trkpt lat="45.06254" lon="6.04741">
        <ele>1048</ele>
        <time>2020-09-05T06:02:47Z</time>
      </trkpt>
      <trkpt lat="45.06252" lon="6.04741">
        <ele>1048.2</ele>
        <time>2020-09-05T06:02:48Z</time>
      </trkpt>
      <trkpt lat="45.0625" lon="6.0474">
        <ele>1048.6</ele>
        <time>2020-09-05T06:02:49Z</time>
      </trkpt>
      <trkpt lat="45.06247" lon="6.04739">
        <ele>1048.6</ele>
        <time>2020-09-05T06:02:50Z</time>
      </trkpt>
      <trkpt lat="45.06245" lon="6.04739">
        <ele>1048.8</ele>
        <time>2020-09-05T06:02:51Z</time>
      </trkpt>
      <trkpt lat="45.06243" lon="6.04739">
        <ele>1049.2</ele>
        <time>2020-09-05T06:02:52Z</time>
      </trkpt>
      <trkpt lat="45.0624" lon="6.04738">
        <ele>1049.4</ele>
        <time>2020-09-05T06:02:53Z</time>
      </trkpt>
      <trkpt lat="45.06238" lon="6.04738">
        <ele>1049.8</ele>
        <time>2020-09-05T06:02:54Z</time>
      </trkpt>
      <trkpt lat="45.06236" lon="6.04737">
        <ele>1050</ele>
        <time>2020-09-05T06:02:55Z</time>
      </trkpt>
      <trkpt lat="45.06234" lon="6.04737">
        <ele>1050</ele>
        <time>2020-09-05T06:02:56Z</time>
      </trkpt>
      <trkpt lat="45.06232" lon="6.04737">
        <ele>1050.4</ele>
        <time>2020-09-05T06:02:57Z</time>
      </trkpt>
      <trkpt lat="45.0623" lon="6.04736">
        <ele>1050.6</ele>
        <time>2020-09-05T06:02:58Z</time>
      </trkpt>
      <trkpt lat="45.06228" lon="6.04735">
        <ele>1051</ele>
        <time>2020-09-05T06:02:59Z</time>
      </trkpt>
      <trkpt lat="45.06226" lon="6.04735">
        <ele>1051.2</ele>
        <time>2020-09-05T06:03:00Z</time>
      </trkpt>
      <trkpt lat="45.06222" lon="6.04734">
        <ele>1052</ele>
        <time>2020-09-05T06:03:02Z</time>
      </trkpt>
      <trkpt lat="45.06218" lon="6.04733">
        <ele>1052.4</ele>
        <time>2020-09-05T06:03:04Z</time>
      </trkpt>
      <trkpt lat="45.06217" lon="6.04732">
        <ele>1052.6</ele>
        <time>2020-09-05T06:03:05Z</time>
      </trkpt>
      <trkpt lat="45.06213" lon="6.0473">
        <ele>1053.4</ele>
        <time>2020-09-05T06:03:07Z</time>
      </trkpt>
      <trkpt lat="45.06209" lon="6.04729">
        <ele>1053.8</ele>
        <time>2020-09-05T06:03:09Z</time>
      </trkpt>
      <trkpt lat="45.06207" lon="6.04729">
        <ele>1053.8</ele>
        <time>2020-09-05T06:03:10Z</time>
      </trkpt>
      <trkpt lat="45.06205" lon="6.04729">
        <ele>1054.2</ele>
        <time>2020-09-05T06:03:11Z</time>
      </trkpt>
      <trkpt lat="45.06203" lon="6.0473">
        <ele>1054.4</ele>
        <time>2020-09-05T06:03:12Z</time>
      </trkpt>
      <trkpt lat="45.062" lon="6.0473">
        <ele>1054.8</ele>
        <time>2020-09-05T06:03:14Z</time>
      </trkpt>
      <trkpt lat="45.06197" lon="6.0473">
        <ele>1055</ele>
        <time>2020-09-05T06:03:15Z</time>
      </trkpt>
      <trkpt lat="45.06195" lon="6.04731">
        <ele>1055.2</ele>
        <time>2020-09-05T06:03:16Z</time>
      </trkpt>
      <trkpt lat="45.06193" lon="6.04732">
        <ele>1055.4</ele>
        <time>2020-09-05T06:03:17Z</time>
      </trkpt>
      <trkpt lat="45.06191" lon="6.04734">
        <ele>1055.6</ele>
        <time>2020-09-05T06:03:18Z</time>
      </trkpt>
      <trkpt lat="45.06188" lon="6.04735">
        <ele>1056</ele>
        <time>2020-09-05T06:03:19Z</time>
      </trkpt>
      <trkpt lat="45.06186" lon="6.04736">
        <ele>1056.2</ele>
        <time>2020-09-05T06:03:20Z</time>
      </trkpt>
      <trkpt lat="45.06184" lon="6.04738">
        <ele>1056.2</ele>
        <time>2020-09-05T06:03:21Z</time>
      </trkpt>
      <trkpt lat="45.06183" lon="6.04741">
        <ele>1056.6</ele>
        <time>2020-09-05T06:03:22Z</time>
      </trkpt>
      <trkpt lat="45.06181" lon="6.04743">
        <ele>1056.6</ele>
        <time>2020-09-05T06:03:23Z</time>
      </trkpt>
      <trkpt lat="45.0618" lon="6.04745">
        <ele>1056.8</ele>
        <time>2020-09-05T06:03:24Z</time>
      </trkpt>
      <trkpt lat="45.06179" lon="6.04747">
        <ele>1057.2</ele>
        <time>2020-09-05T06:03:25Z</time>
      </trkpt>
      <trkpt lat="45.06177" lon="6.0475">
        <ele>1057.2</ele>
        <time>2020-09-05T06:03:26Z</time>
      </trkpt>
      <trkpt lat="45.06176" lon="6.04753">
        <ele>1057.4</ele>
        <time>2020-09-05T06:03:27Z</time>
      </trkpt>
      <trkpt lat="45.06175" lon="6.04755">
        <ele>1057.6</ele>
        <time>2020-09-05T06:03:28Z</time>
      </trkpt>
      <trkpt lat="45.06174" lon="6.04758">
        <ele>1057.8</ele>
        <time>2020-09-05T06:03:29Z</time>
      </trkpt>
      <trkpt lat="45.06172" lon="6.04761">
        <ele>1058</ele>
        <time>2020-09-05T06:03:30Z</time>
      </trkpt>
      <trkpt lat="45.06171" lon="6.04764">
        <ele>1058.2</ele>
        <time>2020-09-05T06:03:31Z</time>
      </trkpt>
      <trkpt lat="45.0617" lon="6.04766">
        <ele>1058.4</ele>
        <time>2020-09-05T06:03:32Z</time>
      </trkpt>
      <trkpt lat="45.06169" lon="6.04769">
        <ele>1058.4</ele>
        <time>2020-09-05T06:03:33Z</time>
      </trkpt>
      <trkpt lat="45.06168" lon="6.04772">
        <ele>1058.8</ele>
        <time>2020-09-05T06:03:34Z</time>
      </trkpt>
      <trkpt lat="45.06168" lon="6.04774">
        <ele>1059</ele>
        <time>2020-09-05T06:03:35Z</time>
      </trkpt>
      <trkpt lat="45.06167" lon="6.04777">
        <ele>1059.2</ele>
        <time>2020-09-05T06:03:36Z</time>
      </trkpt>
      <trkpt lat="45.06166" lon="6.0478">
        <ele>1059.4</ele>
        <time>2020-09-05T06:03:37Z</time>
      </trkpt>
      <trkpt lat="45.06165" lon="6.04783">
        <ele>1059.6</ele>
        <time>2020-09-05T06:03:38Z</time>
      </trkpt>
      <trkpt lat="45.06163" lon="6.04786">
        <ele>1060</ele>
        <time>2020-09-05T06:03:39Z</time>
      </trkpt>
      <trkpt lat="45.06162" lon="6.0479">
        <ele>1060</ele>
        <time>2020-09-05T06:03:40Z</time>
      </trkpt>
      <trkpt lat="45.06161" lon="6.04793">
        <ele>1060</ele>
        <time>2020-09-05T06:03:41Z</time>
      </trkpt>
      <trkpt lat="45.0616" lon="6.04796">
        <ele>1060.4</ele>
        <time>2020-09-05T06:03:42Z</time>
      </trkpt>
      <trkpt lat="45.06158" lon="6.04799">
        <ele>1060.6</ele>
        <time>2020-09-05T06:03:43Z</time>
      </trkpt>
      <trkpt lat="45.06157" lon="6.04801">
        <ele>1061</ele>
        <time>2020-09-05T06:03:44Z</time>
      </trkpt>
      <trkpt lat="45.06156" lon="6.04804">
        <ele>1061</ele>
        <time>2020-09-05T06:03:45Z</time>
      </trkpt>
      <trkpt lat="45.06155" lon="6.04806">
        <ele>1061.2</ele>
        <time>2020-09-05T06:03:46Z</time>
      </trkpt>
      <trkpt lat="45.06152" lon="6.04809">
        <ele>1061.8</ele>
        <time>2020-09-05T06:03:48Z</time>
      </trkpt>
      <trkpt lat="45.0615" lon="6.04812">
        <ele>1062</ele>
        <time>2020-09-05T06:03:49Z</time>
      </trkpt>
      <trkpt lat="45.06148" lon="6.04814">
        <ele>1062.4</ele>
        <time>2020-09-05T06:03:50Z</time>
      </trkpt>
      <trkpt lat="45.06145" lon="6.04816">
        <ele>1062.6</ele>
        <time>2020-09-05T06:03:51Z</time>
      </trkpt>
      <trkpt lat="45.06143" lon="6.04818">
        <ele>1062.8</ele>
        <time>2020-09-05T06:03:52Z</time>
      </trkpt>
      <trkpt lat="45.06141" lon="6.04819">
        <ele>1063.2</ele>
        <time>2020-09-05T06:03:53Z</time>
      </trkpt>
      <trkpt lat="45.06139" lon="6.04821">
        <ele>1063.2</ele>
        <time>2020-09-05T06:03:54Z</time>
      </trkpt>
      <trkpt lat="45.06137" lon="6.04823">
        <ele>1063.4</ele>
        <time>2020-09-05T06:03:55Z</time>
      </trkpt>
      <trkpt lat="45.06135" lon="6.04825">
        <ele>1063.6</ele>
        <time>2020-09-05T06:03:56Z</time>
      </trkpt>
      <trkpt lat="45.06133" lon="6.04827">
        <ele>1063.8</ele>
        <time>2020-09-05T06:03:57Z</time>
      </trkpt>
      <trkpt lat="45.06131" lon="6.04829">
        <ele>1064.4</ele>
        <time>2020-09-05T06:03:58Z</time>
      </trkpt>
      <trkpt lat="45.06129" lon="6.04832">
        <ele>1064.4</ele>
        <time>2020-09-05T06:03:59Z</time>
      </trkpt>
      <trkpt lat="45.06125" lon="6.04835">
        <ele>1064.8</ele>
        <time>2020-09-05T06:04:01Z</time>
      </trkpt>
      <trkpt lat="45.06118" lon="6.04845">
        <ele>1066</ele>
        <time>2020-09-05T06:04:05Z</time>
      </trkpt>
      <trkpt lat="45.06116" lon="6.0485">
        <ele>1066.4</ele>
        <time>2020-09-05T06:04:07Z</time>
      </trkpt>
      <trkpt lat="45.06113" lon="6.04856">
        <ele>1067.2</ele>
        <time>2020-09-05T06:04:09Z</time>
      </trkpt>
      <trkpt lat="45.0611" lon="6.04865">
        <ele>1067.8</ele>
        <time>2020-09-05T06:04:12Z</time>
      </trkpt>
      <trkpt lat="45.0611" lon="6.04868">
        <ele>1067.8</ele>
        <time>2020-09-05T06:04:13Z</time>
      </trkpt>
      <trkpt lat="45.06109" lon="6.04871">
        <ele>1068</ele>
        <time>2020-09-05T06:04:14Z</time>
      </trkpt>
      <trkpt lat="45.06108" lon="6.04873">
        <ele>1068.2</ele>
        <time>2020-09-05T06:04:15Z</time>
      </trkpt>
      <trkpt lat="45.06108" lon="6.04877">
        <ele>1068.6</ele>
        <time>2020-09-05T06:04:16Z</time>
      </trkpt>
      <trkpt lat="45.06107" lon="6.0488">
        <ele>1068.8</ele>
        <time>2020-09-05T06:04:17Z</time>
      </trkpt>
      <trkpt lat="45.06107" lon="6.04883">
        <ele>1069</ele>
        <time>2020-09-05T06:04:18Z</time>
      </trkpt>
      <trkpt lat="45.06106" lon="6.04886">
        <ele>1069.4</ele>
        <time>2020-09-05T06:04:19Z</time>
      </trkpt>
      <trkpt lat="45.06105" lon="6.04889">
        <ele>1069.6</ele>
        <time>2020-09-05T06:04:20Z</time>
      </trkpt>
      <trkpt lat="45.06105" lon="6.04893">
        <ele>1070</ele>
        <time>2020-09-05T06:04:21Z</time>
      </trkpt>
      <trkpt lat="45.06103" lon="6.04896">
        <ele>1070.2</ele>
        <time>2020-09-05T06:04:22Z</time>
      </trkpt>
      <trkpt lat="45.06103" lon="6.04899">
        <ele>1070.4</ele>
        <time>2020-09-05T06:04:23Z</time>
      </trkpt>
      <trkpt lat="45.06102" lon="6.04901">
        <ele>1070.6</ele>
        <time>2020-09-05T06:04:24Z</time>
      </trkpt>
      <trkpt lat="45.06101" lon="6.04904">
        <ele>1070.8</ele>
        <time>2020-09-05T06:04:25Z</time>
      </trkpt>
      <trkpt lat="45.061" lon="6.04907">
        <ele>1071</ele>
        <time>2020-09-05T06:04:26Z</time>
      </trkpt>
      <trkpt lat="45.06099" lon="6.0491">
        <ele>1071.2</ele>
        <time>2020-09-05T06:04:27Z</time>
      </trkpt>
      <trkpt lat="45.06098" lon="6.04913">
        <ele>1071.6</ele>
        <time>2020-09-05T06:04:28Z</time>
      </trkpt>
      <trkpt lat="45.06096" lon="6.04916">
        <ele>1071.8</ele>
        <time>2020-09-05T06:04:29Z</time>
      </trkpt>
      <trkpt lat="45.06095" lon="6.04919">
        <ele>1072</ele>
        <time>2020-09-05T06:04:30Z</time>
      </trkpt>
      <trkpt lat="45.06093" lon="6.04922">
        <ele>1072.4</ele>
        <time>2020-09-05T06:04:31Z</time>
      </trkpt>
      <trkpt lat="45.06091" lon="6.04925">
        <ele>1073</ele>
        <time>2020-09-05T06:04:32Z</time>
      </trkpt>
      <trkpt lat="45.0609" lon="6.04928">
        <ele>1073</ele>
        <time>2020-09-05T06:04:33Z</time>
      </trkpt>
      <trkpt lat="45.06088" lon="6.04931">
        <ele>1073.2</ele>
        <time>2020-09-05T06:04:34Z</time>
      </trkpt>
      <trkpt lat="45.06087" lon="6.04934">
        <ele>1073.6</ele>
        <time>2020-09-05T06:04:35Z</time>
      </trkpt>
      <trkpt lat="45.06085" lon="6.04937">
        <ele>1074.2</ele>
        <time>2020-09-05T06:04:36Z</time>
      </trkpt>
      <trkpt lat="45.06084" lon="6.04939">
        <ele>1074.4</ele>
        <time>2020-09-05T06:04:37Z</time>
      </trkpt>
      <trkpt lat="45.06082" lon="6.04942">
        <ele>1074.6</ele>
        <time>2020-09-05T06:04:38Z</time>
      </trkpt>
      <trkpt lat="45.06081" lon="6.04945">
        <ele>1075</ele>
        <time>2020-09-05T06:04:39Z</time>
      </trkpt>
      <trkpt lat="45.0608" lon="6.04947">
        <ele>1075</ele>
        <time>2020-09-05T06:04:40Z</time>
      </trkpt>
      <trkpt lat="45.06079" lon="6.04951">
        <ele>1075.6</ele>
        <time>2020-09-05T06:04:42Z</time>
      </trkpt>
      <trkpt lat="45.06076" lon="6.04956">
        <ele>1076</ele>
        <time>2020-09-05T06:04:44Z</time>
      </trkpt>
      <trkpt lat="45.06074" lon="6.04958">
        <ele>1076.2</ele>
        <time>2020-09-05T06:04:45Z</time>
      </trkpt>
      <trkpt lat="45.06072" lon="6.04961">
        <ele>1076.8</ele>
        <time>2020-09-05T06:04:46Z</time>
      </trkpt>
      <trkpt lat="45.06071" lon="6.04963">
        <ele>1077</ele>
        <time>2020-09-05T06:04:47Z</time>
      </trkpt>
      <trkpt lat="45.06069" lon="6.04965">
        <ele>1077.4</ele>
        <time>2020-09-05T06:04:48Z</time>
      </trkpt>
      <trkpt lat="45.06067" lon="6.04966">
        <ele>1077.6</ele>
        <time>2020-09-05T06:04:49Z</time>
      </trkpt>
      <trkpt lat="45.06065" lon="6.04967">
        <ele>1077.8</ele>
        <time>2020-09-05T06:04:50Z</time>
      </trkpt>
      <trkpt lat="45.06062" lon="6.04968">
        <ele>1078</ele>
        <time>2020-09-05T06:04:51Z</time>
      </trkpt>
      <trkpt lat="45.06059" lon="6.04969">
        <ele>1078.2</ele>
        <time>2020-09-05T06:04:52Z</time>
      </trkpt>
      <trkpt lat="45.06057" lon="6.04969">
        <ele>1078.6</ele>
        <time>2020-09-05T06:04:53Z</time>
      </trkpt>
      <trkpt lat="45.06054" lon="6.04969">
        <ele>1078.6</ele>
        <time>2020-09-05T06:04:54Z</time>
      </trkpt>
      <trkpt lat="45.06052" lon="6.0497">
        <ele>1078.8</ele>
        <time>2020-09-05T06:04:55Z</time>
      </trkpt>
      <trkpt lat="45.06046" lon="6.04971">
        <ele>1079.4</ele>
        <time>2020-09-05T06:04:58Z</time>
      </trkpt>
      <trkpt lat="45.06043" lon="6.04971">
        <ele>1079.6</ele>
        <time>2020-09-05T06:04:59Z</time>
      </trkpt>
      <trkpt lat="45.06042" lon="6.04971">
        <ele>1079.8</ele>
        <time>2020-09-05T06:05:00Z</time>
      </trkpt>
      <trkpt lat="45.06039" lon="6.0497">
        <ele>1080</ele>
        <time>2020-09-05T06:05:01Z</time>
      </trkpt>
      <trkpt lat="45.06037" lon="6.04969">
        <ele>1080.2</ele>
        <time>2020-09-05T06:05:02Z</time>
      </trkpt>
      <trkpt lat="45.06036" lon="6.04968">
        <ele>1080.6</ele>
        <time>2020-09-05T06:05:03Z</time>
      </trkpt>
      <trkpt lat="45.06033" lon="6.04968">
        <ele>1080.8</ele>
        <time>2020-09-05T06:05:04Z</time>
      </trkpt>
      <trkpt lat="45.06026" lon="6.04968">
        <ele>1081.8</ele>
        <time>2020-09-05T06:05:07Z</time>
      </trkpt>
      <trkpt lat="45.06024" lon="6.04968">
        <ele>1082</ele>
        <time>2020-09-05T06:05:08Z</time>
      </trkpt>
      <trkpt lat="45.06021" lon="6.04968">
        <ele>1082.2</ele>
        <time>2020-09-05T06:05:09Z</time>
      </trkpt>
      <trkpt lat="45.06017" lon="6.04968">
        <ele>1082.4</ele>
        <time>2020-09-05T06:05:11Z</time>
      </trkpt>
      <trkpt lat="45.06015" lon="6.04968">
        <ele>1082.6</ele>
        <time>2020-09-05T06:05:12Z</time>
      </trkpt>
      <trkpt lat="45.06012" lon="6.04967">
        <ele>1083</ele>
        <time>2020-09-05T06:05:13Z</time>
      </trkpt>
      <trkpt lat="45.0601" lon="6.04967">
        <ele>1083.4</ele>
        <time>2020-09-05T06:05:14Z</time>
      </trkpt>
      <trkpt lat="45.06008" lon="6.04966">
        <ele>1083.6</ele>
        <time>2020-09-05T06:05:15Z</time>
      </trkpt>
      <trkpt lat="45.06005" lon="6.04966">
        <ele>1083.8</ele>
        <time>2020-09-05T06:05:16Z</time>
      </trkpt>
      <trkpt lat="45.06003" lon="6.04966">
        <ele>1083.8</ele>
        <time>2020-09-05T06:05:17Z</time>
      </trkpt>
      <trkpt lat="45.06001" lon="6.04966">
        <ele>1084.2</ele>
        <time>2020-09-05T06:05:18Z</time>
      </trkpt>
      <trkpt lat="45.05999" lon="6.04966">
        <ele>1084.4</ele>
        <time>2020-09-05T06:05:19Z</time>
      </trkpt>
      <trkpt lat="45.05997" lon="6.04966">
        <ele>1084.6</ele>
        <time>2020-09-05T06:05:20Z</time>
      </trkpt>
      <trkpt lat="45.05995" lon="6.04966">
        <ele>1084.8</ele>
        <time>2020-09-05T06:05:21Z</time>
      </trkpt>
      <trkpt lat="45.05991" lon="6.04965">
        <ele>1085.4</ele>
        <time>2020-09-05T06:05:23Z</time>
      </trkpt>
      <trkpt lat="45.05989" lon="6.04965">
        <ele>1085.6</ele>
        <time>2020-09-05T06:05:24Z</time>
      </trkpt>
      <trkpt lat="45.05987" lon="6.04966">
        <ele>1085.8</ele>
        <time>2020-09-05T06:05:25Z</time>
      </trkpt>
      <trkpt lat="45.05984" lon="6.04966">
        <ele>1086</ele>
        <time>2020-09-05T06:05:26Z</time>
      </trkpt>
      <trkpt lat="45.05982" lon="6.04967">
        <ele>1086.2</ele>
        <time>2020-09-05T06:05:27Z</time>
      </trkpt>
      <trkpt lat="45.05979" lon="6.04967">
        <ele>1086.4</ele>
        <time>2020-09-05T06:05:28Z</time>
      </trkpt>
      <trkpt lat="45.05977" lon="6.04967">
        <ele>1086.6</ele>
        <time>2020-09-05T06:05:29Z</time>
      </trkpt>
      <trkpt lat="45.05974" lon="6.04968">
        <ele>1087</ele>
        <time>2020-09-05T06:05:30Z</time>
      </trkpt>
      <trkpt lat="45.05972" lon="6.04969">
        <ele>1087</ele>
        <time>2020-09-05T06:05:31Z</time>
      </trkpt>
      <trkpt lat="45.05969" lon="6.04969">
        <ele>1087.2</ele>
        <time>2020-09-05T06:05:32Z</time>
      </trkpt>
      <trkpt lat="45.05967" lon="6.04969">
        <ele>1087.4</ele>
        <time>2020-09-05T06:05:33Z</time>
      </trkpt>
      <trkpt lat="45.05965" lon="6.04969">
        <ele>1087.6</ele>
        <time>2020-09-05T06:05:34Z</time>
      </trkpt>
      <trkpt lat="45.05963" lon="6.0497">
        <ele>1088</ele>
        <time>2020-09-05T06:05:35Z</time>
      </trkpt>
      <trkpt lat="45.0596" lon="6.04971">
        <ele>1088.4</ele>
        <time>2020-09-05T06:05:36Z</time>
      </trkpt>
      <trkpt lat="45.05957" lon="6.04972">
        <ele>1088.8</ele>
        <time>2020-09-05T06:05:38Z</time>
      </trkpt>
      <trkpt lat="45.05955" lon="6.04973">
        <ele>1089.2</ele>
        <time>2020-09-05T06:05:40Z</time>
      </trkpt>
      <trkpt lat="45.05952" lon="6.04977">
        <ele>1089.6</ele>
        <time>2020-09-05T06:05:42Z</time>
      </trkpt>
      <trkpt lat="45.0595" lon="6.04979">
        <ele>1090</ele>
        <time>2020-09-05T06:05:43Z</time>
      </trkpt>
      <trkpt lat="45.05948" lon="6.04981">
        <ele>1090.2</ele>
        <time>2020-09-05T06:05:44Z</time>
      </trkpt>
      <trkpt lat="45.05945" lon="6.04984">
        <ele>1090.4</ele>
        <time>2020-09-05T06:05:45Z</time>
      </trkpt>
      <trkpt lat="45.05943" lon="6.04986">
        <ele>1090.6</ele>
        <time>2020-09-05T06:05:46Z</time>
      </trkpt>
      <trkpt lat="45.05941" lon="6.04988">
        <ele>1090.8</ele>
        <time>2020-09-05T06:05:47Z</time>
      </trkpt>
      <trkpt lat="45.05939" lon="6.04991">
        <ele>1090.8</ele>
        <time>2020-09-05T06:05:48Z</time>
      </trkpt>
      <trkpt lat="45.05938" lon="6.04994">
        <ele>1091.2</ele>
        <time>2020-09-05T06:05:49Z</time>
      </trkpt>
      <trkpt lat="45.05937" lon="6.04996">
        <ele>1091.4</ele>
        <time>2020-09-05T06:05:50Z</time>
      </trkpt>
      <trkpt lat="45.05936" lon="6.04999">
        <ele>1091.8</ele>
        <time>2020-09-05T06:05:51Z</time>
      </trkpt>
      <trkpt lat="45.05935" lon="6.05003">
        <ele>1092</ele>
        <time>2020-09-05T06:05:52Z</time>
      </trkpt>
      <trkpt lat="45.05934" lon="6.05006">
        <ele>1092.2</ele>
        <time>2020-09-05T06:05:53Z</time>
      </trkpt>
      <trkpt lat="45.05933" lon="6.05009">
        <ele>1092.6</ele>
        <time>2020-09-05T06:05:54Z</time>
      </trkpt>
      <trkpt lat="45.05932" lon="6.05015">
        <ele>1092.8</ele>
        <time>2020-09-05T06:05:56Z</time>
      </trkpt>
      <trkpt lat="45.05931" lon="6.05018">
        <ele>1093</ele>
        <time>2020-09-05T06:05:57Z</time>
      </trkpt>
      <trkpt lat="45.0593" lon="6.05021">
        <ele>1093.4</ele>
        <time>2020-09-05T06:05:58Z</time>
      </trkpt>
      <trkpt lat="45.0593" lon="6.05025">
        <ele>1093.6</ele>
        <time>2020-09-05T06:05:59Z</time>
      </trkpt>
      <trkpt lat="45.05929" lon="6.05028">
        <ele>1094</ele>
        <time>2020-09-05T06:06:00Z</time>
      </trkpt>
      <trkpt lat="45.05929" lon="6.05031">
        <ele>1094</ele>
        <time>2020-09-05T06:06:01Z</time>
      </trkpt>
      <trkpt lat="45.05929" lon="6.05034">
        <ele>1094.4</ele>
        <time>2020-09-05T06:06:02Z</time>
      </trkpt>
      <trkpt lat="45.05928" lon="6.05037">
        <ele>1094.4</ele>
        <time>2020-09-05T06:06:03Z</time>
      </trkpt>
      <trkpt lat="45.05928" lon="6.05041">
        <ele>1094.4</ele>
        <time>2020-09-05T06:06:04Z</time>
      </trkpt>
      <trkpt lat="45.05928" lon="6.05044">
        <ele>1094.8</ele>
        <time>2020-09-05T06:06:05Z</time>
      </trkpt>
      <trkpt lat="45.05928" lon="6.05047">
        <ele>1095.2</ele>
        <time>2020-09-05T06:06:06Z</time>
      </trkpt>
      <trkpt lat="45.05928" lon="6.0505">
        <ele>1095.2</ele>
        <time>2020-09-05T06:06:07Z</time>
      </trkpt>
      <trkpt lat="45.05927" lon="6.05053">
        <ele>1095.4</ele>
        <time>2020-09-05T06:06:08Z</time>
      </trkpt>
      <trkpt lat="45.05927" lon="6.05057">
        <ele>1095.6</ele>
        <time>2020-09-05T06:06:09Z</time>
      </trkpt>
      <trkpt lat="45.05927" lon="6.0506">
        <ele>1095.8</ele>
        <time>2020-09-05T06:06:10Z</time>
      </trkpt>
      <trkpt lat="45.05927" lon="6.05062">
        <ele>1095.8</ele>
        <time>2020-09-05T06:06:11Z</time>
      </trkpt>
      <trkpt lat="45.05928" lon="6.05065">
        <ele>1096.2</ele>
        <time>2020-09-05T06:06:12Z</time>
      </trkpt>
      <trkpt lat="45.05928" lon="6.05069">
        <ele>1096.6</ele>
        <time>2020-09-05T06:06:13Z</time>
      </trkpt>
      <trkpt lat="45.05928" lon="6.05072">
        <ele>1097</ele>
        <time>2020-09-05T06:06:14Z</time>
      </trkpt>
      <trkpt lat="45.05928" lon="6.05075">
        <ele>1097.4</ele>
        <time>2020-09-05T06:06:15Z</time>
      </trkpt>
      <trkpt lat="45.05928" lon="6.05078">
        <ele>1097.4</ele>
        <time>2020-09-05T06:06:16Z</time>
      </trkpt>
      <trkpt lat="45.05928" lon="6.05082">
        <ele>1097.4</ele>
        <time>2020-09-05T06:06:17Z</time>
      </trkpt>
      <trkpt lat="45.05929" lon="6.05085">
        <ele>1097.8</ele>
        <time>2020-09-05T06:06:18Z</time>
      </trkpt>
      <trkpt lat="45.05929" lon="6.05088">
        <ele>1098</ele>
        <time>2020-09-05T06:06:19Z</time>
      </trkpt>
      <trkpt lat="45.0593" lon="6.05091">
        <ele>1098.2</ele>
        <time>2020-09-05T06:06:20Z</time>
      </trkpt>
      <trkpt lat="45.0593" lon="6.05094">
        <ele>1098.4</ele>
        <time>2020-09-05T06:06:21Z</time>
      </trkpt>
      <trkpt lat="45.0593" lon="6.05098">
        <ele>1098.8</ele>
        <time>2020-09-05T06:06:22Z</time>
      </trkpt>
      <trkpt lat="45.05931" lon="6.05101">
        <ele>1099</ele>
        <time>2020-09-05T06:06:23Z</time>
      </trkpt>
      <trkpt lat="45.05931" lon="6.05104">
        <ele>1099.4</ele>
        <time>2020-09-05T06:06:24Z</time>
      </trkpt>
      <trkpt lat="45.05932" lon="6.05107">
        <ele>1099.8</ele>
        <time>2020-09-05T06:06:25Z</time>
      </trkpt>
      <trkpt lat="45.05932" lon="6.0511">
        <ele>1100.2</ele>
        <time>2020-09-05T06:06:26Z</time>
      </trkpt>
      <trkpt lat="45.05933" lon="6.05113">
        <ele>1100.2</ele>
        <time>2020-09-05T06:06:27Z</time>
      </trkpt>
      <trkpt lat="45.05934" lon="6.05117">
        <ele>1100.6</ele>
        <time>2020-09-05T06:06:28Z</time>
      </trkpt>
      <trkpt lat="45.05934" lon="6.0512">
        <ele>1100.8</ele>
        <time>2020-09-05T06:06:29Z</time>
      </trkpt>
      <trkpt lat="45.05935" lon="6.05123">
        <ele>1101</ele>
        <time>2020-09-05T06:06:30Z</time>
      </trkpt>
      <trkpt lat="45.05935" lon="6.05126">
        <ele>1101.4</ele>
        <time>2020-09-05T06:06:31Z</time>
      </trkpt>
      <trkpt lat="45.05936" lon="6.0513">
        <ele>1101.8</ele>
        <time>2020-09-05T06:06:32Z</time>
      </trkpt>
      <trkpt lat="45.05937" lon="6.05133">
        <ele>1101.8</ele>
        <time>2020-09-05T06:06:33Z</time>
      </trkpt>
      <trkpt lat="45.05937" lon="6.05136">
        <ele>1102.2</ele>
        <time>2020-09-05T06:06:34Z</time>
      </trkpt>
      <trkpt lat="45.05938" lon="6.05138">
        <ele>1102.4</ele>
        <time>2020-09-05T06:06:35Z</time>
      </trkpt>
      <trkpt lat="45.05939" lon="6.05141">
        <ele>1102.8</ele>
        <time>2020-09-05T06:06:36Z</time>
      </trkpt>
      <trkpt lat="45.0594" lon="6.05144">
        <ele>1103</ele>
        <time>2020-09-05T06:06:37Z</time>
      </trkpt>
      <trkpt lat="45.0594" lon="6.05147">
        <ele>1103</ele>
        <time>2020-09-05T06:06:38Z</time>
      </trkpt>
      <trkpt lat="45.0594" lon="6.0515">
        <ele>1103.2</ele>
        <time>2020-09-05T06:06:39Z</time>
      </trkpt>
      <trkpt lat="45.0594" lon="6.05152">
        <ele>1103.6</ele>
        <time>2020-09-05T06:06:40Z</time>
      </trkpt>
      <trkpt lat="45.05939" lon="6.05156">
        <ele>1104</ele>
        <time>2020-09-05T06:06:42Z</time>
      </trkpt>
      <trkpt lat="45.0593" lon="6.05161">
        <ele>1104.6</ele>
        <time>2020-09-05T06:06:47Z</time>
      </trkpt>
      <trkpt lat="45.05927" lon="6.05161">
        <ele>1105</ele>
        <time>2020-09-05T06:06:48Z</time>
      </trkpt>
      <trkpt lat="45.05916" lon="6.05161">
        <ele>1105.8</ele>
        <time>2020-09-05T06:06:53Z</time>
      </trkpt>
      <trkpt lat="45.05914" lon="6.0516">
        <ele>1106</ele>
        <time>2020-09-05T06:06:54Z</time>
      </trkpt>
      <trkpt lat="45.05911" lon="6.0516">
        <ele>1106.4</ele>
        <time>2020-09-05T06:06:55Z</time>
      </trkpt>
      <trkpt lat="45.05908" lon="6.0516">
        <ele>1106.8</ele>
        <time>2020-09-05T06:06:56Z</time>
      </trkpt>
      <trkpt lat="45.05903" lon="6.05161">
        <ele>1107.2</ele>
        <time>2020-09-05T06:06:58Z</time>
      </trkpt>
      <trkpt lat="45.05898" lon="6.05163">
        <ele>1107.4</ele>
        <time>2020-09-05T06:07:00Z</time>
      </trkpt>
      <trkpt lat="45.05896" lon="6.05163">
        <ele>1107.6</ele>
        <time>2020-09-05T06:07:01Z</time>
      </trkpt>
      <trkpt lat="45.05894" lon="6.05164">
        <ele>1107.8</ele>
        <time>2020-09-05T06:07:02Z</time>
      </trkpt>
      <trkpt lat="45.05892" lon="6.05164">
        <ele>1108</ele>
        <time>2020-09-05T06:07:03Z</time>
      </trkpt>
      <trkpt lat="45.0589" lon="6.05165">
        <ele>1108.2</ele>
        <time>2020-09-05T06:07:04Z</time>
      </trkpt>
      <trkpt lat="45.05888" lon="6.05165">
        <ele>1108.4</ele>
        <time>2020-09-05T06:07:05Z</time>
      </trkpt>
      <trkpt lat="45.05886" lon="6.05165">
        <ele>1108.8</ele>
        <time>2020-09-05T06:07:06Z</time>
      </trkpt>
      <trkpt lat="45.05884" lon="6.05165">
        <ele>1109</ele>
        <time>2020-09-05T06:07:07Z</time>
      </trkpt>
      <trkpt lat="45.05882" lon="6.05165">
        <ele>1109.2</ele>
        <time>2020-09-05T06:07:08Z</time>
      </trkpt>
      <trkpt lat="45.0588" lon="6.05165">
        <ele>1109.4</ele>
        <time>2020-09-05T06:07:09Z</time>
      </trkpt>
      <trkpt lat="45.05878" lon="6.05165">
        <ele>1109.8</ele>
        <time>2020-09-05T06:07:10Z</time>
      </trkpt>
      <trkpt lat="45.05875" lon="6.05165">
        <ele>1110.2</ele>
        <time>2020-09-05T06:07:11Z</time>
      </trkpt>
      <trkpt lat="45.05873" lon="6.05166">
        <ele>1110.2</ele>
        <time>2020-09-05T06:07:12Z</time>
      </trkpt>
      <trkpt lat="45.05871" lon="6.05166">
        <ele>1110.4</ele>
        <time>2020-09-05T06:07:13Z</time>
      </trkpt>
      <trkpt lat="45.05869" lon="6.05166">
        <ele>1110.6</ele>
        <time>2020-09-05T06:07:14Z</time>
      </trkpt>
      <trkpt lat="45.05866" lon="6.05166">
        <ele>1111.2</ele>
        <time>2020-09-05T06:07:15Z</time>
      </trkpt>
      <trkpt lat="45.05864" lon="6.05166">
        <ele>1111.2</ele>
        <time>2020-09-05T06:07:16Z</time>
      </trkpt>
      <trkpt lat="45.05862" lon="6.05166">
        <ele>1111.4</ele>
        <time>2020-09-05T06:07:17Z</time>
      </trkpt>
      <trkpt lat="45.0586" lon="6.05166">
        <ele>1111.8</ele>
        <time>2020-09-05T06:07:18Z</time>
      </trkpt>
      <trkpt lat="45.05858" lon="6.05166">
        <ele>1111.8</ele>
        <time>2020-09-05T06:07:19Z</time>
      </trkpt>
      <trkpt lat="45.05856" lon="6.05167">
        <ele>1112</ele>
        <time>2020-09-05T06:07:20Z</time>
      </trkpt>
      <trkpt lat="45.05853" lon="6.05167">
        <ele>1112.4</ele>
        <time>2020-09-05T06:07:21Z</time>
      </trkpt>
      <trkpt lat="45.05851" lon="6.05167">
        <ele>1112.6</ele>
        <time>2020-09-05T06:07:22Z</time>
      </trkpt>
      <trkpt lat="45.05844" lon="6.05168">
        <ele>1113.4</ele>
        <time>2020-09-05T06:07:25Z</time>
      </trkpt>
      <trkpt lat="45.05842" lon="6.05168">
        <ele>1113.4</ele>
        <time>2020-09-05T06:07:26Z</time>
      </trkpt>
      <trkpt lat="45.05839" lon="6.05169">
        <ele>1114</ele>
        <time>2020-09-05T06:07:27Z</time>
      </trkpt>
      <trkpt lat="45.05837" lon="6.05171">
        <ele>1114.2</ele>
        <time>2020-09-05T06:07:28Z</time>
      </trkpt>
      <trkpt lat="45.05835" lon="6.05172">
        <ele>1114.4</ele>
        <time>2020-09-05T06:07:29Z</time>
      </trkpt>
      <trkpt lat="45.05833" lon="6.05173">
        <ele>1114.6</ele>
        <time>2020-09-05T06:07:30Z</time>
      </trkpt>
      <trkpt lat="45.05831" lon="6.05175">
        <ele>1115</ele>
        <time>2020-09-05T06:07:31Z</time>
      </trkpt>
      <trkpt lat="45.05829" lon="6.05177">
        <ele>1115.2</ele>
        <time>2020-09-05T06:07:32Z</time>
      </trkpt>
      <trkpt lat="45.05827" lon="6.05179">
        <ele>1115.4</ele>
        <time>2020-09-05T06:07:33Z</time>
      </trkpt>
      <trkpt lat="45.05825" lon="6.05182">
        <ele>1115.8</ele>
        <time>2020-09-05T06:07:34Z</time>
      </trkpt>
      <trkpt lat="45.05823" lon="6.05184">
        <ele>1116.2</ele>
        <time>2020-09-05T06:07:35Z</time>
      </trkpt>
      <trkpt lat="45.05822" lon="6.05187">
        <ele>1116.4</ele>
        <time>2020-09-05T06:07:36Z</time>
      </trkpt>
      <trkpt lat="45.05821" lon="6.05191">
        <ele>1116.6</ele>
        <time>2020-09-05T06:07:37Z</time>
      </trkpt>
      <trkpt lat="45.0582" lon="6.05194">
        <ele>1116.8</ele>
        <time>2020-09-05T06:07:38Z</time>
      </trkpt>
      <trkpt lat="45.05818" lon="6.05197">
        <ele>1117</ele>
        <time>2020-09-05T06:07:39Z</time>
      </trkpt>
      <trkpt lat="45.05817" lon="6.052">
        <ele>1117.2</ele>
        <time>2020-09-05T06:07:40Z</time>
      </trkpt>
      <trkpt lat="45.05816" lon="6.05203">
        <ele>1117.6</ele>
        <time>2020-09-05T06:07:41Z</time>
      </trkpt>
      <trkpt lat="45.05815" lon="6.05206">
        <ele>1118</ele>
        <time>2020-09-05T06:07:42Z</time>
      </trkpt>
      <trkpt lat="45.05814" lon="6.05209">
        <ele>1118.2</ele>
        <time>2020-09-05T06:07:43Z</time>
      </trkpt>
      <trkpt lat="45.05813" lon="6.05212">
        <ele>1118.4</ele>
        <time>2020-09-05T06:07:44Z</time>
      </trkpt>
      <trkpt lat="45.05812" lon="6.05215">
        <ele>1118.8</ele>
        <time>2020-09-05T06:07:45Z</time>
      </trkpt>
      <trkpt lat="45.05811" lon="6.05218">
        <ele>1119</ele>
        <time>2020-09-05T06:07:46Z</time>
      </trkpt>
      <trkpt lat="45.0581" lon="6.0522">
        <ele>1119.4</ele>
        <time>2020-09-05T06:07:47Z</time>
      </trkpt>
      <trkpt lat="45.05809" lon="6.05223">
        <ele>1119.4</ele>
        <time>2020-09-05T06:07:48Z</time>
      </trkpt>
      <trkpt lat="45.05808" lon="6.05225">
        <ele>1119.8</ele>
        <time>2020-09-05T06:07:49Z</time>
      </trkpt>
      <trkpt lat="45.05807" lon="6.05228">
        <ele>1120</ele>
        <time>2020-09-05T06:07:50Z</time>
      </trkpt>
      <trkpt lat="45.05806" lon="6.0523">
        <ele>1120</ele>
        <time>2020-09-05T06:07:51Z</time>
      </trkpt>
      <trkpt lat="45.05805" lon="6.05233">
        <ele>1120.4</ele>
        <time>2020-09-05T06:07:52Z</time>
      </trkpt>
      <trkpt lat="45.05803" lon="6.05235">
        <ele>1120.6</ele>
        <time>2020-09-05T06:07:53Z</time>
      </trkpt>
      <trkpt lat="45.05802" lon="6.05237">
        <ele>1121</ele>
        <time>2020-09-05T06:07:54Z</time>
      </trkpt>
      <trkpt lat="45.058" lon="6.0524">
        <ele>1121.2</ele>
        <time>2020-09-05T06:07:55Z</time>
      </trkpt>
      <trkpt lat="45.05799" lon="6.05242">
        <ele>1121.4</ele>
        <time>2020-09-05T06:07:56Z</time>
      </trkpt>
      <trkpt lat="45.05798" lon="6.05245">
        <ele>1121.6</ele>
        <time>2020-09-05T06:07:57Z</time>
      </trkpt>
      <trkpt lat="45.05797" lon="6.05248">
        <ele>1121.8</ele>
        <time>2020-09-05T06:07:58Z</time>
      </trkpt>
      <trkpt lat="45.05796" lon="6.05251">
        <ele>1122.2</ele>
        <time>2020-09-05T06:07:59Z</time>
      </trkpt>
      <trkpt lat="45.05795" lon="6.05253">
        <ele>1122.2</ele>
        <time>2020-09-05T06:08:00Z</time>
      </trkpt>
      <trkpt lat="45.05795" lon="6.05256">
        <ele>1122.6</ele>
        <time>2020-09-05T06:08:01Z</time>
      </trkpt>
      <trkpt lat="45.05794" lon="6.05259">
        <ele>1122.6</ele>
        <time>2020-09-05T06:08:02Z</time>
      </trkpt>
      <trkpt lat="45.05792" lon="6.05262">
        <ele>1123</ele>
        <time>2020-09-05T06:08:03Z</time>
      </trkpt>
      <trkpt lat="45.05791" lon="6.05264">
        <ele>1123</ele>
        <time>2020-09-05T06:08:04Z</time>
      </trkpt>
      <trkpt lat="45.05791" lon="6.05267">
        <ele>1123</ele>
        <time>2020-09-05T06:08:05Z</time>
      </trkpt>
      <trkpt lat="45.05785" lon="6.05278">
        <ele>1123.8</ele>
        <time>2020-09-05T06:08:09Z</time>
      </trkpt>
      <trkpt lat="45.05774" lon="6.05275">
        <ele>1124.8</ele>
        <time>2020-09-05T06:08:14Z</time>
      </trkpt>
      <trkpt lat="45.05765" lon="6.05267">
        <ele>1125.8</ele>
        <time>2020-09-05T06:08:18Z</time>
      </trkpt>
      <trkpt lat="45.05757" lon="6.05257">
        <ele>1126.8</ele>
        <time>2020-09-05T06:08:23Z</time>
      </trkpt>
      <trkpt lat="45.05749" lon="6.05251">
        <ele>1127.8</ele>
        <time>2020-09-05T06:08:27Z</time>
      </trkpt>
      <trkpt lat="45.0574" lon="6.05243">
        <ele>1128.8</ele>
        <time>2020-09-05T06:08:32Z</time>
      </trkpt>
      <trkpt lat="45.0573" lon="6.05235">
        <ele>1130.2</ele>
        <time>2020-09-05T06:08:37Z</time>
      </trkpt>
      <trkpt lat="45.05722" lon="6.05229">
        <ele>1130.8</ele>
        <time>2020-09-05T06:08:41Z</time>
      </trkpt>
      <trkpt lat="45.0572" lon="6.05227">
        <ele>1131</ele>
        <time>2020-09-05T06:08:42Z</time>
      </trkpt>
      <trkpt lat="45.05715" lon="6.05225">
        <ele>1131.6</ele>
        <time>2020-09-05T06:08:44Z</time>
      </trkpt>
      <trkpt lat="45.05713" lon="6.05223">
        <ele>1131.8</ele>
        <time>2020-09-05T06:08:45Z</time>
      </trkpt>
      <trkpt lat="45.05711" lon="6.05222">
        <ele>1132.2</ele>
        <time>2020-09-05T06:08:46Z</time>
      </trkpt>
      <trkpt lat="45.05708" lon="6.05221">
        <ele>1132.4</ele>
        <time>2020-09-05T06:08:47Z</time>
      </trkpt>
      <trkpt lat="45.05706" lon="6.0522">
        <ele>1132.6</ele>
        <time>2020-09-05T06:08:48Z</time>
      </trkpt>
      <trkpt lat="45.05704" lon="6.05219">
        <ele>1133</ele>
        <time>2020-09-05T06:08:49Z</time>
      </trkpt>
      <trkpt lat="45.05701" lon="6.05218">
        <ele>1133</ele>
        <time>2020-09-05T06:08:50Z</time>
      </trkpt>
      <trkpt lat="45.05699" lon="6.05217">
        <ele>1133.2</ele>
        <time>2020-09-05T06:08:51Z</time>
      </trkpt>
      <trkpt lat="45.05697" lon="6.05216">
        <ele>1133.4</ele>
        <time>2020-09-05T06:08:52Z</time>
      </trkpt>
      <trkpt lat="45.05695" lon="6.05215">
        <ele>1134</ele>
        <time>2020-09-05T06:08:53Z</time>
      </trkpt>
      <trkpt lat="45.05693" lon="6.05214">
        <ele>1134.2</ele>
        <time>2020-09-05T06:08:54Z</time>
      </trkpt>
      <trkpt lat="45.05691" lon="6.05213">
        <ele>1134.2</ele>
        <time>2020-09-05T06:08:55Z</time>
      </trkpt>
      <trkpt lat="45.05689" lon="6.05212">
        <ele>1134.6</ele>
        <time>2020-09-05T06:08:56Z</time>
      </trkpt>
      <trkpt lat="45.05687" lon="6.0521">
        <ele>1134.8</ele>
        <time>2020-09-05T06:08:57Z</time>
      </trkpt>
      <trkpt lat="45.05685" lon="6.05209">
        <ele>1135</ele>
        <time>2020-09-05T06:08:58Z</time>
      </trkpt>
      <trkpt lat="45.05682" lon="6.05208">
        <ele>1135.2</ele>
        <time>2020-09-05T06:08:59Z</time>
      </trkpt>
      <trkpt lat="45.0568" lon="6.05207">
        <ele>1135.4</ele>
        <time>2020-09-05T06:09:00Z</time>
      </trkpt>
      <trkpt lat="45.05678" lon="6.05205">
        <ele>1135.6</ele>
        <time>2020-09-05T06:09:01Z</time>
      </trkpt>
      <trkpt lat="45.05676" lon="6.05204">
        <ele>1135.8</ele>
        <time>2020-09-05T06:09:02Z</time>
      </trkpt>
      <trkpt lat="45.05673" lon="6.05202">
        <ele>1136</ele>
        <time>2020-09-05T06:09:03Z</time>
      </trkpt>
      <trkpt lat="45.05671" lon="6.05201">
        <ele>1136.4</ele>
        <time>2020-09-05T06:09:04Z</time>
      </trkpt>
      <trkpt lat="45.05669" lon="6.05199">
        <ele>1136.8</ele>
        <time>2020-09-05T06:09:05Z</time>
      </trkpt>
      <trkpt lat="45.05667" lon="6.05198">
        <ele>1137</ele>
        <time>2020-09-05T06:09:06Z</time>
      </trkpt>
      <trkpt lat="45.05665" lon="6.05196">
        <ele>1137</ele>
        <time>2020-09-05T06:09:07Z</time>
      </trkpt>
      <trkpt lat="45.05663" lon="6.05195">
        <ele>1137.2</ele>
        <time>2020-09-05T06:09:08Z</time>
      </trkpt>
      <trkpt lat="45.05658" lon="6.05192">
        <ele>1137.8</ele>
        <time>2020-09-05T06:09:10Z</time>
      </trkpt>
      <trkpt lat="45.05656" lon="6.0519">
        <ele>1137.8</ele>
        <time>2020-09-05T06:09:11Z</time>
      </trkpt>
      <trkpt lat="45.05654" lon="6.05189">
        <ele>1138</ele>
        <time>2020-09-05T06:09:12Z</time>
      </trkpt>
      <trkpt lat="45.05651" lon="6.05187">
        <ele>1138.2</ele>
        <time>2020-09-05T06:09:13Z</time>
      </trkpt>
      <trkpt lat="45.05649" lon="6.05186">
        <ele>1138.4</ele>
        <time>2020-09-05T06:09:14Z</time>
      </trkpt>
      <trkpt lat="45.05647" lon="6.05185">
        <ele>1138.8</ele>
        <time>2020-09-05T06:09:15Z</time>
      </trkpt>
      <trkpt lat="45.05645" lon="6.05184">
        <ele>1139.2</ele>
        <time>2020-09-05T06:09:16Z</time>
      </trkpt>
      <trkpt lat="45.05642" lon="6.05184">
        <ele>1139.4</ele>
        <time>2020-09-05T06:09:17Z</time>
      </trkpt>
      <trkpt lat="45.0564" lon="6.05183">
        <ele>1139.6</ele>
        <time>2020-09-05T06:09:18Z</time>
      </trkpt>
      <trkpt lat="45.05638" lon="6.05182">
        <ele>1139.8</ele>
        <time>2020-09-05T06:09:19Z</time>
      </trkpt>
      <trkpt lat="45.05635" lon="6.05182">
        <ele>1140</ele>
        <time>2020-09-05T06:09:20Z</time>
      </trkpt>
      <trkpt lat="45.05633" lon="6.05182">
        <ele>1140.2</ele>
        <time>2020-09-05T06:09:21Z</time>
      </trkpt>
      <trkpt lat="45.05631" lon="6.05181">
        <ele>1140.4</ele>
        <time>2020-09-05T06:09:22Z</time>
      </trkpt>
      <trkpt lat="45.05628" lon="6.05181">
        <ele>1140.6</ele>
        <time>2020-09-05T06:09:23Z</time>
      </trkpt>
      <trkpt lat="45.05626" lon="6.0518">
        <ele>1141</ele>
        <time>2020-09-05T06:09:24Z</time>
      </trkpt>
      <trkpt lat="45.05623" lon="6.05179">
        <ele>1141</ele>
        <time>2020-09-05T06:09:25Z</time>
      </trkpt>
      <trkpt lat="45.05621" lon="6.05179">
        <ele>1141.2</ele>
        <time>2020-09-05T06:09:26Z</time>
      </trkpt>
      <trkpt lat="45.05619" lon="6.05179">
        <ele>1141.4</ele>
        <time>2020-09-05T06:09:27Z</time>
      </trkpt>
      <trkpt lat="45.05617" lon="6.05178">
        <ele>1141.8</ele>
        <time>2020-09-05T06:09:28Z</time>
      </trkpt>
      <trkpt lat="45.05614" lon="6.05178">
        <ele>1141.8</ele>
        <time>2020-09-05T06:09:29Z</time>
      </trkpt>
      <trkpt lat="45.05612" lon="6.05177">
        <ele>1142</ele>
        <time>2020-09-05T06:09:30Z</time>
      </trkpt>
      <trkpt lat="45.0561" lon="6.05177">
        <ele>1142.4</ele>
        <time>2020-09-05T06:09:31Z</time>
      </trkpt>
      <trkpt lat="45.05608" lon="6.05176">
        <ele>1142.6</ele>
        <time>2020-09-05T06:09:32Z</time>
      </trkpt>
      <trkpt lat="45.05605" lon="6.05176">
        <ele>1142.8</ele>
        <time>2020-09-05T06:09:33Z</time>
      </trkpt>
      <trkpt lat="45.05603" lon="6.05175">
        <ele>1143.2</ele>
        <time>2020-09-05T06:09:34Z</time>
      </trkpt>
      <trkpt lat="45.056" lon="6.05175">
        <ele>1143.4</ele>
        <time>2020-09-05T06:09:35Z</time>
      </trkpt>
      <trkpt lat="45.05598" lon="6.05174">
        <ele>1143.6</ele>
        <time>2020-09-05T06:09:36Z</time>
      </trkpt>
      <trkpt lat="45.05596" lon="6.05174">
        <ele>1143.8</ele>
        <time>2020-09-05T06:09:37Z</time>
      </trkpt>
      <trkpt lat="45.05593" lon="6.05174">
        <ele>1144</ele>
        <time>2020-09-05T06:09:38Z</time>
      </trkpt>
      <trkpt lat="45.05591" lon="6.05174">
        <ele>1144.2</ele>
        <time>2020-09-05T06:09:39Z</time>
      </trkpt>
      <trkpt lat="45.05588" lon="6.05174">
        <ele>1144.4</ele>
        <time>2020-09-05T06:09:40Z</time>
      </trkpt>
      <trkpt lat="45.05586" lon="6.05174">
        <ele>1144.4</ele>
        <time>2020-09-05T06:09:41Z</time>
      </trkpt>
      <trkpt lat="45.05584" lon="6.05174">
        <ele>1144.6</ele>
        <time>2020-09-05T06:09:42Z</time>
      </trkpt>
      <trkpt lat="45.05581" lon="6.05175">
        <ele>1144.8</ele>
        <time>2020-09-05T06:09:43Z</time>
      </trkpt>
      <trkpt lat="45.05579" lon="6.05175">
        <ele>1145</ele>
        <time>2020-09-05T06:09:44Z</time>
      </trkpt>
      <trkpt lat="45.05577" lon="6.05176">
        <ele>1145</ele>
        <time>2020-09-05T06:09:45Z</time>
      </trkpt>
      <trkpt lat="45.05575" lon="6.05177">
        <ele>1145.2</ele>
        <time>2020-09-05T06:09:46Z</time>
      </trkpt>
      <trkpt lat="45.05572" lon="6.05179">
        <ele>1145.4</ele>
        <time>2020-09-05T06:09:47Z</time>
      </trkpt>
      <trkpt lat="45.0557" lon="6.05181">
        <ele>1145.8</ele>
        <time>2020-09-05T06:09:48Z</time>
      </trkpt>
      <trkpt lat="45.05569" lon="6.05182">
        <ele>1146</ele>
        <time>2020-09-05T06:09:49Z</time>
      </trkpt>
      <trkpt lat="45.05567" lon="6.05185">
        <ele>1146.4</ele>
        <time>2020-09-05T06:09:50Z</time>
      </trkpt>
      <trkpt lat="45.05565" lon="6.05187">
        <ele>1146.4</ele>
        <time>2020-09-05T06:09:51Z</time>
      </trkpt>
      <trkpt lat="45.05564" lon="6.05189">
        <ele>1146.6</ele>
        <time>2020-09-05T06:09:52Z</time>
      </trkpt>
      <trkpt lat="45.05562" lon="6.05192">
        <ele>1146.8</ele>
        <time>2020-09-05T06:09:53Z</time>
      </trkpt>
      <trkpt lat="45.05561" lon="6.05195">
        <ele>1147</ele>
        <time>2020-09-05T06:09:54Z</time>
      </trkpt>
      <trkpt lat="45.05559" lon="6.05198">
        <ele>1147.4</ele>
        <time>2020-09-05T06:09:55Z</time>
      </trkpt>
      <trkpt lat="45.05558" lon="6.05201">
        <ele>1147.4</ele>
        <time>2020-09-05T06:09:56Z</time>
      </trkpt>
      <trkpt lat="45.05557" lon="6.05204">
        <ele>1147.4</ele>
        <time>2020-09-05T06:09:57Z</time>
      </trkpt>
      <trkpt lat="45.05555" lon="6.05207">
        <ele>1147.8</ele>
        <time>2020-09-05T06:09:58Z</time>
      </trkpt>
      <trkpt lat="45.05554" lon="6.0521">
        <ele>1148</ele>
        <time>2020-09-05T06:09:59Z</time>
      </trkpt>
      <trkpt lat="45.05553" lon="6.05213">
        <ele>1148.4</ele>
        <time>2020-09-05T06:10:00Z</time>
      </trkpt>
      <trkpt lat="45.05551" lon="6.05217">
        <ele>1148.6</ele>
        <time>2020-09-05T06:10:01Z</time>
      </trkpt>
      <trkpt lat="45.0555" lon="6.0522">
        <ele>1148.6</ele>
        <time>2020-09-05T06:10:02Z</time>
      </trkpt>
      <trkpt lat="45.05549" lon="6.05224">
        <ele>1149</ele>
        <time>2020-09-05T06:10:03Z</time>
      </trkpt>
      <trkpt lat="45.05548" lon="6.05227">
        <ele>1149</ele>
        <time>2020-09-05T06:10:04Z</time>
      </trkpt>
      <trkpt lat="45.05546" lon="6.05231">
        <ele>1149.4</ele>
        <time>2020-09-05T06:10:05Z</time>
      </trkpt>
      <trkpt lat="45.05545" lon="6.05234">
        <ele>1149.6</ele>
        <time>2020-09-05T06:10:06Z</time>
      </trkpt>
      <trkpt lat="45.05544" lon="6.05238">
        <ele>1149.8</ele>
        <time>2020-09-05T06:10:07Z</time>
      </trkpt>
      <trkpt lat="45.05543" lon="6.05241">
        <ele>1149.8</ele>
        <time>2020-09-05T06:10:08Z</time>
      </trkpt>
      <trkpt lat="45.05542" lon="6.05245">
        <ele>1150</ele>
        <time>2020-09-05T06:10:09Z</time>
      </trkpt>
      <trkpt lat="45.0554" lon="6.05248">
        <ele>1150.4</ele>
        <time>2020-09-05T06:10:10Z</time>
      </trkpt>
      <trkpt lat="45.05539" lon="6.05251">
        <ele>1150.6</ele>
        <time>2020-09-05T06:10:11Z</time>
      </trkpt>
      <trkpt lat="45.05538" lon="6.05255">
        <ele>1150.6</ele>
        <time>2020-09-05T06:10:12Z</time>
      </trkpt>
      <trkpt lat="45.05537" lon="6.05258">
        <ele>1150.8</ele>
        <time>2020-09-05T06:10:13Z</time>
      </trkpt>
      <trkpt lat="45.05536" lon="6.05261">
        <ele>1150.8</ele>
        <time>2020-09-05T06:10:14Z</time>
      </trkpt>
      <trkpt lat="45.05535" lon="6.05264">
        <ele>1150.8</ele>
        <time>2020-09-05T06:10:15Z</time>
      </trkpt>
      <trkpt lat="45.05534" lon="6.05267">
        <ele>1151</ele>
        <time>2020-09-05T06:10:16Z</time>
      </trkpt>
      <trkpt lat="45.05533" lon="6.0527">
        <ele>1151.2</ele>
        <time>2020-09-05T06:10:17Z</time>
      </trkpt>
      <trkpt lat="45.05532" lon="6.05273">
        <ele>1151.4</ele>
        <time>2020-09-05T06:10:18Z</time>
      </trkpt>
      <trkpt lat="45.0553" lon="6.05276">
        <ele>1151.6</ele>
        <time>2020-09-05T06:10:19Z</time>
      </trkpt>
      <trkpt lat="45.05529" lon="6.05279">
        <ele>1152</ele>
        <time>2020-09-05T06:10:20Z</time>
      </trkpt>
      <trkpt lat="45.05528" lon="6.05282">
        <ele>1152.2</ele>
        <time>2020-09-05T06:10:21Z</time>
      </trkpt>
      <trkpt lat="45.05527" lon="6.05285">
        <ele>1152.2</ele>
        <time>2020-09-05T06:10:22Z</time>
      </trkpt>
      <trkpt lat="45.05526" lon="6.05289">
        <ele>1152.2</ele>
        <time>2020-09-05T06:10:23Z</time>
      </trkpt>
      <trkpt lat="45.05525" lon="6.05292">
        <ele>1152.6</ele>
        <time>2020-09-05T06:10:24Z</time>
      </trkpt>
      <trkpt lat="45.05524" lon="6.05295">
        <ele>1152.8</ele>
        <time>2020-09-05T06:10:25Z</time>
      </trkpt>
      <trkpt lat="45.05522" lon="6.05298">
        <ele>1153</ele>
        <time>2020-09-05T06:10:26Z</time>
      </trkpt>
      <trkpt lat="45.05521" lon="6.05302">
        <ele>1153</ele>
        <time>2020-09-05T06:10:27Z</time>
      </trkpt>
      <trkpt lat="45.0552" lon="6.05305">
        <ele>1153.2</ele>
        <time>2020-09-05T06:10:28Z</time>
      </trkpt>
      <trkpt lat="45.05518" lon="6.05309">
        <ele>1153.4</ele>
        <time>2020-09-05T06:10:29Z</time>
      </trkpt>
      <trkpt lat="45.05517" lon="6.05312">
        <ele>1153.4</ele>
        <time>2020-09-05T06:10:30Z</time>
      </trkpt>
      <trkpt lat="45.05516" lon="6.05315">
        <ele>1153.8</ele>
        <time>2020-09-05T06:10:31Z</time>
      </trkpt>
      <trkpt lat="45.05514" lon="6.05319">
        <ele>1154</ele>
        <time>2020-09-05T06:10:32Z</time>
      </trkpt>
      <trkpt lat="45.05513" lon="6.05322">
        <ele>1154.2</ele>
        <time>2020-09-05T06:10:33Z</time>
      </trkpt>
      <trkpt lat="45.05511" lon="6.05325">
        <ele>1154.4</ele>
        <time>2020-09-05T06:10:34Z</time>
      </trkpt>
      <trkpt lat="45.0551" lon="6.05329">
        <ele>1154.6</ele>
        <time>2020-09-05T06:10:35Z</time>
      </trkpt>
      <trkpt lat="45.05508" lon="6.05332">
        <ele>1154.6</ele>
        <time>2020-09-05T06:10:36Z</time>
      </trkpt>
      <trkpt lat="45.05507" lon="6.05336">
        <ele>1155</ele>
        <time>2020-09-05T06:10:37Z</time>
      </trkpt>
      <trkpt lat="45.05506" lon="6.0534">
        <ele>1155</ele>
        <time>2020-09-05T06:10:38Z</time>
      </trkpt>
      <trkpt lat="45.05504" lon="6.05343">
        <ele>1155.2</ele>
        <time>2020-09-05T06:10:39Z</time>
      </trkpt>
      <trkpt lat="45.05503" lon="6.05346">
        <ele>1155.4</ele>
        <time>2020-09-05T06:10:40Z</time>
      </trkpt>
      <trkpt lat="45.05502" lon="6.0535">
        <ele>1155.6</ele>
        <time>2020-09-05T06:10:41Z</time>
      </trkpt>
      <trkpt lat="45.055" lon="6.05353">
        <ele>1155.8</ele>
        <time>2020-09-05T06:10:42Z</time>
      </trkpt>
      <trkpt lat="45.05499" lon="6.05357">
        <ele>1156</ele>
        <time>2020-09-05T06:10:43Z</time>
      </trkpt>
      <trkpt lat="45.05498" lon="6.0536">
        <ele>1156.2</ele>
        <time>2020-09-05T06:10:44Z</time>
      </trkpt>
      <trkpt lat="45.05496" lon="6.05364">
        <ele>1156.4</ele>
        <time>2020-09-05T06:10:45Z</time>
      </trkpt>
      <trkpt lat="45.05495" lon="6.05367">
        <ele>1156.6</ele>
        <time>2020-09-05T06:10:46Z</time>
      </trkpt>
      <trkpt lat="45.05494" lon="6.05371">
        <ele>1156.8</ele>
        <time>2020-09-05T06:10:47Z</time>
      </trkpt>
      <trkpt lat="45.05492" lon="6.05374">
        <ele>1157</ele>
        <time>2020-09-05T06:10:48Z</time>
      </trkpt>
      <trkpt lat="45.05491" lon="6.05377">
        <ele>1157</ele>
        <time>2020-09-05T06:10:49Z</time>
      </trkpt>
      <trkpt lat="45.0549" lon="6.05381">
        <ele>1157.4</ele>
        <time>2020-09-05T06:10:50Z</time>
      </trkpt>
      <trkpt lat="45.05488" lon="6.05385">
        <ele>1157.8</ele>
        <time>2020-09-05T06:10:51Z</time>
      </trkpt>
      <trkpt lat="45.05486" lon="6.05388">
        <ele>1158</ele>
        <time>2020-09-05T06:10:52Z</time>
      </trkpt>
      <trkpt lat="45.05485" lon="6.05391">
        <ele>1158</ele>
        <time>2020-09-05T06:10:53Z</time>
      </trkpt>
      <trkpt lat="45.05483" lon="6.05395">
        <ele>1158.2</ele>
        <time>2020-09-05T06:10:54Z</time>
      </trkpt>
      <trkpt lat="45.05481" lon="6.05399">
        <ele>1158.2</ele>
        <time>2020-09-05T06:10:55Z</time>
      </trkpt>
      <trkpt lat="45.0548" lon="6.05402">
        <ele>1158.6</ele>
        <time>2020-09-05T06:10:56Z</time>
      </trkpt>
      <trkpt lat="45.05479" lon="6.05406">
        <ele>1158.6</ele>
        <time>2020-09-05T06:10:57Z</time>
      </trkpt>
      <trkpt lat="45.05478" lon="6.0541">
        <ele>1158.8</ele>
        <time>2020-09-05T06:10:58Z</time>
      </trkpt>
      <trkpt lat="45.05477" lon="6.05413">
        <ele>1159.2</ele>
        <time>2020-09-05T06:10:59Z</time>
      </trkpt>
      <trkpt lat="45.05477" lon="6.05417">
        <ele>1159.4</ele>
        <time>2020-09-05T06:11:00Z</time>
      </trkpt>
      <trkpt lat="45.05477" lon="6.05422">
        <ele>1159.6</ele>
        <time>2020-09-05T06:11:01Z</time>
      </trkpt>
      <trkpt lat="45.05478" lon="6.05426">
        <ele>1159.8</ele>
        <time>2020-09-05T06:11:02Z</time>
      </trkpt>
      <trkpt lat="45.05478" lon="6.0543">
        <ele>1160</ele>
        <time>2020-09-05T06:11:03Z</time>
      </trkpt>
      <trkpt lat="45.05479" lon="6.05434">
        <ele>1160</ele>
        <time>2020-09-05T06:11:04Z</time>
      </trkpt>
      <trkpt lat="45.0548" lon="6.05438">
        <ele>1160.2</ele>
        <time>2020-09-05T06:11:05Z</time>
      </trkpt>
      <trkpt lat="45.05481" lon="6.05442">
        <ele>1160.4</ele>
        <time>2020-09-05T06:11:06Z</time>
      </trkpt>
      <trkpt lat="45.05482" lon="6.05446">
        <ele>1160.6</ele>
        <time>2020-09-05T06:11:07Z</time>
      </trkpt>
      <trkpt lat="45.05483" lon="6.0545">
        <ele>1160.6</ele>
        <time>2020-09-05T06:11:08Z</time>
      </trkpt>
      <trkpt lat="45.05484" lon="6.05454">
        <ele>1161</ele>
        <time>2020-09-05T06:11:09Z</time>
      </trkpt>
      <trkpt lat="45.05485" lon="6.05458">
        <ele>1161.2</ele>
        <time>2020-09-05T06:11:10Z</time>
      </trkpt>
      <trkpt lat="45.05486" lon="6.05462">
        <ele>1161.6</ele>
        <time>2020-09-05T06:11:11Z</time>
      </trkpt>
      <trkpt lat="45.05487" lon="6.05466">
        <ele>1161.6</ele>
        <time>2020-09-05T06:11:12Z</time>
      </trkpt>
      <trkpt lat="45.05487" lon="6.0547">
        <ele>1161.8</ele>
        <time>2020-09-05T06:11:13Z</time>
      </trkpt>
      <trkpt lat="45.05486" lon="6.05473">
        <ele>1161.8</ele>
        <time>2020-09-05T06:11:14Z</time>
      </trkpt>
      <trkpt lat="45.05484" lon="6.05477">
        <ele>1162</ele>
        <time>2020-09-05T06:11:15Z</time>
      </trkpt>
      <trkpt lat="45.05481" lon="6.0548">
        <ele>1162</ele>
        <time>2020-09-05T06:11:16Z</time>
      </trkpt>
      <trkpt lat="45.05479" lon="6.05484">
        <ele>1162.2</ele>
        <time>2020-09-05T06:11:17Z</time>
      </trkpt>
      <trkpt lat="45.05476" lon="6.05487">
        <ele>1162.2</ele>
        <time>2020-09-05T06:11:18Z</time>
      </trkpt>
      <trkpt lat="45.05473" lon="6.05489">
        <ele>1162.4</ele>
        <time>2020-09-05T06:11:19Z</time>
      </trkpt>
      <trkpt lat="45.0547" lon="6.0549">
        <ele>1162.4</ele>
        <time>2020-09-05T06:11:20Z</time>
      </trkpt>
      <trkpt lat="45.05467" lon="6.0549">
        <ele>1162.8</ele>
        <time>2020-09-05T06:11:21Z</time>
      </trkpt>
      <trkpt lat="45.05463" lon="6.05488">
        <ele>1163</ele>
        <time>2020-09-05T06:11:22Z</time>
      </trkpt>
      <trkpt lat="45.05461" lon="6.05487">
        <ele>1163</ele>
        <time>2020-09-05T06:11:23Z</time>
      </trkpt>
      <trkpt lat="45.05457" lon="6.05484">
        <ele>1163.2</ele>
        <time>2020-09-05T06:11:24Z</time>
      </trkpt>
      <trkpt lat="45.05454" lon="6.05483">
        <ele>1163.4</ele>
        <time>2020-09-05T06:11:25Z</time>
      </trkpt>
      <trkpt lat="45.05451" lon="6.05482">
        <ele>1163.6</ele>
        <time>2020-09-05T06:11:26Z</time>
      </trkpt>
      <trkpt lat="45.05447" lon="6.05482">
        <ele>1163.6</ele>
        <time>2020-09-05T06:11:27Z</time>
      </trkpt>
      <trkpt lat="45.05444" lon="6.05483">
        <ele>1163.6</ele>
        <time>2020-09-05T06:11:28Z</time>
      </trkpt>
      <trkpt lat="45.0544" lon="6.05486">
        <ele>1163.8</ele>
        <time>2020-09-05T06:11:29Z</time>
      </trkpt>
      <trkpt lat="45.05437" lon="6.05488">
        <ele>1163.8</ele>
        <time>2020-09-05T06:11:30Z</time>
      </trkpt>
      <trkpt lat="45.05434" lon="6.05491">
        <ele>1164.2</ele>
        <time>2020-09-05T06:11:31Z</time>
      </trkpt>
      <trkpt lat="45.05432" lon="6.05495">
        <ele>1164.4</ele>
        <time>2020-09-05T06:11:32Z</time>
      </trkpt>
      <trkpt lat="45.05429" lon="6.05498">
        <ele>1164.6</ele>
        <time>2020-09-05T06:11:33Z</time>
      </trkpt>
      <trkpt lat="45.05427" lon="6.05501">
        <ele>1165</ele>
        <time>2020-09-05T06:11:34Z</time>
      </trkpt>
      <trkpt lat="45.05425" lon="6.05504">
        <ele>1165.2</ele>
        <time>2020-09-05T06:11:35Z</time>
      </trkpt>
      <trkpt lat="45.05424" lon="6.05508">
        <ele>1165.4</ele>
        <time>2020-09-05T06:11:36Z</time>
      </trkpt>
      <trkpt lat="45.05422" lon="6.05511">
        <ele>1165.6</ele>
        <time>2020-09-05T06:11:37Z</time>
      </trkpt>
      <trkpt lat="45.0542" lon="6.05515">
        <ele>1166</ele>
        <time>2020-09-05T06:11:38Z</time>
      </trkpt>
      <trkpt lat="45.05418" lon="6.05518">
        <ele>1166.4</ele>
        <time>2020-09-05T06:11:39Z</time>
      </trkpt>
      <trkpt lat="45.05417" lon="6.05522">
        <ele>1166.4</ele>
        <time>2020-09-05T06:11:40Z</time>
      </trkpt>
      <trkpt lat="45.05415" lon="6.05525">
        <ele>1166.4</ele>
        <time>2020-09-05T06:11:41Z</time>
      </trkpt>
      <trkpt lat="45.05413" lon="6.05529">
        <ele>1166.8</ele>
        <time>2020-09-05T06:11:42Z</time>
      </trkpt>
      <trkpt lat="45.05411" lon="6.05532">
        <ele>1167</ele>
        <time>2020-09-05T06:11:43Z</time>
      </trkpt>
      <trkpt lat="45.05409" lon="6.05536">
        <ele>1167.2</ele>
        <time>2020-09-05T06:11:44Z</time>
      </trkpt>
      <trkpt lat="45.05407" lon="6.0554">
        <ele>1167.2</ele>
        <time>2020-09-05T06:11:45Z</time>
      </trkpt>
      <trkpt lat="45.05406" lon="6.05544">
        <ele>1167.6</ele>
        <time>2020-09-05T06:11:46Z</time>
      </trkpt>
      <trkpt lat="45.05404" lon="6.05547">
        <ele>1167.8</ele>
        <time>2020-09-05T06:11:47Z</time>
      </trkpt>
      <trkpt lat="45.05402" lon="6.05551">
        <ele>1168.2</ele>
        <time>2020-09-05T06:11:48Z</time>
      </trkpt>
      <trkpt lat="45.054" lon="6.05554">
        <ele>1168.2</ele>
        <time>2020-09-05T06:11:49Z</time>
      </trkpt>
      <trkpt lat="45.05399" lon="6.05558">
        <ele>1168.6</ele>
        <time>2020-09-05T06:11:50Z</time>
      </trkpt>
      <trkpt lat="45.05397" lon="6.05561">
        <ele>1168.6</ele>
        <time>2020-09-05T06:11:51Z</time>
      </trkpt>
      <trkpt lat="45.05395" lon="6.05565">
        <ele>1168.8</ele>
        <time>2020-09-05T06:11:52Z</time>
      </trkpt>
      <trkpt lat="45.05393" lon="6.05568">
        <ele>1169</ele>
        <time>2020-09-05T06:11:53Z</time>
      </trkpt>
      <trkpt lat="45.05391" lon="6.05571">
        <ele>1169.2</ele>
        <time>2020-09-05T06:11:54Z</time>
      </trkpt>
      <trkpt lat="45.05389" lon="6.05574">
        <ele>1169.4</ele>
        <time>2020-09-05T06:11:55Z</time>
      </trkpt>
      <trkpt lat="45.05388" lon="6.05578">
        <ele>1169.6</ele>
        <time>2020-09-05T06:11:56Z</time>
      </trkpt>
      <trkpt lat="45.05386" lon="6.05581">
        <ele>1169.8</ele>
        <time>2020-09-05T06:11:57Z</time>
      </trkpt>
      <trkpt lat="45.05383" lon="6.05585">
        <ele>1170.2</ele>
        <time>2020-09-05T06:11:58Z</time>
      </trkpt>
      <trkpt lat="45.05381" lon="6.05588">
        <ele>1170.4</ele>
        <time>2020-09-05T06:11:59Z</time>
      </trkpt>
      <trkpt lat="45.05378" lon="6.05591">
        <ele>1170.8</ele>
        <time>2020-09-05T06:12:00Z</time>
      </trkpt>
      <trkpt lat="45.05376" lon="6.05593">
        <ele>1171</ele>
        <time>2020-09-05T06:12:01Z</time>
      </trkpt>
      <trkpt lat="45.05374" lon="6.05596">
        <ele>1171</ele>
        <time>2020-09-05T06:12:02Z</time>
      </trkpt>
      <trkpt lat="45.05371" lon="6.05599">
        <ele>1171.2</ele>
        <time>2020-09-05T06:12:03Z</time>
      </trkpt>
      <trkpt lat="45.05369" lon="6.05601">
        <ele>1171.2</ele>
        <time>2020-09-05T06:12:04Z</time>
      </trkpt>
      <trkpt lat="45.05362" lon="6.05609">
        <ele>1172.2</ele>
        <time>2020-09-05T06:12:07Z</time>
      </trkpt>
      <trkpt lat="45.0536" lon="6.05611">
        <ele>1172.4</ele>
        <time>2020-09-05T06:12:08Z</time>
      </trkpt>
      <trkpt lat="45.05358" lon="6.05614">
        <ele>1172.6</ele>
        <time>2020-09-05T06:12:09Z</time>
      </trkpt>
      <trkpt lat="45.05356" lon="6.05616">
        <ele>1172.8</ele>
        <time>2020-09-05T06:12:10Z</time>
      </trkpt>
      <trkpt lat="45.05354" lon="6.05619">
        <ele>1173</ele>
        <time>2020-09-05T06:12:11Z</time>
      </trkpt>
      <trkpt lat="45.05352" lon="6.05621">
        <ele>1173.4</ele>
        <time>2020-09-05T06:12:12Z</time>
      </trkpt>
      <trkpt lat="45.0535" lon="6.05623">
        <ele>1173.4</ele>
        <time>2020-09-05T06:12:13Z</time>
      </trkpt>
      <trkpt lat="45.05348" lon="6.05626">
        <ele>1173.6</ele>
        <time>2020-09-05T06:12:14Z</time>
      </trkpt>
      <trkpt lat="45.05346" lon="6.05628">
        <ele>1173.8</ele>
        <time>2020-09-05T06:12:15Z</time>
      </trkpt>
      <trkpt lat="45.05344" lon="6.0563">
        <ele>1174.2</ele>
        <time>2020-09-05T06:12:16Z</time>
      </trkpt>
      <trkpt lat="45.05342" lon="6.05632">
        <ele>1174.4</ele>
        <time>2020-09-05T06:12:17Z</time>
      </trkpt>
      <trkpt lat="45.0534" lon="6.05634">
        <ele>1174.6</ele>
        <time>2020-09-05T06:12:18Z</time>
      </trkpt>
      <trkpt lat="45.05338" lon="6.05636">
        <ele>1174.8</ele>
        <time>2020-09-05T06:12:19Z</time>
      </trkpt>
      <trkpt lat="45.05337" lon="6.05638">
        <ele>1175</ele>
        <time>2020-09-05T06:12:20Z</time>
      </trkpt>
      <trkpt lat="45.05335" lon="6.0564">
        <ele>1175.4</ele>
        <time>2020-09-05T06:12:21Z</time>
      </trkpt>
      <trkpt lat="45.05333" lon="6.05642">
        <ele>1175.6</ele>
        <time>2020-09-05T06:12:22Z</time>
      </trkpt>
      <trkpt lat="45.0533" lon="6.05644">
        <ele>1176</ele>
        <time>2020-09-05T06:12:23Z</time>
      </trkpt>
      <trkpt lat="45.05328" lon="6.05646">
        <ele>1176.2</ele>
        <time>2020-09-05T06:12:24Z</time>
      </trkpt>
      <trkpt lat="45.05326" lon="6.05648">
        <ele>1176.4</ele>
        <time>2020-09-05T06:12:25Z</time>
      </trkpt>
      <trkpt lat="45.05324" lon="6.0565">
        <ele>1176.6</ele>
        <time>2020-09-05T06:12:26Z</time>
      </trkpt>
      <trkpt lat="45.05322" lon="6.05651">
        <ele>1176.8</ele>
        <time>2020-09-05T06:12:27Z</time>
      </trkpt>
      <trkpt lat="45.0532" lon="6.05653">
        <ele>1177</ele>
        <time>2020-09-05T06:12:28Z</time>
      </trkpt>
      <trkpt lat="45.05318" lon="6.05655">
        <ele>1177.2</ele>
        <time>2020-09-05T06:12:29Z</time>
      </trkpt>
      <trkpt lat="45.05316" lon="6.05657">
        <ele>1177.4</ele>
        <time>2020-09-05T06:12:30Z</time>
      </trkpt>
      <trkpt lat="45.05314" lon="6.05659">
        <ele>1177.6</ele>
        <time>2020-09-05T06:12:31Z</time>
      </trkpt>
      <trkpt lat="45.05312" lon="6.05661">
        <ele>1178</ele>
        <time>2020-09-05T06:12:32Z</time>
      </trkpt>
      <trkpt lat="45.0531" lon="6.05663">
        <ele>1178.4</ele>
        <time>2020-09-05T06:12:33Z</time>
      </trkpt>
      <trkpt lat="45.05308" lon="6.05665">
        <ele>1178.6</ele>
        <time>2020-09-05T06:12:34Z</time>
      </trkpt>
      <trkpt lat="45.05306" lon="6.05667">
        <ele>1178.8</ele>
        <time>2020-09-05T06:12:35Z</time>
      </trkpt>
      <trkpt lat="45.05305" lon="6.05669">
        <ele>1179</ele>
        <time>2020-09-05T06:12:36Z</time>
      </trkpt>
      <trkpt lat="45.05303" lon="6.05671">
        <ele>1179.2</ele>
        <time>2020-09-05T06:12:37Z</time>
      </trkpt>
      <trkpt lat="45.05302" lon="6.05674">
        <ele>1179.4</ele>
        <time>2020-09-05T06:12:38Z</time>
      </trkpt>
      <trkpt lat="45.053" lon="6.05676">
        <ele>1179.8</ele>
        <time>2020-09-05T06:12:39Z</time>
      </trkpt>
      <trkpt lat="45.05299" lon="6.05678">
        <ele>1180</ele>
        <time>2020-09-05T06:12:40Z</time>
      </trkpt>
      <trkpt lat="45.05297" lon="6.0568">
        <ele>1180</ele>
        <time>2020-09-05T06:12:41Z</time>
      </trkpt>
      <trkpt lat="45.05296" lon="6.05683">
        <ele>1180.4</ele>
        <time>2020-09-05T06:12:42Z</time>
      </trkpt>
      <trkpt lat="45.05294" lon="6.05685">
        <ele>1180.6</ele>
        <time>2020-09-05T06:12:43Z</time>
      </trkpt>
      <trkpt lat="45.05293" lon="6.05688">
        <ele>1180.8</ele>
        <time>2020-09-05T06:12:44Z</time>
      </trkpt>
      <trkpt lat="45.05291" lon="6.0569">
        <ele>1181.2</ele>
        <time>2020-09-05T06:12:45Z</time>
      </trkpt>
      <trkpt lat="45.0529" lon="6.05693">
        <ele>1181.2</ele>
        <time>2020-09-05T06:12:46Z</time>
      </trkpt>
      <trkpt lat="45.05288" lon="6.05695">
        <ele>1181.4</ele>
        <time>2020-09-05T06:12:47Z</time>
      </trkpt>
      <trkpt lat="45.05287" lon="6.05697">
        <ele>1181.6</ele>
        <time>2020-09-05T06:12:48Z</time>
      </trkpt>
      <trkpt lat="45.05285" lon="6.05699">
        <ele>1181.8</ele>
        <time>2020-09-05T06:12:49Z</time>
      </trkpt>
      <trkpt lat="45.05284" lon="6.05702">
        <ele>1182</ele>
        <time>2020-09-05T06:12:50Z</time>
      </trkpt>
      <trkpt lat="45.05282" lon="6.05704">
        <ele>1182</ele>
        <time>2020-09-05T06:12:51Z</time>
      </trkpt>
      <trkpt lat="45.0528" lon="6.05707">
        <ele>1182.2</ele>
        <time>2020-09-05T06:12:52Z</time>
      </trkpt>
      <trkpt lat="45.05278" lon="6.05709">
        <ele>1182.6</ele>
        <time>2020-09-05T06:12:53Z</time>
      </trkpt>
      <trkpt lat="45.05277" lon="6.05711">
        <ele>1182.8</ele>
        <time>2020-09-05T06:12:54Z</time>
      </trkpt>
      <trkpt lat="45.05275" lon="6.05714">
        <ele>1183</ele>
        <time>2020-09-05T06:12:55Z</time>
      </trkpt>
      <trkpt lat="45.05273" lon="6.05716">
        <ele>1183.2</ele>
        <time>2020-09-05T06:12:56Z</time>
      </trkpt>
      <trkpt lat="45.05271" lon="6.05718">
        <ele>1183.2</ele>
        <time>2020-09-05T06:12:57Z</time>
      </trkpt>
      <trkpt lat="45.0527" lon="6.05721">
        <ele>1183.6</ele>
        <time>2020-09-05T06:12:58Z</time>
      </trkpt>
      <trkpt lat="45.05268" lon="6.05723">
        <ele>1183.8</ele>
        <time>2020-09-05T06:12:59Z</time>
      </trkpt>
      <trkpt lat="45.05267" lon="6.05726">
        <ele>1184</ele>
        <time>2020-09-05T06:13:00Z</time>
      </trkpt>
      <trkpt lat="45.05266" lon="6.05729">
        <ele>1184.4</ele>
        <time>2020-09-05T06:13:01Z</time>
      </trkpt>
      <trkpt lat="45.05265" lon="6.05732">
        <ele>1184.6</ele>
        <time>2020-09-05T06:13:02Z</time>
      </trkpt>
      <trkpt lat="45.05264" lon="6.05736">
        <ele>1185</ele>
        <time>2020-09-05T06:13:03Z</time>
      </trkpt>
      <trkpt lat="45.05264" lon="6.05739">
        <ele>1185.2</ele>
        <time>2020-09-05T06:13:04Z</time>
      </trkpt>
      <trkpt lat="45.05263" lon="6.05743">
        <ele>1185.4</ele>
        <time>2020-09-05T06:13:05Z</time>
      </trkpt>
      <trkpt lat="45.05263" lon="6.05746">
        <ele>1185.6</ele>
        <time>2020-09-05T06:13:06Z</time>
      </trkpt>
      <trkpt lat="45.05263" lon="6.05749">
        <ele>1185.6</ele>
        <time>2020-09-05T06:13:07Z</time>
      </trkpt>
      <trkpt lat="45.05262" lon="6.05752">
        <ele>1185.8</ele>
        <time>2020-09-05T06:13:08Z</time>
      </trkpt>
      <trkpt lat="45.05262" lon="6.05756">
        <ele>1186</ele>
        <time>2020-09-05T06:13:09Z</time>
      </trkpt>
      <trkpt lat="45.05262" lon="6.05759">
        <ele>1186.2</ele>
        <time>2020-09-05T06:13:10Z</time>
      </trkpt>
      <trkpt lat="45.05262" lon="6.05762">
        <ele>1186.4</ele>
        <time>2020-09-05T06:13:11Z</time>
      </trkpt>
      <trkpt lat="45.05261" lon="6.05765">
        <ele>1186.6</ele>
        <time>2020-09-05T06:13:12Z</time>
      </trkpt>
      <trkpt lat="45.05261" lon="6.05768">
        <ele>1186.8</ele>
        <time>2020-09-05T06:13:13Z</time>
      </trkpt>
      <trkpt lat="45.0526" lon="6.05771">
        <ele>1187</ele>
        <time>2020-09-05T06:13:14Z</time>
      </trkpt>
      <trkpt lat="45.05259" lon="6.05773">
        <ele>1187.2</ele>
        <time>2020-09-05T06:13:15Z</time>
      </trkpt>
      <trkpt lat="45.05257" lon="6.05776">
        <ele>1187.2</ele>
        <time>2020-09-05T06:13:16Z</time>
      </trkpt>
      <trkpt lat="45.05256" lon="6.05778">
        <ele>1187.6</ele>
        <time>2020-09-05T06:13:17Z</time>
      </trkpt>
      <trkpt lat="45.05254" lon="6.0578">
        <ele>1187.8</ele>
        <time>2020-09-05T06:13:18Z</time>
      </trkpt>
      <trkpt lat="45.05252" lon="6.05782">
        <ele>1188</ele>
        <time>2020-09-05T06:13:19Z</time>
      </trkpt>
      <trkpt lat="45.0525" lon="6.05783">
        <ele>1188.2</ele>
        <time>2020-09-05T06:13:20Z</time>
      </trkpt>
      <trkpt lat="45.05247" lon="6.05785">
        <ele>1188.6</ele>
        <time>2020-09-05T06:13:21Z</time>
      </trkpt>
      <trkpt lat="45.05245" lon="6.05787">
        <ele>1188.8</ele>
        <time>2020-09-05T06:13:22Z</time>
      </trkpt>
      <trkpt lat="45.05243" lon="6.05788">
        <ele>1189</ele>
        <time>2020-09-05T06:13:23Z</time>
      </trkpt>
      <trkpt lat="45.05241" lon="6.05789">
        <ele>1189.4</ele>
        <time>2020-09-05T06:13:24Z</time>
      </trkpt>
      <trkpt lat="45.05239" lon="6.05791">
        <ele>1189.6</ele>
        <time>2020-09-05T06:13:25Z</time>
      </trkpt>
      <trkpt lat="45.05237" lon="6.05792">
        <ele>1190</ele>
        <time>2020-09-05T06:13:26Z</time>
      </trkpt>
      <trkpt lat="45.05235" lon="6.05794">
        <ele>1190</ele>
        <time>2020-09-05T06:13:27Z</time>
      </trkpt>
      <trkpt lat="45.05232" lon="6.05796">
        <ele>1190.2</ele>
        <time>2020-09-05T06:13:28Z</time>
      </trkpt>
      <trkpt lat="45.0523" lon="6.05799">
        <ele>1190.4</ele>
        <time>2020-09-05T06:13:29Z</time>
      </trkpt>
      <trkpt lat="45.05229" lon="6.05801">
        <ele>1190.6</ele>
        <time>2020-09-05T06:13:30Z</time>
      </trkpt>
      <trkpt lat="45.05227" lon="6.05804">
        <ele>1190.8</ele>
        <time>2020-09-05T06:13:31Z</time>
      </trkpt>
      <trkpt lat="45.05226" lon="6.05807">
        <ele>1191</ele>
        <time>2020-09-05T06:13:32Z</time>
      </trkpt>
      <trkpt lat="45.05224" lon="6.0581">
        <ele>1191.2</ele>
        <time>2020-09-05T06:13:33Z</time>
      </trkpt>
      <trkpt lat="45.05223" lon="6.05813">
        <ele>1191.4</ele>
        <time>2020-09-05T06:13:34Z</time>
      </trkpt>
      <trkpt lat="45.05222" lon="6.05816">
        <ele>1191.4</ele>
        <time>2020-09-05T06:13:35Z</time>
      </trkpt>
      <trkpt lat="45.0522" lon="6.05819">
        <ele>1191.8</ele>
        <time>2020-09-05T06:13:36Z</time>
      </trkpt>
      <trkpt lat="45.05219" lon="6.05822">
        <ele>1192</ele>
        <time>2020-09-05T06:13:37Z</time>
      </trkpt>
      <trkpt lat="45.05218" lon="6.05825">
        <ele>1192</ele>
        <time>2020-09-05T06:13:38Z</time>
      </trkpt>
      <trkpt lat="45.05217" lon="6.05828">
        <ele>1192.2</ele>
        <time>2020-09-05T06:13:39Z</time>
      </trkpt>
      <trkpt lat="45.05216" lon="6.05831">
        <ele>1192.4</ele>
        <time>2020-09-05T06:13:40Z</time>
      </trkpt>
      <trkpt lat="45.05215" lon="6.05834">
        <ele>1192.6</ele>
        <time>2020-09-05T06:13:41Z</time>
      </trkpt>
      <trkpt lat="45.05214" lon="6.05837">
        <ele>1193</ele>
        <time>2020-09-05T06:13:42Z</time>
      </trkpt>
      <trkpt lat="45.05213" lon="6.0584">
        <ele>1193.6</ele>
        <time>2020-09-05T06:13:43Z</time>
      </trkpt>
      <trkpt lat="45.05211" lon="6.05843">
        <ele>1193.6</ele>
        <time>2020-09-05T06:13:44Z</time>
      </trkpt>
      <trkpt lat="45.0521" lon="6.05846">
        <ele>1193.8</ele>
        <time>2020-09-05T06:13:45Z</time>
      </trkpt>
      <trkpt lat="45.05209" lon="6.05849">
        <ele>1194.2</ele>
        <time>2020-09-05T06:13:46Z</time>
      </trkpt>
      <trkpt lat="45.05208" lon="6.05853">
        <ele>1194.2</ele>
        <time>2020-09-05T06:13:47Z</time>
      </trkpt>
      <trkpt lat="45.05207" lon="6.05856">
        <ele>1194.4</ele>
        <time>2020-09-05T06:13:48Z</time>
      </trkpt>
      <trkpt lat="45.05206" lon="6.05859">
        <ele>1194.6</ele>
        <time>2020-09-05T06:13:49Z</time>
      </trkpt>
      <trkpt lat="45.05205" lon="6.05863">
        <ele>1194.8</ele>
        <time>2020-09-05T06:13:50Z</time>
      </trkpt>
      <trkpt lat="45.05204" lon="6.05866">
        <ele>1195.2</ele>
        <time>2020-09-05T06:13:51Z</time>
      </trkpt>
      <trkpt lat="45.05203" lon="6.05869">
        <ele>1195.4</ele>
        <time>2020-09-05T06:13:52Z</time>
      </trkpt>
      <trkpt lat="45.05202" lon="6.05873">
        <ele>1195.8</ele>
        <time>2020-09-05T06:13:53Z</time>
      </trkpt>
      <trkpt lat="45.05201" lon="6.05876">
        <ele>1195.8</ele>
        <time>2020-09-05T06:13:54Z</time>
      </trkpt>
      <trkpt lat="45.052" lon="6.05879">
        <ele>1196</ele>
        <time>2020-09-05T06:13:55Z</time>
      </trkpt>
      <trkpt lat="45.05199" lon="6.05881">
        <ele>1196.2</ele>
        <time>2020-09-05T06:13:56Z</time>
      </trkpt>
      <trkpt lat="45.05198" lon="6.05884">
        <ele>1196.6</ele>
        <time>2020-09-05T06:13:57Z</time>
      </trkpt>
      <trkpt lat="45.05197" lon="6.05887">
        <ele>1196.8</ele>
        <time>2020-09-05T06:13:58Z</time>
      </trkpt>
      <trkpt lat="45.05196" lon="6.0589">
        <ele>1197</ele>
        <time>2020-09-05T06:13:59Z</time>
      </trkpt>
      <trkpt lat="45.05195" lon="6.05892">
        <ele>1197.2</ele>
        <time>2020-09-05T06:14:00Z</time>
      </trkpt>
      <trkpt lat="45.05194" lon="6.05895">
        <ele>1197.6</ele>
        <time>2020-09-05T06:14:01Z</time>
      </trkpt>
      <trkpt lat="45.05193" lon="6.05897">
        <ele>1197.6</ele>
        <time>2020-09-05T06:14:02Z</time>
      </trkpt>
      <trkpt lat="45.05191" lon="6.059">
        <ele>1198</ele>
        <time>2020-09-05T06:14:03Z</time>
      </trkpt>
      <trkpt lat="45.05189" lon="6.05902">
        <ele>1198.2</ele>
        <time>2020-09-05T06:14:04Z</time>
      </trkpt>
      <trkpt lat="45.05188" lon="6.05904">
        <ele>1198.4</ele>
        <time>2020-09-05T06:14:05Z</time>
      </trkpt>
      <trkpt lat="45.05186" lon="6.05906">
        <ele>1198.6</ele>
        <time>2020-09-05T06:14:06Z</time>
      </trkpt>
      <trkpt lat="45.05184" lon="6.05907">
        <ele>1198.8</ele>
        <time>2020-09-05T06:14:07Z</time>
      </trkpt>
      <trkpt lat="45.05182" lon="6.05909">
        <ele>1199.2</ele>
        <time>2020-09-05T06:14:08Z</time>
      </trkpt>
      <trkpt lat="45.0518" lon="6.05911">
        <ele>1199.4</ele>
        <time>2020-09-05T06:14:09Z</time>
      </trkpt>
      <trkpt lat="45.05177" lon="6.05912">
        <ele>1199.6</ele>
        <time>2020-09-05T06:14:10Z</time>
      </trkpt>
      <trkpt lat="45.05175" lon="6.05914">
        <ele>1200</ele>
        <time>2020-09-05T06:14:11Z</time>
      </trkpt>
      <trkpt lat="45.05173" lon="6.05916">
        <ele>1200</ele>
        <time>2020-09-05T06:14:12Z</time>
      </trkpt>
      <trkpt lat="45.05172" lon="6.05918">
        <ele>1200.4</ele>
        <time>2020-09-05T06:14:13Z</time>
      </trkpt>
      <trkpt lat="45.0517" lon="6.0592">
        <ele>1200.4</ele>
        <time>2020-09-05T06:14:14Z</time>
      </trkpt>
      <trkpt lat="45.05168" lon="6.05922">
        <ele>1200.6</ele>
        <time>2020-09-05T06:14:15Z</time>
      </trkpt>
      <trkpt lat="45.05167" lon="6.05925">
        <ele>1201</ele>
        <time>2020-09-05T06:14:16Z</time>
      </trkpt>
      <trkpt lat="45.05165" lon="6.05928">
        <ele>1201.2</ele>
        <time>2020-09-05T06:14:17Z</time>
      </trkpt>
      <trkpt lat="45.05164" lon="6.0593">
        <ele>1201.4</ele>
        <time>2020-09-05T06:14:18Z</time>
      </trkpt>
      <trkpt lat="45.05162" lon="6.05933">
        <ele>1201.4</ele>
        <time>2020-09-05T06:14:19Z</time>
      </trkpt>
      <trkpt lat="45.05161" lon="6.05935">
        <ele>1201.8</ele>
        <time>2020-09-05T06:14:20Z</time>
      </trkpt>
      <trkpt lat="45.05159" lon="6.05938">
        <ele>1202</ele>
        <time>2020-09-05T06:14:21Z</time>
      </trkpt>
      <trkpt lat="45.05157" lon="6.0594">
        <ele>1202.2</ele>
        <time>2020-09-05T06:14:22Z</time>
      </trkpt>
      <trkpt lat="45.05155" lon="6.05943">
        <ele>1202.4</ele>
        <time>2020-09-05T06:14:23Z</time>
      </trkpt>
      <trkpt lat="45.05154" lon="6.05945">
        <ele>1202.8</ele>
        <time>2020-09-05T06:14:24Z</time>
      </trkpt>
      <trkpt lat="45.05152" lon="6.05947">
        <ele>1202.8</ele>
        <time>2020-09-05T06:14:25Z</time>
      </trkpt>
      <trkpt lat="45.0515" lon="6.05949">
        <ele>1203.4</ele>
        <time>2020-09-05T06:14:26Z</time>
      </trkpt>
      <trkpt lat="45.05148" lon="6.05952">
        <ele>1203.6</ele>
        <time>2020-09-05T06:14:27Z</time>
      </trkpt>
      <trkpt lat="45.05146" lon="6.05954">
        <ele>1203.6</ele>
        <time>2020-09-05T06:14:28Z</time>
      </trkpt>
      <trkpt lat="45.05144" lon="6.05957">
        <ele>1203.8</ele>
        <time>2020-09-05T06:14:29Z</time>
      </trkpt>
      <trkpt lat="45.05142" lon="6.0596">
        <ele>1204</ele>
        <time>2020-09-05T06:14:30Z</time>
      </trkpt>
      <trkpt lat="45.05141" lon="6.05963">
        <ele>1204.2</ele>
        <time>2020-09-05T06:14:31Z</time>
      </trkpt>
      <trkpt lat="45.05139" lon="6.05966">
        <ele>1204.4</ele>
        <time>2020-09-05T06:14:32Z</time>
      </trkpt>
      <trkpt lat="45.05138" lon="6.05969">
        <ele>1204.6</ele>
        <time>2020-09-05T06:14:33Z</time>
      </trkpt>
      <trkpt lat="45.05136" lon="6.05972">
        <ele>1204.8</ele>
        <time>2020-09-05T06:14:34Z</time>
      </trkpt>
      <trkpt lat="45.05134" lon="6.05974">
        <ele>1205</ele>
        <time>2020-09-05T06:14:35Z</time>
      </trkpt>
      <trkpt lat="45.05132" lon="6.05977">
        <ele>1205</ele>
        <time>2020-09-05T06:14:36Z</time>
      </trkpt>
      <trkpt lat="45.05129" lon="6.05979">
        <ele>1205.4</ele>
        <time>2020-09-05T06:14:37Z</time>
      </trkpt>
      <trkpt lat="45.05127" lon="6.05981">
        <ele>1205.6</ele>
        <time>2020-09-05T06:14:38Z</time>
      </trkpt>
      <trkpt lat="45.05124" lon="6.05983">
        <ele>1205.8</ele>
        <time>2020-09-05T06:14:39Z</time>
      </trkpt>
      <trkpt lat="45.05122" lon="6.05985">
        <ele>1206</ele>
        <time>2020-09-05T06:14:40Z</time>
      </trkpt>
      <trkpt lat="45.0512" lon="6.05988">
        <ele>1206.4</ele>
        <time>2020-09-05T06:14:41Z</time>
      </trkpt>
      <trkpt lat="45.05118" lon="6.0599">
        <ele>1206.4</ele>
        <time>2020-09-05T06:14:42Z</time>
      </trkpt>
      <trkpt lat="45.05116" lon="6.05993">
        <ele>1206.6</ele>
        <time>2020-09-05T06:14:43Z</time>
      </trkpt>
      <trkpt lat="45.05114" lon="6.05996">
        <ele>1207</ele>
        <time>2020-09-05T06:14:44Z</time>
      </trkpt>
      <trkpt lat="45.05113" lon="6.05998">
        <ele>1207.4</ele>
        <time>2020-09-05T06:14:45Z</time>
      </trkpt>
      <trkpt lat="45.05111" lon="6.06001">
        <ele>1207.6</ele>
        <time>2020-09-05T06:14:46Z</time>
      </trkpt>
      <trkpt lat="45.05108" lon="6.06002">
        <ele>1208</ele>
        <time>2020-09-05T06:14:47Z</time>
      </trkpt>
      <trkpt lat="45.05106" lon="6.06004">
        <ele>1208.2</ele>
        <time>2020-09-05T06:14:48Z</time>
      </trkpt>
      <trkpt lat="45.05104" lon="6.06005">
        <ele>1208.4</ele>
        <time>2020-09-05T06:14:49Z</time>
      </trkpt>
      <trkpt lat="45.05101" lon="6.06006">
        <ele>1208.6</ele>
        <time>2020-09-05T06:14:50Z</time>
      </trkpt>
      <trkpt lat="45.05099" lon="6.06006">
        <ele>1209</ele>
        <time>2020-09-05T06:14:51Z</time>
      </trkpt>
      <trkpt lat="45.05096" lon="6.06006">
        <ele>1209.2</ele>
        <time>2020-09-05T06:14:52Z</time>
      </trkpt>
      <trkpt lat="45.05094" lon="6.06006">
        <ele>1209.6</ele>
        <time>2020-09-05T06:14:53Z</time>
      </trkpt>
      <trkpt lat="45.05091" lon="6.06006">
        <ele>1210</ele>
        <time>2020-09-05T06:14:54Z</time>
      </trkpt>
      <trkpt lat="45.05089" lon="6.06008">
        <ele>1210.2</ele>
        <time>2020-09-05T06:14:55Z</time>
      </trkpt>
      <trkpt lat="45.05087" lon="6.0601">
        <ele>1210.4</ele>
        <time>2020-09-05T06:14:56Z</time>
      </trkpt>
      <trkpt lat="45.05086" lon="6.06012">
        <ele>1210.8</ele>
        <time>2020-09-05T06:14:57Z</time>
      </trkpt>
      <trkpt lat="45.05084" lon="6.06014">
        <ele>1211</ele>
        <time>2020-09-05T06:14:58Z</time>
      </trkpt>
      <trkpt lat="45.05082" lon="6.06016">
        <ele>1211.2</ele>
        <time>2020-09-05T06:14:59Z</time>
      </trkpt>
      <trkpt lat="45.0508" lon="6.06018">
        <ele>1211.6</ele>
        <time>2020-09-05T06:15:00Z</time>
      </trkpt>
      <trkpt lat="45.05078" lon="6.06021">
        <ele>1211.8</ele>
        <time>2020-09-05T06:15:01Z</time>
      </trkpt>
      <trkpt lat="45.05076" lon="6.06023">
        <ele>1212</ele>
        <time>2020-09-05T06:15:02Z</time>
      </trkpt>
      <trkpt lat="45.05075" lon="6.06025">
        <ele>1212</ele>
        <time>2020-09-05T06:15:03Z</time>
      </trkpt>
      <trkpt lat="45.05073" lon="6.06027">
        <ele>1212.2</ele>
        <time>2020-09-05T06:15:04Z</time>
      </trkpt>
      <trkpt lat="45.05072" lon="6.06029">
        <ele>1212.4</ele>
        <time>2020-09-05T06:15:05Z</time>
      </trkpt>
      <trkpt lat="45.0507" lon="6.06031">
        <ele>1212.6</ele>
        <time>2020-09-05T06:15:06Z</time>
      </trkpt>
      <trkpt lat="45.05068" lon="6.06033">
        <ele>1213</ele>
        <time>2020-09-05T06:15:07Z</time>
      </trkpt>
      <trkpt lat="45.05066" lon="6.06035">
        <ele>1213.2</ele>
        <time>2020-09-05T06:15:08Z</time>
      </trkpt>
      <trkpt lat="45.05065" lon="6.06038">
        <ele>1213.6</ele>
        <time>2020-09-05T06:15:09Z</time>
      </trkpt>
      <trkpt lat="45.05063" lon="6.0604">
        <ele>1214</ele>
        <time>2020-09-05T06:15:10Z</time>
      </trkpt>
      <trkpt lat="45.05061" lon="6.06043">
        <ele>1213.8</ele>
        <time>2020-09-05T06:15:11Z</time>
      </trkpt>
      <trkpt lat="45.05059" lon="6.06045">
        <ele>1214.2</ele>
        <time>2020-09-05T06:15:12Z</time>
      </trkpt>
      <trkpt lat="45.05057" lon="6.06046">
        <ele>1214.6</ele>
        <time>2020-09-05T06:15:13Z</time>
      </trkpt>
      <trkpt lat="45.05055" lon="6.06049">
        <ele>1214.8</ele>
        <time>2020-09-05T06:15:14Z</time>
      </trkpt>
      <trkpt lat="45.05053" lon="6.0605">
        <ele>1215</ele>
        <time>2020-09-05T06:15:15Z</time>
      </trkpt>
      <trkpt lat="45.05051" lon="6.06053">
        <ele>1215.2</ele>
        <time>2020-09-05T06:15:16Z</time>
      </trkpt>
      <trkpt lat="45.0505" lon="6.06055">
        <ele>1215.4</ele>
        <time>2020-09-05T06:15:17Z</time>
      </trkpt>
      <trkpt lat="45.05047" lon="6.06058">
        <ele>1215.6</ele>
        <time>2020-09-05T06:15:18Z</time>
      </trkpt>
      <trkpt lat="45.05045" lon="6.0606">
        <ele>1215.8</ele>
        <time>2020-09-05T06:15:19Z</time>
      </trkpt>
      <trkpt lat="45.05043" lon="6.06063">
        <ele>1216</ele>
        <time>2020-09-05T06:15:20Z</time>
      </trkpt>
      <trkpt lat="45.05041" lon="6.06065">
        <ele>1216.4</ele>
        <time>2020-09-05T06:15:21Z</time>
      </trkpt>
      <trkpt lat="45.05039" lon="6.06067">
        <ele>1216.8</ele>
        <time>2020-09-05T06:15:22Z</time>
      </trkpt>
      <trkpt lat="45.05037" lon="6.06068">
        <ele>1217</ele>
        <time>2020-09-05T06:15:23Z</time>
      </trkpt>
      <trkpt lat="45.05036" lon="6.0607">
        <ele>1217.2</ele>
        <time>2020-09-05T06:15:24Z</time>
      </trkpt>
      <trkpt lat="45.05034" lon="6.06072">
        <ele>1217.4</ele>
        <time>2020-09-05T06:15:25Z</time>
      </trkpt>
      <trkpt lat="45.05032" lon="6.06073">
        <ele>1217.8</ele>
        <time>2020-09-05T06:15:26Z</time>
      </trkpt>
      <trkpt lat="45.0503" lon="6.06075">
        <ele>1217.8</ele>
        <time>2020-09-05T06:15:27Z</time>
      </trkpt>
      <trkpt lat="45.05028" lon="6.06076">
        <ele>1218</ele>
        <time>2020-09-05T06:15:28Z</time>
      </trkpt>
      <trkpt lat="45.05026" lon="6.06078">
        <ele>1218.2</ele>
        <time>2020-09-05T06:15:29Z</time>
      </trkpt>
      <trkpt lat="45.05024" lon="6.0608">
        <ele>1218.4</ele>
        <time>2020-09-05T06:15:30Z</time>
      </trkpt>
      <trkpt lat="45.05022" lon="6.06082">
        <ele>1218.8</ele>
        <time>2020-09-05T06:15:31Z</time>
      </trkpt>
      <trkpt lat="45.0502" lon="6.06084">
        <ele>1219</ele>
        <time>2020-09-05T06:15:32Z</time>
      </trkpt>
      <trkpt lat="45.05018" lon="6.06086">
        <ele>1219</ele>
        <time>2020-09-05T06:15:33Z</time>
      </trkpt>
      <trkpt lat="45.05016" lon="6.06088">
        <ele>1219.4</ele>
        <time>2020-09-05T06:15:34Z</time>
      </trkpt>
      <trkpt lat="45.05014" lon="6.0609">
        <ele>1219.2</ele>
        <time>2020-09-05T06:15:35Z</time>
      </trkpt>
      <trkpt lat="45.05012" lon="6.06091">
        <ele>1219.8</ele>
        <time>2020-09-05T06:15:36Z</time>
      </trkpt>
      <trkpt lat="45.05009" lon="6.06093">
        <ele>1220</ele>
        <time>2020-09-05T06:15:37Z</time>
      </trkpt>
      <trkpt lat="45.05007" lon="6.06094">
        <ele>1220.2</ele>
        <time>2020-09-05T06:15:38Z</time>
      </trkpt>
      <trkpt lat="45.05005" lon="6.06095">
        <ele>1220.4</ele>
        <time>2020-09-05T06:15:39Z</time>
      </trkpt>
      <trkpt lat="45.05003" lon="6.06096">
        <ele>1220.4</ele>
        <time>2020-09-05T06:15:40Z</time>
      </trkpt>
      <trkpt lat="45.05001" lon="6.06098">
        <ele>1220.8</ele>
        <time>2020-09-05T06:15:41Z</time>
      </trkpt>
      <trkpt lat="45.04999" lon="6.06099">
        <ele>1221</ele>
        <time>2020-09-05T06:15:42Z</time>
      </trkpt>
      <trkpt lat="45.04997" lon="6.061">
        <ele>1221.2</ele>
        <time>2020-09-05T06:15:43Z</time>
      </trkpt>
      <trkpt lat="45.04995" lon="6.06101">
        <ele>1221.6</ele>
        <time>2020-09-05T06:15:44Z</time>
      </trkpt>
      <trkpt lat="45.04993" lon="6.06103">
        <ele>1221.6</ele>
        <time>2020-09-05T06:15:45Z</time>
      </trkpt>
      <trkpt lat="45.04991" lon="6.06104">
        <ele>1221.8</ele>
        <time>2020-09-05T06:15:46Z</time>
      </trkpt>
      <trkpt lat="45.04989" lon="6.06105">
        <ele>1222</ele>
        <time>2020-09-05T06:15:47Z</time>
      </trkpt>
      <trkpt lat="45.04987" lon="6.06106">
        <ele>1222.4</ele>
        <time>2020-09-05T06:15:48Z</time>
      </trkpt>
      <trkpt lat="45.04985" lon="6.06107">
        <ele>1222.6</ele>
        <time>2020-09-05T06:15:49Z</time>
      </trkpt>
      <trkpt lat="45.04982" lon="6.06108">
        <ele>1222.8</ele>
        <time>2020-09-05T06:15:50Z</time>
      </trkpt>
      <trkpt lat="45.0498" lon="6.0611">
        <ele>1223</ele>
        <time>2020-09-05T06:15:51Z</time>
      </trkpt>
      <trkpt lat="45.04978" lon="6.06111">
        <ele>1223.4</ele>
        <time>2020-09-05T06:15:52Z</time>
      </trkpt>
      <trkpt lat="45.04976" lon="6.06112">
        <ele>1223.6</ele>
        <time>2020-09-05T06:15:53Z</time>
      </trkpt>
      <trkpt lat="45.04974" lon="6.06113">
        <ele>1223.6</ele>
        <time>2020-09-05T06:15:54Z</time>
      </trkpt>
      <trkpt lat="45.04972" lon="6.06115">
        <ele>1224.2</ele>
        <time>2020-09-05T06:15:55Z</time>
      </trkpt>
      <trkpt lat="45.0497" lon="6.06116">
        <ele>1224.4</ele>
        <time>2020-09-05T06:15:56Z</time>
      </trkpt>
      <trkpt lat="45.04968" lon="6.06118">
        <ele>1224.6</ele>
        <time>2020-09-05T06:15:57Z</time>
      </trkpt>
      <trkpt lat="45.04965" lon="6.06119">
        <ele>1224.8</ele>
        <time>2020-09-05T06:15:58Z</time>
      </trkpt>
      <trkpt lat="45.04963" lon="6.06121">
        <ele>1224.8</ele>
        <time>2020-09-05T06:15:59Z</time>
      </trkpt>
      <trkpt lat="45.04961" lon="6.06123">
        <ele>1225.2</ele>
        <time>2020-09-05T06:16:00Z</time>
      </trkpt>
      <trkpt lat="45.04959" lon="6.06125">
        <ele>1225.4</ele>
        <time>2020-09-05T06:16:01Z</time>
      </trkpt>
      <trkpt lat="45.04958" lon="6.06128">
        <ele>1225.6</ele>
        <time>2020-09-05T06:16:02Z</time>
      </trkpt>
      <trkpt lat="45.04956" lon="6.0613">
        <ele>1225.8</ele>
        <time>2020-09-05T06:16:03Z</time>
      </trkpt>
      <trkpt lat="45.04955" lon="6.06133">
        <ele>1225.8</ele>
        <time>2020-09-05T06:16:04Z</time>
      </trkpt>
      <trkpt lat="45.04954" lon="6.06136">
        <ele>1226</ele>
        <time>2020-09-05T06:16:05Z</time>
      </trkpt>
      <trkpt lat="45.04952" lon="6.06139">
        <ele>1226.2</ele>
        <time>2020-09-05T06:16:06Z</time>
      </trkpt>
      <trkpt lat="45.04951" lon="6.06142">
        <ele>1226.8</ele>
        <time>2020-09-05T06:16:07Z</time>
      </trkpt>
      <trkpt lat="45.0495" lon="6.06145">
        <ele>1226.8</ele>
        <time>2020-09-05T06:16:08Z</time>
      </trkpt>
      <trkpt lat="45.04949" lon="6.06147">
        <ele>1227.2</ele>
        <time>2020-09-05T06:16:09Z</time>
      </trkpt>
      <trkpt lat="45.04947" lon="6.0615">
        <ele>1227.4</ele>
        <time>2020-09-05T06:16:10Z</time>
      </trkpt>
      <trkpt lat="45.04945" lon="6.06153">
        <ele>1227.6</ele>
        <time>2020-09-05T06:16:11Z</time>
      </trkpt>
      <trkpt lat="45.04944" lon="6.06156">
        <ele>1228</ele>
        <time>2020-09-05T06:16:12Z</time>
      </trkpt>
      <trkpt lat="45.04942" lon="6.06158">
        <ele>1228.2</ele>
        <time>2020-09-05T06:16:13Z</time>
      </trkpt>
      <trkpt lat="45.0494" lon="6.06161">
        <ele>1228.4</ele>
        <time>2020-09-05T06:16:14Z</time>
      </trkpt>
      <trkpt lat="45.04938" lon="6.06162">
        <ele>1228.6</ele>
        <time>2020-09-05T06:16:15Z</time>
      </trkpt>
      <trkpt lat="45.04936" lon="6.06164">
        <ele>1228.8</ele>
        <time>2020-09-05T06:16:16Z</time>
      </trkpt>
      <trkpt lat="45.04934" lon="6.06166">
        <ele>1229.2</ele>
        <time>2020-09-05T06:16:17Z</time>
      </trkpt>
      <trkpt lat="45.04932" lon="6.06169">
        <ele>1229.4</ele>
        <time>2020-09-05T06:16:18Z</time>
      </trkpt>
      <trkpt lat="45.04931" lon="6.06171">
        <ele>1229.6</ele>
        <time>2020-09-05T06:16:19Z</time>
      </trkpt>
      <trkpt lat="45.04929" lon="6.06173">
        <ele>1229.6</ele>
        <time>2020-09-05T06:16:20Z</time>
      </trkpt>
      <trkpt lat="45.04928" lon="6.06175">
        <ele>1229.8</ele>
        <time>2020-09-05T06:16:21Z</time>
      </trkpt>
      <trkpt lat="45.04926" lon="6.06177">
        <ele>1230</ele>
        <time>2020-09-05T06:16:22Z</time>
      </trkpt>
      <trkpt lat="45.04924" lon="6.06179">
        <ele>1230.4</ele>
        <time>2020-09-05T06:16:23Z</time>
      </trkpt>
      <trkpt lat="45.04923" lon="6.06182">
        <ele>1230.4</ele>
        <time>2020-09-05T06:16:24Z</time>
      </trkpt>
      <trkpt lat="45.04922" lon="6.06184">
        <ele>1230.8</ele>
        <time>2020-09-05T06:16:25Z</time>
      </trkpt>
      <trkpt lat="45.0492" lon="6.06187">
        <ele>1231</ele>
        <time>2020-09-05T06:16:26Z</time>
      </trkpt>
      <trkpt lat="45.04919" lon="6.06189">
        <ele>1231.2</ele>
        <time>2020-09-05T06:16:27Z</time>
      </trkpt>
      <trkpt lat="45.04917" lon="6.06191">
        <ele>1231.4</ele>
        <time>2020-09-05T06:16:28Z</time>
      </trkpt>
      <trkpt lat="45.04915" lon="6.06193">
        <ele>1231.8</ele>
        <time>2020-09-05T06:16:29Z</time>
      </trkpt>
      <trkpt lat="45.04914" lon="6.06195">
        <ele>1231.8</ele>
        <time>2020-09-05T06:16:30Z</time>
      </trkpt>
      <trkpt lat="45.04912" lon="6.06197">
        <ele>1232.2</ele>
        <time>2020-09-05T06:16:31Z</time>
      </trkpt>
      <trkpt lat="45.0491" lon="6.06198">
        <ele>1232.4</ele>
        <time>2020-09-05T06:16:32Z</time>
      </trkpt>
      <trkpt lat="45.04908" lon="6.062">
        <ele>1232.8</ele>
        <time>2020-09-05T06:16:33Z</time>
      </trkpt>
      <trkpt lat="45.04906" lon="6.06202">
        <ele>1232.8</ele>
        <time>2020-09-05T06:16:34Z</time>
      </trkpt>
      <trkpt lat="45.04905" lon="6.06205">
        <ele>1233</ele>
        <time>2020-09-05T06:16:35Z</time>
      </trkpt>
      <trkpt lat="45.04903" lon="6.06207">
        <ele>1233.2</ele>
        <time>2020-09-05T06:16:36Z</time>
      </trkpt>
      <trkpt lat="45.04902" lon="6.06209">
        <ele>1233.4</ele>
        <time>2020-09-05T06:16:37Z</time>
      </trkpt>
      <trkpt lat="45.049" lon="6.06211">
        <ele>1233.8</ele>
        <time>2020-09-05T06:16:38Z</time>
      </trkpt>
      <trkpt lat="45.04899" lon="6.06213">
        <ele>1234</ele>
        <time>2020-09-05T06:16:39Z</time>
      </trkpt>
      <trkpt lat="45.04897" lon="6.06215">
        <ele>1234.2</ele>
        <time>2020-09-05T06:16:40Z</time>
      </trkpt>
      <trkpt lat="45.04896" lon="6.06217">
        <ele>1234.4</ele>
        <time>2020-09-05T06:16:41Z</time>
      </trkpt>
      <trkpt lat="45.04894" lon="6.0622">
        <ele>1234.6</ele>
        <time>2020-09-05T06:16:42Z</time>
      </trkpt>
      <trkpt lat="45.04893" lon="6.06222">
        <ele>1235.2</ele>
        <time>2020-09-05T06:16:43Z</time>
      </trkpt>
      <trkpt lat="45.04891" lon="6.06224">
        <ele>1235.4</ele>
        <time>2020-09-05T06:16:44Z</time>
      </trkpt>
      <trkpt lat="45.0489" lon="6.06226">
        <ele>1235.6</ele>
        <time>2020-09-05T06:16:45Z</time>
      </trkpt>
      <trkpt lat="45.04888" lon="6.06229">
        <ele>1235.6</ele>
        <time>2020-09-05T06:16:46Z</time>
      </trkpt>
      <trkpt lat="45.04887" lon="6.0623">
        <ele>1235.8</ele>
        <time>2020-09-05T06:16:47Z</time>
      </trkpt>
      <trkpt lat="45.04884" lon="6.06232">
        <ele>1236.2</ele>
        <time>2020-09-05T06:16:48Z</time>
      </trkpt>
      <trkpt lat="45.04882" lon="6.06233">
        <ele>1236.2</ele>
        <time>2020-09-05T06:16:49Z</time>
      </trkpt>
      <trkpt lat="45.0488" lon="6.06234">
        <ele>1236.6</ele>
        <time>2020-09-05T06:16:50Z</time>
      </trkpt>
      <trkpt lat="45.04877" lon="6.06235">
        <ele>1236.6</ele>
        <time>2020-09-05T06:16:51Z</time>
      </trkpt>
      <trkpt lat="45.04875" lon="6.06236">
        <ele>1236.8</ele>
        <time>2020-09-05T06:16:52Z</time>
      </trkpt>
      <trkpt lat="45.04872" lon="6.06236">
        <ele>1237</ele>
        <time>2020-09-05T06:16:53Z</time>
      </trkpt>
      <trkpt lat="45.0487" lon="6.06236">
        <ele>1237.2</ele>
        <time>2020-09-05T06:16:54Z</time>
      </trkpt>
      <trkpt lat="45.04867" lon="6.06236">
        <ele>1237.6</ele>
        <time>2020-09-05T06:16:55Z</time>
      </trkpt>
      <trkpt lat="45.04865" lon="6.06236">
        <ele>1237.8</ele>
        <time>2020-09-05T06:16:56Z</time>
      </trkpt>
      <trkpt lat="45.04862" lon="6.06236">
        <ele>1237.8</ele>
        <time>2020-09-05T06:16:57Z</time>
      </trkpt>
      <trkpt lat="45.0486" lon="6.06236">
        <ele>1238</ele>
        <time>2020-09-05T06:16:58Z</time>
      </trkpt>
      <trkpt lat="45.04858" lon="6.06237">
        <ele>1238.2</ele>
        <time>2020-09-05T06:16:59Z</time>
      </trkpt>
      <trkpt lat="45.04855" lon="6.06238">
        <ele>1238.2</ele>
        <time>2020-09-05T06:17:00Z</time>
      </trkpt>
      <trkpt lat="45.04853" lon="6.06239">
        <ele>1238.6</ele>
        <time>2020-09-05T06:17:01Z</time>
      </trkpt>
      <trkpt lat="45.04851" lon="6.06241">
        <ele>1238.8</ele>
        <time>2020-09-05T06:17:02Z</time>
      </trkpt>
      <trkpt lat="45.0485" lon="6.06244">
        <ele>1238.8</ele>
        <time>2020-09-05T06:17:03Z</time>
      </trkpt>
      <trkpt lat="45.04848" lon="6.06246">
        <ele>1239.2</ele>
        <time>2020-09-05T06:17:04Z</time>
      </trkpt>
      <trkpt lat="45.04847" lon="6.06249">
        <ele>1239.4</ele>
        <time>2020-09-05T06:17:05Z</time>
      </trkpt>
      <trkpt lat="45.04845" lon="6.06251">
        <ele>1239.6</ele>
        <time>2020-09-05T06:17:06Z</time>
      </trkpt>
      <trkpt lat="45.04844" lon="6.06254">
        <ele>1240</ele>
        <time>2020-09-05T06:17:07Z</time>
      </trkpt>
      <trkpt lat="45.04842" lon="6.06256">
        <ele>1240</ele>
        <time>2020-09-05T06:17:08Z</time>
      </trkpt>
      <trkpt lat="45.0484" lon="6.06258">
        <ele>1240.2</ele>
        <time>2020-09-05T06:17:09Z</time>
      </trkpt>
      <trkpt lat="45.04839" lon="6.06261">
        <ele>1240.4</ele>
        <time>2020-09-05T06:17:10Z</time>
      </trkpt>
      <trkpt lat="45.04837" lon="6.06264">
        <ele>1240.6</ele>
        <time>2020-09-05T06:17:11Z</time>
      </trkpt>
      <trkpt lat="45.04836" lon="6.06266">
        <ele>1240.6</ele>
        <time>2020-09-05T06:17:12Z</time>
      </trkpt>
      <trkpt lat="45.04834" lon="6.06269">
        <ele>1241</ele>
        <time>2020-09-05T06:17:13Z</time>
      </trkpt>
      <trkpt lat="45.04832" lon="6.06271">
        <ele>1241.2</ele>
        <time>2020-09-05T06:17:14Z</time>
      </trkpt>
      <trkpt lat="45.0483" lon="6.06273">
        <ele>1241</ele>
        <time>2020-09-05T06:17:15Z</time>
      </trkpt>
      <trkpt lat="45.04829" lon="6.06276">
        <ele>1241.4</ele>
        <time>2020-09-05T06:17:16Z</time>
      </trkpt>
      <trkpt lat="45.04827" lon="6.06278">
        <ele>1241.6</ele>
        <time>2020-09-05T06:17:17Z</time>
      </trkpt>
      <trkpt lat="45.04825" lon="6.0628">
        <ele>1242</ele>
        <time>2020-09-05T06:17:18Z</time>
      </trkpt>
      <trkpt lat="45.04824" lon="6.06282">
        <ele>1242</ele>
        <time>2020-09-05T06:17:19Z</time>
      </trkpt>
      <trkpt lat="45.04822" lon="6.06285">
        <ele>1242.2</ele>
        <time>2020-09-05T06:17:20Z</time>
      </trkpt>
      <trkpt lat="45.0482" lon="6.06287">
        <ele>1242.6</ele>
        <time>2020-09-05T06:17:21Z</time>
      </trkpt>
      <trkpt lat="45.04819" lon="6.06289">
        <ele>1243</ele>
        <time>2020-09-05T06:17:22Z</time>
      </trkpt>
      <trkpt lat="45.04817" lon="6.06291">
        <ele>1243.2</ele>
        <time>2020-09-05T06:17:23Z</time>
      </trkpt>
      <trkpt lat="45.04816" lon="6.06294">
        <ele>1243.2</ele>
        <time>2020-09-05T06:17:24Z</time>
      </trkpt>
      <trkpt lat="45.04814" lon="6.06296">
        <ele>1243.6</ele>
        <time>2020-09-05T06:17:25Z</time>
      </trkpt>
      <trkpt lat="45.04813" lon="6.06299">
        <ele>1244</ele>
        <time>2020-09-05T06:17:26Z</time>
      </trkpt>
      <trkpt lat="45.04812" lon="6.06302">
        <ele>1244.4</ele>
        <time>2020-09-05T06:17:27Z</time>
      </trkpt>
      <trkpt lat="45.0481" lon="6.06304">
        <ele>1244.6</ele>
        <time>2020-09-05T06:17:28Z</time>
      </trkpt>
      <trkpt lat="45.04809" lon="6.06307">
        <ele>1245</ele>
        <time>2020-09-05T06:17:29Z</time>
      </trkpt>
      <trkpt lat="45.04807" lon="6.06309">
        <ele>1245.2</ele>
        <time>2020-09-05T06:17:30Z</time>
      </trkpt>
      <trkpt lat="45.04805" lon="6.06311">
        <ele>1245.6</ele>
        <time>2020-09-05T06:17:31Z</time>
      </trkpt>
      <trkpt lat="45.04802" lon="6.06312">
        <ele>1245.8</ele>
        <time>2020-09-05T06:17:32Z</time>
      </trkpt>
      <trkpt lat="45.048" lon="6.06314">
        <ele>1246</ele>
        <time>2020-09-05T06:17:33Z</time>
      </trkpt>
      <trkpt lat="45.04798" lon="6.06316">
        <ele>1246</ele>
        <time>2020-09-05T06:17:34Z</time>
      </trkpt>
      <trkpt lat="45.04796" lon="6.06318">
        <ele>1246.2</ele>
        <time>2020-09-05T06:17:35Z</time>
      </trkpt>
      <trkpt lat="45.04793" lon="6.0632">
        <ele>1246.4</ele>
        <time>2020-09-05T06:17:36Z</time>
      </trkpt>
      <trkpt lat="45.04791" lon="6.06323">
        <ele>1246.6</ele>
        <time>2020-09-05T06:17:37Z</time>
      </trkpt>
      <trkpt lat="45.04789" lon="6.06325">
        <ele>1246.8</ele>
        <time>2020-09-05T06:17:38Z</time>
      </trkpt>
      <trkpt lat="45.04788" lon="6.06329">
        <ele>1246.8</ele>
        <time>2020-09-05T06:17:39Z</time>
      </trkpt>
      <trkpt lat="45.04787" lon="6.06332">
        <ele>1247</ele>
        <time>2020-09-05T06:17:40Z</time>
      </trkpt>
      <trkpt lat="45.04786" lon="6.06335">
        <ele>1247.2</ele>
        <time>2020-09-05T06:17:41Z</time>
      </trkpt>
      <trkpt lat="45.04785" lon="6.06339">
        <ele>1247.6</ele>
        <time>2020-09-05T06:17:42Z</time>
      </trkpt>
      <trkpt lat="45.04785" lon="6.06342">
        <ele>1248</ele>
        <time>2020-09-05T06:17:43Z</time>
      </trkpt>
      <trkpt lat="45.04784" lon="6.06344">
        <ele>1247.8</ele>
        <time>2020-09-05T06:17:44Z</time>
      </trkpt>
      <trkpt lat="45.04784" lon="6.06347">
        <ele>1248.2</ele>
        <time>2020-09-05T06:17:45Z</time>
      </trkpt>
      <trkpt lat="45.04784" lon="6.0635">
        <ele>1248.4</ele>
        <time>2020-09-05T06:17:46Z</time>
      </trkpt>
      <trkpt lat="45.04774" lon="6.06344">
        <ele>1249.8</ele>
        <time>2020-09-05T06:17:54Z</time>
      </trkpt>
      <trkpt lat="45.04761" lon="6.06346">
        <ele>1250.6</ele>
        <time>2020-09-05T06:17:58Z</time>
      </trkpt>
      <trkpt lat="45.04753" lon="6.06351">
        <ele>1251.6</ele>
        <time>2020-09-05T06:18:01Z</time>
      </trkpt>
      <trkpt lat="45.04744" lon="6.06344">
        <ele>1252.4</ele>
        <time>2020-09-05T06:18:05Z</time>
      </trkpt>
      <trkpt lat="45.04735" lon="6.06337">
        <ele>1253.2</ele>
        <time>2020-09-05T06:18:09Z</time>
      </trkpt>
      <trkpt lat="45.04727" lon="6.06338">
        <ele>1253.8</ele>
        <time>2020-09-05T06:18:12Z</time>
      </trkpt>
      <trkpt lat="45.04725" lon="6.06338">
        <ele>1254</ele>
        <time>2020-09-05T06:18:13Z</time>
      </trkpt>
      <trkpt lat="45.04722" lon="6.06339">
        <ele>1254.4</ele>
        <time>2020-09-05T06:18:14Z</time>
      </trkpt>
      <trkpt lat="45.0472" lon="6.06339">
        <ele>1254.6</ele>
        <time>2020-09-05T06:18:15Z</time>
      </trkpt>
      <trkpt lat="45.04718" lon="6.0634">
        <ele>1254.8</ele>
        <time>2020-09-05T06:18:16Z</time>
      </trkpt>
      <trkpt lat="45.04714" lon="6.06343">
        <ele>1255.2</ele>
        <time>2020-09-05T06:18:18Z</time>
      </trkpt>
      <trkpt lat="45.04712" lon="6.06346">
        <ele>1255.4</ele>
        <time>2020-09-05T06:18:19Z</time>
      </trkpt>
      <trkpt lat="45.0471" lon="6.06349">
        <ele>1255.8</ele>
        <time>2020-09-05T06:18:20Z</time>
      </trkpt>
      <trkpt lat="45.04709" lon="6.06351">
        <ele>1256</ele>
        <time>2020-09-05T06:18:21Z</time>
      </trkpt>
      <trkpt lat="45.04708" lon="6.06354">
        <ele>1256.2</ele>
        <time>2020-09-05T06:18:22Z</time>
      </trkpt>
      <trkpt lat="45.04706" lon="6.06358">
        <ele>1256.8</ele>
        <time>2020-09-05T06:18:23Z</time>
      </trkpt>
      <trkpt lat="45.04705" lon="6.06361">
        <ele>1257</ele>
        <time>2020-09-05T06:18:24Z</time>
      </trkpt>
      <trkpt lat="45.04704" lon="6.06363">
        <ele>1257</ele>
        <time>2020-09-05T06:18:25Z</time>
      </trkpt>
      <trkpt lat="45.04703" lon="6.06366">
        <ele>1257.4</ele>
        <time>2020-09-05T06:18:26Z</time>
      </trkpt>
      <trkpt lat="45.04701" lon="6.06367">
        <ele>1257.6</ele>
        <time>2020-09-05T06:18:27Z</time>
      </trkpt>
      <trkpt lat="45.04698" lon="6.06368">
        <ele>1257.8</ele>
        <time>2020-09-05T06:18:28Z</time>
      </trkpt>
      <trkpt lat="45.04695" lon="6.06371">
        <ele>1258.2</ele>
        <time>2020-09-05T06:18:29Z</time>
      </trkpt>
      <trkpt lat="45.04685" lon="6.06379">
        <ele>1259</ele>
        <time>2020-09-05T06:18:33Z</time>
      </trkpt>
      <trkpt lat="45.04678" lon="6.06384">
        <ele>1259.4</ele>
        <time>2020-09-05T06:18:36Z</time>
      </trkpt>
      <trkpt lat="45.04674" lon="6.0639">
        <ele>1260</ele>
        <time>2020-09-05T06:18:38Z</time>
      </trkpt>
      <trkpt lat="45.04673" lon="6.06392">
        <ele>1260.2</ele>
        <time>2020-09-05T06:18:39Z</time>
      </trkpt>
      <trkpt lat="45.04671" lon="6.06395">
        <ele>1260.2</ele>
        <time>2020-09-05T06:18:40Z</time>
      </trkpt>
      <trkpt lat="45.04669" lon="6.06398">
        <ele>1260.4</ele>
        <time>2020-09-05T06:18:41Z</time>
      </trkpt>
      <trkpt lat="45.04667" lon="6.06401">
        <ele>1260.6</ele>
        <time>2020-09-05T06:18:42Z</time>
      </trkpt>
      <trkpt lat="45.04666" lon="6.06404">
        <ele>1260.8</ele>
        <time>2020-09-05T06:18:43Z</time>
      </trkpt>
      <trkpt lat="45.04664" lon="6.06406">
        <ele>1261.2</ele>
        <time>2020-09-05T06:18:44Z</time>
      </trkpt>
      <trkpt lat="45.04662" lon="6.06409">
        <ele>1261.4</ele>
        <time>2020-09-05T06:18:45Z</time>
      </trkpt>
      <trkpt lat="45.0466" lon="6.06411">
        <ele>1261.6</ele>
        <time>2020-09-05T06:18:46Z</time>
      </trkpt>
      <trkpt lat="45.04658" lon="6.06413">
        <ele>1261.8</ele>
        <time>2020-09-05T06:18:47Z</time>
      </trkpt>
      <trkpt lat="45.04656" lon="6.06416">
        <ele>1262</ele>
        <time>2020-09-05T06:18:48Z</time>
      </trkpt>
      <trkpt lat="45.04654" lon="6.06418">
        <ele>1262.2</ele>
        <time>2020-09-05T06:18:49Z</time>
      </trkpt>
      <trkpt lat="45.04652" lon="6.0642">
        <ele>1262.4</ele>
        <time>2020-09-05T06:18:50Z</time>
      </trkpt>
      <trkpt lat="45.0465" lon="6.06423">
        <ele>1262.6</ele>
        <time>2020-09-05T06:18:51Z</time>
      </trkpt>
      <trkpt lat="45.04648" lon="6.06425">
        <ele>1263</ele>
        <time>2020-09-05T06:18:52Z</time>
      </trkpt>
      <trkpt lat="45.04646" lon="6.06428">
        <ele>1263.2</ele>
        <time>2020-09-05T06:18:53Z</time>
      </trkpt>
      <trkpt lat="45.04644" lon="6.0643">
        <ele>1263.4</ele>
        <time>2020-09-05T06:18:54Z</time>
      </trkpt>
      <trkpt lat="45.04642" lon="6.06433">
        <ele>1263.6</ele>
        <time>2020-09-05T06:18:55Z</time>
      </trkpt>
      <trkpt lat="45.0464" lon="6.06436">
        <ele>1264</ele>
        <time>2020-09-05T06:18:56Z</time>
      </trkpt>
      <trkpt lat="45.04638" lon="6.06439">
        <ele>1264.2</ele>
        <time>2020-09-05T06:18:57Z</time>
      </trkpt>
      <trkpt lat="45.04637" lon="6.06442">
        <ele>1264.6</ele>
        <time>2020-09-05T06:18:58Z</time>
      </trkpt>
      <trkpt lat="45.04636" lon="6.06446">
        <ele>1264.8</ele>
        <time>2020-09-05T06:18:59Z</time>
      </trkpt>
      <trkpt lat="45.04561" lon="6.06493">
        <ele>1272.2</ele>
        <time>2020-09-05T06:19:30Z</time>
      </trkpt>
      <trkpt lat="45.0455" lon="6.06486">
        <ele>1272.8</ele>
        <time>2020-09-05T06:19:33Z</time>
      </trkpt>
      <trkpt lat="45.04541" lon="6.06487">
        <ele>1273.6</ele>
        <time>2020-09-05T06:19:36Z</time>
      </trkpt>
      <trkpt lat="45.0453" lon="6.06491">
        <ele>1274.2</ele>
        <time>2020-09-05T06:19:40Z</time>
      </trkpt>
      <trkpt lat="45.04518" lon="6.06496">
        <ele>1274.8</ele>
        <time>2020-09-05T06:19:44Z</time>
      </trkpt>
      <trkpt lat="45.0451" lon="6.065">
        <ele>1275.6</ele>
        <time>2020-09-05T06:19:47Z</time>
      </trkpt>
      <trkpt lat="45.04499" lon="6.06504">
        <ele>1276.4</ele>
        <time>2020-09-05T06:19:51Z</time>
      </trkpt>
      <trkpt lat="45.0449" lon="6.06513">
        <ele>1277.2</ele>
        <time>2020-09-05T06:19:55Z</time>
      </trkpt>
      <trkpt lat="45.04481" lon="6.06522">
        <ele>1278.2</ele>
        <time>2020-09-05T06:19:59Z</time>
      </trkpt>
      <trkpt lat="45.04479" lon="6.06524">
        <ele>1278.4</ele>
        <time>2020-09-05T06:20:00Z</time>
      </trkpt>
      <trkpt lat="45.04477" lon="6.06526">
        <ele>1278.8</ele>
        <time>2020-09-05T06:20:01Z</time>
      </trkpt>
      <trkpt lat="45.04475" lon="6.06528">
        <ele>1278.8</ele>
        <time>2020-09-05T06:20:02Z</time>
      </trkpt>
      <trkpt lat="45.0447" lon="6.06532">
        <ele>1279</ele>
        <time>2020-09-05T06:20:04Z</time>
      </trkpt>
      <trkpt lat="45.04468" lon="6.06533">
        <ele>1279.4</ele>
        <time>2020-09-05T06:20:05Z</time>
      </trkpt>
      <trkpt lat="45.04466" lon="6.06535">
        <ele>1279.6</ele>
        <time>2020-09-05T06:20:06Z</time>
      </trkpt>
      <trkpt lat="45.04464" lon="6.06537">
        <ele>1279.8</ele>
        <time>2020-09-05T06:20:07Z</time>
      </trkpt>
      <trkpt lat="45.04462" lon="6.06538">
        <ele>1279.8</ele>
        <time>2020-09-05T06:20:08Z</time>
      </trkpt>
      <trkpt lat="45.0446" lon="6.0654">
        <ele>1280</ele>
        <time>2020-09-05T06:20:09Z</time>
      </trkpt>
      <trkpt lat="45.04458" lon="6.06542">
        <ele>1280.4</ele>
        <time>2020-09-05T06:20:10Z</time>
      </trkpt>
      <trkpt lat="45.04456" lon="6.06545">
        <ele>1280.6</ele>
        <time>2020-09-05T06:20:11Z</time>
      </trkpt>
      <trkpt lat="45.04454" lon="6.06548">
        <ele>1280.8</ele>
        <time>2020-09-05T06:20:12Z</time>
      </trkpt>
      <trkpt lat="45.04452" lon="6.06551">
        <ele>1281</ele>
        <time>2020-09-05T06:20:13Z</time>
      </trkpt>
      <trkpt lat="45.0445" lon="6.06554">
        <ele>1281.4</ele>
        <time>2020-09-05T06:20:14Z</time>
      </trkpt>
      <trkpt lat="45.04447" lon="6.06557">
        <ele>1281.6</ele>
        <time>2020-09-05T06:20:15Z</time>
      </trkpt>
      <trkpt lat="45.04445" lon="6.0656">
        <ele>1281.8</ele>
        <time>2020-09-05T06:20:16Z</time>
      </trkpt>
      <trkpt lat="45.04443" lon="6.06563">
        <ele>1282.2</ele>
        <time>2020-09-05T06:20:17Z</time>
      </trkpt>
      <trkpt lat="45.04441" lon="6.06566">
        <ele>1282.4</ele>
        <time>2020-09-05T06:20:18Z</time>
      </trkpt>
      <trkpt lat="45.0444" lon="6.06568">
        <ele>1282.8</ele>
        <time>2020-09-05T06:20:19Z</time>
      </trkpt>
      <trkpt lat="45.04438" lon="6.06571">
        <ele>1282.6</ele>
        <time>2020-09-05T06:20:20Z</time>
      </trkpt>
      <trkpt lat="45.04436" lon="6.06575">
        <ele>1282.8</ele>
        <time>2020-09-05T06:20:21Z</time>
      </trkpt>
      <trkpt lat="45.04435" lon="6.06578">
        <ele>1283.2</ele>
        <time>2020-09-05T06:20:22Z</time>
      </trkpt>
      <trkpt lat="45.04434" lon="6.06582">
        <ele>1283.4</ele>
        <time>2020-09-05T06:20:23Z</time>
      </trkpt>
      <trkpt lat="45.04433" lon="6.06585">
        <ele>1283.6</ele>
        <time>2020-09-05T06:20:24Z</time>
      </trkpt>
      <trkpt lat="45.04432" lon="6.06589">
        <ele>1283.6</ele>
        <time>2020-09-05T06:20:25Z</time>
      </trkpt>
      <trkpt lat="45.04431" lon="6.06593">
        <ele>1284</ele>
        <time>2020-09-05T06:20:26Z</time>
      </trkpt>
      <trkpt lat="45.0443" lon="6.06597">
        <ele>1284.2</ele>
        <time>2020-09-05T06:20:27Z</time>
      </trkpt>
      <trkpt lat="45.04429" lon="6.06601">
        <ele>1284.4</ele>
        <time>2020-09-05T06:20:28Z</time>
      </trkpt>
      <trkpt lat="45.04428" lon="6.06604">
        <ele>1284.6</ele>
        <time>2020-09-05T06:20:29Z</time>
      </trkpt>
      <trkpt lat="45.04427" lon="6.06608">
        <ele>1285</ele>
        <time>2020-09-05T06:20:30Z</time>
      </trkpt>
      <trkpt lat="45.04426" lon="6.06611">
        <ele>1285</ele>
        <time>2020-09-05T06:20:31Z</time>
      </trkpt>
      <trkpt lat="45.04424" lon="6.06615">
        <ele>1285.4</ele>
        <time>2020-09-05T06:20:32Z</time>
      </trkpt>
      <trkpt lat="45.04423" lon="6.06618">
        <ele>1285.4</ele>
        <time>2020-09-05T06:20:33Z</time>
      </trkpt>
      <trkpt lat="45.04421" lon="6.06621">
        <ele>1285.6</ele>
        <time>2020-09-05T06:20:34Z</time>
      </trkpt>
      <trkpt lat="45.04419" lon="6.06624">
        <ele>1285.8</ele>
        <time>2020-09-05T06:20:35Z</time>
      </trkpt>
      <trkpt lat="45.04418" lon="6.06627">
        <ele>1286</ele>
        <time>2020-09-05T06:20:36Z</time>
      </trkpt>
      <trkpt lat="45.04417" lon="6.06629">
        <ele>1286.2</ele>
        <time>2020-09-05T06:20:37Z</time>
      </trkpt>
      <trkpt lat="45.0441" lon="6.06637">
        <ele>1286.8</ele>
        <time>2020-09-05T06:20:40Z</time>
      </trkpt>
      <trkpt lat="45.04407" lon="6.06641">
        <ele>1287</ele>
        <time>2020-09-05T06:20:41Z</time>
      </trkpt>
      <trkpt lat="45.04404" lon="6.06644">
        <ele>1287.4</ele>
        <time>2020-09-05T06:20:42Z</time>
      </trkpt>
      <trkpt lat="45.04401" lon="6.06648">
        <ele>1287.6</ele>
        <time>2020-09-05T06:20:43Z</time>
      </trkpt>
      <trkpt lat="45.04398" lon="6.0665">
        <ele>1287.6</ele>
        <time>2020-09-05T06:20:44Z</time>
      </trkpt>
      <trkpt lat="45.04396" lon="6.06653">
        <ele>1288</ele>
        <time>2020-09-05T06:20:45Z</time>
      </trkpt>
      <trkpt lat="45.04393" lon="6.06656">
        <ele>1288.2</ele>
        <time>2020-09-05T06:20:46Z</time>
      </trkpt>
      <trkpt lat="45.04391" lon="6.06659">
        <ele>1288.4</ele>
        <time>2020-09-05T06:20:47Z</time>
      </trkpt>
      <trkpt lat="45.04388" lon="6.06661">
        <ele>1288.6</ele>
        <time>2020-09-05T06:20:48Z</time>
      </trkpt>
      <trkpt lat="45.04385" lon="6.06664">
        <ele>1288.8</ele>
        <time>2020-09-05T06:20:49Z</time>
      </trkpt>
      <trkpt lat="45.04382" lon="6.06666">
        <ele>1288.8</ele>
        <time>2020-09-05T06:20:50Z</time>
      </trkpt>
      <trkpt lat="45.04379" lon="6.06669">
        <ele>1289</ele>
        <time>2020-09-05T06:20:51Z</time>
      </trkpt>
      <trkpt lat="45.04377" lon="6.06671">
        <ele>1289.2</ele>
        <time>2020-09-05T06:20:52Z</time>
      </trkpt>
      <trkpt lat="45.04374" lon="6.06673">
        <ele>1289.4</ele>
        <time>2020-09-05T06:20:53Z</time>
      </trkpt>
      <trkpt lat="45.04371" lon="6.06675">
        <ele>1289.6</ele>
        <time>2020-09-05T06:20:54Z</time>
      </trkpt>
      <trkpt lat="45.04365" lon="6.0668">
        <ele>1290</ele>
        <time>2020-09-05T06:20:56Z</time>
      </trkpt>
      <trkpt lat="45.04363" lon="6.06683">
        <ele>1290.2</ele>
        <time>2020-09-05T06:20:57Z</time>
      </trkpt>
      <trkpt lat="45.0436" lon="6.06686">
        <ele>1290.4</ele>
        <time>2020-09-05T06:20:58Z</time>
      </trkpt>
      <trkpt lat="45.04358" lon="6.06689">
        <ele>1290.6</ele>
        <time>2020-09-05T06:20:59Z</time>
      </trkpt>
      <trkpt lat="45.04357" lon="6.06693">
        <ele>1290.6</ele>
        <time>2020-09-05T06:21:00Z</time>
      </trkpt>
      <trkpt lat="45.04355" lon="6.06696">
        <ele>1290.8</ele>
        <time>2020-09-05T06:21:01Z</time>
      </trkpt>
      <trkpt lat="45.04353" lon="6.06699">
        <ele>1290.8</ele>
        <time>2020-09-05T06:21:02Z</time>
      </trkpt>
      <trkpt lat="45.04351" lon="6.06702">
        <ele>1291</ele>
        <time>2020-09-05T06:21:03Z</time>
      </trkpt>
      <trkpt lat="45.04349" lon="6.06706">
        <ele>1291.2</ele>
        <time>2020-09-05T06:21:04Z</time>
      </trkpt>
      <trkpt lat="45.04347" lon="6.06709">
        <ele>1291.2</ele>
        <time>2020-09-05T06:21:05Z</time>
      </trkpt>
      <trkpt lat="45.04344" lon="6.06712">
        <ele>1291.6</ele>
        <time>2020-09-05T06:21:06Z</time>
      </trkpt>
      <trkpt lat="45.04342" lon="6.06715">
        <ele>1291.6</ele>
        <time>2020-09-05T06:21:07Z</time>
      </trkpt>
      <trkpt lat="45.0434" lon="6.06719">
        <ele>1291.8</ele>
        <time>2020-09-05T06:21:08Z</time>
      </trkpt>
      <trkpt lat="45.04337" lon="6.06722">
        <ele>1292.2</ele>
        <time>2020-09-05T06:21:09Z</time>
      </trkpt>
      <trkpt lat="45.04335" lon="6.06726">
        <ele>1292.2</ele>
        <time>2020-09-05T06:21:10Z</time>
      </trkpt>
      <trkpt lat="45.04333" lon="6.06729">
        <ele>1292.6</ele>
        <time>2020-09-05T06:21:11Z</time>
      </trkpt>
      <trkpt lat="45.04331" lon="6.06733">
        <ele>1292.8</ele>
        <time>2020-09-05T06:21:12Z</time>
      </trkpt>
      <trkpt lat="45.04328" lon="6.06736">
        <ele>1292.8</ele>
        <time>2020-09-05T06:21:13Z</time>
      </trkpt>
      <trkpt lat="45.04326" lon="6.0674">
        <ele>1293</ele>
        <time>2020-09-05T06:21:14Z</time>
      </trkpt>
      <trkpt lat="45.04324" lon="6.06744">
        <ele>1293.2</ele>
        <time>2020-09-05T06:21:15Z</time>
      </trkpt>
      <trkpt lat="45.04322" lon="6.06747">
        <ele>1293.4</ele>
        <time>2020-09-05T06:21:16Z</time>
      </trkpt>
      <trkpt lat="45.04319" lon="6.06751">
        <ele>1293.6</ele>
        <time>2020-09-05T06:21:17Z</time>
      </trkpt>
      <trkpt lat="45.04317" lon="6.06754">
        <ele>1293.4</ele>
        <time>2020-09-05T06:21:18Z</time>
      </trkpt>
      <trkpt lat="45.04314" lon="6.06758">
        <ele>1293.4</ele>
        <time>2020-09-05T06:21:19Z</time>
      </trkpt>
      <trkpt lat="45.04311" lon="6.06761">
        <ele>1293.8</ele>
        <time>2020-09-05T06:21:20Z</time>
      </trkpt>
      <trkpt lat="45.04308" lon="6.06765">
        <ele>1293.8</ele>
        <time>2020-09-05T06:21:21Z</time>
      </trkpt>
      <trkpt lat="45.04306" lon="6.06769">
        <ele>1294</ele>
        <time>2020-09-05T06:21:22Z</time>
      </trkpt>
      <trkpt lat="45.04303" lon="6.06773">
        <ele>1294.2</ele>
        <time>2020-09-05T06:21:23Z</time>
      </trkpt>
      <trkpt lat="45.043" lon="6.06777">
        <ele>1294.2</ele>
        <time>2020-09-05T06:21:24Z</time>
      </trkpt>
      <trkpt lat="45.04298" lon="6.06782">
        <ele>1294.2</ele>
        <time>2020-09-05T06:21:25Z</time>
      </trkpt>
      <trkpt lat="45.04296" lon="6.06786">
        <ele>1294.4</ele>
        <time>2020-09-05T06:21:26Z</time>
      </trkpt>
      <trkpt lat="45.04293" lon="6.06791">
        <ele>1294.6</ele>
        <time>2020-09-05T06:21:27Z</time>
      </trkpt>
      <trkpt lat="45.0429" lon="6.06795">
        <ele>1294.8</ele>
        <time>2020-09-05T06:21:28Z</time>
      </trkpt>
      <trkpt lat="45.04286" lon="6.06799">
        <ele>1294.6</ele>
        <time>2020-09-05T06:21:29Z</time>
      </trkpt>
      <trkpt lat="45.04283" lon="6.06803">
        <ele>1294.8</ele>
        <time>2020-09-05T06:21:30Z</time>
      </trkpt>
      <trkpt lat="45.0428" lon="6.06806">
        <ele>1295</ele>
        <time>2020-09-05T06:21:31Z</time>
      </trkpt>
      <trkpt lat="45.04276" lon="6.0681">
        <ele>1295.2</ele>
        <time>2020-09-05T06:21:32Z</time>
      </trkpt>
      <trkpt lat="45.04272" lon="6.06814">
        <ele>1295.6</ele>
        <time>2020-09-05T06:21:33Z</time>
      </trkpt>
      <trkpt lat="45.04269" lon="6.06817">
        <ele>1295.6</ele>
        <time>2020-09-05T06:21:34Z</time>
      </trkpt>
      <trkpt lat="45.04265" lon="6.06821">
        <ele>1295.8</ele>
        <time>2020-09-05T06:21:35Z</time>
      </trkpt>
      <trkpt lat="45.04263" lon="6.06825">
        <ele>1295.8</ele>
        <time>2020-09-05T06:21:36Z</time>
      </trkpt>
      <trkpt lat="45.04261" lon="6.06831">
        <ele>1296</ele>
        <time>2020-09-05T06:21:37Z</time>
      </trkpt>
      <trkpt lat="45.04259" lon="6.06836">
        <ele>1296</ele>
        <time>2020-09-05T06:21:38Z</time>
      </trkpt>
      <trkpt lat="45.04258" lon="6.06842">
        <ele>1296</ele>
        <time>2020-09-05T06:21:39Z</time>
      </trkpt>
      <trkpt lat="45.04256" lon="6.06848">
        <ele>1296.2</ele>
        <time>2020-09-05T06:21:40Z</time>
      </trkpt>
      <trkpt lat="45.04253" lon="6.06852">
        <ele>1296.4</ele>
        <time>2020-09-05T06:21:41Z</time>
      </trkpt>
      <trkpt lat="45.0425" lon="6.06855">
        <ele>1296.6</ele>
        <time>2020-09-05T06:21:42Z</time>
      </trkpt>
      <trkpt lat="45.04246" lon="6.06856">
        <ele>1296.8</ele>
        <time>2020-09-05T06:21:43Z</time>
      </trkpt>
      <trkpt lat="45.04241" lon="6.06856">
        <ele>1297</ele>
        <time>2020-09-05T06:21:44Z</time>
      </trkpt>
      <trkpt lat="45.04237" lon="6.06857">
        <ele>1297.2</ele>
        <time>2020-09-05T06:21:45Z</time>
      </trkpt>
      <trkpt lat="45.04233" lon="6.06857">
        <ele>1297.4</ele>
        <time>2020-09-05T06:21:46Z</time>
      </trkpt>
      <trkpt lat="45.04229" lon="6.06858">
        <ele>1297.6</ele>
        <time>2020-09-05T06:21:47Z</time>
      </trkpt>
      <trkpt lat="45.04226" lon="6.0686">
        <ele>1297.4</ele>
        <time>2020-09-05T06:21:48Z</time>
      </trkpt>
      <trkpt lat="45.04221" lon="6.06863">
        <ele>1297.6</ele>
        <time>2020-09-05T06:21:49Z</time>
      </trkpt>
      <trkpt lat="45.04217" lon="6.06864">
        <ele>1298</ele>
        <time>2020-09-05T06:21:50Z</time>
      </trkpt>
      <trkpt lat="45.04213" lon="6.06866">
        <ele>1298.2</ele>
        <time>2020-09-05T06:21:51Z</time>
      </trkpt>
      <trkpt lat="45.04208" lon="6.06868">
        <ele>1298.2</ele>
        <time>2020-09-05T06:21:52Z</time>
      </trkpt>
      <trkpt lat="45.04204" lon="6.0687">
        <ele>1298.4</ele>
        <time>2020-09-05T06:21:53Z</time>
      </trkpt>
      <trkpt lat="45.04199" lon="6.06872">
        <ele>1298.4</ele>
        <time>2020-09-05T06:21:54Z</time>
      </trkpt>
      <trkpt lat="45.04195" lon="6.06875">
        <ele>1298.6</ele>
        <time>2020-09-05T06:21:55Z</time>
      </trkpt>
      <trkpt lat="45.04191" lon="6.06877">
        <ele>1298.8</ele>
        <time>2020-09-05T06:21:56Z</time>
      </trkpt>
      <trkpt lat="45.04188" lon="6.06881">
        <ele>1298.6</ele>
        <time>2020-09-05T06:21:57Z</time>
      </trkpt>
      <trkpt lat="45.04184" lon="6.06885">
        <ele>1299</ele>
        <time>2020-09-05T06:21:58Z</time>
      </trkpt>
      <trkpt lat="45.04181" lon="6.06888">
        <ele>1299.2</ele>
        <time>2020-09-05T06:21:59Z</time>
      </trkpt>
      <trkpt lat="45.04178" lon="6.06892">
        <ele>1299.4</ele>
        <time>2020-09-05T06:22:00Z</time>
      </trkpt>
      <trkpt lat="45.04174" lon="6.06896">
        <ele>1299.6</ele>
        <time>2020-09-05T06:22:01Z</time>
      </trkpt>
      <trkpt lat="45.04171" lon="6.069">
        <ele>1299.8</ele>
        <time>2020-09-05T06:22:02Z</time>
      </trkpt>
      <trkpt lat="45.04168" lon="6.06903">
        <ele>1300</ele>
        <time>2020-09-05T06:22:03Z</time>
      </trkpt>
      <trkpt lat="45.04165" lon="6.06906">
        <ele>1300</ele>
        <time>2020-09-05T06:22:04Z</time>
      </trkpt>
      <trkpt lat="45.04161" lon="6.06909">
        <ele>1300.2</ele>
        <time>2020-09-05T06:22:05Z</time>
      </trkpt>
      <trkpt lat="45.04158" lon="6.06912">
        <ele>1300.6</ele>
        <time>2020-09-05T06:22:06Z</time>
      </trkpt>
      <trkpt lat="45.04155" lon="6.06915">
        <ele>1300.8</ele>
        <time>2020-09-05T06:22:07Z</time>
      </trkpt>
      <trkpt lat="45.04152" lon="6.06918">
        <ele>1301</ele>
        <time>2020-09-05T06:22:08Z</time>
      </trkpt>
      <trkpt lat="45.04145" lon="6.06931">
        <ele>1301.8</ele>
        <time>2020-09-05T06:22:11Z</time>
      </trkpt>
      <trkpt lat="45.04142" lon="6.06942">
        <ele>1302.6</ele>
        <time>2020-09-05T06:22:13Z</time>
      </trkpt>
      <trkpt lat="45.04141" lon="6.06947">
        <ele>1303</ele>
        <time>2020-09-05T06:22:14Z</time>
      </trkpt>
      <trkpt lat="45.04139" lon="6.06952">
        <ele>1303.2</ele>
        <time>2020-09-05T06:22:15Z</time>
      </trkpt>
      <trkpt lat="45.04138" lon="6.06958">
        <ele>1303.6</ele>
        <time>2020-09-05T06:22:16Z</time>
      </trkpt>
      <trkpt lat="45.04136" lon="6.06963">
        <ele>1303.6</ele>
        <time>2020-09-05T06:22:17Z</time>
      </trkpt>
      <trkpt lat="45.04135" lon="6.06969">
        <ele>1303.8</ele>
        <time>2020-09-05T06:22:18Z</time>
      </trkpt>
      <trkpt lat="45.04133" lon="6.06974">
        <ele>1304</ele>
        <time>2020-09-05T06:22:19Z</time>
      </trkpt>
      <trkpt lat="45.0413" lon="6.06978">
        <ele>1304.2</ele>
        <time>2020-09-05T06:22:20Z</time>
      </trkpt>
      <trkpt lat="45.04127" lon="6.06982">
        <ele>1304.4</ele>
        <time>2020-09-05T06:22:21Z</time>
      </trkpt>
      <trkpt lat="45.04123" lon="6.06985">
        <ele>1304.6</ele>
        <time>2020-09-05T06:22:22Z</time>
      </trkpt>
      <trkpt lat="45.04119" lon="6.06986">
        <ele>1304.6</ele>
        <time>2020-09-05T06:22:23Z</time>
      </trkpt>
      <trkpt lat="45.04115" lon="6.06986">
        <ele>1304.8</ele>
        <time>2020-09-05T06:22:24Z</time>
      </trkpt>
      <trkpt lat="45.04111" lon="6.06985">
        <ele>1305</ele>
        <time>2020-09-05T06:22:25Z</time>
      </trkpt>
      <trkpt lat="45.04107" lon="6.06984">
        <ele>1305</ele>
        <time>2020-09-05T06:22:26Z</time>
      </trkpt>
      <trkpt lat="45.04103" lon="6.06983">
        <ele>1305</ele>
        <time>2020-09-05T06:22:27Z</time>
      </trkpt>
      <trkpt lat="45.041" lon="6.06982">
        <ele>1305.2</ele>
        <time>2020-09-05T06:22:28Z</time>
      </trkpt>
      <trkpt lat="45.04095" lon="6.06981">
        <ele>1305.2</ele>
        <time>2020-09-05T06:22:29Z</time>
      </trkpt>
      <trkpt lat="45.04091" lon="6.0698">
        <ele>1305.2</ele>
        <time>2020-09-05T06:22:30Z</time>
      </trkpt>
      <trkpt lat="45.04087" lon="6.0698">
        <ele>1305.4</ele>
        <time>2020-09-05T06:22:31Z</time>
      </trkpt>
      <trkpt lat="45.04083" lon="6.06979">
        <ele>1305.8</ele>
        <time>2020-09-05T06:22:32Z</time>
      </trkpt>
      <trkpt lat="45.04079" lon="6.06978">
        <ele>1305.8</ele>
        <time>2020-09-05T06:22:33Z</time>
      </trkpt>
      <trkpt lat="45.04076" lon="6.06977">
        <ele>1306</ele>
        <time>2020-09-05T06:22:34Z</time>
      </trkpt>
      <trkpt lat="45.04065" lon="6.06976">
        <ele>1306.6</ele>
        <time>2020-09-05T06:22:37Z</time>
      </trkpt>
      <trkpt lat="45.04053" lon="6.06981">
        <ele>1306.8</ele>
        <time>2020-09-05T06:22:40Z</time>
      </trkpt>
      <trkpt lat="45.04046" lon="6.06987">
        <ele>1307.2</ele>
        <time>2020-09-05T06:22:42Z</time>
      </trkpt>
      <trkpt lat="45.04043" lon="6.06991">
        <ele>1307.4</ele>
        <time>2020-09-05T06:22:43Z</time>
      </trkpt>
      <trkpt lat="45.0404" lon="6.06995">
        <ele>1307.6</ele>
        <time>2020-09-05T06:22:44Z</time>
      </trkpt>
      <trkpt lat="45.04037" lon="6.06999">
        <ele>1308</ele>
        <time>2020-09-05T06:22:45Z</time>
      </trkpt>
      <trkpt lat="45.04033" lon="6.07002">
        <ele>1308</ele>
        <time>2020-09-05T06:22:46Z</time>
      </trkpt>
      <trkpt lat="45.04029" lon="6.07004">
        <ele>1308</ele>
        <time>2020-09-05T06:22:47Z</time>
      </trkpt>
      <trkpt lat="45.04025" lon="6.07005">
        <ele>1308.2</ele>
        <time>2020-09-05T06:22:48Z</time>
      </trkpt>
      <trkpt lat="45.0402" lon="6.07005">
        <ele>1308.4</ele>
        <time>2020-09-05T06:22:49Z</time>
      </trkpt>
      <trkpt lat="45.04016" lon="6.07005">
        <ele>1308.4</ele>
        <time>2020-09-05T06:22:50Z</time>
      </trkpt>
      <trkpt lat="45.04012" lon="6.07005">
        <ele>1308.6</ele>
        <time>2020-09-05T06:22:51Z</time>
      </trkpt>
      <trkpt lat="45.04008" lon="6.07005">
        <ele>1308.8</ele>
        <time>2020-09-05T06:22:52Z</time>
      </trkpt>
      <trkpt lat="45.04004" lon="6.07004">
        <ele>1309</ele>
        <time>2020-09-05T06:22:53Z</time>
      </trkpt>
      <trkpt lat="45.03999" lon="6.07004">
        <ele>1309</ele>
        <time>2020-09-05T06:22:54Z</time>
      </trkpt>
      <trkpt lat="45.03995" lon="6.07005">
        <ele>1309</ele>
        <time>2020-09-05T06:22:55Z</time>
      </trkpt>
      <trkpt lat="45.0399" lon="6.07005">
        <ele>1309.4</ele>
        <time>2020-09-05T06:22:56Z</time>
      </trkpt>
      <trkpt lat="45.03986" lon="6.07006">
        <ele>1309.4</ele>
        <time>2020-09-05T06:22:57Z</time>
      </trkpt>
      <trkpt lat="45.03982" lon="6.07008">
        <ele>1309.4</ele>
        <time>2020-09-05T06:22:58Z</time>
      </trkpt>
      <trkpt lat="45.03978" lon="6.0701">
        <ele>1309.6</ele>
        <time>2020-09-05T06:22:59Z</time>
      </trkpt>
      <trkpt lat="45.03974" lon="6.07012">
        <ele>1309.8</ele>
        <time>2020-09-05T06:23:00Z</time>
      </trkpt>
      <trkpt lat="45.0397" lon="6.07014">
        <ele>1309.8</ele>
        <time>2020-09-05T06:23:01Z</time>
      </trkpt>
      <trkpt lat="45.03966" lon="6.07015">
        <ele>1309.8</ele>
        <time>2020-09-05T06:23:02Z</time>
      </trkpt>
      <trkpt lat="45.03962" lon="6.07016">
        <ele>1310</ele>
        <time>2020-09-05T06:23:03Z</time>
      </trkpt>
      <trkpt lat="45.03958" lon="6.07017">
        <ele>1310.4</ele>
        <time>2020-09-05T06:23:04Z</time>
      </trkpt>
      <trkpt lat="45.03954" lon="6.07019">
        <ele>1310.4</ele>
        <time>2020-09-05T06:23:05Z</time>
      </trkpt>
      <trkpt lat="45.0395" lon="6.07019">
        <ele>1310.8</ele>
        <time>2020-09-05T06:23:06Z</time>
      </trkpt>
      <trkpt lat="45.03946" lon="6.07021">
        <ele>1311</ele>
        <time>2020-09-05T06:23:07Z</time>
      </trkpt>
      <trkpt lat="45.03942" lon="6.07023">
        <ele>1311</ele>
        <time>2020-09-05T06:23:08Z</time>
      </trkpt>
      <trkpt lat="45.03938" lon="6.07025">
        <ele>1311.4</ele>
        <time>2020-09-05T06:23:09Z</time>
      </trkpt>
      <trkpt lat="45.03935" lon="6.07029">
        <ele>1311.4</ele>
        <time>2020-09-05T06:23:10Z</time>
      </trkpt>
      <trkpt lat="45.03932" lon="6.07033">
        <ele>1311.6</ele>
        <time>2020-09-05T06:23:11Z</time>
      </trkpt>
      <trkpt lat="45.03928" lon="6.07036">
        <ele>1311.6</ele>
        <time>2020-09-05T06:23:12Z</time>
      </trkpt>
      <trkpt lat="45.03917" lon="6.07044">
        <ele>1312.2</ele>
        <time>2020-09-05T06:23:15Z</time>
      </trkpt>
      <trkpt lat="45.03912" lon="6.07046">
        <ele>1312.6</ele>
        <time>2020-09-05T06:23:16Z</time>
      </trkpt>
      <trkpt lat="45.03908" lon="6.07048">
        <ele>1312.8</ele>
        <time>2020-09-05T06:23:17Z</time>
      </trkpt>
      <trkpt lat="45.03904" lon="6.07051">
        <ele>1312.8</ele>
        <time>2020-09-05T06:23:18Z</time>
      </trkpt>
      <trkpt lat="45.03901" lon="6.07054">
        <ele>1313.2</ele>
        <time>2020-09-05T06:23:19Z</time>
      </trkpt>
      <trkpt lat="45.03897" lon="6.07057">
        <ele>1313.4</ele>
        <time>2020-09-05T06:23:20Z</time>
      </trkpt>
      <trkpt lat="45.03893" lon="6.07059">
        <ele>1313.6</ele>
        <time>2020-09-05T06:23:21Z</time>
      </trkpt>
      <trkpt lat="45.03888" lon="6.07062">
        <ele>1313.8</ele>
        <time>2020-09-05T06:23:22Z</time>
      </trkpt>
      <trkpt lat="45.03884" lon="6.07064">
        <ele>1313.8</ele>
        <time>2020-09-05T06:23:23Z</time>
      </trkpt>
      <trkpt lat="45.0388" lon="6.07064">
        <ele>1313.8</ele>
        <time>2020-09-05T06:23:24Z</time>
      </trkpt>
      <trkpt lat="45.03875" lon="6.07064">
        <ele>1314</ele>
        <time>2020-09-05T06:23:25Z</time>
      </trkpt>
      <trkpt lat="45.03871" lon="6.07064">
        <ele>1314.2</ele>
        <time>2020-09-05T06:23:26Z</time>
      </trkpt>
      <trkpt lat="45.03867" lon="6.07063">
        <ele>1314.2</ele>
        <time>2020-09-05T06:23:27Z</time>
      </trkpt>
      <trkpt lat="45.03863" lon="6.07063">
        <ele>1314.4</ele>
        <time>2020-09-05T06:23:28Z</time>
      </trkpt>
      <trkpt lat="45.03858" lon="6.07063">
        <ele>1314.4</ele>
        <time>2020-09-05T06:23:29Z</time>
      </trkpt>
      <trkpt lat="45.03854" lon="6.07064">
        <ele>1314.4</ele>
        <time>2020-09-05T06:23:30Z</time>
      </trkpt>
      <trkpt lat="45.0385" lon="6.07067">
        <ele>1314.2</ele>
        <time>2020-09-05T06:23:31Z</time>
      </trkpt>
      <trkpt lat="45.03847" lon="6.07071">
        <ele>1314.2</ele>
        <time>2020-09-05T06:23:32Z</time>
      </trkpt>
      <trkpt lat="45.03844" lon="6.07076">
        <ele>1314</ele>
        <time>2020-09-05T06:23:33Z</time>
      </trkpt>
      <trkpt lat="45.03841" lon="6.07081">
        <ele>1313.8</ele>
        <time>2020-09-05T06:23:34Z</time>
      </trkpt>
      <trkpt lat="45.03839" lon="6.07088">
        <ele>1314</ele>
        <time>2020-09-05T06:23:35Z</time>
      </trkpt>
      <trkpt lat="45.03837" lon="6.07094">
        <ele>1314</ele>
        <time>2020-09-05T06:23:36Z</time>
      </trkpt>
      <trkpt lat="45.03836" lon="6.07101">
        <ele>1313.8</ele>
        <time>2020-09-05T06:23:37Z</time>
      </trkpt>
      <trkpt lat="45.03835" lon="6.07109">
        <ele>1313.8</ele>
        <time>2020-09-05T06:23:38Z</time>
      </trkpt>
      <trkpt lat="45.03833" lon="6.07117">
        <ele>1313.4</ele>
        <time>2020-09-05T06:23:39Z</time>
      </trkpt>
      <trkpt lat="45.03831" lon="6.07124">
        <ele>1313.2</ele>
        <time>2020-09-05T06:23:40Z</time>
      </trkpt>
      <trkpt lat="45.03829" lon="6.07132">
        <ele>1313.2</ele>
        <time>2020-09-05T06:23:41Z</time>
      </trkpt>
      <trkpt lat="45.03826" lon="6.07139">
        <ele>1313</ele>
        <time>2020-09-05T06:23:42Z</time>
      </trkpt>
      <trkpt lat="45.03822" lon="6.07147">
        <ele>1312.8</ele>
        <time>2020-09-05T06:23:43Z</time>
      </trkpt>
      <trkpt lat="45.03819" lon="6.07154">
        <ele>1312.6</ele>
        <time>2020-09-05T06:23:44Z</time>
      </trkpt>
      <trkpt lat="45.03816" lon="6.07162">
        <ele>1312.2</ele>
        <time>2020-09-05T06:23:45Z</time>
      </trkpt>
      <trkpt lat="45.03812" lon="6.0717">
        <ele>1312</ele>
        <time>2020-09-05T06:23:46Z</time>
      </trkpt>
      <trkpt lat="45.03807" lon="6.07178">
        <ele>1312</ele>
        <time>2020-09-05T06:23:47Z</time>
      </trkpt>
      <trkpt lat="45.03803" lon="6.07186">
        <ele>1311.6</ele>
        <time>2020-09-05T06:23:48Z</time>
      </trkpt>
      <trkpt lat="45.03798" lon="6.07193">
        <ele>1311.4</ele>
        <time>2020-09-05T06:23:49Z</time>
      </trkpt>
      <trkpt lat="45.03793" lon="6.07201">
        <ele>1311</ele>
        <time>2020-09-05T06:23:50Z</time>
      </trkpt>
      <trkpt lat="45.03788" lon="6.07209">
        <ele>1310.8</ele>
        <time>2020-09-05T06:23:51Z</time>
      </trkpt>
      <trkpt lat="45.03784" lon="6.07217">
        <ele>1310.8</ele>
        <time>2020-09-05T06:23:52Z</time>
      </trkpt>
      <trkpt lat="45.03781" lon="6.07226">
        <ele>1310.4</ele>
        <time>2020-09-05T06:23:53Z</time>
      </trkpt>
      <trkpt lat="45.03777" lon="6.07236">
        <ele>1310.4</ele>
        <time>2020-09-05T06:23:54Z</time>
      </trkpt>
      <trkpt lat="45.03772" lon="6.07244">
        <ele>1310.2</ele>
        <time>2020-09-05T06:23:55Z</time>
      </trkpt>
      <trkpt lat="45.03767" lon="6.07252">
        <ele>1309.8</ele>
        <time>2020-09-05T06:23:56Z</time>
      </trkpt>
      <trkpt lat="45.03761" lon="6.07259">
        <ele>1309.6</ele>
        <time>2020-09-05T06:23:57Z</time>
      </trkpt>
      <trkpt lat="45.03754" lon="6.07265">
        <ele>1309.4</ele>
        <time>2020-09-05T06:23:58Z</time>
      </trkpt>
      <trkpt lat="45.03748" lon="6.07271">
        <ele>1309.2</ele>
        <time>2020-09-05T06:23:59Z</time>
      </trkpt>
      <trkpt lat="45.03743" lon="6.07279">
        <ele>1309</ele>
        <time>2020-09-05T06:24:00Z</time>
      </trkpt>
      <trkpt lat="45.03741" lon="6.07287">
        <ele>1308.8</ele>
        <time>2020-09-05T06:24:01Z</time>
      </trkpt>
      <trkpt lat="45.03742" lon="6.07296">
        <ele>1308.4</ele>
        <time>2020-09-05T06:24:02Z</time>
      </trkpt>
      <trkpt lat="45.03745" lon="6.07304">
        <ele>1308</ele>
        <time>2020-09-05T06:24:03Z</time>
      </trkpt>
      <trkpt lat="45.0375" lon="6.07312">
        <ele>1307.8</ele>
        <time>2020-09-05T06:24:04Z</time>
      </trkpt>
      <trkpt lat="45.03755" lon="6.07319">
        <ele>1307.4</ele>
        <time>2020-09-05T06:24:05Z</time>
      </trkpt>
      <trkpt lat="45.03761" lon="6.07326">
        <ele>1307</ele>
        <time>2020-09-05T06:24:06Z</time>
      </trkpt>
      <trkpt lat="45.03767" lon="6.07334">
        <ele>1306.6</ele>
        <time>2020-09-05T06:24:07Z</time>
      </trkpt>
      <trkpt lat="45.03773" lon="6.07342">
        <ele>1306.2</ele>
        <time>2020-09-05T06:24:08Z</time>
      </trkpt>
      <trkpt lat="45.03777" lon="6.07351">
        <ele>1305.6</ele>
        <time>2020-09-05T06:24:09Z</time>
      </trkpt>
      <trkpt lat="45.03779" lon="6.07362">
        <ele>1305</ele>
        <time>2020-09-05T06:24:10Z</time>
      </trkpt>
      <trkpt lat="45.03781" lon="6.07375">
        <ele>1304.6</ele>
        <time>2020-09-05T06:24:11Z</time>
      </trkpt>
      <trkpt lat="45.03782" lon="6.07387">
        <ele>1304.2</ele>
        <time>2020-09-05T06:24:12Z</time>
      </trkpt>
      <trkpt lat="45.03784" lon="6.074">
        <ele>1303.6</ele>
        <time>2020-09-05T06:24:13Z</time>
      </trkpt>
      <trkpt lat="45.03787" lon="6.07412">
        <ele>1303</ele>
        <time>2020-09-05T06:24:14Z</time>
      </trkpt>
      <trkpt lat="45.03792" lon="6.07422">
        <ele>1302.4</ele>
        <time>2020-09-05T06:24:15Z</time>
      </trkpt>
      <trkpt lat="45.03798" lon="6.07431">
        <ele>1301.6</ele>
        <time>2020-09-05T06:24:16Z</time>
      </trkpt>
      <trkpt lat="45.03806" lon="6.0744">
        <ele>1300.8</ele>
        <time>2020-09-05T06:24:17Z</time>
      </trkpt>
      <trkpt lat="45.03813" lon="6.07447">
        <ele>1299.8</ele>
        <time>2020-09-05T06:24:18Z</time>
      </trkpt>
      <trkpt lat="45.0382" lon="6.07454">
        <ele>1299</ele>
        <time>2020-09-05T06:24:19Z</time>
      </trkpt>
      <trkpt lat="45.03827" lon="6.07461">
        <ele>1298.4</ele>
        <time>2020-09-05T06:24:20Z</time>
      </trkpt>
      <trkpt lat="45.03833" lon="6.07469">
        <ele>1298</ele>
        <time>2020-09-05T06:24:21Z</time>
      </trkpt>
      <trkpt lat="45.03838" lon="6.0748">
        <ele>1297.4</ele>
        <time>2020-09-05T06:24:22Z</time>
      </trkpt>
      <trkpt lat="45.03843" lon="6.07492">
        <ele>1296.8</ele>
        <time>2020-09-05T06:24:23Z</time>
      </trkpt>
      <trkpt lat="45.03848" lon="6.07505">
        <ele>1296</ele>
        <time>2020-09-05T06:24:24Z</time>
      </trkpt>
      <trkpt lat="45.03854" lon="6.07519">
        <ele>1295.2</ele>
        <time>2020-09-05T06:24:25Z</time>
      </trkpt>
      <trkpt lat="45.03859" lon="6.07532">
        <ele>1294.4</ele>
        <time>2020-09-05T06:24:26Z</time>
      </trkpt>
      <trkpt lat="45.03864" lon="6.07545">
        <ele>1293.6</ele>
        <time>2020-09-05T06:24:27Z</time>
      </trkpt>
      <trkpt lat="45.03868" lon="6.07558">
        <ele>1291.8</ele>
        <time>2020-09-05T06:24:28Z</time>
      </trkpt>
      <trkpt lat="45.03873" lon="6.0757">
        <ele>1290.6</ele>
        <time>2020-09-05T06:24:29Z</time>
      </trkpt>
      <trkpt lat="45.03878" lon="6.07581">
        <ele>1289.4</ele>
        <time>2020-09-05T06:24:30Z</time>
      </trkpt>
      <trkpt lat="45.03882" lon="6.07593">
        <ele>1288.8</ele>
        <time>2020-09-05T06:24:31Z</time>
      </trkpt>
      <trkpt lat="45.03887" lon="6.07606">
        <ele>1288</ele>
        <time>2020-09-05T06:24:32Z</time>
      </trkpt>
      <trkpt lat="45.03891" lon="6.07619">
        <ele>1287.4</ele>
        <time>2020-09-05T06:24:33Z</time>
      </trkpt>
      <trkpt lat="45.03895" lon="6.07631">
        <ele>1286.2</ele>
        <time>2020-09-05T06:24:34Z</time>
      </trkpt>
      <trkpt lat="45.039" lon="6.07641">
        <ele>1285.2</ele>
        <time>2020-09-05T06:24:35Z</time>
      </trkpt>
      <trkpt lat="45.03906" lon="6.07649">
        <ele>1284.2</ele>
        <time>2020-09-05T06:24:36Z</time>
      </trkpt>
      <trkpt lat="45.03914" lon="6.07655">
        <ele>1283.4</ele>
        <time>2020-09-05T06:24:37Z</time>
      </trkpt>
      <trkpt lat="45.03922" lon="6.07658">
        <ele>1282.8</ele>
        <time>2020-09-05T06:24:38Z</time>
      </trkpt>
      <trkpt lat="45.0393" lon="6.07661">
        <ele>1281.8</ele>
        <time>2020-09-05T06:24:39Z</time>
      </trkpt>
      <trkpt lat="45.03938" lon="6.07665">
        <ele>1280.8</ele>
        <time>2020-09-05T06:24:40Z</time>
      </trkpt>
      <trkpt lat="45.03945" lon="6.07669">
        <ele>1280.4</ele>
        <time>2020-09-05T06:24:41Z</time>
      </trkpt>
      <trkpt lat="45.0395" lon="6.07676">
        <ele>1279.6</ele>
        <time>2020-09-05T06:24:42Z</time>
      </trkpt>
      <trkpt lat="45.03953" lon="6.07684">
        <ele>1279</ele>
        <time>2020-09-05T06:24:43Z</time>
      </trkpt>
      <trkpt lat="45.03954" lon="6.07694">
        <ele>1278.2</ele>
        <time>2020-09-05T06:24:44Z</time>
      </trkpt>
      <trkpt lat="45.03953" lon="6.07703">
        <ele>1277.8</ele>
        <time>2020-09-05T06:24:45Z</time>
      </trkpt>
      <trkpt lat="45.03949" lon="6.0771">
        <ele>1277.2</ele>
        <time>2020-09-05T06:24:46Z</time>
      </trkpt>
      <trkpt lat="45.03944" lon="6.07715">
        <ele>1276.6</ele>
        <time>2020-09-05T06:24:47Z</time>
      </trkpt>
      <trkpt lat="45.03938" lon="6.0772">
        <ele>1276</ele>
        <time>2020-09-05T06:24:48Z</time>
      </trkpt>
      <trkpt lat="45.03932" lon="6.07725">
        <ele>1275.8</ele>
        <time>2020-09-05T06:24:49Z</time>
      </trkpt>
      <trkpt lat="45.03925" lon="6.0773">
        <ele>1275.2</ele>
        <time>2020-09-05T06:24:50Z</time>
      </trkpt>
      <trkpt lat="45.03918" lon="6.07735">
        <ele>1274.8</ele>
        <time>2020-09-05T06:24:51Z</time>
      </trkpt>
      <trkpt lat="45.0391" lon="6.07742">
        <ele>1274.4</ele>
        <time>2020-09-05T06:24:52Z</time>
      </trkpt>
      <trkpt lat="45.03903" lon="6.07748">
        <ele>1273.4</ele>
        <time>2020-09-05T06:24:53Z</time>
      </trkpt>
      <trkpt lat="45.03896" lon="6.07754">
        <ele>1272.6</ele>
        <time>2020-09-05T06:24:54Z</time>
      </trkpt>
      <trkpt lat="45.03889" lon="6.0776">
        <ele>1271.8</ele>
        <time>2020-09-05T06:24:55Z</time>
      </trkpt>
      <trkpt lat="45.03884" lon="6.07768">
        <ele>1270.8</ele>
        <time>2020-09-05T06:24:56Z</time>
      </trkpt>
      <trkpt lat="45.0388" lon="6.07778">
        <ele>1270</ele>
        <time>2020-09-05T06:24:57Z</time>
      </trkpt>
      <trkpt lat="45.03878" lon="6.07788">
        <ele>1269.2</ele>
        <time>2020-09-05T06:24:58Z</time>
      </trkpt>
      <trkpt lat="45.03876" lon="6.078">
        <ele>1268.4</ele>
        <time>2020-09-05T06:24:59Z</time>
      </trkpt>
      <trkpt lat="45.03873" lon="6.07811">
        <ele>1268.2</ele>
        <time>2020-09-05T06:25:00Z</time>
      </trkpt>
      <trkpt lat="45.03869" lon="6.07822">
        <ele>1267.4</ele>
        <time>2020-09-05T06:25:01Z</time>
      </trkpt>
      <trkpt lat="45.03864" lon="6.07832">
        <ele>1266.6</ele>
        <time>2020-09-05T06:25:02Z</time>
      </trkpt>
      <trkpt lat="45.03858" lon="6.07842">
        <ele>1266</ele>
        <time>2020-09-05T06:25:03Z</time>
      </trkpt>
      <trkpt lat="45.03851" lon="6.0785">
        <ele>1265.2</ele>
        <time>2020-09-05T06:25:04Z</time>
      </trkpt>
      <trkpt lat="45.03843" lon="6.07857">
        <ele>1264.2</ele>
        <time>2020-09-05T06:25:05Z</time>
      </trkpt>
      <trkpt lat="45.03836" lon="6.07862">
        <ele>1263.2</ele>
        <time>2020-09-05T06:25:06Z</time>
      </trkpt>
      <trkpt lat="45.0383" lon="6.07867">
        <ele>1262.4</ele>
        <time>2020-09-05T06:25:07Z</time>
      </trkpt>
      <trkpt lat="45.03824" lon="6.07873">
        <ele>1261.8</ele>
        <time>2020-09-05T06:25:08Z</time>
      </trkpt>
      <trkpt lat="45.03819" lon="6.07881">
        <ele>1261.4</ele>
        <time>2020-09-05T06:25:09Z</time>
      </trkpt>
      <trkpt lat="45.03816" lon="6.07892">
        <ele>1261.4</ele>
        <time>2020-09-05T06:25:10Z</time>
      </trkpt>
      <trkpt lat="45.03815" lon="6.07904">
        <ele>1260.6</ele>
        <time>2020-09-05T06:25:11Z</time>
      </trkpt>
      <trkpt lat="45.03813" lon="6.07916">
        <ele>1260.2</ele>
        <time>2020-09-05T06:25:12Z</time>
      </trkpt>
      <trkpt lat="45.03811" lon="6.07929">
        <ele>1259.6</ele>
        <time>2020-09-05T06:25:13Z</time>
      </trkpt>
      <trkpt lat="45.03808" lon="6.07941">
        <ele>1259</ele>
        <time>2020-09-05T06:25:14Z</time>
      </trkpt>
      <trkpt lat="45.03805" lon="6.07954">
        <ele>1258.4</ele>
        <time>2020-09-05T06:25:15Z</time>
      </trkpt>
      <trkpt lat="45.038" lon="6.07967">
        <ele>1258.2</ele>
        <time>2020-09-05T06:25:16Z</time>
      </trkpt>
      <trkpt lat="45.03795" lon="6.0798">
        <ele>1257.2</ele>
        <time>2020-09-05T06:25:17Z</time>
      </trkpt>
      <trkpt lat="45.0379" lon="6.07993">
        <ele>1257</ele>
        <time>2020-09-05T06:25:18Z</time>
      </trkpt>
      <trkpt lat="45.03784" lon="6.08006">
        <ele>1256.4</ele>
        <time>2020-09-05T06:25:19Z</time>
      </trkpt>
      <trkpt lat="45.03778" lon="6.0802">
        <ele>1256</ele>
        <time>2020-09-05T06:25:20Z</time>
      </trkpt>
      <trkpt lat="45.03772" lon="6.08034">
        <ele>1255.2</ele>
        <time>2020-09-05T06:25:21Z</time>
      </trkpt>
      <trkpt lat="45.03768" lon="6.08049">
        <ele>1254</ele>
        <time>2020-09-05T06:25:22Z</time>
      </trkpt>
      <trkpt lat="45.03764" lon="6.08064">
        <ele>1253.6</ele>
        <time>2020-09-05T06:25:23Z</time>
      </trkpt>
      <trkpt lat="45.0376" lon="6.0808">
        <ele>1253</ele>
        <time>2020-09-05T06:25:24Z</time>
      </trkpt>
      <trkpt lat="45.03756" lon="6.08096">
        <ele>1252.2</ele>
        <time>2020-09-05T06:25:25Z</time>
      </trkpt>
      <trkpt lat="45.03753" lon="6.08111">
        <ele>1251</ele>
        <time>2020-09-05T06:25:26Z</time>
      </trkpt>
      <trkpt lat="45.03751" lon="6.08127">
        <ele>1250.2</ele>
        <time>2020-09-05T06:25:27Z</time>
      </trkpt>
      <trkpt lat="45.03752" lon="6.08142">
        <ele>1248.8</ele>
        <time>2020-09-05T06:25:28Z</time>
      </trkpt>
      <trkpt lat="45.03754" lon="6.08156">
        <ele>1247</ele>
        <time>2020-09-05T06:25:29Z</time>
      </trkpt>
      <trkpt lat="45.03757" lon="6.0817">
        <ele>1245.8</ele>
        <time>2020-09-05T06:25:30Z</time>
      </trkpt>
      <trkpt lat="45.03762" lon="6.08182">
        <ele>1245</ele>
        <time>2020-09-05T06:25:31Z</time>
      </trkpt>
      <trkpt lat="45.03768" lon="6.08192">
        <ele>1243.6</ele>
        <time>2020-09-05T06:25:32Z</time>
      </trkpt>
      <trkpt lat="45.03776" lon="6.08201">
        <ele>1243.2</ele>
        <time>2020-09-05T06:25:33Z</time>
      </trkpt>
      <trkpt lat="45.03784" lon="6.08209">
        <ele>1242</ele>
        <time>2020-09-05T06:25:34Z</time>
      </trkpt>
      <trkpt lat="45.03793" lon="6.08216">
        <ele>1240.8</ele>
        <time>2020-09-05T06:25:35Z</time>
      </trkpt>
      <trkpt lat="45.03801" lon="6.08223">
        <ele>1239.6</ele>
        <time>2020-09-05T06:25:36Z</time>
      </trkpt>
      <trkpt lat="45.0381" lon="6.08231">
        <ele>1238.6</ele>
        <time>2020-09-05T06:25:37Z</time>
      </trkpt>
      <trkpt lat="45.03818" lon="6.0824">
        <ele>1237.8</ele>
        <time>2020-09-05T06:25:38Z</time>
      </trkpt>
      <trkpt lat="45.03826" lon="6.0825">
        <ele>1237.2</ele>
        <time>2020-09-05T06:25:39Z</time>
      </trkpt>
      <trkpt lat="45.03835" lon="6.08261">
        <ele>1236.4</ele>
        <time>2020-09-05T06:25:40Z</time>
      </trkpt>
      <trkpt lat="45.03843" lon="6.08271">
        <ele>1235.8</ele>
        <time>2020-09-05T06:25:41Z</time>
      </trkpt>
      <trkpt lat="45.03853" lon="6.08281">
        <ele>1234.8</ele>
        <time>2020-09-05T06:25:42Z</time>
      </trkpt>
      <trkpt lat="45.03863" lon="6.0829">
        <ele>1234</ele>
        <time>2020-09-05T06:25:43Z</time>
      </trkpt>
      <trkpt lat="45.03873" lon="6.08299">
        <ele>1233.8</ele>
        <time>2020-09-05T06:25:44Z</time>
      </trkpt>
      <trkpt lat="45.03884" lon="6.08307">
        <ele>1233</ele>
        <time>2020-09-05T06:25:45Z</time>
      </trkpt>
      <trkpt lat="45.03895" lon="6.08313">
        <ele>1232.4</ele>
        <time>2020-09-05T06:25:46Z</time>
      </trkpt>
      <trkpt lat="45.03905" lon="6.08319">
        <ele>1231.6</ele>
        <time>2020-09-05T06:25:47Z</time>
      </trkpt>
      <trkpt lat="45.03915" lon="6.08325">
        <ele>1230.2</ele>
        <time>2020-09-05T06:25:48Z</time>
      </trkpt>
      <trkpt lat="45.03923" lon="6.08332">
        <ele>1229.6</ele>
        <time>2020-09-05T06:25:49Z</time>
      </trkpt>
      <trkpt lat="45.03932" lon="6.08339">
        <ele>1229.2</ele>
        <time>2020-09-05T06:25:50Z</time>
      </trkpt>
      <trkpt lat="45.03941" lon="6.08346">
        <ele>1228.8</ele>
        <time>2020-09-05T06:25:51Z</time>
      </trkpt>
      <trkpt lat="45.03949" lon="6.08352">
        <ele>1228.2</ele>
        <time>2020-09-05T06:25:52Z</time>
      </trkpt>
      <trkpt lat="45.03958" lon="6.08357">
        <ele>1227.6</ele>
        <time>2020-09-05T06:25:53Z</time>
      </trkpt>
      <trkpt lat="45.03968" lon="6.08361">
        <ele>1227</ele>
        <time>2020-09-05T06:25:54Z</time>
      </trkpt>
      <trkpt lat="45.03976" lon="6.08367">
        <ele>1226.4</ele>
        <time>2020-09-05T06:25:55Z</time>
      </trkpt>
      <trkpt lat="45.03985" lon="6.08375">
        <ele>1226.2</ele>
        <time>2020-09-05T06:25:56Z</time>
      </trkpt>
      <trkpt lat="45.03992" lon="6.08383">
        <ele>1225.6</ele>
        <time>2020-09-05T06:25:57Z</time>
      </trkpt>
      <trkpt lat="45.04" lon="6.08392">
        <ele>1225.2</ele>
        <time>2020-09-05T06:25:58Z</time>
      </trkpt>
      <trkpt lat="45.04007" lon="6.08401">
        <ele>1224.6</ele>
        <time>2020-09-05T06:25:59Z</time>
      </trkpt>
      <trkpt lat="45.04014" lon="6.08409">
        <ele>1224</ele>
        <time>2020-09-05T06:26:00Z</time>
      </trkpt>
      <trkpt lat="45.0402" lon="6.08417">
        <ele>1223.4</ele>
        <time>2020-09-05T06:26:01Z</time>
      </trkpt>
      <trkpt lat="45.04025" lon="6.08424">
        <ele>1222.4</ele>
        <time>2020-09-05T06:26:02Z</time>
      </trkpt>
      <trkpt lat="45.0403" lon="6.08431">
        <ele>1222</ele>
        <time>2020-09-05T06:26:03Z</time>
      </trkpt>
      <trkpt lat="45.04034" lon="6.08438">
        <ele>1221.6</ele>
        <time>2020-09-05T06:26:04Z</time>
      </trkpt>
      <trkpt lat="45.04038" lon="6.08444">
        <ele>1221</ele>
        <time>2020-09-05T06:26:05Z</time>
      </trkpt>
      <trkpt lat="45.04043" lon="6.08451">
        <ele>1220.6</ele>
        <time>2020-09-05T06:26:06Z</time>
      </trkpt>
      <trkpt lat="45.04048" lon="6.08457">
        <ele>1220.4</ele>
        <time>2020-09-05T06:26:07Z</time>
      </trkpt>
      <trkpt lat="45.04053" lon="6.08463">
        <ele>1220</ele>
        <time>2020-09-05T06:26:08Z</time>
      </trkpt>
      <trkpt lat="45.04058" lon="6.08469">
        <ele>1219.8</ele>
        <time>2020-09-05T06:26:09Z</time>
      </trkpt>
      <trkpt lat="45.04064" lon="6.08476">
        <ele>1219.6</ele>
        <time>2020-09-05T06:26:10Z</time>
      </trkpt>
      <trkpt lat="45.04069" lon="6.08483">
        <ele>1219.4</ele>
        <time>2020-09-05T06:26:11Z</time>
      </trkpt>
      <trkpt lat="45.04075" lon="6.08489">
        <ele>1219.2</ele>
        <time>2020-09-05T06:26:12Z</time>
      </trkpt>
      <trkpt lat="45.04082" lon="6.08495">
        <ele>1219.2</ele>
        <time>2020-09-05T06:26:13Z</time>
      </trkpt>
      <trkpt lat="45.04089" lon="6.085">
        <ele>1218.8</ele>
        <time>2020-09-05T06:26:14Z</time>
      </trkpt>
      <trkpt lat="45.04096" lon="6.08505">
        <ele>1218.8</ele>
        <time>2020-09-05T06:26:15Z</time>
      </trkpt>
      <trkpt lat="45.04103" lon="6.0851">
        <ele>1218.4</ele>
        <time>2020-09-05T06:26:16Z</time>
      </trkpt>
      <trkpt lat="45.0411" lon="6.08515">
        <ele>1218.2</ele>
        <time>2020-09-05T06:26:17Z</time>
      </trkpt>
      <trkpt lat="45.04118" lon="6.08521">
        <ele>1217.6</ele>
        <time>2020-09-05T06:26:18Z</time>
      </trkpt>
      <trkpt lat="45.04126" lon="6.08527">
        <ele>1217</ele>
        <time>2020-09-05T06:26:19Z</time>
      </trkpt>
      <trkpt lat="45.04134" lon="6.08532">
        <ele>1216.4</ele>
        <time>2020-09-05T06:26:20Z</time>
      </trkpt>
      <trkpt lat="45.04142" lon="6.08539">
        <ele>1216</ele>
        <time>2020-09-05T06:26:21Z</time>
      </trkpt>
      <trkpt lat="45.04149" lon="6.08549">
        <ele>1215.4</ele>
        <time>2020-09-05T06:26:22Z</time>
      </trkpt>
      <trkpt lat="45.04153" lon="6.08562">
        <ele>1215.2</ele>
        <time>2020-09-05T06:26:23Z</time>
      </trkpt>
      <trkpt lat="45.04156" lon="6.08576">
        <ele>1214.8</ele>
        <time>2020-09-05T06:26:24Z</time>
      </trkpt>
      <trkpt lat="45.04159" lon="6.08589">
        <ele>1214.6</ele>
        <time>2020-09-05T06:26:25Z</time>
      </trkpt>
      <trkpt lat="45.04164" lon="6.08602">
        <ele>1214.2</ele>
        <time>2020-09-05T06:26:26Z</time>
      </trkpt>
      <trkpt lat="45.0417" lon="6.08615">
        <ele>1213.8</ele>
        <time>2020-09-05T06:26:27Z</time>
      </trkpt>
      <trkpt lat="45.04176" lon="6.08627">
        <ele>1213.2</ele>
        <time>2020-09-05T06:26:28Z</time>
      </trkpt>
      <trkpt lat="45.04183" lon="6.0864">
        <ele>1212.6</ele>
        <time>2020-09-05T06:26:29Z</time>
      </trkpt>
      <trkpt lat="45.04189" lon="6.08652">
        <ele>1212</ele>
        <time>2020-09-05T06:26:30Z</time>
      </trkpt>
      <trkpt lat="45.04196" lon="6.08664">
        <ele>1211.4</ele>
        <time>2020-09-05T06:26:31Z</time>
      </trkpt>
      <trkpt lat="45.04204" lon="6.08675">
        <ele>1211</ele>
        <time>2020-09-05T06:26:32Z</time>
      </trkpt>
      <trkpt lat="45.04214" lon="6.08684">
        <ele>1210</ele>
        <time>2020-09-05T06:26:33Z</time>
      </trkpt>
      <trkpt lat="45.04223" lon="6.08695">
        <ele>1209.4</ele>
        <time>2020-09-05T06:26:34Z</time>
      </trkpt>
      <trkpt lat="45.04231" lon="6.08707">
        <ele>1208.6</ele>
        <time>2020-09-05T06:26:35Z</time>
      </trkpt>
      <trkpt lat="45.04238" lon="6.08722">
        <ele>1208.2</ele>
        <time>2020-09-05T06:26:36Z</time>
      </trkpt>
      <trkpt lat="45.04244" lon="6.08736">
        <ele>1207.4</ele>
        <time>2020-09-05T06:26:37Z</time>
      </trkpt>
      <trkpt lat="45.04252" lon="6.08749">
        <ele>1206.4</ele>
        <time>2020-09-05T06:26:38Z</time>
      </trkpt>
      <trkpt lat="45.04261" lon="6.08761">
        <ele>1205.8</ele>
        <time>2020-09-05T06:26:39Z</time>
      </trkpt>
      <trkpt lat="45.0427" lon="6.08772">
        <ele>1205.4</ele>
        <time>2020-09-05T06:26:40Z</time>
      </trkpt>
      <trkpt lat="45.04279" lon="6.08783">
        <ele>1204.8</ele>
        <time>2020-09-05T06:26:41Z</time>
      </trkpt>
      <trkpt lat="45.04288" lon="6.08795">
        <ele>1204.4</ele>
        <time>2020-09-05T06:26:42Z</time>
      </trkpt>
      <trkpt lat="45.04295" lon="6.08808">
        <ele>1203.6</ele>
        <time>2020-09-05T06:26:43Z</time>
      </trkpt>
      <trkpt lat="45.04302" lon="6.08822">
        <ele>1203.2</ele>
        <time>2020-09-05T06:26:44Z</time>
      </trkpt>
      <trkpt lat="45.04309" lon="6.08837">
        <ele>1202.4</ele>
        <time>2020-09-05T06:26:45Z</time>
      </trkpt>
      <trkpt lat="45.04315" lon="6.08852">
        <ele>1201.2</ele>
        <time>2020-09-05T06:26:46Z</time>
      </trkpt>
      <trkpt lat="45.04319" lon="6.08868">
        <ele>1200.4</ele>
        <time>2020-09-05T06:26:47Z</time>
      </trkpt>
      <trkpt lat="45.04324" lon="6.08885">
        <ele>1199.6</ele>
        <time>2020-09-05T06:26:48Z</time>
      </trkpt>
      <trkpt lat="45.04329" lon="6.08901">
        <ele>1198.6</ele>
        <time>2020-09-05T06:26:49Z</time>
      </trkpt>
      <trkpt lat="45.04334" lon="6.08917">
        <ele>1197.6</ele>
        <time>2020-09-05T06:26:50Z</time>
      </trkpt>
      <trkpt lat="45.0434" lon="6.08933">
        <ele>1196.8</ele>
        <time>2020-09-05T06:26:51Z</time>
      </trkpt>
      <trkpt lat="45.04346" lon="6.08949">
        <ele>1196</ele>
        <time>2020-09-05T06:26:52Z</time>
      </trkpt>
      <trkpt lat="45.04353" lon="6.08964">
        <ele>1195.4</ele>
        <time>2020-09-05T06:26:53Z</time>
      </trkpt>
      <trkpt lat="45.0436" lon="6.08979">
        <ele>1194.2</ele>
        <time>2020-09-05T06:26:54Z</time>
      </trkpt>
      <trkpt lat="45.04367" lon="6.08995">
        <ele>1193</ele>
        <time>2020-09-05T06:26:55Z</time>
      </trkpt>
      <trkpt lat="45.04375" lon="6.09009">
        <ele>1192.4</ele>
        <time>2020-09-05T06:26:56Z</time>
      </trkpt>
      <trkpt lat="45.04383" lon="6.09021">
        <ele>1191.6</ele>
        <time>2020-09-05T06:26:57Z</time>
      </trkpt>
      <trkpt lat="45.04393" lon="6.0903">
        <ele>1191</ele>
        <time>2020-09-05T06:26:58Z</time>
      </trkpt>
      <trkpt lat="45.04404" lon="6.09036">
        <ele>1190.2</ele>
        <time>2020-09-05T06:26:59Z</time>
      </trkpt>
      <trkpt lat="45.04416" lon="6.0904">
        <ele>1189.4</ele>
        <time>2020-09-05T06:27:00Z</time>
      </trkpt>
      <trkpt lat="45.04427" lon="6.09045">
        <ele>1188.6</ele>
        <time>2020-09-05T06:27:01Z</time>
      </trkpt>
      <trkpt lat="45.0444" lon="6.09049">
        <ele>1188</ele>
        <time>2020-09-05T06:27:02Z</time>
      </trkpt>
      <trkpt lat="45.04452" lon="6.09053">
        <ele>1187.4</ele>
        <time>2020-09-05T06:27:03Z</time>
      </trkpt>
      <trkpt lat="45.04465" lon="6.09056">
        <ele>1186.2</ele>
        <time>2020-09-05T06:27:04Z</time>
      </trkpt>
      <trkpt lat="45.04477" lon="6.0906">
        <ele>1185</ele>
        <time>2020-09-05T06:27:05Z</time>
      </trkpt>
      <trkpt lat="45.0449" lon="6.09064">
        <ele>1184.4</ele>
        <time>2020-09-05T06:27:06Z</time>
      </trkpt>
      <trkpt lat="45.04503" lon="6.0907">
        <ele>1183.8</ele>
        <time>2020-09-05T06:27:07Z</time>
      </trkpt>
      <trkpt lat="45.04516" lon="6.09077">
        <ele>1183.2</ele>
        <time>2020-09-05T06:27:08Z</time>
      </trkpt>
      <trkpt lat="45.04528" lon="6.09084">
        <ele>1182.4</ele>
        <time>2020-09-05T06:27:09Z</time>
      </trkpt>
      <trkpt lat="45.04541" lon="6.09091">
        <ele>1181</ele>
        <time>2020-09-05T06:27:10Z</time>
      </trkpt>
      <trkpt lat="45.04554" lon="6.09099">
        <ele>1180</ele>
        <time>2020-09-05T06:27:11Z</time>
      </trkpt>
      <trkpt lat="45.04567" lon="6.09106">
        <ele>1178.6</ele>
        <time>2020-09-05T06:27:12Z</time>
      </trkpt>
      <trkpt lat="45.0458" lon="6.0911">
        <ele>1177.4</ele>
        <time>2020-09-05T06:27:13Z</time>
      </trkpt>
      <trkpt lat="45.04594" lon="6.09113">
        <ele>1176</ele>
        <time>2020-09-05T06:27:14Z</time>
      </trkpt>
      <trkpt lat="45.04606" lon="6.09114">
        <ele>1174.4</ele>
        <time>2020-09-05T06:27:15Z</time>
      </trkpt>
      <trkpt lat="45.04617" lon="6.09114">
        <ele>1172.8</ele>
        <time>2020-09-05T06:27:16Z</time>
      </trkpt>
      <trkpt lat="45.04627" lon="6.09115">
        <ele>1171.2</ele>
        <time>2020-09-05T06:27:17Z</time>
      </trkpt>
      <trkpt lat="45.04635" lon="6.09118">
        <ele>1170</ele>
        <time>2020-09-05T06:27:18Z</time>
      </trkpt>
      <trkpt lat="45.04642" lon="6.09125">
        <ele>1169.2</ele>
        <time>2020-09-05T06:27:19Z</time>
      </trkpt>
      <trkpt lat="45.04645" lon="6.09135">
        <ele>1168.2</ele>
        <time>2020-09-05T06:27:20Z</time>
      </trkpt>
      <trkpt lat="45.04644" lon="6.09146">
        <ele>1167.8</ele>
        <time>2020-09-05T06:27:21Z</time>
      </trkpt>
      <trkpt lat="45.04642" lon="6.09157">
        <ele>1167.2</ele>
        <time>2020-09-05T06:27:22Z</time>
      </trkpt>
      <trkpt lat="45.04642" lon="6.09167">
        <ele>1167.2</ele>
        <time>2020-09-05T06:27:23Z</time>
      </trkpt>
      <trkpt lat="45.04643" lon="6.09177">
        <ele>1166.8</ele>
        <time>2020-09-05T06:27:24Z</time>
      </trkpt>
      <trkpt lat="45.04646" lon="6.09186">
        <ele>1166.6</ele>
        <time>2020-09-05T06:27:25Z</time>
      </trkpt>
      <trkpt lat="45.04649" lon="6.09195">
        <ele>1166.2</ele>
        <time>2020-09-05T06:27:26Z</time>
      </trkpt>
      <trkpt lat="45.04653" lon="6.09204">
        <ele>1166.2</ele>
        <time>2020-09-05T06:27:27Z</time>
      </trkpt>
      <trkpt lat="45.04657" lon="6.09213">
        <ele>1165.8</ele>
        <time>2020-09-05T06:27:28Z</time>
      </trkpt>
      <trkpt lat="45.04662" lon="6.09222">
        <ele>1165.8</ele>
        <time>2020-09-05T06:27:29Z</time>
      </trkpt>
      <trkpt lat="45.04666" lon="6.09231">
        <ele>1165.2</ele>
        <time>2020-09-05T06:27:30Z</time>
      </trkpt>
      <trkpt lat="45.04671" lon="6.09239">
        <ele>1164.8</ele>
        <time>2020-09-05T06:27:31Z</time>
      </trkpt>
      <trkpt lat="45.04675" lon="6.09247">
        <ele>1164.6</ele>
        <time>2020-09-05T06:27:32Z</time>
      </trkpt>
      <trkpt lat="45.04679" lon="6.09255">
        <ele>1164.2</ele>
        <time>2020-09-05T06:27:33Z</time>
      </trkpt>
      <trkpt lat="45.04682" lon="6.09261">
        <ele>1164</ele>
        <time>2020-09-05T06:27:34Z</time>
      </trkpt>
      <trkpt lat="45.04686" lon="6.09268">
        <ele>1164.4</ele>
        <time>2020-09-05T06:27:35Z</time>
      </trkpt>
      <trkpt lat="45.04689" lon="6.09273">
        <ele>1164.2</ele>
        <time>2020-09-05T06:27:36Z</time>
      </trkpt>
      <trkpt lat="45.04692" lon="6.09279">
        <ele>1164.2</ele>
        <time>2020-09-05T06:27:37Z</time>
      </trkpt>
      <trkpt lat="45.04695" lon="6.09284">
        <ele>1164.4</ele>
        <time>2020-09-05T06:27:38Z</time>
      </trkpt>
      <trkpt lat="45.04698" lon="6.09289">
        <ele>1164.6</ele>
        <time>2020-09-05T06:27:39Z</time>
      </trkpt>
      <trkpt lat="45.04701" lon="6.09293">
        <ele>1164.8</ele>
        <time>2020-09-05T06:27:40Z</time>
      </trkpt>
      <trkpt lat="45.04705" lon="6.09298">
        <ele>1164.8</ele>
        <time>2020-09-05T06:27:41Z</time>
      </trkpt>
      <trkpt lat="45.04708" lon="6.09303">
        <ele>1165.2</ele>
        <time>2020-09-05T06:27:42Z</time>
      </trkpt>
      <trkpt lat="45.04711" lon="6.09307">
        <ele>1165.4</ele>
        <time>2020-09-05T06:27:43Z</time>
      </trkpt>
      <trkpt lat="45.04715" lon="6.09312">
        <ele>1165.6</ele>
        <time>2020-09-05T06:27:44Z</time>
      </trkpt>
      <trkpt lat="45.04718" lon="6.09316">
        <ele>1165.6</ele>
        <time>2020-09-05T06:27:45Z</time>
      </trkpt>
      <trkpt lat="45.04722" lon="6.09321">
        <ele>1165.8</ele>
        <time>2020-09-05T06:27:46Z</time>
      </trkpt>
      <trkpt lat="45.04725" lon="6.09326">
        <ele>1165.8</ele>
        <time>2020-09-05T06:27:47Z</time>
      </trkpt>
      <trkpt lat="45.04729" lon="6.09331">
        <ele>1166.2</ele>
        <time>2020-09-05T06:27:48Z</time>
      </trkpt>
      <trkpt lat="45.04733" lon="6.09335">
        <ele>1166.6</ele>
        <time>2020-09-05T06:27:49Z</time>
      </trkpt>
      <trkpt lat="45.04736" lon="6.0934">
        <ele>1166.6</ele>
        <time>2020-09-05T06:27:50Z</time>
      </trkpt>
      <trkpt lat="45.0474" lon="6.09345">
        <ele>1166.4</ele>
        <time>2020-09-05T06:27:51Z</time>
      </trkpt>
      <trkpt lat="45.04743" lon="6.0935">
        <ele>1166.4</ele>
        <time>2020-09-05T06:27:52Z</time>
      </trkpt>
      <trkpt lat="45.04747" lon="6.09356">
        <ele>1166.6</ele>
        <time>2020-09-05T06:27:53Z</time>
      </trkpt>
      <trkpt lat="45.0475" lon="6.09362">
        <ele>1166.6</ele>
        <time>2020-09-05T06:27:54Z</time>
      </trkpt>
      <trkpt lat="45.04753" lon="6.09368">
        <ele>1166.8</ele>
        <time>2020-09-05T06:27:55Z</time>
      </trkpt>
      <trkpt lat="45.04756" lon="6.09375">
        <ele>1166.8</ele>
        <time>2020-09-05T06:27:56Z</time>
      </trkpt>
      <trkpt lat="45.04759" lon="6.09381">
        <ele>1166.8</ele>
        <time>2020-09-05T06:27:57Z</time>
      </trkpt>
      <trkpt lat="45.04762" lon="6.09388">
        <ele>1166.8</ele>
        <time>2020-09-05T06:27:58Z</time>
      </trkpt>
      <trkpt lat="45.04764" lon="6.09395">
        <ele>1167</ele>
        <time>2020-09-05T06:27:59Z</time>
      </trkpt>
      <trkpt lat="45.04766" lon="6.09403">
        <ele>1166.8</ele>
        <time>2020-09-05T06:28:00Z</time>
      </trkpt>
      <trkpt lat="45.04768" lon="6.0941">
        <ele>1167</ele>
        <time>2020-09-05T06:28:01Z</time>
      </trkpt>
      <trkpt lat="45.04769" lon="6.09418">
        <ele>1167</ele>
        <time>2020-09-05T06:28:02Z</time>
      </trkpt>
      <trkpt lat="45.04771" lon="6.09426">
        <ele>1167</ele>
        <time>2020-09-05T06:28:03Z</time>
      </trkpt>
      <trkpt lat="45.04772" lon="6.09434">
        <ele>1167.2</ele>
        <time>2020-09-05T06:28:04Z</time>
      </trkpt>
      <trkpt lat="45.04774" lon="6.09442">
        <ele>1167</ele>
        <time>2020-09-05T06:28:05Z</time>
      </trkpt>
      <trkpt lat="45.04775" lon="6.0945">
        <ele>1167.2</ele>
        <time>2020-09-05T06:28:06Z</time>
      </trkpt>
      <trkpt lat="45.04776" lon="6.09458">
        <ele>1167.2</ele>
        <time>2020-09-05T06:28:07Z</time>
      </trkpt>
      <trkpt lat="45.04778" lon="6.09466">
        <ele>1167.2</ele>
        <time>2020-09-05T06:28:08Z</time>
      </trkpt>
      <trkpt lat="45.04779" lon="6.09474">
        <ele>1167.2</ele>
        <time>2020-09-05T06:28:09Z</time>
      </trkpt>
      <trkpt lat="45.0478" lon="6.09482">
        <ele>1167.4</ele>
        <time>2020-09-05T06:28:10Z</time>
      </trkpt>
      <trkpt lat="45.04781" lon="6.09491">
        <ele>1167.6</ele>
        <time>2020-09-05T06:28:11Z</time>
      </trkpt>
      <trkpt lat="45.04782" lon="6.09499">
        <ele>1167.8</ele>
        <time>2020-09-05T06:28:12Z</time>
      </trkpt>
      <trkpt lat="45.04783" lon="6.09507">
        <ele>1167.6</ele>
        <time>2020-09-05T06:28:13Z</time>
      </trkpt>
      <trkpt lat="45.04785" lon="6.09515">
        <ele>1167.6</ele>
        <time>2020-09-05T06:28:14Z</time>
      </trkpt>
      <trkpt lat="45.04786" lon="6.09524">
        <ele>1167.6</ele>
        <time>2020-09-05T06:28:15Z</time>
      </trkpt>
      <trkpt lat="45.04788" lon="6.09532">
        <ele>1167.4</ele>
        <time>2020-09-05T06:28:16Z</time>
      </trkpt>
      <trkpt lat="45.04789" lon="6.09541">
        <ele>1167.4</ele>
        <time>2020-09-05T06:28:17Z</time>
      </trkpt>
      <trkpt lat="45.04791" lon="6.0955">
        <ele>1167.4</ele>
        <time>2020-09-05T06:28:18Z</time>
      </trkpt>
      <trkpt lat="45.04793" lon="6.09559">
        <ele>1167.2</ele>
        <time>2020-09-05T06:28:19Z</time>
      </trkpt>
      <trkpt lat="45.04795" lon="6.09569">
        <ele>1167.2</ele>
        <time>2020-09-05T06:28:20Z</time>
      </trkpt>
      <trkpt lat="45.04796" lon="6.09578">
        <ele>1167</ele>
        <time>2020-09-05T06:28:21Z</time>
      </trkpt>
      <trkpt lat="45.04798" lon="6.09588">
        <ele>1166.6</ele>
        <time>2020-09-05T06:28:22Z</time>
      </trkpt>
      <trkpt lat="45.04799" lon="6.09598">
        <ele>1166.4</ele>
        <time>2020-09-05T06:28:23Z</time>
      </trkpt>
      <trkpt lat="45.04801" lon="6.09609">
        <ele>1166.2</ele>
        <time>2020-09-05T06:28:24Z</time>
      </trkpt>
      <trkpt lat="45.04802" lon="6.0962">
        <ele>1166</ele>
        <time>2020-09-05T06:28:25Z</time>
      </trkpt>
      <trkpt lat="45.04803" lon="6.09631">
        <ele>1165.6</ele>
        <time>2020-09-05T06:28:26Z</time>
      </trkpt>
      <trkpt lat="45.04803" lon="6.09642">
        <ele>1165.6</ele>
        <time>2020-09-05T06:28:27Z</time>
      </trkpt>
      <trkpt lat="45.04803" lon="6.09654">
        <ele>1165.2</ele>
        <time>2020-09-05T06:28:28Z</time>
      </trkpt>
      <trkpt lat="45.04802" lon="6.09666">
        <ele>1165</ele>
        <time>2020-09-05T06:28:29Z</time>
      </trkpt>
      <trkpt lat="45.04802" lon="6.09678">
        <ele>1164.6</ele>
        <time>2020-09-05T06:28:30Z</time>
      </trkpt>
      <trkpt lat="45.04801" lon="6.09691">
        <ele>1164.4</ele>
        <time>2020-09-05T06:28:31Z</time>
      </trkpt>
      <trkpt lat="45.048" lon="6.09703">
        <ele>1164</ele>
        <time>2020-09-05T06:28:32Z</time>
      </trkpt>
      <trkpt lat="45.04799" lon="6.09716">
        <ele>1163.8</ele>
        <time>2020-09-05T06:28:33Z</time>
      </trkpt>
      <trkpt lat="45.04798" lon="6.0973">
        <ele>1163.8</ele>
        <time>2020-09-05T06:28:34Z</time>
      </trkpt>
      <trkpt lat="45.04798" lon="6.09744">
        <ele>1163.8</ele>
        <time>2020-09-05T06:28:35Z</time>
      </trkpt>
      <trkpt lat="45.04798" lon="6.09758">
        <ele>1163.6</ele>
        <time>2020-09-05T06:28:36Z</time>
      </trkpt>
      <trkpt lat="45.048" lon="6.09772">
        <ele>1163.4</ele>
        <time>2020-09-05T06:28:37Z</time>
      </trkpt>
      <trkpt lat="45.04802" lon="6.09786">
        <ele>1163</ele>
        <time>2020-09-05T06:28:38Z</time>
      </trkpt>
      <trkpt lat="45.04806" lon="6.098">
        <ele>1162.4</ele>
        <time>2020-09-05T06:28:39Z</time>
      </trkpt>
      <trkpt lat="45.04811" lon="6.09815">
        <ele>1161.6</ele>
        <time>2020-09-05T06:28:40Z</time>
      </trkpt>
      <trkpt lat="45.04815" lon="6.09829">
        <ele>1161.4</ele>
        <time>2020-09-05T06:28:41Z</time>
      </trkpt>
      <trkpt lat="45.0482" lon="6.09844">
        <ele>1160.8</ele>
        <time>2020-09-05T06:28:42Z</time>
      </trkpt>
      <trkpt lat="45.04825" lon="6.09858">
        <ele>1160.6</ele>
        <time>2020-09-05T06:28:43Z</time>
      </trkpt>
      <trkpt lat="45.04831" lon="6.09872">
        <ele>1160</ele>
        <time>2020-09-05T06:28:44Z</time>
      </trkpt>
      <trkpt lat="45.04839" lon="6.09882">
        <ele>1159.4</ele>
        <time>2020-09-05T06:28:45Z</time>
      </trkpt>
      <trkpt lat="45.04849" lon="6.0989">
        <ele>1158.6</ele>
        <time>2020-09-05T06:28:46Z</time>
      </trkpt>
      <trkpt lat="45.04859" lon="6.09896">
        <ele>1158</ele>
        <time>2020-09-05T06:28:47Z</time>
      </trkpt>
      <trkpt lat="45.04867" lon="6.09905">
        <ele>1157.2</ele>
        <time>2020-09-05T06:28:48Z</time>
      </trkpt>
      <trkpt lat="45.04873" lon="6.09918">
        <ele>1156.6</ele>
        <time>2020-09-05T06:28:49Z</time>
      </trkpt>
      <trkpt lat="45.04875" lon="6.09933">
        <ele>1156</ele>
        <time>2020-09-05T06:28:50Z</time>
      </trkpt>
      <trkpt lat="45.04875" lon="6.09949">
        <ele>1155.4</ele>
        <time>2020-09-05T06:28:51Z</time>
      </trkpt>
      <trkpt lat="45.04874" lon="6.09964">
        <ele>1155</ele>
        <time>2020-09-05T06:28:52Z</time>
      </trkpt>
      <trkpt lat="45.04872" lon="6.0998">
        <ele>1154.4</ele>
        <time>2020-09-05T06:28:53Z</time>
      </trkpt>
      <trkpt lat="45.0487" lon="6.09995">
        <ele>1154</ele>
        <time>2020-09-05T06:28:54Z</time>
      </trkpt>
      <trkpt lat="45.04866" lon="6.1001">
        <ele>1153</ele>
        <time>2020-09-05T06:28:55Z</time>
      </trkpt>
      <trkpt lat="45.04859" lon="6.10023">
        <ele>1152</ele>
        <time>2020-09-05T06:28:56Z</time>
      </trkpt>
      <trkpt lat="45.0485" lon="6.10035">
        <ele>1151.4</ele>
        <time>2020-09-05T06:28:57Z</time>
      </trkpt>
      <trkpt lat="45.04841" lon="6.10047">
        <ele>1150.4</ele>
        <time>2020-09-05T06:28:58Z</time>
      </trkpt>
      <trkpt lat="45.04834" lon="6.10059">
        <ele>1149</ele>
        <time>2020-09-05T06:28:59Z</time>
      </trkpt>
      <trkpt lat="45.04828" lon="6.10073">
        <ele>1148</ele>
        <time>2020-09-05T06:29:00Z</time>
      </trkpt>
      <trkpt lat="45.04827" lon="6.10087">
        <ele>1147</ele>
        <time>2020-09-05T06:29:01Z</time>
      </trkpt>
      <trkpt lat="45.0483" lon="6.10101">
        <ele>1145.8</ele>
        <time>2020-09-05T06:29:02Z</time>
      </trkpt>
      <trkpt lat="45.04835" lon="6.10114">
        <ele>1145</ele>
        <time>2020-09-05T06:29:03Z</time>
      </trkpt>
      <trkpt lat="45.04841" lon="6.10127">
        <ele>1144.4</ele>
        <time>2020-09-05T06:29:04Z</time>
      </trkpt>
      <trkpt lat="45.04848" lon="6.10138">
        <ele>1144</ele>
        <time>2020-09-05T06:29:05Z</time>
      </trkpt>
      <trkpt lat="45.04856" lon="6.10149">
        <ele>1143.6</ele>
        <time>2020-09-05T06:29:06Z</time>
      </trkpt>
      <trkpt lat="45.04863" lon="6.10159">
        <ele>1143.2</ele>
        <time>2020-09-05T06:29:07Z</time>
      </trkpt>
      <trkpt lat="45.0487" lon="6.10169">
        <ele>1143.2</ele>
        <time>2020-09-05T06:29:08Z</time>
      </trkpt>
      <trkpt lat="45.04877" lon="6.10179">
        <ele>1143.2</ele>
        <time>2020-09-05T06:29:09Z</time>
      </trkpt>
      <trkpt lat="45.04885" lon="6.10189">
        <ele>1143.2</ele>
        <time>2020-09-05T06:29:10Z</time>
      </trkpt>
      <trkpt lat="45.04892" lon="6.10198">
        <ele>1143.2</ele>
        <time>2020-09-05T06:29:11Z</time>
      </trkpt>
      <trkpt lat="45.049" lon="6.10206">
        <ele>1143.2</ele>
        <time>2020-09-05T06:29:12Z</time>
      </trkpt>
      <trkpt lat="45.04909" lon="6.10212">
        <ele>1143.2</ele>
        <time>2020-09-05T06:29:13Z</time>
      </trkpt>
      <trkpt lat="45.04918" lon="6.10216">
        <ele>1143</ele>
        <time>2020-09-05T06:29:14Z</time>
      </trkpt>
      <trkpt lat="45.04927" lon="6.10219">
        <ele>1143</ele>
        <time>2020-09-05T06:29:15Z</time>
      </trkpt>
      <trkpt lat="45.04936" lon="6.10222">
        <ele>1142.8</ele>
        <time>2020-09-05T06:29:16Z</time>
      </trkpt>
      <trkpt lat="45.04944" lon="6.10225">
        <ele>1142.6</ele>
        <time>2020-09-05T06:29:17Z</time>
      </trkpt>
      <trkpt lat="45.04953" lon="6.10229">
        <ele>1142</ele>
        <time>2020-09-05T06:29:18Z</time>
      </trkpt>
      <trkpt lat="45.04959" lon="6.10235">
        <ele>1141.4</ele>
        <time>2020-09-05T06:29:19Z</time>
      </trkpt>
      <trkpt lat="45.04963" lon="6.10244">
        <ele>1141</ele>
        <time>2020-09-05T06:29:20Z</time>
      </trkpt>
      <trkpt lat="45.04963" lon="6.10255">
        <ele>1140</ele>
        <time>2020-09-05T06:29:21Z</time>
      </trkpt>
      <trkpt lat="45.04959" lon="6.10263">
        <ele>1139.6</ele>
        <time>2020-09-05T06:29:22Z</time>
      </trkpt>
      <trkpt lat="45.04954" lon="6.10268">
        <ele>1139.6</ele>
        <time>2020-09-05T06:29:23Z</time>
      </trkpt>
      <trkpt lat="45.04948" lon="6.1027">
        <ele>1139.4</ele>
        <time>2020-09-05T06:29:24Z</time>
      </trkpt>
      <trkpt lat="45.04942" lon="6.10273">
        <ele>1139.4</ele>
        <time>2020-09-05T06:29:25Z</time>
      </trkpt>
      <trkpt lat="45.04936" lon="6.10275">
        <ele>1139.6</ele>
        <time>2020-09-05T06:29:26Z</time>
      </trkpt>
      <trkpt lat="45.0493" lon="6.10278">
        <ele>1139.6</ele>
        <time>2020-09-05T06:29:27Z</time>
      </trkpt>
      <trkpt lat="45.04925" lon="6.10282">
        <ele>1139.8</ele>
        <time>2020-09-05T06:29:28Z</time>
      </trkpt>
      <trkpt lat="45.04921" lon="6.10285">
        <ele>1139.8</ele>
        <time>2020-09-05T06:29:29Z</time>
      </trkpt>
      <trkpt lat="45.04916" lon="6.10288">
        <ele>1140</ele>
        <time>2020-09-05T06:29:30Z</time>
      </trkpt>
      <trkpt lat="45.04912" lon="6.10291">
        <ele>1140</ele>
        <time>2020-09-05T06:29:31Z</time>
      </trkpt>
      <trkpt lat="45.04908" lon="6.10295">
        <ele>1140.2</ele>
        <time>2020-09-05T06:29:32Z</time>
      </trkpt>
      <trkpt lat="45.04904" lon="6.10297">
        <ele>1140.4</ele>
        <time>2020-09-05T06:29:33Z</time>
      </trkpt>
      <trkpt lat="45.049" lon="6.103">
        <ele>1140.6</ele>
        <time>2020-09-05T06:29:34Z</time>
      </trkpt>
      <trkpt lat="45.04896" lon="6.10303">
        <ele>1141</ele>
        <time>2020-09-05T06:29:35Z</time>
      </trkpt>
      <trkpt lat="45.04892" lon="6.10306">
        <ele>1141.2</ele>
        <time>2020-09-05T06:29:36Z</time>
      </trkpt>
      <trkpt lat="45.04888" lon="6.10309">
        <ele>1141.4</ele>
        <time>2020-09-05T06:29:37Z</time>
      </trkpt>
      <trkpt lat="45.04885" lon="6.10313">
        <ele>1141.4</ele>
        <time>2020-09-05T06:29:38Z</time>
      </trkpt>
      <trkpt lat="45.04881" lon="6.10316">
        <ele>1141.4</ele>
        <time>2020-09-05T06:29:39Z</time>
      </trkpt>
      <trkpt lat="45.04878" lon="6.1032">
        <ele>1141.6</ele>
        <time>2020-09-05T06:29:40Z</time>
      </trkpt>
      <trkpt lat="45.04875" lon="6.10324">
        <ele>1141.8</ele>
        <time>2020-09-05T06:29:41Z</time>
      </trkpt>
      <trkpt lat="45.04871" lon="6.10328">
        <ele>1141.8</ele>
        <time>2020-09-05T06:29:42Z</time>
      </trkpt>
      <trkpt lat="45.04868" lon="6.10331">
        <ele>1142.2</ele>
        <time>2020-09-05T06:29:43Z</time>
      </trkpt>
      <trkpt lat="45.04865" lon="6.10335">
        <ele>1142.6</ele>
        <time>2020-09-05T06:29:44Z</time>
      </trkpt>
      <trkpt lat="45.04861" lon="6.10338">
        <ele>1143</ele>
        <time>2020-09-05T06:29:45Z</time>
      </trkpt>
      <trkpt lat="45.04858" lon="6.1034">
        <ele>1143.2</ele>
        <time>2020-09-05T06:29:46Z</time>
      </trkpt>
      <trkpt lat="45.04855" lon="6.10342">
        <ele>1143.4</ele>
        <time>2020-09-05T06:29:47Z</time>
      </trkpt>
      <trkpt lat="45.04851" lon="6.10345">
        <ele>1143.6</ele>
        <time>2020-09-05T06:29:48Z</time>
      </trkpt>
      <trkpt lat="45.04848" lon="6.10347">
        <ele>1144</ele>
        <time>2020-09-05T06:29:49Z</time>
      </trkpt>
      <trkpt lat="45.04845" lon="6.1035">
        <ele>1144.2</ele>
        <time>2020-09-05T06:29:50Z</time>
      </trkpt>
      <trkpt lat="45.04842" lon="6.10352">
        <ele>1144.8</ele>
        <time>2020-09-05T06:29:51Z</time>
      </trkpt>
      <trkpt lat="45.04839" lon="6.10355">
        <ele>1145</ele>
        <time>2020-09-05T06:29:52Z</time>
      </trkpt>
      <trkpt lat="45.04836" lon="6.10358">
        <ele>1145.4</ele>
        <time>2020-09-05T06:29:53Z</time>
      </trkpt>
      <trkpt lat="45.04833" lon="6.1036">
        <ele>1145.8</ele>
        <time>2020-09-05T06:29:54Z</time>
      </trkpt>
      <trkpt lat="45.0483" lon="6.10362">
        <ele>1146</ele>
        <time>2020-09-05T06:29:55Z</time>
      </trkpt>
      <trkpt lat="45.04827" lon="6.10363">
        <ele>1146.2</ele>
        <time>2020-09-05T06:29:56Z</time>
      </trkpt>
      <trkpt lat="45.04824" lon="6.10364">
        <ele>1146.6</ele>
        <time>2020-09-05T06:29:57Z</time>
      </trkpt>
      <trkpt lat="45.04821" lon="6.10365">
        <ele>1146.8</ele>
        <time>2020-09-05T06:29:58Z</time>
      </trkpt>
      <trkpt lat="45.04818" lon="6.10366">
        <ele>1147.2</ele>
        <time>2020-09-05T06:29:59Z</time>
      </trkpt>
      <trkpt lat="45.04815" lon="6.10366">
        <ele>1147.4</ele>
        <time>2020-09-05T06:30:00Z</time>
      </trkpt>
      <trkpt lat="45.04812" lon="6.10367">
        <ele>1147.6</ele>
        <time>2020-09-05T06:30:01Z</time>
      </trkpt>
      <trkpt lat="45.04809" lon="6.10369">
        <ele>1147.8</ele>
        <time>2020-09-05T06:30:02Z</time>
      </trkpt>
      <trkpt lat="45.04806" lon="6.10371">
        <ele>1148</ele>
        <time>2020-09-05T06:30:03Z</time>
      </trkpt>
      <trkpt lat="45.04803" lon="6.10373">
        <ele>1148.4</ele>
        <time>2020-09-05T06:30:04Z</time>
      </trkpt>
      <trkpt lat="45.048" lon="6.10376">
        <ele>1148.6</ele>
        <time>2020-09-05T06:30:05Z</time>
      </trkpt>
      <trkpt lat="45.04798" lon="6.10378">
        <ele>1148.8</ele>
        <time>2020-09-05T06:30:06Z</time>
      </trkpt>
      <trkpt lat="45.04795" lon="6.1038">
        <ele>1149.2</ele>
        <time>2020-09-05T06:30:07Z</time>
      </trkpt>
      <trkpt lat="45.04793" lon="6.10382">
        <ele>1149.6</ele>
        <time>2020-09-05T06:30:08Z</time>
      </trkpt>
      <trkpt lat="45.04791" lon="6.10385">
        <ele>1149.8</ele>
        <time>2020-09-05T06:30:09Z</time>
      </trkpt>
      <trkpt lat="45.04788" lon="6.10388">
        <ele>1150.2</ele>
        <time>2020-09-05T06:30:10Z</time>
      </trkpt>
      <trkpt lat="45.04786" lon="6.10391">
        <ele>1150.2</ele>
        <time>2020-09-05T06:30:11Z</time>
      </trkpt>
      <trkpt lat="45.04785" lon="6.10394">
        <ele>1150.6</ele>
        <time>2020-09-05T06:30:12Z</time>
      </trkpt>
      <trkpt lat="45.04783" lon="6.10397">
        <ele>1150.8</ele>
        <time>2020-09-05T06:30:13Z</time>
      </trkpt>
      <trkpt lat="45.04781" lon="6.104">
        <ele>1151</ele>
        <time>2020-09-05T06:30:14Z</time>
      </trkpt>
      <trkpt lat="45.04779" lon="6.10403">
        <ele>1151.2</ele>
        <time>2020-09-05T06:30:15Z</time>
      </trkpt>
      <trkpt lat="45.04778" lon="6.10407">
        <ele>1151.6</ele>
        <time>2020-09-05T06:30:16Z</time>
      </trkpt>
      <trkpt lat="45.04776" lon="6.1041">
        <ele>1152</ele>
        <time>2020-09-05T06:30:17Z</time>
      </trkpt>
      <trkpt lat="45.04774" lon="6.10414">
        <ele>1152.2</ele>
        <time>2020-09-05T06:30:18Z</time>
      </trkpt>
      <trkpt lat="45.04772" lon="6.10417">
        <ele>1152.4</ele>
        <time>2020-09-05T06:30:19Z</time>
      </trkpt>
      <trkpt lat="45.04771" lon="6.10421">
        <ele>1152.6</ele>
        <time>2020-09-05T06:30:20Z</time>
      </trkpt>
      <trkpt lat="45.04769" lon="6.10425">
        <ele>1152.8</ele>
        <time>2020-09-05T06:30:21Z</time>
      </trkpt>
      <trkpt lat="45.04768" lon="6.10428">
        <ele>1152.8</ele>
        <time>2020-09-05T06:30:22Z</time>
      </trkpt>
      <trkpt lat="45.04766" lon="6.10432">
        <ele>1153.2</ele>
        <time>2020-09-05T06:30:23Z</time>
      </trkpt>
      <trkpt lat="45.04765" lon="6.10436">
        <ele>1153.6</ele>
        <time>2020-09-05T06:30:24Z</time>
      </trkpt>
      <trkpt lat="45.04763" lon="6.10439">
        <ele>1153.8</ele>
        <time>2020-09-05T06:30:25Z</time>
      </trkpt>
      <trkpt lat="45.04762" lon="6.10442">
        <ele>1153.8</ele>
        <time>2020-09-05T06:30:26Z</time>
      </trkpt>
      <trkpt lat="45.0476" lon="6.10445">
        <ele>1154.2</ele>
        <time>2020-09-05T06:30:27Z</time>
      </trkpt>
      <trkpt lat="45.04759" lon="6.10448">
        <ele>1154.4</ele>
        <time>2020-09-05T06:30:28Z</time>
      </trkpt>
      <trkpt lat="45.04757" lon="6.10451">
        <ele>1154.8</ele>
        <time>2020-09-05T06:30:29Z</time>
      </trkpt>
      <trkpt lat="45.04756" lon="6.10455">
        <ele>1154.8</ele>
        <time>2020-09-05T06:30:30Z</time>
      </trkpt>
      <trkpt lat="45.04754" lon="6.10459">
        <ele>1155</ele>
        <time>2020-09-05T06:30:31Z</time>
      </trkpt>
      <trkpt lat="45.04752" lon="6.10462">
        <ele>1155.2</ele>
        <time>2020-09-05T06:30:32Z</time>
      </trkpt>
      <trkpt lat="45.0475" lon="6.10466">
        <ele>1155.4</ele>
        <time>2020-09-05T06:30:33Z</time>
      </trkpt>
      <trkpt lat="45.04749" lon="6.10469">
        <ele>1155.6</ele>
        <time>2020-09-05T06:30:34Z</time>
      </trkpt>
      <trkpt lat="45.04747" lon="6.10471">
        <ele>1155.8</ele>
        <time>2020-09-05T06:30:35Z</time>
      </trkpt>
      <trkpt lat="45.04746" lon="6.10474">
        <ele>1156.4</ele>
        <time>2020-09-05T06:30:36Z</time>
      </trkpt>
      <trkpt lat="45.04744" lon="6.10477">
        <ele>1156.6</ele>
        <time>2020-09-05T06:30:37Z</time>
      </trkpt>
      <trkpt lat="45.04743" lon="6.1048">
        <ele>1157</ele>
        <time>2020-09-05T06:30:38Z</time>
      </trkpt>
      <trkpt lat="45.04742" lon="6.10483">
        <ele>1157.2</ele>
        <time>2020-09-05T06:30:39Z</time>
      </trkpt>
      <trkpt lat="45.0474" lon="6.10486">
        <ele>1157.4</ele>
        <time>2020-09-05T06:30:40Z</time>
      </trkpt>
      <trkpt lat="45.04738" lon="6.10489">
        <ele>1157.6</ele>
        <time>2020-09-05T06:30:41Z</time>
      </trkpt>
      <trkpt lat="45.04737" lon="6.10492">
        <ele>1158</ele>
        <time>2020-09-05T06:30:42Z</time>
      </trkpt>
      <trkpt lat="45.04735" lon="6.10495">
        <ele>1158</ele>
        <time>2020-09-05T06:30:43Z</time>
      </trkpt>
      <trkpt lat="45.04734" lon="6.10498">
        <ele>1158.2</ele>
        <time>2020-09-05T06:30:44Z</time>
      </trkpt>
      <trkpt lat="45.04733" lon="6.105">
        <ele>1158.6</ele>
        <time>2020-09-05T06:30:45Z</time>
      </trkpt>
      <trkpt lat="45.04731" lon="6.10503">
        <ele>1158.8</ele>
        <time>2020-09-05T06:30:46Z</time>
      </trkpt>
      <trkpt lat="45.0473" lon="6.10506">
        <ele>1158.8</ele>
        <time>2020-09-05T06:30:47Z</time>
      </trkpt>
      <trkpt lat="45.04728" lon="6.10508">
        <ele>1159.2</ele>
        <time>2020-09-05T06:30:48Z</time>
      </trkpt>
      <trkpt lat="45.04726" lon="6.10511">
        <ele>1159.4</ele>
        <time>2020-09-05T06:30:49Z</time>
      </trkpt>
      <trkpt lat="45.04725" lon="6.10514">
        <ele>1159.6</ele>
        <time>2020-09-05T06:30:50Z</time>
      </trkpt>
      <trkpt lat="45.04723" lon="6.10516">
        <ele>1160</ele>
        <time>2020-09-05T06:30:51Z</time>
      </trkpt>
      <trkpt lat="45.04722" lon="6.10519">
        <ele>1160</ele>
        <time>2020-09-05T06:30:52Z</time>
      </trkpt>
      <trkpt lat="45.0472" lon="6.10522">
        <ele>1160.4</ele>
        <time>2020-09-05T06:30:53Z</time>
      </trkpt>
      <trkpt lat="45.04719" lon="6.10525">
        <ele>1160.6</ele>
        <time>2020-09-05T06:30:54Z</time>
      </trkpt>
      <trkpt lat="45.04718" lon="6.10528">
        <ele>1161</ele>
        <time>2020-09-05T06:30:55Z</time>
      </trkpt>
      <trkpt lat="45.04717" lon="6.10531">
        <ele>1161</ele>
        <time>2020-09-05T06:30:56Z</time>
      </trkpt>
      <trkpt lat="45.04716" lon="6.10534">
        <ele>1161.4</ele>
        <time>2020-09-05T06:30:57Z</time>
      </trkpt>
      <trkpt lat="45.04714" lon="6.10538">
        <ele>1161.8</ele>
        <time>2020-09-05T06:30:58Z</time>
      </trkpt>
      <trkpt lat="45.04714" lon="6.10541">
        <ele>1162</ele>
        <time>2020-09-05T06:30:59Z</time>
      </trkpt>
      <trkpt lat="45.04712" lon="6.10544">
        <ele>1162.2</ele>
        <time>2020-09-05T06:31:00Z</time>
      </trkpt>
      <trkpt lat="45.04711" lon="6.10547">
        <ele>1162.6</ele>
        <time>2020-09-05T06:31:01Z</time>
      </trkpt>
      <trkpt lat="45.0471" lon="6.1055">
        <ele>1162.8</ele>
        <time>2020-09-05T06:31:02Z</time>
      </trkpt>
      <trkpt lat="45.04709" lon="6.10553">
        <ele>1163</ele>
        <time>2020-09-05T06:31:03Z</time>
      </trkpt>
      <trkpt lat="45.04708" lon="6.10556">
        <ele>1163.2</ele>
        <time>2020-09-05T06:31:04Z</time>
      </trkpt>
      <trkpt lat="45.04707" lon="6.10559">
        <ele>1163.6</ele>
        <time>2020-09-05T06:31:05Z</time>
      </trkpt>
      <trkpt lat="45.04707" lon="6.10562">
        <ele>1163.8</ele>
        <time>2020-09-05T06:31:06Z</time>
      </trkpt>
      <trkpt lat="45.04707" lon="6.10565">
        <ele>1163.8</ele>
        <time>2020-09-05T06:31:07Z</time>
      </trkpt>
      <trkpt lat="45.04707" lon="6.10568">
        <ele>1164.2</ele>
        <time>2020-09-05T06:31:08Z</time>
      </trkpt>
      <trkpt lat="45.04706" lon="6.10571">
        <ele>1164.2</ele>
        <time>2020-09-05T06:31:09Z</time>
      </trkpt>
      <trkpt lat="45.04705" lon="6.10573">
        <ele>1164.4</ele>
        <time>2020-09-05T06:31:10Z</time>
      </trkpt>
      <trkpt lat="45.04703" lon="6.10575">
        <ele>1164.6</ele>
        <time>2020-09-05T06:31:11Z</time>
      </trkpt>
      <trkpt lat="45.04702" lon="6.10577">
        <ele>1165</ele>
        <time>2020-09-05T06:31:12Z</time>
      </trkpt>
      <trkpt lat="45.04701" lon="6.10579">
        <ele>1165.2</ele>
        <time>2020-09-05T06:31:13Z</time>
      </trkpt>
      <trkpt lat="45.047" lon="6.10582">
        <ele>1165.4</ele>
        <time>2020-09-05T06:31:14Z</time>
      </trkpt>
      <trkpt lat="45.04699" lon="6.10585">
        <ele>1165.6</ele>
        <time>2020-09-05T06:31:15Z</time>
      </trkpt>
      <trkpt lat="45.04698" lon="6.10587">
        <ele>1166</ele>
        <time>2020-09-05T06:31:16Z</time>
      </trkpt>
      <trkpt lat="45.04698" lon="6.1059">
        <ele>1166.2</ele>
        <time>2020-09-05T06:31:17Z</time>
      </trkpt>
      <trkpt lat="45.04697" lon="6.10593">
        <ele>1166.4</ele>
        <time>2020-09-05T06:31:18Z</time>
      </trkpt>
      <trkpt lat="45.04696" lon="6.10597">
        <ele>1166.8</ele>
        <time>2020-09-05T06:31:19Z</time>
      </trkpt>
      <trkpt lat="45.04695" lon="6.106">
        <ele>1167</ele>
        <time>2020-09-05T06:31:20Z</time>
      </trkpt>
      <trkpt lat="45.04694" lon="6.10603">
        <ele>1167</ele>
        <time>2020-09-05T06:31:21Z</time>
      </trkpt>
      <trkpt lat="45.04693" lon="6.10607">
        <ele>1167</ele>
        <time>2020-09-05T06:31:22Z</time>
      </trkpt>
      <trkpt lat="45.04692" lon="6.1061">
        <ele>1167.6</ele>
        <time>2020-09-05T06:31:23Z</time>
      </trkpt>
      <trkpt lat="45.04691" lon="6.10614">
        <ele>1167.8</ele>
        <time>2020-09-05T06:31:24Z</time>
      </trkpt>
      <trkpt lat="45.0469" lon="6.10617">
        <ele>1168</ele>
        <time>2020-09-05T06:31:25Z</time>
      </trkpt>
      <trkpt lat="45.04688" lon="6.10621">
        <ele>1168.2</ele>
        <time>2020-09-05T06:31:26Z</time>
      </trkpt>
      <trkpt lat="45.04687" lon="6.10624">
        <ele>1168.4</ele>
        <time>2020-09-05T06:31:27Z</time>
      </trkpt>
      <trkpt lat="45.04686" lon="6.10628">
        <ele>1168.6</ele>
        <time>2020-09-05T06:31:28Z</time>
      </trkpt>
      <trkpt lat="45.04685" lon="6.10632">
        <ele>1169</ele>
        <time>2020-09-05T06:31:29Z</time>
      </trkpt>
      <trkpt lat="45.04684" lon="6.10636">
        <ele>1169.2</ele>
        <time>2020-09-05T06:31:30Z</time>
      </trkpt>
      <trkpt lat="45.04684" lon="6.10639">
        <ele>1169.4</ele>
        <time>2020-09-05T06:31:31Z</time>
      </trkpt>
      <trkpt lat="45.04683" lon="6.10643">
        <ele>1169.4</ele>
        <time>2020-09-05T06:31:32Z</time>
      </trkpt>
      <trkpt lat="45.04682" lon="6.10646">
        <ele>1169.6</ele>
        <time>2020-09-05T06:31:33Z</time>
      </trkpt>
      <trkpt lat="45.04681" lon="6.1065">
        <ele>1169.8</ele>
        <time>2020-09-05T06:31:34Z</time>
      </trkpt>
      <trkpt lat="45.0468" lon="6.10654">
        <ele>1170</ele>
        <time>2020-09-05T06:31:35Z</time>
      </trkpt>
      <trkpt lat="45.04679" lon="6.10657">
        <ele>1170.2</ele>
        <time>2020-09-05T06:31:36Z</time>
      </trkpt>
      <trkpt lat="45.04677" lon="6.10661">
        <ele>1170.6</ele>
        <time>2020-09-05T06:31:37Z</time>
      </trkpt>
      <trkpt lat="45.04676" lon="6.10664">
        <ele>1170.8</ele>
        <time>2020-09-05T06:31:38Z</time>
      </trkpt>
      <trkpt lat="45.04674" lon="6.10667">
        <ele>1171.2</ele>
        <time>2020-09-05T06:31:39Z</time>
      </trkpt>
      <trkpt lat="45.04673" lon="6.1067">
        <ele>1171.2</ele>
        <time>2020-09-05T06:31:40Z</time>
      </trkpt>
      <trkpt lat="45.04672" lon="6.10673">
        <ele>1171.6</ele>
        <time>2020-09-05T06:31:41Z</time>
      </trkpt>
      <trkpt lat="45.04671" lon="6.10675">
        <ele>1171.6</ele>
        <time>2020-09-05T06:31:42Z</time>
      </trkpt>
      <trkpt lat="45.0467" lon="6.10677">
        <ele>1171.8</ele>
        <time>2020-09-05T06:31:43Z</time>
      </trkpt>
      <trkpt lat="45.04669" lon="6.1068">
        <ele>1172</ele>
        <time>2020-09-05T06:31:44Z</time>
      </trkpt>
      <trkpt lat="45.04668" lon="6.10682">
        <ele>1172.2</ele>
        <time>2020-09-05T06:31:45Z</time>
      </trkpt>
      <trkpt lat="45.04667" lon="6.10685">
        <ele>1172.4</ele>
        <time>2020-09-05T06:31:46Z</time>
      </trkpt>
      <trkpt lat="45.04666" lon="6.10688">
        <ele>1172.6</ele>
        <time>2020-09-05T06:31:47Z</time>
      </trkpt>
      <trkpt lat="45.04664" lon="6.1069">
        <ele>1172.8</ele>
        <time>2020-09-05T06:31:48Z</time>
      </trkpt>
      <trkpt lat="45.04663" lon="6.10693">
        <ele>1173</ele>
        <time>2020-09-05T06:31:49Z</time>
      </trkpt>
      <trkpt lat="45.04661" lon="6.10696">
        <ele>1173.4</ele>
        <time>2020-09-05T06:31:50Z</time>
      </trkpt>
      <trkpt lat="45.0466" lon="6.107">
        <ele>1173.6</ele>
        <time>2020-09-05T06:31:51Z</time>
      </trkpt>
      <trkpt lat="45.04658" lon="6.10703">
        <ele>1174</ele>
        <time>2020-09-05T06:31:52Z</time>
      </trkpt>
      <trkpt lat="45.04656" lon="6.10706">
        <ele>1174</ele>
        <time>2020-09-05T06:31:53Z</time>
      </trkpt>
      <trkpt lat="45.04655" lon="6.10709">
        <ele>1174.2</ele>
        <time>2020-09-05T06:31:54Z</time>
      </trkpt>
      <trkpt lat="45.04653" lon="6.10712">
        <ele>1174.4</ele>
        <time>2020-09-05T06:31:55Z</time>
      </trkpt>
      <trkpt lat="45.04651" lon="6.10715">
        <ele>1174.6</ele>
        <time>2020-09-05T06:31:56Z</time>
      </trkpt>
      <trkpt lat="45.0465" lon="6.10718">
        <ele>1174.8</ele>
        <time>2020-09-05T06:31:57Z</time>
      </trkpt>
      <trkpt lat="45.04648" lon="6.10721">
        <ele>1175.2</ele>
        <time>2020-09-05T06:31:58Z</time>
      </trkpt>
      <trkpt lat="45.04646" lon="6.10724">
        <ele>1175.4</ele>
        <time>2020-09-05T06:31:59Z</time>
      </trkpt>
      <trkpt lat="45.04644" lon="6.10726">
        <ele>1175.6</ele>
        <time>2020-09-05T06:32:00Z</time>
      </trkpt>
      <trkpt lat="45.04642" lon="6.10729">
        <ele>1175.8</ele>
        <time>2020-09-05T06:32:01Z</time>
      </trkpt>
      <trkpt lat="45.04641" lon="6.10732">
        <ele>1175.8</ele>
        <time>2020-09-05T06:32:02Z</time>
      </trkpt>
      <trkpt lat="45.04639" lon="6.10734">
        <ele>1176</ele>
        <time>2020-09-05T06:32:03Z</time>
      </trkpt>
      <trkpt lat="45.04637" lon="6.10737">
        <ele>1176.2</ele>
        <time>2020-09-05T06:32:04Z</time>
      </trkpt>
      <trkpt lat="45.04635" lon="6.1074">
        <ele>1176.6</ele>
        <time>2020-09-05T06:32:05Z</time>
      </trkpt>
      <trkpt lat="45.04633" lon="6.10743">
        <ele>1176.8</ele>
        <time>2020-09-05T06:32:06Z</time>
      </trkpt>
      <trkpt lat="45.04631" lon="6.10745">
        <ele>1177.2</ele>
        <time>2020-09-05T06:32:07Z</time>
      </trkpt>
      <trkpt lat="45.0463" lon="6.10748">
        <ele>1177.4</ele>
        <time>2020-09-05T06:32:08Z</time>
      </trkpt>
      <trkpt lat="45.04628" lon="6.1075">
        <ele>1177.6</ele>
        <time>2020-09-05T06:32:09Z</time>
      </trkpt>
      <trkpt lat="45.04626" lon="6.10753">
        <ele>1178.2</ele>
        <time>2020-09-05T06:32:10Z</time>
      </trkpt>
      <trkpt lat="45.04624" lon="6.10755">
        <ele>1178.2</ele>
        <time>2020-09-05T06:32:11Z</time>
      </trkpt>
      <trkpt lat="45.04621" lon="6.10757">
        <ele>1178.4</ele>
        <time>2020-09-05T06:32:12Z</time>
      </trkpt>
      <trkpt lat="45.04619" lon="6.1076">
        <ele>1178.6</ele>
        <time>2020-09-05T06:32:13Z</time>
      </trkpt>
      <trkpt lat="45.04617" lon="6.10762">
        <ele>1179</ele>
        <time>2020-09-05T06:32:14Z</time>
      </trkpt>
      <trkpt lat="45.04615" lon="6.10765">
        <ele>1179.4</ele>
        <time>2020-09-05T06:32:15Z</time>
      </trkpt>
      <trkpt lat="45.04613" lon="6.10767">
        <ele>1179.6</ele>
        <time>2020-09-05T06:32:16Z</time>
      </trkpt>
      <trkpt lat="45.04611" lon="6.10769">
        <ele>1180</ele>
        <time>2020-09-05T06:32:17Z</time>
      </trkpt>
      <trkpt lat="45.04609" lon="6.10771">
        <ele>1180.2</ele>
        <time>2020-09-05T06:32:18Z</time>
      </trkpt>
      <trkpt lat="45.04606" lon="6.10772">
        <ele>1180.4</ele>
        <time>2020-09-05T06:32:19Z</time>
      </trkpt>
      <trkpt lat="45.04604" lon="6.10775">
        <ele>1180.8</ele>
        <time>2020-09-05T06:32:20Z</time>
      </trkpt>
      <trkpt lat="45.04601" lon="6.10776">
        <ele>1181</ele>
        <time>2020-09-05T06:32:21Z</time>
      </trkpt>
      <trkpt lat="45.04599" lon="6.10778">
        <ele>1181.4</ele>
        <time>2020-09-05T06:32:22Z</time>
      </trkpt>
      <trkpt lat="45.04597" lon="6.1078">
        <ele>1181.6</ele>
        <time>2020-09-05T06:32:23Z</time>
      </trkpt>
      <trkpt lat="45.04594" lon="6.10781">
        <ele>1181.8</ele>
        <time>2020-09-05T06:32:24Z</time>
      </trkpt>
      <trkpt lat="45.04592" lon="6.10782">
        <ele>1182.2</ele>
        <time>2020-09-05T06:32:25Z</time>
      </trkpt>
      <trkpt lat="45.04589" lon="6.10784">
        <ele>1182.2</ele>
        <time>2020-09-05T06:32:26Z</time>
      </trkpt>
      <trkpt lat="45.04587" lon="6.10785">
        <ele>1182.4</ele>
        <time>2020-09-05T06:32:27Z</time>
      </trkpt>
      <trkpt lat="45.04584" lon="6.10787">
        <ele>1182.8</ele>
        <time>2020-09-05T06:32:28Z</time>
      </trkpt>
      <trkpt lat="45.04581" lon="6.10788">
        <ele>1182.8</ele>
        <time>2020-09-05T06:32:29Z</time>
      </trkpt>
      <trkpt lat="45.04579" lon="6.1079">
        <ele>1183</ele>
        <time>2020-09-05T06:32:30Z</time>
      </trkpt>
      <trkpt lat="45.04576" lon="6.10791">
        <ele>1183</ele>
        <time>2020-09-05T06:32:31Z</time>
      </trkpt>
      <trkpt lat="45.04574" lon="6.10791">
        <ele>1183.2</ele>
        <time>2020-09-05T06:32:32Z</time>
      </trkpt>
      <trkpt lat="45.04571" lon="6.10792">
        <ele>1183.4</ele>
        <time>2020-09-05T06:32:33Z</time>
      </trkpt>
      <trkpt lat="45.04568" lon="6.10793">
        <ele>1183.4</ele>
        <time>2020-09-05T06:32:34Z</time>
      </trkpt>
      <trkpt lat="45.04566" lon="6.10794">
        <ele>1183.6</ele>
        <time>2020-09-05T06:32:35Z</time>
      </trkpt>
      <trkpt lat="45.04563" lon="6.10796">
        <ele>1184</ele>
        <time>2020-09-05T06:32:36Z</time>
      </trkpt>
      <trkpt lat="45.0456" lon="6.10797">
        <ele>1184.4</ele>
        <time>2020-09-05T06:32:37Z</time>
      </trkpt>
      <trkpt lat="45.04557" lon="6.10798">
        <ele>1184.6</ele>
        <time>2020-09-05T06:32:38Z</time>
      </trkpt>
      <trkpt lat="45.04554" lon="6.10799">
        <ele>1184.8</ele>
        <time>2020-09-05T06:32:39Z</time>
      </trkpt>
      <trkpt lat="45.04551" lon="6.10801">
        <ele>1184.8</ele>
        <time>2020-09-05T06:32:40Z</time>
      </trkpt>
      <trkpt lat="45.04548" lon="6.10801">
        <ele>1185</ele>
        <time>2020-09-05T06:32:41Z</time>
      </trkpt>
      <trkpt lat="45.04544" lon="6.10802">
        <ele>1185.2</ele>
        <time>2020-09-05T06:32:42Z</time>
      </trkpt>
      <trkpt lat="45.04541" lon="6.10802">
        <ele>1185.4</ele>
        <time>2020-09-05T06:32:43Z</time>
      </trkpt>
      <trkpt lat="45.04538" lon="6.10803">
        <ele>1185.4</ele>
        <time>2020-09-05T06:32:44Z</time>
      </trkpt>
      <trkpt lat="45.04535" lon="6.10803">
        <ele>1185.6</ele>
        <time>2020-09-05T06:32:45Z</time>
      </trkpt>
      <trkpt lat="45.04532" lon="6.10804">
        <ele>1185.8</ele>
        <time>2020-09-05T06:32:46Z</time>
      </trkpt>
      <trkpt lat="45.04529" lon="6.10804">
        <ele>1185.8</ele>
        <time>2020-09-05T06:32:47Z</time>
      </trkpt>
      <trkpt lat="45.04519" lon="6.10805">
        <ele>1186.8</ele>
        <time>2020-09-05T06:32:50Z</time>
      </trkpt>
      <trkpt lat="45.04508" lon="6.10803">
        <ele>1187.6</ele>
        <time>2020-09-05T06:32:54Z</time>
      </trkpt>
      <trkpt lat="45.04498" lon="6.10799">
        <ele>1188.6</ele>
        <time>2020-09-05T06:32:58Z</time>
      </trkpt>
      <trkpt lat="45.0449" lon="6.10792">
        <ele>1189.4</ele>
        <time>2020-09-05T06:33:02Z</time>
      </trkpt>
      <trkpt lat="45.04484" lon="6.10787">
        <ele>1190</ele>
        <time>2020-09-05T06:33:04Z</time>
      </trkpt>
      <trkpt lat="45.04482" lon="6.10785">
        <ele>1190.2</ele>
        <time>2020-09-05T06:33:05Z</time>
      </trkpt>
      <trkpt lat="45.04479" lon="6.10785">
        <ele>1190.4</ele>
        <time>2020-09-05T06:33:06Z</time>
      </trkpt>
      <trkpt lat="45.04476" lon="6.10785">
        <ele>1190.8</ele>
        <time>2020-09-05T06:33:07Z</time>
      </trkpt>
      <trkpt lat="45.04473" lon="6.10786">
        <ele>1191</ele>
        <time>2020-09-05T06:33:08Z</time>
      </trkpt>
      <trkpt lat="45.0447" lon="6.10787">
        <ele>1191.2</ele>
        <time>2020-09-05T06:33:09Z</time>
      </trkpt>
      <trkpt lat="45.04467" lon="6.10788">
        <ele>1191.4</ele>
        <time>2020-09-05T06:33:10Z</time>
      </trkpt>
      <trkpt lat="45.04465" lon="6.1079">
        <ele>1191.8</ele>
        <time>2020-09-05T06:33:11Z</time>
      </trkpt>
      <trkpt lat="45.04462" lon="6.10791">
        <ele>1192</ele>
        <time>2020-09-05T06:33:12Z</time>
      </trkpt>
      <trkpt lat="45.04459" lon="6.10793">
        <ele>1192.2</ele>
        <time>2020-09-05T06:33:13Z</time>
      </trkpt>
      <trkpt lat="45.04457" lon="6.10795">
        <ele>1192.2</ele>
        <time>2020-09-05T06:33:14Z</time>
      </trkpt>
      <trkpt lat="45.04454" lon="6.10797">
        <ele>1192.4</ele>
        <time>2020-09-05T06:33:15Z</time>
      </trkpt>
      <trkpt lat="45.04451" lon="6.10799">
        <ele>1192.8</ele>
        <time>2020-09-05T06:33:16Z</time>
      </trkpt>
      <trkpt lat="45.04448" lon="6.10801">
        <ele>1192.8</ele>
        <time>2020-09-05T06:33:17Z</time>
      </trkpt>
      <trkpt lat="45.04446" lon="6.10803">
        <ele>1193</ele>
        <time>2020-09-05T06:33:18Z</time>
      </trkpt>
      <trkpt lat="45.04443" lon="6.10805">
        <ele>1193.2</ele>
        <time>2020-09-05T06:33:19Z</time>
      </trkpt>
      <trkpt lat="45.0444" lon="6.10807">
        <ele>1193.4</ele>
        <time>2020-09-05T06:33:20Z</time>
      </trkpt>
      <trkpt lat="45.04438" lon="6.10809">
        <ele>1193.6</ele>
        <time>2020-09-05T06:33:21Z</time>
      </trkpt>
      <trkpt lat="45.04435" lon="6.1081">
        <ele>1194.2</ele>
        <time>2020-09-05T06:33:22Z</time>
      </trkpt>
      <trkpt lat="45.04433" lon="6.10812">
        <ele>1194.4</ele>
        <time>2020-09-05T06:33:23Z</time>
      </trkpt>
      <trkpt lat="45.0443" lon="6.10814">
        <ele>1194.6</ele>
        <time>2020-09-05T06:33:24Z</time>
      </trkpt>
      <trkpt lat="45.04427" lon="6.10817">
        <ele>1194.8</ele>
        <time>2020-09-05T06:33:25Z</time>
      </trkpt>
      <trkpt lat="45.04425" lon="6.10819">
        <ele>1194.8</ele>
        <time>2020-09-05T06:33:26Z</time>
      </trkpt>
      <trkpt lat="45.04423" lon="6.10821">
        <ele>1194.8</ele>
        <time>2020-09-05T06:33:27Z</time>
      </trkpt>
      <trkpt lat="45.0442" lon="6.10824">
        <ele>1195</ele>
        <time>2020-09-05T06:33:28Z</time>
      </trkpt>
      <trkpt lat="45.04418" lon="6.10826">
        <ele>1195</ele>
        <time>2020-09-05T06:33:29Z</time>
      </trkpt>
      <trkpt lat="45.04415" lon="6.10828">
        <ele>1195.4</ele>
        <time>2020-09-05T06:33:30Z</time>
      </trkpt>
      <trkpt lat="45.04412" lon="6.10831">
        <ele>1195.6</ele>
        <time>2020-09-05T06:33:31Z</time>
      </trkpt>
      <trkpt lat="45.0441" lon="6.10833">
        <ele>1195.6</ele>
        <time>2020-09-05T06:33:32Z</time>
      </trkpt>
      <trkpt lat="45.04407" lon="6.10836">
        <ele>1196</ele>
        <time>2020-09-05T06:33:33Z</time>
      </trkpt>
      <trkpt lat="45.04405" lon="6.10839">
        <ele>1196.2</ele>
        <time>2020-09-05T06:33:34Z</time>
      </trkpt>
      <trkpt lat="45.04402" lon="6.10842">
        <ele>1196.4</ele>
        <time>2020-09-05T06:33:35Z</time>
      </trkpt>
      <trkpt lat="45.044" lon="6.10845">
        <ele>1196.6</ele>
        <time>2020-09-05T06:33:36Z</time>
      </trkpt>
      <trkpt lat="45.04398" lon="6.10848">
        <ele>1196.8</ele>
        <time>2020-09-05T06:33:37Z</time>
      </trkpt>
      <trkpt lat="45.04396" lon="6.10852">
        <ele>1197</ele>
        <time>2020-09-05T06:33:38Z</time>
      </trkpt>
      <trkpt lat="45.04394" lon="6.10855">
        <ele>1197.2</ele>
        <time>2020-09-05T06:33:39Z</time>
      </trkpt>
      <trkpt lat="45.04393" lon="6.10859">
        <ele>1197.4</ele>
        <time>2020-09-05T06:33:40Z</time>
      </trkpt>
      <trkpt lat="45.04393" lon="6.10863">
        <ele>1197.8</ele>
        <time>2020-09-05T06:33:41Z</time>
      </trkpt>
      <trkpt lat="45.04393" lon="6.10868">
        <ele>1197.8</ele>
        <time>2020-09-05T06:33:42Z</time>
      </trkpt>
      <trkpt lat="45.04392" lon="6.10872">
        <ele>1198.2</ele>
        <time>2020-09-05T06:33:43Z</time>
      </trkpt>
      <trkpt lat="45.04392" lon="6.10876">
        <ele>1198.4</ele>
        <time>2020-09-05T06:33:44Z</time>
      </trkpt>
      <trkpt lat="45.04392" lon="6.1088">
        <ele>1198.6</ele>
        <time>2020-09-05T06:33:45Z</time>
      </trkpt>
      <trkpt lat="45.04392" lon="6.10884">
        <ele>1198.8</ele>
        <time>2020-09-05T06:33:46Z</time>
      </trkpt>
      <trkpt lat="45.04393" lon="6.10889">
        <ele>1199</ele>
        <time>2020-09-05T06:33:47Z</time>
      </trkpt>
      <trkpt lat="45.04393" lon="6.10893">
        <ele>1199.4</ele>
        <time>2020-09-05T06:33:48Z</time>
      </trkpt>
      <trkpt lat="45.04393" lon="6.10897">
        <ele>1199.6</ele>
        <time>2020-09-05T06:33:49Z</time>
      </trkpt>
      <trkpt lat="45.04394" lon="6.10901">
        <ele>1199.8</ele>
        <time>2020-09-05T06:33:50Z</time>
      </trkpt>
      <trkpt lat="45.04394" lon="6.10905">
        <ele>1200</ele>
        <time>2020-09-05T06:33:51Z</time>
      </trkpt>
      <trkpt lat="45.04394" lon="6.10908">
        <ele>1200.4</ele>
        <time>2020-09-05T06:33:52Z</time>
      </trkpt>
      <trkpt lat="45.04394" lon="6.10912">
        <ele>1200.6</ele>
        <time>2020-09-05T06:33:53Z</time>
      </trkpt>
      <trkpt lat="45.04394" lon="6.10916">
        <ele>1200.8</ele>
        <time>2020-09-05T06:33:54Z</time>
      </trkpt>
      <trkpt lat="45.04394" lon="6.1092">
        <ele>1201</ele>
        <time>2020-09-05T06:33:55Z</time>
      </trkpt>
      <trkpt lat="45.04394" lon="6.10923">
        <ele>1201.4</ele>
        <time>2020-09-05T06:33:56Z</time>
      </trkpt>
      <trkpt lat="45.04393" lon="6.10927">
        <ele>1201.8</ele>
        <time>2020-09-05T06:33:57Z</time>
      </trkpt>
      <trkpt lat="45.04393" lon="6.1093">
        <ele>1201.8</ele>
        <time>2020-09-05T06:33:58Z</time>
      </trkpt>
      <trkpt lat="45.04392" lon="6.10934">
        <ele>1202</ele>
        <time>2020-09-05T06:33:59Z</time>
      </trkpt>
      <trkpt lat="45.04392" lon="6.10938">
        <ele>1202.2</ele>
        <time>2020-09-05T06:34:00Z</time>
      </trkpt>
      <trkpt lat="45.04391" lon="6.10941">
        <ele>1202.4</ele>
        <time>2020-09-05T06:34:01Z</time>
      </trkpt>
      <trkpt lat="45.04391" lon="6.10945">
        <ele>1202.6</ele>
        <time>2020-09-05T06:34:02Z</time>
      </trkpt>
      <trkpt lat="45.0439" lon="6.10948">
        <ele>1202.8</ele>
        <time>2020-09-05T06:34:03Z</time>
      </trkpt>
      <trkpt lat="45.04389" lon="6.10951">
        <ele>1203</ele>
        <time>2020-09-05T06:34:04Z</time>
      </trkpt>
      <trkpt lat="45.04388" lon="6.10954">
        <ele>1203.4</ele>
        <time>2020-09-05T06:34:05Z</time>
      </trkpt>
      <trkpt lat="45.04387" lon="6.10957">
        <ele>1203.8</ele>
        <time>2020-09-05T06:34:06Z</time>
      </trkpt>
      <trkpt lat="45.04386" lon="6.1096">
        <ele>1204</ele>
        <time>2020-09-05T06:34:07Z</time>
      </trkpt>
      <trkpt lat="45.04386" lon="6.10964">
        <ele>1204.4</ele>
        <time>2020-09-05T06:34:08Z</time>
      </trkpt>
      <trkpt lat="45.04385" lon="6.10967">
        <ele>1204.4</ele>
        <time>2020-09-05T06:34:09Z</time>
      </trkpt>
      <trkpt lat="45.04385" lon="6.10971">
        <ele>1204.8</ele>
        <time>2020-09-05T06:34:10Z</time>
      </trkpt>
      <trkpt lat="45.04384" lon="6.10975">
        <ele>1205</ele>
        <time>2020-09-05T06:34:11Z</time>
      </trkpt>
      <trkpt lat="45.04383" lon="6.10978">
        <ele>1205.4</ele>
        <time>2020-09-05T06:34:12Z</time>
      </trkpt>
      <trkpt lat="45.04382" lon="6.10982">
        <ele>1205.8</ele>
        <time>2020-09-05T06:34:13Z</time>
      </trkpt>
      <trkpt lat="45.04381" lon="6.10985">
        <ele>1206</ele>
        <time>2020-09-05T06:34:14Z</time>
      </trkpt>
      <trkpt lat="45.04381" lon="6.10989">
        <ele>1206.4</ele>
        <time>2020-09-05T06:34:15Z</time>
      </trkpt>
      <trkpt lat="45.04382" lon="6.10991">
        <ele>1206.6</ele>
        <time>2020-09-05T06:34:16Z</time>
      </trkpt>
      <trkpt lat="45.04384" lon="6.10994">
        <ele>1206.8</ele>
        <time>2020-09-05T06:34:17Z</time>
      </trkpt>
      <trkpt lat="45.04386" lon="6.10997">
        <ele>1207</ele>
        <time>2020-09-05T06:34:18Z</time>
      </trkpt>
      <trkpt lat="45.04388" lon="6.11">
        <ele>1207.2</ele>
        <time>2020-09-05T06:34:19Z</time>
      </trkpt>
      <trkpt lat="45.0439" lon="6.11003">
        <ele>1207.6</ele>
        <time>2020-09-05T06:34:20Z</time>
      </trkpt>
      <trkpt lat="45.04392" lon="6.11006">
        <ele>1208</ele>
        <time>2020-09-05T06:34:21Z</time>
      </trkpt>
      <trkpt lat="45.04394" lon="6.11008">
        <ele>1208.4</ele>
        <time>2020-09-05T06:34:22Z</time>
      </trkpt>
      <trkpt lat="45.04397" lon="6.1101">
        <ele>1208.6</ele>
        <time>2020-09-05T06:34:23Z</time>
      </trkpt>
      <trkpt lat="45.04399" lon="6.11012">
        <ele>1208.8</ele>
        <time>2020-09-05T06:34:24Z</time>
      </trkpt>
      <trkpt lat="45.04402" lon="6.11014">
        <ele>1209</ele>
        <time>2020-09-05T06:34:25Z</time>
      </trkpt>
      <trkpt lat="45.04404" lon="6.11016">
        <ele>1209.2</ele>
        <time>2020-09-05T06:34:26Z</time>
      </trkpt>
      <trkpt lat="45.04407" lon="6.11018">
        <ele>1209.4</ele>
        <time>2020-09-05T06:34:27Z</time>
      </trkpt>
      <trkpt lat="45.04409" lon="6.11019">
        <ele>1209.6</ele>
        <time>2020-09-05T06:34:28Z</time>
      </trkpt>
      <trkpt lat="45.04411" lon="6.11021">
        <ele>1209.8</ele>
        <time>2020-09-05T06:34:29Z</time>
      </trkpt>
      <trkpt lat="45.04414" lon="6.11023">
        <ele>1210</ele>
        <time>2020-09-05T06:34:30Z</time>
      </trkpt>
      <trkpt lat="45.04416" lon="6.11025">
        <ele>1210.2</ele>
        <time>2020-09-05T06:34:31Z</time>
      </trkpt>
      <trkpt lat="45.04418" lon="6.11027">
        <ele>1210.2</ele>
        <time>2020-09-05T06:34:32Z</time>
      </trkpt>
      <trkpt lat="45.0442" lon="6.11029">
        <ele>1210.4</ele>
        <time>2020-09-05T06:34:33Z</time>
      </trkpt>
      <trkpt lat="45.04422" lon="6.11032">
        <ele>1210.6</ele>
        <time>2020-09-05T06:34:34Z</time>
      </trkpt>
      <trkpt lat="45.04423" lon="6.11034">
        <ele>1211</ele>
        <time>2020-09-05T06:34:35Z</time>
      </trkpt>
      <trkpt lat="45.04425" lon="6.11037">
        <ele>1211.2</ele>
        <time>2020-09-05T06:34:36Z</time>
      </trkpt>
      <trkpt lat="45.04427" lon="6.1104">
        <ele>1211.4</ele>
        <time>2020-09-05T06:34:37Z</time>
      </trkpt>
      <trkpt lat="45.04429" lon="6.11043">
        <ele>1211.8</ele>
        <time>2020-09-05T06:34:38Z</time>
      </trkpt>
      <trkpt lat="45.0443" lon="6.11046">
        <ele>1212.2</ele>
        <time>2020-09-05T06:34:39Z</time>
      </trkpt>
      <trkpt lat="45.04432" lon="6.11049">
        <ele>1212.2</ele>
        <time>2020-09-05T06:34:40Z</time>
      </trkpt>
      <trkpt lat="45.04433" lon="6.11052">
        <ele>1212.6</ele>
        <time>2020-09-05T06:34:41Z</time>
      </trkpt>
      <trkpt lat="45.04435" lon="6.11055">
        <ele>1212.8</ele>
        <time>2020-09-05T06:34:42Z</time>
      </trkpt>
      <trkpt lat="45.04436" lon="6.11059">
        <ele>1213.2</ele>
        <time>2020-09-05T06:34:43Z</time>
      </trkpt>
      <trkpt lat="45.04438" lon="6.11062">
        <ele>1213.4</ele>
        <time>2020-09-05T06:34:44Z</time>
      </trkpt>
      <trkpt lat="45.0444" lon="6.11065">
        <ele>1213.8</ele>
        <time>2020-09-05T06:34:45Z</time>
      </trkpt>
      <trkpt lat="45.04442" lon="6.11068">
        <ele>1214</ele>
        <time>2020-09-05T06:34:46Z</time>
      </trkpt>
      <trkpt lat="45.04443" lon="6.11071">
        <ele>1214.2</ele>
        <time>2020-09-05T06:34:47Z</time>
      </trkpt>
      <trkpt lat="45.04445" lon="6.11074">
        <ele>1214.4</ele>
        <time>2020-09-05T06:34:48Z</time>
      </trkpt>
      <trkpt lat="45.04447" lon="6.11078">
        <ele>1214.6</ele>
        <time>2020-09-05T06:34:49Z</time>
      </trkpt>
      <trkpt lat="45.04448" lon="6.11081">
        <ele>1214.6</ele>
        <time>2020-09-05T06:34:50Z</time>
      </trkpt>
      <trkpt lat="45.0445" lon="6.11084">
        <ele>1214.6</ele>
        <time>2020-09-05T06:34:51Z</time>
      </trkpt>
      <trkpt lat="45.04452" lon="6.11086">
        <ele>1214.8</ele>
        <time>2020-09-05T06:34:52Z</time>
      </trkpt>
      <trkpt lat="45.04454" lon="6.11089">
        <ele>1214.8</ele>
        <time>2020-09-05T06:34:53Z</time>
      </trkpt>
      <trkpt lat="45.04457" lon="6.11091">
        <ele>1214.8</ele>
        <time>2020-09-05T06:34:54Z</time>
      </trkpt>
      <trkpt lat="45.04459" lon="6.11094">
        <ele>1214.8</ele>
        <time>2020-09-05T06:34:55Z</time>
      </trkpt>
      <trkpt lat="45.04462" lon="6.11096">
        <ele>1215</ele>
        <time>2020-09-05T06:34:56Z</time>
      </trkpt>
      <trkpt lat="45.04464" lon="6.11099">
        <ele>1215</ele>
        <time>2020-09-05T06:34:57Z</time>
      </trkpt>
      <trkpt lat="45.04466" lon="6.11102">
        <ele>1215.2</ele>
        <time>2020-09-05T06:34:58Z</time>
      </trkpt>
      <trkpt lat="45.04468" lon="6.11104">
        <ele>1215.4</ele>
        <time>2020-09-05T06:34:59Z</time>
      </trkpt>
      <trkpt lat="45.0447" lon="6.11107">
        <ele>1215.4</ele>
        <time>2020-09-05T06:35:00Z</time>
      </trkpt>
      <trkpt lat="45.04472" lon="6.1111">
        <ele>1215.6</ele>
        <time>2020-09-05T06:35:01Z</time>
      </trkpt>
      <trkpt lat="45.04475" lon="6.11113">
        <ele>1215.6</ele>
        <time>2020-09-05T06:35:02Z</time>
      </trkpt>
      <trkpt lat="45.04477" lon="6.11117">
        <ele>1215.6</ele>
        <time>2020-09-05T06:35:03Z</time>
      </trkpt>
      <trkpt lat="45.0448" lon="6.1112">
        <ele>1215.6</ele>
        <time>2020-09-05T06:35:04Z</time>
      </trkpt>
      <trkpt lat="45.04482" lon="6.11124">
        <ele>1215.6</ele>
        <time>2020-09-05T06:35:05Z</time>
      </trkpt>
      <trkpt lat="45.04485" lon="6.11127">
        <ele>1215.8</ele>
        <time>2020-09-05T06:35:06Z</time>
      </trkpt>
      <trkpt lat="45.04488" lon="6.1113">
        <ele>1216</ele>
        <time>2020-09-05T06:35:07Z</time>
      </trkpt>
      <trkpt lat="45.0449" lon="6.11134">
        <ele>1216</ele>
        <time>2020-09-05T06:35:08Z</time>
      </trkpt>
      <trkpt lat="45.04493" lon="6.11137">
        <ele>1216.2</ele>
        <time>2020-09-05T06:35:09Z</time>
      </trkpt>
      <trkpt lat="45.04495" lon="6.11141">
        <ele>1216.4</ele>
        <time>2020-09-05T06:35:10Z</time>
      </trkpt>
      <trkpt lat="45.04498" lon="6.11145">
        <ele>1216.6</ele>
        <time>2020-09-05T06:35:11Z</time>
      </trkpt>
      <trkpt lat="45.045" lon="6.11149">
        <ele>1216.6</ele>
        <time>2020-09-05T06:35:12Z</time>
      </trkpt>
      <trkpt lat="45.04502" lon="6.11154">
        <ele>1216.8</ele>
        <time>2020-09-05T06:35:13Z</time>
      </trkpt>
      <trkpt lat="45.04503" lon="6.11158">
        <ele>1216.8</ele>
        <time>2020-09-05T06:35:14Z</time>
      </trkpt>
      <trkpt lat="45.04504" lon="6.11164">
        <ele>1216.8</ele>
        <time>2020-09-05T06:35:15Z</time>
      </trkpt>
      <trkpt lat="45.04504" lon="6.11169">
        <ele>1216.8</ele>
        <time>2020-09-05T06:35:16Z</time>
      </trkpt>
      <trkpt lat="45.04504" lon="6.11175">
        <ele>1217</ele>
        <time>2020-09-05T06:35:17Z</time>
      </trkpt>
      <trkpt lat="45.04504" lon="6.1118">
        <ele>1217.2</ele>
        <time>2020-09-05T06:35:18Z</time>
      </trkpt>
      <trkpt lat="45.04503" lon="6.11186">
        <ele>1217.2</ele>
        <time>2020-09-05T06:35:19Z</time>
      </trkpt>
      <trkpt lat="45.04502" lon="6.11192">
        <ele>1217.2</ele>
        <time>2020-09-05T06:35:20Z</time>
      </trkpt>
      <trkpt lat="45.045" lon="6.11197">
        <ele>1217.4</ele>
        <time>2020-09-05T06:35:21Z</time>
      </trkpt>
      <trkpt lat="45.04498" lon="6.11203">
        <ele>1217.6</ele>
        <time>2020-09-05T06:35:22Z</time>
      </trkpt>
      <trkpt lat="45.04495" lon="6.11208">
        <ele>1217.6</ele>
        <time>2020-09-05T06:35:23Z</time>
      </trkpt>
      <trkpt lat="45.04492" lon="6.11213">
        <ele>1217.6</ele>
        <time>2020-09-05T06:35:24Z</time>
      </trkpt>
      <trkpt lat="45.04489" lon="6.11218">
        <ele>1217.6</ele>
        <time>2020-09-05T06:35:25Z</time>
      </trkpt>
      <trkpt lat="45.04485" lon="6.11221">
        <ele>1217.8</ele>
        <time>2020-09-05T06:35:26Z</time>
      </trkpt>
      <trkpt lat="45.04481" lon="6.11224">
        <ele>1218.2</ele>
        <time>2020-09-05T06:35:27Z</time>
      </trkpt>
      <trkpt lat="45.04477" lon="6.11226">
        <ele>1218.4</ele>
        <time>2020-09-05T06:35:28Z</time>
      </trkpt>
      <trkpt lat="45.04473" lon="6.11227">
        <ele>1218.2</ele>
        <time>2020-09-05T06:35:29Z</time>
      </trkpt>
      <trkpt lat="45.04469" lon="6.11227">
        <ele>1218.4</ele>
        <time>2020-09-05T06:35:30Z</time>
      </trkpt>
      <trkpt lat="45.04465" lon="6.11228">
        <ele>1218.6</ele>
        <time>2020-09-05T06:35:31Z</time>
      </trkpt>
      <trkpt lat="45.04462" lon="6.11228">
        <ele>1218.8</ele>
        <time>2020-09-05T06:35:32Z</time>
      </trkpt>
      <trkpt lat="45.04458" lon="6.11228">
        <ele>1218.8</ele>
        <time>2020-09-05T06:35:33Z</time>
      </trkpt>
      <trkpt lat="45.04455" lon="6.11229">
        <ele>1219</ele>
        <time>2020-09-05T06:35:34Z</time>
      </trkpt>
      <trkpt lat="45.04451" lon="6.11231">
        <ele>1219.2</ele>
        <time>2020-09-05T06:35:35Z</time>
      </trkpt>
      <trkpt lat="45.04448" lon="6.11233">
        <ele>1219.8</ele>
        <time>2020-09-05T06:35:36Z</time>
      </trkpt>
      <trkpt lat="45.04446" lon="6.11236">
        <ele>1220</ele>
        <time>2020-09-05T06:35:37Z</time>
      </trkpt>
      <trkpt lat="45.04443" lon="6.11239">
        <ele>1220.2</ele>
        <time>2020-09-05T06:35:38Z</time>
      </trkpt>
      <trkpt lat="45.04441" lon="6.11243">
        <ele>1220.2</ele>
        <time>2020-09-05T06:35:39Z</time>
      </trkpt>
      <trkpt lat="45.04439" lon="6.11248">
        <ele>1220.6</ele>
        <time>2020-09-05T06:35:40Z</time>
      </trkpt>
      <trkpt lat="45.04437" lon="6.11253">
        <ele>1220.8</ele>
        <time>2020-09-05T06:35:41Z</time>
      </trkpt>
      <trkpt lat="45.04435" lon="6.11257">
        <ele>1220.8</ele>
        <time>2020-09-05T06:35:42Z</time>
      </trkpt>
      <trkpt lat="45.04434" lon="6.11263">
        <ele>1221.2</ele>
        <time>2020-09-05T06:35:43Z</time>
      </trkpt>
      <trkpt lat="45.04433" lon="6.11268">
        <ele>1221.4</ele>
        <time>2020-09-05T06:35:44Z</time>
      </trkpt>
      <trkpt lat="45.04433" lon="6.11273">
        <ele>1221.4</ele>
        <time>2020-09-05T06:35:45Z</time>
      </trkpt>
      <trkpt lat="45.04432" lon="6.11279">
        <ele>1221.4</ele>
        <time>2020-09-05T06:35:46Z</time>
      </trkpt>
      <trkpt lat="45.04431" lon="6.11286">
        <ele>1221.2</ele>
        <time>2020-09-05T06:35:47Z</time>
      </trkpt>
      <trkpt lat="45.04431" lon="6.11292">
        <ele>1221.2</ele>
        <time>2020-09-05T06:35:48Z</time>
      </trkpt>
      <trkpt lat="45.04431" lon="6.11299">
        <ele>1221.2</ele>
        <time>2020-09-05T06:35:49Z</time>
      </trkpt>
      <trkpt lat="45.0443" lon="6.11306">
        <ele>1221.2</ele>
        <time>2020-09-05T06:35:50Z</time>
      </trkpt>
      <trkpt lat="45.0443" lon="6.11313">
        <ele>1221</ele>
        <time>2020-09-05T06:35:51Z</time>
      </trkpt>
      <trkpt lat="45.0443" lon="6.1132">
        <ele>1220.8</ele>
        <time>2020-09-05T06:35:52Z</time>
      </trkpt>
      <trkpt lat="45.0443" lon="6.11327">
        <ele>1220.8</ele>
        <time>2020-09-05T06:35:53Z</time>
      </trkpt>
      <trkpt lat="45.04431" lon="6.11334">
        <ele>1220.8</ele>
        <time>2020-09-05T06:35:54Z</time>
      </trkpt>
      <trkpt lat="45.04432" lon="6.11341">
        <ele>1220.6</ele>
        <time>2020-09-05T06:35:55Z</time>
      </trkpt>
      <trkpt lat="45.04433" lon="6.11348">
        <ele>1220.4</ele>
        <time>2020-09-05T06:35:56Z</time>
      </trkpt>
      <trkpt lat="45.04435" lon="6.11355">
        <ele>1220.2</ele>
        <time>2020-09-05T06:35:57Z</time>
      </trkpt>
      <trkpt lat="45.04437" lon="6.11362">
        <ele>1220.4</ele>
        <time>2020-09-05T06:35:58Z</time>
      </trkpt>
      <trkpt lat="45.04439" lon="6.11368">
        <ele>1220.2</ele>
        <time>2020-09-05T06:35:59Z</time>
      </trkpt>
      <trkpt lat="45.04442" lon="6.11375">
        <ele>1219.8</ele>
        <time>2020-09-05T06:36:00Z</time>
      </trkpt>
      <trkpt lat="45.04446" lon="6.11381">
        <ele>1219.8</ele>
        <time>2020-09-05T06:36:01Z</time>
      </trkpt>
      <trkpt lat="45.04449" lon="6.11387">
        <ele>1219.8</ele>
        <time>2020-09-05T06:36:02Z</time>
      </trkpt>
      <trkpt lat="45.04454" lon="6.11392">
        <ele>1219.6</ele>
        <time>2020-09-05T06:36:03Z</time>
      </trkpt>
      <trkpt lat="45.04458" lon="6.11396">
        <ele>1219.6</ele>
        <time>2020-09-05T06:36:04Z</time>
      </trkpt>
      <trkpt lat="45.04463" lon="6.114">
        <ele>1219.4</ele>
        <time>2020-09-05T06:36:05Z</time>
      </trkpt>
      <trkpt lat="45.04468" lon="6.11404">
        <ele>1219.2</ele>
        <time>2020-09-05T06:36:06Z</time>
      </trkpt>
      <trkpt lat="45.04473" lon="6.11407">
        <ele>1219</ele>
        <time>2020-09-05T06:36:07Z</time>
      </trkpt>
      <trkpt lat="45.04479" lon="6.11409">
        <ele>1219</ele>
        <time>2020-09-05T06:36:08Z</time>
      </trkpt>
      <trkpt lat="45.04484" lon="6.11412">
        <ele>1219</ele>
        <time>2020-09-05T06:36:09Z</time>
      </trkpt>
      <trkpt lat="45.0449" lon="6.11414">
        <ele>1219</ele>
        <time>2020-09-05T06:36:10Z</time>
      </trkpt>
      <trkpt lat="45.04496" lon="6.11416">
        <ele>1218.8</ele>
        <time>2020-09-05T06:36:11Z</time>
      </trkpt>
      <trkpt lat="45.04502" lon="6.11419">
        <ele>1218.4</ele>
        <time>2020-09-05T06:36:12Z</time>
      </trkpt>
      <trkpt lat="45.04507" lon="6.11423">
        <ele>1218</ele>
        <time>2020-09-05T06:36:13Z</time>
      </trkpt>
      <trkpt lat="45.04511" lon="6.11428">
        <ele>1217.8</ele>
        <time>2020-09-05T06:36:14Z</time>
      </trkpt>
      <trkpt lat="45.04516" lon="6.11433">
        <ele>1217.6</ele>
        <time>2020-09-05T06:36:15Z</time>
      </trkpt>
      <trkpt lat="45.04521" lon="6.11439">
        <ele>1217.4</ele>
        <time>2020-09-05T06:36:16Z</time>
      </trkpt>
      <trkpt lat="45.04526" lon="6.11445">
        <ele>1217.2</ele>
        <time>2020-09-05T06:36:17Z</time>
      </trkpt>
      <trkpt lat="45.04532" lon="6.11451">
        <ele>1216.4</ele>
        <time>2020-09-05T06:36:18Z</time>
      </trkpt>
      <trkpt lat="45.04537" lon="6.11457">
        <ele>1215.8</ele>
        <time>2020-09-05T06:36:19Z</time>
      </trkpt>
      <trkpt lat="45.04544" lon="6.11462">
        <ele>1215.2</ele>
        <time>2020-09-05T06:36:20Z</time>
      </trkpt>
      <trkpt lat="45.0455" lon="6.11467">
        <ele>1214.8</ele>
        <time>2020-09-05T06:36:21Z</time>
      </trkpt>
      <trkpt lat="45.04557" lon="6.11472">
        <ele>1214.4</ele>
        <time>2020-09-05T06:36:22Z</time>
      </trkpt>
      <trkpt lat="45.04565" lon="6.11477">
        <ele>1213.8</ele>
        <time>2020-09-05T06:36:23Z</time>
      </trkpt>
      <trkpt lat="45.04572" lon="6.11483">
        <ele>1213.4</ele>
        <time>2020-09-05T06:36:24Z</time>
      </trkpt>
      <trkpt lat="45.0458" lon="6.11489">
        <ele>1212.6</ele>
        <time>2020-09-05T06:36:25Z</time>
      </trkpt>
      <trkpt lat="45.04588" lon="6.11495">
        <ele>1212.2</ele>
        <time>2020-09-05T06:36:26Z</time>
      </trkpt>
      <trkpt lat="45.04596" lon="6.115">
        <ele>1211.4</ele>
        <time>2020-09-05T06:36:27Z</time>
      </trkpt>
      <trkpt lat="45.04604" lon="6.11506">
        <ele>1210.6</ele>
        <time>2020-09-05T06:36:28Z</time>
      </trkpt>
      <trkpt lat="45.04611" lon="6.11511">
        <ele>1209.8</ele>
        <time>2020-09-05T06:36:29Z</time>
      </trkpt>
      <trkpt lat="45.0462" lon="6.11515">
        <ele>1209.2</ele>
        <time>2020-09-05T06:36:30Z</time>
      </trkpt>
      <trkpt lat="45.04628" lon="6.11518">
        <ele>1208.4</ele>
        <time>2020-09-05T06:36:31Z</time>
      </trkpt>
      <trkpt lat="45.04637" lon="6.11521">
        <ele>1207.8</ele>
        <time>2020-09-05T06:36:32Z</time>
      </trkpt>
      <trkpt lat="45.04646" lon="6.11525">
        <ele>1207</ele>
        <time>2020-09-05T06:36:33Z</time>
      </trkpt>
      <trkpt lat="45.04655" lon="6.11529">
        <ele>1206</ele>
        <time>2020-09-05T06:36:34Z</time>
      </trkpt>
      <trkpt lat="45.04665" lon="6.11533">
        <ele>1205.6</ele>
        <time>2020-09-05T06:36:35Z</time>
      </trkpt>
      <trkpt lat="45.04676" lon="6.11538">
        <ele>1204.8</ele>
        <time>2020-09-05T06:36:36Z</time>
      </trkpt>
      <trkpt lat="45.04687" lon="6.11543">
        <ele>1204.2</ele>
        <time>2020-09-05T06:36:37Z</time>
      </trkpt>
      <trkpt lat="45.04699" lon="6.11548">
        <ele>1203.4</ele>
        <time>2020-09-05T06:36:38Z</time>
      </trkpt>
      <trkpt lat="45.04712" lon="6.11553">
        <ele>1202.4</ele>
        <time>2020-09-05T06:36:39Z</time>
      </trkpt>
      <trkpt lat="45.04725" lon="6.11559">
        <ele>1201</ele>
        <time>2020-09-05T06:36:40Z</time>
      </trkpt>
      <trkpt lat="45.04738" lon="6.11565">
        <ele>1200.2</ele>
        <time>2020-09-05T06:36:41Z</time>
      </trkpt>
      <trkpt lat="45.04751" lon="6.11571">
        <ele>1198.6</ele>
        <time>2020-09-05T06:36:42Z</time>
      </trkpt>
      <trkpt lat="45.04763" lon="6.11576">
        <ele>1197</ele>
        <time>2020-09-05T06:36:43Z</time>
      </trkpt>
      <trkpt lat="45.04775" lon="6.11582">
        <ele>1195.4</ele>
        <time>2020-09-05T06:36:44Z</time>
      </trkpt>
      <trkpt lat="45.04787" lon="6.11588">
        <ele>1193.4</ele>
        <time>2020-09-05T06:36:45Z</time>
      </trkpt>
      <trkpt lat="45.04798" lon="6.11595">
        <ele>1191.4</ele>
        <time>2020-09-05T06:36:46Z</time>
      </trkpt>
      <trkpt lat="45.04808" lon="6.11603">
        <ele>1190</ele>
        <time>2020-09-05T06:36:47Z</time>
      </trkpt>
      <trkpt lat="45.04818" lon="6.11613">
        <ele>1188.6</ele>
        <time>2020-09-05T06:36:48Z</time>
      </trkpt>
      <trkpt lat="45.04827" lon="6.11624">
        <ele>1187.6</ele>
        <time>2020-09-05T06:36:49Z</time>
      </trkpt>
      <trkpt lat="45.04837" lon="6.11637">
        <ele>1186</ele>
        <time>2020-09-05T06:36:50Z</time>
      </trkpt>
      <trkpt lat="45.04847" lon="6.11649">
        <ele>1184.4</ele>
        <time>2020-09-05T06:36:51Z</time>
      </trkpt>
      <trkpt lat="45.04857" lon="6.11662">
        <ele>1182.8</ele>
        <time>2020-09-05T06:36:52Z</time>
      </trkpt>
      <trkpt lat="45.04866" lon="6.11672">
        <ele>1181.2</ele>
        <time>2020-09-05T06:36:53Z</time>
      </trkpt>
      <trkpt lat="45.04875" lon="6.11681">
        <ele>1179.2</ele>
        <time>2020-09-05T06:36:54Z</time>
      </trkpt>
      <trkpt lat="45.04881" lon="6.11689">
        <ele>1177.2</ele>
        <time>2020-09-05T06:36:55Z</time>
      </trkpt>
      <trkpt lat="45.04885" lon="6.11697">
        <ele>1175.6</ele>
        <time>2020-09-05T06:36:56Z</time>
      </trkpt>
      <trkpt lat="45.04886" lon="6.11705">
        <ele>1174.2</ele>
        <time>2020-09-05T06:36:57Z</time>
      </trkpt>
      <trkpt lat="45.04882" lon="6.11711">
        <ele>1173.2</ele>
        <time>2020-09-05T06:36:58Z</time>
      </trkpt>
      <trkpt lat="45.04875" lon="6.11713">
        <ele>1172.2</ele>
        <time>2020-09-05T06:36:59Z</time>
      </trkpt>
      <trkpt lat="45.04869" lon="6.11711">
        <ele>1171.2</ele>
        <time>2020-09-05T06:37:00Z</time>
      </trkpt>
      <trkpt lat="45.04862" lon="6.11704">
        <ele>1170.6</ele>
        <time>2020-09-05T06:37:01Z</time>
      </trkpt>
      <trkpt lat="45.04857" lon="6.11696">
        <ele>1170</ele>
        <time>2020-09-05T06:37:02Z</time>
      </trkpt>
      <trkpt lat="45.0485" lon="6.11688">
        <ele>1169.2</ele>
        <time>2020-09-05T06:37:03Z</time>
      </trkpt>
      <trkpt lat="45.04842" lon="6.1168">
        <ele>1168.6</ele>
        <time>2020-09-05T06:37:04Z</time>
      </trkpt>
      <trkpt lat="45.04833" lon="6.11674">
        <ele>1168.4</ele>
        <time>2020-09-05T06:37:05Z</time>
      </trkpt>
      <trkpt lat="45.04823" lon="6.11668">
        <ele>1168.2</ele>
        <time>2020-09-05T06:37:06Z</time>
      </trkpt>
      <trkpt lat="45.04812" lon="6.11664">
        <ele>1167.2</ele>
        <time>2020-09-05T06:37:07Z</time>
      </trkpt>
      <trkpt lat="45.04801" lon="6.1166">
        <ele>1166.4</ele>
        <time>2020-09-05T06:37:08Z</time>
      </trkpt>
      <trkpt lat="45.04789" lon="6.11656">
        <ele>1165.2</ele>
        <time>2020-09-05T06:37:09Z</time>
      </trkpt>
      <trkpt lat="45.04776" lon="6.11653">
        <ele>1164.2</ele>
        <time>2020-09-05T06:37:10Z</time>
      </trkpt>
      <trkpt lat="45.04763" lon="6.11651">
        <ele>1163.4</ele>
        <time>2020-09-05T06:37:11Z</time>
      </trkpt>
      <trkpt lat="45.04749" lon="6.1165">
        <ele>1162.6</ele>
        <time>2020-09-05T06:37:12Z</time>
      </trkpt>
      <trkpt lat="45.04735" lon="6.11649">
        <ele>1161.4</ele>
        <time>2020-09-05T06:37:13Z</time>
      </trkpt>
      <trkpt lat="45.0472" lon="6.11648">
        <ele>1159.6</ele>
        <time>2020-09-05T06:37:14Z</time>
      </trkpt>
      <trkpt lat="45.04706" lon="6.11646">
        <ele>1158</ele>
        <time>2020-09-05T06:37:15Z</time>
      </trkpt>
      <trkpt lat="45.04692" lon="6.11644">
        <ele>1156</ele>
        <time>2020-09-05T06:37:16Z</time>
      </trkpt>
      <trkpt lat="45.04679" lon="6.11642">
        <ele>1153.6</ele>
        <time>2020-09-05T06:37:17Z</time>
      </trkpt>
      <trkpt lat="45.04668" lon="6.11641">
        <ele>1151.6</ele>
        <time>2020-09-05T06:37:18Z</time>
      </trkpt>
      <trkpt lat="45.04657" lon="6.11643">
        <ele>1149.6</ele>
        <time>2020-09-05T06:37:19Z</time>
      </trkpt>
      <trkpt lat="45.04646" lon="6.11644">
        <ele>1148</ele>
        <time>2020-09-05T06:37:20Z</time>
      </trkpt>
      <trkpt lat="45.04636" lon="6.11645">
        <ele>1146.6</ele>
        <time>2020-09-05T06:37:21Z</time>
      </trkpt>
      <trkpt lat="45.04625" lon="6.11642">
        <ele>1145.4</ele>
        <time>2020-09-05T06:37:22Z</time>
      </trkpt>
      <trkpt lat="45.04613" lon="6.11638">
        <ele>1144.4</ele>
        <time>2020-09-05T06:37:23Z</time>
      </trkpt>
      <trkpt lat="45.04601" lon="6.11634">
        <ele>1143.4</ele>
        <time>2020-09-05T06:37:24Z</time>
      </trkpt>
      <trkpt lat="45.04589" lon="6.11629">
        <ele>1142.4</ele>
        <time>2020-09-05T06:37:25Z</time>
      </trkpt>
      <trkpt lat="45.04576" lon="6.11624">
        <ele>1141.2</ele>
        <time>2020-09-05T06:37:26Z</time>
      </trkpt>
      <trkpt lat="45.04563" lon="6.1162">
        <ele>1140.2</ele>
        <time>2020-09-05T06:37:27Z</time>
      </trkpt>
      <trkpt lat="45.04549" lon="6.11616">
        <ele>1139</ele>
        <time>2020-09-05T06:37:28Z</time>
      </trkpt>
      <trkpt lat="45.04535" lon="6.11612">
        <ele>1138</ele>
        <time>2020-09-05T06:37:29Z</time>
      </trkpt>
      <trkpt lat="45.04521" lon="6.11608">
        <ele>1136.6</ele>
        <time>2020-09-05T06:37:30Z</time>
      </trkpt>
      <trkpt lat="45.04506" lon="6.11604">
        <ele>1134.6</ele>
        <time>2020-09-05T06:37:31Z</time>
      </trkpt>
      <trkpt lat="45.04493" lon="6.116">
        <ele>1132.6</ele>
        <time>2020-09-05T06:37:32Z</time>
      </trkpt>
      <trkpt lat="45.0448" lon="6.11597">
        <ele>1130.8</ele>
        <time>2020-09-05T06:37:33Z</time>
      </trkpt>
      <trkpt lat="45.04469" lon="6.11595">
        <ele>1129.2</ele>
        <time>2020-09-05T06:37:34Z</time>
      </trkpt>
      <trkpt lat="45.04457" lon="6.11595">
        <ele>1127.6</ele>
        <time>2020-09-05T06:37:35Z</time>
      </trkpt>
      <trkpt lat="45.04444" lon="6.11597">
        <ele>1126.2</ele>
        <time>2020-09-05T06:37:36Z</time>
      </trkpt>
      <trkpt lat="45.04431" lon="6.11599">
        <ele>1124.6</ele>
        <time>2020-09-05T06:37:37Z</time>
      </trkpt>
      <trkpt lat="45.04418" lon="6.116">
        <ele>1123.2</ele>
        <time>2020-09-05T06:37:38Z</time>
      </trkpt>
      <trkpt lat="45.04405" lon="6.116">
        <ele>1121.6</ele>
        <time>2020-09-05T06:37:39Z</time>
      </trkpt>
      <trkpt lat="45.04393" lon="6.11599">
        <ele>1119.6</ele>
        <time>2020-09-05T06:37:40Z</time>
      </trkpt>
      <trkpt lat="45.04383" lon="6.11596">
        <ele>1117.4</ele>
        <time>2020-09-05T06:37:41Z</time>
      </trkpt>
      <trkpt lat="45.04369" lon="6.11599">
        <ele>1114.4</ele>
        <time>2020-09-05T06:37:43Z</time>
      </trkpt>
      <trkpt lat="45.04365" lon="6.11618">
        <ele>1112.4</ele>
        <time>2020-09-05T06:37:45Z</time>
      </trkpt>
      <trkpt lat="45.04376" lon="6.11629">
        <ele>1111</ele>
        <time>2020-09-05T06:37:47Z</time>
      </trkpt>
      <trkpt lat="45.04393" lon="6.11628">
        <ele>1109</ele>
        <time>2020-09-05T06:37:49Z</time>
      </trkpt>
      <trkpt lat="45.04402" lon="6.11626">
        <ele>1108.2</ele>
        <time>2020-09-05T06:37:50Z</time>
      </trkpt>
      <trkpt lat="45.04412" lon="6.11625">
        <ele>1108</ele>
        <time>2020-09-05T06:37:51Z</time>
      </trkpt>
      <trkpt lat="45.04421" lon="6.11626">
        <ele>1107</ele>
        <time>2020-09-05T06:37:52Z</time>
      </trkpt>
      <trkpt lat="45.0443" lon="6.11628">
        <ele>1106.2</ele>
        <time>2020-09-05T06:37:53Z</time>
      </trkpt>
      <trkpt lat="45.04439" lon="6.11631">
        <ele>1105.4</ele>
        <time>2020-09-05T06:37:54Z</time>
      </trkpt>
      <trkpt lat="45.04448" lon="6.11636">
        <ele>1104.2</ele>
        <time>2020-09-05T06:37:55Z</time>
      </trkpt>
      <trkpt lat="45.04458" lon="6.11643">
        <ele>1103</ele>
        <time>2020-09-05T06:37:56Z</time>
      </trkpt>
      <trkpt lat="45.04467" lon="6.1165">
        <ele>1101.6</ele>
        <time>2020-09-05T06:37:57Z</time>
      </trkpt>
      <trkpt lat="45.04475" lon="6.11659">
        <ele>1100.6</ele>
        <time>2020-09-05T06:37:58Z</time>
      </trkpt>
      <trkpt lat="45.04482" lon="6.11672">
        <ele>1099.6</ele>
        <time>2020-09-05T06:37:59Z</time>
      </trkpt>
      <trkpt lat="45.04487" lon="6.11686">
        <ele>1098.8</ele>
        <time>2020-09-05T06:38:00Z</time>
      </trkpt>
      <trkpt lat="45.04491" lon="6.11701">
        <ele>1097.4</ele>
        <time>2020-09-05T06:38:01Z</time>
      </trkpt>
      <trkpt lat="45.04495" lon="6.11716">
        <ele>1095.8</ele>
        <time>2020-09-05T06:38:02Z</time>
      </trkpt>
      <trkpt lat="45.04499" lon="6.11729">
        <ele>1095.2</ele>
        <time>2020-09-05T06:38:03Z</time>
      </trkpt>
      <trkpt lat="45.04506" lon="6.11742">
        <ele>1094</ele>
        <time>2020-09-05T06:38:04Z</time>
      </trkpt>
      <trkpt lat="45.04514" lon="6.11753">
        <ele>1093</ele>
        <time>2020-09-05T06:38:05Z</time>
      </trkpt>
      <trkpt lat="45.04524" lon="6.11762">
        <ele>1092.6</ele>
        <time>2020-09-05T06:38:06Z</time>
      </trkpt>
      <trkpt lat="45.04535" lon="6.11771">
        <ele>1091.6</ele>
        <time>2020-09-05T06:38:07Z</time>
      </trkpt>
      <trkpt lat="45.04547" lon="6.11778">
        <ele>1090.4</ele>
        <time>2020-09-05T06:38:08Z</time>
      </trkpt>
      <trkpt lat="45.04559" lon="6.11787">
        <ele>1089.4</ele>
        <time>2020-09-05T06:38:09Z</time>
      </trkpt>
      <trkpt lat="45.04572" lon="6.11796">
        <ele>1088.6</ele>
        <time>2020-09-05T06:38:10Z</time>
      </trkpt>
      <trkpt lat="45.04584" lon="6.11805">
        <ele>1086.8</ele>
        <time>2020-09-05T06:38:11Z</time>
      </trkpt>
      <trkpt lat="45.04597" lon="6.11814">
        <ele>1085.4</ele>
        <time>2020-09-05T06:38:12Z</time>
      </trkpt>
      <trkpt lat="45.04609" lon="6.11825">
        <ele>1083.8</ele>
        <time>2020-09-05T06:38:13Z</time>
      </trkpt>
      <trkpt lat="45.04621" lon="6.11835">
        <ele>1082.6</ele>
        <time>2020-09-05T06:38:14Z</time>
      </trkpt>
      <trkpt lat="45.04632" lon="6.11846">
        <ele>1081</ele>
        <time>2020-09-05T06:38:15Z</time>
      </trkpt>
      <trkpt lat="45.04643" lon="6.11857">
        <ele>1079.4</ele>
        <time>2020-09-05T06:38:16Z</time>
      </trkpt>
      <trkpt lat="45.04655" lon="6.11868">
        <ele>1078</ele>
        <time>2020-09-05T06:38:17Z</time>
      </trkpt>
      <trkpt lat="45.04667" lon="6.11878">
        <ele>1076</ele>
        <time>2020-09-05T06:38:18Z</time>
      </trkpt>
      <trkpt lat="45.04678" lon="6.11888">
        <ele>1073.8</ele>
        <time>2020-09-05T06:38:19Z</time>
      </trkpt>
      <trkpt lat="45.04688" lon="6.11897">
        <ele>1071.2</ele>
        <time>2020-09-05T06:38:20Z</time>
      </trkpt>
      <trkpt lat="45.04696" lon="6.11906">
        <ele>1069.2</ele>
        <time>2020-09-05T06:38:21Z</time>
      </trkpt>
      <trkpt lat="45.04703" lon="6.11916">
        <ele>1067.4</ele>
        <time>2020-09-05T06:38:22Z</time>
      </trkpt>
      <trkpt lat="45.04707" lon="6.11929">
        <ele>1065.8</ele>
        <time>2020-09-05T06:38:23Z</time>
      </trkpt>
      <trkpt lat="45.04711" lon="6.11944">
        <ele>1064.6</ele>
        <time>2020-09-05T06:38:24Z</time>
      </trkpt>
      <trkpt lat="45.04714" lon="6.11959">
        <ele>1063.6</ele>
        <time>2020-09-05T06:38:25Z</time>
      </trkpt>
      <trkpt lat="45.04718" lon="6.11974">
        <ele>1062.8</ele>
        <time>2020-09-05T06:38:26Z</time>
      </trkpt>
      <trkpt lat="45.04723" lon="6.1199">
        <ele>1061.6</ele>
        <time>2020-09-05T06:38:27Z</time>
      </trkpt>
      <trkpt lat="45.04728" lon="6.12004">
        <ele>1060.8</ele>
        <time>2020-09-05T06:38:28Z</time>
      </trkpt>
      <trkpt lat="45.04736" lon="6.12018">
        <ele>1059.4</ele>
        <time>2020-09-05T06:38:29Z</time>
      </trkpt>
      <trkpt lat="45.04746" lon="6.12029">
        <ele>1058.2</ele>
        <time>2020-09-05T06:38:30Z</time>
      </trkpt>
      <trkpt lat="45.04757" lon="6.12039">
        <ele>1057.2</ele>
        <time>2020-09-05T06:38:31Z</time>
      </trkpt>
      <trkpt lat="45.04768" lon="6.12048">
        <ele>1055</ele>
        <time>2020-09-05T06:38:32Z</time>
      </trkpt>
      <trkpt lat="45.04779" lon="6.12057">
        <ele>1052.8</ele>
        <time>2020-09-05T06:38:33Z</time>
      </trkpt>
      <trkpt lat="45.04788" lon="6.12064">
        <ele>1050.6</ele>
        <time>2020-09-05T06:38:34Z</time>
      </trkpt>
      <trkpt lat="45.04796" lon="6.1207">
        <ele>1048.8</ele>
        <time>2020-09-05T06:38:35Z</time>
      </trkpt>
      <trkpt lat="45.04803" lon="6.12075">
        <ele>1046.8</ele>
        <time>2020-09-05T06:38:36Z</time>
      </trkpt>
      <trkpt lat="45.04808" lon="6.12081">
        <ele>1045.2</ele>
        <time>2020-09-05T06:38:37Z</time>
      </trkpt>
      <trkpt lat="45.04809" lon="6.12086">
        <ele>1044</ele>
        <time>2020-09-05T06:38:38Z</time>
      </trkpt>
      <trkpt lat="45.04806" lon="6.1209">
        <ele>1043</ele>
        <time>2020-09-05T06:38:39Z</time>
      </trkpt>
      <trkpt lat="45.048" lon="6.12091">
        <ele>1042.2</ele>
        <time>2020-09-05T06:38:40Z</time>
      </trkpt>
      <trkpt lat="45.04794" lon="6.12089">
        <ele>1041.4</ele>
        <time>2020-09-05T06:38:41Z</time>
      </trkpt>
      <trkpt lat="45.04787" lon="6.12085">
        <ele>1040.2</ele>
        <time>2020-09-05T06:38:42Z</time>
      </trkpt>
      <trkpt lat="45.0478" lon="6.1208">
        <ele>1039.4</ele>
        <time>2020-09-05T06:38:43Z</time>
      </trkpt>
      <trkpt lat="45.04772" lon="6.12076">
        <ele>1038.6</ele>
        <time>2020-09-05T06:38:44Z</time>
      </trkpt>
      <trkpt lat="45.04764" lon="6.12072">
        <ele>1037.8</ele>
        <time>2020-09-05T06:38:45Z</time>
      </trkpt>
      <trkpt lat="45.04754" lon="6.1207">
        <ele>1037.8</ele>
        <time>2020-09-05T06:38:46Z</time>
      </trkpt>
      <trkpt lat="45.04744" lon="6.12067">
        <ele>1037.4</ele>
        <time>2020-09-05T06:38:47Z</time>
      </trkpt>
      <trkpt lat="45.04733" lon="6.12066">
        <ele>1036.2</ele>
        <time>2020-09-05T06:38:48Z</time>
      </trkpt>
      <trkpt lat="45.04721" lon="6.12065">
        <ele>1034.8</ele>
        <time>2020-09-05T06:38:49Z</time>
      </trkpt>
      <trkpt lat="45.04709" lon="6.12064">
        <ele>1034</ele>
        <time>2020-09-05T06:38:50Z</time>
      </trkpt>
      <trkpt lat="45.04697" lon="6.12065">
        <ele>1032.4</ele>
        <time>2020-09-05T06:38:51Z</time>
      </trkpt>
      <trkpt lat="45.04685" lon="6.12066">
        <ele>1031</ele>
        <time>2020-09-05T06:38:52Z</time>
      </trkpt>
      <trkpt lat="45.04673" lon="6.12068">
        <ele>1030</ele>
        <time>2020-09-05T06:38:53Z</time>
      </trkpt>
      <trkpt lat="45.04661" lon="6.12071">
        <ele>1028.4</ele>
        <time>2020-09-05T06:38:54Z</time>
      </trkpt>
      <trkpt lat="45.04648" lon="6.12073">
        <ele>1027</ele>
        <time>2020-09-05T06:38:55Z</time>
      </trkpt>
      <trkpt lat="45.04636" lon="6.12075">
        <ele>1025.6</ele>
        <time>2020-09-05T06:38:56Z</time>
      </trkpt>
      <trkpt lat="45.04624" lon="6.12075">
        <ele>1024.4</ele>
        <time>2020-09-05T06:38:57Z</time>
      </trkpt>
      <trkpt lat="45.04613" lon="6.12075">
        <ele>1022.8</ele>
        <time>2020-09-05T06:38:58Z</time>
      </trkpt>
      <trkpt lat="45.04603" lon="6.12076">
        <ele>1021.4</ele>
        <time>2020-09-05T06:38:59Z</time>
      </trkpt>
      <trkpt lat="45.04594" lon="6.12081">
        <ele>1020</ele>
        <time>2020-09-05T06:39:00Z</time>
      </trkpt>
      <trkpt lat="45.04585" lon="6.12089">
        <ele>1018.8</ele>
        <time>2020-09-05T06:39:01Z</time>
      </trkpt>
      <trkpt lat="45.04576" lon="6.12097">
        <ele>1017.4</ele>
        <time>2020-09-05T06:39:02Z</time>
      </trkpt>
      <trkpt lat="45.04568" lon="6.12104">
        <ele>1015.4</ele>
        <time>2020-09-05T06:39:03Z</time>
      </trkpt>
      <trkpt lat="45.04561" lon="6.12111">
        <ele>1013.8</ele>
        <time>2020-09-05T06:39:04Z</time>
      </trkpt>
      <trkpt lat="45.04556" lon="6.12117">
        <ele>1012.4</ele>
        <time>2020-09-05T06:39:05Z</time>
      </trkpt>
      <trkpt lat="45.04554" lon="6.12124">
        <ele>1011.2</ele>
        <time>2020-09-05T06:39:06Z</time>
      </trkpt>
      <trkpt lat="45.04557" lon="6.12131">
        <ele>1010.6</ele>
        <time>2020-09-05T06:39:07Z</time>
      </trkpt>
      <trkpt lat="45.04562" lon="6.12135">
        <ele>1010</ele>
        <time>2020-09-05T06:39:08Z</time>
      </trkpt>
      <trkpt lat="45.04569" lon="6.12138">
        <ele>1008.8</ele>
        <time>2020-09-05T06:39:09Z</time>
      </trkpt>
      <trkpt lat="45.04577" lon="6.12138">
        <ele>1007.8</ele>
        <time>2020-09-05T06:39:10Z</time>
      </trkpt>
      <trkpt lat="45.04585" lon="6.12137">
        <ele>1006.6</ele>
        <time>2020-09-05T06:39:11Z</time>
      </trkpt>
      <trkpt lat="45.04596" lon="6.12137">
        <ele>1005.8</ele>
        <time>2020-09-05T06:39:12Z</time>
      </trkpt>
      <trkpt lat="45.04606" lon="6.1214">
        <ele>1005.2</ele>
        <time>2020-09-05T06:39:13Z</time>
      </trkpt>
      <trkpt lat="45.04616" lon="6.12148">
        <ele>1004</ele>
        <time>2020-09-05T06:39:14Z</time>
      </trkpt>
      <trkpt lat="45.04627" lon="6.12158">
        <ele>1003.2</ele>
        <time>2020-09-05T06:39:15Z</time>
      </trkpt>
      <trkpt lat="45.04636" lon="6.12168">
        <ele>1002</ele>
        <time>2020-09-05T06:39:16Z</time>
      </trkpt>
      <trkpt lat="45.04648" lon="6.12176">
        <ele>1001.4</ele>
        <time>2020-09-05T06:39:17Z</time>
      </trkpt>
      <trkpt lat="45.0466" lon="6.12183">
        <ele>1000.6</ele>
        <time>2020-09-05T06:39:18Z</time>
      </trkpt>
      <trkpt lat="45.04672" lon="6.12191">
        <ele>999</ele>
        <time>2020-09-05T06:39:19Z</time>
      </trkpt>
      <trkpt lat="45.04683" lon="6.12199">
        <ele>997</ele>
        <time>2020-09-05T06:39:20Z</time>
      </trkpt>
      <trkpt lat="45.04693" lon="6.12207">
        <ele>995.2</ele>
        <time>2020-09-05T06:39:21Z</time>
      </trkpt>
      <trkpt lat="45.04702" lon="6.12217">
        <ele>993.6</ele>
        <time>2020-09-05T06:39:22Z</time>
      </trkpt>
      <trkpt lat="45.0471" lon="6.12228">
        <ele>992.4</ele>
        <time>2020-09-05T06:39:23Z</time>
      </trkpt>
      <trkpt lat="45.04717" lon="6.12241">
        <ele>991.2</ele>
        <time>2020-09-05T06:39:24Z</time>
      </trkpt>
      <trkpt lat="45.04725" lon="6.12256">
        <ele>989.6</ele>
        <time>2020-09-05T06:39:25Z</time>
      </trkpt>
      <trkpt lat="45.04733" lon="6.12271">
        <ele>988.4</ele>
        <time>2020-09-05T06:39:26Z</time>
      </trkpt>
      <trkpt lat="45.0474" lon="6.12287">
        <ele>987</ele>
        <time>2020-09-05T06:39:27Z</time>
      </trkpt>
      <trkpt lat="45.04747" lon="6.12303">
        <ele>985.2</ele>
        <time>2020-09-05T06:39:28Z</time>
      </trkpt>
      <trkpt lat="45.04753" lon="6.12319">
        <ele>983.8</ele>
        <time>2020-09-05T06:39:29Z</time>
      </trkpt>
      <trkpt lat="45.04758" lon="6.12335">
        <ele>982.6</ele>
        <time>2020-09-05T06:39:30Z</time>
      </trkpt>
      <trkpt lat="45.04762" lon="6.12352">
        <ele>981.4</ele>
        <time>2020-09-05T06:39:31Z</time>
      </trkpt>
      <trkpt lat="45.04766" lon="6.1237">
        <ele>979.8</ele>
        <time>2020-09-05T06:39:32Z</time>
      </trkpt>
      <trkpt lat="45.04769" lon="6.12387">
        <ele>978.2</ele>
        <time>2020-09-05T06:39:33Z</time>
      </trkpt>
      <trkpt lat="45.0477" lon="6.12405">
        <ele>976.8</ele>
        <time>2020-09-05T06:39:34Z</time>
      </trkpt>
      <trkpt lat="45.0477" lon="6.12423">
        <ele>975.4</ele>
        <time>2020-09-05T06:39:35Z</time>
      </trkpt>
      <trkpt lat="45.0477" lon="6.12443">
        <ele>973.8</ele>
        <time>2020-09-05T06:39:36Z</time>
      </trkpt>
      <trkpt lat="45.0477" lon="6.12463">
        <ele>972.4</ele>
        <time>2020-09-05T06:39:37Z</time>
      </trkpt>
      <trkpt lat="45.0477" lon="6.12483">
        <ele>971.4</ele>
        <time>2020-09-05T06:39:38Z</time>
      </trkpt>
      <trkpt lat="45.0477" lon="6.12503">
        <ele>969.8</ele>
        <time>2020-09-05T06:39:39Z</time>
      </trkpt>
      <trkpt lat="45.04771" lon="6.12521">
        <ele>967.8</ele>
        <time>2020-09-05T06:39:40Z</time>
      </trkpt>
      <trkpt lat="45.04772" lon="6.12537">
        <ele>965.8</ele>
        <time>2020-09-05T06:39:41Z</time>
      </trkpt>
      <trkpt lat="45.04774" lon="6.12552">
        <ele>963.6</ele>
        <time>2020-09-05T06:39:42Z</time>
      </trkpt>
      <trkpt lat="45.04779" lon="6.12563">
        <ele>961.6</ele>
        <time>2020-09-05T06:39:43Z</time>
      </trkpt>
      <trkpt lat="45.04785" lon="6.12572">
        <ele>960</ele>
        <time>2020-09-05T06:39:44Z</time>
      </trkpt>
      <trkpt lat="45.04794" lon="6.12578">
        <ele>958.2</ele>
        <time>2020-09-05T06:39:45Z</time>
      </trkpt>
      <trkpt lat="45.04805" lon="6.12582">
        <ele>956.8</ele>
        <time>2020-09-05T06:39:46Z</time>
      </trkpt>
      <trkpt lat="45.04816" lon="6.12584">
        <ele>955.6</ele>
        <time>2020-09-05T06:39:47Z</time>
      </trkpt>
      <trkpt lat="45.04827" lon="6.12586">
        <ele>954.2</ele>
        <time>2020-09-05T06:39:48Z</time>
      </trkpt>
      <trkpt lat="45.04837" lon="6.12587">
        <ele>952.6</ele>
        <time>2020-09-05T06:39:49Z</time>
      </trkpt>
      <trkpt lat="45.04846" lon="6.12587">
        <ele>951</ele>
        <time>2020-09-05T06:39:50Z</time>
      </trkpt>
      <trkpt lat="45.04852" lon="6.12588">
        <ele>949.4</ele>
        <time>2020-09-05T06:39:51Z</time>
      </trkpt>
      <trkpt lat="45.04856" lon="6.12592">
        <ele>948</ele>
        <time>2020-09-05T06:39:52Z</time>
      </trkpt>
      <trkpt lat="45.04854" lon="6.12598">
        <ele>947</ele>
        <time>2020-09-05T06:39:53Z</time>
      </trkpt>
      <trkpt lat="45.04849" lon="6.12602">
        <ele>946.4</ele>
        <time>2020-09-05T06:39:54Z</time>
      </trkpt>
      <trkpt lat="45.04842" lon="6.12603">
        <ele>945.6</ele>
        <time>2020-09-05T06:39:55Z</time>
      </trkpt>
      <trkpt lat="45.04835" lon="6.12604">
        <ele>945</ele>
        <time>2020-09-05T06:39:56Z</time>
      </trkpt>
      <trkpt lat="45.04826" lon="6.12605">
        <ele>944.4</ele>
        <time>2020-09-05T06:39:57Z</time>
      </trkpt>
      <trkpt lat="45.04818" lon="6.12606">
        <ele>943.6</ele>
        <time>2020-09-05T06:39:58Z</time>
      </trkpt>
      <trkpt lat="45.04809" lon="6.12608">
        <ele>942.6</ele>
        <time>2020-09-05T06:39:59Z</time>
      </trkpt>
      <trkpt lat="45.04799" lon="6.1261">
        <ele>941.8</ele>
        <time>2020-09-05T06:40:00Z</time>
      </trkpt>
      <trkpt lat="45.04789" lon="6.1261">
        <ele>941.2</ele>
        <time>2020-09-05T06:40:01Z</time>
      </trkpt>
      <trkpt lat="45.04778" lon="6.1261">
        <ele>940.2</ele>
        <time>2020-09-05T06:40:02Z</time>
      </trkpt>
      <trkpt lat="45.04768" lon="6.12609">
        <ele>938.8</ele>
        <time>2020-09-05T06:40:03Z</time>
      </trkpt>
      <trkpt lat="45.0476" lon="6.12606">
        <ele>937.8</ele>
        <time>2020-09-05T06:40:04Z</time>
      </trkpt>
      <trkpt lat="45.04753" lon="6.12598">
        <ele>937</ele>
        <time>2020-09-05T06:40:05Z</time>
      </trkpt>
      <trkpt lat="45.04747" lon="6.12589">
        <ele>935.8</ele>
        <time>2020-09-05T06:40:06Z</time>
      </trkpt>
      <trkpt lat="45.04742" lon="6.1258">
        <ele>934.6</ele>
        <time>2020-09-05T06:40:07Z</time>
      </trkpt>
      <trkpt lat="45.04737" lon="6.12575">
        <ele>933.4</ele>
        <time>2020-09-05T06:40:08Z</time>
      </trkpt>
      <trkpt lat="45.04732" lon="6.12573">
        <ele>932.4</ele>
        <time>2020-09-05T06:40:09Z</time>
      </trkpt>
      <trkpt lat="45.04728" lon="6.12576">
        <ele>931.6</ele>
        <time>2020-09-05T06:40:10Z</time>
      </trkpt>
      <trkpt lat="45.04726" lon="6.12584">
        <ele>930.8</ele>
        <time>2020-09-05T06:40:11Z</time>
      </trkpt>
      <trkpt lat="45.04726" lon="6.12594">
        <ele>930.2</ele>
        <time>2020-09-05T06:40:12Z</time>
      </trkpt>
      <trkpt lat="45.04727" lon="6.12604">
        <ele>929.4</ele>
        <time>2020-09-05T06:40:13Z</time>
      </trkpt>
      <trkpt lat="45.04727" lon="6.12615">
        <ele>928.6</ele>
        <time>2020-09-05T06:40:14Z</time>
      </trkpt>
      <trkpt lat="45.04726" lon="6.12628">
        <ele>928</ele>
        <time>2020-09-05T06:40:15Z</time>
      </trkpt>
      <trkpt lat="45.04723" lon="6.1264">
        <ele>927.4</ele>
        <time>2020-09-05T06:40:16Z</time>
      </trkpt>
      <trkpt lat="45.04719" lon="6.12653">
        <ele>926.6</ele>
        <time>2020-09-05T06:40:17Z</time>
      </trkpt>
      <trkpt lat="45.04715" lon="6.12666">
        <ele>926</ele>
        <time>2020-09-05T06:40:18Z</time>
      </trkpt>
      <trkpt lat="45.04712" lon="6.12679">
        <ele>925</ele>
        <time>2020-09-05T06:40:19Z</time>
      </trkpt>
      <trkpt lat="45.04711" lon="6.12693">
        <ele>924.4</ele>
        <time>2020-09-05T06:40:20Z</time>
      </trkpt>
      <trkpt lat="45.04713" lon="6.12706">
        <ele>923.4</ele>
        <time>2020-09-05T06:40:21Z</time>
      </trkpt>
      <trkpt lat="45.04717" lon="6.12718">
        <ele>923</ele>
        <time>2020-09-05T06:40:22Z</time>
      </trkpt>
      <trkpt lat="45.04722" lon="6.12729">
        <ele>922</ele>
        <time>2020-09-05T06:40:23Z</time>
      </trkpt>
      <trkpt lat="45.04727" lon="6.12739">
        <ele>921</ele>
        <time>2020-09-05T06:40:24Z</time>
      </trkpt>
      <trkpt lat="45.0473" lon="6.1275">
        <ele>920</ele>
        <time>2020-09-05T06:40:25Z</time>
      </trkpt>
      <trkpt lat="45.04731" lon="6.1276">
        <ele>919.2</ele>
        <time>2020-09-05T06:40:26Z</time>
      </trkpt>
      <trkpt lat="45.04729" lon="6.12769">
        <ele>918.4</ele>
        <time>2020-09-05T06:40:27Z</time>
      </trkpt>
      <trkpt lat="45.04725" lon="6.12776">
        <ele>917.4</ele>
        <time>2020-09-05T06:40:28Z</time>
      </trkpt>
      <trkpt lat="45.04719" lon="6.12779">
        <ele>917</ele>
        <time>2020-09-05T06:40:29Z</time>
      </trkpt>
      <trkpt lat="45.04713" lon="6.12778">
        <ele>916.4</ele>
        <time>2020-09-05T06:40:30Z</time>
      </trkpt>
      <trkpt lat="45.04707" lon="6.12776">
        <ele>916</ele>
        <time>2020-09-05T06:40:31Z</time>
      </trkpt>
      <trkpt lat="45.04701" lon="6.12773">
        <ele>915.6</ele>
        <time>2020-09-05T06:40:32Z</time>
      </trkpt>
      <trkpt lat="45.04695" lon="6.1277">
        <ele>915.2</ele>
        <time>2020-09-05T06:40:33Z</time>
      </trkpt>
      <trkpt lat="45.04689" lon="6.12766">
        <ele>915</ele>
        <time>2020-09-05T06:40:34Z</time>
      </trkpt>
      <trkpt lat="45.04683" lon="6.12763">
        <ele>915</ele>
        <time>2020-09-05T06:40:35Z</time>
      </trkpt>
      <trkpt lat="45.04677" lon="6.12759">
        <ele>914.8</ele>
        <time>2020-09-05T06:40:36Z</time>
      </trkpt>
      <trkpt lat="45.0467" lon="6.12755">
        <ele>914.6</ele>
        <time>2020-09-05T06:40:37Z</time>
      </trkpt>
      <trkpt lat="45.04664" lon="6.12751">
        <ele>914.6</ele>
        <time>2020-09-05T06:40:38Z</time>
      </trkpt>
      <trkpt lat="45.04658" lon="6.12748">
        <ele>914.8</ele>
        <time>2020-09-05T06:40:39Z</time>
      </trkpt>
      <trkpt lat="45.04652" lon="6.12745">
        <ele>915</ele>
        <time>2020-09-05T06:40:40Z</time>
      </trkpt>
      <trkpt lat="45.04646" lon="6.12742">
        <ele>915.4</ele>
        <time>2020-09-05T06:40:41Z</time>
      </trkpt>
      <trkpt lat="45.0464" lon="6.1274">
        <ele>915.8</ele>
        <time>2020-09-05T06:40:42Z</time>
      </trkpt>
      <trkpt lat="45.04635" lon="6.1274">
        <ele>916.2</ele>
        <time>2020-09-05T06:40:43Z</time>
      </trkpt>
      <trkpt lat="45.0463" lon="6.12738">
        <ele>916.6</ele>
        <time>2020-09-05T06:40:44Z</time>
      </trkpt>
      <trkpt lat="45.0462" lon="6.1273">
        <ele>917.2</ele>
        <time>2020-09-05T06:40:47Z</time>
      </trkpt>
      <trkpt lat="45.04617" lon="6.12727">
        <ele>917.6</ele>
        <time>2020-09-05T06:40:48Z</time>
      </trkpt>
      <trkpt lat="45.04614" lon="6.12725">
        <ele>917.8</ele>
        <time>2020-09-05T06:40:49Z</time>
      </trkpt>
      <trkpt lat="45.04611" lon="6.12722">
        <ele>918.2</ele>
        <time>2020-09-05T06:40:50Z</time>
      </trkpt>
      <trkpt lat="45.04608" lon="6.1272">
        <ele>918.4</ele>
        <time>2020-09-05T06:40:51Z</time>
      </trkpt>
      <trkpt lat="45.04605" lon="6.12718">
        <ele>918.6</ele>
        <time>2020-09-05T06:40:52Z</time>
      </trkpt>
      <trkpt lat="45.04602" lon="6.12717">
        <ele>919</ele>
        <time>2020-09-05T06:40:53Z</time>
      </trkpt>
      <trkpt lat="45.04599" lon="6.12715">
        <ele>919.2</ele>
        <time>2020-09-05T06:40:54Z</time>
      </trkpt>
      <trkpt lat="45.04595" lon="6.12713">
        <ele>919.4</ele>
        <time>2020-09-05T06:40:55Z</time>
      </trkpt>
      <trkpt lat="45.04592" lon="6.12712">
        <ele>919.6</ele>
        <time>2020-09-05T06:40:56Z</time>
      </trkpt>
      <trkpt lat="45.04588" lon="6.1271">
        <ele>919.8</ele>
        <time>2020-09-05T06:40:57Z</time>
      </trkpt>
      <trkpt lat="45.04585" lon="6.12709">
        <ele>920</ele>
        <time>2020-09-05T06:40:58Z</time>
      </trkpt>
      <trkpt lat="45.04581" lon="6.12709">
        <ele>920.2</ele>
        <time>2020-09-05T06:40:59Z</time>
      </trkpt>
      <trkpt lat="45.04578" lon="6.1271">
        <ele>920.4</ele>
        <time>2020-09-05T06:41:00Z</time>
      </trkpt>
      <trkpt lat="45.04575" lon="6.12712">
        <ele>920.6</ele>
        <time>2020-09-05T06:41:01Z</time>
      </trkpt>
      <trkpt lat="45.04572" lon="6.12715">
        <ele>921</ele>
        <time>2020-09-05T06:41:02Z</time>
      </trkpt>
      <trkpt lat="45.04569" lon="6.12717">
        <ele>921.4</ele>
        <time>2020-09-05T06:41:03Z</time>
      </trkpt>
      <trkpt lat="45.04566" lon="6.12717">
        <ele>921.6</ele>
        <time>2020-09-05T06:41:04Z</time>
      </trkpt>
      <trkpt lat="45.04562" lon="6.12718">
        <ele>921.6</ele>
        <time>2020-09-05T06:41:05Z</time>
      </trkpt>
      <trkpt lat="45.04558" lon="6.12719">
        <ele>921.8</ele>
        <time>2020-09-05T06:41:06Z</time>
      </trkpt>
      <trkpt lat="45.04553" lon="6.12721">
        <ele>922.2</ele>
        <time>2020-09-05T06:41:07Z</time>
      </trkpt>
      <trkpt lat="45.04549" lon="6.12724">
        <ele>922.2</ele>
        <time>2020-09-05T06:41:08Z</time>
      </trkpt>
      <trkpt lat="45.04545" lon="6.12726">
        <ele>922.4</ele>
        <time>2020-09-05T06:41:09Z</time>
      </trkpt>
      <trkpt lat="45.04541" lon="6.12728">
        <ele>922.4</ele>
        <time>2020-09-05T06:41:10Z</time>
      </trkpt>
      <trkpt lat="45.04537" lon="6.12729">
        <ele>922.8</ele>
        <time>2020-09-05T06:41:11Z</time>
      </trkpt>
      <trkpt lat="45.04534" lon="6.12731">
        <ele>923</ele>
        <time>2020-09-05T06:41:12Z</time>
      </trkpt>
      <trkpt lat="45.04531" lon="6.12732">
        <ele>923.4</ele>
        <time>2020-09-05T06:41:13Z</time>
      </trkpt>
      <trkpt lat="45.04527" lon="6.12733">
        <ele>923.6</ele>
        <time>2020-09-05T06:41:14Z</time>
      </trkpt>
      <trkpt lat="45.04524" lon="6.12734">
        <ele>923.8</ele>
        <time>2020-09-05T06:41:15Z</time>
      </trkpt>
      <trkpt lat="45.0452" lon="6.12734">
        <ele>924</ele>
        <time>2020-09-05T06:41:16Z</time>
      </trkpt>
      <trkpt lat="45.04517" lon="6.12735">
        <ele>924.4</ele>
        <time>2020-09-05T06:41:17Z</time>
      </trkpt>
      <trkpt lat="45.04513" lon="6.12735">
        <ele>924.6</ele>
        <time>2020-09-05T06:41:18Z</time>
      </trkpt>
      <trkpt lat="45.0451" lon="6.12735">
        <ele>924.8</ele>
        <time>2020-09-05T06:41:19Z</time>
      </trkpt>
      <trkpt lat="45.04506" lon="6.12736">
        <ele>924.8</ele>
        <time>2020-09-05T06:41:20Z</time>
      </trkpt>
      <trkpt lat="45.04503" lon="6.12736">
        <ele>925</ele>
        <time>2020-09-05T06:41:21Z</time>
      </trkpt>
      <trkpt lat="45.04499" lon="6.12736">
        <ele>925.2</ele>
        <time>2020-09-05T06:41:22Z</time>
      </trkpt>
      <trkpt lat="45.04496" lon="6.12736">
        <ele>925.6</ele>
        <time>2020-09-05T06:41:23Z</time>
      </trkpt>
      <trkpt lat="45.04493" lon="6.12736">
        <ele>926</ele>
        <time>2020-09-05T06:41:24Z</time>
      </trkpt>
      <trkpt lat="45.04489" lon="6.12737">
        <ele>926.6</ele>
        <time>2020-09-05T06:41:25Z</time>
      </trkpt>
      <trkpt lat="45.04485" lon="6.12737">
        <ele>926.8</ele>
        <time>2020-09-05T06:41:26Z</time>
      </trkpt>
      <trkpt lat="45.04482" lon="6.12737">
        <ele>927</ele>
        <time>2020-09-05T06:41:27Z</time>
      </trkpt>
      <trkpt lat="45.04478" lon="6.12738">
        <ele>927.2</ele>
        <time>2020-09-05T06:41:28Z</time>
      </trkpt>
      <trkpt lat="45.04475" lon="6.12738">
        <ele>927.4</ele>
        <time>2020-09-05T06:41:29Z</time>
      </trkpt>
      <trkpt lat="45.04471" lon="6.12738">
        <ele>927.6</ele>
        <time>2020-09-05T06:41:30Z</time>
      </trkpt>
      <trkpt lat="45.04467" lon="6.12739">
        <ele>927.6</ele>
        <time>2020-09-05T06:41:31Z</time>
      </trkpt>
      <trkpt lat="45.04463" lon="6.12739">
        <ele>927.8</ele>
        <time>2020-09-05T06:41:32Z</time>
      </trkpt>
      <trkpt lat="45.0446" lon="6.12739">
        <ele>928</ele>
        <time>2020-09-05T06:41:33Z</time>
      </trkpt>
      <trkpt lat="45.04456" lon="6.12739">
        <ele>928.2</ele>
        <time>2020-09-05T06:41:34Z</time>
      </trkpt>
      <trkpt lat="45.04452" lon="6.1274">
        <ele>928.4</ele>
        <time>2020-09-05T06:41:35Z</time>
      </trkpt>
      <trkpt lat="45.04448" lon="6.1274">
        <ele>928.8</ele>
        <time>2020-09-05T06:41:36Z</time>
      </trkpt>
      <trkpt lat="45.04444" lon="6.1274">
        <ele>929</ele>
        <time>2020-09-05T06:41:37Z</time>
      </trkpt>
      <trkpt lat="45.0444" lon="6.12741">
        <ele>929.2</ele>
        <time>2020-09-05T06:41:38Z</time>
      </trkpt>
      <trkpt lat="45.04437" lon="6.12741">
        <ele>929.2</ele>
        <time>2020-09-05T06:41:39Z</time>
      </trkpt>
      <trkpt lat="45.04433" lon="6.12741">
        <ele>929.4</ele>
        <time>2020-09-05T06:41:40Z</time>
      </trkpt>
      <trkpt lat="45.04429" lon="6.12742">
        <ele>929.6</ele>
        <time>2020-09-05T06:41:41Z</time>
      </trkpt>
      <trkpt lat="45.04425" lon="6.12742">
        <ele>929.8</ele>
        <time>2020-09-05T06:41:42Z</time>
      </trkpt>
      <trkpt lat="45.04421" lon="6.12743">
        <ele>930</ele>
        <time>2020-09-05T06:41:43Z</time>
      </trkpt>
      <trkpt lat="45.04417" lon="6.12743">
        <ele>930</ele>
        <time>2020-09-05T06:41:44Z</time>
      </trkpt>
      <trkpt lat="45.04413" lon="6.12743">
        <ele>930.2</ele>
        <time>2020-09-05T06:41:45Z</time>
      </trkpt>
      <trkpt lat="45.04409" lon="6.12743">
        <ele>930.6</ele>
        <time>2020-09-05T06:41:46Z</time>
      </trkpt>
      <trkpt lat="45.04405" lon="6.12743">
        <ele>930.8</ele>
        <time>2020-09-05T06:41:47Z</time>
      </trkpt>
      <trkpt lat="45.044" lon="6.12743">
        <ele>931</ele>
        <time>2020-09-05T06:41:48Z</time>
      </trkpt>
      <trkpt lat="45.04396" lon="6.12743">
        <ele>931.2</ele>
        <time>2020-09-05T06:41:49Z</time>
      </trkpt>
      <trkpt lat="45.04391" lon="6.12742">
        <ele>931.2</ele>
        <time>2020-09-05T06:41:50Z</time>
      </trkpt>
      <trkpt lat="45.04387" lon="6.12742">
        <ele>931.4</ele>
        <time>2020-09-05T06:41:51Z</time>
      </trkpt>
      <trkpt lat="45.04383" lon="6.12741">
        <ele>931.6</ele>
        <time>2020-09-05T06:41:52Z</time>
      </trkpt>
      <trkpt lat="45.04379" lon="6.1274">
        <ele>932</ele>
        <time>2020-09-05T06:41:53Z</time>
      </trkpt>
      <trkpt lat="45.04375" lon="6.1274">
        <ele>932.2</ele>
        <time>2020-09-05T06:41:54Z</time>
      </trkpt>
      <trkpt lat="45.0437" lon="6.12739">
        <ele>932.4</ele>
        <time>2020-09-05T06:41:55Z</time>
      </trkpt>
      <trkpt lat="45.04366" lon="6.12738">
        <ele>932.8</ele>
        <time>2020-09-05T06:41:56Z</time>
      </trkpt>
      <trkpt lat="45.04362" lon="6.12736">
        <ele>933</ele>
        <time>2020-09-05T06:41:57Z</time>
      </trkpt>
      <trkpt lat="45.04358" lon="6.12735">
        <ele>933</ele>
        <time>2020-09-05T06:41:58Z</time>
      </trkpt>
      <trkpt lat="45.0435" lon="6.12733">
        <ele>933.6</ele>
        <time>2020-09-05T06:42:00Z</time>
      </trkpt>
      <trkpt lat="45.04346" lon="6.12732">
        <ele>933.6</ele>
        <time>2020-09-05T06:42:01Z</time>
      </trkpt>
      <trkpt lat="45.04342" lon="6.12732">
        <ele>934</ele>
        <time>2020-09-05T06:42:02Z</time>
      </trkpt>
      <trkpt lat="45.04338" lon="6.12731">
        <ele>934.6</ele>
        <time>2020-09-05T06:42:03Z</time>
      </trkpt>
      <trkpt lat="45.04334" lon="6.1273">
        <ele>934.8</ele>
        <time>2020-09-05T06:42:04Z</time>
      </trkpt>
      <trkpt lat="45.04327" lon="6.12728">
        <ele>935.2</ele>
        <time>2020-09-05T06:42:06Z</time>
      </trkpt>
      <trkpt lat="45.04323" lon="6.12728">
        <ele>935.4</ele>
        <time>2020-09-05T06:42:07Z</time>
      </trkpt>
      <trkpt lat="45.04319" lon="6.12727">
        <ele>935.6</ele>
        <time>2020-09-05T06:42:08Z</time>
      </trkpt>
      <trkpt lat="45.04315" lon="6.12726">
        <ele>935.8</ele>
        <time>2020-09-05T06:42:09Z</time>
      </trkpt>
      <trkpt lat="45.04311" lon="6.12725">
        <ele>936</ele>
        <time>2020-09-05T06:42:10Z</time>
      </trkpt>
      <trkpt lat="45.04307" lon="6.12724">
        <ele>936</ele>
        <time>2020-09-05T06:42:11Z</time>
      </trkpt>
      <trkpt lat="45.04303" lon="6.12723">
        <ele>936</ele>
        <time>2020-09-05T06:42:12Z</time>
      </trkpt>
      <trkpt lat="45.04299" lon="6.12722">
        <ele>936.4</ele>
        <time>2020-09-05T06:42:13Z</time>
      </trkpt>
      <trkpt lat="45.04295" lon="6.12722">
        <ele>936.4</ele>
        <time>2020-09-05T06:42:14Z</time>
      </trkpt>
      <trkpt lat="45.04291" lon="6.1272">
        <ele>936.6</ele>
        <time>2020-09-05T06:42:15Z</time>
      </trkpt>
      <trkpt lat="45.04286" lon="6.1272">
        <ele>937</ele>
        <time>2020-09-05T06:42:16Z</time>
      </trkpt>
      <trkpt lat="45.04282" lon="6.12719">
        <ele>937</ele>
        <time>2020-09-05T06:42:17Z</time>
      </trkpt>
      <trkpt lat="45.0427" lon="6.12714">
        <ele>937.8</ele>
        <time>2020-09-05T06:42:20Z</time>
      </trkpt>
      <trkpt lat="45.0426" lon="6.12707">
        <ele>938</ele>
        <time>2020-09-05T06:42:23Z</time>
      </trkpt>
      <trkpt lat="45.0425" lon="6.127">
        <ele>939</ele>
        <time>2020-09-05T06:42:26Z</time>
      </trkpt>
      <trkpt lat="45.04239" lon="6.12691">
        <ele>939.8</ele>
        <time>2020-09-05T06:42:29Z</time>
      </trkpt>
      <trkpt lat="45.04228" lon="6.12682">
        <ele>940.6</ele>
        <time>2020-09-05T06:42:32Z</time>
      </trkpt>
      <trkpt lat="45.04224" lon="6.1268">
        <ele>941</ele>
        <time>2020-09-05T06:42:33Z</time>
      </trkpt>
      <trkpt lat="45.04221" lon="6.12677">
        <ele>941.2</ele>
        <time>2020-09-05T06:42:34Z</time>
      </trkpt>
      <trkpt lat="45.04217" lon="6.12675">
        <ele>941.4</ele>
        <time>2020-09-05T06:42:35Z</time>
      </trkpt>
      <trkpt lat="45.04213" lon="6.12672">
        <ele>941.6</ele>
        <time>2020-09-05T06:42:36Z</time>
      </trkpt>
      <trkpt lat="45.04209" lon="6.1267">
        <ele>941.8</ele>
        <time>2020-09-05T06:42:37Z</time>
      </trkpt>
      <trkpt lat="45.04205" lon="6.12668">
        <ele>942</ele>
        <time>2020-09-05T06:42:38Z</time>
      </trkpt>
      <trkpt lat="45.04201" lon="6.12665">
        <ele>942.2</ele>
        <time>2020-09-05T06:42:39Z</time>
      </trkpt>
      <trkpt lat="45.04192" lon="6.12661">
        <ele>942.8</ele>
        <time>2020-09-05T06:42:41Z</time>
      </trkpt>
      <trkpt lat="45.0418" lon="6.12656">
        <ele>943.4</ele>
        <time>2020-09-05T06:42:44Z</time>
      </trkpt>
      <trkpt lat="45.04168" lon="6.1265">
        <ele>944</ele>
        <time>2020-09-05T06:42:47Z</time>
      </trkpt>
      <trkpt lat="45.04157" lon="6.12643">
        <ele>944.8</ele>
        <time>2020-09-05T06:42:50Z</time>
      </trkpt>
      <trkpt lat="45.04153" lon="6.12641">
        <ele>944.8</ele>
        <time>2020-09-05T06:42:51Z</time>
      </trkpt>
      <trkpt lat="45.04149" lon="6.12639">
        <ele>944.8</ele>
        <time>2020-09-05T06:42:52Z</time>
      </trkpt>
      <trkpt lat="45.04146" lon="6.12636">
        <ele>945</ele>
        <time>2020-09-05T06:42:53Z</time>
      </trkpt>
      <trkpt lat="45.04143" lon="6.12634">
        <ele>945.2</ele>
        <time>2020-09-05T06:42:54Z</time>
      </trkpt>
      <trkpt lat="45.0414" lon="6.12631">
        <ele>945.4</ele>
        <time>2020-09-05T06:42:55Z</time>
      </trkpt>
      <trkpt lat="45.04137" lon="6.12629">
        <ele>945.6</ele>
        <time>2020-09-05T06:42:56Z</time>
      </trkpt>
      <trkpt lat="45.04134" lon="6.12626">
        <ele>945.8</ele>
        <time>2020-09-05T06:42:57Z</time>
      </trkpt>
      <trkpt lat="45.04131" lon="6.12623">
        <ele>946.2</ele>
        <time>2020-09-05T06:42:58Z</time>
      </trkpt>
      <trkpt lat="45.04128" lon="6.12619">
        <ele>946.4</ele>
        <time>2020-09-05T06:42:59Z</time>
      </trkpt>
      <trkpt lat="45.04126" lon="6.12616">
        <ele>946.4</ele>
        <time>2020-09-05T06:43:00Z</time>
      </trkpt>
      <trkpt lat="45.04124" lon="6.12612">
        <ele>946.8</ele>
        <time>2020-09-05T06:43:01Z</time>
      </trkpt>
      <trkpt lat="45.04122" lon="6.12608">
        <ele>947</ele>
        <time>2020-09-05T06:43:02Z</time>
      </trkpt>
      <trkpt lat="45.0412" lon="6.12604">
        <ele>947.2</ele>
        <time>2020-09-05T06:43:03Z</time>
      </trkpt>
      <trkpt lat="45.04118" lon="6.12599">
        <ele>947.4</ele>
        <time>2020-09-05T06:43:04Z</time>
      </trkpt>
      <trkpt lat="45.04116" lon="6.12594">
        <ele>947.6</ele>
        <time>2020-09-05T06:43:05Z</time>
      </trkpt>
      <trkpt lat="45.04115" lon="6.1259">
        <ele>947.8</ele>
        <time>2020-09-05T06:43:06Z</time>
      </trkpt>
      <trkpt lat="45.04113" lon="6.12585">
        <ele>947.8</ele>
        <time>2020-09-05T06:43:07Z</time>
      </trkpt>
      <trkpt lat="45.04112" lon="6.1258">
        <ele>948</ele>
        <time>2020-09-05T06:43:08Z</time>
      </trkpt>
      <trkpt lat="45.04111" lon="6.12575">
        <ele>948.4</ele>
        <time>2020-09-05T06:43:09Z</time>
      </trkpt>
      <trkpt lat="45.0411" lon="6.1257">
        <ele>948.6</ele>
        <time>2020-09-05T06:43:10Z</time>
      </trkpt>
      <trkpt lat="45.04109" lon="6.12565">
        <ele>948.8</ele>
        <time>2020-09-05T06:43:11Z</time>
      </trkpt>
      <trkpt lat="45.04108" lon="6.1256">
        <ele>948.8</ele>
        <time>2020-09-05T06:43:12Z</time>
      </trkpt>
      <trkpt lat="45.04107" lon="6.12555">
        <ele>948.8</ele>
        <time>2020-09-05T06:43:13Z</time>
      </trkpt>
      <trkpt lat="45.04107" lon="6.1255">
        <ele>949.2</ele>
        <time>2020-09-05T06:43:14Z</time>
      </trkpt>
      <trkpt lat="45.04106" lon="6.12545">
        <ele>949.2</ele>
        <time>2020-09-05T06:43:15Z</time>
      </trkpt>
      <trkpt lat="45.04105" lon="6.1254">
        <ele>949.2</ele>
        <time>2020-09-05T06:43:16Z</time>
      </trkpt>
      <trkpt lat="45.04105" lon="6.12534">
        <ele>949.4</ele>
        <time>2020-09-05T06:43:17Z</time>
      </trkpt>
      <trkpt lat="45.04105" lon="6.12529">
        <ele>949.6</ele>
        <time>2020-09-05T06:43:18Z</time>
      </trkpt>
      <trkpt lat="45.04105" lon="6.12523">
        <ele>950</ele>
        <time>2020-09-05T06:43:19Z</time>
      </trkpt>
      <trkpt lat="45.04105" lon="6.12518">
        <ele>950</ele>
        <time>2020-09-05T06:43:20Z</time>
      </trkpt>
      <trkpt lat="45.04105" lon="6.12513">
        <ele>950.4</ele>
        <time>2020-09-05T06:43:21Z</time>
      </trkpt>
      <trkpt lat="45.04105" lon="6.12507">
        <ele>950.4</ele>
        <time>2020-09-05T06:43:22Z</time>
      </trkpt>
      <trkpt lat="45.04105" lon="6.12502">
        <ele>950.6</ele>
        <time>2020-09-05T06:43:23Z</time>
      </trkpt>
      <trkpt lat="45.04105" lon="6.12497">
        <ele>950.6</ele>
        <time>2020-09-05T06:43:24Z</time>
      </trkpt>
      <trkpt lat="45.04105" lon="6.12492">
        <ele>950.8</ele>
        <time>2020-09-05T06:43:25Z</time>
      </trkpt>
      <trkpt lat="45.04105" lon="6.12487">
        <ele>951.2</ele>
        <time>2020-09-05T06:43:26Z</time>
      </trkpt>
      <trkpt lat="45.04104" lon="6.12482">
        <ele>951.4</ele>
        <time>2020-09-05T06:43:27Z</time>
      </trkpt>
      <trkpt lat="45.04103" lon="6.12477">
        <ele>951.6</ele>
        <time>2020-09-05T06:43:28Z</time>
      </trkpt>
      <trkpt lat="45.04102" lon="6.12472">
        <ele>951.8</ele>
        <time>2020-09-05T06:43:29Z</time>
      </trkpt>
      <trkpt lat="45.04101" lon="6.12467">
        <ele>952</ele>
        <time>2020-09-05T06:43:30Z</time>
      </trkpt>
      <trkpt lat="45.04099" lon="6.12462">
        <ele>952.2</ele>
        <time>2020-09-05T06:43:31Z</time>
      </trkpt>
      <trkpt lat="45.04094" lon="6.12455">
        <ele>952.6</ele>
        <time>2020-09-05T06:43:33Z</time>
      </trkpt>
      <trkpt lat="45.04092" lon="6.12452">
        <ele>952.8</ele>
        <time>2020-09-05T06:43:34Z</time>
      </trkpt>
      <trkpt lat="45.04086" lon="6.12447">
        <ele>953.2</ele>
        <time>2020-09-05T06:43:36Z</time>
      </trkpt>
      <trkpt lat="45.04083" lon="6.12445">
        <ele>953.4</ele>
        <time>2020-09-05T06:43:37Z</time>
      </trkpt>
      <trkpt lat="45.0408" lon="6.12444">
        <ele>953.6</ele>
        <time>2020-09-05T06:43:38Z</time>
      </trkpt>
      <trkpt lat="45.04076" lon="6.12443">
        <ele>953.8</ele>
        <time>2020-09-05T06:43:39Z</time>
      </trkpt>
      <trkpt lat="45.04073" lon="6.12443">
        <ele>953.8</ele>
        <time>2020-09-05T06:43:40Z</time>
      </trkpt>
      <trkpt lat="45.0407" lon="6.12444">
        <ele>954</ele>
        <time>2020-09-05T06:43:41Z</time>
      </trkpt>
      <trkpt lat="45.04067" lon="6.12445">
        <ele>954.2</ele>
        <time>2020-09-05T06:43:42Z</time>
      </trkpt>
      <trkpt lat="45.04063" lon="6.12446">
        <ele>954.4</ele>
        <time>2020-09-05T06:43:43Z</time>
      </trkpt>
      <trkpt lat="45.0406" lon="6.12448">
        <ele>954.8</ele>
        <time>2020-09-05T06:43:44Z</time>
      </trkpt>
      <trkpt lat="45.04052" lon="6.12458">
        <ele>955.4</ele>
        <time>2020-09-05T06:43:47Z</time>
      </trkpt>
      <trkpt lat="45.0405" lon="6.12462">
        <ele>955.6</ele>
        <time>2020-09-05T06:43:48Z</time>
      </trkpt>
      <trkpt lat="45.04048" lon="6.12466">
        <ele>955.6</ele>
        <time>2020-09-05T06:43:49Z</time>
      </trkpt>
      <trkpt lat="45.04046" lon="6.1247">
        <ele>955.8</ele>
        <time>2020-09-05T06:43:50Z</time>
      </trkpt>
      <trkpt lat="45.04045" lon="6.12475">
        <ele>956</ele>
        <time>2020-09-05T06:43:51Z</time>
      </trkpt>
      <trkpt lat="45.04045" lon="6.1248">
        <ele>956.2</ele>
        <time>2020-09-05T06:43:52Z</time>
      </trkpt>
      <trkpt lat="45.04044" lon="6.12485">
        <ele>956.6</ele>
        <time>2020-09-05T06:43:53Z</time>
      </trkpt>
      <trkpt lat="45.04044" lon="6.1249">
        <ele>957</ele>
        <time>2020-09-05T06:43:54Z</time>
      </trkpt>
      <trkpt lat="45.04045" lon="6.12495">
        <ele>957</ele>
        <time>2020-09-05T06:43:55Z</time>
      </trkpt>
      <trkpt lat="45.04045" lon="6.125">
        <ele>957.4</ele>
        <time>2020-09-05T06:43:56Z</time>
      </trkpt>
      <trkpt lat="45.04046" lon="6.12506">
        <ele>957.6</ele>
        <time>2020-09-05T06:43:57Z</time>
      </trkpt>
      <trkpt lat="45.04047" lon="6.12511">
        <ele>957.8</ele>
        <time>2020-09-05T06:43:58Z</time>
      </trkpt>
      <trkpt lat="45.04047" lon="6.12516">
        <ele>957.8</ele>
        <time>2020-09-05T06:43:59Z</time>
      </trkpt>
      <trkpt lat="45.04048" lon="6.12521">
        <ele>958.2</ele>
        <time>2020-09-05T06:44:00Z</time>
      </trkpt>
      <trkpt lat="45.04049" lon="6.12526">
        <ele>958.4</ele>
        <time>2020-09-05T06:44:01Z</time>
      </trkpt>
      <trkpt lat="45.0405" lon="6.12531">
        <ele>958.6</ele>
        <time>2020-09-05T06:44:02Z</time>
      </trkpt>
      <trkpt lat="45.0405" lon="6.12535">
        <ele>958.6</ele>
        <time>2020-09-05T06:44:03Z</time>
      </trkpt>
      <trkpt lat="45.04054" lon="6.1255">
        <ele>959</ele>
        <time>2020-09-05T06:44:06Z</time>
      </trkpt>
      <trkpt lat="45.04057" lon="6.12564">
        <ele>960</ele>
        <time>2020-09-05T06:44:09Z</time>
      </trkpt>
      <trkpt lat="45.04061" lon="6.12579">
        <ele>960.4</ele>
        <time>2020-09-05T06:44:12Z</time>
      </trkpt>
      <trkpt lat="45.04065" lon="6.12592">
        <ele>961.2</ele>
        <time>2020-09-05T06:44:15Z</time>
      </trkpt>
      <trkpt lat="45.04072" lon="6.12604">
        <ele>961.8</ele>
        <time>2020-09-05T06:44:18Z</time>
      </trkpt>
      <trkpt lat="45.04078" lon="6.12616">
        <ele>962.6</ele>
        <time>2020-09-05T06:44:21Z</time>
      </trkpt>
      <trkpt lat="45.04085" lon="6.12626">
        <ele>963.2</ele>
        <time>2020-09-05T06:44:24Z</time>
      </trkpt>
      <trkpt lat="45.04089" lon="6.12633">
        <ele>963.6</ele>
        <time>2020-09-05T06:44:26Z</time>
      </trkpt>
      <trkpt lat="45.04091" lon="6.12636">
        <ele>963.6</ele>
        <time>2020-09-05T06:44:27Z</time>
      </trkpt>
      <trkpt lat="45.04098" lon="6.12646">
        <ele>964.2</ele>
        <time>2020-09-05T06:44:30Z</time>
      </trkpt>
      <trkpt lat="45.04106" lon="6.12656">
        <ele>964.6</ele>
        <time>2020-09-05T06:44:33Z</time>
      </trkpt>
      <trkpt lat="45.04108" lon="6.12659">
        <ele>964.8</ele>
        <time>2020-09-05T06:44:34Z</time>
      </trkpt>
      <trkpt lat="45.0411" lon="6.12662">
        <ele>965</ele>
        <time>2020-09-05T06:44:35Z</time>
      </trkpt>
      <trkpt lat="45.04112" lon="6.12666">
        <ele>965.2</ele>
        <time>2020-09-05T06:44:36Z</time>
      </trkpt>
      <trkpt lat="45.04115" lon="6.12669">
        <ele>965.2</ele>
        <time>2020-09-05T06:44:37Z</time>
      </trkpt>
      <trkpt lat="45.04118" lon="6.12672">
        <ele>965.4</ele>
        <time>2020-09-05T06:44:38Z</time>
      </trkpt>
      <trkpt lat="45.0412" lon="6.12675">
        <ele>965.6</ele>
        <time>2020-09-05T06:44:39Z</time>
      </trkpt>
      <trkpt lat="45.04123" lon="6.12679">
        <ele>965.8</ele>
        <time>2020-09-05T06:44:40Z</time>
      </trkpt>
      <trkpt lat="45.04125" lon="6.12683">
        <ele>966.2</ele>
        <time>2020-09-05T06:44:41Z</time>
      </trkpt>
      <trkpt lat="45.04128" lon="6.12686">
        <ele>966.4</ele>
        <time>2020-09-05T06:44:42Z</time>
      </trkpt>
      <trkpt lat="45.04131" lon="6.12689">
        <ele>966.6</ele>
        <time>2020-09-05T06:44:43Z</time>
      </trkpt>
      <trkpt lat="45.04134" lon="6.12692">
        <ele>966.8</ele>
        <time>2020-09-05T06:44:44Z</time>
      </trkpt>
      <trkpt lat="45.04136" lon="6.12696">
        <ele>967</ele>
        <time>2020-09-05T06:44:45Z</time>
      </trkpt>
      <trkpt lat="45.04139" lon="6.12699">
        <ele>967</ele>
        <time>2020-09-05T06:44:46Z</time>
      </trkpt>
      <trkpt lat="45.04142" lon="6.12702">
        <ele>967.2</ele>
        <time>2020-09-05T06:44:47Z</time>
      </trkpt>
      <trkpt lat="45.04145" lon="6.12705">
        <ele>967.4</ele>
        <time>2020-09-05T06:44:48Z</time>
      </trkpt>
      <trkpt lat="45.04148" lon="6.12709">
        <ele>967.6</ele>
        <time>2020-09-05T06:44:49Z</time>
      </trkpt>
      <trkpt lat="45.04151" lon="6.12712">
        <ele>967.6</ele>
        <time>2020-09-05T06:44:50Z</time>
      </trkpt>
      <trkpt lat="45.04154" lon="6.12715">
        <ele>968</ele>
        <time>2020-09-05T06:44:51Z</time>
      </trkpt>
      <trkpt lat="45.04157" lon="6.12718">
        <ele>968.4</ele>
        <time>2020-09-05T06:44:52Z</time>
      </trkpt>
      <trkpt lat="45.0416" lon="6.12722">
        <ele>968.6</ele>
        <time>2020-09-05T06:44:53Z</time>
      </trkpt>
      <trkpt lat="45.04163" lon="6.12725">
        <ele>968.8</ele>
        <time>2020-09-05T06:44:54Z</time>
      </trkpt>
      <trkpt lat="45.04165" lon="6.12728">
        <ele>969</ele>
        <time>2020-09-05T06:44:55Z</time>
      </trkpt>
      <trkpt lat="45.04168" lon="6.12731">
        <ele>969.2</ele>
        <time>2020-09-05T06:44:56Z</time>
      </trkpt>
      <trkpt lat="45.0417" lon="6.12734">
        <ele>969.4</ele>
        <time>2020-09-05T06:44:57Z</time>
      </trkpt>
      <trkpt lat="45.04173" lon="6.12738">
        <ele>969.8</ele>
        <time>2020-09-05T06:44:58Z</time>
      </trkpt>
      <trkpt lat="45.04176" lon="6.12741">
        <ele>970</ele>
        <time>2020-09-05T06:44:59Z</time>
      </trkpt>
      <trkpt lat="45.04179" lon="6.12744">
        <ele>970.2</ele>
        <time>2020-09-05T06:45:00Z</time>
      </trkpt>
      <trkpt lat="45.04182" lon="6.12748">
        <ele>970.6</ele>
        <time>2020-09-05T06:45:01Z</time>
      </trkpt>
      <trkpt lat="45.04185" lon="6.12751">
        <ele>970.6</ele>
        <time>2020-09-05T06:45:02Z</time>
      </trkpt>
      <trkpt lat="45.04188" lon="6.12754">
        <ele>970.8</ele>
        <time>2020-09-05T06:45:03Z</time>
      </trkpt>
      <trkpt lat="45.04191" lon="6.12758">
        <ele>971</ele>
        <time>2020-09-05T06:45:04Z</time>
      </trkpt>
      <trkpt lat="45.04193" lon="6.12761">
        <ele>971.2</ele>
        <time>2020-09-05T06:45:05Z</time>
      </trkpt>
      <trkpt lat="45.04196" lon="6.12764">
        <ele>971.6</ele>
        <time>2020-09-05T06:45:06Z</time>
      </trkpt>
      <trkpt lat="45.04198" lon="6.12767">
        <ele>972</ele>
        <time>2020-09-05T06:45:07Z</time>
      </trkpt>
      <trkpt lat="45.04201" lon="6.1277">
        <ele>972.4</ele>
        <time>2020-09-05T06:45:08Z</time>
      </trkpt>
      <trkpt lat="45.04203" lon="6.12773">
        <ele>972.8</ele>
        <time>2020-09-05T06:45:09Z</time>
      </trkpt>
      <trkpt lat="45.04204" lon="6.12774">
        <ele>973</ele>
        <time>2020-09-05T06:45:10Z</time>
      </trkpt>
      <trkpt lat="45.04206" lon="6.12776">
        <ele>973.2</ele>
        <time>2020-09-05T06:45:11Z</time>
      </trkpt>
      <trkpt lat="45.04208" lon="6.12779">
        <ele>973.4</ele>
        <time>2020-09-05T06:45:12Z</time>
      </trkpt>
      <trkpt lat="45.04211" lon="6.12782">
        <ele>973.4</ele>
        <time>2020-09-05T06:45:13Z</time>
      </trkpt>
      <trkpt lat="45.04213" lon="6.12785">
        <ele>973.6</ele>
        <time>2020-09-05T06:45:14Z</time>
      </trkpt>
      <trkpt lat="45.04215" lon="6.12787">
        <ele>973.8</ele>
        <time>2020-09-05T06:45:15Z</time>
      </trkpt>
      <trkpt lat="45.04217" lon="6.12789">
        <ele>974.2</ele>
        <time>2020-09-05T06:45:16Z</time>
      </trkpt>
      <trkpt lat="45.0422" lon="6.12791">
        <ele>974.4</ele>
        <time>2020-09-05T06:45:17Z</time>
      </trkpt>
      <trkpt lat="45.04222" lon="6.12793">
        <ele>974.4</ele>
        <time>2020-09-05T06:45:18Z</time>
      </trkpt>
      <trkpt lat="45.04224" lon="6.12796">
        <ele>974.6</ele>
        <time>2020-09-05T06:45:19Z</time>
      </trkpt>
      <trkpt lat="45.04227" lon="6.12798">
        <ele>975</ele>
        <time>2020-09-05T06:45:20Z</time>
      </trkpt>
      <trkpt lat="45.04229" lon="6.128">
        <ele>975.2</ele>
        <time>2020-09-05T06:45:21Z</time>
      </trkpt>
      <trkpt lat="45.04232" lon="6.12803">
        <ele>975.4</ele>
        <time>2020-09-05T06:45:22Z</time>
      </trkpt>
      <trkpt lat="45.04235" lon="6.12805">
        <ele>975.6</ele>
        <time>2020-09-05T06:45:23Z</time>
      </trkpt>
      <trkpt lat="45.04237" lon="6.12807">
        <ele>975.6</ele>
        <time>2020-09-05T06:45:24Z</time>
      </trkpt>
      <trkpt lat="45.0424" lon="6.1281">
        <ele>975.8</ele>
        <time>2020-09-05T06:45:25Z</time>
      </trkpt>
      <trkpt lat="45.04243" lon="6.12812">
        <ele>976</ele>
        <time>2020-09-05T06:45:26Z</time>
      </trkpt>
      <trkpt lat="45.04245" lon="6.12814">
        <ele>976.4</ele>
        <time>2020-09-05T06:45:27Z</time>
      </trkpt>
      <trkpt lat="45.04248" lon="6.12816">
        <ele>976.6</ele>
        <time>2020-09-05T06:45:28Z</time>
      </trkpt>
      <trkpt lat="45.04251" lon="6.12819">
        <ele>976.8</ele>
        <time>2020-09-05T06:45:29Z</time>
      </trkpt>
      <trkpt lat="45.04254" lon="6.12822">
        <ele>977.2</ele>
        <time>2020-09-05T06:45:30Z</time>
      </trkpt>
      <trkpt lat="45.04258" lon="6.12824">
        <ele>977</ele>
        <time>2020-09-05T06:45:31Z</time>
      </trkpt>
      <trkpt lat="45.04261" lon="6.12827">
        <ele>977.6</ele>
        <time>2020-09-05T06:45:32Z</time>
      </trkpt>
      <trkpt lat="45.04265" lon="6.12829">
        <ele>977.8</ele>
        <time>2020-09-05T06:45:33Z</time>
      </trkpt>
      <trkpt lat="45.04268" lon="6.12832">
        <ele>977.8</ele>
        <time>2020-09-05T06:45:34Z</time>
      </trkpt>
      <trkpt lat="45.04272" lon="6.12834">
        <ele>978</ele>
        <time>2020-09-05T06:45:35Z</time>
      </trkpt>
      <trkpt lat="45.04275" lon="6.12836">
        <ele>978.2</ele>
        <time>2020-09-05T06:45:36Z</time>
      </trkpt>
      <trkpt lat="45.04279" lon="6.12838">
        <ele>978.6</ele>
        <time>2020-09-05T06:45:37Z</time>
      </trkpt>
      <trkpt lat="45.04282" lon="6.1284">
        <ele>978.8</ele>
        <time>2020-09-05T06:45:38Z</time>
      </trkpt>
      <trkpt lat="45.04285" lon="6.12842">
        <ele>979</ele>
        <time>2020-09-05T06:45:39Z</time>
      </trkpt>
      <trkpt lat="45.04289" lon="6.12844">
        <ele>979.2</ele>
        <time>2020-09-05T06:45:40Z</time>
      </trkpt>
      <trkpt lat="45.04292" lon="6.12847">
        <ele>979.6</ele>
        <time>2020-09-05T06:45:41Z</time>
      </trkpt>
      <trkpt lat="45.04296" lon="6.1285">
        <ele>979.8</ele>
        <time>2020-09-05T06:45:42Z</time>
      </trkpt>
      <trkpt lat="45.04299" lon="6.12852">
        <ele>980</ele>
        <time>2020-09-05T06:45:43Z</time>
      </trkpt>
      <trkpt lat="45.04303" lon="6.12855">
        <ele>980</ele>
        <time>2020-09-05T06:45:44Z</time>
      </trkpt>
      <trkpt lat="45.04306" lon="6.12858">
        <ele>980.2</ele>
        <time>2020-09-05T06:45:45Z</time>
      </trkpt>
      <trkpt lat="45.0431" lon="6.12861">
        <ele>980.4</ele>
        <time>2020-09-05T06:45:46Z</time>
      </trkpt>
      <trkpt lat="45.04313" lon="6.12864">
        <ele>980.6</ele>
        <time>2020-09-05T06:45:47Z</time>
      </trkpt>
      <trkpt lat="45.04317" lon="6.12867">
        <ele>980.8</ele>
        <time>2020-09-05T06:45:48Z</time>
      </trkpt>
      <trkpt lat="45.0432" lon="6.1287">
        <ele>981</ele>
        <time>2020-09-05T06:45:49Z</time>
      </trkpt>
      <trkpt lat="45.04323" lon="6.12873">
        <ele>981.2</ele>
        <time>2020-09-05T06:45:50Z</time>
      </trkpt>
      <trkpt lat="45.04326" lon="6.12876">
        <ele>981.8</ele>
        <time>2020-09-05T06:45:51Z</time>
      </trkpt>
      <trkpt lat="45.04329" lon="6.12879">
        <ele>982</ele>
        <time>2020-09-05T06:45:52Z</time>
      </trkpt>
      <trkpt lat="45.04332" lon="6.12882">
        <ele>982.2</ele>
        <time>2020-09-05T06:45:53Z</time>
      </trkpt>
      <trkpt lat="45.0434" lon="6.1289">
        <ele>983.2</ele>
        <time>2020-09-05T06:45:56Z</time>
      </trkpt>
      <trkpt lat="45.04349" lon="6.12898">
        <ele>983.8</ele>
        <time>2020-09-05T06:45:59Z</time>
      </trkpt>
      <trkpt lat="45.04352" lon="6.12901">
        <ele>984.2</ele>
        <time>2020-09-05T06:46:00Z</time>
      </trkpt>
      <trkpt lat="45.04354" lon="6.12903">
        <ele>984.4</ele>
        <time>2020-09-05T06:46:01Z</time>
      </trkpt>
      <trkpt lat="45.04356" lon="6.12906">
        <ele>984.6</ele>
        <time>2020-09-05T06:46:02Z</time>
      </trkpt>
      <trkpt lat="45.04365" lon="6.12915">
        <ele>985.4</ele>
        <time>2020-09-05T06:46:06Z</time>
      </trkpt>
      <trkpt lat="45.04374" lon="6.12921">
        <ele>986</ele>
        <time>2020-09-05T06:46:09Z</time>
      </trkpt>
      <trkpt lat="45.04377" lon="6.12924">
        <ele>986.2</ele>
        <time>2020-09-05T06:46:10Z</time>
      </trkpt>
      <trkpt lat="45.0438" lon="6.12926">
        <ele>986.2</ele>
        <time>2020-09-05T06:46:11Z</time>
      </trkpt>
      <trkpt lat="45.04383" lon="6.12928">
        <ele>986.6</ele>
        <time>2020-09-05T06:46:12Z</time>
      </trkpt>
      <trkpt lat="45.04387" lon="6.1293">
        <ele>986.8</ele>
        <time>2020-09-05T06:46:13Z</time>
      </trkpt>
      <trkpt lat="45.0439" lon="6.12932">
        <ele>987</ele>
        <time>2020-09-05T06:46:14Z</time>
      </trkpt>
      <trkpt lat="45.04393" lon="6.12935">
        <ele>987.2</ele>
        <time>2020-09-05T06:46:15Z</time>
      </trkpt>
      <trkpt lat="45.04396" lon="6.12937">
        <ele>987.4</ele>
        <time>2020-09-05T06:46:16Z</time>
      </trkpt>
      <trkpt lat="45.04399" lon="6.1294">
        <ele>987.6</ele>
        <time>2020-09-05T06:46:17Z</time>
      </trkpt>
      <trkpt lat="45.04402" lon="6.12942">
        <ele>988</ele>
        <time>2020-09-05T06:46:18Z</time>
      </trkpt>
      <trkpt lat="45.04405" lon="6.12945">
        <ele>988.2</ele>
        <time>2020-09-05T06:46:19Z</time>
      </trkpt>
      <trkpt lat="45.04408" lon="6.12948">
        <ele>988.6</ele>
        <time>2020-09-05T06:46:20Z</time>
      </trkpt>
      <trkpt lat="45.0441" lon="6.1295">
        <ele>988.6</ele>
        <time>2020-09-05T06:46:21Z</time>
      </trkpt>
      <trkpt lat="45.04413" lon="6.12953">
        <ele>988.8</ele>
        <time>2020-09-05T06:46:22Z</time>
      </trkpt>
      <trkpt lat="45.04416" lon="6.12956">
        <ele>989</ele>
        <time>2020-09-05T06:46:23Z</time>
      </trkpt>
      <trkpt lat="45.04419" lon="6.12959">
        <ele>989.4</ele>
        <time>2020-09-05T06:46:24Z</time>
      </trkpt>
      <trkpt lat="45.04421" lon="6.12962">
        <ele>989.6</ele>
        <time>2020-09-05T06:46:25Z</time>
      </trkpt>
      <trkpt lat="45.04424" lon="6.12965">
        <ele>989.8</ele>
        <time>2020-09-05T06:46:26Z</time>
      </trkpt>
      <trkpt lat="45.04427" lon="6.12968">
        <ele>990</ele>
        <time>2020-09-05T06:46:27Z</time>
      </trkpt>
      <trkpt lat="45.0443" lon="6.12971">
        <ele>990.4</ele>
        <time>2020-09-05T06:46:28Z</time>
      </trkpt>
      <trkpt lat="45.04433" lon="6.12973">
        <ele>990.6</ele>
        <time>2020-09-05T06:46:29Z</time>
      </trkpt>
      <trkpt lat="45.04436" lon="6.12975">
        <ele>990.8</ele>
        <time>2020-09-05T06:46:30Z</time>
      </trkpt>
      <trkpt lat="45.04438" lon="6.12978">
        <ele>991.2</ele>
        <time>2020-09-05T06:46:31Z</time>
      </trkpt>
      <trkpt lat="45.04446" lon="6.12986">
        <ele>992.2</ele>
        <time>2020-09-05T06:46:34Z</time>
      </trkpt>
      <trkpt lat="45.04453" lon="6.12993">
        <ele>992.8</ele>
        <time>2020-09-05T06:46:37Z</time>
      </trkpt>
      <trkpt lat="45.04463" lon="6.13001">
        <ele>993.4</ele>
        <time>2020-09-05T06:46:40Z</time>
      </trkpt>
      <trkpt lat="45.04466" lon="6.13004">
        <ele>993.8</ele>
        <time>2020-09-05T06:46:41Z</time>
      </trkpt>
      <trkpt lat="45.04469" lon="6.13006">
        <ele>994</ele>
        <time>2020-09-05T06:46:42Z</time>
      </trkpt>
      <trkpt lat="45.04472" lon="6.13009">
        <ele>994.2</ele>
        <time>2020-09-05T06:46:43Z</time>
      </trkpt>
      <trkpt lat="45.04476" lon="6.13011">
        <ele>994.4</ele>
        <time>2020-09-05T06:46:44Z</time>
      </trkpt>
      <trkpt lat="45.04479" lon="6.13014">
        <ele>994.6</ele>
        <time>2020-09-05T06:46:45Z</time>
      </trkpt>
      <trkpt lat="45.04482" lon="6.13016">
        <ele>995</ele>
        <time>2020-09-05T06:46:46Z</time>
      </trkpt>
      <trkpt lat="45.04485" lon="6.13019">
        <ele>995</ele>
        <time>2020-09-05T06:46:47Z</time>
      </trkpt>
      <trkpt lat="45.04488" lon="6.13022">
        <ele>995.4</ele>
        <time>2020-09-05T06:46:48Z</time>
      </trkpt>
      <trkpt lat="45.04491" lon="6.13024">
        <ele>995.8</ele>
        <time>2020-09-05T06:46:49Z</time>
      </trkpt>
      <trkpt lat="45.04494" lon="6.13027">
        <ele>996</ele>
        <time>2020-09-05T06:46:50Z</time>
      </trkpt>
      <trkpt lat="45.04497" lon="6.1303">
        <ele>996.2</ele>
        <time>2020-09-05T06:46:51Z</time>
      </trkpt>
      <trkpt lat="45.045" lon="6.13033">
        <ele>996.2</ele>
        <time>2020-09-05T06:46:52Z</time>
      </trkpt>
      <trkpt lat="45.04503" lon="6.13036">
        <ele>996.6</ele>
        <time>2020-09-05T06:46:53Z</time>
      </trkpt>
      <trkpt lat="45.04507" lon="6.13039">
        <ele>996.8</ele>
        <time>2020-09-05T06:46:54Z</time>
      </trkpt>
      <trkpt lat="45.0451" lon="6.13041">
        <ele>997</ele>
        <time>2020-09-05T06:46:55Z</time>
      </trkpt>
      <trkpt lat="45.04513" lon="6.13044">
        <ele>997</ele>
        <time>2020-09-05T06:46:56Z</time>
      </trkpt>
      <trkpt lat="45.04516" lon="6.13047">
        <ele>997.2</ele>
        <time>2020-09-05T06:46:57Z</time>
      </trkpt>
      <trkpt lat="45.04519" lon="6.13049">
        <ele>997.6</ele>
        <time>2020-09-05T06:46:58Z</time>
      </trkpt>
      <trkpt lat="45.04523" lon="6.13052">
        <ele>997.8</ele>
        <time>2020-09-05T06:46:59Z</time>
      </trkpt>
      <trkpt lat="45.04526" lon="6.13055">
        <ele>998</ele>
        <time>2020-09-05T06:47:00Z</time>
      </trkpt>
      <trkpt lat="45.04529" lon="6.13058">
        <ele>998</ele>
        <time>2020-09-05T06:47:01Z</time>
      </trkpt>
      <trkpt lat="45.04532" lon="6.1306">
        <ele>998.2</ele>
        <time>2020-09-05T06:47:02Z</time>
      </trkpt>
      <trkpt lat="45.04535" lon="6.13063">
        <ele>998.6</ele>
        <time>2020-09-05T06:47:03Z</time>
      </trkpt>
      <trkpt lat="45.04538" lon="6.13066">
        <ele>998.8</ele>
        <time>2020-09-05T06:47:04Z</time>
      </trkpt>
      <trkpt lat="45.04541" lon="6.13069">
        <ele>999.2</ele>
        <time>2020-09-05T06:47:05Z</time>
      </trkpt>
      <trkpt lat="45.04544" lon="6.13072">
        <ele>999.6</ele>
        <time>2020-09-05T06:47:06Z</time>
      </trkpt>
      <trkpt lat="45.04547" lon="6.13076">
        <ele>1000</ele>
        <time>2020-09-05T06:47:07Z</time>
      </trkpt>
      <trkpt lat="45.0455" lon="6.1308">
        <ele>1000.2</ele>
        <time>2020-09-05T06:47:08Z</time>
      </trkpt>
      <trkpt lat="45.04552" lon="6.13084">
        <ele>1000.4</ele>
        <time>2020-09-05T06:47:09Z</time>
      </trkpt>
      <trkpt lat="45.04555" lon="6.13087">
        <ele>1000.4</ele>
        <time>2020-09-05T06:47:10Z</time>
      </trkpt>
      <trkpt lat="45.04557" lon="6.13091">
        <ele>1000.8</ele>
        <time>2020-09-05T06:47:11Z</time>
      </trkpt>
      <trkpt lat="45.0456" lon="6.13095">
        <ele>1001</ele>
        <time>2020-09-05T06:47:12Z</time>
      </trkpt>
      <trkpt lat="45.04562" lon="6.131">
        <ele>1001.2</ele>
        <time>2020-09-05T06:47:13Z</time>
      </trkpt>
      <trkpt lat="45.04564" lon="6.13104">
        <ele>1001.6</ele>
        <time>2020-09-05T06:47:14Z</time>
      </trkpt>
      <trkpt lat="45.04566" lon="6.13108">
        <ele>1001.8</ele>
        <time>2020-09-05T06:47:15Z</time>
      </trkpt>
      <trkpt lat="45.04568" lon="6.13112">
        <ele>1002</ele>
        <time>2020-09-05T06:47:16Z</time>
      </trkpt>
      <trkpt lat="45.0457" lon="6.13117">
        <ele>1002</ele>
        <time>2020-09-05T06:47:17Z</time>
      </trkpt>
      <trkpt lat="45.04572" lon="6.13121">
        <ele>1002.4</ele>
        <time>2020-09-05T06:47:18Z</time>
      </trkpt>
      <trkpt lat="45.04574" lon="6.13126">
        <ele>1002.6</ele>
        <time>2020-09-05T06:47:19Z</time>
      </trkpt>
      <trkpt lat="45.04576" lon="6.13131">
        <ele>1002.8</ele>
        <time>2020-09-05T06:47:20Z</time>
      </trkpt>
      <trkpt lat="45.04578" lon="6.13136">
        <ele>1003.2</ele>
        <time>2020-09-05T06:47:21Z</time>
      </trkpt>
      <trkpt lat="45.04579" lon="6.13141">
        <ele>1003.6</ele>
        <time>2020-09-05T06:47:22Z</time>
      </trkpt>
      <trkpt lat="45.0458" lon="6.13147">
        <ele>1003.8</ele>
        <time>2020-09-05T06:47:23Z</time>
      </trkpt>
      <trkpt lat="45.04581" lon="6.13152">
        <ele>1004.2</ele>
        <time>2020-09-05T06:47:24Z</time>
      </trkpt>
      <trkpt lat="45.04582" lon="6.13157">
        <ele>1004.4</ele>
        <time>2020-09-05T06:47:25Z</time>
      </trkpt>
      <trkpt lat="45.04584" lon="6.13161">
        <ele>1004.6</ele>
        <time>2020-09-05T06:47:26Z</time>
      </trkpt>
      <trkpt lat="45.04586" lon="6.13166">
        <ele>1004.8</ele>
        <time>2020-09-05T06:47:27Z</time>
      </trkpt>
      <trkpt lat="45.04588" lon="6.13171">
        <ele>1005</ele>
        <time>2020-09-05T06:47:28Z</time>
      </trkpt>
      <trkpt lat="45.04591" lon="6.13175">
        <ele>1005.2</ele>
        <time>2020-09-05T06:47:29Z</time>
      </trkpt>
      <trkpt lat="45.04593" lon="6.13179">
        <ele>1005.4</ele>
        <time>2020-09-05T06:47:30Z</time>
      </trkpt>
      <trkpt lat="45.04596" lon="6.13183">
        <ele>1005.6</ele>
        <time>2020-09-05T06:47:31Z</time>
      </trkpt>
      <trkpt lat="45.04599" lon="6.13187">
        <ele>1006</ele>
        <time>2020-09-05T06:47:32Z</time>
      </trkpt>
      <trkpt lat="45.04601" lon="6.1319">
        <ele>1006.2</ele>
        <time>2020-09-05T06:47:33Z</time>
      </trkpt>
      <trkpt lat="45.04604" lon="6.13194">
        <ele>1006.4</ele>
        <time>2020-09-05T06:47:34Z</time>
      </trkpt>
      <trkpt lat="45.04614" lon="6.13204">
        <ele>1007</ele>
        <time>2020-09-05T06:47:37Z</time>
      </trkpt>
      <trkpt lat="45.04618" lon="6.13207">
        <ele>1007.4</ele>
        <time>2020-09-05T06:47:38Z</time>
      </trkpt>
      <trkpt lat="45.04622" lon="6.1321">
        <ele>1007.6</ele>
        <time>2020-09-05T06:47:39Z</time>
      </trkpt>
      <trkpt lat="45.04626" lon="6.13212">
        <ele>1007.8</ele>
        <time>2020-09-05T06:47:40Z</time>
      </trkpt>
      <trkpt lat="45.04631" lon="6.13215">
        <ele>1008.4</ele>
        <time>2020-09-05T06:47:41Z</time>
      </trkpt>
      <trkpt lat="45.04635" lon="6.13218">
        <ele>1008.6</ele>
        <time>2020-09-05T06:47:42Z</time>
      </trkpt>
      <trkpt lat="45.04639" lon="6.1322">
        <ele>1008.6</ele>
        <time>2020-09-05T06:47:43Z</time>
      </trkpt>
      <trkpt lat="45.04644" lon="6.13222">
        <ele>1008.8</ele>
        <time>2020-09-05T06:47:44Z</time>
      </trkpt>
      <trkpt lat="45.04648" lon="6.13224">
        <ele>1009</ele>
        <time>2020-09-05T06:47:45Z</time>
      </trkpt>
      <trkpt lat="45.04652" lon="6.13226">
        <ele>1009.2</ele>
        <time>2020-09-05T06:47:46Z</time>
      </trkpt>
      <trkpt lat="45.04657" lon="6.13228">
        <ele>1009.4</ele>
        <time>2020-09-05T06:47:47Z</time>
      </trkpt>
      <trkpt lat="45.04661" lon="6.13229">
        <ele>1009.8</ele>
        <time>2020-09-05T06:47:48Z</time>
      </trkpt>
      <trkpt lat="45.04665" lon="6.1323">
        <ele>1010.2</ele>
        <time>2020-09-05T06:47:49Z</time>
      </trkpt>
      <trkpt lat="45.0467" lon="6.13232">
        <ele>1010.4</ele>
        <time>2020-09-05T06:47:50Z</time>
      </trkpt>
      <trkpt lat="45.04674" lon="6.13233">
        <ele>1010.8</ele>
        <time>2020-09-05T06:47:51Z</time>
      </trkpt>
      <trkpt lat="45.04678" lon="6.13235">
        <ele>1011</ele>
        <time>2020-09-05T06:47:52Z</time>
      </trkpt>
      <trkpt lat="45.04682" lon="6.13237">
        <ele>1011.4</ele>
        <time>2020-09-05T06:47:53Z</time>
      </trkpt>
      <trkpt lat="45.04686" lon="6.1324">
        <ele>1011.6</ele>
        <time>2020-09-05T06:47:54Z</time>
      </trkpt>
      <trkpt lat="45.04689" lon="6.13244">
        <ele>1012</ele>
        <time>2020-09-05T06:47:55Z</time>
      </trkpt>
      <trkpt lat="45.04692" lon="6.13248">
        <ele>1012.2</ele>
        <time>2020-09-05T06:47:56Z</time>
      </trkpt>
      <trkpt lat="45.04694" lon="6.13253">
        <ele>1012.4</ele>
        <time>2020-09-05T06:47:57Z</time>
      </trkpt>
      <trkpt lat="45.04695" lon="6.13259">
        <ele>1012.8</ele>
        <time>2020-09-05T06:47:58Z</time>
      </trkpt>
      <trkpt lat="45.04695" lon="6.13265">
        <ele>1013</ele>
        <time>2020-09-05T06:47:59Z</time>
      </trkpt>
      <trkpt lat="45.04695" lon="6.13271">
        <ele>1013.4</ele>
        <time>2020-09-05T06:48:00Z</time>
      </trkpt>
      <trkpt lat="45.04695" lon="6.13277">
        <ele>1013.8</ele>
        <time>2020-09-05T06:48:01Z</time>
      </trkpt>
      <trkpt lat="45.04695" lon="6.13284">
        <ele>1014</ele>
        <time>2020-09-05T06:48:02Z</time>
      </trkpt>
      <trkpt lat="45.04694" lon="6.1329">
        <ele>1014.4</ele>
        <time>2020-09-05T06:48:03Z</time>
      </trkpt>
      <trkpt lat="45.04692" lon="6.13307">
        <ele>1015.2</ele>
        <time>2020-09-05T06:48:06Z</time>
      </trkpt>
      <trkpt lat="45.0469" lon="6.13329">
        <ele>1016</ele>
        <time>2020-09-05T06:48:09Z</time>
      </trkpt>
      <trkpt lat="45.04683" lon="6.1334">
        <ele>1016.6</ele>
        <time>2020-09-05T06:48:12Z</time>
      </trkpt>
      <trkpt lat="45.04674" lon="6.13351">
        <ele>1017.8</ele>
        <time>2020-09-05T06:48:15Z</time>
      </trkpt>
      <trkpt lat="45.04668" lon="6.13365">
        <ele>1018.6</ele>
        <time>2020-09-05T06:48:18Z</time>
      </trkpt>
      <trkpt lat="45.04663" lon="6.1338">
        <ele>1019.4</ele>
        <time>2020-09-05T06:48:21Z</time>
      </trkpt>
      <trkpt lat="45.04662" lon="6.13386">
        <ele>1020</ele>
        <time>2020-09-05T06:48:22Z</time>
      </trkpt>
      <trkpt lat="45.04659" lon="6.1339">
        <ele>1020.2</ele>
        <time>2020-09-05T06:48:23Z</time>
      </trkpt>
      <trkpt lat="45.04657" lon="6.13395">
        <ele>1020.4</ele>
        <time>2020-09-05T06:48:24Z</time>
      </trkpt>
      <trkpt lat="45.04654" lon="6.134">
        <ele>1020.4</ele>
        <time>2020-09-05T06:48:25Z</time>
      </trkpt>
      <trkpt lat="45.04652" lon="6.13405">
        <ele>1020.8</ele>
        <time>2020-09-05T06:48:26Z</time>
      </trkpt>
      <trkpt lat="45.04649" lon="6.1341">
        <ele>1021</ele>
        <time>2020-09-05T06:48:27Z</time>
      </trkpt>
      <trkpt lat="45.04647" lon="6.13416">
        <ele>1021.2</ele>
        <time>2020-09-05T06:48:28Z</time>
      </trkpt>
      <trkpt lat="45.04644" lon="6.13421">
        <ele>1021.6</ele>
        <time>2020-09-05T06:48:29Z</time>
      </trkpt>
      <trkpt lat="45.04642" lon="6.13426">
        <ele>1021.8</ele>
        <time>2020-09-05T06:48:30Z</time>
      </trkpt>
      <trkpt lat="45.0464" lon="6.13432">
        <ele>1021.8</ele>
        <time>2020-09-05T06:48:31Z</time>
      </trkpt>
      <trkpt lat="45.04637" lon="6.13437">
        <ele>1022.2</ele>
        <time>2020-09-05T06:48:32Z</time>
      </trkpt>
      <trkpt lat="45.04634" lon="6.13443">
        <ele>1022.4</ele>
        <time>2020-09-05T06:48:33Z</time>
      </trkpt>
      <trkpt lat="45.04631" lon="6.13448">
        <ele>1022.6</ele>
        <time>2020-09-05T06:48:34Z</time>
      </trkpt>
      <trkpt lat="45.04628" lon="6.13452">
        <ele>1022.8</ele>
        <time>2020-09-05T06:48:35Z</time>
      </trkpt>
      <trkpt lat="45.04624" lon="6.13456">
        <ele>1023</ele>
        <time>2020-09-05T06:48:36Z</time>
      </trkpt>
      <trkpt lat="45.0462" lon="6.13459">
        <ele>1023.4</ele>
        <time>2020-09-05T06:48:37Z</time>
      </trkpt>
      <trkpt lat="45.04616" lon="6.13461">
        <ele>1023.8</ele>
        <time>2020-09-05T06:48:38Z</time>
      </trkpt>
      <trkpt lat="45.04611" lon="6.13463">
        <ele>1024</ele>
        <time>2020-09-05T06:48:39Z</time>
      </trkpt>
      <trkpt lat="45.04607" lon="6.13465">
        <ele>1024.4</ele>
        <time>2020-09-05T06:48:40Z</time>
      </trkpt>
      <trkpt lat="45.04602" lon="6.13468">
        <ele>1025</ele>
        <time>2020-09-05T06:48:41Z</time>
      </trkpt>
      <trkpt lat="45.04594" lon="6.13473">
        <ele>1025.8</ele>
        <time>2020-09-05T06:48:43Z</time>
      </trkpt>
      <trkpt lat="45.04589" lon="6.13476">
        <ele>1026.2</ele>
        <time>2020-09-05T06:48:44Z</time>
      </trkpt>
      <trkpt lat="45.04585" lon="6.1348">
        <ele>1026.6</ele>
        <time>2020-09-05T06:48:45Z</time>
      </trkpt>
      <trkpt lat="45.04581" lon="6.13485">
        <ele>1026.8</ele>
        <time>2020-09-05T06:48:46Z</time>
      </trkpt>
      <trkpt lat="45.04578" lon="6.13491">
        <ele>1026.8</ele>
        <time>2020-09-05T06:48:47Z</time>
      </trkpt>
      <trkpt lat="45.04574" lon="6.13497">
        <ele>1027</ele>
        <time>2020-09-05T06:48:48Z</time>
      </trkpt>
      <trkpt lat="45.0457" lon="6.13503">
        <ele>1027.4</ele>
        <time>2020-09-05T06:48:49Z</time>
      </trkpt>
      <trkpt lat="45.04566" lon="6.13509">
        <ele>1027.6</ele>
        <time>2020-09-05T06:48:50Z</time>
      </trkpt>
      <trkpt lat="45.04562" lon="6.13515">
        <ele>1027.6</ele>
        <time>2020-09-05T06:48:51Z</time>
      </trkpt>
      <trkpt lat="45.04558" lon="6.13519">
        <ele>1027.6</ele>
        <time>2020-09-05T06:48:52Z</time>
      </trkpt>
      <trkpt lat="45.04554" lon="6.13523">
        <ele>1028</ele>
        <time>2020-09-05T06:48:53Z</time>
      </trkpt>
      <trkpt lat="45.0455" lon="6.13526">
        <ele>1028.2</ele>
        <time>2020-09-05T06:48:54Z</time>
      </trkpt>
      <trkpt lat="45.04545" lon="6.1353">
        <ele>1028.4</ele>
        <time>2020-09-05T06:48:55Z</time>
      </trkpt>
      <trkpt lat="45.04541" lon="6.13533">
        <ele>1028.6</ele>
        <time>2020-09-05T06:48:56Z</time>
      </trkpt>
      <trkpt lat="45.04536" lon="6.13537">
        <ele>1028.8</ele>
        <time>2020-09-05T06:48:57Z</time>
      </trkpt>
      <trkpt lat="45.04532" lon="6.1354">
        <ele>1029.2</ele>
        <time>2020-09-05T06:48:58Z</time>
      </trkpt>
      <trkpt lat="45.04528" lon="6.13545">
        <ele>1029.2</ele>
        <time>2020-09-05T06:48:59Z</time>
      </trkpt>
      <trkpt lat="45.04525" lon="6.1355">
        <ele>1029.6</ele>
        <time>2020-09-05T06:49:00Z</time>
      </trkpt>
      <trkpt lat="45.04522" lon="6.13556">
        <ele>1029.8</ele>
        <time>2020-09-05T06:49:01Z</time>
      </trkpt>
      <trkpt lat="45.0452" lon="6.13563">
        <ele>1030.2</ele>
        <time>2020-09-05T06:49:02Z</time>
      </trkpt>
      <trkpt lat="45.04518" lon="6.1357">
        <ele>1030.2</ele>
        <time>2020-09-05T06:49:03Z</time>
      </trkpt>
      <trkpt lat="45.04516" lon="6.13585">
        <ele>1030.2</ele>
        <time>2020-09-05T06:49:05Z</time>
      </trkpt>
      <trkpt lat="45.04516" lon="6.13599">
        <ele>1030.6</ele>
        <time>2020-09-05T06:49:07Z</time>
      </trkpt>
      <trkpt lat="45.0451" lon="6.13621">
        <ele>1030.2</ele>
        <time>2020-09-05T06:49:10Z</time>
      </trkpt>
      <trkpt lat="45.04503" lon="6.13636">
        <ele>1029.8</ele>
        <time>2020-09-05T06:49:12Z</time>
      </trkpt>
      <trkpt lat="45.04504" lon="6.13655">
        <ele>1029.4</ele>
        <time>2020-09-05T06:49:14Z</time>
      </trkpt>
      <trkpt lat="45.04504" lon="6.1367">
        <ele>1029.2</ele>
        <time>2020-09-05T06:49:16Z</time>
      </trkpt>
      <trkpt lat="45.04505" lon="6.13684">
        <ele>1029</ele>
        <time>2020-09-05T06:49:18Z</time>
      </trkpt>
      <trkpt lat="45.04506" lon="6.1369">
        <ele>1029</ele>
        <time>2020-09-05T06:49:19Z</time>
      </trkpt>
      <trkpt lat="45.04508" lon="6.13696">
        <ele>1029.2</ele>
        <time>2020-09-05T06:49:20Z</time>
      </trkpt>
      <trkpt lat="45.04509" lon="6.13702">
        <ele>1029</ele>
        <time>2020-09-05T06:49:21Z</time>
      </trkpt>
      <trkpt lat="45.04511" lon="6.13707">
        <ele>1029</ele>
        <time>2020-09-05T06:49:22Z</time>
      </trkpt>
      <trkpt lat="45.04512" lon="6.13713">
        <ele>1029.2</ele>
        <time>2020-09-05T06:49:23Z</time>
      </trkpt>
      <trkpt lat="45.04514" lon="6.13717">
        <ele>1029</ele>
        <time>2020-09-05T06:49:24Z</time>
      </trkpt>
      <trkpt lat="45.04515" lon="6.13722">
        <ele>1029</ele>
        <time>2020-09-05T06:49:25Z</time>
      </trkpt>
      <trkpt lat="45.04517" lon="6.13726">
        <ele>1029</ele>
        <time>2020-09-05T06:49:26Z</time>
      </trkpt>
      <trkpt lat="45.04519" lon="6.1373">
        <ele>1029.2</ele>
        <time>2020-09-05T06:49:27Z</time>
      </trkpt>
      <trkpt lat="45.04521" lon="6.13734">
        <ele>1029</ele>
        <time>2020-09-05T06:49:28Z</time>
      </trkpt>
      <trkpt lat="45.04523" lon="6.13737">
        <ele>1029.2</ele>
        <time>2020-09-05T06:49:29Z</time>
      </trkpt>
      <trkpt lat="45.04526" lon="6.13739">
        <ele>1029.2</ele>
        <time>2020-09-05T06:49:30Z</time>
      </trkpt>
      <trkpt lat="45.04528" lon="6.13742">
        <ele>1029.4</ele>
        <time>2020-09-05T06:49:31Z</time>
      </trkpt>
      <trkpt lat="45.04529" lon="6.13745">
        <ele>1029.2</ele>
        <time>2020-09-05T06:49:32Z</time>
      </trkpt>
      <trkpt lat="45.04531" lon="6.13748">
        <ele>1029.2</ele>
        <time>2020-09-05T06:49:33Z</time>
      </trkpt>
      <trkpt lat="45.04533" lon="6.1375">
        <ele>1029.4</ele>
        <time>2020-09-05T06:49:34Z</time>
      </trkpt>
      <trkpt lat="45.04534" lon="6.13752">
        <ele>1029.4</ele>
        <time>2020-09-05T06:49:35Z</time>
      </trkpt>
      <trkpt lat="45.04537" lon="6.13755">
        <ele>1029.4</ele>
        <time>2020-09-05T06:49:36Z</time>
      </trkpt>
      <trkpt lat="45.04539" lon="6.13758">
        <ele>1029.4</ele>
        <time>2020-09-05T06:49:37Z</time>
      </trkpt>
      <trkpt lat="45.04541" lon="6.1376">
        <ele>1029.4</ele>
        <time>2020-09-05T06:49:38Z</time>
      </trkpt>
      <trkpt lat="45.04543" lon="6.13763">
        <ele>1029.4</ele>
        <time>2020-09-05T06:49:39Z</time>
      </trkpt>
      <trkpt lat="45.04546" lon="6.13766">
        <ele>1029.4</ele>
        <time>2020-09-05T06:49:40Z</time>
      </trkpt>
      <trkpt lat="45.04549" lon="6.13768">
        <ele>1029.4</ele>
        <time>2020-09-05T06:49:41Z</time>
      </trkpt>
      <trkpt lat="45.04552" lon="6.13771">
        <ele>1029.4</ele>
        <time>2020-09-05T06:49:42Z</time>
      </trkpt>
      <trkpt lat="45.04555" lon="6.13773">
        <ele>1029.4</ele>
        <time>2020-09-05T06:49:43Z</time>
      </trkpt>
      <trkpt lat="45.04558" lon="6.13775">
        <ele>1029.6</ele>
        <time>2020-09-05T06:49:44Z</time>
      </trkpt>
      <trkpt lat="45.04561" lon="6.13777">
        <ele>1029.6</ele>
        <time>2020-09-05T06:49:45Z</time>
      </trkpt>
      <trkpt lat="45.04564" lon="6.13778">
        <ele>1029.6</ele>
        <time>2020-09-05T06:49:46Z</time>
      </trkpt>
      <trkpt lat="45.04567" lon="6.1378">
        <ele>1029.6</ele>
        <time>2020-09-05T06:49:47Z</time>
      </trkpt>
      <trkpt lat="45.0457" lon="6.13782">
        <ele>1029.8</ele>
        <time>2020-09-05T06:49:48Z</time>
      </trkpt>
      <trkpt lat="45.04573" lon="6.13784">
        <ele>1029.6</ele>
        <time>2020-09-05T06:49:49Z</time>
      </trkpt>
      <trkpt lat="45.04576" lon="6.13785">
        <ele>1030</ele>
        <time>2020-09-05T06:49:50Z</time>
      </trkpt>
      <trkpt lat="45.04579" lon="6.13786">
        <ele>1030</ele>
        <time>2020-09-05T06:49:51Z</time>
      </trkpt>
      <trkpt lat="45.04582" lon="6.13786">
        <ele>1030</ele>
        <time>2020-09-05T06:49:52Z</time>
      </trkpt>
      <trkpt lat="45.04585" lon="6.13787">
        <ele>1030</ele>
        <time>2020-09-05T06:49:53Z</time>
      </trkpt>
      <trkpt lat="45.04588" lon="6.13788">
        <ele>1030</ele>
        <time>2020-09-05T06:49:54Z</time>
      </trkpt>
      <trkpt lat="45.04592" lon="6.13788">
        <ele>1029.8</ele>
        <time>2020-09-05T06:49:55Z</time>
      </trkpt>
      <trkpt lat="45.04595" lon="6.13789">
        <ele>1029.8</ele>
        <time>2020-09-05T06:49:56Z</time>
      </trkpt>
      <trkpt lat="45.04599" lon="6.1379">
        <ele>1029.8</ele>
        <time>2020-09-05T06:49:57Z</time>
      </trkpt>
      <trkpt lat="45.04602" lon="6.13791">
        <ele>1030</ele>
        <time>2020-09-05T06:49:58Z</time>
      </trkpt>
      <trkpt lat="45.04606" lon="6.13791">
        <ele>1029.8</ele>
        <time>2020-09-05T06:49:59Z</time>
      </trkpt>
      <trkpt lat="45.04609" lon="6.13792">
        <ele>1029.8</ele>
        <time>2020-09-05T06:50:00Z</time>
      </trkpt>
      <trkpt lat="45.04613" lon="6.13792">
        <ele>1029.6</ele>
        <time>2020-09-05T06:50:01Z</time>
      </trkpt>
      <trkpt lat="45.04617" lon="6.13793">
        <ele>1029.8</ele>
        <time>2020-09-05T06:50:02Z</time>
      </trkpt>
      <trkpt lat="45.0462" lon="6.13793">
        <ele>1029.8</ele>
        <time>2020-09-05T06:50:03Z</time>
      </trkpt>
      <trkpt lat="45.04624" lon="6.13794">
        <ele>1029.8</ele>
        <time>2020-09-05T06:50:04Z</time>
      </trkpt>
      <trkpt lat="45.04627" lon="6.13795">
        <ele>1029.8</ele>
        <time>2020-09-05T06:50:05Z</time>
      </trkpt>
      <trkpt lat="45.04631" lon="6.13795">
        <ele>1029.8</ele>
        <time>2020-09-05T06:50:06Z</time>
      </trkpt>
      <trkpt lat="45.04634" lon="6.13796">
        <ele>1029.6</ele>
        <time>2020-09-05T06:50:07Z</time>
      </trkpt>
      <trkpt lat="45.04638" lon="6.13797">
        <ele>1029.4</ele>
        <time>2020-09-05T06:50:08Z</time>
      </trkpt>
      <trkpt lat="45.04642" lon="6.13797">
        <ele>1029.2</ele>
        <time>2020-09-05T06:50:09Z</time>
      </trkpt>
      <trkpt lat="45.04645" lon="6.13798">
        <ele>1029</ele>
        <time>2020-09-05T06:50:10Z</time>
      </trkpt>
      <trkpt lat="45.04649" lon="6.13798">
        <ele>1029.2</ele>
        <time>2020-09-05T06:50:11Z</time>
      </trkpt>
      <trkpt lat="45.04652" lon="6.13798">
        <ele>1029.2</ele>
        <time>2020-09-05T06:50:12Z</time>
      </trkpt>
      <trkpt lat="45.04656" lon="6.13799">
        <ele>1029.2</ele>
        <time>2020-09-05T06:50:13Z</time>
      </trkpt>
      <trkpt lat="45.0466" lon="6.138">
        <ele>1029.2</ele>
        <time>2020-09-05T06:50:14Z</time>
      </trkpt>
      <trkpt lat="45.04664" lon="6.13801">
        <ele>1029.4</ele>
        <time>2020-09-05T06:50:15Z</time>
      </trkpt>
      <trkpt lat="45.04668" lon="6.13802">
        <ele>1029.6</ele>
        <time>2020-09-05T06:50:16Z</time>
      </trkpt>
      <trkpt lat="45.04672" lon="6.13803">
        <ele>1029.6</ele>
        <time>2020-09-05T06:50:17Z</time>
      </trkpt>
      <trkpt lat="45.04676" lon="6.13803">
        <ele>1029.6</ele>
        <time>2020-09-05T06:50:18Z</time>
      </trkpt>
      <trkpt lat="45.0468" lon="6.13804">
        <ele>1029.2</ele>
        <time>2020-09-05T06:50:19Z</time>
      </trkpt>
      <trkpt lat="45.04684" lon="6.13805">
        <ele>1029.2</ele>
        <time>2020-09-05T06:50:20Z</time>
      </trkpt>
      <trkpt lat="45.04688" lon="6.13807">
        <ele>1029.2</ele>
        <time>2020-09-05T06:50:21Z</time>
      </trkpt>
      <trkpt lat="45.04692" lon="6.13809">
        <ele>1029</ele>
        <time>2020-09-05T06:50:22Z</time>
      </trkpt>
      <trkpt lat="45.04696" lon="6.13812">
        <ele>1028.8</ele>
        <time>2020-09-05T06:50:23Z</time>
      </trkpt>
      <trkpt lat="45.047" lon="6.13816">
        <ele>1029</ele>
        <time>2020-09-05T06:50:24Z</time>
      </trkpt>
      <trkpt lat="45.04703" lon="6.1382">
        <ele>1028.8</ele>
        <time>2020-09-05T06:50:25Z</time>
      </trkpt>
      <trkpt lat="45.04705" lon="6.13826">
        <ele>1028.8</ele>
        <time>2020-09-05T06:50:26Z</time>
      </trkpt>
      <trkpt lat="45.04706" lon="6.13831">
        <ele>1028.8</ele>
        <time>2020-09-05T06:50:27Z</time>
      </trkpt>
      <trkpt lat="45.04707" lon="6.13837">
        <ele>1029.2</ele>
        <time>2020-09-05T06:50:28Z</time>
      </trkpt>
      <trkpt lat="45.04707" lon="6.13843">
        <ele>1029.2</ele>
        <time>2020-09-05T06:50:29Z</time>
      </trkpt>
      <trkpt lat="45.04707" lon="6.1385">
        <ele>1029.2</ele>
        <time>2020-09-05T06:50:30Z</time>
      </trkpt>
      <trkpt lat="45.04707" lon="6.13856">
        <ele>1029.6</ele>
        <time>2020-09-05T06:50:31Z</time>
      </trkpt>
      <trkpt lat="45.04707" lon="6.13862">
        <ele>1029.8</ele>
        <time>2020-09-05T06:50:32Z</time>
      </trkpt>
      <trkpt lat="45.04707" lon="6.13869">
        <ele>1030</ele>
        <time>2020-09-05T06:50:33Z</time>
      </trkpt>
      <trkpt lat="45.04708" lon="6.13875">
        <ele>1030.2</ele>
        <time>2020-09-05T06:50:34Z</time>
      </trkpt>
      <trkpt lat="45.04709" lon="6.13882">
        <ele>1030.8</ele>
        <time>2020-09-05T06:50:35Z</time>
      </trkpt>
      <trkpt lat="45.04711" lon="6.13888">
        <ele>1031</ele>
        <time>2020-09-05T06:50:36Z</time>
      </trkpt>
      <trkpt lat="45.04713" lon="6.13895">
        <ele>1031.2</ele>
        <time>2020-09-05T06:50:37Z</time>
      </trkpt>
      <trkpt lat="45.04715" lon="6.13901">
        <ele>1031.6</ele>
        <time>2020-09-05T06:50:38Z</time>
      </trkpt>
      <trkpt lat="45.04717" lon="6.13906">
        <ele>1032</ele>
        <time>2020-09-05T06:50:39Z</time>
      </trkpt>
      <trkpt lat="45.04719" lon="6.13912">
        <ele>1032</ele>
        <time>2020-09-05T06:50:40Z</time>
      </trkpt>
      <trkpt lat="45.04722" lon="6.13918">
        <ele>1032.4</ele>
        <time>2020-09-05T06:50:41Z</time>
      </trkpt>
      <trkpt lat="45.04724" lon="6.13924">
        <ele>1032.6</ele>
        <time>2020-09-05T06:50:42Z</time>
      </trkpt>
      <trkpt lat="45.04727" lon="6.1393">
        <ele>1032.8</ele>
        <time>2020-09-05T06:50:43Z</time>
      </trkpt>
      <trkpt lat="45.04729" lon="6.13935">
        <ele>1033</ele>
        <time>2020-09-05T06:50:44Z</time>
      </trkpt>
      <trkpt lat="45.04732" lon="6.13941">
        <ele>1033.4</ele>
        <time>2020-09-05T06:50:45Z</time>
      </trkpt>
      <trkpt lat="45.04735" lon="6.13946">
        <ele>1033.6</ele>
        <time>2020-09-05T06:50:46Z</time>
      </trkpt>
      <trkpt lat="45.04737" lon="6.13952">
        <ele>1033.8</ele>
        <time>2020-09-05T06:50:47Z</time>
      </trkpt>
      <trkpt lat="45.0474" lon="6.13957">
        <ele>1034</ele>
        <time>2020-09-05T06:50:48Z</time>
      </trkpt>
      <trkpt lat="45.04742" lon="6.13963">
        <ele>1034.4</ele>
        <time>2020-09-05T06:50:49Z</time>
      </trkpt>
      <trkpt lat="45.04743" lon="6.13968">
        <ele>1034.6</ele>
        <time>2020-09-05T06:50:50Z</time>
      </trkpt>
      <trkpt lat="45.04744" lon="6.13974">
        <ele>1034.8</ele>
        <time>2020-09-05T06:50:51Z</time>
      </trkpt>
      <trkpt lat="45.04745" lon="6.13979">
        <ele>1035.4</ele>
        <time>2020-09-05T06:50:52Z</time>
      </trkpt>
      <trkpt lat="45.04746" lon="6.13985">
        <ele>1035.4</ele>
        <time>2020-09-05T06:50:53Z</time>
      </trkpt>
      <trkpt lat="45.04746" lon="6.1399">
        <ele>1035.8</ele>
        <time>2020-09-05T06:50:54Z</time>
      </trkpt>
      <trkpt lat="45.04746" lon="6.13995">
        <ele>1036.2</ele>
        <time>2020-09-05T06:50:55Z</time>
      </trkpt>
      <trkpt lat="45.04747" lon="6.14">
        <ele>1036.4</ele>
        <time>2020-09-05T06:50:56Z</time>
      </trkpt>
      <trkpt lat="45.04747" lon="6.14006">
        <ele>1036.8</ele>
        <time>2020-09-05T06:50:57Z</time>
      </trkpt>
      <trkpt lat="45.04747" lon="6.14011">
        <ele>1037</ele>
        <time>2020-09-05T06:50:58Z</time>
      </trkpt>
      <trkpt lat="45.04748" lon="6.14016">
        <ele>1037.4</ele>
        <time>2020-09-05T06:50:59Z</time>
      </trkpt>
      <trkpt lat="45.04748" lon="6.14022">
        <ele>1037.6</ele>
        <time>2020-09-05T06:51:00Z</time>
      </trkpt>
      <trkpt lat="45.04749" lon="6.14027">
        <ele>1037.8</ele>
        <time>2020-09-05T06:51:01Z</time>
      </trkpt>
      <trkpt lat="45.04749" lon="6.14032">
        <ele>1037.8</ele>
        <time>2020-09-05T06:51:02Z</time>
      </trkpt>
      <trkpt lat="45.0475" lon="6.14037">
        <ele>1038</ele>
        <time>2020-09-05T06:51:03Z</time>
      </trkpt>
      <trkpt lat="45.04751" lon="6.14043">
        <ele>1038.4</ele>
        <time>2020-09-05T06:51:04Z</time>
      </trkpt>
      <trkpt lat="45.04751" lon="6.14048">
        <ele>1038.4</ele>
        <time>2020-09-05T06:51:05Z</time>
      </trkpt>
      <trkpt lat="45.04752" lon="6.14053">
        <ele>1038.8</ele>
        <time>2020-09-05T06:51:06Z</time>
      </trkpt>
      <trkpt lat="45.04753" lon="6.14057">
        <ele>1038.8</ele>
        <time>2020-09-05T06:51:07Z</time>
      </trkpt>
      <trkpt lat="45.04753" lon="6.14062">
        <ele>1039</ele>
        <time>2020-09-05T06:51:08Z</time>
      </trkpt>
      <trkpt lat="45.04754" lon="6.14067">
        <ele>1039.2</ele>
        <time>2020-09-05T06:51:09Z</time>
      </trkpt>
      <trkpt lat="45.04754" lon="6.14071">
        <ele>1039.2</ele>
        <time>2020-09-05T06:51:10Z</time>
      </trkpt>
      <trkpt lat="45.04755" lon="6.14076">
        <ele>1039.4</ele>
        <time>2020-09-05T06:51:11Z</time>
      </trkpt>
      <trkpt lat="45.04756" lon="6.14081">
        <ele>1039.8</ele>
        <time>2020-09-05T06:51:12Z</time>
      </trkpt>
      <trkpt lat="45.04757" lon="6.14086">
        <ele>1040.2</ele>
        <time>2020-09-05T06:51:13Z</time>
      </trkpt>
      <trkpt lat="45.04758" lon="6.14091">
        <ele>1040.6</ele>
        <time>2020-09-05T06:51:14Z</time>
      </trkpt>
      <trkpt lat="45.04759" lon="6.14096">
        <ele>1040.8</ele>
        <time>2020-09-05T06:51:15Z</time>
      </trkpt>
      <trkpt lat="45.0476" lon="6.14101">
        <ele>1040.8</ele>
        <time>2020-09-05T06:51:16Z</time>
      </trkpt>
      <trkpt lat="45.04762" lon="6.14105">
        <ele>1041</ele>
        <time>2020-09-05T06:51:17Z</time>
      </trkpt>
      <trkpt lat="45.04765" lon="6.14107">
        <ele>1041.2</ele>
        <time>2020-09-05T06:51:18Z</time>
      </trkpt>
      <trkpt lat="45.04768" lon="6.14106">
        <ele>1041.6</ele>
        <time>2020-09-05T06:51:19Z</time>
      </trkpt>
      <trkpt lat="45.0477" lon="6.14103">
        <ele>1041.6</ele>
        <time>2020-09-05T06:51:20Z</time>
      </trkpt>
      <trkpt lat="45.04771" lon="6.14099">
        <ele>1041.8</ele>
        <time>2020-09-05T06:51:21Z</time>
      </trkpt>
      <trkpt lat="45.0477" lon="6.14096">
        <ele>1042</ele>
        <time>2020-09-05T06:51:22Z</time>
      </trkpt>
      <trkpt lat="45.0477" lon="6.14092">
        <ele>1042</ele>
        <time>2020-09-05T06:51:23Z</time>
      </trkpt>
      <trkpt lat="45.0477" lon="6.14088">
        <ele>1042.4</ele>
        <time>2020-09-05T06:51:24Z</time>
      </trkpt>
      <trkpt lat="45.0477" lon="6.14085">
        <ele>1042.6</ele>
        <time>2020-09-05T06:51:25Z</time>
      </trkpt>
      <trkpt lat="45.04769" lon="6.14082">
        <ele>1043</ele>
        <time>2020-09-05T06:51:26Z</time>
      </trkpt>
      <trkpt lat="45.04768" lon="6.14078">
        <ele>1043.2</ele>
        <time>2020-09-05T06:51:27Z</time>
      </trkpt>
      <trkpt lat="45.04768" lon="6.14075">
        <ele>1043.4</ele>
        <time>2020-09-05T06:51:28Z</time>
      </trkpt>
      <trkpt lat="45.04768" lon="6.14072">
        <ele>1043.6</ele>
        <time>2020-09-05T06:51:29Z</time>
      </trkpt>
      <trkpt lat="45.04768" lon="6.14069">
        <ele>1044</ele>
        <time>2020-09-05T06:51:30Z</time>
      </trkpt>
      <trkpt lat="45.04768" lon="6.14066">
        <ele>1044.2</ele>
        <time>2020-09-05T06:51:31Z</time>
      </trkpt>
      <trkpt lat="45.04768" lon="6.14063">
        <ele>1044.4</ele>
        <time>2020-09-05T06:51:32Z</time>
      </trkpt>
      <trkpt lat="45.04768" lon="6.1406">
        <ele>1044.8</ele>
        <time>2020-09-05T06:51:33Z</time>
      </trkpt>
      <trkpt lat="45.04768" lon="6.14057">
        <ele>1045</ele>
        <time>2020-09-05T06:51:34Z</time>
      </trkpt>
      <trkpt lat="45.04768" lon="6.14054">
        <ele>1045.2</ele>
        <time>2020-09-05T06:51:35Z</time>
      </trkpt>
      <trkpt lat="45.04769" lon="6.14051">
        <ele>1045.6</ele>
        <time>2020-09-05T06:51:36Z</time>
      </trkpt>
      <trkpt lat="45.04769" lon="6.14048">
        <ele>1046</ele>
        <time>2020-09-05T06:51:37Z</time>
      </trkpt>
      <trkpt lat="45.04769" lon="6.14045">
        <ele>1046.2</ele>
        <time>2020-09-05T06:51:38Z</time>
      </trkpt>
      <trkpt lat="45.04769" lon="6.14042">
        <ele>1046.2</ele>
        <time>2020-09-05T06:51:39Z</time>
      </trkpt>
      <trkpt lat="45.04769" lon="6.14039">
        <ele>1046.6</ele>
        <time>2020-09-05T06:51:40Z</time>
      </trkpt>
      <trkpt lat="45.04769" lon="6.14036">
        <ele>1047</ele>
        <time>2020-09-05T06:51:41Z</time>
      </trkpt>
      <trkpt lat="45.04769" lon="6.14034">
        <ele>1047.2</ele>
        <time>2020-09-05T06:51:42Z</time>
      </trkpt>
      <trkpt lat="45.04769" lon="6.14031">
        <ele>1047.4</ele>
        <time>2020-09-05T06:51:43Z</time>
      </trkpt>
      <trkpt lat="45.04769" lon="6.14028">
        <ele>1047.8</ele>
        <time>2020-09-05T06:51:44Z</time>
      </trkpt>
      <trkpt lat="45.04769" lon="6.14025">
        <ele>1047.8</ele>
        <time>2020-09-05T06:51:45Z</time>
      </trkpt>
      <trkpt lat="45.04768" lon="6.14022">
        <ele>1048.2</ele>
        <time>2020-09-05T06:51:46Z</time>
      </trkpt>
      <trkpt lat="45.04768" lon="6.14019">
        <ele>1048.6</ele>
        <time>2020-09-05T06:51:47Z</time>
      </trkpt>
      <trkpt lat="45.04768" lon="6.14016">
        <ele>1048.8</ele>
        <time>2020-09-05T06:51:48Z</time>
      </trkpt>
      <trkpt lat="45.04768" lon="6.14013">
        <ele>1049.2</ele>
        <time>2020-09-05T06:51:49Z</time>
      </trkpt>
      <trkpt lat="45.04768" lon="6.1401">
        <ele>1049.4</ele>
        <time>2020-09-05T06:51:50Z</time>
      </trkpt>
      <trkpt lat="45.04768" lon="6.14007">
        <ele>1049.6</ele>
        <time>2020-09-05T06:51:51Z</time>
      </trkpt>
      <trkpt lat="45.04768" lon="6.14004">
        <ele>1050</ele>
        <time>2020-09-05T06:51:52Z</time>
      </trkpt>
      <trkpt lat="45.04768" lon="6.14002">
        <ele>1050</ele>
        <time>2020-09-05T06:51:53Z</time>
      </trkpt>
      <trkpt lat="45.04768" lon="6.13999">
        <ele>1050.4</ele>
        <time>2020-09-05T06:51:54Z</time>
      </trkpt>
      <trkpt lat="45.04768" lon="6.13996">
        <ele>1050.6</ele>
        <time>2020-09-05T06:51:55Z</time>
      </trkpt>
      <trkpt lat="45.04768" lon="6.13993">
        <ele>1051</ele>
        <time>2020-09-05T06:51:56Z</time>
      </trkpt>
      <trkpt lat="45.04768" lon="6.1399">
        <ele>1051.4</ele>
        <time>2020-09-05T06:51:57Z</time>
      </trkpt>
      <trkpt lat="45.04769" lon="6.13987">
        <ele>1051.8</ele>
        <time>2020-09-05T06:51:58Z</time>
      </trkpt>
      <trkpt lat="45.04769" lon="6.13985">
        <ele>1051.8</ele>
        <time>2020-09-05T06:51:59Z</time>
      </trkpt>
      <trkpt lat="45.04769" lon="6.13982">
        <ele>1052</ele>
        <time>2020-09-05T06:52:00Z</time>
      </trkpt>
      <trkpt lat="45.04769" lon="6.13979">
        <ele>1052.2</ele>
        <time>2020-09-05T06:52:01Z</time>
      </trkpt>
      <trkpt lat="45.04769" lon="6.13976">
        <ele>1052.6</ele>
        <time>2020-09-05T06:52:02Z</time>
      </trkpt>
      <trkpt lat="45.04769" lon="6.13973">
        <ele>1052.8</ele>
        <time>2020-09-05T06:52:03Z</time>
      </trkpt>
      <trkpt lat="45.04769" lon="6.1397">
        <ele>1053</ele>
        <time>2020-09-05T06:52:04Z</time>
      </trkpt>
      <trkpt lat="45.04769" lon="6.13968">
        <ele>1053.2</ele>
        <time>2020-09-05T06:52:05Z</time>
      </trkpt>
      <trkpt lat="45.04769" lon="6.13965">
        <ele>1053.6</ele>
        <time>2020-09-05T06:52:06Z</time>
      </trkpt>
      <trkpt lat="45.04769" lon="6.13962">
        <ele>1053.8</ele>
        <time>2020-09-05T06:52:07Z</time>
      </trkpt>
      <trkpt lat="45.04768" lon="6.13957">
        <ele>1054.2</ele>
        <time>2020-09-05T06:52:09Z</time>
      </trkpt>
      <trkpt lat="45.04768" lon="6.13955">
        <ele>1054.6</ele>
        <time>2020-09-05T06:52:10Z</time>
      </trkpt>
      <trkpt lat="45.04768" lon="6.13952">
        <ele>1055</ele>
        <time>2020-09-05T06:52:11Z</time>
      </trkpt>
      <trkpt lat="45.04768" lon="6.13949">
        <ele>1055.2</ele>
        <time>2020-09-05T06:52:12Z</time>
      </trkpt>
      <trkpt lat="45.04768" lon="6.13946">
        <ele>1055.6</ele>
        <time>2020-09-05T06:52:13Z</time>
      </trkpt>
      <trkpt lat="45.04768" lon="6.13943">
        <ele>1056</ele>
        <time>2020-09-05T06:52:14Z</time>
      </trkpt>
      <trkpt lat="45.04767" lon="6.1394">
        <ele>1056.2</ele>
        <time>2020-09-05T06:52:15Z</time>
      </trkpt>
      <trkpt lat="45.04767" lon="6.13937">
        <ele>1056.4</ele>
        <time>2020-09-05T06:52:16Z</time>
      </trkpt>
      <trkpt lat="45.04766" lon="6.13935">
        <ele>1056.8</ele>
        <time>2020-09-05T06:52:17Z</time>
      </trkpt>
      <trkpt lat="45.04765" lon="6.13932">
        <ele>1057.4</ele>
        <time>2020-09-05T06:52:18Z</time>
      </trkpt>
      <trkpt lat="45.04765" lon="6.13929">
        <ele>1057.4</ele>
        <time>2020-09-05T06:52:19Z</time>
      </trkpt>
      <trkpt lat="45.04764" lon="6.13926">
        <ele>1057.6</ele>
        <time>2020-09-05T06:52:20Z</time>
      </trkpt>
      <trkpt lat="45.04763" lon="6.13923">
        <ele>1057.8</ele>
        <time>2020-09-05T06:52:21Z</time>
      </trkpt>
      <trkpt lat="45.04762" lon="6.1392">
        <ele>1058</ele>
        <time>2020-09-05T06:52:22Z</time>
      </trkpt>
      <trkpt lat="45.04761" lon="6.13918">
        <ele>1058.2</ele>
        <time>2020-09-05T06:52:23Z</time>
      </trkpt>
      <trkpt lat="45.0476" lon="6.13915">
        <ele>1058.8</ele>
        <time>2020-09-05T06:52:24Z</time>
      </trkpt>
      <trkpt lat="45.0476" lon="6.13912">
        <ele>1059.2</ele>
        <time>2020-09-05T06:52:25Z</time>
      </trkpt>
      <trkpt lat="45.04759" lon="6.13909">
        <ele>1059.2</ele>
        <time>2020-09-05T06:52:26Z</time>
      </trkpt>
      <trkpt lat="45.04758" lon="6.13906">
        <ele>1059.4</ele>
        <time>2020-09-05T06:52:27Z</time>
      </trkpt>
      <trkpt lat="45.04757" lon="6.13903">
        <ele>1059.8</ele>
        <time>2020-09-05T06:52:28Z</time>
      </trkpt>
      <trkpt lat="45.04757" lon="6.13901">
        <ele>1060.2</ele>
        <time>2020-09-05T06:52:29Z</time>
      </trkpt>
      <trkpt lat="45.04756" lon="6.13898">
        <ele>1060.4</ele>
        <time>2020-09-05T06:52:30Z</time>
      </trkpt>
      <trkpt lat="45.04755" lon="6.13895">
        <ele>1060.6</ele>
        <time>2020-09-05T06:52:31Z</time>
      </trkpt>
      <trkpt lat="45.04755" lon="6.13892">
        <ele>1061</ele>
        <time>2020-09-05T06:52:32Z</time>
      </trkpt>
      <trkpt lat="45.04755" lon="6.13889">
        <ele>1061.4</ele>
        <time>2020-09-05T06:52:33Z</time>
      </trkpt>
      <trkpt lat="45.04754" lon="6.13886">
        <ele>1061.6</ele>
        <time>2020-09-05T06:52:34Z</time>
      </trkpt>
      <trkpt lat="45.04754" lon="6.13883">
        <ele>1061.8</ele>
        <time>2020-09-05T06:52:35Z</time>
      </trkpt>
      <trkpt lat="45.04753" lon="6.1388">
        <ele>1062.2</ele>
        <time>2020-09-05T06:52:36Z</time>
      </trkpt>
      <trkpt lat="45.04753" lon="6.13876">
        <ele>1062.8</ele>
        <time>2020-09-05T06:52:37Z</time>
      </trkpt>
      <trkpt lat="45.04753" lon="6.13873">
        <ele>1062.8</ele>
        <time>2020-09-05T06:52:38Z</time>
      </trkpt>
      <trkpt lat="45.04753" lon="6.1387">
        <ele>1063.2</ele>
        <time>2020-09-05T06:52:39Z</time>
      </trkpt>
      <trkpt lat="45.04753" lon="6.13868">
        <ele>1063.4</ele>
        <time>2020-09-05T06:52:40Z</time>
      </trkpt>
      <trkpt lat="45.04752" lon="6.13865">
        <ele>1063.6</ele>
        <time>2020-09-05T06:52:41Z</time>
      </trkpt>
      <trkpt lat="45.04753" lon="6.13862">
        <ele>1063.8</ele>
        <time>2020-09-05T06:52:42Z</time>
      </trkpt>
      <trkpt lat="45.04753" lon="6.1386">
        <ele>1064.2</ele>
        <time>2020-09-05T06:52:43Z</time>
      </trkpt>
      <trkpt lat="45.04754" lon="6.13858">
        <ele>1064.6</ele>
        <time>2020-09-05T06:52:44Z</time>
      </trkpt>
      <trkpt lat="45.04755" lon="6.13856">
        <ele>1064.8</ele>
        <time>2020-09-05T06:52:45Z</time>
      </trkpt>
      <trkpt lat="45.04759" lon="6.13854">
        <ele>1065.6</ele>
        <time>2020-09-05T06:52:47Z</time>
      </trkpt>
      <trkpt lat="45.04762" lon="6.13856">
        <ele>1066</ele>
        <time>2020-09-05T06:52:49Z</time>
      </trkpt>
      <trkpt lat="45.04764" lon="6.13858">
        <ele>1066</ele>
        <time>2020-09-05T06:52:50Z</time>
      </trkpt>
      <trkpt lat="45.04765" lon="6.1386">
        <ele>1066.2</ele>
        <time>2020-09-05T06:52:51Z</time>
      </trkpt>
      <trkpt lat="45.04765" lon="6.13863">
        <ele>1066.4</ele>
        <time>2020-09-05T06:52:52Z</time>
      </trkpt>
      <trkpt lat="45.04766" lon="6.13866">
        <ele>1066.6</ele>
        <time>2020-09-05T06:52:53Z</time>
      </trkpt>
      <trkpt lat="45.04765" lon="6.13869">
        <ele>1066.8</ele>
        <time>2020-09-05T06:52:54Z</time>
      </trkpt>
      <trkpt lat="45.04765" lon="6.13872">
        <ele>1067</ele>
        <time>2020-09-05T06:52:55Z</time>
      </trkpt>
      <trkpt lat="45.04765" lon="6.13875">
        <ele>1067.2</ele>
        <time>2020-09-05T06:52:56Z</time>
      </trkpt>
      <trkpt lat="45.04765" lon="6.13878">
        <ele>1067.2</ele>
        <time>2020-09-05T06:52:57Z</time>
      </trkpt>
      <trkpt lat="45.04765" lon="6.13881">
        <ele>1067.4</ele>
        <time>2020-09-05T06:52:58Z</time>
      </trkpt>
      <trkpt lat="45.04765" lon="6.13884">
        <ele>1067.8</ele>
        <time>2020-09-05T06:52:59Z</time>
      </trkpt>
      <trkpt lat="45.04765" lon="6.13887">
        <ele>1068</ele>
        <time>2020-09-05T06:53:00Z</time>
      </trkpt>
      <trkpt lat="45.04765" lon="6.1389">
        <ele>1068.2</ele>
        <time>2020-09-05T06:53:01Z</time>
      </trkpt>
      <trkpt lat="45.04766" lon="6.13893">
        <ele>1068.6</ele>
        <time>2020-09-05T06:53:02Z</time>
      </trkpt>
      <trkpt lat="45.04767" lon="6.13896">
        <ele>1068.8</ele>
        <time>2020-09-05T06:53:03Z</time>
      </trkpt>
      <trkpt lat="45.04767" lon="6.13899">
        <ele>1069</ele>
        <time>2020-09-05T06:53:04Z</time>
      </trkpt>
      <trkpt lat="45.04768" lon="6.13901">
        <ele>1069.2</ele>
        <time>2020-09-05T06:53:05Z</time>
      </trkpt>
      <trkpt lat="45.0477" lon="6.13903">
        <ele>1069.4</ele>
        <time>2020-09-05T06:53:06Z</time>
      </trkpt>
      <trkpt lat="45.04771" lon="6.13906">
        <ele>1069.6</ele>
        <time>2020-09-05T06:53:07Z</time>
      </trkpt>
      <trkpt lat="45.04772" lon="6.13908">
        <ele>1069.8</ele>
        <time>2020-09-05T06:53:08Z</time>
      </trkpt>
      <trkpt lat="45.04773" lon="6.1391">
        <ele>1070</ele>
        <time>2020-09-05T06:53:09Z</time>
      </trkpt>
      <trkpt lat="45.04774" lon="6.13912">
        <ele>1070.2</ele>
        <time>2020-09-05T06:53:10Z</time>
      </trkpt>
      <trkpt lat="45.04775" lon="6.13914">
        <ele>1070.6</ele>
        <time>2020-09-05T06:53:11Z</time>
      </trkpt>
      <trkpt lat="45.04777" lon="6.13916">
        <ele>1070.8</ele>
        <time>2020-09-05T06:53:12Z</time>
      </trkpt>
      <trkpt lat="45.04778" lon="6.13918">
        <ele>1071.2</ele>
        <time>2020-09-05T06:53:13Z</time>
      </trkpt>
      <trkpt lat="45.04779" lon="6.1392">
        <ele>1071.4</ele>
        <time>2020-09-05T06:53:14Z</time>
      </trkpt>
      <trkpt lat="45.0478" lon="6.13922">
        <ele>1071.6</ele>
        <time>2020-09-05T06:53:15Z</time>
      </trkpt>
      <trkpt lat="45.04781" lon="6.13925">
        <ele>1071.8</ele>
        <time>2020-09-05T06:53:16Z</time>
      </trkpt>
      <trkpt lat="45.04784" lon="6.13928">
        <ele>1072.4</ele>
        <time>2020-09-05T06:53:18Z</time>
      </trkpt>
      <trkpt lat="45.04785" lon="6.1393">
        <ele>1072.6</ele>
        <time>2020-09-05T06:53:19Z</time>
      </trkpt>
      <trkpt lat="45.04787" lon="6.13932">
        <ele>1073</ele>
        <time>2020-09-05T06:53:20Z</time>
      </trkpt>
      <trkpt lat="45.04788" lon="6.13934">
        <ele>1073.2</ele>
        <time>2020-09-05T06:53:21Z</time>
      </trkpt>
      <trkpt lat="45.04789" lon="6.13938">
        <ele>1073.6</ele>
        <time>2020-09-05T06:53:23Z</time>
      </trkpt>
      <trkpt lat="45.0479" lon="6.13943">
        <ele>1074.2</ele>
        <time>2020-09-05T06:53:25Z</time>
      </trkpt>
      <trkpt lat="45.0479" lon="6.13946">
        <ele>1074.6</ele>
        <time>2020-09-05T06:53:26Z</time>
      </trkpt>
      <trkpt lat="45.04791" lon="6.13948">
        <ele>1074.8</ele>
        <time>2020-09-05T06:53:27Z</time>
      </trkpt>
      <trkpt lat="45.04791" lon="6.13951">
        <ele>1075</ele>
        <time>2020-09-05T06:53:28Z</time>
      </trkpt>
      <trkpt lat="45.04792" lon="6.13953">
        <ele>1075</ele>
        <time>2020-09-05T06:53:29Z</time>
      </trkpt>
      <trkpt lat="45.04792" lon="6.13956">
        <ele>1075.4</ele>
        <time>2020-09-05T06:53:30Z</time>
      </trkpt>
      <trkpt lat="45.04792" lon="6.13958">
        <ele>1075.6</ele>
        <time>2020-09-05T06:53:31Z</time>
      </trkpt>
      <trkpt lat="45.04793" lon="6.13961">
        <ele>1075.8</ele>
        <time>2020-09-05T06:53:32Z</time>
      </trkpt>
      <trkpt lat="45.04793" lon="6.13964">
        <ele>1076</ele>
        <time>2020-09-05T06:53:33Z</time>
      </trkpt>
      <trkpt lat="45.04793" lon="6.13966">
        <ele>1076.4</ele>
        <time>2020-09-05T06:53:34Z</time>
      </trkpt>
      <trkpt lat="45.04794" lon="6.13969">
        <ele>1076.6</ele>
        <time>2020-09-05T06:53:35Z</time>
      </trkpt>
      <trkpt lat="45.04794" lon="6.13972">
        <ele>1076.8</ele>
        <time>2020-09-05T06:53:36Z</time>
      </trkpt>
      <trkpt lat="45.04794" lon="6.13974">
        <ele>1077.2</ele>
        <time>2020-09-05T06:53:37Z</time>
      </trkpt>
      <trkpt lat="45.04795" lon="6.13977">
        <ele>1077.4</ele>
        <time>2020-09-05T06:53:38Z</time>
      </trkpt>
      <trkpt lat="45.04795" lon="6.1398">
        <ele>1077.4</ele>
        <time>2020-09-05T06:53:39Z</time>
      </trkpt>
      <trkpt lat="45.04796" lon="6.13982">
        <ele>1077.4</ele>
        <time>2020-09-05T06:53:40Z</time>
      </trkpt>
      <trkpt lat="45.04796" lon="6.13985">
        <ele>1077.8</ele>
        <time>2020-09-05T06:53:41Z</time>
      </trkpt>
      <trkpt lat="45.04796" lon="6.13988">
        <ele>1078.2</ele>
        <time>2020-09-05T06:53:42Z</time>
      </trkpt>
      <trkpt lat="45.04797" lon="6.1399">
        <ele>1078.4</ele>
        <time>2020-09-05T06:53:43Z</time>
      </trkpt>
      <trkpt lat="45.04798" lon="6.13993">
        <ele>1078.4</ele>
        <time>2020-09-05T06:53:44Z</time>
      </trkpt>
      <trkpt lat="45.04799" lon="6.13995">
        <ele>1078.6</ele>
        <time>2020-09-05T06:53:45Z</time>
      </trkpt>
      <trkpt lat="45.04799" lon="6.13997">
        <ele>1079</ele>
        <time>2020-09-05T06:53:46Z</time>
      </trkpt>
      <trkpt lat="45.048" lon="6.14002">
        <ele>1079.4</ele>
        <time>2020-09-05T06:53:48Z</time>
      </trkpt>
      <trkpt lat="45.04801" lon="6.14007">
        <ele>1079.8</ele>
        <time>2020-09-05T06:53:50Z</time>
      </trkpt>
      <trkpt lat="45.04801" lon="6.1401">
        <ele>1080.2</ele>
        <time>2020-09-05T06:53:51Z</time>
      </trkpt>
      <trkpt lat="45.04802" lon="6.14012">
        <ele>1080.4</ele>
        <time>2020-09-05T06:53:52Z</time>
      </trkpt>
      <trkpt lat="45.04802" lon="6.14015">
        <ele>1080.8</ele>
        <time>2020-09-05T06:53:53Z</time>
      </trkpt>
      <trkpt lat="45.04803" lon="6.14017">
        <ele>1081</ele>
        <time>2020-09-05T06:53:54Z</time>
      </trkpt>
      <trkpt lat="45.04804" lon="6.1402">
        <ele>1081.2</ele>
        <time>2020-09-05T06:53:55Z</time>
      </trkpt>
      <trkpt lat="45.04806" lon="6.14024">
        <ele>1081.6</ele>
        <time>2020-09-05T06:53:57Z</time>
      </trkpt>
      <trkpt lat="45.04807" lon="6.14027">
        <ele>1082</ele>
        <time>2020-09-05T06:53:58Z</time>
      </trkpt>
      <trkpt lat="45.04807" lon="6.14029">
        <ele>1082.2</ele>
        <time>2020-09-05T06:53:59Z</time>
      </trkpt>
      <trkpt lat="45.04808" lon="6.14032">
        <ele>1082.6</ele>
        <time>2020-09-05T06:54:00Z</time>
      </trkpt>
      <trkpt lat="45.04809" lon="6.14034">
        <ele>1082.8</ele>
        <time>2020-09-05T06:54:01Z</time>
      </trkpt>
      <trkpt lat="45.04809" lon="6.14037">
        <ele>1083</ele>
        <time>2020-09-05T06:54:02Z</time>
      </trkpt>
      <trkpt lat="45.0481" lon="6.1404">
        <ele>1083.4</ele>
        <time>2020-09-05T06:54:03Z</time>
      </trkpt>
      <trkpt lat="45.04811" lon="6.14042">
        <ele>1083.8</ele>
        <time>2020-09-05T06:54:04Z</time>
      </trkpt>
      <trkpt lat="45.04812" lon="6.14045">
        <ele>1084</ele>
        <time>2020-09-05T06:54:05Z</time>
      </trkpt>
      <trkpt lat="45.04814" lon="6.14045">
        <ele>1084.2</ele>
        <time>2020-09-05T06:54:07Z</time>
      </trkpt>
      <trkpt lat="45.04814" lon="6.1404">
        <ele>1084.2</ele>
        <time>2020-09-05T06:54:09Z</time>
      </trkpt>
      <trkpt lat="45.04812" lon="6.14038">
        <ele>1083.8</ele>
        <time>2020-09-05T06:54:11Z</time>
      </trkpt>
      <trkpt lat="45.04812" lon="6.14043">
        <ele>1084.4</ele>
        <time>2020-09-05T06:54:13Z</time>
      </trkpt>
      <trkpt lat="45.04812" lon="6.14047">
        <ele>1084.6</ele>
        <time>2020-09-05T06:54:14Z</time>
      </trkpt>
      <trkpt lat="45.04812" lon="6.1405">
        <ele>1084.8</ele>
        <time>2020-09-05T06:54:15Z</time>
      </trkpt>
      <trkpt lat="45.04812" lon="6.14053">
        <ele>1084.8</ele>
        <time>2020-09-05T06:54:16Z</time>
      </trkpt>
      <trkpt lat="45.04812" lon="6.14056">
        <ele>1085</ele>
        <time>2020-09-05T06:54:17Z</time>
      </trkpt>
      <trkpt lat="45.04812" lon="6.14059">
        <ele>1085.4</ele>
        <time>2020-09-05T06:54:18Z</time>
      </trkpt>
      <trkpt lat="45.04813" lon="6.14062">
        <ele>1085.6</ele>
        <time>2020-09-05T06:54:19Z</time>
      </trkpt>
      <trkpt lat="45.04813" lon="6.14065">
        <ele>1086</ele>
        <time>2020-09-05T06:54:20Z</time>
      </trkpt>
      <trkpt lat="45.04813" lon="6.14068">
        <ele>1086</ele>
        <time>2020-09-05T06:54:21Z</time>
      </trkpt>
      <trkpt lat="45.04813" lon="6.14071">
        <ele>1086.2</ele>
        <time>2020-09-05T06:54:22Z</time>
      </trkpt>
      <trkpt lat="45.04814" lon="6.14074">
        <ele>1086.8</ele>
        <time>2020-09-05T06:54:23Z</time>
      </trkpt>
      <trkpt lat="45.04813" lon="6.14077">
        <ele>1087</ele>
        <time>2020-09-05T06:54:24Z</time>
      </trkpt>
      <trkpt lat="45.04813" lon="6.1408">
        <ele>1087.2</ele>
        <time>2020-09-05T06:54:25Z</time>
      </trkpt>
      <trkpt lat="45.04813" lon="6.14083">
        <ele>1087.2</ele>
        <time>2020-09-05T06:54:26Z</time>
      </trkpt>
      <trkpt lat="45.04812" lon="6.14086">
        <ele>1087.4</ele>
        <time>2020-09-05T06:54:27Z</time>
      </trkpt>
      <trkpt lat="45.04812" lon="6.14089">
        <ele>1087.8</ele>
        <time>2020-09-05T06:54:28Z</time>
      </trkpt>
      <trkpt lat="45.04812" lon="6.14092">
        <ele>1088</ele>
        <time>2020-09-05T06:54:29Z</time>
      </trkpt>
      <trkpt lat="45.04813" lon="6.14095">
        <ele>1088.2</ele>
        <time>2020-09-05T06:54:30Z</time>
      </trkpt>
      <trkpt lat="45.04813" lon="6.14097">
        <ele>1088.6</ele>
        <time>2020-09-05T06:54:31Z</time>
      </trkpt>
      <trkpt lat="45.04813" lon="6.141">
        <ele>1089</ele>
        <time>2020-09-05T06:54:32Z</time>
      </trkpt>
      <trkpt lat="45.04813" lon="6.14103">
        <ele>1089.2</ele>
        <time>2020-09-05T06:54:33Z</time>
      </trkpt>
      <trkpt lat="45.04814" lon="6.14106">
        <ele>1089.8</ele>
        <time>2020-09-05T06:54:34Z</time>
      </trkpt>
      <trkpt lat="45.04815" lon="6.14109">
        <ele>1090</ele>
        <time>2020-09-05T06:54:35Z</time>
      </trkpt>
      <trkpt lat="45.04815" lon="6.14111">
        <ele>1090.2</ele>
        <time>2020-09-05T06:54:36Z</time>
      </trkpt>
      <trkpt lat="45.04816" lon="6.14116">
        <ele>1090.2</ele>
        <time>2020-09-05T06:54:38Z</time>
      </trkpt>
      <trkpt lat="45.04817" lon="6.1412">
        <ele>1090.8</ele>
        <time>2020-09-05T06:54:40Z</time>
      </trkpt>
      <trkpt lat="45.04818" lon="6.14123">
        <ele>1091.2</ele>
        <time>2020-09-05T06:54:41Z</time>
      </trkpt>
      <trkpt lat="45.04819" lon="6.14125">
        <ele>1091.6</ele>
        <time>2020-09-05T06:54:42Z</time>
      </trkpt>
      <trkpt lat="45.0482" lon="6.14127">
        <ele>1091.8</ele>
        <time>2020-09-05T06:54:43Z</time>
      </trkpt>
      <trkpt lat="45.04821" lon="6.1413">
        <ele>1092</ele>
        <time>2020-09-05T06:54:44Z</time>
      </trkpt>
      <trkpt lat="45.04822" lon="6.14132">
        <ele>1092.2</ele>
        <time>2020-09-05T06:54:45Z</time>
      </trkpt>
      <trkpt lat="45.04823" lon="6.14135">
        <ele>1092.2</ele>
        <time>2020-09-05T06:54:46Z</time>
      </trkpt>
      <trkpt lat="45.04824" lon="6.14137">
        <ele>1092.6</ele>
        <time>2020-09-05T06:54:47Z</time>
      </trkpt>
      <trkpt lat="45.04825" lon="6.14139">
        <ele>1092.8</ele>
        <time>2020-09-05T06:54:48Z</time>
      </trkpt>
      <trkpt lat="45.04826" lon="6.14141">
        <ele>1093.2</ele>
        <time>2020-09-05T06:54:49Z</time>
      </trkpt>
      <trkpt lat="45.04827" lon="6.14143">
        <ele>1093.4</ele>
        <time>2020-09-05T06:54:50Z</time>
      </trkpt>
      <trkpt lat="45.04829" lon="6.14144">
        <ele>1093.6</ele>
        <time>2020-09-05T06:54:51Z</time>
      </trkpt>
      <trkpt lat="45.04831" lon="6.14146">
        <ele>1093.8</ele>
        <time>2020-09-05T06:54:52Z</time>
      </trkpt>
      <trkpt lat="45.04832" lon="6.14148">
        <ele>1094</ele>
        <time>2020-09-05T06:54:53Z</time>
      </trkpt>
      <trkpt lat="45.04834" lon="6.14152">
        <ele>1094.4</ele>
        <time>2020-09-05T06:54:55Z</time>
      </trkpt>
      <trkpt lat="45.04836" lon="6.14156">
        <ele>1095</ele>
        <time>2020-09-05T06:54:57Z</time>
      </trkpt>
      <trkpt lat="45.04837" lon="6.14158">
        <ele>1095</ele>
        <time>2020-09-05T06:54:58Z</time>
      </trkpt>
      <trkpt lat="45.04838" lon="6.14161">
        <ele>1095.2</ele>
        <time>2020-09-05T06:54:59Z</time>
      </trkpt>
      <trkpt lat="45.04839" lon="6.14163">
        <ele>1095.6</ele>
        <time>2020-09-05T06:55:00Z</time>
      </trkpt>
      <trkpt lat="45.0484" lon="6.14165">
        <ele>1095.8</ele>
        <time>2020-09-05T06:55:01Z</time>
      </trkpt>
      <trkpt lat="45.04841" lon="6.1417">
        <ele>1096.4</ele>
        <time>2020-09-05T06:55:03Z</time>
      </trkpt>
      <trkpt lat="45.04842" lon="6.14172">
        <ele>1096.6</ele>
        <time>2020-09-05T06:55:04Z</time>
      </trkpt>
      <trkpt lat="45.04842" lon="6.14174">
        <ele>1096.8</ele>
        <time>2020-09-05T06:55:05Z</time>
      </trkpt>
      <trkpt lat="45.04843" lon="6.14177">
        <ele>1097</ele>
        <time>2020-09-05T06:55:06Z</time>
      </trkpt>
      <trkpt lat="45.04844" lon="6.14179">
        <ele>1097.2</ele>
        <time>2020-09-05T06:55:07Z</time>
      </trkpt>
      <trkpt lat="45.04845" lon="6.14182">
        <ele>1097.4</ele>
        <time>2020-09-05T06:55:08Z</time>
      </trkpt>
      <trkpt lat="45.04846" lon="6.14184">
        <ele>1097.6</ele>
        <time>2020-09-05T06:55:09Z</time>
      </trkpt>
      <trkpt lat="45.04847" lon="6.14186">
        <ele>1097.8</ele>
        <time>2020-09-05T06:55:10Z</time>
      </trkpt>
      <trkpt lat="45.04848" lon="6.14189">
        <ele>1098</ele>
        <time>2020-09-05T06:55:11Z</time>
      </trkpt>
      <trkpt lat="45.04849" lon="6.14191">
        <ele>1098.2</ele>
        <time>2020-09-05T06:55:12Z</time>
      </trkpt>
      <trkpt lat="45.0485" lon="6.14193">
        <ele>1098.6</ele>
        <time>2020-09-05T06:55:13Z</time>
      </trkpt>
      <trkpt lat="45.04851" lon="6.14195">
        <ele>1099</ele>
        <time>2020-09-05T06:55:14Z</time>
      </trkpt>
      <trkpt lat="45.04851" lon="6.14198">
        <ele>1099.4</ele>
        <time>2020-09-05T06:55:15Z</time>
      </trkpt>
      <trkpt lat="45.04852" lon="6.142">
        <ele>1099.8</ele>
        <time>2020-09-05T06:55:16Z</time>
      </trkpt>
      <trkpt lat="45.04853" lon="6.14202">
        <ele>1100</ele>
        <time>2020-09-05T06:55:17Z</time>
      </trkpt>
      <trkpt lat="45.04854" lon="6.14205">
        <ele>1100.2</ele>
        <time>2020-09-05T06:55:18Z</time>
      </trkpt>
      <trkpt lat="45.04855" lon="6.14207">
        <ele>1100.6</ele>
        <time>2020-09-05T06:55:19Z</time>
      </trkpt>
      <trkpt lat="45.04855" lon="6.1421">
        <ele>1100.6</ele>
        <time>2020-09-05T06:55:20Z</time>
      </trkpt>
      <trkpt lat="45.04856" lon="6.14212">
        <ele>1100.8</ele>
        <time>2020-09-05T06:55:21Z</time>
      </trkpt>
      <trkpt lat="45.04857" lon="6.14215">
        <ele>1101</ele>
        <time>2020-09-05T06:55:22Z</time>
      </trkpt>
      <trkpt lat="45.04857" lon="6.14217">
        <ele>1101.2</ele>
        <time>2020-09-05T06:55:23Z</time>
      </trkpt>
      <trkpt lat="45.04858" lon="6.1422">
        <ele>1101.6</ele>
        <time>2020-09-05T06:55:24Z</time>
      </trkpt>
      <trkpt lat="45.04859" lon="6.14223">
        <ele>1101.8</ele>
        <time>2020-09-05T06:55:25Z</time>
      </trkpt>
      <trkpt lat="45.0486" lon="6.14225">
        <ele>1101.8</ele>
        <time>2020-09-05T06:55:26Z</time>
      </trkpt>
      <trkpt lat="45.0486" lon="6.14228">
        <ele>1102</ele>
        <time>2020-09-05T06:55:27Z</time>
      </trkpt>
      <trkpt lat="45.04861" lon="6.1423">
        <ele>1102.4</ele>
        <time>2020-09-05T06:55:28Z</time>
      </trkpt>
      <trkpt lat="45.04862" lon="6.14233">
        <ele>1102.6</ele>
        <time>2020-09-05T06:55:29Z</time>
      </trkpt>
      <trkpt lat="45.04862" lon="6.14235">
        <ele>1103</ele>
        <time>2020-09-05T06:55:30Z</time>
      </trkpt>
      <trkpt lat="45.04862" lon="6.14238">
        <ele>1103.4</ele>
        <time>2020-09-05T06:55:31Z</time>
      </trkpt>
      <trkpt lat="45.04863" lon="6.1424">
        <ele>1103.6</ele>
        <time>2020-09-05T06:55:32Z</time>
      </trkpt>
      <trkpt lat="45.04864" lon="6.14243">
        <ele>1104</ele>
        <time>2020-09-05T06:55:33Z</time>
      </trkpt>
      <trkpt lat="45.04865" lon="6.14245">
        <ele>1104.2</ele>
        <time>2020-09-05T06:55:34Z</time>
      </trkpt>
      <trkpt lat="45.04866" lon="6.14248">
        <ele>1104.6</ele>
        <time>2020-09-05T06:55:35Z</time>
      </trkpt>
      <trkpt lat="45.04866" lon="6.1425">
        <ele>1104.8</ele>
        <time>2020-09-05T06:55:36Z</time>
      </trkpt>
      <trkpt lat="45.04867" lon="6.14253">
        <ele>1105.2</ele>
        <time>2020-09-05T06:55:37Z</time>
      </trkpt>
      <trkpt lat="45.04868" lon="6.14256">
        <ele>1105.4</ele>
        <time>2020-09-05T06:55:38Z</time>
      </trkpt>
      <trkpt lat="45.04869" lon="6.14258">
        <ele>1105.6</ele>
        <time>2020-09-05T06:55:39Z</time>
      </trkpt>
      <trkpt lat="45.04869" lon="6.14261">
        <ele>1106</ele>
        <time>2020-09-05T06:55:40Z</time>
      </trkpt>
      <trkpt lat="45.0487" lon="6.14263">
        <ele>1106.2</ele>
        <time>2020-09-05T06:55:41Z</time>
      </trkpt>
      <trkpt lat="45.0487" lon="6.14266">
        <ele>1106.2</ele>
        <time>2020-09-05T06:55:42Z</time>
      </trkpt>
      <trkpt lat="45.04871" lon="6.14269">
        <ele>1106.6</ele>
        <time>2020-09-05T06:55:43Z</time>
      </trkpt>
      <trkpt lat="45.04872" lon="6.14271">
        <ele>1106.8</ele>
        <time>2020-09-05T06:55:44Z</time>
      </trkpt>
      <trkpt lat="45.04872" lon="6.14274">
        <ele>1107</ele>
        <time>2020-09-05T06:55:45Z</time>
      </trkpt>
      <trkpt lat="45.04873" lon="6.14277">
        <ele>1107.2</ele>
        <time>2020-09-05T06:55:46Z</time>
      </trkpt>
      <trkpt lat="45.04874" lon="6.14279">
        <ele>1107.6</ele>
        <time>2020-09-05T06:55:47Z</time>
      </trkpt>
      <trkpt lat="45.04875" lon="6.14282">
        <ele>1107.8</ele>
        <time>2020-09-05T06:55:48Z</time>
      </trkpt>
      <trkpt lat="45.04876" lon="6.14285">
        <ele>1108</ele>
        <time>2020-09-05T06:55:49Z</time>
      </trkpt>
      <trkpt lat="45.04876" lon="6.14287">
        <ele>1108.2</ele>
        <time>2020-09-05T06:55:50Z</time>
      </trkpt>
      <trkpt lat="45.04877" lon="6.1429">
        <ele>1108.6</ele>
        <time>2020-09-05T06:55:51Z</time>
      </trkpt>
      <trkpt lat="45.04877" lon="6.14293">
        <ele>1108.8</ele>
        <time>2020-09-05T06:55:52Z</time>
      </trkpt>
      <trkpt lat="45.04878" lon="6.14295">
        <ele>1109.4</ele>
        <time>2020-09-05T06:55:53Z</time>
      </trkpt>
      <trkpt lat="45.04879" lon="6.14298">
        <ele>1109.6</ele>
        <time>2020-09-05T06:55:54Z</time>
      </trkpt>
      <trkpt lat="45.04879" lon="6.14301">
        <ele>1109.8</ele>
        <time>2020-09-05T06:55:55Z</time>
      </trkpt>
      <trkpt lat="45.04879" lon="6.14304">
        <ele>1109.8</ele>
        <time>2020-09-05T06:55:56Z</time>
      </trkpt>
      <trkpt lat="45.04878" lon="6.14306">
        <ele>1110</ele>
        <time>2020-09-05T06:55:57Z</time>
      </trkpt>
      <trkpt lat="45.04878" lon="6.14309">
        <ele>1110.2</ele>
        <time>2020-09-05T06:55:58Z</time>
      </trkpt>
      <trkpt lat="45.04878" lon="6.14312">
        <ele>1110.4</ele>
        <time>2020-09-05T06:55:59Z</time>
      </trkpt>
      <trkpt lat="45.04878" lon="6.14315">
        <ele>1110.6</ele>
        <time>2020-09-05T06:56:00Z</time>
      </trkpt>
      <trkpt lat="45.04878" lon="6.14318">
        <ele>1111</ele>
        <time>2020-09-05T06:56:01Z</time>
      </trkpt>
      <trkpt lat="45.04877" lon="6.14321">
        <ele>1111.2</ele>
        <time>2020-09-05T06:56:02Z</time>
      </trkpt>
      <trkpt lat="45.04877" lon="6.14324">
        <ele>1111.4</ele>
        <time>2020-09-05T06:56:03Z</time>
      </trkpt>
      <trkpt lat="45.04877" lon="6.14326">
        <ele>1111.8</ele>
        <time>2020-09-05T06:56:04Z</time>
      </trkpt>
      <trkpt lat="45.04877" lon="6.14329">
        <ele>1112.2</ele>
        <time>2020-09-05T06:56:05Z</time>
      </trkpt>
      <trkpt lat="45.04878" lon="6.14332">
        <ele>1112.4</ele>
        <time>2020-09-05T06:56:06Z</time>
      </trkpt>
      <trkpt lat="45.04878" lon="6.14335">
        <ele>1112.6</ele>
        <time>2020-09-05T06:56:07Z</time>
      </trkpt>
      <trkpt lat="45.04879" lon="6.14337">
        <ele>1112.8</ele>
        <time>2020-09-05T06:56:08Z</time>
      </trkpt>
      <trkpt lat="45.04881" lon="6.1434">
        <ele>1113.2</ele>
        <time>2020-09-05T06:56:09Z</time>
      </trkpt>
      <trkpt lat="45.04883" lon="6.14342">
        <ele>1113.6</ele>
        <time>2020-09-05T06:56:10Z</time>
      </trkpt>
      <trkpt lat="45.04885" lon="6.14343">
        <ele>1113.8</ele>
        <time>2020-09-05T06:56:11Z</time>
      </trkpt>
      <trkpt lat="45.04887" lon="6.14343">
        <ele>1114</ele>
        <time>2020-09-05T06:56:12Z</time>
      </trkpt>
      <trkpt lat="45.04889" lon="6.14342">
        <ele>1114.2</ele>
        <time>2020-09-05T06:56:13Z</time>
      </trkpt>
      <trkpt lat="45.04891" lon="6.14341">
        <ele>1114.4</ele>
        <time>2020-09-05T06:56:14Z</time>
      </trkpt>
      <trkpt lat="45.04893" lon="6.1434">
        <ele>1114.4</ele>
        <time>2020-09-05T06:56:15Z</time>
      </trkpt>
      <trkpt lat="45.04894" lon="6.14338">
        <ele>1114.6</ele>
        <time>2020-09-05T06:56:16Z</time>
      </trkpt>
      <trkpt lat="45.04895" lon="6.14335">
        <ele>1114.8</ele>
        <time>2020-09-05T06:56:17Z</time>
      </trkpt>
      <trkpt lat="45.04895" lon="6.14332">
        <ele>1115</ele>
        <time>2020-09-05T06:56:18Z</time>
      </trkpt>
      <trkpt lat="45.04896" lon="6.14329">
        <ele>1115.2</ele>
        <time>2020-09-05T06:56:19Z</time>
      </trkpt>
      <trkpt lat="45.04896" lon="6.14325">
        <ele>1115.2</ele>
        <time>2020-09-05T06:56:20Z</time>
      </trkpt>
      <trkpt lat="45.04896" lon="6.14322">
        <ele>1115.4</ele>
        <time>2020-09-05T06:56:21Z</time>
      </trkpt>
      <trkpt lat="45.04896" lon="6.14319">
        <ele>1115.6</ele>
        <time>2020-09-05T06:56:22Z</time>
      </trkpt>
      <trkpt lat="45.04896" lon="6.14315">
        <ele>1115.8</ele>
        <time>2020-09-05T06:56:23Z</time>
      </trkpt>
      <trkpt lat="45.04896" lon="6.14312">
        <ele>1115.8</ele>
        <time>2020-09-05T06:56:24Z</time>
      </trkpt>
      <trkpt lat="45.04896" lon="6.14309">
        <ele>1116</ele>
        <time>2020-09-05T06:56:25Z</time>
      </trkpt>
      <trkpt lat="45.04896" lon="6.14306">
        <ele>1116.2</ele>
        <time>2020-09-05T06:56:26Z</time>
      </trkpt>
      <trkpt lat="45.04896" lon="6.14303">
        <ele>1116.4</ele>
        <time>2020-09-05T06:56:27Z</time>
      </trkpt>
      <trkpt lat="45.04895" lon="6.14298">
        <ele>1116.8</ele>
        <time>2020-09-05T06:56:29Z</time>
      </trkpt>
      <trkpt lat="45.04895" lon="6.14295">
        <ele>1117</ele>
        <time>2020-09-05T06:56:30Z</time>
      </trkpt>
      <trkpt lat="45.04895" lon="6.14292">
        <ele>1117.2</ele>
        <time>2020-09-05T06:56:31Z</time>
      </trkpt>
      <trkpt lat="45.04894" lon="6.14288">
        <ele>1117.4</ele>
        <time>2020-09-05T06:56:32Z</time>
      </trkpt>
      <trkpt lat="45.04894" lon="6.14285">
        <ele>1117.8</ele>
        <time>2020-09-05T06:56:33Z</time>
      </trkpt>
      <trkpt lat="45.04893" lon="6.14282">
        <ele>1118</ele>
        <time>2020-09-05T06:56:34Z</time>
      </trkpt>
      <trkpt lat="45.04893" lon="6.14279">
        <ele>1118.2</ele>
        <time>2020-09-05T06:56:35Z</time>
      </trkpt>
      <trkpt lat="45.04893" lon="6.14276">
        <ele>1118.4</ele>
        <time>2020-09-05T06:56:36Z</time>
      </trkpt>
      <trkpt lat="45.04893" lon="6.14273">
        <ele>1119</ele>
        <time>2020-09-05T06:56:37Z</time>
      </trkpt>
      <trkpt lat="45.04893" lon="6.1427">
        <ele>1119.2</ele>
        <time>2020-09-05T06:56:38Z</time>
      </trkpt>
      <trkpt lat="45.04892" lon="6.14264">
        <ele>1119.4</ele>
        <time>2020-09-05T06:56:40Z</time>
      </trkpt>
      <trkpt lat="45.04892" lon="6.14261">
        <ele>1119.6</ele>
        <time>2020-09-05T06:56:41Z</time>
      </trkpt>
      <trkpt lat="45.04891" lon="6.14258">
        <ele>1120</ele>
        <time>2020-09-05T06:56:42Z</time>
      </trkpt>
      <trkpt lat="45.04891" lon="6.14255">
        <ele>1120.6</ele>
        <time>2020-09-05T06:56:43Z</time>
      </trkpt>
      <trkpt lat="45.04891" lon="6.14252">
        <ele>1120.6</ele>
        <time>2020-09-05T06:56:44Z</time>
      </trkpt>
      <trkpt lat="45.04891" lon="6.14249">
        <ele>1120.8</ele>
        <time>2020-09-05T06:56:45Z</time>
      </trkpt>
      <trkpt lat="45.04891" lon="6.14246">
        <ele>1121</ele>
        <time>2020-09-05T06:56:46Z</time>
      </trkpt>
      <trkpt lat="45.04891" lon="6.14244">
        <ele>1121.2</ele>
        <time>2020-09-05T06:56:47Z</time>
      </trkpt>
      <trkpt lat="45.04891" lon="6.14241">
        <ele>1121.4</ele>
        <time>2020-09-05T06:56:48Z</time>
      </trkpt>
      <trkpt lat="45.04891" lon="6.14238">
        <ele>1121.8</ele>
        <time>2020-09-05T06:56:49Z</time>
      </trkpt>
      <trkpt lat="45.04891" lon="6.14233">
        <ele>1122.2</ele>
        <time>2020-09-05T06:56:51Z</time>
      </trkpt>
      <trkpt lat="45.0489" lon="6.14229">
        <ele>1122.8</ele>
        <time>2020-09-05T06:56:53Z</time>
      </trkpt>
      <trkpt lat="45.0489" lon="6.14224">
        <ele>1123.2</ele>
        <time>2020-09-05T06:56:55Z</time>
      </trkpt>
      <trkpt lat="45.0489" lon="6.14221">
        <ele>1123.4</ele>
        <time>2020-09-05T06:56:56Z</time>
      </trkpt>
      <trkpt lat="45.0489" lon="6.14216">
        <ele>1124</ele>
        <time>2020-09-05T06:56:58Z</time>
      </trkpt>
      <trkpt lat="45.04889" lon="6.14213">
        <ele>1124.2</ele>
        <time>2020-09-05T06:56:59Z</time>
      </trkpt>
      <trkpt lat="45.04889" lon="6.14211">
        <ele>1124.4</ele>
        <time>2020-09-05T06:57:00Z</time>
      </trkpt>
      <trkpt lat="45.04889" lon="6.14208">
        <ele>1124.6</ele>
        <time>2020-09-05T06:57:01Z</time>
      </trkpt>
      <trkpt lat="45.04889" lon="6.14206">
        <ele>1124.8</ele>
        <time>2020-09-05T06:57:02Z</time>
      </trkpt>
      <trkpt lat="45.04889" lon="6.14203">
        <ele>1125.2</ele>
        <time>2020-09-05T06:57:03Z</time>
      </trkpt>
      <trkpt lat="45.04889" lon="6.142">
        <ele>1125.4</ele>
        <time>2020-09-05T06:57:04Z</time>
      </trkpt>
      <trkpt lat="45.04889" lon="6.14197">
        <ele>1125.6</ele>
        <time>2020-09-05T06:57:05Z</time>
      </trkpt>
      <trkpt lat="45.04889" lon="6.14195">
        <ele>1125.8</ele>
        <time>2020-09-05T06:57:06Z</time>
      </trkpt>
      <trkpt lat="45.04889" lon="6.14192">
        <ele>1126</ele>
        <time>2020-09-05T06:57:07Z</time>
      </trkpt>
      <trkpt lat="45.04889" lon="6.14189">
        <ele>1126.2</ele>
        <time>2020-09-05T06:57:08Z</time>
      </trkpt>
      <trkpt lat="45.04889" lon="6.14187">
        <ele>1126.6</ele>
        <time>2020-09-05T06:57:09Z</time>
      </trkpt>
      <trkpt lat="45.04889" lon="6.14184">
        <ele>1126.8</ele>
        <time>2020-09-05T06:57:10Z</time>
      </trkpt>
      <trkpt lat="45.04889" lon="6.14181">
        <ele>1127.2</ele>
        <time>2020-09-05T06:57:11Z</time>
      </trkpt>
      <trkpt lat="45.04889" lon="6.14178">
        <ele>1127.4</ele>
        <time>2020-09-05T06:57:12Z</time>
      </trkpt>
      <trkpt lat="45.04889" lon="6.14176">
        <ele>1127.8</ele>
        <time>2020-09-05T06:57:13Z</time>
      </trkpt>
      <trkpt lat="45.04889" lon="6.14173">
        <ele>1128</ele>
        <time>2020-09-05T06:57:14Z</time>
      </trkpt>
      <trkpt lat="45.04889" lon="6.1417">
        <ele>1128.2</ele>
        <time>2020-09-05T06:57:15Z</time>
      </trkpt>
      <trkpt lat="45.04889" lon="6.14168">
        <ele>1128.4</ele>
        <time>2020-09-05T06:57:16Z</time>
      </trkpt>
      <trkpt lat="45.04889" lon="6.14165">
        <ele>1128.8</ele>
        <time>2020-09-05T06:57:17Z</time>
      </trkpt>
      <trkpt lat="45.04889" lon="6.14162">
        <ele>1129</ele>
        <time>2020-09-05T06:57:18Z</time>
      </trkpt>
      <trkpt lat="45.04889" lon="6.14159">
        <ele>1129.4</ele>
        <time>2020-09-05T06:57:19Z</time>
      </trkpt>
      <trkpt lat="45.04889" lon="6.14156">
        <ele>1129.4</ele>
        <time>2020-09-05T06:57:20Z</time>
      </trkpt>
      <trkpt lat="45.0489" lon="6.14154">
        <ele>1130</ele>
        <time>2020-09-05T06:57:21Z</time>
      </trkpt>
      <trkpt lat="45.0489" lon="6.14151">
        <ele>1130.2</ele>
        <time>2020-09-05T06:57:22Z</time>
      </trkpt>
      <trkpt lat="45.0489" lon="6.14148">
        <ele>1130.4</ele>
        <time>2020-09-05T06:57:23Z</time>
      </trkpt>
      <trkpt lat="45.0489" lon="6.14145">
        <ele>1130.6</ele>
        <time>2020-09-05T06:57:24Z</time>
      </trkpt>
      <trkpt lat="45.04891" lon="6.14143">
        <ele>1130.8</ele>
        <time>2020-09-05T06:57:25Z</time>
      </trkpt>
      <trkpt lat="45.04891" lon="6.1414">
        <ele>1131.2</ele>
        <time>2020-09-05T06:57:26Z</time>
      </trkpt>
      <trkpt lat="45.04891" lon="6.14137">
        <ele>1131.4</ele>
        <time>2020-09-05T06:57:27Z</time>
      </trkpt>
      <trkpt lat="45.04891" lon="6.14134">
        <ele>1131.8</ele>
        <time>2020-09-05T06:57:28Z</time>
      </trkpt>
      <trkpt lat="45.04892" lon="6.14132">
        <ele>1132</ele>
        <time>2020-09-05T06:57:29Z</time>
      </trkpt>
      <trkpt lat="45.04892" lon="6.14127">
        <ele>1132.2</ele>
        <time>2020-09-05T06:57:31Z</time>
      </trkpt>
      <trkpt lat="45.04892" lon="6.14124">
        <ele>1132.4</ele>
        <time>2020-09-05T06:57:32Z</time>
      </trkpt>
      <trkpt lat="45.04892" lon="6.14122">
        <ele>1133</ele>
        <time>2020-09-05T06:57:33Z</time>
      </trkpt>
      <trkpt lat="45.04893" lon="6.14119">
        <ele>1133.4</ele>
        <time>2020-09-05T06:57:34Z</time>
      </trkpt>
      <trkpt lat="45.04894" lon="6.14114">
        <ele>1134</ele>
        <time>2020-09-05T06:57:36Z</time>
      </trkpt>
      <trkpt lat="45.04894" lon="6.14112">
        <ele>1134.2</ele>
        <time>2020-09-05T06:57:37Z</time>
      </trkpt>
      <trkpt lat="45.04895" lon="6.14109">
        <ele>1134.6</ele>
        <time>2020-09-05T06:57:38Z</time>
      </trkpt>
      <trkpt lat="45.04895" lon="6.14107">
        <ele>1134.6</ele>
        <time>2020-09-05T06:57:39Z</time>
      </trkpt>
      <trkpt lat="45.04897" lon="6.14102">
        <ele>1135</ele>
        <time>2020-09-05T06:57:41Z</time>
      </trkpt>
      <trkpt lat="45.04898" lon="6.141">
        <ele>1135.2</ele>
        <time>2020-09-05T06:57:42Z</time>
      </trkpt>
      <trkpt lat="45.04899" lon="6.14097">
        <ele>1135.6</ele>
        <time>2020-09-05T06:57:43Z</time>
      </trkpt>
      <trkpt lat="45.04899" lon="6.14094">
        <ele>1135.8</ele>
        <time>2020-09-05T06:57:44Z</time>
      </trkpt>
      <trkpt lat="45.049" lon="6.14092">
        <ele>1136</ele>
        <time>2020-09-05T06:57:45Z</time>
      </trkpt>
      <trkpt lat="45.04901" lon="6.14089">
        <ele>1136.2</ele>
        <time>2020-09-05T06:57:46Z</time>
      </trkpt>
      <trkpt lat="45.04902" lon="6.14086">
        <ele>1136.6</ele>
        <time>2020-09-05T06:57:47Z</time>
      </trkpt>
      <trkpt lat="45.04903" lon="6.14084">
        <ele>1136.8</ele>
        <time>2020-09-05T06:57:48Z</time>
      </trkpt>
      <trkpt lat="45.04904" lon="6.14081">
        <ele>1137.2</ele>
        <time>2020-09-05T06:57:49Z</time>
      </trkpt>
      <trkpt lat="45.04905" lon="6.14078">
        <ele>1137.6</ele>
        <time>2020-09-05T06:57:50Z</time>
      </trkpt>
      <trkpt lat="45.04906" lon="6.14076">
        <ele>1137.6</ele>
        <time>2020-09-05T06:57:51Z</time>
      </trkpt>
      <trkpt lat="45.04907" lon="6.14073">
        <ele>1137.8</ele>
        <time>2020-09-05T06:57:52Z</time>
      </trkpt>
      <trkpt lat="45.04908" lon="6.1407">
        <ele>1138.2</ele>
        <time>2020-09-05T06:57:53Z</time>
      </trkpt>
      <trkpt lat="45.04908" lon="6.14067">
        <ele>1138.4</ele>
        <time>2020-09-05T06:57:54Z</time>
      </trkpt>
      <trkpt lat="45.04909" lon="6.14065">
        <ele>1138.8</ele>
        <time>2020-09-05T06:57:55Z</time>
      </trkpt>
      <trkpt lat="45.04911" lon="6.14061">
        <ele>1139.2</ele>
        <time>2020-09-05T06:57:57Z</time>
      </trkpt>
      <trkpt lat="45.04911" lon="6.14058">
        <ele>1139.6</ele>
        <time>2020-09-05T06:57:58Z</time>
      </trkpt>
      <trkpt lat="45.04912" lon="6.14055">
        <ele>1139.6</ele>
        <time>2020-09-05T06:57:59Z</time>
      </trkpt>
      <trkpt lat="45.04914" lon="6.14053">
        <ele>1139.8</ele>
        <time>2020-09-05T06:58:00Z</time>
      </trkpt>
      <trkpt lat="45.04915" lon="6.1405">
        <ele>1140.2</ele>
        <time>2020-09-05T06:58:01Z</time>
      </trkpt>
      <trkpt lat="45.04916" lon="6.14047">
        <ele>1140.2</ele>
        <time>2020-09-05T06:58:02Z</time>
      </trkpt>
      <trkpt lat="45.04917" lon="6.14044">
        <ele>1140.4</ele>
        <time>2020-09-05T06:58:03Z</time>
      </trkpt>
      <trkpt lat="45.04918" lon="6.14042">
        <ele>1140.8</ele>
        <time>2020-09-05T06:58:04Z</time>
      </trkpt>
      <trkpt lat="45.0492" lon="6.14039">
        <ele>1141</ele>
        <time>2020-09-05T06:58:05Z</time>
      </trkpt>
      <trkpt lat="45.04921" lon="6.14037">
        <ele>1141.2</ele>
        <time>2020-09-05T06:58:06Z</time>
      </trkpt>
      <trkpt lat="45.04923" lon="6.14035">
        <ele>1141.6</ele>
        <time>2020-09-05T06:58:07Z</time>
      </trkpt>
      <trkpt lat="45.04925" lon="6.14034">
        <ele>1142</ele>
        <time>2020-09-05T06:58:08Z</time>
      </trkpt>
      <trkpt lat="45.04927" lon="6.14032">
        <ele>1142.2</ele>
        <time>2020-09-05T06:58:09Z</time>
      </trkpt>
      <trkpt lat="45.04929" lon="6.1403">
        <ele>1142.6</ele>
        <time>2020-09-05T06:58:10Z</time>
      </trkpt>
      <trkpt lat="45.04931" lon="6.14028">
        <ele>1142.8</ele>
        <time>2020-09-05T06:58:11Z</time>
      </trkpt>
      <trkpt lat="45.04932" lon="6.14026">
        <ele>1143.2</ele>
        <time>2020-09-05T06:58:12Z</time>
      </trkpt>
      <trkpt lat="45.04934" lon="6.14024">
        <ele>1143.6</ele>
        <time>2020-09-05T06:58:13Z</time>
      </trkpt>
      <trkpt lat="45.04936" lon="6.14022">
        <ele>1144</ele>
        <time>2020-09-05T06:58:14Z</time>
      </trkpt>
      <trkpt lat="45.04937" lon="6.1402">
        <ele>1144.4</ele>
        <time>2020-09-05T06:58:15Z</time>
      </trkpt>
      <trkpt lat="45.04939" lon="6.14018">
        <ele>1144.6</ele>
        <time>2020-09-05T06:58:16Z</time>
      </trkpt>
      <trkpt lat="45.04941" lon="6.14016">
        <ele>1145</ele>
        <time>2020-09-05T06:58:18Z</time>
      </trkpt>
      <trkpt lat="45.04944" lon="6.14013">
        <ele>1145.4</ele>
        <time>2020-09-05T06:58:20Z</time>
      </trkpt>
      <trkpt lat="45.04945" lon="6.14012">
        <ele>1145.6</ele>
        <time>2020-09-05T06:58:21Z</time>
      </trkpt>
      <trkpt lat="45.04947" lon="6.1401">
        <ele>1145.8</ele>
        <time>2020-09-05T06:58:22Z</time>
      </trkpt>
      <trkpt lat="45.04949" lon="6.14009">
        <ele>1146</ele>
        <time>2020-09-05T06:58:23Z</time>
      </trkpt>
      <trkpt lat="45.0495" lon="6.14007">
        <ele>1146.2</ele>
        <time>2020-09-05T06:58:24Z</time>
      </trkpt>
      <trkpt lat="45.04952" lon="6.14005">
        <ele>1146.4</ele>
        <time>2020-09-05T06:58:25Z</time>
      </trkpt>
      <trkpt lat="45.04953" lon="6.14004">
        <ele>1146.6</ele>
        <time>2020-09-05T06:58:26Z</time>
      </trkpt>
      <trkpt lat="45.04955" lon="6.14003">
        <ele>1147</ele>
        <time>2020-09-05T06:58:27Z</time>
      </trkpt>
      <trkpt lat="45.04957" lon="6.14004">
        <ele>1147.2</ele>
        <time>2020-09-05T06:58:28Z</time>
      </trkpt>
      <trkpt lat="45.04959" lon="6.14006">
        <ele>1147.4</ele>
        <time>2020-09-05T06:58:29Z</time>
      </trkpt>
      <trkpt lat="45.0496" lon="6.14008">
        <ele>1147.8</ele>
        <time>2020-09-05T06:58:30Z</time>
      </trkpt>
      <trkpt lat="45.04961" lon="6.1401">
        <ele>1148</ele>
        <time>2020-09-05T06:58:31Z</time>
      </trkpt>
      <trkpt lat="45.0496" lon="6.14013">
        <ele>1148.2</ele>
        <time>2020-09-05T06:58:32Z</time>
      </trkpt>
      <trkpt lat="45.04959" lon="6.14016">
        <ele>1148.2</ele>
        <time>2020-09-05T06:58:33Z</time>
      </trkpt>
      <trkpt lat="45.04957" lon="6.14018">
        <ele>1148.4</ele>
        <time>2020-09-05T06:58:34Z</time>
      </trkpt>
      <trkpt lat="45.04955" lon="6.14021">
        <ele>1148.8</ele>
        <time>2020-09-05T06:58:35Z</time>
      </trkpt>
      <trkpt lat="45.04953" lon="6.14023">
        <ele>1148.8</ele>
        <time>2020-09-05T06:58:36Z</time>
      </trkpt>
      <trkpt lat="45.04952" lon="6.14026">
        <ele>1149</ele>
        <time>2020-09-05T06:58:37Z</time>
      </trkpt>
      <trkpt lat="45.0495" lon="6.14029">
        <ele>1149.2</ele>
        <time>2020-09-05T06:58:38Z</time>
      </trkpt>
      <trkpt lat="45.04948" lon="6.14031">
        <ele>1149.2</ele>
        <time>2020-09-05T06:58:39Z</time>
      </trkpt>
      <trkpt lat="45.04946" lon="6.14033">
        <ele>1149.6</ele>
        <time>2020-09-05T06:58:40Z</time>
      </trkpt>
      <trkpt lat="45.04945" lon="6.14036">
        <ele>1150</ele>
        <time>2020-09-05T06:58:41Z</time>
      </trkpt>
      <trkpt lat="45.04944" lon="6.14038">
        <ele>1150.2</ele>
        <time>2020-09-05T06:58:42Z</time>
      </trkpt>
      <trkpt lat="45.04942" lon="6.1404">
        <ele>1150.4</ele>
        <time>2020-09-05T06:58:43Z</time>
      </trkpt>
      <trkpt lat="45.04941" lon="6.14042">
        <ele>1150.8</ele>
        <time>2020-09-05T06:58:44Z</time>
      </trkpt>
      <trkpt lat="45.0494" lon="6.14045">
        <ele>1151</ele>
        <time>2020-09-05T06:58:45Z</time>
      </trkpt>
      <trkpt lat="45.04939" lon="6.14047">
        <ele>1151.6</ele>
        <time>2020-09-05T06:58:46Z</time>
      </trkpt>
      <trkpt lat="45.04938" lon="6.1405">
        <ele>1151.6</ele>
        <time>2020-09-05T06:58:47Z</time>
      </trkpt>
      <trkpt lat="45.04937" lon="6.14052">
        <ele>1151.8</ele>
        <time>2020-09-05T06:58:48Z</time>
      </trkpt>
      <trkpt lat="45.04936" lon="6.14054">
        <ele>1152.2</ele>
        <time>2020-09-05T06:58:49Z</time>
      </trkpt>
      <trkpt lat="45.04935" lon="6.14057">
        <ele>1152.6</ele>
        <time>2020-09-05T06:58:50Z</time>
      </trkpt>
      <trkpt lat="45.04934" lon="6.14059">
        <ele>1153</ele>
        <time>2020-09-05T06:58:51Z</time>
      </trkpt>
      <trkpt lat="45.04934" lon="6.14062">
        <ele>1153</ele>
        <time>2020-09-05T06:58:52Z</time>
      </trkpt>
      <trkpt lat="45.04933" lon="6.14064">
        <ele>1153</ele>
        <time>2020-09-05T06:58:53Z</time>
      </trkpt>
      <trkpt lat="45.04932" lon="6.14067">
        <ele>1153.4</ele>
        <time>2020-09-05T06:58:54Z</time>
      </trkpt>
      <trkpt lat="45.04932" lon="6.1407">
        <ele>1153.6</ele>
        <time>2020-09-05T06:58:55Z</time>
      </trkpt>
      <trkpt lat="45.04932" lon="6.14073">
        <ele>1153.8</ele>
        <time>2020-09-05T06:58:56Z</time>
      </trkpt>
      <trkpt lat="45.04932" lon="6.14076">
        <ele>1154.2</ele>
        <time>2020-09-05T06:58:57Z</time>
      </trkpt>
      <trkpt lat="45.04931" lon="6.14078">
        <ele>1154.4</ele>
        <time>2020-09-05T06:58:58Z</time>
      </trkpt>
      <trkpt lat="45.0493" lon="6.14081">
        <ele>1154.8</ele>
        <time>2020-09-05T06:58:59Z</time>
      </trkpt>
      <trkpt lat="45.0493" lon="6.14084">
        <ele>1155</ele>
        <time>2020-09-05T06:59:00Z</time>
      </trkpt>
      <trkpt lat="45.04929" lon="6.14086">
        <ele>1155.4</ele>
        <time>2020-09-05T06:59:01Z</time>
      </trkpt>
      <trkpt lat="45.04929" lon="6.14089">
        <ele>1155.6</ele>
        <time>2020-09-05T06:59:02Z</time>
      </trkpt>
      <trkpt lat="45.04929" lon="6.14092">
        <ele>1156</ele>
        <time>2020-09-05T06:59:03Z</time>
      </trkpt>
      <trkpt lat="45.04928" lon="6.14095">
        <ele>1156.2</ele>
        <time>2020-09-05T06:59:04Z</time>
      </trkpt>
      <trkpt lat="45.04928" lon="6.14098">
        <ele>1156.4</ele>
        <time>2020-09-05T06:59:05Z</time>
      </trkpt>
      <trkpt lat="45.04928" lon="6.14101">
        <ele>1156.8</ele>
        <time>2020-09-05T06:59:06Z</time>
      </trkpt>
      <trkpt lat="45.04928" lon="6.14104">
        <ele>1156.8</ele>
        <time>2020-09-05T06:59:07Z</time>
      </trkpt>
      <trkpt lat="45.04928" lon="6.14107">
        <ele>1157</ele>
        <time>2020-09-05T06:59:08Z</time>
      </trkpt>
      <trkpt lat="45.04928" lon="6.14111">
        <ele>1157.2</ele>
        <time>2020-09-05T06:59:09Z</time>
      </trkpt>
      <trkpt lat="45.04928" lon="6.14114">
        <ele>1157.6</ele>
        <time>2020-09-05T06:59:10Z</time>
      </trkpt>
      <trkpt lat="45.04928" lon="6.14117">
        <ele>1158</ele>
        <time>2020-09-05T06:59:11Z</time>
      </trkpt>
      <trkpt lat="45.04928" lon="6.1412">
        <ele>1158.2</ele>
        <time>2020-09-05T06:59:12Z</time>
      </trkpt>
      <trkpt lat="45.04929" lon="6.14123">
        <ele>1158.2</ele>
        <time>2020-09-05T06:59:13Z</time>
      </trkpt>
      <trkpt lat="45.0493" lon="6.14126">
        <ele>1158.4</ele>
        <time>2020-09-05T06:59:14Z</time>
      </trkpt>
      <trkpt lat="45.04931" lon="6.14129">
        <ele>1158.6</ele>
        <time>2020-09-05T06:59:15Z</time>
      </trkpt>
      <trkpt lat="45.04932" lon="6.14132">
        <ele>1158.8</ele>
        <time>2020-09-05T06:59:16Z</time>
      </trkpt>
      <trkpt lat="45.04933" lon="6.14134">
        <ele>1159</ele>
        <time>2020-09-05T06:59:17Z</time>
      </trkpt>
      <trkpt lat="45.04935" lon="6.14137">
        <ele>1159.2</ele>
        <time>2020-09-05T06:59:18Z</time>
      </trkpt>
      <trkpt lat="45.04936" lon="6.1414">
        <ele>1159.2</ele>
        <time>2020-09-05T06:59:19Z</time>
      </trkpt>
      <trkpt lat="45.04937" lon="6.14143">
        <ele>1159.6</ele>
        <time>2020-09-05T06:59:20Z</time>
      </trkpt>
      <trkpt lat="45.04939" lon="6.14146">
        <ele>1159.6</ele>
        <time>2020-09-05T06:59:21Z</time>
      </trkpt>
      <trkpt lat="45.0494" lon="6.14149">
        <ele>1159.8</ele>
        <time>2020-09-05T06:59:22Z</time>
      </trkpt>
      <trkpt lat="45.04941" lon="6.14153">
        <ele>1160</ele>
        <time>2020-09-05T06:59:23Z</time>
      </trkpt>
      <trkpt lat="45.04942" lon="6.14156">
        <ele>1160</ele>
        <time>2020-09-05T06:59:24Z</time>
      </trkpt>
      <trkpt lat="45.04944" lon="6.14159">
        <ele>1160.2</ele>
        <time>2020-09-05T06:59:25Z</time>
      </trkpt>
      <trkpt lat="45.04945" lon="6.14162">
        <ele>1160.4</ele>
        <time>2020-09-05T06:59:26Z</time>
      </trkpt>
      <trkpt lat="45.04947" lon="6.14165">
        <ele>1160.6</ele>
        <time>2020-09-05T06:59:27Z</time>
      </trkpt>
      <trkpt lat="45.04948" lon="6.14169">
        <ele>1160.6</ele>
        <time>2020-09-05T06:59:28Z</time>
      </trkpt>
      <trkpt lat="45.04949" lon="6.14173">
        <ele>1160.6</ele>
        <time>2020-09-05T06:59:29Z</time>
      </trkpt>
      <trkpt lat="45.04951" lon="6.14177">
        <ele>1160.8</ele>
        <time>2020-09-05T06:59:30Z</time>
      </trkpt>
      <trkpt lat="45.04953" lon="6.14181">
        <ele>1161</ele>
        <time>2020-09-05T06:59:31Z</time>
      </trkpt>
      <trkpt lat="45.04954" lon="6.14184">
        <ele>1161</ele>
        <time>2020-09-05T06:59:32Z</time>
      </trkpt>
      <trkpt lat="45.04956" lon="6.14188">
        <ele>1161</ele>
        <time>2020-09-05T06:59:33Z</time>
      </trkpt>
      <trkpt lat="45.04958" lon="6.14192">
        <ele>1161.2</ele>
        <time>2020-09-05T06:59:34Z</time>
      </trkpt>
      <trkpt lat="45.04959" lon="6.14196">
        <ele>1161.2</ele>
        <time>2020-09-05T06:59:35Z</time>
      </trkpt>
      <trkpt lat="45.04961" lon="6.142">
        <ele>1161.6</ele>
        <time>2020-09-05T06:59:36Z</time>
      </trkpt>
      <trkpt lat="45.04963" lon="6.14203">
        <ele>1161.8</ele>
        <time>2020-09-05T06:59:37Z</time>
      </trkpt>
      <trkpt lat="45.04965" lon="6.14207">
        <ele>1161.8</ele>
        <time>2020-09-05T06:59:38Z</time>
      </trkpt>
      <trkpt lat="45.04967" lon="6.1421">
        <ele>1162.2</ele>
        <time>2020-09-05T06:59:39Z</time>
      </trkpt>
      <trkpt lat="45.04969" lon="6.14213">
        <ele>1162.4</ele>
        <time>2020-09-05T06:59:40Z</time>
      </trkpt>
      <trkpt lat="45.04971" lon="6.14216">
        <ele>1162.6</ele>
        <time>2020-09-05T06:59:41Z</time>
      </trkpt>
      <trkpt lat="45.04972" lon="6.14219">
        <ele>1162.8</ele>
        <time>2020-09-05T06:59:42Z</time>
      </trkpt>
      <trkpt lat="45.04974" lon="6.14221">
        <ele>1163</ele>
        <time>2020-09-05T06:59:43Z</time>
      </trkpt>
      <trkpt lat="45.04975" lon="6.14223">
        <ele>1163</ele>
        <time>2020-09-05T06:59:44Z</time>
      </trkpt>
      <trkpt lat="45.04977" lon="6.14226">
        <ele>1163.2</ele>
        <time>2020-09-05T06:59:45Z</time>
      </trkpt>
      <trkpt lat="45.04979" lon="6.14229">
        <ele>1163.2</ele>
        <time>2020-09-05T06:59:46Z</time>
      </trkpt>
      <trkpt lat="45.04981" lon="6.14231">
        <ele>1163.8</ele>
        <time>2020-09-05T06:59:47Z</time>
      </trkpt>
      <trkpt lat="45.04983" lon="6.14234">
        <ele>1164</ele>
        <time>2020-09-05T06:59:48Z</time>
      </trkpt>
      <trkpt lat="45.04985" lon="6.14238">
        <ele>1164.2</ele>
        <time>2020-09-05T06:59:49Z</time>
      </trkpt>
      <trkpt lat="45.04986" lon="6.14241">
        <ele>1164.2</ele>
        <time>2020-09-05T06:59:50Z</time>
      </trkpt>
      <trkpt lat="45.04988" lon="6.14244">
        <ele>1164.4</ele>
        <time>2020-09-05T06:59:51Z</time>
      </trkpt>
      <trkpt lat="45.0499" lon="6.14247">
        <ele>1164.6</ele>
        <time>2020-09-05T06:59:52Z</time>
      </trkpt>
      <trkpt lat="45.04991" lon="6.14251">
        <ele>1165</ele>
        <time>2020-09-05T06:59:53Z</time>
      </trkpt>
      <trkpt lat="45.04992" lon="6.14254">
        <ele>1165.4</ele>
        <time>2020-09-05T06:59:54Z</time>
      </trkpt>
      <trkpt lat="45.04994" lon="6.14258">
        <ele>1165.6</ele>
        <time>2020-09-05T06:59:55Z</time>
      </trkpt>
      <trkpt lat="45.04995" lon="6.14262">
        <ele>1165.8</ele>
        <time>2020-09-05T06:59:56Z</time>
      </trkpt>
      <trkpt lat="45.04996" lon="6.14266">
        <ele>1166</ele>
        <time>2020-09-05T06:59:57Z</time>
      </trkpt>
      <trkpt lat="45.04998" lon="6.1427">
        <ele>1166.2</ele>
        <time>2020-09-05T06:59:58Z</time>
      </trkpt>
      <trkpt lat="45.05001" lon="6.14272">
        <ele>1166.4</ele>
        <time>2020-09-05T06:59:59Z</time>
      </trkpt>
      <trkpt lat="45.05003" lon="6.14274">
        <ele>1166.4</ele>
        <time>2020-09-05T07:00:00Z</time>
      </trkpt>
      <trkpt lat="45.05007" lon="6.14275">
        <ele>1166.6</ele>
        <time>2020-09-05T07:00:01Z</time>
      </trkpt>
      <trkpt lat="45.0501" lon="6.14277">
        <ele>1166.6</ele>
        <time>2020-09-05T07:00:02Z</time>
      </trkpt>
      <trkpt lat="45.05012" lon="6.14277">
        <ele>1166.8</ele>
        <time>2020-09-05T07:00:03Z</time>
      </trkpt>
      <trkpt lat="45.05011" lon="6.14276">
        <ele>1167</ele>
        <time>2020-09-05T07:00:11Z</time>
      </trkpt>
      <trkpt lat="45.05012" lon="6.14278">
        <ele>1167</ele>
        <time>2020-09-05T07:01:14Z</time>
      </trkpt>
      <trkpt lat="45.05015" lon="6.14279">
        <ele>1166.8</ele>
        <time>2020-09-05T07:01:21Z</time>
      </trkpt>
      <trkpt lat="45.05018" lon="6.1428">
        <ele>1167.2</ele>
        <time>2020-09-05T07:01:23Z</time>
      </trkpt>
      <trkpt lat="45.0502" lon="6.1428">
        <ele>1167.2</ele>
        <time>2020-09-05T07:01:24Z</time>
      </trkpt>
      <trkpt lat="45.05023" lon="6.14281">
        <ele>1167.4</ele>
        <time>2020-09-05T07:01:25Z</time>
      </trkpt>
      <trkpt lat="45.05025" lon="6.14282">
        <ele>1167.4</ele>
        <time>2020-09-05T07:01:26Z</time>
      </trkpt>
      <trkpt lat="45.05029" lon="6.14283">
        <ele>1167.6</ele>
        <time>2020-09-05T07:01:27Z</time>
      </trkpt>
      <trkpt lat="45.05032" lon="6.14285">
        <ele>1167.6</ele>
        <time>2020-09-05T07:01:28Z</time>
      </trkpt>
      <trkpt lat="45.05036" lon="6.14287">
        <ele>1167.6</ele>
        <time>2020-09-05T07:01:29Z</time>
      </trkpt>
      <trkpt lat="45.0504" lon="6.14289">
        <ele>1167.4</ele>
        <time>2020-09-05T07:01:30Z</time>
      </trkpt>
      <trkpt lat="45.05044" lon="6.14292">
        <ele>1167.4</ele>
        <time>2020-09-05T07:01:31Z</time>
      </trkpt>
      <trkpt lat="45.05048" lon="6.14295">
        <ele>1167.4</ele>
        <time>2020-09-05T07:01:32Z</time>
      </trkpt>
      <trkpt lat="45.05053" lon="6.14298">
        <ele>1167.8</ele>
        <time>2020-09-05T07:01:33Z</time>
      </trkpt>
      <trkpt lat="45.05058" lon="6.14302">
        <ele>1168.2</ele>
        <time>2020-09-05T07:01:34Z</time>
      </trkpt>
      <trkpt lat="45.05063" lon="6.14306">
        <ele>1168.2</ele>
        <time>2020-09-05T07:01:35Z</time>
      </trkpt>
      <trkpt lat="45.05068" lon="6.14309">
        <ele>1168.6</ele>
        <time>2020-09-05T07:01:36Z</time>
      </trkpt>
      <trkpt lat="45.05073" lon="6.14311">
        <ele>1168.8</ele>
        <time>2020-09-05T07:01:37Z</time>
      </trkpt>
      <trkpt lat="45.05078" lon="6.14311">
        <ele>1168.6</ele>
        <time>2020-09-05T07:01:38Z</time>
      </trkpt>
      <trkpt lat="45.05082" lon="6.14311">
        <ele>1168.4</ele>
        <time>2020-09-05T07:01:39Z</time>
      </trkpt>
      <trkpt lat="45.05087" lon="6.14311">
        <ele>1168.4</ele>
        <time>2020-09-05T07:01:40Z</time>
      </trkpt>
      <trkpt lat="45.05092" lon="6.1431">
        <ele>1168.4</ele>
        <time>2020-09-05T07:01:41Z</time>
      </trkpt>
      <trkpt lat="45.05097" lon="6.14309">
        <ele>1168.2</ele>
        <time>2020-09-05T07:01:42Z</time>
      </trkpt>
      <trkpt lat="45.05103" lon="6.14307">
        <ele>1168</ele>
        <time>2020-09-05T07:01:43Z</time>
      </trkpt>
      <trkpt lat="45.05108" lon="6.14306">
        <ele>1168</ele>
        <time>2020-09-05T07:01:44Z</time>
      </trkpt>
      <trkpt lat="45.05114" lon="6.14305">
        <ele>1167.8</ele>
        <time>2020-09-05T07:01:45Z</time>
      </trkpt>
      <trkpt lat="45.05119" lon="6.14305">
        <ele>1167.8</ele>
        <time>2020-09-05T07:01:46Z</time>
      </trkpt>
      <trkpt lat="45.05125" lon="6.14303">
        <ele>1167.6</ele>
        <time>2020-09-05T07:01:47Z</time>
      </trkpt>
      <trkpt lat="45.0513" lon="6.14301">
        <ele>1167.6</ele>
        <time>2020-09-05T07:01:48Z</time>
      </trkpt>
      <trkpt lat="45.05136" lon="6.14299">
        <ele>1167.6</ele>
        <time>2020-09-05T07:01:49Z</time>
      </trkpt>
      <trkpt lat="45.05141" lon="6.14297">
        <ele>1167.8</ele>
        <time>2020-09-05T07:01:50Z</time>
      </trkpt>
      <trkpt lat="45.05146" lon="6.14295">
        <ele>1168.2</ele>
        <time>2020-09-05T07:01:51Z</time>
      </trkpt>
      <trkpt lat="45.05152" lon="6.14293">
        <ele>1168.2</ele>
        <time>2020-09-05T07:01:52Z</time>
      </trkpt>
      <trkpt lat="45.05157" lon="6.14291">
        <ele>1168.4</ele>
        <time>2020-09-05T07:01:53Z</time>
      </trkpt>
      <trkpt lat="45.05162" lon="6.14288">
        <ele>1168.4</ele>
        <time>2020-09-05T07:01:54Z</time>
      </trkpt>
      <trkpt lat="45.05168" lon="6.14286">
        <ele>1168.4</ele>
        <time>2020-09-05T07:01:55Z</time>
      </trkpt>
      <trkpt lat="45.05174" lon="6.14284">
        <ele>1168.6</ele>
        <time>2020-09-05T07:01:56Z</time>
      </trkpt>
      <trkpt lat="45.05179" lon="6.14282">
        <ele>1168.6</ele>
        <time>2020-09-05T07:01:57Z</time>
      </trkpt>
      <trkpt lat="45.05185" lon="6.1428">
        <ele>1168.8</ele>
        <time>2020-09-05T07:01:58Z</time>
      </trkpt>
      <trkpt lat="45.0519" lon="6.14278">
        <ele>1169</ele>
        <time>2020-09-05T07:01:59Z</time>
      </trkpt>
      <trkpt lat="45.05195" lon="6.14276">
        <ele>1169</ele>
        <time>2020-09-05T07:02:00Z</time>
      </trkpt>
      <trkpt lat="45.052" lon="6.14275">
        <ele>1169.2</ele>
        <time>2020-09-05T07:02:01Z</time>
      </trkpt>
      <trkpt lat="45.05205" lon="6.14274">
        <ele>1169.4</ele>
        <time>2020-09-05T07:02:02Z</time>
      </trkpt>
      <trkpt lat="45.0521" lon="6.14274">
        <ele>1169.8</ele>
        <time>2020-09-05T07:02:03Z</time>
      </trkpt>
      <trkpt lat="45.05215" lon="6.14275">
        <ele>1170</ele>
        <time>2020-09-05T07:02:04Z</time>
      </trkpt>
      <trkpt lat="45.0522" lon="6.14277">
        <ele>1170.2</ele>
        <time>2020-09-05T07:02:05Z</time>
      </trkpt>
      <trkpt lat="45.05225" lon="6.14279">
        <ele>1170.4</ele>
        <time>2020-09-05T07:02:06Z</time>
      </trkpt>
      <trkpt lat="45.05229" lon="6.14281">
        <ele>1170.8</ele>
        <time>2020-09-05T07:02:07Z</time>
      </trkpt>
      <trkpt lat="45.05234" lon="6.14284">
        <ele>1170.8</ele>
        <time>2020-09-05T07:02:08Z</time>
      </trkpt>
      <trkpt lat="45.05237" lon="6.14287">
        <ele>1171</ele>
        <time>2020-09-05T07:02:09Z</time>
      </trkpt>
      <trkpt lat="45.05241" lon="6.14291">
        <ele>1171.4</ele>
        <time>2020-09-05T07:02:10Z</time>
      </trkpt>
      <trkpt lat="45.05245" lon="6.14294">
        <ele>1171.6</ele>
        <time>2020-09-05T07:02:11Z</time>
      </trkpt>
      <trkpt lat="45.05248" lon="6.14297">
        <ele>1171.8</ele>
        <time>2020-09-05T07:02:12Z</time>
      </trkpt>
      <trkpt lat="45.05251" lon="6.14301">
        <ele>1172</ele>
        <time>2020-09-05T07:02:13Z</time>
      </trkpt>
      <trkpt lat="45.05255" lon="6.14304">
        <ele>1172.2</ele>
        <time>2020-09-05T07:02:14Z</time>
      </trkpt>
      <trkpt lat="45.05258" lon="6.14308">
        <ele>1172.2</ele>
        <time>2020-09-05T07:02:15Z</time>
      </trkpt>
      <trkpt lat="45.05262" lon="6.14311">
        <ele>1172.4</ele>
        <time>2020-09-05T07:02:16Z</time>
      </trkpt>
      <trkpt lat="45.05265" lon="6.14315">
        <ele>1172.4</ele>
        <time>2020-09-05T07:02:17Z</time>
      </trkpt>
      <trkpt lat="45.05268" lon="6.14319">
        <ele>1172.8</ele>
        <time>2020-09-05T07:02:18Z</time>
      </trkpt>
      <trkpt lat="45.05271" lon="6.14322">
        <ele>1172.8</ele>
        <time>2020-09-05T07:02:19Z</time>
      </trkpt>
      <trkpt lat="45.05274" lon="6.14325">
        <ele>1173.2</ele>
        <time>2020-09-05T07:02:20Z</time>
      </trkpt>
      <trkpt lat="45.05278" lon="6.14329">
        <ele>1173.4</ele>
        <time>2020-09-05T07:02:21Z</time>
      </trkpt>
      <trkpt lat="45.05281" lon="6.14333">
        <ele>1173.4</ele>
        <time>2020-09-05T07:02:22Z</time>
      </trkpt>
      <trkpt lat="45.05284" lon="6.14336">
        <ele>1173.4</ele>
        <time>2020-09-05T07:02:23Z</time>
      </trkpt>
      <trkpt lat="45.05288" lon="6.14339">
        <ele>1173.6</ele>
        <time>2020-09-05T07:02:24Z</time>
      </trkpt>
      <trkpt lat="45.05292" lon="6.14343">
        <ele>1173.8</ele>
        <time>2020-09-05T07:02:25Z</time>
      </trkpt>
      <trkpt lat="45.05295" lon="6.14346">
        <ele>1173.8</ele>
        <time>2020-09-05T07:02:26Z</time>
      </trkpt>
      <trkpt lat="45.05299" lon="6.14351">
        <ele>1174</ele>
        <time>2020-09-05T07:02:27Z</time>
      </trkpt>
      <trkpt lat="45.05302" lon="6.14355">
        <ele>1174</ele>
        <time>2020-09-05T07:02:28Z</time>
      </trkpt>
      <trkpt lat="45.05305" lon="6.1436">
        <ele>1174</ele>
        <time>2020-09-05T07:02:29Z</time>
      </trkpt>
      <trkpt lat="45.05308" lon="6.14365">
        <ele>1174.2</ele>
        <time>2020-09-05T07:02:30Z</time>
      </trkpt>
      <trkpt lat="45.0531" lon="6.1437">
        <ele>1174.4</ele>
        <time>2020-09-05T07:02:31Z</time>
      </trkpt>
      <trkpt lat="45.05313" lon="6.14375">
        <ele>1174.8</ele>
        <time>2020-09-05T07:02:32Z</time>
      </trkpt>
      <trkpt lat="45.05315" lon="6.1438">
        <ele>1175</ele>
        <time>2020-09-05T07:02:33Z</time>
      </trkpt>
      <trkpt lat="45.05318" lon="6.14385">
        <ele>1175.2</ele>
        <time>2020-09-05T07:02:34Z</time>
      </trkpt>
      <trkpt lat="45.05321" lon="6.1439">
        <ele>1175.2</ele>
        <time>2020-09-05T07:02:35Z</time>
      </trkpt>
      <trkpt lat="45.05324" lon="6.14395">
        <ele>1175.4</ele>
        <time>2020-09-05T07:02:36Z</time>
      </trkpt>
      <trkpt lat="45.05327" lon="6.14399">
        <ele>1175.6</ele>
        <time>2020-09-05T07:02:37Z</time>
      </trkpt>
      <trkpt lat="45.0533" lon="6.14404">
        <ele>1175.6</ele>
        <time>2020-09-05T07:02:38Z</time>
      </trkpt>
      <trkpt lat="45.05334" lon="6.14408">
        <ele>1175.8</ele>
        <time>2020-09-05T07:02:39Z</time>
      </trkpt>
      <trkpt lat="45.05337" lon="6.14413">
        <ele>1176.2</ele>
        <time>2020-09-05T07:02:40Z</time>
      </trkpt>
      <trkpt lat="45.0534" lon="6.14416">
        <ele>1176.2</ele>
        <time>2020-09-05T07:02:41Z</time>
      </trkpt>
      <trkpt lat="45.05343" lon="6.1442">
        <ele>1176.4</ele>
        <time>2020-09-05T07:02:42Z</time>
      </trkpt>
      <trkpt lat="45.05346" lon="6.14423">
        <ele>1176.8</ele>
        <time>2020-09-05T07:02:43Z</time>
      </trkpt>
      <trkpt lat="45.05349" lon="6.14427">
        <ele>1177</ele>
        <time>2020-09-05T07:02:44Z</time>
      </trkpt>
      <trkpt lat="45.05353" lon="6.14429">
        <ele>1177.2</ele>
        <time>2020-09-05T07:02:45Z</time>
      </trkpt>
      <trkpt lat="45.05356" lon="6.14432">
        <ele>1177.8</ele>
        <time>2020-09-05T07:02:46Z</time>
      </trkpt>
      <trkpt lat="45.0536" lon="6.14435">
        <ele>1178</ele>
        <time>2020-09-05T07:02:47Z</time>
      </trkpt>
      <trkpt lat="45.05363" lon="6.14438">
        <ele>1178.2</ele>
        <time>2020-09-05T07:02:48Z</time>
      </trkpt>
      <trkpt lat="45.05367" lon="6.14442">
        <ele>1178.6</ele>
        <time>2020-09-05T07:02:49Z</time>
      </trkpt>
      <trkpt lat="45.05371" lon="6.14445">
        <ele>1178.8</ele>
        <time>2020-09-05T07:02:50Z</time>
      </trkpt>
      <trkpt lat="45.05375" lon="6.14448">
        <ele>1179</ele>
        <time>2020-09-05T07:02:51Z</time>
      </trkpt>
      <trkpt lat="45.05379" lon="6.1445">
        <ele>1179</ele>
        <time>2020-09-05T07:02:52Z</time>
      </trkpt>
      <trkpt lat="45.05383" lon="6.14452">
        <ele>1179.2</ele>
        <time>2020-09-05T07:02:53Z</time>
      </trkpt>
      <trkpt lat="45.05387" lon="6.14454">
        <ele>1179.4</ele>
        <time>2020-09-05T07:02:54Z</time>
      </trkpt>
      <trkpt lat="45.05391" lon="6.14456">
        <ele>1179.6</ele>
        <time>2020-09-05T07:02:55Z</time>
      </trkpt>
      <trkpt lat="45.05395" lon="6.14457">
        <ele>1179.6</ele>
        <time>2020-09-05T07:02:56Z</time>
      </trkpt>
      <trkpt lat="45.05399" lon="6.14458">
        <ele>1179.6</ele>
        <time>2020-09-05T07:02:57Z</time>
      </trkpt>
      <trkpt lat="45.05403" lon="6.14459">
        <ele>1179.8</ele>
        <time>2020-09-05T07:02:58Z</time>
      </trkpt>
      <trkpt lat="45.05407" lon="6.1446">
        <ele>1180</ele>
        <time>2020-09-05T07:02:59Z</time>
      </trkpt>
      <trkpt lat="45.05411" lon="6.14461">
        <ele>1180.2</ele>
        <time>2020-09-05T07:03:00Z</time>
      </trkpt>
      <trkpt lat="45.05415" lon="6.14462">
        <ele>1180.2</ele>
        <time>2020-09-05T07:03:01Z</time>
      </trkpt>
      <trkpt lat="45.0542" lon="6.14462">
        <ele>1180.2</ele>
        <time>2020-09-05T07:03:02Z</time>
      </trkpt>
      <trkpt lat="45.05424" lon="6.14463">
        <ele>1180.8</ele>
        <time>2020-09-05T07:03:03Z</time>
      </trkpt>
      <trkpt lat="45.05428" lon="6.14465">
        <ele>1181</ele>
        <time>2020-09-05T07:03:04Z</time>
      </trkpt>
      <trkpt lat="45.05432" lon="6.14467">
        <ele>1181.2</ele>
        <time>2020-09-05T07:03:05Z</time>
      </trkpt>
      <trkpt lat="45.05435" lon="6.1447">
        <ele>1181.4</ele>
        <time>2020-09-05T07:03:06Z</time>
      </trkpt>
      <trkpt lat="45.05438" lon="6.14473">
        <ele>1181.4</ele>
        <time>2020-09-05T07:03:07Z</time>
      </trkpt>
      <trkpt lat="45.05441" lon="6.14477">
        <ele>1181.8</ele>
        <time>2020-09-05T07:03:08Z</time>
      </trkpt>
      <trkpt lat="45.05444" lon="6.1448">
        <ele>1181.8</ele>
        <time>2020-09-05T07:03:09Z</time>
      </trkpt>
      <trkpt lat="45.05447" lon="6.14484">
        <ele>1182</ele>
        <time>2020-09-05T07:03:10Z</time>
      </trkpt>
      <trkpt lat="45.0545" lon="6.14488">
        <ele>1182.2</ele>
        <time>2020-09-05T07:03:11Z</time>
      </trkpt>
      <trkpt lat="45.05453" lon="6.14491">
        <ele>1182.2</ele>
        <time>2020-09-05T07:03:12Z</time>
      </trkpt>
      <trkpt lat="45.05457" lon="6.14495">
        <ele>1182.4</ele>
        <time>2020-09-05T07:03:13Z</time>
      </trkpt>
      <trkpt lat="45.0546" lon="6.14499">
        <ele>1182.4</ele>
        <time>2020-09-05T07:03:14Z</time>
      </trkpt>
      <trkpt lat="45.05464" lon="6.14503">
        <ele>1182.6</ele>
        <time>2020-09-05T07:03:15Z</time>
      </trkpt>
      <trkpt lat="45.05468" lon="6.14506">
        <ele>1182.4</ele>
        <time>2020-09-05T07:03:16Z</time>
      </trkpt>
      <trkpt lat="45.05472" lon="6.1451">
        <ele>1182.6</ele>
        <time>2020-09-05T07:03:17Z</time>
      </trkpt>
      <trkpt lat="45.05476" lon="6.14513">
        <ele>1182.8</ele>
        <time>2020-09-05T07:03:18Z</time>
      </trkpt>
      <trkpt lat="45.0548" lon="6.14516">
        <ele>1183</ele>
        <time>2020-09-05T07:03:19Z</time>
      </trkpt>
      <trkpt lat="45.05485" lon="6.14518">
        <ele>1183.2</ele>
        <time>2020-09-05T07:03:20Z</time>
      </trkpt>
      <trkpt lat="45.05489" lon="6.14521">
        <ele>1183.2</ele>
        <time>2020-09-05T07:03:21Z</time>
      </trkpt>
      <trkpt lat="45.05493" lon="6.14522">
        <ele>1183.6</ele>
        <time>2020-09-05T07:03:22Z</time>
      </trkpt>
      <trkpt lat="45.05497" lon="6.14524">
        <ele>1183.8</ele>
        <time>2020-09-05T07:03:23Z</time>
      </trkpt>
      <trkpt lat="45.05501" lon="6.14526">
        <ele>1184</ele>
        <time>2020-09-05T07:03:24Z</time>
      </trkpt>
      <trkpt lat="45.05505" lon="6.14529">
        <ele>1184.2</ele>
        <time>2020-09-05T07:03:25Z</time>
      </trkpt>
      <trkpt lat="45.05509" lon="6.14531">
        <ele>1184.4</ele>
        <time>2020-09-05T07:03:26Z</time>
      </trkpt>
      <trkpt lat="45.05513" lon="6.14534">
        <ele>1184.6</ele>
        <time>2020-09-05T07:03:27Z</time>
      </trkpt>
      <trkpt lat="45.05516" lon="6.14537">
        <ele>1185</ele>
        <time>2020-09-05T07:03:28Z</time>
      </trkpt>
      <trkpt lat="45.0552" lon="6.14539">
        <ele>1185.2</ele>
        <time>2020-09-05T07:03:29Z</time>
      </trkpt>
      <trkpt lat="45.05524" lon="6.14541">
        <ele>1185.2</ele>
        <time>2020-09-05T07:03:30Z</time>
      </trkpt>
      <trkpt lat="45.05528" lon="6.14543">
        <ele>1185.2</ele>
        <time>2020-09-05T07:03:31Z</time>
      </trkpt>
      <trkpt lat="45.05532" lon="6.14544">
        <ele>1185.2</ele>
        <time>2020-09-05T07:03:32Z</time>
      </trkpt>
      <trkpt lat="45.05537" lon="6.14546">
        <ele>1185.4</ele>
        <time>2020-09-05T07:03:33Z</time>
      </trkpt>
      <trkpt lat="45.05541" lon="6.14548">
        <ele>1185.4</ele>
        <time>2020-09-05T07:03:34Z</time>
      </trkpt>
      <trkpt lat="45.05545" lon="6.14549">
        <ele>1185.4</ele>
        <time>2020-09-05T07:03:35Z</time>
      </trkpt>
      <trkpt lat="45.05549" lon="6.14551">
        <ele>1185.4</ele>
        <time>2020-09-05T07:03:36Z</time>
      </trkpt>
      <trkpt lat="45.05554" lon="6.14553">
        <ele>1185.4</ele>
        <time>2020-09-05T07:03:37Z</time>
      </trkpt>
      <trkpt lat="45.05559" lon="6.14556">
        <ele>1185.2</ele>
        <time>2020-09-05T07:03:38Z</time>
      </trkpt>
      <trkpt lat="45.05564" lon="6.14558">
        <ele>1185.2</ele>
        <time>2020-09-05T07:03:39Z</time>
      </trkpt>
      <trkpt lat="45.05569" lon="6.14561">
        <ele>1185</ele>
        <time>2020-09-05T07:03:40Z</time>
      </trkpt>
      <trkpt lat="45.05575" lon="6.14564">
        <ele>1184.8</ele>
        <time>2020-09-05T07:03:41Z</time>
      </trkpt>
      <trkpt lat="45.05581" lon="6.14567">
        <ele>1184.4</ele>
        <time>2020-09-05T07:03:42Z</time>
      </trkpt>
      <trkpt lat="45.05587" lon="6.14569">
        <ele>1184.2</ele>
        <time>2020-09-05T07:03:43Z</time>
      </trkpt>
      <trkpt lat="45.05593" lon="6.1457">
        <ele>1184.2</ele>
        <time>2020-09-05T07:03:44Z</time>
      </trkpt>
      <trkpt lat="45.056" lon="6.14571">
        <ele>1184</ele>
        <time>2020-09-05T07:03:45Z</time>
      </trkpt>
      <trkpt lat="45.05607" lon="6.1457">
        <ele>1183.4</ele>
        <time>2020-09-05T07:03:46Z</time>
      </trkpt>
      <trkpt lat="45.05615" lon="6.14569">
        <ele>1183</ele>
        <time>2020-09-05T07:03:47Z</time>
      </trkpt>
      <trkpt lat="45.05623" lon="6.14569">
        <ele>1182.8</ele>
        <time>2020-09-05T07:03:48Z</time>
      </trkpt>
      <trkpt lat="45.05631" lon="6.14569">
        <ele>1182.2</ele>
        <time>2020-09-05T07:03:49Z</time>
      </trkpt>
      <trkpt lat="45.0564" lon="6.14571">
        <ele>1181.8</ele>
        <time>2020-09-05T07:03:50Z</time>
      </trkpt>
      <trkpt lat="45.05649" lon="6.14574">
        <ele>1181.6</ele>
        <time>2020-09-05T07:03:51Z</time>
      </trkpt>
      <trkpt lat="45.05658" lon="6.14579">
        <ele>1181</ele>
        <time>2020-09-05T07:03:52Z</time>
      </trkpt>
      <trkpt lat="45.05665" lon="6.14588">
        <ele>1180.4</ele>
        <time>2020-09-05T07:03:53Z</time>
      </trkpt>
      <trkpt lat="45.05672" lon="6.14599">
        <ele>1179.8</ele>
        <time>2020-09-05T07:03:54Z</time>
      </trkpt>
      <trkpt lat="45.05678" lon="6.14611">
        <ele>1179.6</ele>
        <time>2020-09-05T07:03:55Z</time>
      </trkpt>
      <trkpt lat="45.05684" lon="6.14624">
        <ele>1179.2</ele>
        <time>2020-09-05T07:03:56Z</time>
      </trkpt>
      <trkpt lat="45.05691" lon="6.14636">
        <ele>1178.6</ele>
        <time>2020-09-05T07:03:57Z</time>
      </trkpt>
      <trkpt lat="45.05698" lon="6.14648">
        <ele>1177.6</ele>
        <time>2020-09-05T07:03:58Z</time>
      </trkpt>
      <trkpt lat="45.05706" lon="6.14659">
        <ele>1176.8</ele>
        <time>2020-09-05T07:03:59Z</time>
      </trkpt>
      <trkpt lat="45.05715" lon="6.14668">
        <ele>1176.2</ele>
        <time>2020-09-05T07:04:00Z</time>
      </trkpt>
      <trkpt lat="45.05724" lon="6.14677">
        <ele>1174.6</ele>
        <time>2020-09-05T07:04:01Z</time>
      </trkpt>
      <trkpt lat="45.05732" lon="6.14687">
        <ele>1173.2</ele>
        <time>2020-09-05T07:04:02Z</time>
      </trkpt>
      <trkpt lat="45.0574" lon="6.14698">
        <ele>1172.4</ele>
        <time>2020-09-05T07:04:03Z</time>
      </trkpt>
      <trkpt lat="45.05748" lon="6.14709">
        <ele>1171.4</ele>
        <time>2020-09-05T07:04:04Z</time>
      </trkpt>
      <trkpt lat="45.05757" lon="6.14717">
        <ele>1170.6</ele>
        <time>2020-09-05T07:04:05Z</time>
      </trkpt>
      <trkpt lat="45.05768" lon="6.14723">
        <ele>1169.4</ele>
        <time>2020-09-05T07:04:06Z</time>
      </trkpt>
      <trkpt lat="45.0578" lon="6.14727">
        <ele>1168.2</ele>
        <time>2020-09-05T07:04:07Z</time>
      </trkpt>
      <trkpt lat="45.05792" lon="6.14732">
        <ele>1167</ele>
        <time>2020-09-05T07:04:08Z</time>
      </trkpt>
      <trkpt lat="45.05803" lon="6.1474">
        <ele>1166.4</ele>
        <time>2020-09-05T07:04:09Z</time>
      </trkpt>
      <trkpt lat="45.05814" lon="6.1475">
        <ele>1165.4</ele>
        <time>2020-09-05T07:04:10Z</time>
      </trkpt>
      <trkpt lat="45.05824" lon="6.14761">
        <ele>1164.2</ele>
        <time>2020-09-05T07:04:11Z</time>
      </trkpt>
      <trkpt lat="45.05835" lon="6.14772">
        <ele>1163.6</ele>
        <time>2020-09-05T07:04:12Z</time>
      </trkpt>
      <trkpt lat="45.05845" lon="6.14783">
        <ele>1162.8</ele>
        <time>2020-09-05T07:04:13Z</time>
      </trkpt>
      <trkpt lat="45.05857" lon="6.14791">
        <ele>1161.8</ele>
        <time>2020-09-05T07:04:14Z</time>
      </trkpt>
      <trkpt lat="45.05868" lon="6.14799">
        <ele>1161.4</ele>
        <time>2020-09-05T07:04:15Z</time>
      </trkpt>
      <trkpt lat="45.05878" lon="6.14806">
        <ele>1161.2</ele>
        <time>2020-09-05T07:04:16Z</time>
      </trkpt>
      <trkpt lat="45.05887" lon="6.14813">
        <ele>1161.2</ele>
        <time>2020-09-05T07:04:17Z</time>
      </trkpt>
      <trkpt lat="45.05895" lon="6.14819">
        <ele>1161.4</ele>
        <time>2020-09-05T07:04:18Z</time>
      </trkpt>
      <trkpt lat="45.05902" lon="6.14825">
        <ele>1161.6</ele>
        <time>2020-09-05T07:04:19Z</time>
      </trkpt>
      <trkpt lat="45.05908" lon="6.14831">
        <ele>1162</ele>
        <time>2020-09-05T07:04:20Z</time>
      </trkpt>
      <trkpt lat="45.05913" lon="6.14836">
        <ele>1163</ele>
        <time>2020-09-05T07:04:21Z</time>
      </trkpt>
      <trkpt lat="45.05917" lon="6.14841">
        <ele>1163.4</ele>
        <time>2020-09-05T07:04:22Z</time>
      </trkpt>
      <trkpt lat="45.05921" lon="6.14845">
        <ele>1163.6</ele>
        <time>2020-09-05T07:04:23Z</time>
      </trkpt>
      <trkpt lat="45.05925" lon="6.14847">
        <ele>1164</ele>
        <time>2020-09-05T07:04:24Z</time>
      </trkpt>
      <trkpt lat="45.05927" lon="6.14849">
        <ele>1164.4</ele>
        <time>2020-09-05T07:04:25Z</time>
      </trkpt>
      <trkpt lat="45.05929" lon="6.14851">
        <ele>1164.8</ele>
        <time>2020-09-05T07:04:26Z</time>
      </trkpt>
      <trkpt lat="45.05932" lon="6.14852">
        <ele>1165.2</ele>
        <time>2020-09-05T07:04:27Z</time>
      </trkpt>
      <trkpt lat="45.05934" lon="6.14853">
        <ele>1165.6</ele>
        <time>2020-09-05T07:04:28Z</time>
      </trkpt>
      <trkpt lat="45.05935" lon="6.14855">
        <ele>1166</ele>
        <time>2020-09-05T07:04:29Z</time>
      </trkpt>
      <trkpt lat="45.05937" lon="6.14856">
        <ele>1166.2</ele>
        <time>2020-09-05T07:04:30Z</time>
      </trkpt>
      <trkpt lat="45.05939" lon="6.14858">
        <ele>1166.8</ele>
        <time>2020-09-05T07:04:31Z</time>
      </trkpt>
      <trkpt lat="45.05941" lon="6.14859">
        <ele>1167.2</ele>
        <time>2020-09-05T07:04:32Z</time>
      </trkpt>
      <trkpt lat="45.05942" lon="6.14861">
        <ele>1167.4</ele>
        <time>2020-09-05T07:04:33Z</time>
      </trkpt>
      <trkpt lat="45.05944" lon="6.14863">
        <ele>1167.8</ele>
        <time>2020-09-05T07:04:34Z</time>
      </trkpt>
      <trkpt lat="45.05945" lon="6.14865">
        <ele>1168.2</ele>
        <time>2020-09-05T07:04:35Z</time>
      </trkpt>
      <trkpt lat="45.05946" lon="6.14867">
        <ele>1168.4</ele>
        <time>2020-09-05T07:04:36Z</time>
      </trkpt>
      <trkpt lat="45.05948" lon="6.14869">
        <ele>1168.8</ele>
        <time>2020-09-05T07:04:37Z</time>
      </trkpt>
      <trkpt lat="45.05949" lon="6.14871">
        <ele>1169.2</ele>
        <time>2020-09-05T07:04:38Z</time>
      </trkpt>
      <trkpt lat="45.05951" lon="6.14873">
        <ele>1169.6</ele>
        <time>2020-09-05T07:04:39Z</time>
      </trkpt>
      <trkpt lat="45.05952" lon="6.14875">
        <ele>1170</ele>
        <time>2020-09-05T07:04:40Z</time>
      </trkpt>
      <trkpt lat="45.05954" lon="6.14877">
        <ele>1170</ele>
        <time>2020-09-05T07:04:41Z</time>
      </trkpt>
      <trkpt lat="45.05955" lon="6.14879">
        <ele>1170.6</ele>
        <time>2020-09-05T07:04:42Z</time>
      </trkpt>
      <trkpt lat="45.05956" lon="6.14881">
        <ele>1170.8</ele>
        <time>2020-09-05T07:04:43Z</time>
      </trkpt>
      <trkpt lat="45.05958" lon="6.14883">
        <ele>1171</ele>
        <time>2020-09-05T07:04:44Z</time>
      </trkpt>
      <trkpt lat="45.05959" lon="6.14885">
        <ele>1171.2</ele>
        <time>2020-09-05T07:04:45Z</time>
      </trkpt>
      <trkpt lat="45.0596" lon="6.14887">
        <ele>1171.6</ele>
        <time>2020-09-05T07:04:46Z</time>
      </trkpt>
      <trkpt lat="45.05962" lon="6.14889">
        <ele>1171.8</ele>
        <time>2020-09-05T07:04:47Z</time>
      </trkpt>
      <trkpt lat="45.05963" lon="6.14891">
        <ele>1172</ele>
        <time>2020-09-05T07:04:48Z</time>
      </trkpt>
      <trkpt lat="45.05964" lon="6.14893">
        <ele>1172.2</ele>
        <time>2020-09-05T07:04:49Z</time>
      </trkpt>
      <trkpt lat="45.05965" lon="6.14896">
        <ele>1173</ele>
        <time>2020-09-05T07:04:50Z</time>
      </trkpt>
      <trkpt lat="45.05967" lon="6.14898">
        <ele>1173.2</ele>
        <time>2020-09-05T07:04:51Z</time>
      </trkpt>
      <trkpt lat="45.05968" lon="6.149">
        <ele>1173.4</ele>
        <time>2020-09-05T07:04:52Z</time>
      </trkpt>
      <trkpt lat="45.05969" lon="6.14903">
        <ele>1173.6</ele>
        <time>2020-09-05T07:04:53Z</time>
      </trkpt>
      <trkpt lat="45.05971" lon="6.14905">
        <ele>1173.8</ele>
        <time>2020-09-05T07:04:54Z</time>
      </trkpt>
      <trkpt lat="45.05972" lon="6.14907">
        <ele>1174</ele>
        <time>2020-09-05T07:04:55Z</time>
      </trkpt>
      <trkpt lat="45.05973" lon="6.1491">
        <ele>1174.4</ele>
        <time>2020-09-05T07:04:56Z</time>
      </trkpt>
      <trkpt lat="45.05975" lon="6.14912">
        <ele>1174.8</ele>
        <time>2020-09-05T07:04:57Z</time>
      </trkpt>
      <trkpt lat="45.05976" lon="6.14914">
        <ele>1175.2</ele>
        <time>2020-09-05T07:04:58Z</time>
      </trkpt>
      <trkpt lat="45.05978" lon="6.14916">
        <ele>1175.6</ele>
        <time>2020-09-05T07:04:59Z</time>
      </trkpt>
      <trkpt lat="45.05979" lon="6.14918">
        <ele>1176</ele>
        <time>2020-09-05T07:05:00Z</time>
      </trkpt>
      <trkpt lat="45.0598" lon="6.14921">
        <ele>1176.2</ele>
        <time>2020-09-05T07:05:01Z</time>
      </trkpt>
      <trkpt lat="45.05981" lon="6.14925">
        <ele>1176.8</ele>
        <time>2020-09-05T07:05:03Z</time>
      </trkpt>
      <trkpt lat="45.05981" lon="6.14927">
        <ele>1177.2</ele>
        <time>2020-09-05T07:05:04Z</time>
      </trkpt>
      <trkpt lat="45.05982" lon="6.1493">
        <ele>1177.6</ele>
        <time>2020-09-05T07:05:05Z</time>
      </trkpt>
      <trkpt lat="45.05982" lon="6.14933">
        <ele>1178.2</ele>
        <time>2020-09-05T07:05:06Z</time>
      </trkpt>
      <trkpt lat="45.05983" lon="6.14936">
        <ele>1178.4</ele>
        <time>2020-09-05T07:05:07Z</time>
      </trkpt>
      <trkpt lat="45.05984" lon="6.14938">
        <ele>1178.4</ele>
        <time>2020-09-05T07:05:08Z</time>
      </trkpt>
      <trkpt lat="45.05985" lon="6.14941">
        <ele>1178.8</ele>
        <time>2020-09-05T07:05:09Z</time>
      </trkpt>
      <trkpt lat="45.05986" lon="6.14944">
        <ele>1179</ele>
        <time>2020-09-05T07:05:10Z</time>
      </trkpt>
      <trkpt lat="45.05987" lon="6.14946">
        <ele>1179.4</ele>
        <time>2020-09-05T07:05:11Z</time>
      </trkpt>
      <trkpt lat="45.05988" lon="6.14949">
        <ele>1179.6</ele>
        <time>2020-09-05T07:05:12Z</time>
      </trkpt>
      <trkpt lat="45.05989" lon="6.14951">
        <ele>1179.8</ele>
        <time>2020-09-05T07:05:13Z</time>
      </trkpt>
      <trkpt lat="45.05991" lon="6.14953">
        <ele>1180</ele>
        <time>2020-09-05T07:05:14Z</time>
      </trkpt>
      <trkpt lat="45.05994" lon="6.14954">
        <ele>1180.4</ele>
        <time>2020-09-05T07:05:15Z</time>
      </trkpt>
      <trkpt lat="45.05996" lon="6.14954">
        <ele>1180.6</ele>
        <time>2020-09-05T07:05:16Z</time>
      </trkpt>
      <trkpt lat="45.05998" lon="6.14952">
        <ele>1180.8</ele>
        <time>2020-09-05T07:05:17Z</time>
      </trkpt>
      <trkpt lat="45.06" lon="6.14949">
        <ele>1180.8</ele>
        <time>2020-09-05T07:05:18Z</time>
      </trkpt>
      <trkpt lat="45.06002" lon="6.14946">
        <ele>1181</ele>
        <time>2020-09-05T07:05:19Z</time>
      </trkpt>
      <trkpt lat="45.06002" lon="6.14942">
        <ele>1181.4</ele>
        <time>2020-09-05T07:05:20Z</time>
      </trkpt>
      <trkpt lat="45.06003" lon="6.14938">
        <ele>1181.6</ele>
        <time>2020-09-05T07:05:21Z</time>
      </trkpt>
      <trkpt lat="45.06002" lon="6.14934">
        <ele>1182</ele>
        <time>2020-09-05T07:05:22Z</time>
      </trkpt>
      <trkpt lat="45.06001" lon="6.14931">
        <ele>1182</ele>
        <time>2020-09-05T07:05:23Z</time>
      </trkpt>
      <trkpt lat="45.06" lon="6.14927">
        <ele>1182.2</ele>
        <time>2020-09-05T07:05:24Z</time>
      </trkpt>
      <trkpt lat="45.05999" lon="6.14924">
        <ele>1182.6</ele>
        <time>2020-09-05T07:05:25Z</time>
      </trkpt>
      <trkpt lat="45.05997" lon="6.1492">
        <ele>1183</ele>
        <time>2020-09-05T07:05:26Z</time>
      </trkpt>
      <trkpt lat="45.05996" lon="6.14917">
        <ele>1183.2</ele>
        <time>2020-09-05T07:05:27Z</time>
      </trkpt>
      <trkpt lat="45.05995" lon="6.14914">
        <ele>1183.4</ele>
        <time>2020-09-05T07:05:28Z</time>
      </trkpt>
      <trkpt lat="45.05993" lon="6.1491">
        <ele>1183.8</ele>
        <time>2020-09-05T07:05:29Z</time>
      </trkpt>
      <trkpt lat="45.05992" lon="6.14907">
        <ele>1183.8</ele>
        <time>2020-09-05T07:05:30Z</time>
      </trkpt>
      <trkpt lat="45.05991" lon="6.14904">
        <ele>1184</ele>
        <time>2020-09-05T07:05:31Z</time>
      </trkpt>
      <trkpt lat="45.0599" lon="6.14901">
        <ele>1184.2</ele>
        <time>2020-09-05T07:05:32Z</time>
      </trkpt>
      <trkpt lat="45.05988" lon="6.14898">
        <ele>1184.6</ele>
        <time>2020-09-05T07:05:33Z</time>
      </trkpt>
      <trkpt lat="45.05987" lon="6.14895">
        <ele>1184.8</ele>
        <time>2020-09-05T07:05:34Z</time>
      </trkpt>
      <trkpt lat="45.05986" lon="6.14892">
        <ele>1185</ele>
        <time>2020-09-05T07:05:35Z</time>
      </trkpt>
      <trkpt lat="45.05985" lon="6.14889">
        <ele>1185.4</ele>
        <time>2020-09-05T07:05:36Z</time>
      </trkpt>
      <trkpt lat="45.05984" lon="6.14886">
        <ele>1185.6</ele>
        <time>2020-09-05T07:05:37Z</time>
      </trkpt>
      <trkpt lat="45.05983" lon="6.14883">
        <ele>1185.6</ele>
        <time>2020-09-05T07:05:38Z</time>
      </trkpt>
      <trkpt lat="45.05981" lon="6.1488">
        <ele>1186.2</ele>
        <time>2020-09-05T07:05:39Z</time>
      </trkpt>
      <trkpt lat="45.0598" lon="6.14877">
        <ele>1186.2</ele>
        <time>2020-09-05T07:05:40Z</time>
      </trkpt>
      <trkpt lat="45.05979" lon="6.14874">
        <ele>1186.6</ele>
        <time>2020-09-05T07:05:41Z</time>
      </trkpt>
      <trkpt lat="45.05978" lon="6.14871">
        <ele>1186.8</ele>
        <time>2020-09-05T07:05:42Z</time>
      </trkpt>
      <trkpt lat="45.05976" lon="6.14868">
        <ele>1187</ele>
        <time>2020-09-05T07:05:43Z</time>
      </trkpt>
      <trkpt lat="45.05975" lon="6.14865">
        <ele>1187.2</ele>
        <time>2020-09-05T07:05:44Z</time>
      </trkpt>
      <trkpt lat="45.05974" lon="6.14862">
        <ele>1187.2</ele>
        <time>2020-09-05T07:05:45Z</time>
      </trkpt>
      <trkpt lat="45.05973" lon="6.14859">
        <ele>1187.6</ele>
        <time>2020-09-05T07:05:46Z</time>
      </trkpt>
      <trkpt lat="45.05971" lon="6.14856">
        <ele>1188</ele>
        <time>2020-09-05T07:05:47Z</time>
      </trkpt>
      <trkpt lat="45.0597" lon="6.14853">
        <ele>1188.2</ele>
        <time>2020-09-05T07:05:48Z</time>
      </trkpt>
      <trkpt lat="45.05969" lon="6.14849">
        <ele>1188.4</ele>
        <time>2020-09-05T07:05:49Z</time>
      </trkpt>
      <trkpt lat="45.05968" lon="6.14846">
        <ele>1188.6</ele>
        <time>2020-09-05T07:05:50Z</time>
      </trkpt>
      <trkpt lat="45.05966" lon="6.14843">
        <ele>1189.2</ele>
        <time>2020-09-05T07:05:51Z</time>
      </trkpt>
      <trkpt lat="45.05965" lon="6.1484">
        <ele>1189.4</ele>
        <time>2020-09-05T07:05:52Z</time>
      </trkpt>
      <trkpt lat="45.05963" lon="6.14837">
        <ele>1189.6</ele>
        <time>2020-09-05T07:05:53Z</time>
      </trkpt>
      <trkpt lat="45.05962" lon="6.14833">
        <ele>1189.8</ele>
        <time>2020-09-05T07:05:54Z</time>
      </trkpt>
      <trkpt lat="45.05962" lon="6.1483">
        <ele>1190.2</ele>
        <time>2020-09-05T07:05:55Z</time>
      </trkpt>
      <trkpt lat="45.05961" lon="6.14827">
        <ele>1190.2</ele>
        <time>2020-09-05T07:05:56Z</time>
      </trkpt>
      <trkpt lat="45.0596" lon="6.14824">
        <ele>1190.6</ele>
        <time>2020-09-05T07:05:57Z</time>
      </trkpt>
      <trkpt lat="45.0596" lon="6.14821">
        <ele>1190.8</ele>
        <time>2020-09-05T07:05:58Z</time>
      </trkpt>
      <trkpt lat="45.05959" lon="6.14817">
        <ele>1191.2</ele>
        <time>2020-09-05T07:05:59Z</time>
      </trkpt>
      <trkpt lat="45.05958" lon="6.14814">
        <ele>1191.4</ele>
        <time>2020-09-05T07:06:00Z</time>
      </trkpt>
      <trkpt lat="45.05957" lon="6.14811">
        <ele>1191.6</ele>
        <time>2020-09-05T07:06:01Z</time>
      </trkpt>
      <trkpt lat="45.05957" lon="6.14808">
        <ele>1191.8</ele>
        <time>2020-09-05T07:06:02Z</time>
      </trkpt>
      <trkpt lat="45.05956" lon="6.14805">
        <ele>1192.2</ele>
        <time>2020-09-05T07:06:03Z</time>
      </trkpt>
      <trkpt lat="45.05956" lon="6.14803">
        <ele>1192.6</ele>
        <time>2020-09-05T07:06:04Z</time>
      </trkpt>
      <trkpt lat="45.05955" lon="6.148">
        <ele>1192.8</ele>
        <time>2020-09-05T07:06:05Z</time>
      </trkpt>
      <trkpt lat="45.05954" lon="6.14797">
        <ele>1193</ele>
        <time>2020-09-05T07:06:06Z</time>
      </trkpt>
      <trkpt lat="45.05954" lon="6.14794">
        <ele>1193.2</ele>
        <time>2020-09-05T07:06:07Z</time>
      </trkpt>
      <trkpt lat="45.05953" lon="6.14791">
        <ele>1193.4</ele>
        <time>2020-09-05T07:06:08Z</time>
      </trkpt>
      <trkpt lat="45.05952" lon="6.14788">
        <ele>1193.6</ele>
        <time>2020-09-05T07:06:09Z</time>
      </trkpt>
      <trkpt lat="45.05952" lon="6.14785">
        <ele>1193.8</ele>
        <time>2020-09-05T07:06:10Z</time>
      </trkpt>
      <trkpt lat="45.05951" lon="6.14782">
        <ele>1194.2</ele>
        <time>2020-09-05T07:06:11Z</time>
      </trkpt>
      <trkpt lat="45.0595" lon="6.14779">
        <ele>1194.2</ele>
        <time>2020-09-05T07:06:12Z</time>
      </trkpt>
      <trkpt lat="45.0595" lon="6.14776">
        <ele>1194.4</ele>
        <time>2020-09-05T07:06:13Z</time>
      </trkpt>
      <trkpt lat="45.05949" lon="6.14773">
        <ele>1194.6</ele>
        <time>2020-09-05T07:06:14Z</time>
      </trkpt>
      <trkpt lat="45.05948" lon="6.1477">
        <ele>1194.8</ele>
        <time>2020-09-05T07:06:15Z</time>
      </trkpt>
      <trkpt lat="45.05947" lon="6.14767">
        <ele>1195</ele>
        <time>2020-09-05T07:06:16Z</time>
      </trkpt>
      <trkpt lat="45.05946" lon="6.14764">
        <ele>1195.4</ele>
        <time>2020-09-05T07:06:17Z</time>
      </trkpt>
      <trkpt lat="45.05946" lon="6.14761">
        <ele>1195.6</ele>
        <time>2020-09-05T07:06:18Z</time>
      </trkpt>
      <trkpt lat="45.05945" lon="6.14758">
        <ele>1195.8</ele>
        <time>2020-09-05T07:06:19Z</time>
      </trkpt>
      <trkpt lat="45.05944" lon="6.14755">
        <ele>1196.2</ele>
        <time>2020-09-05T07:06:20Z</time>
      </trkpt>
      <trkpt lat="45.05943" lon="6.14752">
        <ele>1196.4</ele>
        <time>2020-09-05T07:06:21Z</time>
      </trkpt>
      <trkpt lat="45.05942" lon="6.14749">
        <ele>1196.6</ele>
        <time>2020-09-05T07:06:22Z</time>
      </trkpt>
      <trkpt lat="45.05941" lon="6.14746">
        <ele>1196.8</ele>
        <time>2020-09-05T07:06:23Z</time>
      </trkpt>
      <trkpt lat="45.0594" lon="6.14743">
        <ele>1197</ele>
        <time>2020-09-05T07:06:24Z</time>
      </trkpt>
      <trkpt lat="45.05939" lon="6.14741">
        <ele>1197.2</ele>
        <time>2020-09-05T07:06:25Z</time>
      </trkpt>
      <trkpt lat="45.05938" lon="6.14738">
        <ele>1197.4</ele>
        <time>2020-09-05T07:06:26Z</time>
      </trkpt>
      <trkpt lat="45.05937" lon="6.14735">
        <ele>1197.8</ele>
        <time>2020-09-05T07:06:27Z</time>
      </trkpt>
      <trkpt lat="45.05936" lon="6.14732">
        <ele>1198</ele>
        <time>2020-09-05T07:06:28Z</time>
      </trkpt>
      <trkpt lat="45.05935" lon="6.14729">
        <ele>1198.2</ele>
        <time>2020-09-05T07:06:29Z</time>
      </trkpt>
      <trkpt lat="45.05934" lon="6.14726">
        <ele>1198.2</ele>
        <time>2020-09-05T07:06:30Z</time>
      </trkpt>
      <trkpt lat="45.05933" lon="6.14723">
        <ele>1198.4</ele>
        <time>2020-09-05T07:06:31Z</time>
      </trkpt>
      <trkpt lat="45.05932" lon="6.14721">
        <ele>1198.6</ele>
        <time>2020-09-05T07:06:32Z</time>
      </trkpt>
      <trkpt lat="45.05931" lon="6.14719">
        <ele>1199</ele>
        <time>2020-09-05T07:06:33Z</time>
      </trkpt>
      <trkpt lat="45.05929" lon="6.14717">
        <ele>1199.4</ele>
        <time>2020-09-05T07:06:34Z</time>
      </trkpt>
      <trkpt lat="45.05927" lon="6.14716">
        <ele>1199.6</ele>
        <time>2020-09-05T07:06:35Z</time>
      </trkpt>
      <trkpt lat="45.05926" lon="6.14713">
        <ele>1199.6</ele>
        <time>2020-09-05T07:06:36Z</time>
      </trkpt>
      <trkpt lat="45.05926" lon="6.14708">
        <ele>1200</ele>
        <time>2020-09-05T07:06:38Z</time>
      </trkpt>
      <trkpt lat="45.05926" lon="6.14706">
        <ele>1200.2</ele>
        <time>2020-09-05T07:06:39Z</time>
      </trkpt>
      <trkpt lat="45.05926" lon="6.14703">
        <ele>1200.4</ele>
        <time>2020-09-05T07:06:40Z</time>
      </trkpt>
      <trkpt lat="45.05925" lon="6.147">
        <ele>1200.6</ele>
        <time>2020-09-05T07:06:41Z</time>
      </trkpt>
      <trkpt lat="45.05924" lon="6.14698">
        <ele>1200.8</ele>
        <time>2020-09-05T07:06:42Z</time>
      </trkpt>
      <trkpt lat="45.05922" lon="6.14697">
        <ele>1201</ele>
        <time>2020-09-05T07:06:43Z</time>
      </trkpt>
      <trkpt lat="45.0592" lon="6.14695">
        <ele>1201.2</ele>
        <time>2020-09-05T07:06:44Z</time>
      </trkpt>
      <trkpt lat="45.05919" lon="6.14692">
        <ele>1201.2</ele>
        <time>2020-09-05T07:06:45Z</time>
      </trkpt>
      <trkpt lat="45.05918" lon="6.1469">
        <ele>1201.6</ele>
        <time>2020-09-05T07:06:46Z</time>
      </trkpt>
      <trkpt lat="45.05918" lon="6.14687">
        <ele>1201.6</ele>
        <time>2020-09-05T07:06:47Z</time>
      </trkpt>
      <trkpt lat="45.05917" lon="6.14684">
        <ele>1201.8</ele>
        <time>2020-09-05T07:06:48Z</time>
      </trkpt>
      <trkpt lat="45.05917" lon="6.14681">
        <ele>1202</ele>
        <time>2020-09-05T07:06:49Z</time>
      </trkpt>
      <trkpt lat="45.05916" lon="6.14679">
        <ele>1202.2</ele>
        <time>2020-09-05T07:06:50Z</time>
      </trkpt>
      <trkpt lat="45.05915" lon="6.14676">
        <ele>1202.4</ele>
        <time>2020-09-05T07:06:51Z</time>
      </trkpt>
      <trkpt lat="45.05913" lon="6.14674">
        <ele>1202.8</ele>
        <time>2020-09-05T07:06:52Z</time>
      </trkpt>
      <trkpt lat="45.05912" lon="6.14673">
        <ele>1202.8</ele>
        <time>2020-09-05T07:06:53Z</time>
      </trkpt>
      <trkpt lat="45.0591" lon="6.1467">
        <ele>1203.2</ele>
        <time>2020-09-05T07:06:54Z</time>
      </trkpt>
      <trkpt lat="45.05909" lon="6.14668">
        <ele>1203</ele>
        <time>2020-09-05T07:06:55Z</time>
      </trkpt>
      <trkpt lat="45.05908" lon="6.14666">
        <ele>1203.2</ele>
        <time>2020-09-05T07:06:56Z</time>
      </trkpt>
      <trkpt lat="45.05907" lon="6.14664">
        <ele>1203.6</ele>
        <time>2020-09-05T07:06:57Z</time>
      </trkpt>
      <trkpt lat="45.05906" lon="6.14661">
        <ele>1203.6</ele>
        <time>2020-09-05T07:06:58Z</time>
      </trkpt>
      <trkpt lat="45.05906" lon="6.14658">
        <ele>1203.8</ele>
        <time>2020-09-05T07:06:59Z</time>
      </trkpt>
      <trkpt lat="45.05906" lon="6.14655">
        <ele>1204</ele>
        <time>2020-09-05T07:07:00Z</time>
      </trkpt>
      <trkpt lat="45.05906" lon="6.14652">
        <ele>1204.4</ele>
        <time>2020-09-05T07:07:01Z</time>
      </trkpt>
      <trkpt lat="45.05908" lon="6.1465">
        <ele>1204.6</ele>
        <time>2020-09-05T07:07:02Z</time>
      </trkpt>
      <trkpt lat="45.05909" lon="6.14649">
        <ele>1204.8</ele>
        <time>2020-09-05T07:07:03Z</time>
      </trkpt>
      <trkpt lat="45.05911" lon="6.14648">
        <ele>1205</ele>
        <time>2020-09-05T07:07:04Z</time>
      </trkpt>
      <trkpt lat="45.05913" lon="6.14649">
        <ele>1205.2</ele>
        <time>2020-09-05T07:07:05Z</time>
      </trkpt>
      <trkpt lat="45.05915" lon="6.14651">
        <ele>1205.4</ele>
        <time>2020-09-05T07:07:06Z</time>
      </trkpt>
      <trkpt lat="45.05916" lon="6.14653">
        <ele>1205.6</ele>
        <time>2020-09-05T07:07:07Z</time>
      </trkpt>
      <trkpt lat="45.05917" lon="6.14656">
        <ele>1205.6</ele>
        <time>2020-09-05T07:07:08Z</time>
      </trkpt>
      <trkpt lat="45.05918" lon="6.14659">
        <ele>1206</ele>
        <time>2020-09-05T07:07:09Z</time>
      </trkpt>
      <trkpt lat="45.05919" lon="6.14663">
        <ele>1206.2</ele>
        <time>2020-09-05T07:07:10Z</time>
      </trkpt>
      <trkpt lat="45.05921" lon="6.14665">
        <ele>1206.6</ele>
        <time>2020-09-05T07:07:11Z</time>
      </trkpt>
      <trkpt lat="45.05922" lon="6.14668">
        <ele>1206.6</ele>
        <time>2020-09-05T07:07:12Z</time>
      </trkpt>
      <trkpt lat="45.05924" lon="6.14671">
        <ele>1206.8</ele>
        <time>2020-09-05T07:07:13Z</time>
      </trkpt>
      <trkpt lat="45.05925" lon="6.14674">
        <ele>1207</ele>
        <time>2020-09-05T07:07:14Z</time>
      </trkpt>
      <trkpt lat="45.05927" lon="6.14676">
        <ele>1207.2</ele>
        <time>2020-09-05T07:07:15Z</time>
      </trkpt>
      <trkpt lat="45.05928" lon="6.14678">
        <ele>1207.2</ele>
        <time>2020-09-05T07:07:16Z</time>
      </trkpt>
      <trkpt lat="45.0593" lon="6.1468">
        <ele>1207.4</ele>
        <time>2020-09-05T07:07:17Z</time>
      </trkpt>
      <trkpt lat="45.05932" lon="6.14682">
        <ele>1207.6</ele>
        <time>2020-09-05T07:07:18Z</time>
      </trkpt>
      <trkpt lat="45.05933" lon="6.14684">
        <ele>1208</ele>
        <time>2020-09-05T07:07:19Z</time>
      </trkpt>
      <trkpt lat="45.05935" lon="6.14687">
        <ele>1208.2</ele>
        <time>2020-09-05T07:07:20Z</time>
      </trkpt>
      <trkpt lat="45.05937" lon="6.14689">
        <ele>1208.4</ele>
        <time>2020-09-05T07:07:21Z</time>
      </trkpt>
      <trkpt lat="45.05939" lon="6.14691">
        <ele>1208.6</ele>
        <time>2020-09-05T07:07:22Z</time>
      </trkpt>
      <trkpt lat="45.05941" lon="6.14692">
        <ele>1208.6</ele>
        <time>2020-09-05T07:07:23Z</time>
      </trkpt>
      <trkpt lat="45.05943" lon="6.14694">
        <ele>1208.8</ele>
        <time>2020-09-05T07:07:24Z</time>
      </trkpt>
      <trkpt lat="45.05945" lon="6.14696">
        <ele>1208.8</ele>
        <time>2020-09-05T07:07:25Z</time>
      </trkpt>
      <trkpt lat="45.05947" lon="6.14698">
        <ele>1209.2</ele>
        <time>2020-09-05T07:07:26Z</time>
      </trkpt>
      <trkpt lat="45.05949" lon="6.14699">
        <ele>1209.4</ele>
        <time>2020-09-05T07:07:27Z</time>
      </trkpt>
      <trkpt lat="45.05951" lon="6.14701">
        <ele>1209.4</ele>
        <time>2020-09-05T07:07:28Z</time>
      </trkpt>
      <trkpt lat="45.05953" lon="6.14703">
        <ele>1209.8</ele>
        <time>2020-09-05T07:07:29Z</time>
      </trkpt>
      <trkpt lat="45.05955" lon="6.14704">
        <ele>1210.2</ele>
        <time>2020-09-05T07:07:30Z</time>
      </trkpt>
      <trkpt lat="45.05957" lon="6.14706">
        <ele>1210.4</ele>
        <time>2020-09-05T07:07:31Z</time>
      </trkpt>
      <trkpt lat="45.05959" lon="6.14707">
        <ele>1210.6</ele>
        <time>2020-09-05T07:07:32Z</time>
      </trkpt>
      <trkpt lat="45.0596" lon="6.14709">
        <ele>1210.8</ele>
        <time>2020-09-05T07:07:33Z</time>
      </trkpt>
      <trkpt lat="45.05962" lon="6.14711">
        <ele>1211</ele>
        <time>2020-09-05T07:07:34Z</time>
      </trkpt>
      <trkpt lat="45.05964" lon="6.14712">
        <ele>1211.2</ele>
        <time>2020-09-05T07:07:35Z</time>
      </trkpt>
      <trkpt lat="45.05966" lon="6.14713">
        <ele>1211.4</ele>
        <time>2020-09-05T07:07:36Z</time>
      </trkpt>
      <trkpt lat="45.05968" lon="6.14714">
        <ele>1211.6</ele>
        <time>2020-09-05T07:07:37Z</time>
      </trkpt>
      <trkpt lat="45.05969" lon="6.14715">
        <ele>1211.6</ele>
        <time>2020-09-05T07:07:38Z</time>
      </trkpt>
      <trkpt lat="45.05971" lon="6.14717">
        <ele>1212</ele>
        <time>2020-09-05T07:07:39Z</time>
      </trkpt>
      <trkpt lat="45.05973" lon="6.14718">
        <ele>1212</ele>
        <time>2020-09-05T07:07:40Z</time>
      </trkpt>
      <trkpt lat="45.05975" lon="6.1472">
        <ele>1212.2</ele>
        <time>2020-09-05T07:07:41Z</time>
      </trkpt>
      <trkpt lat="45.05977" lon="6.14721">
        <ele>1212.6</ele>
        <time>2020-09-05T07:07:42Z</time>
      </trkpt>
      <trkpt lat="45.05979" lon="6.14722">
        <ele>1213</ele>
        <time>2020-09-05T07:07:43Z</time>
      </trkpt>
      <trkpt lat="45.05981" lon="6.14724">
        <ele>1213.4</ele>
        <time>2020-09-05T07:07:44Z</time>
      </trkpt>
      <trkpt lat="45.05983" lon="6.14725">
        <ele>1213.6</ele>
        <time>2020-09-05T07:07:45Z</time>
      </trkpt>
      <trkpt lat="45.05985" lon="6.14727">
        <ele>1213.8</ele>
        <time>2020-09-05T07:07:46Z</time>
      </trkpt>
      <trkpt lat="45.05987" lon="6.14728">
        <ele>1213.8</ele>
        <time>2020-09-05T07:07:47Z</time>
      </trkpt>
      <trkpt lat="45.05989" lon="6.1473">
        <ele>1214</ele>
        <time>2020-09-05T07:07:48Z</time>
      </trkpt>
      <trkpt lat="45.05991" lon="6.14731">
        <ele>1214.2</ele>
        <time>2020-09-05T07:07:49Z</time>
      </trkpt>
      <trkpt lat="45.05993" lon="6.14732">
        <ele>1214.4</ele>
        <time>2020-09-05T07:07:50Z</time>
      </trkpt>
      <trkpt lat="45.05995" lon="6.14733">
        <ele>1214.6</ele>
        <time>2020-09-05T07:07:51Z</time>
      </trkpt>
      <trkpt lat="45.05997" lon="6.14734">
        <ele>1214.8</ele>
        <time>2020-09-05T07:07:52Z</time>
      </trkpt>
      <trkpt lat="45.05999" lon="6.14735">
        <ele>1215</ele>
        <time>2020-09-05T07:07:53Z</time>
      </trkpt>
      <trkpt lat="45.06" lon="6.14737">
        <ele>1215.4</ele>
        <time>2020-09-05T07:07:54Z</time>
      </trkpt>
      <trkpt lat="45.06002" lon="6.14738">
        <ele>1215.6</ele>
        <time>2020-09-05T07:07:55Z</time>
      </trkpt>
      <trkpt lat="45.06004" lon="6.14739">
        <ele>1216</ele>
        <time>2020-09-05T07:07:56Z</time>
      </trkpt>
      <trkpt lat="45.06007" lon="6.1474">
        <ele>1216.2</ele>
        <time>2020-09-05T07:07:57Z</time>
      </trkpt>
      <trkpt lat="45.06008" lon="6.14741">
        <ele>1216.4</ele>
        <time>2020-09-05T07:07:58Z</time>
      </trkpt>
      <trkpt lat="45.0601" lon="6.14742">
        <ele>1216.6</ele>
        <time>2020-09-05T07:07:59Z</time>
      </trkpt>
      <trkpt lat="45.06013" lon="6.14745">
        <ele>1217</ele>
        <time>2020-09-05T07:08:01Z</time>
      </trkpt>
      <trkpt lat="45.06014" lon="6.14746">
        <ele>1217.2</ele>
        <time>2020-09-05T07:08:02Z</time>
      </trkpt>
      <trkpt lat="45.06018" lon="6.14748">
        <ele>1217.4</ele>
        <time>2020-09-05T07:08:04Z</time>
      </trkpt>
      <trkpt lat="45.0602" lon="6.14749">
        <ele>1217.6</ele>
        <time>2020-09-05T07:08:05Z</time>
      </trkpt>
      <trkpt lat="45.06022" lon="6.14751">
        <ele>1217.8</ele>
        <time>2020-09-05T07:08:06Z</time>
      </trkpt>
      <trkpt lat="45.06025" lon="6.14754">
        <ele>1218.4</ele>
        <time>2020-09-05T07:08:08Z</time>
      </trkpt>
      <trkpt lat="45.06027" lon="6.14756">
        <ele>1218.6</ele>
        <time>2020-09-05T07:08:10Z</time>
      </trkpt>
      <trkpt lat="45.06029" lon="6.14758">
        <ele>1218.8</ele>
        <time>2020-09-05T07:08:11Z</time>
      </trkpt>
      <trkpt lat="45.0603" lon="6.1476">
        <ele>1219</ele>
        <time>2020-09-05T07:08:12Z</time>
      </trkpt>
      <trkpt lat="45.06032" lon="6.14762">
        <ele>1219.2</ele>
        <time>2020-09-05T07:08:13Z</time>
      </trkpt>
      <trkpt lat="45.06034" lon="6.14765">
        <ele>1219.6</ele>
        <time>2020-09-05T07:08:15Z</time>
      </trkpt>
      <trkpt lat="45.06036" lon="6.14766">
        <ele>1219.8</ele>
        <time>2020-09-05T07:08:16Z</time>
      </trkpt>
      <trkpt lat="45.06039" lon="6.14769">
        <ele>1220.2</ele>
        <time>2020-09-05T07:08:18Z</time>
      </trkpt>
      <trkpt lat="45.06041" lon="6.14771">
        <ele>1220.4</ele>
        <time>2020-09-05T07:08:19Z</time>
      </trkpt>
      <trkpt lat="45.06042" lon="6.14772">
        <ele>1220.6</ele>
        <time>2020-09-05T07:08:20Z</time>
      </trkpt>
      <trkpt lat="45.06044" lon="6.14774">
        <ele>1220.8</ele>
        <time>2020-09-05T07:08:21Z</time>
      </trkpt>
      <trkpt lat="45.06045" lon="6.14776">
        <ele>1221</ele>
        <time>2020-09-05T07:08:22Z</time>
      </trkpt>
      <trkpt lat="45.06047" lon="6.14777">
        <ele>1221.2</ele>
        <time>2020-09-05T07:08:23Z</time>
      </trkpt>
      <trkpt lat="45.06049" lon="6.14779">
        <ele>1221.4</ele>
        <time>2020-09-05T07:08:24Z</time>
      </trkpt>
      <trkpt lat="45.06051" lon="6.1478">
        <ele>1221.8</ele>
        <time>2020-09-05T07:08:25Z</time>
      </trkpt>
      <trkpt lat="45.06052" lon="6.14782">
        <ele>1222</ele>
        <time>2020-09-05T07:08:26Z</time>
      </trkpt>
      <trkpt lat="45.06054" lon="6.14784">
        <ele>1222.4</ele>
        <time>2020-09-05T07:08:27Z</time>
      </trkpt>
      <trkpt lat="45.06055" lon="6.14785">
        <ele>1222.4</ele>
        <time>2020-09-05T07:08:28Z</time>
      </trkpt>
      <trkpt lat="45.06057" lon="6.14786">
        <ele>1222.6</ele>
        <time>2020-09-05T07:08:29Z</time>
      </trkpt>
      <trkpt lat="45.06059" lon="6.14788">
        <ele>1223</ele>
        <time>2020-09-05T07:08:30Z</time>
      </trkpt>
      <trkpt lat="45.0606" lon="6.1479">
        <ele>1223.2</ele>
        <time>2020-09-05T07:08:31Z</time>
      </trkpt>
      <trkpt lat="45.06062" lon="6.14791">
        <ele>1223.4</ele>
        <time>2020-09-05T07:08:32Z</time>
      </trkpt>
      <trkpt lat="45.06064" lon="6.14793">
        <ele>1223.6</ele>
        <time>2020-09-05T07:08:33Z</time>
      </trkpt>
      <trkpt lat="45.06065" lon="6.14794">
        <ele>1223.8</ele>
        <time>2020-09-05T07:08:34Z</time>
      </trkpt>
      <trkpt lat="45.06067" lon="6.14796">
        <ele>1223.8</ele>
        <time>2020-09-05T07:08:35Z</time>
      </trkpt>
      <trkpt lat="45.06069" lon="6.14797">
        <ele>1224</ele>
        <time>2020-09-05T07:08:36Z</time>
      </trkpt>
      <trkpt lat="45.0607" lon="6.14799">
        <ele>1224.2</ele>
        <time>2020-09-05T07:08:37Z</time>
      </trkpt>
      <trkpt lat="45.06072" lon="6.14801">
        <ele>1224.4</ele>
        <time>2020-09-05T07:08:38Z</time>
      </trkpt>
      <trkpt lat="45.06074" lon="6.14802">
        <ele>1224.8</ele>
        <time>2020-09-05T07:08:39Z</time>
      </trkpt>
      <trkpt lat="45.06075" lon="6.14804">
        <ele>1225.2</ele>
        <time>2020-09-05T07:08:40Z</time>
      </trkpt>
      <trkpt lat="45.06077" lon="6.14806">
        <ele>1225.4</ele>
        <time>2020-09-05T07:08:41Z</time>
      </trkpt>
      <trkpt lat="45.06079" lon="6.14807">
        <ele>1225.8</ele>
        <time>2020-09-05T07:08:42Z</time>
      </trkpt>
      <trkpt lat="45.0608" lon="6.14809">
        <ele>1226</ele>
        <time>2020-09-05T07:08:43Z</time>
      </trkpt>
      <trkpt lat="45.06082" lon="6.1481">
        <ele>1226.2</ele>
        <time>2020-09-05T07:08:44Z</time>
      </trkpt>
      <trkpt lat="45.06084" lon="6.14812">
        <ele>1226.4</ele>
        <time>2020-09-05T07:08:45Z</time>
      </trkpt>
      <trkpt lat="45.06086" lon="6.14813">
        <ele>1226.6</ele>
        <time>2020-09-05T07:08:46Z</time>
      </trkpt>
      <trkpt lat="45.06088" lon="6.14814">
        <ele>1227</ele>
        <time>2020-09-05T07:08:47Z</time>
      </trkpt>
      <trkpt lat="45.06089" lon="6.14815">
        <ele>1227.2</ele>
        <time>2020-09-05T07:08:48Z</time>
      </trkpt>
      <trkpt lat="45.06091" lon="6.14816">
        <ele>1227.6</ele>
        <time>2020-09-05T07:08:49Z</time>
      </trkpt>
      <trkpt lat="45.06095" lon="6.14817">
        <ele>1227.6</ele>
        <time>2020-09-05T07:08:51Z</time>
      </trkpt>
      <trkpt lat="45.06097" lon="6.14818">
        <ele>1227.6</ele>
        <time>2020-09-05T07:08:52Z</time>
      </trkpt>
      <trkpt lat="45.06099" lon="6.14819">
        <ele>1227.8</ele>
        <time>2020-09-05T07:08:53Z</time>
      </trkpt>
      <trkpt lat="45.06101" lon="6.1482">
        <ele>1228.2</ele>
        <time>2020-09-05T07:08:54Z</time>
      </trkpt>
      <trkpt lat="45.06102" lon="6.14821">
        <ele>1228.4</ele>
        <time>2020-09-05T07:08:55Z</time>
      </trkpt>
      <trkpt lat="45.06104" lon="6.14822">
        <ele>1228.6</ele>
        <time>2020-09-05T07:08:56Z</time>
      </trkpt>
      <trkpt lat="45.06106" lon="6.14823">
        <ele>1228.8</ele>
        <time>2020-09-05T07:08:57Z</time>
      </trkpt>
      <trkpt lat="45.0611" lon="6.14825">
        <ele>1229.2</ele>
        <time>2020-09-05T07:08:59Z</time>
      </trkpt>
      <trkpt lat="45.06112" lon="6.14826">
        <ele>1229.4</ele>
        <time>2020-09-05T07:09:00Z</time>
      </trkpt>
      <trkpt lat="45.06114" lon="6.14828">
        <ele>1229.8</ele>
        <time>2020-09-05T07:09:01Z</time>
      </trkpt>
      <trkpt lat="45.06116" lon="6.14829">
        <ele>1230.2</ele>
        <time>2020-09-05T07:09:02Z</time>
      </trkpt>
      <trkpt lat="45.06118" lon="6.1483">
        <ele>1230.2</ele>
        <time>2020-09-05T07:09:03Z</time>
      </trkpt>
      <trkpt lat="45.0612" lon="6.14831">
        <ele>1230.4</ele>
        <time>2020-09-05T07:09:04Z</time>
      </trkpt>
      <trkpt lat="45.06122" lon="6.14832">
        <ele>1230.8</ele>
        <time>2020-09-05T07:09:05Z</time>
      </trkpt>
      <trkpt lat="45.06124" lon="6.14833">
        <ele>1231</ele>
        <time>2020-09-05T07:09:06Z</time>
      </trkpt>
      <trkpt lat="45.06126" lon="6.14834">
        <ele>1231.2</ele>
        <time>2020-09-05T07:09:07Z</time>
      </trkpt>
      <trkpt lat="45.06128" lon="6.14835">
        <ele>1231.4</ele>
        <time>2020-09-05T07:09:08Z</time>
      </trkpt>
      <trkpt lat="45.0613" lon="6.14837">
        <ele>1231.4</ele>
        <time>2020-09-05T07:09:09Z</time>
      </trkpt>
      <trkpt lat="45.06132" lon="6.14838">
        <ele>1231.8</ele>
        <time>2020-09-05T07:09:10Z</time>
      </trkpt>
      <trkpt lat="45.06133" lon="6.14839">
        <ele>1232</ele>
        <time>2020-09-05T07:09:11Z</time>
      </trkpt>
      <trkpt lat="45.06135" lon="6.14841">
        <ele>1232.2</ele>
        <time>2020-09-05T07:09:12Z</time>
      </trkpt>
      <trkpt lat="45.06137" lon="6.14842">
        <ele>1232.6</ele>
        <time>2020-09-05T07:09:13Z</time>
      </trkpt>
      <trkpt lat="45.06139" lon="6.14843">
        <ele>1232.8</ele>
        <time>2020-09-05T07:09:14Z</time>
      </trkpt>
      <trkpt lat="45.06141" lon="6.14845">
        <ele>1233</ele>
        <time>2020-09-05T07:09:15Z</time>
      </trkpt>
      <trkpt lat="45.06143" lon="6.14846">
        <ele>1233.4</ele>
        <time>2020-09-05T07:09:16Z</time>
      </trkpt>
      <trkpt lat="45.06145" lon="6.14847">
        <ele>1233.2</ele>
        <time>2020-09-05T07:09:17Z</time>
      </trkpt>
      <trkpt lat="45.06147" lon="6.14848">
        <ele>1233.4</ele>
        <time>2020-09-05T07:09:18Z</time>
      </trkpt>
      <trkpt lat="45.06149" lon="6.14849">
        <ele>1233.6</ele>
        <time>2020-09-05T07:09:19Z</time>
      </trkpt>
      <trkpt lat="45.0615" lon="6.14851">
        <ele>1233.8</ele>
        <time>2020-09-05T07:09:20Z</time>
      </trkpt>
      <trkpt lat="45.06152" lon="6.14852">
        <ele>1233.8</ele>
        <time>2020-09-05T07:09:21Z</time>
      </trkpt>
      <trkpt lat="45.06154" lon="6.14854">
        <ele>1234.2</ele>
        <time>2020-09-05T07:09:22Z</time>
      </trkpt>
      <trkpt lat="45.06156" lon="6.14855">
        <ele>1234.4</ele>
        <time>2020-09-05T07:09:23Z</time>
      </trkpt>
      <trkpt lat="45.06158" lon="6.14856">
        <ele>1234.6</ele>
        <time>2020-09-05T07:09:24Z</time>
      </trkpt>
      <trkpt lat="45.0616" lon="6.14858">
        <ele>1234.8</ele>
        <time>2020-09-05T07:09:25Z</time>
      </trkpt>
      <trkpt lat="45.06162" lon="6.14859">
        <ele>1235.2</ele>
        <time>2020-09-05T07:09:26Z</time>
      </trkpt>
      <trkpt lat="45.06172" lon="6.14864">
        <ele>1236.4</ele>
        <time>2020-09-05T07:09:31Z</time>
      </trkpt>
      <trkpt lat="45.06179" lon="6.14868">
        <ele>1237.2</ele>
        <time>2020-09-05T07:09:35Z</time>
      </trkpt>
      <trkpt lat="45.0618" lon="6.14869">
        <ele>1237.6</ele>
        <time>2020-09-05T07:09:36Z</time>
      </trkpt>
      <trkpt lat="45.06182" lon="6.1487">
        <ele>1237.6</ele>
        <time>2020-09-05T07:09:37Z</time>
      </trkpt>
      <trkpt lat="45.06185" lon="6.1487">
        <ele>1237.8</ele>
        <time>2020-09-05T07:09:38Z</time>
      </trkpt>
      <trkpt lat="45.06187" lon="6.14871">
        <ele>1238</ele>
        <time>2020-09-05T07:09:39Z</time>
      </trkpt>
      <trkpt lat="45.06189" lon="6.14872">
        <ele>1238.2</ele>
        <time>2020-09-05T07:09:40Z</time>
      </trkpt>
      <trkpt lat="45.0619" lon="6.14873">
        <ele>1238.2</ele>
        <time>2020-09-05T07:09:41Z</time>
      </trkpt>
      <trkpt lat="45.06192" lon="6.14874">
        <ele>1238.4</ele>
        <time>2020-09-05T07:09:42Z</time>
      </trkpt>
      <trkpt lat="45.06194" lon="6.14874">
        <ele>1238.6</ele>
        <time>2020-09-05T07:09:43Z</time>
      </trkpt>
      <trkpt lat="45.06196" lon="6.14875">
        <ele>1239</ele>
        <time>2020-09-05T07:09:44Z</time>
      </trkpt>
      <trkpt lat="45.06198" lon="6.14876">
        <ele>1239.2</ele>
        <time>2020-09-05T07:09:45Z</time>
      </trkpt>
      <trkpt lat="45.06201" lon="6.14877">
        <ele>1239.4</ele>
        <time>2020-09-05T07:09:46Z</time>
      </trkpt>
      <trkpt lat="45.06203" lon="6.14878">
        <ele>1239.6</ele>
        <time>2020-09-05T07:09:47Z</time>
      </trkpt>
      <trkpt lat="45.06205" lon="6.14879">
        <ele>1239.8</ele>
        <time>2020-09-05T07:09:48Z</time>
      </trkpt>
      <trkpt lat="45.06207" lon="6.14879">
        <ele>1240.2</ele>
        <time>2020-09-05T07:09:49Z</time>
      </trkpt>
      <trkpt lat="45.06209" lon="6.1488">
        <ele>1240.4</ele>
        <time>2020-09-05T07:09:50Z</time>
      </trkpt>
      <trkpt lat="45.06211" lon="6.14881">
        <ele>1240.6</ele>
        <time>2020-09-05T07:09:51Z</time>
      </trkpt>
      <trkpt lat="45.06212" lon="6.14882">
        <ele>1240.6</ele>
        <time>2020-09-05T07:09:52Z</time>
      </trkpt>
      <trkpt lat="45.06214" lon="6.14884">
        <ele>1240.8</ele>
        <time>2020-09-05T07:09:53Z</time>
      </trkpt>
      <trkpt lat="45.06216" lon="6.14885">
        <ele>1241</ele>
        <time>2020-09-05T07:09:54Z</time>
      </trkpt>
      <trkpt lat="45.06218" lon="6.14886">
        <ele>1241.2</ele>
        <time>2020-09-05T07:09:55Z</time>
      </trkpt>
      <trkpt lat="45.0622" lon="6.14887">
        <ele>1241.4</ele>
        <time>2020-09-05T07:09:56Z</time>
      </trkpt>
      <trkpt lat="45.06222" lon="6.14889">
        <ele>1241.4</ele>
        <time>2020-09-05T07:09:57Z</time>
      </trkpt>
      <trkpt lat="45.06224" lon="6.1489">
        <ele>1241.8</ele>
        <time>2020-09-05T07:09:58Z</time>
      </trkpt>
      <trkpt lat="45.06226" lon="6.14891">
        <ele>1242</ele>
        <time>2020-09-05T07:09:59Z</time>
      </trkpt>
      <trkpt lat="45.06228" lon="6.14892">
        <ele>1242</ele>
        <time>2020-09-05T07:10:00Z</time>
      </trkpt>
      <trkpt lat="45.06229" lon="6.14894">
        <ele>1242.4</ele>
        <time>2020-09-05T07:10:01Z</time>
      </trkpt>
      <trkpt lat="45.06231" lon="6.14896">
        <ele>1242.6</ele>
        <time>2020-09-05T07:10:02Z</time>
      </trkpt>
      <trkpt lat="45.06233" lon="6.14897">
        <ele>1242.8</ele>
        <time>2020-09-05T07:10:03Z</time>
      </trkpt>
      <trkpt lat="45.06234" lon="6.14899">
        <ele>1243.2</ele>
        <time>2020-09-05T07:10:04Z</time>
      </trkpt>
      <trkpt lat="45.06236" lon="6.14901">
        <ele>1243.4</ele>
        <time>2020-09-05T07:10:05Z</time>
      </trkpt>
      <trkpt lat="45.06238" lon="6.14903">
        <ele>1243.4</ele>
        <time>2020-09-05T07:10:06Z</time>
      </trkpt>
      <trkpt lat="45.0624" lon="6.14905">
        <ele>1243.6</ele>
        <time>2020-09-05T07:10:07Z</time>
      </trkpt>
      <trkpt lat="45.06241" lon="6.14907">
        <ele>1244</ele>
        <time>2020-09-05T07:10:08Z</time>
      </trkpt>
      <trkpt lat="45.06243" lon="6.14908">
        <ele>1244.2</ele>
        <time>2020-09-05T07:10:09Z</time>
      </trkpt>
      <trkpt lat="45.06245" lon="6.1491">
        <ele>1244.4</ele>
        <time>2020-09-05T07:10:10Z</time>
      </trkpt>
      <trkpt lat="45.06247" lon="6.14912">
        <ele>1244.8</ele>
        <time>2020-09-05T07:10:11Z</time>
      </trkpt>
      <trkpt lat="45.06248" lon="6.14913">
        <ele>1245</ele>
        <time>2020-09-05T07:10:12Z</time>
      </trkpt>
      <trkpt lat="45.0625" lon="6.14914">
        <ele>1245</ele>
        <time>2020-09-05T07:10:13Z</time>
      </trkpt>
      <trkpt lat="45.06252" lon="6.14916">
        <ele>1245.2</ele>
        <time>2020-09-05T07:10:14Z</time>
      </trkpt>
      <trkpt lat="45.06253" lon="6.14918">
        <ele>1245.6</ele>
        <time>2020-09-05T07:10:15Z</time>
      </trkpt>
      <trkpt lat="45.06255" lon="6.14919">
        <ele>1245.8</ele>
        <time>2020-09-05T07:10:16Z</time>
      </trkpt>
      <trkpt lat="45.06257" lon="6.1492">
        <ele>1245.8</ele>
        <time>2020-09-05T07:10:17Z</time>
      </trkpt>
      <trkpt lat="45.06259" lon="6.1492">
        <ele>1246</ele>
        <time>2020-09-05T07:10:18Z</time>
      </trkpt>
      <trkpt lat="45.06262" lon="6.1492">
        <ele>1246.2</ele>
        <time>2020-09-05T07:10:19Z</time>
      </trkpt>
      <trkpt lat="45.06263" lon="6.1492">
        <ele>1246.4</ele>
        <time>2020-09-05T07:10:20Z</time>
      </trkpt>
      <trkpt lat="45.06266" lon="6.14923">
        <ele>1246.8</ele>
        <time>2020-09-05T07:10:22Z</time>
      </trkpt>
      <trkpt lat="45.06269" lon="6.14924">
        <ele>1247.2</ele>
        <time>2020-09-05T07:10:24Z</time>
      </trkpt>
      <trkpt lat="45.06271" lon="6.14925">
        <ele>1247.4</ele>
        <time>2020-09-05T07:10:25Z</time>
      </trkpt>
      <trkpt lat="45.06274" lon="6.14927">
        <ele>1247.6</ele>
        <time>2020-09-05T07:10:27Z</time>
      </trkpt>
      <trkpt lat="45.06277" lon="6.14928">
        <ele>1247.8</ele>
        <time>2020-09-05T07:10:28Z</time>
      </trkpt>
      <trkpt lat="45.06279" lon="6.14929">
        <ele>1248</ele>
        <time>2020-09-05T07:10:29Z</time>
      </trkpt>
      <trkpt lat="45.06281" lon="6.14929">
        <ele>1248.4</ele>
        <time>2020-09-05T07:10:30Z</time>
      </trkpt>
      <trkpt lat="45.06283" lon="6.1493">
        <ele>1248.6</ele>
        <time>2020-09-05T07:10:31Z</time>
      </trkpt>
      <trkpt lat="45.06285" lon="6.14931">
        <ele>1248.8</ele>
        <time>2020-09-05T07:10:32Z</time>
      </trkpt>
      <trkpt lat="45.06287" lon="6.14932">
        <ele>1249</ele>
        <time>2020-09-05T07:10:33Z</time>
      </trkpt>
      <trkpt lat="45.06289" lon="6.14933">
        <ele>1249.2</ele>
        <time>2020-09-05T07:10:34Z</time>
      </trkpt>
      <trkpt lat="45.06291" lon="6.14934">
        <ele>1249.4</ele>
        <time>2020-09-05T07:10:35Z</time>
      </trkpt>
      <trkpt lat="45.06293" lon="6.14935">
        <ele>1249.6</ele>
        <time>2020-09-05T07:10:36Z</time>
      </trkpt>
      <trkpt lat="45.06295" lon="6.14936">
        <ele>1249.6</ele>
        <time>2020-09-05T07:10:37Z</time>
      </trkpt>
      <trkpt lat="45.06297" lon="6.14938">
        <ele>1249.6</ele>
        <time>2020-09-05T07:10:38Z</time>
      </trkpt>
      <trkpt lat="45.06299" lon="6.14939">
        <ele>1250</ele>
        <time>2020-09-05T07:10:39Z</time>
      </trkpt>
      <trkpt lat="45.06302" lon="6.1494">
        <ele>1250.4</ele>
        <time>2020-09-05T07:10:40Z</time>
      </trkpt>
      <trkpt lat="45.06304" lon="6.1494">
        <ele>1250.6</ele>
        <time>2020-09-05T07:10:41Z</time>
      </trkpt>
      <trkpt lat="45.06306" lon="6.14941">
        <ele>1250.6</ele>
        <time>2020-09-05T07:10:42Z</time>
      </trkpt>
      <trkpt lat="45.06308" lon="6.14943">
        <ele>1251</ele>
        <time>2020-09-05T07:10:43Z</time>
      </trkpt>
      <trkpt lat="45.0631" lon="6.14944">
        <ele>1251</ele>
        <time>2020-09-05T07:10:44Z</time>
      </trkpt>
      <trkpt lat="45.06312" lon="6.14946">
        <ele>1251.4</ele>
        <time>2020-09-05T07:10:45Z</time>
      </trkpt>
      <trkpt lat="45.06314" lon="6.14948">
        <ele>1251.8</ele>
        <time>2020-09-05T07:10:46Z</time>
      </trkpt>
      <trkpt lat="45.06315" lon="6.14949">
        <ele>1252</ele>
        <time>2020-09-05T07:10:47Z</time>
      </trkpt>
      <trkpt lat="45.06317" lon="6.14951">
        <ele>1252.2</ele>
        <time>2020-09-05T07:10:48Z</time>
      </trkpt>
      <trkpt lat="45.06319" lon="6.14952">
        <ele>1252.4</ele>
        <time>2020-09-05T07:10:49Z</time>
      </trkpt>
      <trkpt lat="45.06321" lon="6.14953">
        <ele>1252.6</ele>
        <time>2020-09-05T07:10:50Z</time>
      </trkpt>
      <trkpt lat="45.06323" lon="6.14955">
        <ele>1253</ele>
        <time>2020-09-05T07:10:51Z</time>
      </trkpt>
      <trkpt lat="45.06325" lon="6.14956">
        <ele>1253.2</ele>
        <time>2020-09-05T07:10:52Z</time>
      </trkpt>
      <trkpt lat="45.06327" lon="6.14957">
        <ele>1253.4</ele>
        <time>2020-09-05T07:10:53Z</time>
      </trkpt>
      <trkpt lat="45.06329" lon="6.14959">
        <ele>1253.6</ele>
        <time>2020-09-05T07:10:54Z</time>
      </trkpt>
      <trkpt lat="45.0633" lon="6.14961">
        <ele>1253.8</ele>
        <time>2020-09-05T07:10:55Z</time>
      </trkpt>
      <trkpt lat="45.06332" lon="6.14963">
        <ele>1254</ele>
        <time>2020-09-05T07:10:56Z</time>
      </trkpt>
      <trkpt lat="45.06334" lon="6.14965">
        <ele>1254.4</ele>
        <time>2020-09-05T07:10:57Z</time>
      </trkpt>
      <trkpt lat="45.06336" lon="6.14966">
        <ele>1254.4</ele>
        <time>2020-09-05T07:10:58Z</time>
      </trkpt>
      <trkpt lat="45.06337" lon="6.14968">
        <ele>1254.6</ele>
        <time>2020-09-05T07:10:59Z</time>
      </trkpt>
      <trkpt lat="45.06339" lon="6.1497">
        <ele>1255</ele>
        <time>2020-09-05T07:11:00Z</time>
      </trkpt>
      <trkpt lat="45.06341" lon="6.14972">
        <ele>1254.8</ele>
        <time>2020-09-05T07:11:01Z</time>
      </trkpt>
      <trkpt lat="45.06343" lon="6.14974">
        <ele>1255</ele>
        <time>2020-09-05T07:11:02Z</time>
      </trkpt>
      <trkpt lat="45.06345" lon="6.14975">
        <ele>1255.4</ele>
        <time>2020-09-05T07:11:03Z</time>
      </trkpt>
      <trkpt lat="45.06347" lon="6.14977">
        <ele>1255.8</ele>
        <time>2020-09-05T07:11:04Z</time>
      </trkpt>
      <trkpt lat="45.06349" lon="6.14979">
        <ele>1255.8</ele>
        <time>2020-09-05T07:11:05Z</time>
      </trkpt>
      <trkpt lat="45.06351" lon="6.14981">
        <ele>1256</ele>
        <time>2020-09-05T07:11:06Z</time>
      </trkpt>
      <trkpt lat="45.06352" lon="6.14983">
        <ele>1256.2</ele>
        <time>2020-09-05T07:11:07Z</time>
      </trkpt>
      <trkpt lat="45.06354" lon="6.14984">
        <ele>1256.4</ele>
        <time>2020-09-05T07:11:08Z</time>
      </trkpt>
      <trkpt lat="45.06356" lon="6.14986">
        <ele>1256.6</ele>
        <time>2020-09-05T07:11:09Z</time>
      </trkpt>
      <trkpt lat="45.06358" lon="6.14988">
        <ele>1257</ele>
        <time>2020-09-05T07:11:10Z</time>
      </trkpt>
      <trkpt lat="45.0636" lon="6.14989">
        <ele>1257.4</ele>
        <time>2020-09-05T07:11:11Z</time>
      </trkpt>
      <trkpt lat="45.06361" lon="6.14991">
        <ele>1257.4</ele>
        <time>2020-09-05T07:11:12Z</time>
      </trkpt>
      <trkpt lat="45.06363" lon="6.14993">
        <ele>1257.8</ele>
        <time>2020-09-05T07:11:13Z</time>
      </trkpt>
      <trkpt lat="45.06364" lon="6.14995">
        <ele>1258.2</ele>
        <time>2020-09-05T07:11:14Z</time>
      </trkpt>
      <trkpt lat="45.06366" lon="6.14997">
        <ele>1258.2</ele>
        <time>2020-09-05T07:11:15Z</time>
      </trkpt>
      <trkpt lat="45.06368" lon="6.14999">
        <ele>1258.2</ele>
        <time>2020-09-05T07:11:16Z</time>
      </trkpt>
      <trkpt lat="45.0637" lon="6.15001">
        <ele>1258.6</ele>
        <time>2020-09-05T07:11:17Z</time>
      </trkpt>
      <trkpt lat="45.06371" lon="6.15003">
        <ele>1258.6</ele>
        <time>2020-09-05T07:11:18Z</time>
      </trkpt>
      <trkpt lat="45.06373" lon="6.15005">
        <ele>1259</ele>
        <time>2020-09-05T07:11:19Z</time>
      </trkpt>
      <trkpt lat="45.06375" lon="6.15007">
        <ele>1259.2</ele>
        <time>2020-09-05T07:11:20Z</time>
      </trkpt>
      <trkpt lat="45.06377" lon="6.15009">
        <ele>1259.2</ele>
        <time>2020-09-05T07:11:21Z</time>
      </trkpt>
      <trkpt lat="45.06379" lon="6.15011">
        <ele>1259.4</ele>
        <time>2020-09-05T07:11:22Z</time>
      </trkpt>
      <trkpt lat="45.06381" lon="6.15013">
        <ele>1259.8</ele>
        <time>2020-09-05T07:11:23Z</time>
      </trkpt>
      <trkpt lat="45.06382" lon="6.15014">
        <ele>1260</ele>
        <time>2020-09-05T07:11:24Z</time>
      </trkpt>
      <trkpt lat="45.06384" lon="6.15016">
        <ele>1260.2</ele>
        <time>2020-09-05T07:11:25Z</time>
      </trkpt>
      <trkpt lat="45.06386" lon="6.15018">
        <ele>1260.4</ele>
        <time>2020-09-05T07:11:26Z</time>
      </trkpt>
      <trkpt lat="45.06388" lon="6.15019">
        <ele>1260.8</ele>
        <time>2020-09-05T07:11:27Z</time>
      </trkpt>
      <trkpt lat="45.0639" lon="6.1502">
        <ele>1261</ele>
        <time>2020-09-05T07:11:28Z</time>
      </trkpt>
      <trkpt lat="45.06392" lon="6.15021">
        <ele>1261.2</ele>
        <time>2020-09-05T07:11:29Z</time>
      </trkpt>
      <trkpt lat="45.06394" lon="6.15023">
        <ele>1261.4</ele>
        <time>2020-09-05T07:11:30Z</time>
      </trkpt>
      <trkpt lat="45.06396" lon="6.15024">
        <ele>1261.6</ele>
        <time>2020-09-05T07:11:31Z</time>
      </trkpt>
      <trkpt lat="45.06398" lon="6.15026">
        <ele>1261.8</ele>
        <time>2020-09-05T07:11:32Z</time>
      </trkpt>
      <trkpt lat="45.06399" lon="6.15028">
        <ele>1262</ele>
        <time>2020-09-05T07:11:33Z</time>
      </trkpt>
      <trkpt lat="45.06401" lon="6.1503">
        <ele>1262.4</ele>
        <time>2020-09-05T07:11:34Z</time>
      </trkpt>
      <trkpt lat="45.06403" lon="6.15032">
        <ele>1262.6</ele>
        <time>2020-09-05T07:11:35Z</time>
      </trkpt>
      <trkpt lat="45.06405" lon="6.15034">
        <ele>1262.6</ele>
        <time>2020-09-05T07:11:36Z</time>
      </trkpt>
      <trkpt lat="45.06407" lon="6.15036">
        <ele>1263</ele>
        <time>2020-09-05T07:11:37Z</time>
      </trkpt>
      <trkpt lat="45.06408" lon="6.15038">
        <ele>1263.2</ele>
        <time>2020-09-05T07:11:38Z</time>
      </trkpt>
      <trkpt lat="45.0641" lon="6.15039">
        <ele>1263.2</ele>
        <time>2020-09-05T07:11:39Z</time>
      </trkpt>
      <trkpt lat="45.06412" lon="6.15042">
        <ele>1264</ele>
        <time>2020-09-05T07:11:41Z</time>
      </trkpt>
      <trkpt lat="45.06415" lon="6.15045">
        <ele>1264.2</ele>
        <time>2020-09-05T07:11:43Z</time>
      </trkpt>
      <trkpt lat="45.06418" lon="6.15048">
        <ele>1264.4</ele>
        <time>2020-09-05T07:11:45Z</time>
      </trkpt>
      <trkpt lat="45.06419" lon="6.1505">
        <ele>1264.8</ele>
        <time>2020-09-05T07:11:46Z</time>
      </trkpt>
      <trkpt lat="45.06421" lon="6.15052">
        <ele>1264.8</ele>
        <time>2020-09-05T07:11:47Z</time>
      </trkpt>
      <trkpt lat="45.06422" lon="6.15054">
        <ele>1265.4</ele>
        <time>2020-09-05T07:11:48Z</time>
      </trkpt>
      <trkpt lat="45.06424" lon="6.15056">
        <ele>1265.6</ele>
        <time>2020-09-05T07:11:49Z</time>
      </trkpt>
      <trkpt lat="45.06426" lon="6.15058">
        <ele>1265.8</ele>
        <time>2020-09-05T07:11:50Z</time>
      </trkpt>
      <trkpt lat="45.06427" lon="6.15059">
        <ele>1266</ele>
        <time>2020-09-05T07:11:51Z</time>
      </trkpt>
      <trkpt lat="45.06429" lon="6.15061">
        <ele>1266.2</ele>
        <time>2020-09-05T07:11:52Z</time>
      </trkpt>
      <trkpt lat="45.06431" lon="6.15063">
        <ele>1266.4</ele>
        <time>2020-09-05T07:11:53Z</time>
      </trkpt>
      <trkpt lat="45.06433" lon="6.15065">
        <ele>1266.8</ele>
        <time>2020-09-05T07:11:54Z</time>
      </trkpt>
      <trkpt lat="45.06435" lon="6.15067">
        <ele>1267</ele>
        <time>2020-09-05T07:11:55Z</time>
      </trkpt>
      <trkpt lat="45.06436" lon="6.15069">
        <ele>1267.2</ele>
        <time>2020-09-05T07:11:56Z</time>
      </trkpt>
      <trkpt lat="45.06438" lon="6.15071">
        <ele>1267.4</ele>
        <time>2020-09-05T07:11:57Z</time>
      </trkpt>
      <trkpt lat="45.06439" lon="6.15073">
        <ele>1267.6</ele>
        <time>2020-09-05T07:11:58Z</time>
      </trkpt>
      <trkpt lat="45.06441" lon="6.15075">
        <ele>1268</ele>
        <time>2020-09-05T07:11:59Z</time>
      </trkpt>
      <trkpt lat="45.06443" lon="6.15077">
        <ele>1268.2</ele>
        <time>2020-09-05T07:12:00Z</time>
      </trkpt>
      <trkpt lat="45.06445" lon="6.15079">
        <ele>1268.2</ele>
        <time>2020-09-05T07:12:01Z</time>
      </trkpt>
      <trkpt lat="45.06446" lon="6.15081">
        <ele>1268.2</ele>
        <time>2020-09-05T07:12:02Z</time>
      </trkpt>
      <trkpt lat="45.06448" lon="6.15083">
        <ele>1268.4</ele>
        <time>2020-09-05T07:12:03Z</time>
      </trkpt>
      <trkpt lat="45.06449" lon="6.15085">
        <ele>1268.6</ele>
        <time>2020-09-05T07:12:04Z</time>
      </trkpt>
      <trkpt lat="45.06451" lon="6.15087">
        <ele>1269</ele>
        <time>2020-09-05T07:12:05Z</time>
      </trkpt>
      <trkpt lat="45.06453" lon="6.15089">
        <ele>1269.2</ele>
        <time>2020-09-05T07:12:06Z</time>
      </trkpt>
      <trkpt lat="45.06454" lon="6.15091">
        <ele>1269.4</ele>
        <time>2020-09-05T07:12:07Z</time>
      </trkpt>
      <trkpt lat="45.06456" lon="6.15093">
        <ele>1269.2</ele>
        <time>2020-09-05T07:12:08Z</time>
      </trkpt>
      <trkpt lat="45.06458" lon="6.15094">
        <ele>1269.4</ele>
        <time>2020-09-05T07:12:09Z</time>
      </trkpt>
      <trkpt lat="45.0646" lon="6.15095">
        <ele>1269.6</ele>
        <time>2020-09-05T07:12:10Z</time>
      </trkpt>
      <trkpt lat="45.06461" lon="6.15096">
        <ele>1269.8</ele>
        <time>2020-09-05T07:12:11Z</time>
      </trkpt>
      <trkpt lat="45.06463" lon="6.15097">
        <ele>1270</ele>
        <time>2020-09-05T07:12:12Z</time>
      </trkpt>
      <trkpt lat="45.06465" lon="6.15098">
        <ele>1270.2</ele>
        <time>2020-09-05T07:12:13Z</time>
      </trkpt>
      <trkpt lat="45.06467" lon="6.151">
        <ele>1270.4</ele>
        <time>2020-09-05T07:12:14Z</time>
      </trkpt>
      <trkpt lat="45.06469" lon="6.15101">
        <ele>1270.6</ele>
        <time>2020-09-05T07:12:15Z</time>
      </trkpt>
      <trkpt lat="45.06471" lon="6.15103">
        <ele>1270.8</ele>
        <time>2020-09-05T07:12:16Z</time>
      </trkpt>
      <trkpt lat="45.06472" lon="6.15105">
        <ele>1270.8</ele>
        <time>2020-09-05T07:12:17Z</time>
      </trkpt>
      <trkpt lat="45.06474" lon="6.15106">
        <ele>1271</ele>
        <time>2020-09-05T07:12:18Z</time>
      </trkpt>
      <trkpt lat="45.06476" lon="6.15107">
        <ele>1271</ele>
        <time>2020-09-05T07:12:19Z</time>
      </trkpt>
      <trkpt lat="45.06478" lon="6.15108">
        <ele>1271.2</ele>
        <time>2020-09-05T07:12:20Z</time>
      </trkpt>
      <trkpt lat="45.06481" lon="6.15109">
        <ele>1271.4</ele>
        <time>2020-09-05T07:12:21Z</time>
      </trkpt>
      <trkpt lat="45.06483" lon="6.1511">
        <ele>1271.8</ele>
        <time>2020-09-05T07:12:22Z</time>
      </trkpt>
      <trkpt lat="45.06485" lon="6.15112">
        <ele>1271.8</ele>
        <time>2020-09-05T07:12:23Z</time>
      </trkpt>
      <trkpt lat="45.06486" lon="6.15113">
        <ele>1272</ele>
        <time>2020-09-05T07:12:24Z</time>
      </trkpt>
      <trkpt lat="45.06488" lon="6.15115">
        <ele>1272.2</ele>
        <time>2020-09-05T07:12:25Z</time>
      </trkpt>
      <trkpt lat="45.0649" lon="6.15117">
        <ele>1272.2</ele>
        <time>2020-09-05T07:12:26Z</time>
      </trkpt>
      <trkpt lat="45.06492" lon="6.15118">
        <ele>1272.4</ele>
        <time>2020-09-05T07:12:27Z</time>
      </trkpt>
      <trkpt lat="45.06494" lon="6.1512">
        <ele>1272.8</ele>
        <time>2020-09-05T07:12:28Z</time>
      </trkpt>
      <trkpt lat="45.06496" lon="6.15121">
        <ele>1273</ele>
        <time>2020-09-05T07:12:29Z</time>
      </trkpt>
      <trkpt lat="45.06498" lon="6.15123">
        <ele>1273.2</ele>
        <time>2020-09-05T07:12:30Z</time>
      </trkpt>
      <trkpt lat="45.06499" lon="6.15124">
        <ele>1273.4</ele>
        <time>2020-09-05T07:12:31Z</time>
      </trkpt>
      <trkpt lat="45.06501" lon="6.15126">
        <ele>1273.6</ele>
        <time>2020-09-05T07:12:32Z</time>
      </trkpt>
      <trkpt lat="45.06503" lon="6.15127">
        <ele>1273.8</ele>
        <time>2020-09-05T07:12:33Z</time>
      </trkpt>
      <trkpt lat="45.06504" lon="6.15129">
        <ele>1274.2</ele>
        <time>2020-09-05T07:12:34Z</time>
      </trkpt>
      <trkpt lat="45.06506" lon="6.15131">
        <ele>1274.2</ele>
        <time>2020-09-05T07:12:35Z</time>
      </trkpt>
      <trkpt lat="45.06508" lon="6.15132">
        <ele>1274.4</ele>
        <time>2020-09-05T07:12:36Z</time>
      </trkpt>
      <trkpt lat="45.0651" lon="6.15134">
        <ele>1274.8</ele>
        <time>2020-09-05T07:12:37Z</time>
      </trkpt>
      <trkpt lat="45.06512" lon="6.15136">
        <ele>1275</ele>
        <time>2020-09-05T07:12:38Z</time>
      </trkpt>
      <trkpt lat="45.06513" lon="6.15138">
        <ele>1275.2</ele>
        <time>2020-09-05T07:12:39Z</time>
      </trkpt>
      <trkpt lat="45.06515" lon="6.1514">
        <ele>1275.4</ele>
        <time>2020-09-05T07:12:40Z</time>
      </trkpt>
      <trkpt lat="45.06517" lon="6.15141">
        <ele>1275.6</ele>
        <time>2020-09-05T07:12:41Z</time>
      </trkpt>
      <trkpt lat="45.06519" lon="6.15143">
        <ele>1275.6</ele>
        <time>2020-09-05T07:12:42Z</time>
      </trkpt>
      <trkpt lat="45.06521" lon="6.15145">
        <ele>1275.6</ele>
        <time>2020-09-05T07:12:43Z</time>
      </trkpt>
      <trkpt lat="45.06523" lon="6.15146">
        <ele>1275.8</ele>
        <time>2020-09-05T07:12:44Z</time>
      </trkpt>
      <trkpt lat="45.06524" lon="6.15148">
        <ele>1276</ele>
        <time>2020-09-05T07:12:45Z</time>
      </trkpt>
      <trkpt lat="45.06526" lon="6.1515">
        <ele>1276.4</ele>
        <time>2020-09-05T07:12:46Z</time>
      </trkpt>
      <trkpt lat="45.06528" lon="6.15152">
        <ele>1276.6</ele>
        <time>2020-09-05T07:12:47Z</time>
      </trkpt>
      <trkpt lat="45.06529" lon="6.15153">
        <ele>1277</ele>
        <time>2020-09-05T07:12:48Z</time>
      </trkpt>
      <trkpt lat="45.06531" lon="6.15155">
        <ele>1277</ele>
        <time>2020-09-05T07:12:49Z</time>
      </trkpt>
      <trkpt lat="45.06534" lon="6.15157">
        <ele>1277.6</ele>
        <time>2020-09-05T07:12:51Z</time>
      </trkpt>
      <trkpt lat="45.06535" lon="6.15159">
        <ele>1277.4</ele>
        <time>2020-09-05T07:12:52Z</time>
      </trkpt>
      <trkpt lat="45.06537" lon="6.1516">
        <ele>1277.8</ele>
        <time>2020-09-05T07:12:53Z</time>
      </trkpt>
      <trkpt lat="45.06539" lon="6.15162">
        <ele>1278</ele>
        <time>2020-09-05T07:12:54Z</time>
      </trkpt>
      <trkpt lat="45.06541" lon="6.15164">
        <ele>1278.2</ele>
        <time>2020-09-05T07:12:55Z</time>
      </trkpt>
      <trkpt lat="45.06543" lon="6.15165">
        <ele>1278.2</ele>
        <time>2020-09-05T07:12:56Z</time>
      </trkpt>
      <trkpt lat="45.06545" lon="6.15167">
        <ele>1278.2</ele>
        <time>2020-09-05T07:12:57Z</time>
      </trkpt>
      <trkpt lat="45.06546" lon="6.15169">
        <ele>1278.6</ele>
        <time>2020-09-05T07:12:58Z</time>
      </trkpt>
      <trkpt lat="45.06548" lon="6.15171">
        <ele>1278.8</ele>
        <time>2020-09-05T07:12:59Z</time>
      </trkpt>
      <trkpt lat="45.0655" lon="6.15172">
        <ele>1279</ele>
        <time>2020-09-05T07:13:00Z</time>
      </trkpt>
      <trkpt lat="45.06552" lon="6.15174">
        <ele>1279.4</ele>
        <time>2020-09-05T07:13:01Z</time>
      </trkpt>
      <trkpt lat="45.06554" lon="6.15176">
        <ele>1279.4</ele>
        <time>2020-09-05T07:13:02Z</time>
      </trkpt>
      <trkpt lat="45.06556" lon="6.15177">
        <ele>1279.6</ele>
        <time>2020-09-05T07:13:03Z</time>
      </trkpt>
      <trkpt lat="45.06558" lon="6.15179">
        <ele>1279.8</ele>
        <time>2020-09-05T07:13:04Z</time>
      </trkpt>
      <trkpt lat="45.06559" lon="6.1518">
        <ele>1279.8</ele>
        <time>2020-09-05T07:13:05Z</time>
      </trkpt>
      <trkpt lat="45.06561" lon="6.15182">
        <ele>1280.2</ele>
        <time>2020-09-05T07:13:06Z</time>
      </trkpt>
      <trkpt lat="45.06563" lon="6.15184">
        <ele>1280.4</ele>
        <time>2020-09-05T07:13:07Z</time>
      </trkpt>
      <trkpt lat="45.06565" lon="6.15186">
        <ele>1280.8</ele>
        <time>2020-09-05T07:13:08Z</time>
      </trkpt>
      <trkpt lat="45.06566" lon="6.15187">
        <ele>1281</ele>
        <time>2020-09-05T07:13:09Z</time>
      </trkpt>
      <trkpt lat="45.06569" lon="6.1519">
        <ele>1281.2</ele>
        <time>2020-09-05T07:13:11Z</time>
      </trkpt>
      <trkpt lat="45.06572" lon="6.15193">
        <ele>1281.6</ele>
        <time>2020-09-05T07:13:13Z</time>
      </trkpt>
      <trkpt lat="45.06573" lon="6.15194">
        <ele>1282</ele>
        <time>2020-09-05T07:13:14Z</time>
      </trkpt>
      <trkpt lat="45.06575" lon="6.15196">
        <ele>1282.2</ele>
        <time>2020-09-05T07:13:15Z</time>
      </trkpt>
      <trkpt lat="45.06577" lon="6.15197">
        <ele>1282.4</ele>
        <time>2020-09-05T07:13:16Z</time>
      </trkpt>
      <trkpt lat="45.06578" lon="6.15198">
        <ele>1282.6</ele>
        <time>2020-09-05T07:13:17Z</time>
      </trkpt>
      <trkpt lat="45.0658" lon="6.152">
        <ele>1282.6</ele>
        <time>2020-09-05T07:13:18Z</time>
      </trkpt>
      <trkpt lat="45.06581" lon="6.15201">
        <ele>1282.6</ele>
        <time>2020-09-05T07:13:19Z</time>
      </trkpt>
      <trkpt lat="45.06583" lon="6.15202">
        <ele>1283</ele>
        <time>2020-09-05T07:13:20Z</time>
      </trkpt>
      <trkpt lat="45.06584" lon="6.15204">
        <ele>1283.2</ele>
        <time>2020-09-05T07:13:21Z</time>
      </trkpt>
      <trkpt lat="45.06586" lon="6.15205">
        <ele>1283.4</ele>
        <time>2020-09-05T07:13:22Z</time>
      </trkpt>
      <trkpt lat="45.06587" lon="6.15207">
        <ele>1283.4</ele>
        <time>2020-09-05T07:13:23Z</time>
      </trkpt>
      <trkpt lat="45.06589" lon="6.15209">
        <ele>1283.8</ele>
        <time>2020-09-05T07:13:24Z</time>
      </trkpt>
      <trkpt lat="45.06591" lon="6.1521">
        <ele>1284</ele>
        <time>2020-09-05T07:13:25Z</time>
      </trkpt>
      <trkpt lat="45.06592" lon="6.15211">
        <ele>1284</ele>
        <time>2020-09-05T07:13:26Z</time>
      </trkpt>
      <trkpt lat="45.06595" lon="6.15214">
        <ele>1284.4</ele>
        <time>2020-09-05T07:13:28Z</time>
      </trkpt>
      <trkpt lat="45.06598" lon="6.15217">
        <ele>1284.8</ele>
        <time>2020-09-05T07:13:30Z</time>
      </trkpt>
      <trkpt lat="45.06599" lon="6.15219">
        <ele>1284.8</ele>
        <time>2020-09-05T07:13:31Z</time>
      </trkpt>
      <trkpt lat="45.06601" lon="6.1522">
        <ele>1285.2</ele>
        <time>2020-09-05T07:13:32Z</time>
      </trkpt>
      <trkpt lat="45.06602" lon="6.15222">
        <ele>1285.4</ele>
        <time>2020-09-05T07:13:33Z</time>
      </trkpt>
      <trkpt lat="45.06604" lon="6.15223">
        <ele>1285.4</ele>
        <time>2020-09-05T07:13:34Z</time>
      </trkpt>
      <trkpt lat="45.06606" lon="6.15224">
        <ele>1285.6</ele>
        <time>2020-09-05T07:13:35Z</time>
      </trkpt>
      <trkpt lat="45.06607" lon="6.15226">
        <ele>1285.8</ele>
        <time>2020-09-05T07:13:36Z</time>
      </trkpt>
      <trkpt lat="45.06609" lon="6.15228">
        <ele>1286.2</ele>
        <time>2020-09-05T07:13:37Z</time>
      </trkpt>
      <trkpt lat="45.0661" lon="6.15229">
        <ele>1286.4</ele>
        <time>2020-09-05T07:13:38Z</time>
      </trkpt>
      <trkpt lat="45.06612" lon="6.15231">
        <ele>1286.8</ele>
        <time>2020-09-05T07:13:39Z</time>
      </trkpt>
      <trkpt lat="45.06613" lon="6.15232">
        <ele>1287</ele>
        <time>2020-09-05T07:13:40Z</time>
      </trkpt>
      <trkpt lat="45.06615" lon="6.15234">
        <ele>1287</ele>
        <time>2020-09-05T07:13:41Z</time>
      </trkpt>
      <trkpt lat="45.06617" lon="6.15235">
        <ele>1287.4</ele>
        <time>2020-09-05T07:13:42Z</time>
      </trkpt>
      <trkpt lat="45.06618" lon="6.15237">
        <ele>1287.4</ele>
        <time>2020-09-05T07:13:43Z</time>
      </trkpt>
      <trkpt lat="45.0662" lon="6.15239">
        <ele>1287.8</ele>
        <time>2020-09-05T07:13:44Z</time>
      </trkpt>
      <trkpt lat="45.06621" lon="6.1524">
        <ele>1288</ele>
        <time>2020-09-05T07:13:45Z</time>
      </trkpt>
      <trkpt lat="45.06623" lon="6.15242">
        <ele>1288.2</ele>
        <time>2020-09-05T07:13:46Z</time>
      </trkpt>
      <trkpt lat="45.06625" lon="6.15243">
        <ele>1288.4</ele>
        <time>2020-09-05T07:13:47Z</time>
      </trkpt>
      <trkpt lat="45.06626" lon="6.15245">
        <ele>1288.6</ele>
        <time>2020-09-05T07:13:48Z</time>
      </trkpt>
      <trkpt lat="45.06628" lon="6.15246">
        <ele>1288.8</ele>
        <time>2020-09-05T07:13:49Z</time>
      </trkpt>
      <trkpt lat="45.0663" lon="6.15247">
        <ele>1289</ele>
        <time>2020-09-05T07:13:50Z</time>
      </trkpt>
      <trkpt lat="45.06632" lon="6.15248">
        <ele>1289</ele>
        <time>2020-09-05T07:13:51Z</time>
      </trkpt>
      <trkpt lat="45.06634" lon="6.1525">
        <ele>1289.4</ele>
        <time>2020-09-05T07:13:52Z</time>
      </trkpt>
      <trkpt lat="45.06635" lon="6.15251">
        <ele>1289.4</ele>
        <time>2020-09-05T07:13:53Z</time>
      </trkpt>
      <trkpt lat="45.06637" lon="6.15252">
        <ele>1289.6</ele>
        <time>2020-09-05T07:13:54Z</time>
      </trkpt>
      <trkpt lat="45.06639" lon="6.15253">
        <ele>1289.8</ele>
        <time>2020-09-05T07:13:55Z</time>
      </trkpt>
      <trkpt lat="45.06641" lon="6.15254">
        <ele>1290</ele>
        <time>2020-09-05T07:13:56Z</time>
      </trkpt>
      <trkpt lat="45.06643" lon="6.15255">
        <ele>1290.2</ele>
        <time>2020-09-05T07:13:57Z</time>
      </trkpt>
      <trkpt lat="45.06645" lon="6.15256">
        <ele>1290.4</ele>
        <time>2020-09-05T07:13:58Z</time>
      </trkpt>
      <trkpt lat="45.06647" lon="6.15257">
        <ele>1290.8</ele>
        <time>2020-09-05T07:13:59Z</time>
      </trkpt>
      <trkpt lat="45.06648" lon="6.15258">
        <ele>1291</ele>
        <time>2020-09-05T07:14:00Z</time>
      </trkpt>
      <trkpt lat="45.0665" lon="6.15259">
        <ele>1291.2</ele>
        <time>2020-09-05T07:14:01Z</time>
      </trkpt>
      <trkpt lat="45.06652" lon="6.1526">
        <ele>1291.4</ele>
        <time>2020-09-05T07:14:02Z</time>
      </trkpt>
      <trkpt lat="45.06654" lon="6.15261">
        <ele>1291.4</ele>
        <time>2020-09-05T07:14:03Z</time>
      </trkpt>
      <trkpt lat="45.06656" lon="6.15262">
        <ele>1291.6</ele>
        <time>2020-09-05T07:14:04Z</time>
      </trkpt>
      <trkpt lat="45.06658" lon="6.15263">
        <ele>1291.8</ele>
        <time>2020-09-05T07:14:05Z</time>
      </trkpt>
      <trkpt lat="45.0666" lon="6.15264">
        <ele>1292.2</ele>
        <time>2020-09-05T07:14:06Z</time>
      </trkpt>
      <trkpt lat="45.06662" lon="6.15266">
        <ele>1292.4</ele>
        <time>2020-09-05T07:14:07Z</time>
      </trkpt>
      <trkpt lat="45.06664" lon="6.15267">
        <ele>1292.6</ele>
        <time>2020-09-05T07:14:08Z</time>
      </trkpt>
      <trkpt lat="45.06666" lon="6.15268">
        <ele>1293</ele>
        <time>2020-09-05T07:14:09Z</time>
      </trkpt>
      <trkpt lat="45.06667" lon="6.1527">
        <ele>1293.2</ele>
        <time>2020-09-05T07:14:10Z</time>
      </trkpt>
      <trkpt lat="45.06669" lon="6.15271">
        <ele>1293.4</ele>
        <time>2020-09-05T07:14:11Z</time>
      </trkpt>
      <trkpt lat="45.06671" lon="6.15272">
        <ele>1293.4</ele>
        <time>2020-09-05T07:14:12Z</time>
      </trkpt>
      <trkpt lat="45.06672" lon="6.15273">
        <ele>1293.6</ele>
        <time>2020-09-05T07:14:13Z</time>
      </trkpt>
      <trkpt lat="45.06674" lon="6.15275">
        <ele>1294</ele>
        <time>2020-09-05T07:14:14Z</time>
      </trkpt>
      <trkpt lat="45.06676" lon="6.15276">
        <ele>1294.2</ele>
        <time>2020-09-05T07:14:15Z</time>
      </trkpt>
      <trkpt lat="45.06677" lon="6.15278">
        <ele>1294.6</ele>
        <time>2020-09-05T07:14:16Z</time>
      </trkpt>
      <trkpt lat="45.06679" lon="6.15279">
        <ele>1294.8</ele>
        <time>2020-09-05T07:14:17Z</time>
      </trkpt>
      <trkpt lat="45.06681" lon="6.1528">
        <ele>1295</ele>
        <time>2020-09-05T07:14:18Z</time>
      </trkpt>
      <trkpt lat="45.06683" lon="6.15282">
        <ele>1295.2</ele>
        <time>2020-09-05T07:14:19Z</time>
      </trkpt>
      <trkpt lat="45.06684" lon="6.15284">
        <ele>1295.4</ele>
        <time>2020-09-05T07:14:20Z</time>
      </trkpt>
      <trkpt lat="45.06686" lon="6.15285">
        <ele>1295.6</ele>
        <time>2020-09-05T07:14:21Z</time>
      </trkpt>
      <trkpt lat="45.06688" lon="6.15286">
        <ele>1295.8</ele>
        <time>2020-09-05T07:14:22Z</time>
      </trkpt>
      <trkpt lat="45.0669" lon="6.15288">
        <ele>1296</ele>
        <time>2020-09-05T07:14:23Z</time>
      </trkpt>
      <trkpt lat="45.06692" lon="6.15289">
        <ele>1296.2</ele>
        <time>2020-09-05T07:14:24Z</time>
      </trkpt>
      <trkpt lat="45.06694" lon="6.15291">
        <ele>1296.6</ele>
        <time>2020-09-05T07:14:25Z</time>
      </trkpt>
      <trkpt lat="45.06695" lon="6.15293">
        <ele>1296.8</ele>
        <time>2020-09-05T07:14:26Z</time>
      </trkpt>
      <trkpt lat="45.06697" lon="6.15295">
        <ele>1297</ele>
        <time>2020-09-05T07:14:27Z</time>
      </trkpt>
      <trkpt lat="45.06699" lon="6.15297">
        <ele>1297.2</ele>
        <time>2020-09-05T07:14:28Z</time>
      </trkpt>
      <trkpt lat="45.06701" lon="6.15299">
        <ele>1297.4</ele>
        <time>2020-09-05T07:14:29Z</time>
      </trkpt>
      <trkpt lat="45.06702" lon="6.15301">
        <ele>1297.8</ele>
        <time>2020-09-05T07:14:30Z</time>
      </trkpt>
      <trkpt lat="45.06704" lon="6.15302">
        <ele>1298</ele>
        <time>2020-09-05T07:14:31Z</time>
      </trkpt>
      <trkpt lat="45.06706" lon="6.15304">
        <ele>1298.2</ele>
        <time>2020-09-05T07:14:32Z</time>
      </trkpt>
      <trkpt lat="45.06708" lon="6.15306">
        <ele>1298.2</ele>
        <time>2020-09-05T07:14:33Z</time>
      </trkpt>
      <trkpt lat="45.06709" lon="6.15308">
        <ele>1298.4</ele>
        <time>2020-09-05T07:14:34Z</time>
      </trkpt>
      <trkpt lat="45.06711" lon="6.1531">
        <ele>1298.6</ele>
        <time>2020-09-05T07:14:35Z</time>
      </trkpt>
      <trkpt lat="45.06713" lon="6.15311">
        <ele>1299</ele>
        <time>2020-09-05T07:14:36Z</time>
      </trkpt>
      <trkpt lat="45.06715" lon="6.15313">
        <ele>1299.2</ele>
        <time>2020-09-05T07:14:37Z</time>
      </trkpt>
      <trkpt lat="45.06717" lon="6.15315">
        <ele>1299.4</ele>
        <time>2020-09-05T07:14:38Z</time>
      </trkpt>
      <trkpt lat="45.06718" lon="6.15316">
        <ele>1299.6</ele>
        <time>2020-09-05T07:14:39Z</time>
      </trkpt>
      <trkpt lat="45.0672" lon="6.15318">
        <ele>1299.8</ele>
        <time>2020-09-05T07:14:40Z</time>
      </trkpt>
      <trkpt lat="45.06722" lon="6.1532">
        <ele>1300.2</ele>
        <time>2020-09-05T07:14:41Z</time>
      </trkpt>
      <trkpt lat="45.06724" lon="6.15322">
        <ele>1300.4</ele>
        <time>2020-09-05T07:14:42Z</time>
      </trkpt>
      <trkpt lat="45.06726" lon="6.15323">
        <ele>1300.4</ele>
        <time>2020-09-05T07:14:43Z</time>
      </trkpt>
      <trkpt lat="45.06728" lon="6.15325">
        <ele>1300.8</ele>
        <time>2020-09-05T07:14:44Z</time>
      </trkpt>
      <trkpt lat="45.06729" lon="6.15327">
        <ele>1301</ele>
        <time>2020-09-05T07:14:45Z</time>
      </trkpt>
      <trkpt lat="45.06731" lon="6.15329">
        <ele>1301.4</ele>
        <time>2020-09-05T07:14:46Z</time>
      </trkpt>
      <trkpt lat="45.06733" lon="6.1533">
        <ele>1301.6</ele>
        <time>2020-09-05T07:14:47Z</time>
      </trkpt>
      <trkpt lat="45.06735" lon="6.15332">
        <ele>1301.6</ele>
        <time>2020-09-05T07:14:48Z</time>
      </trkpt>
      <trkpt lat="45.06737" lon="6.15334">
        <ele>1301.8</ele>
        <time>2020-09-05T07:14:49Z</time>
      </trkpt>
      <trkpt lat="45.06739" lon="6.15335">
        <ele>1302.2</ele>
        <time>2020-09-05T07:14:50Z</time>
      </trkpt>
      <trkpt lat="45.06741" lon="6.15336">
        <ele>1302.2</ele>
        <time>2020-09-05T07:14:51Z</time>
      </trkpt>
      <trkpt lat="45.06743" lon="6.15338">
        <ele>1302.4</ele>
        <time>2020-09-05T07:14:52Z</time>
      </trkpt>
      <trkpt lat="45.06745" lon="6.15339">
        <ele>1302.6</ele>
        <time>2020-09-05T07:14:53Z</time>
      </trkpt>
      <trkpt lat="45.06747" lon="6.1534">
        <ele>1302.8</ele>
        <time>2020-09-05T07:14:54Z</time>
      </trkpt>
      <trkpt lat="45.06749" lon="6.15341">
        <ele>1302.8</ele>
        <time>2020-09-05T07:14:55Z</time>
      </trkpt>
      <trkpt lat="45.06751" lon="6.15342">
        <ele>1303.2</ele>
        <time>2020-09-05T07:14:56Z</time>
      </trkpt>
      <trkpt lat="45.06753" lon="6.15343">
        <ele>1303.4</ele>
        <time>2020-09-05T07:14:57Z</time>
      </trkpt>
      <trkpt lat="45.06756" lon="6.15344">
        <ele>1304</ele>
        <time>2020-09-05T07:14:58Z</time>
      </trkpt>
      <trkpt lat="45.06758" lon="6.15344">
        <ele>1304.2</ele>
        <time>2020-09-05T07:14:59Z</time>
      </trkpt>
      <trkpt lat="45.0676" lon="6.15345">
        <ele>1304.6</ele>
        <time>2020-09-05T07:15:00Z</time>
      </trkpt>
      <trkpt lat="45.06762" lon="6.15345">
        <ele>1304.8</ele>
        <time>2020-09-05T07:15:01Z</time>
      </trkpt>
      <trkpt lat="45.06765" lon="6.15345">
        <ele>1305</ele>
        <time>2020-09-05T07:15:02Z</time>
      </trkpt>
      <trkpt lat="45.06767" lon="6.15345">
        <ele>1305.2</ele>
        <time>2020-09-05T07:15:03Z</time>
      </trkpt>
      <trkpt lat="45.06769" lon="6.15345">
        <ele>1305.2</ele>
        <time>2020-09-05T07:15:04Z</time>
      </trkpt>
      <trkpt lat="45.06771" lon="6.15345">
        <ele>1305.6</ele>
        <time>2020-09-05T07:15:05Z</time>
      </trkpt>
      <trkpt lat="45.06773" lon="6.15345">
        <ele>1305.8</ele>
        <time>2020-09-05T07:15:06Z</time>
      </trkpt>
      <trkpt lat="45.06775" lon="6.15345">
        <ele>1306.2</ele>
        <time>2020-09-05T07:15:07Z</time>
      </trkpt>
      <trkpt lat="45.06777" lon="6.15345">
        <ele>1306.4</ele>
        <time>2020-09-05T07:15:08Z</time>
      </trkpt>
      <trkpt lat="45.06779" lon="6.15345">
        <ele>1306.6</ele>
        <time>2020-09-05T07:15:09Z</time>
      </trkpt>
      <trkpt lat="45.06781" lon="6.15345">
        <ele>1307.2</ele>
        <time>2020-09-05T07:15:10Z</time>
      </trkpt>
      <trkpt lat="45.06784" lon="6.15345">
        <ele>1307.4</ele>
        <time>2020-09-05T07:15:11Z</time>
      </trkpt>
      <trkpt lat="45.06786" lon="6.15345">
        <ele>1307.8</ele>
        <time>2020-09-05T07:15:12Z</time>
      </trkpt>
      <trkpt lat="45.06789" lon="6.15345">
        <ele>1307.8</ele>
        <time>2020-09-05T07:15:13Z</time>
      </trkpt>
      <trkpt lat="45.06791" lon="6.15345">
        <ele>1308.2</ele>
        <time>2020-09-05T07:15:14Z</time>
      </trkpt>
      <trkpt lat="45.06793" lon="6.15345">
        <ele>1308.4</ele>
        <time>2020-09-05T07:15:15Z</time>
      </trkpt>
      <trkpt lat="45.06796" lon="6.15346">
        <ele>1308.4</ele>
        <time>2020-09-05T07:15:16Z</time>
      </trkpt>
      <trkpt lat="45.068" lon="6.15345">
        <ele>1308.8</ele>
        <time>2020-09-05T07:15:18Z</time>
      </trkpt>
      <trkpt lat="45.06803" lon="6.15345">
        <ele>1309</ele>
        <time>2020-09-05T07:15:19Z</time>
      </trkpt>
      <trkpt lat="45.06804" lon="6.15345">
        <ele>1309.2</ele>
        <time>2020-09-05T07:15:20Z</time>
      </trkpt>
      <trkpt lat="45.06806" lon="6.15344">
        <ele>1309.6</ele>
        <time>2020-09-05T07:15:21Z</time>
      </trkpt>
      <trkpt lat="45.06809" lon="6.15345">
        <ele>1310</ele>
        <time>2020-09-05T07:15:22Z</time>
      </trkpt>
      <trkpt lat="45.06811" lon="6.15345">
        <ele>1310.4</ele>
        <time>2020-09-05T07:15:23Z</time>
      </trkpt>
      <trkpt lat="45.06818" lon="6.15345">
        <ele>1311.2</ele>
        <time>2020-09-05T07:15:26Z</time>
      </trkpt>
      <trkpt lat="45.0682" lon="6.15345">
        <ele>1311.4</ele>
        <time>2020-09-05T07:15:27Z</time>
      </trkpt>
      <trkpt lat="45.06822" lon="6.15345">
        <ele>1311.4</ele>
        <time>2020-09-05T07:15:28Z</time>
      </trkpt>
      <trkpt lat="45.06824" lon="6.15346">
        <ele>1311.6</ele>
        <time>2020-09-05T07:15:29Z</time>
      </trkpt>
      <trkpt lat="45.06826" lon="6.15346">
        <ele>1311.8</ele>
        <time>2020-09-05T07:15:30Z</time>
      </trkpt>
      <trkpt lat="45.06828" lon="6.15346">
        <ele>1312</ele>
        <time>2020-09-05T07:15:31Z</time>
      </trkpt>
      <trkpt lat="45.0683" lon="6.15346">
        <ele>1312.2</ele>
        <time>2020-09-05T07:15:32Z</time>
      </trkpt>
      <trkpt lat="45.06832" lon="6.15347">
        <ele>1312.6</ele>
        <time>2020-09-05T07:15:33Z</time>
      </trkpt>
      <trkpt lat="45.06834" lon="6.15347">
        <ele>1312.8</ele>
        <time>2020-09-05T07:15:34Z</time>
      </trkpt>
      <trkpt lat="45.06836" lon="6.15347">
        <ele>1313.2</ele>
        <time>2020-09-05T07:15:35Z</time>
      </trkpt>
      <trkpt lat="45.06838" lon="6.15347">
        <ele>1313.2</ele>
        <time>2020-09-05T07:15:36Z</time>
      </trkpt>
      <trkpt lat="45.0684" lon="6.15347">
        <ele>1313.4</ele>
        <time>2020-09-05T07:15:37Z</time>
      </trkpt>
      <trkpt lat="45.06842" lon="6.15347">
        <ele>1313.6</ele>
        <time>2020-09-05T07:15:38Z</time>
      </trkpt>
      <trkpt lat="45.06844" lon="6.15348">
        <ele>1313.8</ele>
        <time>2020-09-05T07:15:39Z</time>
      </trkpt>
      <trkpt lat="45.06846" lon="6.15349">
        <ele>1314</ele>
        <time>2020-09-05T07:15:40Z</time>
      </trkpt>
      <trkpt lat="45.06848" lon="6.1535">
        <ele>1314.2</ele>
        <time>2020-09-05T07:15:41Z</time>
      </trkpt>
      <trkpt lat="45.0685" lon="6.15351">
        <ele>1314.4</ele>
        <time>2020-09-05T07:15:42Z</time>
      </trkpt>
      <trkpt lat="45.06852" lon="6.15352">
        <ele>1314.8</ele>
        <time>2020-09-05T07:15:43Z</time>
      </trkpt>
      <trkpt lat="45.06854" lon="6.15353">
        <ele>1315</ele>
        <time>2020-09-05T07:15:44Z</time>
      </trkpt>
      <trkpt lat="45.06856" lon="6.15354">
        <ele>1315.2</ele>
        <time>2020-09-05T07:15:45Z</time>
      </trkpt>
      <trkpt lat="45.06858" lon="6.15355">
        <ele>1315.6</ele>
        <time>2020-09-05T07:15:46Z</time>
      </trkpt>
      <trkpt lat="45.06859" lon="6.15356">
        <ele>1315.8</ele>
        <time>2020-09-05T07:15:47Z</time>
      </trkpt>
      <trkpt lat="45.06861" lon="6.15357">
        <ele>1316</ele>
        <time>2020-09-05T07:15:48Z</time>
      </trkpt>
      <trkpt lat="45.06863" lon="6.15359">
        <ele>1316.4</ele>
        <time>2020-09-05T07:15:49Z</time>
      </trkpt>
      <trkpt lat="45.06865" lon="6.1536">
        <ele>1316.4</ele>
        <time>2020-09-05T07:15:50Z</time>
      </trkpt>
      <trkpt lat="45.06867" lon="6.15362">
        <ele>1316.6</ele>
        <time>2020-09-05T07:15:51Z</time>
      </trkpt>
      <trkpt lat="45.06869" lon="6.15363">
        <ele>1317</ele>
        <time>2020-09-05T07:15:52Z</time>
      </trkpt>
      <trkpt lat="45.0687" lon="6.15365">
        <ele>1317.2</ele>
        <time>2020-09-05T07:15:53Z</time>
      </trkpt>
      <trkpt lat="45.06872" lon="6.15366">
        <ele>1317.4</ele>
        <time>2020-09-05T07:15:54Z</time>
      </trkpt>
      <trkpt lat="45.06874" lon="6.15367">
        <ele>1317.8</ele>
        <time>2020-09-05T07:15:55Z</time>
      </trkpt>
      <trkpt lat="45.06876" lon="6.15369">
        <ele>1318</ele>
        <time>2020-09-05T07:15:56Z</time>
      </trkpt>
      <trkpt lat="45.06878" lon="6.1537">
        <ele>1318.2</ele>
        <time>2020-09-05T07:15:57Z</time>
      </trkpt>
      <trkpt lat="45.0688" lon="6.15371">
        <ele>1318.4</ele>
        <time>2020-09-05T07:15:58Z</time>
      </trkpt>
      <trkpt lat="45.06882" lon="6.15372">
        <ele>1318.6</ele>
        <time>2020-09-05T07:15:59Z</time>
      </trkpt>
      <trkpt lat="45.06884" lon="6.15373">
        <ele>1319</ele>
        <time>2020-09-05T07:16:00Z</time>
      </trkpt>
      <trkpt lat="45.06886" lon="6.15375">
        <ele>1319.2</ele>
        <time>2020-09-05T07:16:01Z</time>
      </trkpt>
      <trkpt lat="45.06888" lon="6.15376">
        <ele>1319.4</ele>
        <time>2020-09-05T07:16:02Z</time>
      </trkpt>
      <trkpt lat="45.0689" lon="6.15377">
        <ele>1319.6</ele>
        <time>2020-09-05T07:16:03Z</time>
      </trkpt>
      <trkpt lat="45.06892" lon="6.15378">
        <ele>1319.8</ele>
        <time>2020-09-05T07:16:04Z</time>
      </trkpt>
      <trkpt lat="45.06895" lon="6.15379">
        <ele>1320</ele>
        <time>2020-09-05T07:16:05Z</time>
      </trkpt>
      <trkpt lat="45.06897" lon="6.1538">
        <ele>1320.2</ele>
        <time>2020-09-05T07:16:06Z</time>
      </trkpt>
      <trkpt lat="45.06899" lon="6.1538">
        <ele>1320.4</ele>
        <time>2020-09-05T07:16:07Z</time>
      </trkpt>
      <trkpt lat="45.06901" lon="6.15381">
        <ele>1320.4</ele>
        <time>2020-09-05T07:16:08Z</time>
      </trkpt>
      <trkpt lat="45.06904" lon="6.15382">
        <ele>1320.8</ele>
        <time>2020-09-05T07:16:09Z</time>
      </trkpt>
      <trkpt lat="45.06906" lon="6.15382">
        <ele>1321</ele>
        <time>2020-09-05T07:16:10Z</time>
      </trkpt>
      <trkpt lat="45.06908" lon="6.15383">
        <ele>1321.4</ele>
        <time>2020-09-05T07:16:11Z</time>
      </trkpt>
      <trkpt lat="45.06911" lon="6.15383">
        <ele>1321.8</ele>
        <time>2020-09-05T07:16:12Z</time>
      </trkpt>
      <trkpt lat="45.06913" lon="6.15384">
        <ele>1322</ele>
        <time>2020-09-05T07:16:13Z</time>
      </trkpt>
      <trkpt lat="45.06915" lon="6.15384">
        <ele>1322.2</ele>
        <time>2020-09-05T07:16:14Z</time>
      </trkpt>
      <trkpt lat="45.06917" lon="6.15385">
        <ele>1322.4</ele>
        <time>2020-09-05T07:16:15Z</time>
      </trkpt>
      <trkpt lat="45.0692" lon="6.15385">
        <ele>1322.6</ele>
        <time>2020-09-05T07:16:16Z</time>
      </trkpt>
      <trkpt lat="45.06922" lon="6.15385">
        <ele>1322.8</ele>
        <time>2020-09-05T07:16:17Z</time>
      </trkpt>
      <trkpt lat="45.06924" lon="6.15385">
        <ele>1323</ele>
        <time>2020-09-05T07:16:18Z</time>
      </trkpt>
      <trkpt lat="45.06926" lon="6.15384">
        <ele>1323.2</ele>
        <time>2020-09-05T07:16:19Z</time>
      </trkpt>
      <trkpt lat="45.06928" lon="6.15384">
        <ele>1323.4</ele>
        <time>2020-09-05T07:16:20Z</time>
      </trkpt>
      <trkpt lat="45.06931" lon="6.15383">
        <ele>1323.8</ele>
        <time>2020-09-05T07:16:21Z</time>
      </trkpt>
      <trkpt lat="45.06933" lon="6.15383">
        <ele>1324</ele>
        <time>2020-09-05T07:16:22Z</time>
      </trkpt>
      <trkpt lat="45.06935" lon="6.15382">
        <ele>1324.4</ele>
        <time>2020-09-05T07:16:23Z</time>
      </trkpt>
      <trkpt lat="45.06936" lon="6.1538">
        <ele>1324.4</ele>
        <time>2020-09-05T07:16:24Z</time>
      </trkpt>
      <trkpt lat="45.06938" lon="6.15377">
        <ele>1324.6</ele>
        <time>2020-09-05T07:16:25Z</time>
      </trkpt>
      <trkpt lat="45.0694" lon="6.15376">
        <ele>1324.8</ele>
        <time>2020-09-05T07:16:26Z</time>
      </trkpt>
      <trkpt lat="45.06943" lon="6.15376">
        <ele>1325.2</ele>
        <time>2020-09-05T07:16:27Z</time>
      </trkpt>
      <trkpt lat="45.06944" lon="6.15375">
        <ele>1325.4</ele>
        <time>2020-09-05T07:16:28Z</time>
      </trkpt>
      <trkpt lat="45.06947" lon="6.15374">
        <ele>1326.2</ele>
        <time>2020-09-05T07:16:30Z</time>
      </trkpt>
      <trkpt lat="45.06951" lon="6.15372">
        <ele>1326.4</ele>
        <time>2020-09-05T07:16:32Z</time>
      </trkpt>
      <trkpt lat="45.06953" lon="6.15371">
        <ele>1326.6</ele>
        <time>2020-09-05T07:16:33Z</time>
      </trkpt>
      <trkpt lat="45.06955" lon="6.1537">
        <ele>1327</ele>
        <time>2020-09-05T07:16:34Z</time>
      </trkpt>
      <trkpt lat="45.06957" lon="6.15369">
        <ele>1327.2</ele>
        <time>2020-09-05T07:16:35Z</time>
      </trkpt>
      <trkpt lat="45.0696" lon="6.15368">
        <ele>1327.4</ele>
        <time>2020-09-05T07:16:36Z</time>
      </trkpt>
      <trkpt lat="45.06962" lon="6.15367">
        <ele>1327.6</ele>
        <time>2020-09-05T07:16:37Z</time>
      </trkpt>
      <trkpt lat="45.06964" lon="6.15367">
        <ele>1327.8</ele>
        <time>2020-09-05T07:16:38Z</time>
      </trkpt>
      <trkpt lat="45.06966" lon="6.15366">
        <ele>1327.8</ele>
        <time>2020-09-05T07:16:39Z</time>
      </trkpt>
      <trkpt lat="45.06968" lon="6.15365">
        <ele>1328</ele>
        <time>2020-09-05T07:16:40Z</time>
      </trkpt>
      <trkpt lat="45.0697" lon="6.15364">
        <ele>1328.2</ele>
        <time>2020-09-05T07:16:41Z</time>
      </trkpt>
      <trkpt lat="45.06972" lon="6.15363">
        <ele>1328.6</ele>
        <time>2020-09-05T07:16:42Z</time>
      </trkpt>
      <trkpt lat="45.06975" lon="6.15362">
        <ele>1329</ele>
        <time>2020-09-05T07:16:43Z</time>
      </trkpt>
      <trkpt lat="45.06977" lon="6.15362">
        <ele>1329.4</ele>
        <time>2020-09-05T07:16:44Z</time>
      </trkpt>
      <trkpt lat="45.0698" lon="6.15361">
        <ele>1329.4</ele>
        <time>2020-09-05T07:16:45Z</time>
      </trkpt>
      <trkpt lat="45.06982" lon="6.15361">
        <ele>1329.4</ele>
        <time>2020-09-05T07:16:46Z</time>
      </trkpt>
      <trkpt lat="45.06984" lon="6.1536">
        <ele>1329.6</ele>
        <time>2020-09-05T07:16:47Z</time>
      </trkpt>
      <trkpt lat="45.06986" lon="6.1536">
        <ele>1330</ele>
        <time>2020-09-05T07:16:48Z</time>
      </trkpt>
      <trkpt lat="45.06988" lon="6.1536">
        <ele>1330.4</ele>
        <time>2020-09-05T07:16:49Z</time>
      </trkpt>
      <trkpt lat="45.06991" lon="6.1536">
        <ele>1330.6</ele>
        <time>2020-09-05T07:16:51Z</time>
      </trkpt>
      <trkpt lat="45.06993" lon="6.1536">
        <ele>1330.8</ele>
        <time>2020-09-05T07:16:52Z</time>
      </trkpt>
      <trkpt lat="45.06995" lon="6.1536">
        <ele>1331.2</ele>
        <time>2020-09-05T07:16:53Z</time>
      </trkpt>
      <trkpt lat="45.06997" lon="6.15359">
        <ele>1331.4</ele>
        <time>2020-09-05T07:16:54Z</time>
      </trkpt>
      <trkpt lat="45.06999" lon="6.15359">
        <ele>1331.8</ele>
        <time>2020-09-05T07:16:55Z</time>
      </trkpt>
      <trkpt lat="45.07001" lon="6.15358">
        <ele>1332</ele>
        <time>2020-09-05T07:16:56Z</time>
      </trkpt>
      <trkpt lat="45.07003" lon="6.15358">
        <ele>1332.2</ele>
        <time>2020-09-05T07:16:57Z</time>
      </trkpt>
      <trkpt lat="45.07005" lon="6.15358">
        <ele>1332.4</ele>
        <time>2020-09-05T07:16:58Z</time>
      </trkpt>
      <trkpt lat="45.07007" lon="6.15358">
        <ele>1332.4</ele>
        <time>2020-09-05T07:16:59Z</time>
      </trkpt>
      <trkpt lat="45.07009" lon="6.15358">
        <ele>1332.8</ele>
        <time>2020-09-05T07:17:00Z</time>
      </trkpt>
      <trkpt lat="45.07011" lon="6.15358">
        <ele>1333</ele>
        <time>2020-09-05T07:17:01Z</time>
      </trkpt>
      <trkpt lat="45.07014" lon="6.15358">
        <ele>1333</ele>
        <time>2020-09-05T07:17:02Z</time>
      </trkpt>
      <trkpt lat="45.07016" lon="6.15358">
        <ele>1333.2</ele>
        <time>2020-09-05T07:17:03Z</time>
      </trkpt>
      <trkpt lat="45.07018" lon="6.15358">
        <ele>1333.4</ele>
        <time>2020-09-05T07:17:04Z</time>
      </trkpt>
      <trkpt lat="45.0702" lon="6.15358">
        <ele>1333.8</ele>
        <time>2020-09-05T07:17:05Z</time>
      </trkpt>
      <trkpt lat="45.07022" lon="6.15357">
        <ele>1334</ele>
        <time>2020-09-05T07:17:06Z</time>
      </trkpt>
      <trkpt lat="45.07024" lon="6.15358">
        <ele>1334.6</ele>
        <time>2020-09-05T07:17:07Z</time>
      </trkpt>
      <trkpt lat="45.07026" lon="6.15358">
        <ele>1334.6</ele>
        <time>2020-09-05T07:17:08Z</time>
      </trkpt>
      <trkpt lat="45.07028" lon="6.15358">
        <ele>1334.8</ele>
        <time>2020-09-05T07:17:09Z</time>
      </trkpt>
      <trkpt lat="45.0703" lon="6.15358">
        <ele>1335</ele>
        <time>2020-09-05T07:17:10Z</time>
      </trkpt>
      <trkpt lat="45.07032" lon="6.15359">
        <ele>1335.2</ele>
        <time>2020-09-05T07:17:11Z</time>
      </trkpt>
      <trkpt lat="45.07034" lon="6.15359">
        <ele>1335.2</ele>
        <time>2020-09-05T07:17:12Z</time>
      </trkpt>
      <trkpt lat="45.07036" lon="6.15359">
        <ele>1335.6</ele>
        <time>2020-09-05T07:17:13Z</time>
      </trkpt>
      <trkpt lat="45.07038" lon="6.15359">
        <ele>1335.6</ele>
        <time>2020-09-05T07:17:14Z</time>
      </trkpt>
      <trkpt lat="45.0704" lon="6.1536">
        <ele>1335.8</ele>
        <time>2020-09-05T07:17:15Z</time>
      </trkpt>
      <trkpt lat="45.07042" lon="6.1536">
        <ele>1336.2</ele>
        <time>2020-09-05T07:17:16Z</time>
      </trkpt>
      <trkpt lat="45.07044" lon="6.15361">
        <ele>1336.4</ele>
        <time>2020-09-05T07:17:17Z</time>
      </trkpt>
      <trkpt lat="45.07046" lon="6.15361">
        <ele>1336.6</ele>
        <time>2020-09-05T07:17:18Z</time>
      </trkpt>
      <trkpt lat="45.07048" lon="6.15362">
        <ele>1336.8</ele>
        <time>2020-09-05T07:17:19Z</time>
      </trkpt>
      <trkpt lat="45.0705" lon="6.15363">
        <ele>1337</ele>
        <time>2020-09-05T07:17:20Z</time>
      </trkpt>
      <trkpt lat="45.07052" lon="6.15364">
        <ele>1337.2</ele>
        <time>2020-09-05T07:17:21Z</time>
      </trkpt>
      <trkpt lat="45.07054" lon="6.15365">
        <ele>1337.4</ele>
        <time>2020-09-05T07:17:22Z</time>
      </trkpt>
      <trkpt lat="45.07056" lon="6.15366">
        <ele>1337.8</ele>
        <time>2020-09-05T07:17:23Z</time>
      </trkpt>
      <trkpt lat="45.07058" lon="6.15367">
        <ele>1338</ele>
        <time>2020-09-05T07:17:24Z</time>
      </trkpt>
      <trkpt lat="45.0706" lon="6.15368">
        <ele>1338</ele>
        <time>2020-09-05T07:17:25Z</time>
      </trkpt>
      <trkpt lat="45.07062" lon="6.15369">
        <ele>1338.4</ele>
        <time>2020-09-05T07:17:26Z</time>
      </trkpt>
      <trkpt lat="45.07064" lon="6.1537">
        <ele>1338.8</ele>
        <time>2020-09-05T07:17:27Z</time>
      </trkpt>
      <trkpt lat="45.07065" lon="6.15372">
        <ele>1339</ele>
        <time>2020-09-05T07:17:28Z</time>
      </trkpt>
      <trkpt lat="45.07067" lon="6.15373">
        <ele>1339.2</ele>
        <time>2020-09-05T07:17:29Z</time>
      </trkpt>
      <trkpt lat="45.07069" lon="6.15375">
        <ele>1339.4</ele>
        <time>2020-09-05T07:17:30Z</time>
      </trkpt>
      <trkpt lat="45.07071" lon="6.15376">
        <ele>1339.8</ele>
        <time>2020-09-05T07:17:31Z</time>
      </trkpt>
      <trkpt lat="45.07073" lon="6.15378">
        <ele>1339.8</ele>
        <time>2020-09-05T07:17:32Z</time>
      </trkpt>
      <trkpt lat="45.07075" lon="6.15379">
        <ele>1340.2</ele>
        <time>2020-09-05T07:17:33Z</time>
      </trkpt>
      <trkpt lat="45.07077" lon="6.15381">
        <ele>1340.4</ele>
        <time>2020-09-05T07:17:34Z</time>
      </trkpt>
      <trkpt lat="45.07079" lon="6.15383">
        <ele>1340.6</ele>
        <time>2020-09-05T07:17:35Z</time>
      </trkpt>
      <trkpt lat="45.07081" lon="6.15385">
        <ele>1341</ele>
        <time>2020-09-05T07:17:36Z</time>
      </trkpt>
      <trkpt lat="45.07083" lon="6.15387">
        <ele>1341.2</ele>
        <time>2020-09-05T07:17:37Z</time>
      </trkpt>
      <trkpt lat="45.07085" lon="6.15388">
        <ele>1341.4</ele>
        <time>2020-09-05T07:17:38Z</time>
      </trkpt>
      <trkpt lat="45.07087" lon="6.1539">
        <ele>1341.6</ele>
        <time>2020-09-05T07:17:39Z</time>
      </trkpt>
      <trkpt lat="45.07089" lon="6.15392">
        <ele>1341.8</ele>
        <time>2020-09-05T07:17:40Z</time>
      </trkpt>
      <trkpt lat="45.07091" lon="6.15394">
        <ele>1342.2</ele>
        <time>2020-09-05T07:17:41Z</time>
      </trkpt>
      <trkpt lat="45.07092" lon="6.15396">
        <ele>1342.4</ele>
        <time>2020-09-05T07:17:42Z</time>
      </trkpt>
      <trkpt lat="45.07094" lon="6.15398">
        <ele>1342.6</ele>
        <time>2020-09-05T07:17:43Z</time>
      </trkpt>
      <trkpt lat="45.07096" lon="6.154">
        <ele>1342.6</ele>
        <time>2020-09-05T07:17:44Z</time>
      </trkpt>
      <trkpt lat="45.07098" lon="6.15401">
        <ele>1343</ele>
        <time>2020-09-05T07:17:45Z</time>
      </trkpt>
      <trkpt lat="45.071" lon="6.15402">
        <ele>1343</ele>
        <time>2020-09-05T07:17:46Z</time>
      </trkpt>
      <trkpt lat="45.07102" lon="6.15404">
        <ele>1343.2</ele>
        <time>2020-09-05T07:17:47Z</time>
      </trkpt>
      <trkpt lat="45.07105" lon="6.15405">
        <ele>1343.4</ele>
        <time>2020-09-05T07:17:48Z</time>
      </trkpt>
      <trkpt lat="45.07107" lon="6.15406">
        <ele>1343.4</ele>
        <time>2020-09-05T07:17:49Z</time>
      </trkpt>
      <trkpt lat="45.07109" lon="6.15407">
        <ele>1343.6</ele>
        <time>2020-09-05T07:17:50Z</time>
      </trkpt>
      <trkpt lat="45.07111" lon="6.15409">
        <ele>1343.8</ele>
        <time>2020-09-05T07:17:51Z</time>
      </trkpt>
      <trkpt lat="45.07113" lon="6.15411">
        <ele>1344</ele>
        <time>2020-09-05T07:17:52Z</time>
      </trkpt>
      <trkpt lat="45.07115" lon="6.15413">
        <ele>1344.4</ele>
        <time>2020-09-05T07:17:53Z</time>
      </trkpt>
      <trkpt lat="45.07117" lon="6.15415">
        <ele>1344.6</ele>
        <time>2020-09-05T07:17:54Z</time>
      </trkpt>
      <trkpt lat="45.07119" lon="6.15417">
        <ele>1344.8</ele>
        <time>2020-09-05T07:17:55Z</time>
      </trkpt>
      <trkpt lat="45.07121" lon="6.15419">
        <ele>1345</ele>
        <time>2020-09-05T07:17:56Z</time>
      </trkpt>
      <trkpt lat="45.07123" lon="6.15422">
        <ele>1344.8</ele>
        <time>2020-09-05T07:17:57Z</time>
      </trkpt>
      <trkpt lat="45.07124" lon="6.15424">
        <ele>1345</ele>
        <time>2020-09-05T07:17:58Z</time>
      </trkpt>
      <trkpt lat="45.07126" lon="6.15426">
        <ele>1345.2</ele>
        <time>2020-09-05T07:17:59Z</time>
      </trkpt>
      <trkpt lat="45.07127" lon="6.15429">
        <ele>1345.4</ele>
        <time>2020-09-05T07:18:00Z</time>
      </trkpt>
      <trkpt lat="45.07129" lon="6.15433">
        <ele>1345.4</ele>
        <time>2020-09-05T07:18:01Z</time>
      </trkpt>
      <trkpt lat="45.07129" lon="6.15437">
        <ele>1345.4</ele>
        <time>2020-09-05T07:18:02Z</time>
      </trkpt>
      <trkpt lat="45.0713" lon="6.15442">
        <ele>1345.6</ele>
        <time>2020-09-05T07:18:03Z</time>
      </trkpt>
      <trkpt lat="45.07131" lon="6.15448">
        <ele>1345.6</ele>
        <time>2020-09-05T07:18:04Z</time>
      </trkpt>
      <trkpt lat="45.07133" lon="6.15454">
        <ele>1345.4</ele>
        <time>2020-09-05T07:18:05Z</time>
      </trkpt>
      <trkpt lat="45.07134" lon="6.15461">
        <ele>1345.4</ele>
        <time>2020-09-05T07:18:06Z</time>
      </trkpt>
      <trkpt lat="45.07134" lon="6.15468">
        <ele>1345</ele>
        <time>2020-09-05T07:18:07Z</time>
      </trkpt>
      <trkpt lat="45.07136" lon="6.15475">
        <ele>1345</ele>
        <time>2020-09-05T07:18:08Z</time>
      </trkpt>
      <trkpt lat="45.07137" lon="6.15482">
        <ele>1344.8</ele>
        <time>2020-09-05T07:18:09Z</time>
      </trkpt>
      <trkpt lat="45.0714" lon="6.15488">
        <ele>1344.6</ele>
        <time>2020-09-05T07:18:10Z</time>
      </trkpt>
      <trkpt lat="45.07143" lon="6.15495">
        <ele>1344.4</ele>
        <time>2020-09-05T07:18:11Z</time>
      </trkpt>
      <trkpt lat="45.07146" lon="6.15502">
        <ele>1344.2</ele>
        <time>2020-09-05T07:18:12Z</time>
      </trkpt>
      <trkpt lat="45.07148" lon="6.1551">
        <ele>1344</ele>
        <time>2020-09-05T07:18:13Z</time>
      </trkpt>
      <trkpt lat="45.0715" lon="6.15519">
        <ele>1343.8</ele>
        <time>2020-09-05T07:18:14Z</time>
      </trkpt>
      <trkpt lat="45.07154" lon="6.15528">
        <ele>1343.6</ele>
        <time>2020-09-05T07:18:15Z</time>
      </trkpt>
      <trkpt lat="45.07157" lon="6.15537">
        <ele>1343.2</ele>
        <time>2020-09-05T07:18:16Z</time>
      </trkpt>
      <trkpt lat="45.07162" lon="6.15545">
        <ele>1343.2</ele>
        <time>2020-09-05T07:18:17Z</time>
      </trkpt>
      <trkpt lat="45.07166" lon="6.15552">
        <ele>1343</ele>
        <time>2020-09-05T07:18:18Z</time>
      </trkpt>
      <trkpt lat="45.0717" lon="6.15557">
        <ele>1343.2</ele>
        <time>2020-09-05T07:18:19Z</time>
      </trkpt>
      <trkpt lat="45.07174" lon="6.15562">
        <ele>1343.2</ele>
        <time>2020-09-05T07:18:20Z</time>
      </trkpt>
      <trkpt lat="45.07177" lon="6.15565">
        <ele>1343.6</ele>
        <time>2020-09-05T07:18:21Z</time>
      </trkpt>
      <trkpt lat="45.0718" lon="6.15569">
        <ele>1343.8</ele>
        <time>2020-09-05T07:18:22Z</time>
      </trkpt>
      <trkpt lat="45.07184" lon="6.15573">
        <ele>1344</ele>
        <time>2020-09-05T07:18:23Z</time>
      </trkpt>
      <trkpt lat="45.07187" lon="6.15576">
        <ele>1344.2</ele>
        <time>2020-09-05T07:18:24Z</time>
      </trkpt>
      <trkpt lat="45.07191" lon="6.15579">
        <ele>1344.2</ele>
        <time>2020-09-05T07:18:25Z</time>
      </trkpt>
      <trkpt lat="45.07194" lon="6.15582">
        <ele>1344.4</ele>
        <time>2020-09-05T07:18:26Z</time>
      </trkpt>
      <trkpt lat="45.07198" lon="6.15585">
        <ele>1344.6</ele>
        <time>2020-09-05T07:18:27Z</time>
      </trkpt>
      <trkpt lat="45.07202" lon="6.15588">
        <ele>1345</ele>
        <time>2020-09-05T07:18:28Z</time>
      </trkpt>
      <trkpt lat="45.07205" lon="6.15591">
        <ele>1345.4</ele>
        <time>2020-09-05T07:18:29Z</time>
      </trkpt>
      <trkpt lat="45.07209" lon="6.15595">
        <ele>1345.8</ele>
        <time>2020-09-05T07:18:30Z</time>
      </trkpt>
      <trkpt lat="45.07212" lon="6.15598">
        <ele>1346</ele>
        <time>2020-09-05T07:18:31Z</time>
      </trkpt>
      <trkpt lat="45.07216" lon="6.156">
        <ele>1346.2</ele>
        <time>2020-09-05T07:18:32Z</time>
      </trkpt>
      <trkpt lat="45.07219" lon="6.15603">
        <ele>1346.2</ele>
        <time>2020-09-05T07:18:33Z</time>
      </trkpt>
      <trkpt lat="45.07222" lon="6.15605">
        <ele>1346.4</ele>
        <time>2020-09-05T07:18:34Z</time>
      </trkpt>
      <trkpt lat="45.07225" lon="6.15608">
        <ele>1346.6</ele>
        <time>2020-09-05T07:18:35Z</time>
      </trkpt>
      <trkpt lat="45.07228" lon="6.1561">
        <ele>1346.8</ele>
        <time>2020-09-05T07:18:36Z</time>
      </trkpt>
      <trkpt lat="45.07231" lon="6.15613">
        <ele>1347</ele>
        <time>2020-09-05T07:18:37Z</time>
      </trkpt>
      <trkpt lat="45.07233" lon="6.15615">
        <ele>1347.2</ele>
        <time>2020-09-05T07:18:38Z</time>
      </trkpt>
      <trkpt lat="45.07236" lon="6.15618">
        <ele>1347.2</ele>
        <time>2020-09-05T07:18:39Z</time>
      </trkpt>
      <trkpt lat="45.07239" lon="6.1562">
        <ele>1347.4</ele>
        <time>2020-09-05T07:18:40Z</time>
      </trkpt>
      <trkpt lat="45.07241" lon="6.15623">
        <ele>1347.8</ele>
        <time>2020-09-05T07:18:41Z</time>
      </trkpt>
      <trkpt lat="45.07244" lon="6.15626">
        <ele>1347.6</ele>
        <time>2020-09-05T07:18:42Z</time>
      </trkpt>
      <trkpt lat="45.07246" lon="6.15625">
        <ele>1347.2</ele>
        <time>2020-09-05T07:18:44Z</time>
      </trkpt>
      <trkpt lat="45.07244" lon="6.15622">
        <ele>1347.2</ele>
        <time>2020-09-05T07:18:46Z</time>
      </trkpt>
      <trkpt lat="45.07243" lon="6.1562">
        <ele>1347.2</ele>
        <time>2020-09-05T07:18:49Z</time>
      </trkpt>
      <trkpt lat="45.07243" lon="6.15623">
        <ele>1348.4</ele>
        <time>2020-09-05T07:26:07Z</time>
      </trkpt>
      <trkpt lat="45.07244" lon="6.15626">
        <ele>1348.4</ele>
        <time>2020-09-05T07:26:09Z</time>
      </trkpt>
      <trkpt lat="45.07245" lon="6.15629">
        <ele>1348.4</ele>
        <time>2020-09-05T07:26:11Z</time>
      </trkpt>
      <trkpt lat="45.07246" lon="6.1563">
        <ele>1348</ele>
        <time>2020-09-05T07:26:14Z</time>
      </trkpt>
      <trkpt lat="45.07248" lon="6.15633">
        <ele>1348.6</ele>
        <time>2020-09-05T07:27:19Z</time>
      </trkpt>
      <trkpt lat="45.07251" lon="6.15635">
        <ele>1348.4</ele>
        <time>2020-09-05T07:27:21Z</time>
      </trkpt>
      <trkpt lat="45.07254" lon="6.15638">
        <ele>1348.4</ele>
        <time>2020-09-05T07:27:23Z</time>
      </trkpt>
      <trkpt lat="45.07256" lon="6.15638">
        <ele>1348.4</ele>
        <time>2020-09-05T07:27:24Z</time>
      </trkpt>
      <trkpt lat="45.07258" lon="6.15639">
        <ele>1348.4</ele>
        <time>2020-09-05T07:27:25Z</time>
      </trkpt>
      <trkpt lat="45.0726" lon="6.1564">
        <ele>1348.4</ele>
        <time>2020-09-05T07:27:26Z</time>
      </trkpt>
      <trkpt lat="45.07261" lon="6.15642">
        <ele>1348.6</ele>
        <time>2020-09-05T07:27:27Z</time>
      </trkpt>
      <trkpt lat="45.07263" lon="6.15644">
        <ele>1348.8</ele>
        <time>2020-09-05T07:27:28Z</time>
      </trkpt>
      <trkpt lat="45.07265" lon="6.15646">
        <ele>1348.6</ele>
        <time>2020-09-05T07:27:29Z</time>
      </trkpt>
      <trkpt lat="45.07268" lon="6.15648">
        <ele>1348.6</ele>
        <time>2020-09-05T07:27:30Z</time>
      </trkpt>
      <trkpt lat="45.07271" lon="6.15651">
        <ele>1348.8</ele>
        <time>2020-09-05T07:27:31Z</time>
      </trkpt>
      <trkpt lat="45.07276" lon="6.15654">
        <ele>1348.8</ele>
        <time>2020-09-05T07:27:32Z</time>
      </trkpt>
      <trkpt lat="45.0728" lon="6.15657">
        <ele>1349.2</ele>
        <time>2020-09-05T07:27:33Z</time>
      </trkpt>
      <trkpt lat="45.07285" lon="6.1566">
        <ele>1349.2</ele>
        <time>2020-09-05T07:27:34Z</time>
      </trkpt>
      <trkpt lat="45.07289" lon="6.15664">
        <ele>1349.6</ele>
        <time>2020-09-05T07:27:35Z</time>
      </trkpt>
      <trkpt lat="45.07294" lon="6.15667">
        <ele>1349.8</ele>
        <time>2020-09-05T07:27:36Z</time>
      </trkpt>
      <trkpt lat="45.073" lon="6.15671">
        <ele>1350</ele>
        <time>2020-09-05T07:27:37Z</time>
      </trkpt>
      <trkpt lat="45.07306" lon="6.15674">
        <ele>1350.2</ele>
        <time>2020-09-05T07:27:38Z</time>
      </trkpt>
      <trkpt lat="45.07313" lon="6.15678">
        <ele>1350.4</ele>
        <time>2020-09-05T07:27:39Z</time>
      </trkpt>
      <trkpt lat="45.07319" lon="6.15682">
        <ele>1350.6</ele>
        <time>2020-09-05T07:27:40Z</time>
      </trkpt>
      <trkpt lat="45.07325" lon="6.15686">
        <ele>1350.6</ele>
        <time>2020-09-05T07:27:41Z</time>
      </trkpt>
      <trkpt lat="45.07331" lon="6.1569">
        <ele>1350.8</ele>
        <time>2020-09-05T07:27:42Z</time>
      </trkpt>
      <trkpt lat="45.07337" lon="6.15694">
        <ele>1351</ele>
        <time>2020-09-05T07:27:43Z</time>
      </trkpt>
      <trkpt lat="45.07343" lon="6.15699">
        <ele>1351</ele>
        <time>2020-09-05T07:27:44Z</time>
      </trkpt>
      <trkpt lat="45.07349" lon="6.15703">
        <ele>1351.2</ele>
        <time>2020-09-05T07:27:45Z</time>
      </trkpt>
      <trkpt lat="45.07355" lon="6.15709">
        <ele>1351.4</ele>
        <time>2020-09-05T07:27:46Z</time>
      </trkpt>
      <trkpt lat="45.0736" lon="6.15714">
        <ele>1351.6</ele>
        <time>2020-09-05T07:27:47Z</time>
      </trkpt>
      <trkpt lat="45.07365" lon="6.1572">
        <ele>1351.6</ele>
        <time>2020-09-05T07:27:48Z</time>
      </trkpt>
      <trkpt lat="45.07371" lon="6.15725">
        <ele>1351.4</ele>
        <time>2020-09-05T07:27:49Z</time>
      </trkpt>
      <trkpt lat="45.07376" lon="6.15731">
        <ele>1351.4</ele>
        <time>2020-09-05T07:27:50Z</time>
      </trkpt>
      <trkpt lat="45.07381" lon="6.15737">
        <ele>1351.4</ele>
        <time>2020-09-05T07:27:51Z</time>
      </trkpt>
      <trkpt lat="45.07386" lon="6.15742">
        <ele>1351.6</ele>
        <time>2020-09-05T07:27:52Z</time>
      </trkpt>
      <trkpt lat="45.07392" lon="6.15747">
        <ele>1351.8</ele>
        <time>2020-09-05T07:27:53Z</time>
      </trkpt>
      <trkpt lat="45.07397" lon="6.15751">
        <ele>1351.8</ele>
        <time>2020-09-05T07:27:54Z</time>
      </trkpt>
      <trkpt lat="45.07403" lon="6.15754">
        <ele>1352.2</ele>
        <time>2020-09-05T07:27:55Z</time>
      </trkpt>
      <trkpt lat="45.07409" lon="6.15757">
        <ele>1352.2</ele>
        <time>2020-09-05T07:27:56Z</time>
      </trkpt>
      <trkpt lat="45.07415" lon="6.15761">
        <ele>1352.2</ele>
        <time>2020-09-05T07:27:57Z</time>
      </trkpt>
      <trkpt lat="45.07421" lon="6.15765">
        <ele>1352.2</ele>
        <time>2020-09-05T07:27:58Z</time>
      </trkpt>
      <trkpt lat="45.07427" lon="6.1577">
        <ele>1352.2</ele>
        <time>2020-09-05T07:27:59Z</time>
      </trkpt>
      <trkpt lat="45.07432" lon="6.15776">
        <ele>1352.4</ele>
        <time>2020-09-05T07:28:00Z</time>
      </trkpt>
      <trkpt lat="45.07438" lon="6.15782">
        <ele>1352.4</ele>
        <time>2020-09-05T07:28:01Z</time>
      </trkpt>
      <trkpt lat="45.07443" lon="6.15788">
        <ele>1352.6</ele>
        <time>2020-09-05T07:28:02Z</time>
      </trkpt>
      <trkpt lat="45.07447" lon="6.15794">
        <ele>1352.6</ele>
        <time>2020-09-05T07:28:03Z</time>
      </trkpt>
      <trkpt lat="45.07452" lon="6.158">
        <ele>1352.6</ele>
        <time>2020-09-05T07:28:04Z</time>
      </trkpt>
      <trkpt lat="45.07458" lon="6.15805">
        <ele>1352.6</ele>
        <time>2020-09-05T07:28:05Z</time>
      </trkpt>
      <trkpt lat="45.07464" lon="6.1581">
        <ele>1352.6</ele>
        <time>2020-09-05T07:28:06Z</time>
      </trkpt>
      <trkpt lat="45.0747" lon="6.15813">
        <ele>1353</ele>
        <time>2020-09-05T07:28:07Z</time>
      </trkpt>
      <trkpt lat="45.07476" lon="6.15814">
        <ele>1353</ele>
        <time>2020-09-05T07:28:08Z</time>
      </trkpt>
      <trkpt lat="45.07483" lon="6.15814">
        <ele>1353</ele>
        <time>2020-09-05T07:28:09Z</time>
      </trkpt>
      <trkpt lat="45.0749" lon="6.15814">
        <ele>1353</ele>
        <time>2020-09-05T07:28:10Z</time>
      </trkpt>
      <trkpt lat="45.07496" lon="6.15813">
        <ele>1353.4</ele>
        <time>2020-09-05T07:28:11Z</time>
      </trkpt>
      <trkpt lat="45.07503" lon="6.15812">
        <ele>1353.2</ele>
        <time>2020-09-05T07:28:12Z</time>
      </trkpt>
      <trkpt lat="45.0751" lon="6.15811">
        <ele>1353.4</ele>
        <time>2020-09-05T07:28:13Z</time>
      </trkpt>
      <trkpt lat="45.07517" lon="6.1581">
        <ele>1353.4</ele>
        <time>2020-09-05T07:28:14Z</time>
      </trkpt>
      <trkpt lat="45.07524" lon="6.1581">
        <ele>1353.2</ele>
        <time>2020-09-05T07:28:15Z</time>
      </trkpt>
      <trkpt lat="45.07531" lon="6.1581">
        <ele>1353.2</ele>
        <time>2020-09-05T07:28:16Z</time>
      </trkpt>
      <trkpt lat="45.07538" lon="6.15811">
        <ele>1353.4</ele>
        <time>2020-09-05T07:28:17Z</time>
      </trkpt>
      <trkpt lat="45.07545" lon="6.15813">
        <ele>1353.8</ele>
        <time>2020-09-05T07:28:18Z</time>
      </trkpt>
      <trkpt lat="45.07552" lon="6.15815">
        <ele>1354.2</ele>
        <time>2020-09-05T07:28:19Z</time>
      </trkpt>
      <trkpt lat="45.07558" lon="6.15818">
        <ele>1354.2</ele>
        <time>2020-09-05T07:28:20Z</time>
      </trkpt>
      <trkpt lat="45.07565" lon="6.15821">
        <ele>1354.6</ele>
        <time>2020-09-05T07:28:21Z</time>
      </trkpt>
      <trkpt lat="45.07571" lon="6.15823">
        <ele>1354.6</ele>
        <time>2020-09-05T07:28:22Z</time>
      </trkpt>
      <trkpt lat="45.07578" lon="6.15826">
        <ele>1354.8</ele>
        <time>2020-09-05T07:28:23Z</time>
      </trkpt>
      <trkpt lat="45.07584" lon="6.15829">
        <ele>1355.2</ele>
        <time>2020-09-05T07:28:24Z</time>
      </trkpt>
      <trkpt lat="45.0759" lon="6.15832">
        <ele>1355.2</ele>
        <time>2020-09-05T07:28:25Z</time>
      </trkpt>
      <trkpt lat="45.07597" lon="6.15834">
        <ele>1355.4</ele>
        <time>2020-09-05T07:28:26Z</time>
      </trkpt>
      <trkpt lat="45.07604" lon="6.15835">
        <ele>1355</ele>
        <time>2020-09-05T07:28:27Z</time>
      </trkpt>
      <trkpt lat="45.07611" lon="6.15836">
        <ele>1355.2</ele>
        <time>2020-09-05T07:28:28Z</time>
      </trkpt>
      <trkpt lat="45.07618" lon="6.15836">
        <ele>1355</ele>
        <time>2020-09-05T07:28:29Z</time>
      </trkpt>
      <trkpt lat="45.07626" lon="6.15836">
        <ele>1355.2</ele>
        <time>2020-09-05T07:28:30Z</time>
      </trkpt>
      <trkpt lat="45.07633" lon="6.15834">
        <ele>1355.2</ele>
        <time>2020-09-05T07:28:31Z</time>
      </trkpt>
      <trkpt lat="45.0764" lon="6.15832">
        <ele>1355.6</ele>
        <time>2020-09-05T07:28:32Z</time>
      </trkpt>
      <trkpt lat="45.07647" lon="6.1583">
        <ele>1355.8</ele>
        <time>2020-09-05T07:28:33Z</time>
      </trkpt>
      <trkpt lat="45.07654" lon="6.15826">
        <ele>1355.8</ele>
        <time>2020-09-05T07:28:34Z</time>
      </trkpt>
      <trkpt lat="45.07661" lon="6.15822">
        <ele>1355.8</ele>
        <time>2020-09-05T07:28:35Z</time>
      </trkpt>
      <trkpt lat="45.07667" lon="6.15817">
        <ele>1356</ele>
        <time>2020-09-05T07:28:36Z</time>
      </trkpt>
      <trkpt lat="45.07673" lon="6.15812">
        <ele>1356</ele>
        <time>2020-09-05T07:28:37Z</time>
      </trkpt>
      <trkpt lat="45.07679" lon="6.15807">
        <ele>1356.4</ele>
        <time>2020-09-05T07:28:38Z</time>
      </trkpt>
      <trkpt lat="45.07686" lon="6.15802">
        <ele>1356.8</ele>
        <time>2020-09-05T07:28:39Z</time>
      </trkpt>
      <trkpt lat="45.07692" lon="6.15798">
        <ele>1357</ele>
        <time>2020-09-05T07:28:40Z</time>
      </trkpt>
      <trkpt lat="45.07699" lon="6.15796">
        <ele>1357.2</ele>
        <time>2020-09-05T07:28:41Z</time>
      </trkpt>
      <trkpt lat="45.07706" lon="6.15795">
        <ele>1357</ele>
        <time>2020-09-05T07:28:42Z</time>
      </trkpt>
      <trkpt lat="45.07713" lon="6.15795">
        <ele>1357.2</ele>
        <time>2020-09-05T07:28:43Z</time>
      </trkpt>
      <trkpt lat="45.0772" lon="6.15795">
        <ele>1357.4</ele>
        <time>2020-09-05T07:28:44Z</time>
      </trkpt>
      <trkpt lat="45.07728" lon="6.15796">
        <ele>1357.4</ele>
        <time>2020-09-05T07:28:45Z</time>
      </trkpt>
      <trkpt lat="45.07735" lon="6.15796">
        <ele>1357.8</ele>
        <time>2020-09-05T07:28:46Z</time>
      </trkpt>
      <trkpt lat="45.07742" lon="6.15797">
        <ele>1357.8</ele>
        <time>2020-09-05T07:28:47Z</time>
      </trkpt>
      <trkpt lat="45.07749" lon="6.15797">
        <ele>1358.2</ele>
        <time>2020-09-05T07:28:48Z</time>
      </trkpt>
      <trkpt lat="45.07757" lon="6.15798">
        <ele>1358.2</ele>
        <time>2020-09-05T07:28:49Z</time>
      </trkpt>
      <trkpt lat="45.07764" lon="6.15798">
        <ele>1358.2</ele>
        <time>2020-09-05T07:28:50Z</time>
      </trkpt>
      <trkpt lat="45.07771" lon="6.15799">
        <ele>1358.2</ele>
        <time>2020-09-05T07:28:51Z</time>
      </trkpt>
      <trkpt lat="45.07779" lon="6.158">
        <ele>1358.4</ele>
        <time>2020-09-05T07:28:52Z</time>
      </trkpt>
      <trkpt lat="45.07786" lon="6.158">
        <ele>1358.4</ele>
        <time>2020-09-05T07:28:53Z</time>
      </trkpt>
      <trkpt lat="45.07794" lon="6.15801">
        <ele>1358.8</ele>
        <time>2020-09-05T07:28:54Z</time>
      </trkpt>
      <trkpt lat="45.07801" lon="6.15802">
        <ele>1359</ele>
        <time>2020-09-05T07:28:55Z</time>
      </trkpt>
      <trkpt lat="45.07808" lon="6.15803">
        <ele>1359.2</ele>
        <time>2020-09-05T07:28:56Z</time>
      </trkpt>
      <trkpt lat="45.07815" lon="6.15804">
        <ele>1359.6</ele>
        <time>2020-09-05T07:28:57Z</time>
      </trkpt>
      <trkpt lat="45.07822" lon="6.15806">
        <ele>1359.4</ele>
        <time>2020-09-05T07:28:58Z</time>
      </trkpt>
      <trkpt lat="45.07829" lon="6.1581">
        <ele>1359.6</ele>
        <time>2020-09-05T07:28:59Z</time>
      </trkpt>
      <trkpt lat="45.07835" lon="6.15814">
        <ele>1359.6</ele>
        <time>2020-09-05T07:29:00Z</time>
      </trkpt>
      <trkpt lat="45.07842" lon="6.15818">
        <ele>1359.8</ele>
        <time>2020-09-05T07:29:01Z</time>
      </trkpt>
      <trkpt lat="45.07848" lon="6.15823">
        <ele>1359.8</ele>
        <time>2020-09-05T07:29:02Z</time>
      </trkpt>
      <trkpt lat="45.07854" lon="6.15828">
        <ele>1360</ele>
        <time>2020-09-05T07:29:03Z</time>
      </trkpt>
      <trkpt lat="45.07861" lon="6.15833">
        <ele>1360.2</ele>
        <time>2020-09-05T07:29:04Z</time>
      </trkpt>
      <trkpt lat="45.07867" lon="6.15837">
        <ele>1360.4</ele>
        <time>2020-09-05T07:29:05Z</time>
      </trkpt>
      <trkpt lat="45.07874" lon="6.15842">
        <ele>1360.4</ele>
        <time>2020-09-05T07:29:06Z</time>
      </trkpt>
      <trkpt lat="45.0788" lon="6.15847">
        <ele>1360.4</ele>
        <time>2020-09-05T07:29:07Z</time>
      </trkpt>
      <trkpt lat="45.07887" lon="6.15852">
        <ele>1360.6</ele>
        <time>2020-09-05T07:29:08Z</time>
      </trkpt>
      <trkpt lat="45.07893" lon="6.15857">
        <ele>1360.8</ele>
        <time>2020-09-05T07:29:09Z</time>
      </trkpt>
      <trkpt lat="45.07899" lon="6.15862">
        <ele>1361</ele>
        <time>2020-09-05T07:29:10Z</time>
      </trkpt>
      <trkpt lat="45.07905" lon="6.15867">
        <ele>1361</ele>
        <time>2020-09-05T07:29:11Z</time>
      </trkpt>
      <trkpt lat="45.07911" lon="6.15872">
        <ele>1361</ele>
        <time>2020-09-05T07:29:12Z</time>
      </trkpt>
      <trkpt lat="45.07917" lon="6.15876">
        <ele>1361.2</ele>
        <time>2020-09-05T07:29:13Z</time>
      </trkpt>
      <trkpt lat="45.07932" lon="6.15882">
        <ele>1361.4</ele>
        <time>2020-09-05T07:29:15Z</time>
      </trkpt>
      <trkpt lat="45.07939" lon="6.15885">
        <ele>1361.2</ele>
        <time>2020-09-05T07:29:16Z</time>
      </trkpt>
      <trkpt lat="45.07946" lon="6.15888">
        <ele>1361.4</ele>
        <time>2020-09-05T07:29:17Z</time>
      </trkpt>
      <trkpt lat="45.07954" lon="6.15891">
        <ele>1362</ele>
        <time>2020-09-05T07:29:18Z</time>
      </trkpt>
      <trkpt lat="45.07961" lon="6.15894">
        <ele>1362.2</ele>
        <time>2020-09-05T07:29:19Z</time>
      </trkpt>
      <trkpt lat="45.07968" lon="6.15897">
        <ele>1362.2</ele>
        <time>2020-09-05T07:29:20Z</time>
      </trkpt>
      <trkpt lat="45.07974" lon="6.15901">
        <ele>1362.4</ele>
        <time>2020-09-05T07:29:21Z</time>
      </trkpt>
      <trkpt lat="45.07981" lon="6.15906">
        <ele>1362.6</ele>
        <time>2020-09-05T07:29:22Z</time>
      </trkpt>
      <trkpt lat="45.07986" lon="6.15912">
        <ele>1362.6</ele>
        <time>2020-09-05T07:29:23Z</time>
      </trkpt>
      <trkpt lat="45.07992" lon="6.15918">
        <ele>1362.6</ele>
        <time>2020-09-05T07:29:24Z</time>
      </trkpt>
      <trkpt lat="45.07998" lon="6.15925">
        <ele>1363</ele>
        <time>2020-09-05T07:29:25Z</time>
      </trkpt>
      <trkpt lat="45.08004" lon="6.15931">
        <ele>1363.4</ele>
        <time>2020-09-05T07:29:26Z</time>
      </trkpt>
      <trkpt lat="45.08009" lon="6.15937">
        <ele>1363.4</ele>
        <time>2020-09-05T07:29:27Z</time>
      </trkpt>
      <trkpt lat="45.08015" lon="6.15943">
        <ele>1363.6</ele>
        <time>2020-09-05T07:29:28Z</time>
      </trkpt>
      <trkpt lat="45.08028" lon="6.15955">
        <ele>1363.6</ele>
        <time>2020-09-05T07:29:30Z</time>
      </trkpt>
      <trkpt lat="45.0804" lon="6.15966">
        <ele>1363.8</ele>
        <time>2020-09-05T07:29:32Z</time>
      </trkpt>
      <trkpt lat="45.08052" lon="6.15978">
        <ele>1364.4</ele>
        <time>2020-09-05T07:29:34Z</time>
      </trkpt>
      <trkpt lat="45.08066" lon="6.15989">
        <ele>1364.8</ele>
        <time>2020-09-05T07:29:36Z</time>
      </trkpt>
      <trkpt lat="45.08078" lon="6.16001">
        <ele>1365</ele>
        <time>2020-09-05T07:29:38Z</time>
      </trkpt>
      <trkpt lat="45.0809" lon="6.16013">
        <ele>1365.6</ele>
        <time>2020-09-05T07:29:40Z</time>
      </trkpt>
      <trkpt lat="45.08096" lon="6.16019">
        <ele>1365.6</ele>
        <time>2020-09-05T07:29:41Z</time>
      </trkpt>
      <trkpt lat="45.08101" lon="6.16024">
        <ele>1366</ele>
        <time>2020-09-05T07:29:42Z</time>
      </trkpt>
      <trkpt lat="45.08106" lon="6.1603">
        <ele>1366</ele>
        <time>2020-09-05T07:29:43Z</time>
      </trkpt>
      <trkpt lat="45.08111" lon="6.16037">
        <ele>1366.4</ele>
        <time>2020-09-05T07:29:44Z</time>
      </trkpt>
      <trkpt lat="45.08121" lon="6.16048">
        <ele>1367</ele>
        <time>2020-09-05T07:29:46Z</time>
      </trkpt>
      <trkpt lat="45.08126" lon="6.16053">
        <ele>1367.2</ele>
        <time>2020-09-05T07:29:47Z</time>
      </trkpt>
      <trkpt lat="45.08131" lon="6.16058">
        <ele>1367.2</ele>
        <time>2020-09-05T07:29:48Z</time>
      </trkpt>
      <trkpt lat="45.08136" lon="6.16064">
        <ele>1367.4</ele>
        <time>2020-09-05T07:29:49Z</time>
      </trkpt>
      <trkpt lat="45.08141" lon="6.16069">
        <ele>1367.8</ele>
        <time>2020-09-05T07:29:50Z</time>
      </trkpt>
      <trkpt lat="45.08146" lon="6.16074">
        <ele>1368</ele>
        <time>2020-09-05T07:29:51Z</time>
      </trkpt>
      <trkpt lat="45.08151" lon="6.16078">
        <ele>1368</ele>
        <time>2020-09-05T07:29:52Z</time>
      </trkpt>
      <trkpt lat="45.08156" lon="6.16083">
        <ele>1368</ele>
        <time>2020-09-05T07:29:53Z</time>
      </trkpt>
      <trkpt lat="45.08161" lon="6.16087">
        <ele>1368.4</ele>
        <time>2020-09-05T07:29:54Z</time>
      </trkpt>
      <trkpt lat="45.08166" lon="6.16091">
        <ele>1368.6</ele>
        <time>2020-09-05T07:29:55Z</time>
      </trkpt>
      <trkpt lat="45.08171" lon="6.16095">
        <ele>1368.8</ele>
        <time>2020-09-05T07:29:56Z</time>
      </trkpt>
      <trkpt lat="45.08176" lon="6.16098">
        <ele>1369</ele>
        <time>2020-09-05T07:29:57Z</time>
      </trkpt>
      <trkpt lat="45.08181" lon="6.16102">
        <ele>1369.2</ele>
        <time>2020-09-05T07:29:58Z</time>
      </trkpt>
      <trkpt lat="45.08186" lon="6.16106">
        <ele>1369.4</ele>
        <time>2020-09-05T07:29:59Z</time>
      </trkpt>
      <trkpt lat="45.08191" lon="6.16109">
        <ele>1369.6</ele>
        <time>2020-09-05T07:30:00Z</time>
      </trkpt>
      <trkpt lat="45.08196" lon="6.16113">
        <ele>1370</ele>
        <time>2020-09-05T07:30:01Z</time>
      </trkpt>
      <trkpt lat="45.08201" lon="6.16117">
        <ele>1370.2</ele>
        <time>2020-09-05T07:30:02Z</time>
      </trkpt>
      <trkpt lat="45.08206" lon="6.16121">
        <ele>1370.2</ele>
        <time>2020-09-05T07:30:03Z</time>
      </trkpt>
      <trkpt lat="45.08211" lon="6.16125">
        <ele>1370.4</ele>
        <time>2020-09-05T07:30:04Z</time>
      </trkpt>
      <trkpt lat="45.08216" lon="6.16128">
        <ele>1370.6</ele>
        <time>2020-09-05T07:30:05Z</time>
      </trkpt>
      <trkpt lat="45.08221" lon="6.16132">
        <ele>1370.8</ele>
        <time>2020-09-05T07:30:06Z</time>
      </trkpt>
      <trkpt lat="45.08225" lon="6.16136">
        <ele>1371</ele>
        <time>2020-09-05T07:30:07Z</time>
      </trkpt>
      <trkpt lat="45.0823" lon="6.16141">
        <ele>1371.4</ele>
        <time>2020-09-05T07:30:08Z</time>
      </trkpt>
      <trkpt lat="45.08234" lon="6.16143">
        <ele>1371.4</ele>
        <time>2020-09-05T07:30:09Z</time>
      </trkpt>
      <trkpt lat="45.08238" lon="6.16142">
        <ele>1371.4</ele>
        <time>2020-09-05T07:30:10Z</time>
      </trkpt>
      <trkpt lat="45.0824" lon="6.16137">
        <ele>1371.8</ele>
        <time>2020-09-05T07:30:11Z</time>
      </trkpt>
      <trkpt lat="45.0824" lon="6.16131">
        <ele>1372.2</ele>
        <time>2020-09-05T07:30:12Z</time>
      </trkpt>
      <trkpt lat="45.08237" lon="6.16127">
        <ele>1372.4</ele>
        <time>2020-09-05T07:30:13Z</time>
      </trkpt>
      <trkpt lat="45.08234" lon="6.16123">
        <ele>1372.4</ele>
        <time>2020-09-05T07:30:14Z</time>
      </trkpt>
      <trkpt lat="45.0823" lon="6.1612">
        <ele>1372.6</ele>
        <time>2020-09-05T07:30:15Z</time>
      </trkpt>
      <trkpt lat="45.08226" lon="6.16117">
        <ele>1372.8</ele>
        <time>2020-09-05T07:30:16Z</time>
      </trkpt>
      <trkpt lat="45.08223" lon="6.16114">
        <ele>1373</ele>
        <time>2020-09-05T07:30:17Z</time>
      </trkpt>
      <trkpt lat="45.08219" lon="6.1611">
        <ele>1373.2</ele>
        <time>2020-09-05T07:30:18Z</time>
      </trkpt>
      <trkpt lat="45.08215" lon="6.16107">
        <ele>1373.6</ele>
        <time>2020-09-05T07:30:19Z</time>
      </trkpt>
      <trkpt lat="45.08212" lon="6.16104">
        <ele>1374</ele>
        <time>2020-09-05T07:30:20Z</time>
      </trkpt>
      <trkpt lat="45.08208" lon="6.16101">
        <ele>1374.2</ele>
        <time>2020-09-05T07:30:21Z</time>
      </trkpt>
      <trkpt lat="45.08205" lon="6.16097">
        <ele>1374.4</ele>
        <time>2020-09-05T07:30:22Z</time>
      </trkpt>
      <trkpt lat="45.08201" lon="6.16094">
        <ele>1374.8</ele>
        <time>2020-09-05T07:30:23Z</time>
      </trkpt>
      <trkpt lat="45.08197" lon="6.1609">
        <ele>1375</ele>
        <time>2020-09-05T07:30:24Z</time>
      </trkpt>
      <trkpt lat="45.08194" lon="6.16087">
        <ele>1375.6</ele>
        <time>2020-09-05T07:30:25Z</time>
      </trkpt>
      <trkpt lat="45.08191" lon="6.16083">
        <ele>1375.8</ele>
        <time>2020-09-05T07:30:26Z</time>
      </trkpt>
      <trkpt lat="45.08188" lon="6.16078">
        <ele>1376.2</ele>
        <time>2020-09-05T07:30:27Z</time>
      </trkpt>
      <trkpt lat="45.08185" lon="6.16074">
        <ele>1376.4</ele>
        <time>2020-09-05T07:30:28Z</time>
      </trkpt>
      <trkpt lat="45.08182" lon="6.16069">
        <ele>1376.4</ele>
        <time>2020-09-05T07:30:29Z</time>
      </trkpt>
      <trkpt lat="45.08179" lon="6.16065">
        <ele>1376.6</ele>
        <time>2020-09-05T07:30:30Z</time>
      </trkpt>
      <trkpt lat="45.08176" lon="6.1606">
        <ele>1377.2</ele>
        <time>2020-09-05T07:30:31Z</time>
      </trkpt>
      <trkpt lat="45.08173" lon="6.16056">
        <ele>1377.4</ele>
        <time>2020-09-05T07:30:32Z</time>
      </trkpt>
      <trkpt lat="45.08171" lon="6.16051">
        <ele>1377.8</ele>
        <time>2020-09-05T07:30:33Z</time>
      </trkpt>
      <trkpt lat="45.08168" lon="6.16046">
        <ele>1378</ele>
        <time>2020-09-05T07:30:34Z</time>
      </trkpt>
      <trkpt lat="45.08166" lon="6.16041">
        <ele>1378.4</ele>
        <time>2020-09-05T07:30:35Z</time>
      </trkpt>
      <trkpt lat="45.08164" lon="6.16036">
        <ele>1378.4</ele>
        <time>2020-09-05T07:30:36Z</time>
      </trkpt>
      <trkpt lat="45.08162" lon="6.16031">
        <ele>1378.8</ele>
        <time>2020-09-05T07:30:37Z</time>
      </trkpt>
      <trkpt lat="45.0816" lon="6.16025">
        <ele>1379.2</ele>
        <time>2020-09-05T07:30:38Z</time>
      </trkpt>
      <trkpt lat="45.08159" lon="6.16019">
        <ele>1379.8</ele>
        <time>2020-09-05T07:30:39Z</time>
      </trkpt>
      <trkpt lat="45.08157" lon="6.16014">
        <ele>1380</ele>
        <time>2020-09-05T07:30:40Z</time>
      </trkpt>
      <trkpt lat="45.08155" lon="6.16008">
        <ele>1380.6</ele>
        <time>2020-09-05T07:30:41Z</time>
      </trkpt>
      <trkpt lat="45.08154" lon="6.16003">
        <ele>1380.8</ele>
        <time>2020-09-05T07:30:42Z</time>
      </trkpt>
      <trkpt lat="45.08152" lon="6.15997">
        <ele>1381</ele>
        <time>2020-09-05T07:30:43Z</time>
      </trkpt>
      <trkpt lat="45.0815" lon="6.15991">
        <ele>1381.6</ele>
        <time>2020-09-05T07:30:44Z</time>
      </trkpt>
      <trkpt lat="45.08148" lon="6.15985">
        <ele>1382</ele>
        <time>2020-09-05T07:30:45Z</time>
      </trkpt>
      <trkpt lat="45.08146" lon="6.15978">
        <ele>1382.4</ele>
        <time>2020-09-05T07:30:46Z</time>
      </trkpt>
      <trkpt lat="45.08143" lon="6.15972">
        <ele>1383</ele>
        <time>2020-09-05T07:30:47Z</time>
      </trkpt>
      <trkpt lat="45.0814" lon="6.15966">
        <ele>1383.6</ele>
        <time>2020-09-05T07:30:48Z</time>
      </trkpt>
      <trkpt lat="45.08137" lon="6.15962">
        <ele>1383.8</ele>
        <time>2020-09-05T07:30:49Z</time>
      </trkpt>
      <trkpt lat="45.08133" lon="6.15957">
        <ele>1384.2</ele>
        <time>2020-09-05T07:30:50Z</time>
      </trkpt>
      <trkpt lat="45.08131" lon="6.15952">
        <ele>1384.6</ele>
        <time>2020-09-05T07:30:51Z</time>
      </trkpt>
      <trkpt lat="45.08131" lon="6.15947">
        <ele>1385</ele>
        <time>2020-09-05T07:30:52Z</time>
      </trkpt>
      <trkpt lat="45.08133" lon="6.15945">
        <ele>1385.6</ele>
        <time>2020-09-05T07:30:53Z</time>
      </trkpt>
      <trkpt lat="45.08137" lon="6.15946">
        <ele>1385.8</ele>
        <time>2020-09-05T07:30:54Z</time>
      </trkpt>
      <trkpt lat="45.0814" lon="6.15949">
        <ele>1385.8</ele>
        <time>2020-09-05T07:30:55Z</time>
      </trkpt>
      <trkpt lat="45.08143" lon="6.15953">
        <ele>1386</ele>
        <time>2020-09-05T07:30:56Z</time>
      </trkpt>
      <trkpt lat="45.08146" lon="6.15957">
        <ele>1386.4</ele>
        <time>2020-09-05T07:30:57Z</time>
      </trkpt>
      <trkpt lat="45.08148" lon="6.15962">
        <ele>1386.8</ele>
        <time>2020-09-05T07:30:58Z</time>
      </trkpt>
      <trkpt lat="45.08151" lon="6.15967">
        <ele>1386.8</ele>
        <time>2020-09-05T07:30:59Z</time>
      </trkpt>
      <trkpt lat="45.08154" lon="6.15972">
        <ele>1387.2</ele>
        <time>2020-09-05T07:31:00Z</time>
      </trkpt>
      <trkpt lat="45.08156" lon="6.15976">
        <ele>1387.4</ele>
        <time>2020-09-05T07:31:01Z</time>
      </trkpt>
      <trkpt lat="45.08159" lon="6.15981">
        <ele>1388</ele>
        <time>2020-09-05T07:31:02Z</time>
      </trkpt>
      <trkpt lat="45.08162" lon="6.15986">
        <ele>1388.2</ele>
        <time>2020-09-05T07:31:03Z</time>
      </trkpt>
      <trkpt lat="45.08164" lon="6.1599">
        <ele>1388.8</ele>
        <time>2020-09-05T07:31:04Z</time>
      </trkpt>
      <trkpt lat="45.08167" lon="6.15995">
        <ele>1389</ele>
        <time>2020-09-05T07:31:05Z</time>
      </trkpt>
      <trkpt lat="45.0817" lon="6.15999">
        <ele>1389.4</ele>
        <time>2020-09-05T07:31:06Z</time>
      </trkpt>
      <trkpt lat="45.08173" lon="6.16003">
        <ele>1389.8</ele>
        <time>2020-09-05T07:31:07Z</time>
      </trkpt>
      <trkpt lat="45.08177" lon="6.16006">
        <ele>1390</ele>
        <time>2020-09-05T07:31:08Z</time>
      </trkpt>
      <trkpt lat="45.0818" lon="6.16009">
        <ele>1390.2</ele>
        <time>2020-09-05T07:31:09Z</time>
      </trkpt>
      <trkpt lat="45.08184" lon="6.16012">
        <ele>1390.4</ele>
        <time>2020-09-05T07:31:10Z</time>
      </trkpt>
      <trkpt lat="45.08187" lon="6.16015">
        <ele>1390.8</ele>
        <time>2020-09-05T07:31:11Z</time>
      </trkpt>
      <trkpt lat="45.08191" lon="6.16018">
        <ele>1391.2</ele>
        <time>2020-09-05T07:31:12Z</time>
      </trkpt>
      <trkpt lat="45.08195" lon="6.1602">
        <ele>1391.4</ele>
        <time>2020-09-05T07:31:13Z</time>
      </trkpt>
      <trkpt lat="45.08199" lon="6.16022">
        <ele>1391.8</ele>
        <time>2020-09-05T07:31:14Z</time>
      </trkpt>
      <trkpt lat="45.08203" lon="6.16024">
        <ele>1392.2</ele>
        <time>2020-09-05T07:31:15Z</time>
      </trkpt>
      <trkpt lat="45.08207" lon="6.16026">
        <ele>1392.6</ele>
        <time>2020-09-05T07:31:16Z</time>
      </trkpt>
      <trkpt lat="45.08211" lon="6.16027">
        <ele>1393</ele>
        <time>2020-09-05T07:31:17Z</time>
      </trkpt>
      <trkpt lat="45.08215" lon="6.16028">
        <ele>1393.4</ele>
        <time>2020-09-05T07:31:18Z</time>
      </trkpt>
      <trkpt lat="45.08219" lon="6.16029">
        <ele>1393.6</ele>
        <time>2020-09-05T07:31:19Z</time>
      </trkpt>
      <trkpt lat="45.08224" lon="6.16029">
        <ele>1393.8</ele>
        <time>2020-09-05T07:31:20Z</time>
      </trkpt>
      <trkpt lat="45.08228" lon="6.1603">
        <ele>1394.4</ele>
        <time>2020-09-05T07:31:21Z</time>
      </trkpt>
      <trkpt lat="45.08232" lon="6.1603">
        <ele>1394.6</ele>
        <time>2020-09-05T07:31:22Z</time>
      </trkpt>
      <trkpt lat="45.08237" lon="6.1603">
        <ele>1395</ele>
        <time>2020-09-05T07:31:23Z</time>
      </trkpt>
      <trkpt lat="45.08241" lon="6.1603">
        <ele>1395.2</ele>
        <time>2020-09-05T07:31:24Z</time>
      </trkpt>
      <trkpt lat="45.08245" lon="6.1603">
        <ele>1395.8</ele>
        <time>2020-09-05T07:31:25Z</time>
      </trkpt>
      <trkpt lat="45.0825" lon="6.16029">
        <ele>1396.2</ele>
        <time>2020-09-05T07:31:26Z</time>
      </trkpt>
      <trkpt lat="45.08254" lon="6.16029">
        <ele>1396.4</ele>
        <time>2020-09-05T07:31:27Z</time>
      </trkpt>
      <trkpt lat="45.08258" lon="6.16029">
        <ele>1396.6</ele>
        <time>2020-09-05T07:31:28Z</time>
      </trkpt>
      <trkpt lat="45.08262" lon="6.16029">
        <ele>1397</ele>
        <time>2020-09-05T07:31:29Z</time>
      </trkpt>
      <trkpt lat="45.08267" lon="6.1603">
        <ele>1397.2</ele>
        <time>2020-09-05T07:31:30Z</time>
      </trkpt>
      <trkpt lat="45.08271" lon="6.16031">
        <ele>1397.4</ele>
        <time>2020-09-05T07:31:31Z</time>
      </trkpt>
      <trkpt lat="45.08275" lon="6.16031">
        <ele>1397.8</ele>
        <time>2020-09-05T07:31:32Z</time>
      </trkpt>
      <trkpt lat="45.0828" lon="6.16032">
        <ele>1398.2</ele>
        <time>2020-09-05T07:31:33Z</time>
      </trkpt>
      <trkpt lat="45.08284" lon="6.16034">
        <ele>1398.6</ele>
        <time>2020-09-05T07:31:34Z</time>
      </trkpt>
      <trkpt lat="45.08288" lon="6.16035">
        <ele>1399.2</ele>
        <time>2020-09-05T07:31:35Z</time>
      </trkpt>
      <trkpt lat="45.08292" lon="6.16037">
        <ele>1399.6</ele>
        <time>2020-09-05T07:31:36Z</time>
      </trkpt>
      <trkpt lat="45.08296" lon="6.16039">
        <ele>1399.8</ele>
        <time>2020-09-05T07:31:37Z</time>
      </trkpt>
      <trkpt lat="45.083" lon="6.16041">
        <ele>1400.4</ele>
        <time>2020-09-05T07:31:38Z</time>
      </trkpt>
      <trkpt lat="45.08303" lon="6.16044">
        <ele>1400.6</ele>
        <time>2020-09-05T07:31:39Z</time>
      </trkpt>
      <trkpt lat="45.08307" lon="6.16047">
        <ele>1400.8</ele>
        <time>2020-09-05T07:31:40Z</time>
      </trkpt>
      <trkpt lat="45.0831" lon="6.1605">
        <ele>1401.2</ele>
        <time>2020-09-05T07:31:41Z</time>
      </trkpt>
      <trkpt lat="45.08314" lon="6.16053">
        <ele>1401.6</ele>
        <time>2020-09-05T07:31:42Z</time>
      </trkpt>
      <trkpt lat="45.08317" lon="6.16056">
        <ele>1402</ele>
        <time>2020-09-05T07:31:43Z</time>
      </trkpt>
      <trkpt lat="45.08321" lon="6.16059">
        <ele>1402.2</ele>
        <time>2020-09-05T07:31:44Z</time>
      </trkpt>
      <trkpt lat="45.08325" lon="6.16062">
        <ele>1402.6</ele>
        <time>2020-09-05T07:31:45Z</time>
      </trkpt>
      <trkpt lat="45.08329" lon="6.16066">
        <ele>1403</ele>
        <time>2020-09-05T07:31:46Z</time>
      </trkpt>
      <trkpt lat="45.08332" lon="6.16069">
        <ele>1403.4</ele>
        <time>2020-09-05T07:31:47Z</time>
      </trkpt>
      <trkpt lat="45.08336" lon="6.16073">
        <ele>1403.6</ele>
        <time>2020-09-05T07:31:48Z</time>
      </trkpt>
      <trkpt lat="45.08339" lon="6.16077">
        <ele>1404</ele>
        <time>2020-09-05T07:31:49Z</time>
      </trkpt>
      <trkpt lat="45.08343" lon="6.16081">
        <ele>1404.2</ele>
        <time>2020-09-05T07:31:50Z</time>
      </trkpt>
      <trkpt lat="45.08347" lon="6.16085">
        <ele>1404.4</ele>
        <time>2020-09-05T07:31:51Z</time>
      </trkpt>
      <trkpt lat="45.0835" lon="6.16089">
        <ele>1404.6</ele>
        <time>2020-09-05T07:31:52Z</time>
      </trkpt>
      <trkpt lat="45.08355" lon="6.16093">
        <ele>1405</ele>
        <time>2020-09-05T07:31:53Z</time>
      </trkpt>
      <trkpt lat="45.08359" lon="6.16098">
        <ele>1405.2</ele>
        <time>2020-09-05T07:31:54Z</time>
      </trkpt>
      <trkpt lat="45.08363" lon="6.16102">
        <ele>1405.6</ele>
        <time>2020-09-05T07:31:55Z</time>
      </trkpt>
      <trkpt lat="45.08368" lon="6.16106">
        <ele>1405.8</ele>
        <time>2020-09-05T07:31:56Z</time>
      </trkpt>
      <trkpt lat="45.08373" lon="6.1611">
        <ele>1406</ele>
        <time>2020-09-05T07:31:57Z</time>
      </trkpt>
      <trkpt lat="45.08377" lon="6.16113">
        <ele>1406.4</ele>
        <time>2020-09-05T07:31:58Z</time>
      </trkpt>
      <trkpt lat="45.08382" lon="6.16117">
        <ele>1406.6</ele>
        <time>2020-09-05T07:31:59Z</time>
      </trkpt>
      <trkpt lat="45.08387" lon="6.16119">
        <ele>1406.8</ele>
        <time>2020-09-05T07:32:00Z</time>
      </trkpt>
      <trkpt lat="45.08391" lon="6.16122">
        <ele>1407</ele>
        <time>2020-09-05T07:32:01Z</time>
      </trkpt>
      <trkpt lat="45.08396" lon="6.16124">
        <ele>1407.4</ele>
        <time>2020-09-05T07:32:02Z</time>
      </trkpt>
      <trkpt lat="45.08401" lon="6.16125">
        <ele>1408</ele>
        <time>2020-09-05T07:32:03Z</time>
      </trkpt>
      <trkpt lat="45.08406" lon="6.16126">
        <ele>1408.4</ele>
        <time>2020-09-05T07:32:04Z</time>
      </trkpt>
      <trkpt lat="45.08412" lon="6.16127">
        <ele>1409</ele>
        <time>2020-09-05T07:32:05Z</time>
      </trkpt>
      <trkpt lat="45.08417" lon="6.16128">
        <ele>1409.4</ele>
        <time>2020-09-05T07:32:06Z</time>
      </trkpt>
      <trkpt lat="45.08422" lon="6.16128">
        <ele>1409.8</ele>
        <time>2020-09-05T07:32:07Z</time>
      </trkpt>
      <trkpt lat="45.08427" lon="6.16129">
        <ele>1410.4</ele>
        <time>2020-09-05T07:32:08Z</time>
      </trkpt>
      <trkpt lat="45.08432" lon="6.16129">
        <ele>1410.6</ele>
        <time>2020-09-05T07:32:09Z</time>
      </trkpt>
      <trkpt lat="45.08437" lon="6.16129">
        <ele>1411</ele>
        <time>2020-09-05T07:32:10Z</time>
      </trkpt>
      <trkpt lat="45.08441" lon="6.16129">
        <ele>1411.4</ele>
        <time>2020-09-05T07:32:11Z</time>
      </trkpt>
      <trkpt lat="45.08445" lon="6.16129">
        <ele>1411.6</ele>
        <time>2020-09-05T07:32:12Z</time>
      </trkpt>
      <trkpt lat="45.0845" lon="6.16128">
        <ele>1411.8</ele>
        <time>2020-09-05T07:32:13Z</time>
      </trkpt>
      <trkpt lat="45.08454" lon="6.16127">
        <ele>1412.2</ele>
        <time>2020-09-05T07:32:14Z</time>
      </trkpt>
      <trkpt lat="45.08458" lon="6.16127">
        <ele>1412.4</ele>
        <time>2020-09-05T07:32:15Z</time>
      </trkpt>
      <trkpt lat="45.08462" lon="6.16127">
        <ele>1412.8</ele>
        <time>2020-09-05T07:32:16Z</time>
      </trkpt>
      <trkpt lat="45.08466" lon="6.16126">
        <ele>1413</ele>
        <time>2020-09-05T07:32:17Z</time>
      </trkpt>
      <trkpt lat="45.0847" lon="6.16126">
        <ele>1413.6</ele>
        <time>2020-09-05T07:32:18Z</time>
      </trkpt>
      <trkpt lat="45.08473" lon="6.16125">
        <ele>1413.6</ele>
        <time>2020-09-05T07:32:19Z</time>
      </trkpt>
      <trkpt lat="45.08477" lon="6.16125">
        <ele>1414</ele>
        <time>2020-09-05T07:32:20Z</time>
      </trkpt>
      <trkpt lat="45.0848" lon="6.16124">
        <ele>1414</ele>
        <time>2020-09-05T07:32:21Z</time>
      </trkpt>
      <trkpt lat="45.08483" lon="6.16124">
        <ele>1414.4</ele>
        <time>2020-09-05T07:32:22Z</time>
      </trkpt>
      <trkpt lat="45.08486" lon="6.16123">
        <ele>1414.8</ele>
        <time>2020-09-05T07:32:23Z</time>
      </trkpt>
      <trkpt lat="45.0849" lon="6.16123">
        <ele>1415</ele>
        <time>2020-09-05T07:32:24Z</time>
      </trkpt>
      <trkpt lat="45.08493" lon="6.16122">
        <ele>1415.4</ele>
        <time>2020-09-05T07:32:25Z</time>
      </trkpt>
      <trkpt lat="45.08497" lon="6.16121">
        <ele>1415.8</ele>
        <time>2020-09-05T07:32:26Z</time>
      </trkpt>
      <trkpt lat="45.085" lon="6.16121">
        <ele>1415.8</ele>
        <time>2020-09-05T07:32:27Z</time>
      </trkpt>
      <trkpt lat="45.08504" lon="6.1612">
        <ele>1416.2</ele>
        <time>2020-09-05T07:32:28Z</time>
      </trkpt>
      <trkpt lat="45.08508" lon="6.16119">
        <ele>1416.6</ele>
        <time>2020-09-05T07:32:29Z</time>
      </trkpt>
      <trkpt lat="45.08511" lon="6.16118">
        <ele>1417.2</ele>
        <time>2020-09-05T07:32:30Z</time>
      </trkpt>
      <trkpt lat="45.08515" lon="6.16117">
        <ele>1417.2</ele>
        <time>2020-09-05T07:32:31Z</time>
      </trkpt>
      <trkpt lat="45.08519" lon="6.16116">
        <ele>1417.6</ele>
        <time>2020-09-05T07:32:32Z</time>
      </trkpt>
      <trkpt lat="45.08522" lon="6.16115">
        <ele>1417.8</ele>
        <time>2020-09-05T07:32:33Z</time>
      </trkpt>
      <trkpt lat="45.08526" lon="6.16115">
        <ele>1418.2</ele>
        <time>2020-09-05T07:32:34Z</time>
      </trkpt>
      <trkpt lat="45.0853" lon="6.16114">
        <ele>1418.6</ele>
        <time>2020-09-05T07:32:35Z</time>
      </trkpt>
      <trkpt lat="45.08534" lon="6.16114">
        <ele>1418.8</ele>
        <time>2020-09-05T07:32:36Z</time>
      </trkpt>
      <trkpt lat="45.08538" lon="6.16113">
        <ele>1419</ele>
        <time>2020-09-05T07:32:37Z</time>
      </trkpt>
      <trkpt lat="45.08541" lon="6.16112">
        <ele>1419.4</ele>
        <time>2020-09-05T07:32:38Z</time>
      </trkpt>
      <trkpt lat="45.08545" lon="6.16112">
        <ele>1420</ele>
        <time>2020-09-05T07:32:39Z</time>
      </trkpt>
      <trkpt lat="45.08549" lon="6.16111">
        <ele>1420.2</ele>
        <time>2020-09-05T07:32:40Z</time>
      </trkpt>
      <trkpt lat="45.08553" lon="6.16111">
        <ele>1420.6</ele>
        <time>2020-09-05T07:32:41Z</time>
      </trkpt>
      <trkpt lat="45.08557" lon="6.16111">
        <ele>1421</ele>
        <time>2020-09-05T07:32:42Z</time>
      </trkpt>
      <trkpt lat="45.08561" lon="6.16111">
        <ele>1421.2</ele>
        <time>2020-09-05T07:32:43Z</time>
      </trkpt>
      <trkpt lat="45.08565" lon="6.16112">
        <ele>1421.6</ele>
        <time>2020-09-05T07:32:44Z</time>
      </trkpt>
      <trkpt lat="45.08569" lon="6.16112">
        <ele>1421.8</ele>
        <time>2020-09-05T07:32:45Z</time>
      </trkpt>
      <trkpt lat="45.08573" lon="6.16113">
        <ele>1422.2</ele>
        <time>2020-09-05T07:32:46Z</time>
      </trkpt>
      <trkpt lat="45.08577" lon="6.16114">
        <ele>1422.4</ele>
        <time>2020-09-05T07:32:47Z</time>
      </trkpt>
      <trkpt lat="45.08581" lon="6.16115">
        <ele>1422.8</ele>
        <time>2020-09-05T07:32:48Z</time>
      </trkpt>
      <trkpt lat="45.08585" lon="6.16116">
        <ele>1423</ele>
        <time>2020-09-05T07:32:49Z</time>
      </trkpt>
      <trkpt lat="45.08588" lon="6.16118">
        <ele>1423.4</ele>
        <time>2020-09-05T07:32:50Z</time>
      </trkpt>
      <trkpt lat="45.08592" lon="6.16119">
        <ele>1423.8</ele>
        <time>2020-09-05T07:32:51Z</time>
      </trkpt>
      <trkpt lat="45.08595" lon="6.16121">
        <ele>1424.2</ele>
        <time>2020-09-05T07:32:52Z</time>
      </trkpt>
      <trkpt lat="45.08599" lon="6.16123">
        <ele>1424.4</ele>
        <time>2020-09-05T07:32:53Z</time>
      </trkpt>
      <trkpt lat="45.08602" lon="6.16125">
        <ele>1424.8</ele>
        <time>2020-09-05T07:32:54Z</time>
      </trkpt>
      <trkpt lat="45.08605" lon="6.16127">
        <ele>1425</ele>
        <time>2020-09-05T07:32:55Z</time>
      </trkpt>
      <trkpt lat="45.08608" lon="6.16129">
        <ele>1425.4</ele>
        <time>2020-09-05T07:32:56Z</time>
      </trkpt>
      <trkpt lat="45.08611" lon="6.16131">
        <ele>1425.6</ele>
        <time>2020-09-05T07:32:57Z</time>
      </trkpt>
      <trkpt lat="45.08614" lon="6.16133">
        <ele>1426</ele>
        <time>2020-09-05T07:32:58Z</time>
      </trkpt>
      <trkpt lat="45.08617" lon="6.16135">
        <ele>1426.2</ele>
        <time>2020-09-05T07:32:59Z</time>
      </trkpt>
      <trkpt lat="45.0862" lon="6.16138">
        <ele>1426.6</ele>
        <time>2020-09-05T07:33:00Z</time>
      </trkpt>
      <trkpt lat="45.08623" lon="6.1614">
        <ele>1427</ele>
        <time>2020-09-05T07:33:01Z</time>
      </trkpt>
      <trkpt lat="45.08626" lon="6.16141">
        <ele>1427.4</ele>
        <time>2020-09-05T07:33:02Z</time>
      </trkpt>
      <trkpt lat="45.08629" lon="6.16142">
        <ele>1427.6</ele>
        <time>2020-09-05T07:33:03Z</time>
      </trkpt>
      <trkpt lat="45.08633" lon="6.16143">
        <ele>1428</ele>
        <time>2020-09-05T07:33:04Z</time>
      </trkpt>
      <trkpt lat="45.08636" lon="6.16142">
        <ele>1428.2</ele>
        <time>2020-09-05T07:33:05Z</time>
      </trkpt>
      <trkpt lat="45.08639" lon="6.16141">
        <ele>1428.6</ele>
        <time>2020-09-05T07:33:06Z</time>
      </trkpt>
      <trkpt lat="45.08642" lon="6.16139">
        <ele>1428.8</ele>
        <time>2020-09-05T07:33:07Z</time>
      </trkpt>
      <trkpt lat="45.08646" lon="6.16137">
        <ele>1429.2</ele>
        <time>2020-09-05T07:33:08Z</time>
      </trkpt>
      <trkpt lat="45.08649" lon="6.16134">
        <ele>1429.4</ele>
        <time>2020-09-05T07:33:09Z</time>
      </trkpt>
      <trkpt lat="45.08652" lon="6.16132">
        <ele>1429.8</ele>
        <time>2020-09-05T07:33:10Z</time>
      </trkpt>
      <trkpt lat="45.08655" lon="6.16129">
        <ele>1430</ele>
        <time>2020-09-05T07:33:11Z</time>
      </trkpt>
      <trkpt lat="45.08659" lon="6.16127">
        <ele>1430.4</ele>
        <time>2020-09-05T07:33:12Z</time>
      </trkpt>
      <trkpt lat="45.08662" lon="6.16125">
        <ele>1430.8</ele>
        <time>2020-09-05T07:33:13Z</time>
      </trkpt>
      <trkpt lat="45.08666" lon="6.16123">
        <ele>1431.2</ele>
        <time>2020-09-05T07:33:14Z</time>
      </trkpt>
      <trkpt lat="45.0867" lon="6.16121">
        <ele>1431.6</ele>
        <time>2020-09-05T07:33:15Z</time>
      </trkpt>
      <trkpt lat="45.08674" lon="6.1612">
        <ele>1431.6</ele>
        <time>2020-09-05T07:33:16Z</time>
      </trkpt>
      <trkpt lat="45.08678" lon="6.16119">
        <ele>1432</ele>
        <time>2020-09-05T07:33:17Z</time>
      </trkpt>
      <trkpt lat="45.08681" lon="6.16118">
        <ele>1432.2</ele>
        <time>2020-09-05T07:33:18Z</time>
      </trkpt>
      <trkpt lat="45.08685" lon="6.16118">
        <ele>1432.4</ele>
        <time>2020-09-05T07:33:19Z</time>
      </trkpt>
      <trkpt lat="45.08689" lon="6.16118">
        <ele>1432.6</ele>
        <time>2020-09-05T07:33:20Z</time>
      </trkpt>
      <trkpt lat="45.08693" lon="6.16119">
        <ele>1433</ele>
        <time>2020-09-05T07:33:21Z</time>
      </trkpt>
      <trkpt lat="45.08706" lon="6.16121">
        <ele>1434</ele>
        <time>2020-09-05T07:33:24Z</time>
      </trkpt>
      <trkpt lat="45.08714" lon="6.16123">
        <ele>1434.8</ele>
        <time>2020-09-05T07:33:26Z</time>
      </trkpt>
      <trkpt lat="45.08718" lon="6.16124">
        <ele>1435.2</ele>
        <time>2020-09-05T07:33:27Z</time>
      </trkpt>
      <trkpt lat="45.08722" lon="6.16126">
        <ele>1435.6</ele>
        <time>2020-09-05T07:33:28Z</time>
      </trkpt>
      <trkpt lat="45.08726" lon="6.16127">
        <ele>1436</ele>
        <time>2020-09-05T07:33:29Z</time>
      </trkpt>
      <trkpt lat="45.08729" lon="6.16129">
        <ele>1436.4</ele>
        <time>2020-09-05T07:33:30Z</time>
      </trkpt>
      <trkpt lat="45.08733" lon="6.1613">
        <ele>1436.6</ele>
        <time>2020-09-05T07:33:31Z</time>
      </trkpt>
      <trkpt lat="45.08737" lon="6.1613">
        <ele>1436.8</ele>
        <time>2020-09-05T07:33:32Z</time>
      </trkpt>
      <trkpt lat="45.08741" lon="6.16131">
        <ele>1437</ele>
        <time>2020-09-05T07:33:33Z</time>
      </trkpt>
      <trkpt lat="45.08745" lon="6.16132">
        <ele>1437.2</ele>
        <time>2020-09-05T07:33:34Z</time>
      </trkpt>
      <trkpt lat="45.08749" lon="6.16134">
        <ele>1437.6</ele>
        <time>2020-09-05T07:33:35Z</time>
      </trkpt>
      <trkpt lat="45.08753" lon="6.16135">
        <ele>1438</ele>
        <time>2020-09-05T07:33:36Z</time>
      </trkpt>
      <trkpt lat="45.08756" lon="6.16136">
        <ele>1438.4</ele>
        <time>2020-09-05T07:33:37Z</time>
      </trkpt>
      <trkpt lat="45.08759" lon="6.16138">
        <ele>1438.8</ele>
        <time>2020-09-05T07:33:38Z</time>
      </trkpt>
      <trkpt lat="45.08762" lon="6.1614">
        <ele>1439.2</ele>
        <time>2020-09-05T07:33:39Z</time>
      </trkpt>
      <trkpt lat="45.08766" lon="6.16141">
        <ele>1439.8</ele>
        <time>2020-09-05T07:33:40Z</time>
      </trkpt>
      <trkpt lat="45.08769" lon="6.16142">
        <ele>1440.2</ele>
        <time>2020-09-05T07:33:41Z</time>
      </trkpt>
      <trkpt lat="45.08772" lon="6.16144">
        <ele>1440.4</ele>
        <time>2020-09-05T07:33:42Z</time>
      </trkpt>
      <trkpt lat="45.08775" lon="6.16145">
        <ele>1440.4</ele>
        <time>2020-09-05T07:33:43Z</time>
      </trkpt>
      <trkpt lat="45.08779" lon="6.16147">
        <ele>1440.4</ele>
        <time>2020-09-05T07:33:44Z</time>
      </trkpt>
      <trkpt lat="45.08783" lon="6.16149">
        <ele>1440.8</ele>
        <time>2020-09-05T07:33:45Z</time>
      </trkpt>
      <trkpt lat="45.08786" lon="6.1615">
        <ele>1441.2</ele>
        <time>2020-09-05T07:33:46Z</time>
      </trkpt>
      <trkpt lat="45.08794" lon="6.16154">
        <ele>1442.2</ele>
        <time>2020-09-05T07:33:48Z</time>
      </trkpt>
      <trkpt lat="45.08797" lon="6.16157">
        <ele>1442.4</ele>
        <time>2020-09-05T07:33:49Z</time>
      </trkpt>
      <trkpt lat="45.088" lon="6.16159">
        <ele>1442.4</ele>
        <time>2020-09-05T07:33:50Z</time>
      </trkpt>
      <trkpt lat="45.08803" lon="6.16162">
        <ele>1442.6</ele>
        <time>2020-09-05T07:33:51Z</time>
      </trkpt>
      <trkpt lat="45.08806" lon="6.16165">
        <ele>1443</ele>
        <time>2020-09-05T07:33:52Z</time>
      </trkpt>
      <trkpt lat="45.08809" lon="6.16168">
        <ele>1443.4</ele>
        <time>2020-09-05T07:33:53Z</time>
      </trkpt>
      <trkpt lat="45.08811" lon="6.1617">
        <ele>1443.8</ele>
        <time>2020-09-05T07:33:54Z</time>
      </trkpt>
      <trkpt lat="45.08814" lon="6.16173">
        <ele>1444</ele>
        <time>2020-09-05T07:33:55Z</time>
      </trkpt>
      <trkpt lat="45.08817" lon="6.16175">
        <ele>1444.4</ele>
        <time>2020-09-05T07:33:56Z</time>
      </trkpt>
      <trkpt lat="45.0882" lon="6.16178">
        <ele>1444.6</ele>
        <time>2020-09-05T07:33:57Z</time>
      </trkpt>
      <trkpt lat="45.08822" lon="6.16181">
        <ele>1445</ele>
        <time>2020-09-05T07:33:58Z</time>
      </trkpt>
      <trkpt lat="45.08825" lon="6.16184">
        <ele>1445.2</ele>
        <time>2020-09-05T07:33:59Z</time>
      </trkpt>
      <trkpt lat="45.08828" lon="6.16187">
        <ele>1445.6</ele>
        <time>2020-09-05T07:34:00Z</time>
      </trkpt>
      <trkpt lat="45.08831" lon="6.1619">
        <ele>1446</ele>
        <time>2020-09-05T07:34:01Z</time>
      </trkpt>
      <trkpt lat="45.08834" lon="6.16193">
        <ele>1446.4</ele>
        <time>2020-09-05T07:34:02Z</time>
      </trkpt>
      <trkpt lat="45.08836" lon="6.16196">
        <ele>1446.8</ele>
        <time>2020-09-05T07:34:03Z</time>
      </trkpt>
      <trkpt lat="45.08839" lon="6.16199">
        <ele>1447.2</ele>
        <time>2020-09-05T07:34:04Z</time>
      </trkpt>
      <trkpt lat="45.08842" lon="6.16202">
        <ele>1447.4</ele>
        <time>2020-09-05T07:34:05Z</time>
      </trkpt>
      <trkpt lat="45.08845" lon="6.16205">
        <ele>1447.8</ele>
        <time>2020-09-05T07:34:06Z</time>
      </trkpt>
      <trkpt lat="45.08848" lon="6.16208">
        <ele>1448.2</ele>
        <time>2020-09-05T07:34:07Z</time>
      </trkpt>
      <trkpt lat="45.08851" lon="6.16211">
        <ele>1448.6</ele>
        <time>2020-09-05T07:34:08Z</time>
      </trkpt>
      <trkpt lat="45.08854" lon="6.16214">
        <ele>1449</ele>
        <time>2020-09-05T07:34:09Z</time>
      </trkpt>
      <trkpt lat="45.08857" lon="6.16217">
        <ele>1449.2</ele>
        <time>2020-09-05T07:34:10Z</time>
      </trkpt>
      <trkpt lat="45.0886" lon="6.1622">
        <ele>1449.6</ele>
        <time>2020-09-05T07:34:11Z</time>
      </trkpt>
      <trkpt lat="45.08862" lon="6.16224">
        <ele>1450</ele>
        <time>2020-09-05T07:34:12Z</time>
      </trkpt>
      <trkpt lat="45.08865" lon="6.16227">
        <ele>1450.4</ele>
        <time>2020-09-05T07:34:13Z</time>
      </trkpt>
      <trkpt lat="45.08867" lon="6.16231">
        <ele>1450.6</ele>
        <time>2020-09-05T07:34:14Z</time>
      </trkpt>
      <trkpt lat="45.0887" lon="6.16235">
        <ele>1450.8</ele>
        <time>2020-09-05T07:34:15Z</time>
      </trkpt>
      <trkpt lat="45.08872" lon="6.16238">
        <ele>1451</ele>
        <time>2020-09-05T07:34:16Z</time>
      </trkpt>
      <trkpt lat="45.08874" lon="6.16242">
        <ele>1451.4</ele>
        <time>2020-09-05T07:34:17Z</time>
      </trkpt>
      <trkpt lat="45.08877" lon="6.16246">
        <ele>1451.8</ele>
        <time>2020-09-05T07:34:18Z</time>
      </trkpt>
      <trkpt lat="45.0888" lon="6.1625">
        <ele>1452.2</ele>
        <time>2020-09-05T07:34:19Z</time>
      </trkpt>
      <trkpt lat="45.08882" lon="6.16253">
        <ele>1452.4</ele>
        <time>2020-09-05T07:34:20Z</time>
      </trkpt>
      <trkpt lat="45.08885" lon="6.16257">
        <ele>1453</ele>
        <time>2020-09-05T07:34:21Z</time>
      </trkpt>
      <trkpt lat="45.08888" lon="6.1626">
        <ele>1453</ele>
        <time>2020-09-05T07:34:22Z</time>
      </trkpt>
      <trkpt lat="45.08891" lon="6.16263">
        <ele>1453.2</ele>
        <time>2020-09-05T07:34:23Z</time>
      </trkpt>
      <trkpt lat="45.08894" lon="6.16266">
        <ele>1453.6</ele>
        <time>2020-09-05T07:34:24Z</time>
      </trkpt>
      <trkpt lat="45.08897" lon="6.16268">
        <ele>1454</ele>
        <time>2020-09-05T07:34:25Z</time>
      </trkpt>
      <trkpt lat="45.089" lon="6.16271">
        <ele>1454.2</ele>
        <time>2020-09-05T07:34:26Z</time>
      </trkpt>
      <trkpt lat="45.08904" lon="6.16273">
        <ele>1454.6</ele>
        <time>2020-09-05T07:34:27Z</time>
      </trkpt>
      <trkpt lat="45.08907" lon="6.16276">
        <ele>1455</ele>
        <time>2020-09-05T07:34:28Z</time>
      </trkpt>
      <trkpt lat="45.0891" lon="6.16278">
        <ele>1455.4</ele>
        <time>2020-09-05T07:34:29Z</time>
      </trkpt>
      <trkpt lat="45.08913" lon="6.16281">
        <ele>1455.4</ele>
        <time>2020-09-05T07:34:30Z</time>
      </trkpt>
      <trkpt lat="45.08916" lon="6.16283">
        <ele>1455.8</ele>
        <time>2020-09-05T07:34:31Z</time>
      </trkpt>
      <trkpt lat="45.08919" lon="6.16286">
        <ele>1456</ele>
        <time>2020-09-05T07:34:32Z</time>
      </trkpt>
      <trkpt lat="45.08922" lon="6.16289">
        <ele>1456.4</ele>
        <time>2020-09-05T07:34:33Z</time>
      </trkpt>
      <trkpt lat="45.08924" lon="6.16291">
        <ele>1456.6</ele>
        <time>2020-09-05T07:34:34Z</time>
      </trkpt>
      <trkpt lat="45.08927" lon="6.16294">
        <ele>1457</ele>
        <time>2020-09-05T07:34:35Z</time>
      </trkpt>
      <trkpt lat="45.0893" lon="6.16297">
        <ele>1457.4</ele>
        <time>2020-09-05T07:34:36Z</time>
      </trkpt>
      <trkpt lat="45.08933" lon="6.163">
        <ele>1458</ele>
        <time>2020-09-05T07:34:37Z</time>
      </trkpt>
      <trkpt lat="45.08936" lon="6.16303">
        <ele>1458.4</ele>
        <time>2020-09-05T07:34:38Z</time>
      </trkpt>
      <trkpt lat="45.08938" lon="6.16306">
        <ele>1458.8</ele>
        <time>2020-09-05T07:34:39Z</time>
      </trkpt>
      <trkpt lat="45.08941" lon="6.1631">
        <ele>1458.6</ele>
        <time>2020-09-05T07:34:40Z</time>
      </trkpt>
      <trkpt lat="45.08945" lon="6.16313">
        <ele>1458.8</ele>
        <time>2020-09-05T07:34:41Z</time>
      </trkpt>
      <trkpt lat="45.08948" lon="6.16316">
        <ele>1459.2</ele>
        <time>2020-09-05T07:34:42Z</time>
      </trkpt>
      <trkpt lat="45.08952" lon="6.16319">
        <ele>1459.8</ele>
        <time>2020-09-05T07:34:43Z</time>
      </trkpt>
      <trkpt lat="45.08955" lon="6.16322">
        <ele>1460.2</ele>
        <time>2020-09-05T07:34:44Z</time>
      </trkpt>
      <trkpt lat="45.08959" lon="6.16324">
        <ele>1460.4</ele>
        <time>2020-09-05T07:34:45Z</time>
      </trkpt>
      <trkpt lat="45.08964" lon="6.16326">
        <ele>1461</ele>
        <time>2020-09-05T07:34:46Z</time>
      </trkpt>
      <trkpt lat="45.08968" lon="6.16328">
        <ele>1461.6</ele>
        <time>2020-09-05T07:34:47Z</time>
      </trkpt>
      <trkpt lat="45.08972" lon="6.16329">
        <ele>1462</ele>
        <time>2020-09-05T07:34:48Z</time>
      </trkpt>
      <trkpt lat="45.08976" lon="6.1633">
        <ele>1462.2</ele>
        <time>2020-09-05T07:34:49Z</time>
      </trkpt>
      <trkpt lat="45.08981" lon="6.16332">
        <ele>1462.6</ele>
        <time>2020-09-05T07:34:50Z</time>
      </trkpt>
      <trkpt lat="45.08985" lon="6.16333">
        <ele>1462.6</ele>
        <time>2020-09-05T07:34:51Z</time>
      </trkpt>
      <trkpt lat="45.08989" lon="6.16336">
        <ele>1463</ele>
        <time>2020-09-05T07:34:52Z</time>
      </trkpt>
      <trkpt lat="45.08993" lon="6.1634">
        <ele>1463.4</ele>
        <time>2020-09-05T07:34:53Z</time>
      </trkpt>
      <trkpt lat="45.08998" lon="6.16344">
        <ele>1463.6</ele>
        <time>2020-09-05T07:34:54Z</time>
      </trkpt>
      <trkpt lat="45.09001" lon="6.16349">
        <ele>1464</ele>
        <time>2020-09-05T07:34:55Z</time>
      </trkpt>
      <trkpt lat="45.09005" lon="6.16354">
        <ele>1464.4</ele>
        <time>2020-09-05T07:34:56Z</time>
      </trkpt>
      <trkpt lat="45.09008" lon="6.16359">
        <ele>1464.6</ele>
        <time>2020-09-05T07:34:57Z</time>
      </trkpt>
      <trkpt lat="45.09012" lon="6.16363">
        <ele>1464.8</ele>
        <time>2020-09-05T07:34:58Z</time>
      </trkpt>
      <trkpt lat="45.09017" lon="6.16365">
        <ele>1465.2</ele>
        <time>2020-09-05T07:34:59Z</time>
      </trkpt>
      <trkpt lat="45.09022" lon="6.16366">
        <ele>1465.6</ele>
        <time>2020-09-05T07:35:00Z</time>
      </trkpt>
      <trkpt lat="45.09026" lon="6.16365">
        <ele>1466</ele>
        <time>2020-09-05T07:35:01Z</time>
      </trkpt>
      <trkpt lat="45.09031" lon="6.16363">
        <ele>1466.4</ele>
        <time>2020-09-05T07:35:02Z</time>
      </trkpt>
      <trkpt lat="45.09035" lon="6.16359">
        <ele>1466.6</ele>
        <time>2020-09-05T07:35:03Z</time>
      </trkpt>
      <trkpt lat="45.09039" lon="6.16355">
        <ele>1466.8</ele>
        <time>2020-09-05T07:35:04Z</time>
      </trkpt>
      <trkpt lat="45.09042" lon="6.1635">
        <ele>1467.2</ele>
        <time>2020-09-05T07:35:05Z</time>
      </trkpt>
      <trkpt lat="45.09046" lon="6.16345">
        <ele>1467.6</ele>
        <time>2020-09-05T07:35:06Z</time>
      </trkpt>
      <trkpt lat="45.09049" lon="6.16341">
        <ele>1467.8</ele>
        <time>2020-09-05T07:35:07Z</time>
      </trkpt>
      <trkpt lat="45.09053" lon="6.16336">
        <ele>1468.2</ele>
        <time>2020-09-05T07:35:08Z</time>
      </trkpt>
      <trkpt lat="45.09056" lon="6.16332">
        <ele>1468.4</ele>
        <time>2020-09-05T07:35:09Z</time>
      </trkpt>
      <trkpt lat="45.09059" lon="6.16329">
        <ele>1468.6</ele>
        <time>2020-09-05T07:35:10Z</time>
      </trkpt>
      <trkpt lat="45.09063" lon="6.16327">
        <ele>1469</ele>
        <time>2020-09-05T07:35:11Z</time>
      </trkpt>
      <trkpt lat="45.09067" lon="6.16325">
        <ele>1469.4</ele>
        <time>2020-09-05T07:35:12Z</time>
      </trkpt>
      <trkpt lat="45.0907" lon="6.16324">
        <ele>1469.6</ele>
        <time>2020-09-05T07:35:13Z</time>
      </trkpt>
      <trkpt lat="45.09074" lon="6.16323">
        <ele>1469.8</ele>
        <time>2020-09-05T07:35:14Z</time>
      </trkpt>
      <trkpt lat="45.09077" lon="6.16323">
        <ele>1470.2</ele>
        <time>2020-09-05T07:35:15Z</time>
      </trkpt>
      <trkpt lat="45.0908" lon="6.16324">
        <ele>1470.6</ele>
        <time>2020-09-05T07:35:16Z</time>
      </trkpt>
      <trkpt lat="45.09082" lon="6.16325">
        <ele>1471</ele>
        <time>2020-09-05T07:35:17Z</time>
      </trkpt>
      <trkpt lat="45.09085" lon="6.16327">
        <ele>1471</ele>
        <time>2020-09-05T07:35:18Z</time>
      </trkpt>
      <trkpt lat="45.09087" lon="6.16329">
        <ele>1471.2</ele>
        <time>2020-09-05T07:35:19Z</time>
      </trkpt>
      <trkpt lat="45.09089" lon="6.16331">
        <ele>1471.4</ele>
        <time>2020-09-05T07:35:20Z</time>
      </trkpt>
      <trkpt lat="45.09091" lon="6.16332">
        <ele>1471.6</ele>
        <time>2020-09-05T07:35:21Z</time>
      </trkpt>
      <trkpt lat="45.09093" lon="6.16334">
        <ele>1471.8</ele>
        <time>2020-09-05T07:35:22Z</time>
      </trkpt>
      <trkpt lat="45.09095" lon="6.16335">
        <ele>1472</ele>
        <time>2020-09-05T07:35:23Z</time>
      </trkpt>
      <trkpt lat="45.09098" lon="6.16337">
        <ele>1472.6</ele>
        <time>2020-09-05T07:35:24Z</time>
      </trkpt>
      <trkpt lat="45.091" lon="6.16339">
        <ele>1472.8</ele>
        <time>2020-09-05T07:35:25Z</time>
      </trkpt>
      <trkpt lat="45.09101" lon="6.1634">
        <ele>1473</ele>
        <time>2020-09-05T07:35:26Z</time>
      </trkpt>
      <trkpt lat="45.09103" lon="6.16342">
        <ele>1473.4</ele>
        <time>2020-09-05T07:35:27Z</time>
      </trkpt>
      <trkpt lat="45.09105" lon="6.16343">
        <ele>1473.8</ele>
        <time>2020-09-05T07:35:28Z</time>
      </trkpt>
      <trkpt lat="45.09107" lon="6.16344">
        <ele>1474</ele>
        <time>2020-09-05T07:35:29Z</time>
      </trkpt>
      <trkpt lat="45.09109" lon="6.16345">
        <ele>1474</ele>
        <time>2020-09-05T07:35:30Z</time>
      </trkpt>
      <trkpt lat="45.0911" lon="6.16347">
        <ele>1474.2</ele>
        <time>2020-09-05T07:35:31Z</time>
      </trkpt>
      <trkpt lat="45.09112" lon="6.16348">
        <ele>1474.6</ele>
        <time>2020-09-05T07:35:32Z</time>
      </trkpt>
      <trkpt lat="45.09114" lon="6.16349">
        <ele>1474.8</ele>
        <time>2020-09-05T07:35:33Z</time>
      </trkpt>
      <trkpt lat="45.09117" lon="6.1635">
        <ele>1474.8</ele>
        <time>2020-09-05T07:35:34Z</time>
      </trkpt>
      <trkpt lat="45.09119" lon="6.16351">
        <ele>1475.2</ele>
        <time>2020-09-05T07:35:35Z</time>
      </trkpt>
      <trkpt lat="45.0912" lon="6.16352">
        <ele>1475.2</ele>
        <time>2020-09-05T07:35:36Z</time>
      </trkpt>
      <trkpt lat="45.09123" lon="6.16354">
        <ele>1475.8</ele>
        <time>2020-09-05T07:35:38Z</time>
      </trkpt>
      <trkpt lat="45.09125" lon="6.16356">
        <ele>1475.8</ele>
        <time>2020-09-05T07:35:39Z</time>
      </trkpt>
      <trkpt lat="45.09127" lon="6.16357">
        <ele>1476.2</ele>
        <time>2020-09-05T07:35:40Z</time>
      </trkpt>
      <trkpt lat="45.0913" lon="6.16357">
        <ele>1476.6</ele>
        <time>2020-09-05T07:35:41Z</time>
      </trkpt>
      <trkpt lat="45.09132" lon="6.16358">
        <ele>1476.8</ele>
        <time>2020-09-05T07:35:42Z</time>
      </trkpt>
      <trkpt lat="45.09134" lon="6.1636">
        <ele>1477</ele>
        <time>2020-09-05T07:35:43Z</time>
      </trkpt>
      <trkpt lat="45.09137" lon="6.16362">
        <ele>1477.4</ele>
        <time>2020-09-05T07:35:45Z</time>
      </trkpt>
      <trkpt lat="45.0914" lon="6.16364">
        <ele>1477.6</ele>
        <time>2020-09-05T07:35:47Z</time>
      </trkpt>
      <trkpt lat="45.09148" lon="6.16369">
        <ele>1478.6</ele>
        <time>2020-09-05T07:35:51Z</time>
      </trkpt>
      <trkpt lat="45.09156" lon="6.16378">
        <ele>1480</ele>
        <time>2020-09-05T07:35:55Z</time>
      </trkpt>
      <trkpt lat="45.09162" lon="6.16382">
        <ele>1480.6</ele>
        <time>2020-09-05T07:35:58Z</time>
      </trkpt>
      <trkpt lat="45.09165" lon="6.16384">
        <ele>1480.8</ele>
        <time>2020-09-05T07:35:59Z</time>
      </trkpt>
      <trkpt lat="45.09167" lon="6.16386">
        <ele>1480.8</ele>
        <time>2020-09-05T07:36:00Z</time>
      </trkpt>
      <trkpt lat="45.09168" lon="6.16387">
        <ele>1481.2</ele>
        <time>2020-09-05T07:36:01Z</time>
      </trkpt>
      <trkpt lat="45.09172" lon="6.1639">
        <ele>1481.8</ele>
        <time>2020-09-05T07:36:03Z</time>
      </trkpt>
      <trkpt lat="45.09174" lon="6.16391">
        <ele>1481.8</ele>
        <time>2020-09-05T07:36:04Z</time>
      </trkpt>
      <trkpt lat="45.09175" lon="6.16393">
        <ele>1481.8</ele>
        <time>2020-09-05T07:36:05Z</time>
      </trkpt>
      <trkpt lat="45.09177" lon="6.16395">
        <ele>1482</ele>
        <time>2020-09-05T07:36:06Z</time>
      </trkpt>
      <trkpt lat="45.09179" lon="6.16398">
        <ele>1482.2</ele>
        <time>2020-09-05T07:36:07Z</time>
      </trkpt>
      <trkpt lat="45.09181" lon="6.164">
        <ele>1482.2</ele>
        <time>2020-09-05T07:36:08Z</time>
      </trkpt>
      <trkpt lat="45.09183" lon="6.16401">
        <ele>1482.6</ele>
        <time>2020-09-05T07:36:09Z</time>
      </trkpt>
      <trkpt lat="45.09185" lon="6.16403">
        <ele>1482.6</ele>
        <time>2020-09-05T07:36:10Z</time>
      </trkpt>
      <trkpt lat="45.09187" lon="6.16404">
        <ele>1482.8</ele>
        <time>2020-09-05T07:36:11Z</time>
      </trkpt>
      <trkpt lat="45.09189" lon="6.16406">
        <ele>1483</ele>
        <time>2020-09-05T07:36:12Z</time>
      </trkpt>
      <trkpt lat="45.09191" lon="6.16408">
        <ele>1482.8</ele>
        <time>2020-09-05T07:36:13Z</time>
      </trkpt>
      <trkpt lat="45.09193" lon="6.1641">
        <ele>1483</ele>
        <time>2020-09-05T07:36:14Z</time>
      </trkpt>
      <trkpt lat="45.09195" lon="6.16412">
        <ele>1483.2</ele>
        <time>2020-09-05T07:36:15Z</time>
      </trkpt>
      <trkpt lat="45.09197" lon="6.16414">
        <ele>1483.6</ele>
        <time>2020-09-05T07:36:16Z</time>
      </trkpt>
      <trkpt lat="45.09199" lon="6.16415">
        <ele>1483.6</ele>
        <time>2020-09-05T07:36:17Z</time>
      </trkpt>
      <trkpt lat="45.09202" lon="6.16416">
        <ele>1483.8</ele>
        <time>2020-09-05T07:36:18Z</time>
      </trkpt>
      <trkpt lat="45.09204" lon="6.16417">
        <ele>1484</ele>
        <time>2020-09-05T07:36:19Z</time>
      </trkpt>
      <trkpt lat="45.09215" lon="6.16417">
        <ele>1485</ele>
        <time>2020-09-05T07:36:23Z</time>
      </trkpt>
      <trkpt lat="45.09222" lon="6.16411">
        <ele>1485.4</ele>
        <time>2020-09-05T07:36:26Z</time>
      </trkpt>
      <trkpt lat="45.09223" lon="6.16409">
        <ele>1485.4</ele>
        <time>2020-09-05T07:36:27Z</time>
      </trkpt>
      <trkpt lat="45.09224" lon="6.16406">
        <ele>1485.6</ele>
        <time>2020-09-05T07:36:28Z</time>
      </trkpt>
      <trkpt lat="45.09225" lon="6.16404">
        <ele>1486</ele>
        <time>2020-09-05T07:36:29Z</time>
      </trkpt>
      <trkpt lat="45.09226" lon="6.16401">
        <ele>1486.2</ele>
        <time>2020-09-05T07:36:30Z</time>
      </trkpt>
      <trkpt lat="45.09227" lon="6.16398">
        <ele>1486.4</ele>
        <time>2020-09-05T07:36:31Z</time>
      </trkpt>
      <trkpt lat="45.09228" lon="6.16395">
        <ele>1486.6</ele>
        <time>2020-09-05T07:36:32Z</time>
      </trkpt>
      <trkpt lat="45.09228" lon="6.16392">
        <ele>1486.8</ele>
        <time>2020-09-05T07:36:33Z</time>
      </trkpt>
      <trkpt lat="45.09229" lon="6.16388">
        <ele>1487</ele>
        <time>2020-09-05T07:36:34Z</time>
      </trkpt>
      <trkpt lat="45.09229" lon="6.16385">
        <ele>1487.2</ele>
        <time>2020-09-05T07:36:35Z</time>
      </trkpt>
      <trkpt lat="45.0923" lon="6.16382">
        <ele>1487.4</ele>
        <time>2020-09-05T07:36:36Z</time>
      </trkpt>
      <trkpt lat="45.09231" lon="6.16379">
        <ele>1487.6</ele>
        <time>2020-09-05T07:36:37Z</time>
      </trkpt>
      <trkpt lat="45.09231" lon="6.16376">
        <ele>1487.8</ele>
        <time>2020-09-05T07:36:38Z</time>
      </trkpt>
      <trkpt lat="45.09232" lon="6.16372">
        <ele>1487.8</ele>
        <time>2020-09-05T07:36:39Z</time>
      </trkpt>
      <trkpt lat="45.09232" lon="6.16369">
        <ele>1488</ele>
        <time>2020-09-05T07:36:40Z</time>
      </trkpt>
      <trkpt lat="45.09232" lon="6.16361">
        <ele>1488.4</ele>
        <time>2020-09-05T07:36:42Z</time>
      </trkpt>
      <trkpt lat="45.09233" lon="6.16357">
        <ele>1488.8</ele>
        <time>2020-09-05T07:36:43Z</time>
      </trkpt>
      <trkpt lat="45.09233" lon="6.16352">
        <ele>1489</ele>
        <time>2020-09-05T07:36:44Z</time>
      </trkpt>
      <trkpt lat="45.09233" lon="6.16349">
        <ele>1489.2</ele>
        <time>2020-09-05T07:36:45Z</time>
      </trkpt>
      <trkpt lat="45.09233" lon="6.16345">
        <ele>1489.4</ele>
        <time>2020-09-05T07:36:46Z</time>
      </trkpt>
      <trkpt lat="45.09233" lon="6.16341">
        <ele>1489.8</ele>
        <time>2020-09-05T07:36:47Z</time>
      </trkpt>
      <trkpt lat="45.09233" lon="6.16337">
        <ele>1490</ele>
        <time>2020-09-05T07:36:48Z</time>
      </trkpt>
      <trkpt lat="45.09233" lon="6.16333">
        <ele>1490.4</ele>
        <time>2020-09-05T07:36:49Z</time>
      </trkpt>
      <trkpt lat="45.09233" lon="6.16329">
        <ele>1490.6</ele>
        <time>2020-09-05T07:36:50Z</time>
      </trkpt>
      <trkpt lat="45.09233" lon="6.16325">
        <ele>1490.4</ele>
        <time>2020-09-05T07:36:51Z</time>
      </trkpt>
      <trkpt lat="45.09233" lon="6.16321">
        <ele>1490.6</ele>
        <time>2020-09-05T07:36:52Z</time>
      </trkpt>
      <trkpt lat="45.09233" lon="6.16317">
        <ele>1490.8</ele>
        <time>2020-09-05T07:36:53Z</time>
      </trkpt>
      <trkpt lat="45.09234" lon="6.16313">
        <ele>1491</ele>
        <time>2020-09-05T07:36:54Z</time>
      </trkpt>
      <trkpt lat="45.09234" lon="6.16309">
        <ele>1491.2</ele>
        <time>2020-09-05T07:36:55Z</time>
      </trkpt>
      <trkpt lat="45.09234" lon="6.16305">
        <ele>1491.4</ele>
        <time>2020-09-05T07:36:56Z</time>
      </trkpt>
      <trkpt lat="45.09234" lon="6.16301">
        <ele>1491.6</ele>
        <time>2020-09-05T07:36:57Z</time>
      </trkpt>
      <trkpt lat="45.09234" lon="6.16298">
        <ele>1491.8</ele>
        <time>2020-09-05T07:36:58Z</time>
      </trkpt>
      <trkpt lat="45.09235" lon="6.16294">
        <ele>1492</ele>
        <time>2020-09-05T07:36:59Z</time>
      </trkpt>
      <trkpt lat="45.09237" lon="6.16292">
        <ele>1492.2</ele>
        <time>2020-09-05T07:37:00Z</time>
      </trkpt>
      <trkpt lat="45.09238" lon="6.1629">
        <ele>1492.6</ele>
        <time>2020-09-05T07:37:01Z</time>
      </trkpt>
      <trkpt lat="45.0924" lon="6.16289">
        <ele>1492.8</ele>
        <time>2020-09-05T07:37:02Z</time>
      </trkpt>
      <trkpt lat="45.09244" lon="6.1629">
        <ele>1493.4</ele>
        <time>2020-09-05T07:37:04Z</time>
      </trkpt>
      <trkpt lat="45.09245" lon="6.1629">
        <ele>1493.6</ele>
        <time>2020-09-05T07:37:05Z</time>
      </trkpt>
      <trkpt lat="45.09247" lon="6.16291">
        <ele>1494</ele>
        <time>2020-09-05T07:37:06Z</time>
      </trkpt>
      <trkpt lat="45.09249" lon="6.16293">
        <ele>1494</ele>
        <time>2020-09-05T07:37:07Z</time>
      </trkpt>
      <trkpt lat="45.0925" lon="6.16295">
        <ele>1494.4</ele>
        <time>2020-09-05T07:37:08Z</time>
      </trkpt>
      <trkpt lat="45.09259" lon="6.16303">
        <ele>1495.2</ele>
        <time>2020-09-05T07:37:12Z</time>
      </trkpt>
      <trkpt lat="45.09267" lon="6.1631">
        <ele>1496.2</ele>
        <time>2020-09-05T07:37:16Z</time>
      </trkpt>
      <trkpt lat="45.09269" lon="6.16312">
        <ele>1496.4</ele>
        <time>2020-09-05T07:37:17Z</time>
      </trkpt>
      <trkpt lat="45.09271" lon="6.16313">
        <ele>1496.4</ele>
        <time>2020-09-05T07:37:18Z</time>
      </trkpt>
      <trkpt lat="45.09273" lon="6.16315">
        <ele>1496.6</ele>
        <time>2020-09-05T07:37:19Z</time>
      </trkpt>
      <trkpt lat="45.09274" lon="6.16316">
        <ele>1497</ele>
        <time>2020-09-05T07:37:20Z</time>
      </trkpt>
      <trkpt lat="45.09276" lon="6.16318">
        <ele>1497</ele>
        <time>2020-09-05T07:37:21Z</time>
      </trkpt>
      <trkpt lat="45.09278" lon="6.1632">
        <ele>1497</ele>
        <time>2020-09-05T07:37:22Z</time>
      </trkpt>
      <trkpt lat="45.09279" lon="6.16322">
        <ele>1497.2</ele>
        <time>2020-09-05T07:37:23Z</time>
      </trkpt>
      <trkpt lat="45.09282" lon="6.16324">
        <ele>1497.4</ele>
        <time>2020-09-05T07:37:24Z</time>
      </trkpt>
      <trkpt lat="45.09284" lon="6.16325">
        <ele>1497.6</ele>
        <time>2020-09-05T07:37:25Z</time>
      </trkpt>
      <trkpt lat="45.09285" lon="6.16328">
        <ele>1497.8</ele>
        <time>2020-09-05T07:37:26Z</time>
      </trkpt>
      <trkpt lat="45.09287" lon="6.1633">
        <ele>1497.8</ele>
        <time>2020-09-05T07:37:27Z</time>
      </trkpt>
      <trkpt lat="45.09289" lon="6.16331">
        <ele>1498.2</ele>
        <time>2020-09-05T07:37:28Z</time>
      </trkpt>
      <trkpt lat="45.09291" lon="6.16332">
        <ele>1498.4</ele>
        <time>2020-09-05T07:37:29Z</time>
      </trkpt>
      <trkpt lat="45.09294" lon="6.16332">
        <ele>1498.6</ele>
        <time>2020-09-05T07:37:30Z</time>
      </trkpt>
      <trkpt lat="45.09296" lon="6.16333">
        <ele>1498.8</ele>
        <time>2020-09-05T07:37:31Z</time>
      </trkpt>
      <trkpt lat="45.09298" lon="6.16334">
        <ele>1499</ele>
        <time>2020-09-05T07:37:32Z</time>
      </trkpt>
      <trkpt lat="45.093" lon="6.16334">
        <ele>1499.2</ele>
        <time>2020-09-05T07:37:33Z</time>
      </trkpt>
      <trkpt lat="45.09303" lon="6.16334">
        <ele>1499.4</ele>
        <time>2020-09-05T07:37:34Z</time>
      </trkpt>
      <trkpt lat="45.09305" lon="6.16334">
        <ele>1499.4</ele>
        <time>2020-09-05T07:37:35Z</time>
      </trkpt>
      <trkpt lat="45.09307" lon="6.16334">
        <ele>1499.6</ele>
        <time>2020-09-05T07:37:36Z</time>
      </trkpt>
      <trkpt lat="45.09309" lon="6.16334">
        <ele>1499.8</ele>
        <time>2020-09-05T07:37:37Z</time>
      </trkpt>
      <trkpt lat="45.09312" lon="6.16334">
        <ele>1500</ele>
        <time>2020-09-05T07:37:38Z</time>
      </trkpt>
      <trkpt lat="45.09314" lon="6.16334">
        <ele>1500.2</ele>
        <time>2020-09-05T07:37:39Z</time>
      </trkpt>
      <trkpt lat="45.09316" lon="6.16334">
        <ele>1500.6</ele>
        <time>2020-09-05T07:37:40Z</time>
      </trkpt>
      <trkpt lat="45.09318" lon="6.16335">
        <ele>1501</ele>
        <time>2020-09-05T07:37:41Z</time>
      </trkpt>
      <trkpt lat="45.09321" lon="6.16336">
        <ele>1501.2</ele>
        <time>2020-09-05T07:37:42Z</time>
      </trkpt>
      <trkpt lat="45.09323" lon="6.16336">
        <ele>1501.2</ele>
        <time>2020-09-05T07:37:43Z</time>
      </trkpt>
      <trkpt lat="45.09325" lon="6.16336">
        <ele>1501.4</ele>
        <time>2020-09-05T07:37:44Z</time>
      </trkpt>
      <trkpt lat="45.09327" lon="6.16336">
        <ele>1501.6</ele>
        <time>2020-09-05T07:37:45Z</time>
      </trkpt>
      <trkpt lat="45.0933" lon="6.16336">
        <ele>1501.8</ele>
        <time>2020-09-05T07:37:46Z</time>
      </trkpt>
      <trkpt lat="45.09332" lon="6.16337">
        <ele>1502</ele>
        <time>2020-09-05T07:37:47Z</time>
      </trkpt>
      <trkpt lat="45.09334" lon="6.16337">
        <ele>1502.2</ele>
        <time>2020-09-05T07:37:48Z</time>
      </trkpt>
      <trkpt lat="45.09336" lon="6.16337">
        <ele>1502.6</ele>
        <time>2020-09-05T07:37:49Z</time>
      </trkpt>
      <trkpt lat="45.09339" lon="6.16338">
        <ele>1502.6</ele>
        <time>2020-09-05T07:37:50Z</time>
      </trkpt>
      <trkpt lat="45.09341" lon="6.16338">
        <ele>1502.6</ele>
        <time>2020-09-05T07:37:51Z</time>
      </trkpt>
      <trkpt lat="45.09343" lon="6.16339">
        <ele>1503</ele>
        <time>2020-09-05T07:37:52Z</time>
      </trkpt>
      <trkpt lat="45.09346" lon="6.1634">
        <ele>1503.2</ele>
        <time>2020-09-05T07:37:53Z</time>
      </trkpt>
      <trkpt lat="45.09348" lon="6.1634">
        <ele>1503.4</ele>
        <time>2020-09-05T07:37:54Z</time>
      </trkpt>
      <trkpt lat="45.0935" lon="6.16341">
        <ele>1503.8</ele>
        <time>2020-09-05T07:37:55Z</time>
      </trkpt>
      <trkpt lat="45.09352" lon="6.16341">
        <ele>1504</ele>
        <time>2020-09-05T07:37:56Z</time>
      </trkpt>
      <trkpt lat="45.09355" lon="6.16342">
        <ele>1504</ele>
        <time>2020-09-05T07:37:57Z</time>
      </trkpt>
      <trkpt lat="45.09357" lon="6.16343">
        <ele>1504.2</ele>
        <time>2020-09-05T07:37:58Z</time>
      </trkpt>
      <trkpt lat="45.0936" lon="6.16344">
        <ele>1504.4</ele>
        <time>2020-09-05T07:37:59Z</time>
      </trkpt>
      <trkpt lat="45.09362" lon="6.16345">
        <ele>1504.6</ele>
        <time>2020-09-05T07:38:00Z</time>
      </trkpt>
      <trkpt lat="45.09364" lon="6.16346">
        <ele>1505</ele>
        <time>2020-09-05T07:38:01Z</time>
      </trkpt>
      <trkpt lat="45.09367" lon="6.16347">
        <ele>1505.2</ele>
        <time>2020-09-05T07:38:02Z</time>
      </trkpt>
      <trkpt lat="45.09369" lon="6.16348">
        <ele>1505.8</ele>
        <time>2020-09-05T07:38:03Z</time>
      </trkpt>
      <trkpt lat="45.09371" lon="6.1635">
        <ele>1506.2</ele>
        <time>2020-09-05T07:38:04Z</time>
      </trkpt>
      <trkpt lat="45.09374" lon="6.16351">
        <ele>1506.2</ele>
        <time>2020-09-05T07:38:05Z</time>
      </trkpt>
      <trkpt lat="45.09376" lon="6.16352">
        <ele>1506.4</ele>
        <time>2020-09-05T07:38:06Z</time>
      </trkpt>
      <trkpt lat="45.09379" lon="6.16353">
        <ele>1506.8</ele>
        <time>2020-09-05T07:38:07Z</time>
      </trkpt>
      <trkpt lat="45.09381" lon="6.16353">
        <ele>1506.8</ele>
        <time>2020-09-05T07:38:08Z</time>
      </trkpt>
      <trkpt lat="45.09384" lon="6.16353">
        <ele>1507</ele>
        <time>2020-09-05T07:38:09Z</time>
      </trkpt>
      <trkpt lat="45.09387" lon="6.16353">
        <ele>1507</ele>
        <time>2020-09-05T07:38:10Z</time>
      </trkpt>
      <trkpt lat="45.0939" lon="6.16353">
        <ele>1507.2</ele>
        <time>2020-09-05T07:38:11Z</time>
      </trkpt>
      <trkpt lat="45.09393" lon="6.16352">
        <ele>1507.4</ele>
        <time>2020-09-05T07:38:12Z</time>
      </trkpt>
      <trkpt lat="45.09396" lon="6.16352">
        <ele>1507.6</ele>
        <time>2020-09-05T07:38:13Z</time>
      </trkpt>
      <trkpt lat="45.09399" lon="6.1635">
        <ele>1507.8</ele>
        <time>2020-09-05T07:38:14Z</time>
      </trkpt>
      <trkpt lat="45.09401" lon="6.16349">
        <ele>1507.8</ele>
        <time>2020-09-05T07:38:15Z</time>
      </trkpt>
      <trkpt lat="45.09404" lon="6.16347">
        <ele>1508</ele>
        <time>2020-09-05T07:38:16Z</time>
      </trkpt>
      <trkpt lat="45.09406" lon="6.16344">
        <ele>1508.2</ele>
        <time>2020-09-05T07:38:17Z</time>
      </trkpt>
      <trkpt lat="45.09409" lon="6.16341">
        <ele>1508.4</ele>
        <time>2020-09-05T07:38:18Z</time>
      </trkpt>
      <trkpt lat="45.09411" lon="6.16339">
        <ele>1508.4</ele>
        <time>2020-09-05T07:38:19Z</time>
      </trkpt>
      <trkpt lat="45.09414" lon="6.16336">
        <ele>1508.6</ele>
        <time>2020-09-05T07:38:20Z</time>
      </trkpt>
      <trkpt lat="45.09416" lon="6.16333">
        <ele>1508.8</ele>
        <time>2020-09-05T07:38:21Z</time>
      </trkpt>
      <trkpt lat="45.09419" lon="6.1633">
        <ele>1508.8</ele>
        <time>2020-09-05T07:38:22Z</time>
      </trkpt>
      <trkpt lat="45.09421" lon="6.16328">
        <ele>1509</ele>
        <time>2020-09-05T07:38:23Z</time>
      </trkpt>
      <trkpt lat="45.09424" lon="6.16325">
        <ele>1509.2</ele>
        <time>2020-09-05T07:38:24Z</time>
      </trkpt>
      <trkpt lat="45.09426" lon="6.16323">
        <ele>1509.2</ele>
        <time>2020-09-05T07:38:25Z</time>
      </trkpt>
      <trkpt lat="45.09429" lon="6.16321">
        <ele>1509.4</ele>
        <time>2020-09-05T07:38:26Z</time>
      </trkpt>
      <trkpt lat="45.09432" lon="6.16319">
        <ele>1509.6</ele>
        <time>2020-09-05T07:38:27Z</time>
      </trkpt>
      <trkpt lat="45.09434" lon="6.16317">
        <ele>1509.8</ele>
        <time>2020-09-05T07:38:28Z</time>
      </trkpt>
      <trkpt lat="45.09437" lon="6.16315">
        <ele>1510</ele>
        <time>2020-09-05T07:38:29Z</time>
      </trkpt>
      <trkpt lat="45.09439" lon="6.16313">
        <ele>1510.2</ele>
        <time>2020-09-05T07:38:30Z</time>
      </trkpt>
      <trkpt lat="45.09441" lon="6.16311">
        <ele>1510.4</ele>
        <time>2020-09-05T07:38:31Z</time>
      </trkpt>
      <trkpt lat="45.09443" lon="6.1631">
        <ele>1510.8</ele>
        <time>2020-09-05T07:38:32Z</time>
      </trkpt>
      <trkpt lat="45.09446" lon="6.16309">
        <ele>1511</ele>
        <time>2020-09-05T07:38:33Z</time>
      </trkpt>
      <trkpt lat="45.09448" lon="6.16309">
        <ele>1511.4</ele>
        <time>2020-09-05T07:38:34Z</time>
      </trkpt>
      <trkpt lat="45.09451" lon="6.16308">
        <ele>1511.4</ele>
        <time>2020-09-05T07:38:35Z</time>
      </trkpt>
      <trkpt lat="45.09454" lon="6.16308">
        <ele>1511.6</ele>
        <time>2020-09-05T07:38:36Z</time>
      </trkpt>
      <trkpt lat="45.09456" lon="6.16308">
        <ele>1511.8</ele>
        <time>2020-09-05T07:38:37Z</time>
      </trkpt>
      <trkpt lat="45.09458" lon="6.16308">
        <ele>1512</ele>
        <time>2020-09-05T07:38:38Z</time>
      </trkpt>
      <trkpt lat="45.09461" lon="6.16307">
        <ele>1512.2</ele>
        <time>2020-09-05T07:38:39Z</time>
      </trkpt>
      <trkpt lat="45.09463" lon="6.16307">
        <ele>1512.6</ele>
        <time>2020-09-05T07:38:40Z</time>
      </trkpt>
      <trkpt lat="45.09465" lon="6.16307">
        <ele>1513</ele>
        <time>2020-09-05T07:38:41Z</time>
      </trkpt>
      <trkpt lat="45.09468" lon="6.16307">
        <ele>1513.2</ele>
        <time>2020-09-05T07:38:42Z</time>
      </trkpt>
      <trkpt lat="45.0947" lon="6.16307">
        <ele>1513.4</ele>
        <time>2020-09-05T07:38:43Z</time>
      </trkpt>
      <trkpt lat="45.09472" lon="6.16308">
        <ele>1513.8</ele>
        <time>2020-09-05T07:38:44Z</time>
      </trkpt>
      <trkpt lat="45.09475" lon="6.16308">
        <ele>1513.8</ele>
        <time>2020-09-05T07:38:45Z</time>
      </trkpt>
      <trkpt lat="45.09477" lon="6.16309">
        <ele>1514.2</ele>
        <time>2020-09-05T07:38:46Z</time>
      </trkpt>
      <trkpt lat="45.09479" lon="6.1631">
        <ele>1514.2</ele>
        <time>2020-09-05T07:38:47Z</time>
      </trkpt>
      <trkpt lat="45.09482" lon="6.16311">
        <ele>1514.6</ele>
        <time>2020-09-05T07:38:48Z</time>
      </trkpt>
      <trkpt lat="45.09484" lon="6.16312">
        <ele>1514.6</ele>
        <time>2020-09-05T07:38:49Z</time>
      </trkpt>
      <trkpt lat="45.09486" lon="6.16312">
        <ele>1515</ele>
        <time>2020-09-05T07:38:50Z</time>
      </trkpt>
      <trkpt lat="45.09489" lon="6.16313">
        <ele>1515.4</ele>
        <time>2020-09-05T07:38:51Z</time>
      </trkpt>
      <trkpt lat="45.09491" lon="6.16313">
        <ele>1515.8</ele>
        <time>2020-09-05T07:38:52Z</time>
      </trkpt>
      <trkpt lat="45.09493" lon="6.16314">
        <ele>1516</ele>
        <time>2020-09-05T07:38:53Z</time>
      </trkpt>
      <trkpt lat="45.09496" lon="6.16314">
        <ele>1516.2</ele>
        <time>2020-09-05T07:38:54Z</time>
      </trkpt>
      <trkpt lat="45.09498" lon="6.16315">
        <ele>1516.4</ele>
        <time>2020-09-05T07:38:55Z</time>
      </trkpt>
      <trkpt lat="45.09501" lon="6.16315">
        <ele>1516.6</ele>
        <time>2020-09-05T07:38:56Z</time>
      </trkpt>
      <trkpt lat="45.09503" lon="6.16315">
        <ele>1516.8</ele>
        <time>2020-09-05T07:38:57Z</time>
      </trkpt>
      <trkpt lat="45.09505" lon="6.16316">
        <ele>1517</ele>
        <time>2020-09-05T07:38:58Z</time>
      </trkpt>
      <trkpt lat="45.09507" lon="6.16316">
        <ele>1517.4</ele>
        <time>2020-09-05T07:38:59Z</time>
      </trkpt>
      <trkpt lat="45.09509" lon="6.16316">
        <ele>1517.4</ele>
        <time>2020-09-05T07:39:00Z</time>
      </trkpt>
      <trkpt lat="45.09512" lon="6.16317">
        <ele>1518</ele>
        <time>2020-09-05T07:39:02Z</time>
      </trkpt>
      <trkpt lat="45.09515" lon="6.16317">
        <ele>1518.2</ele>
        <time>2020-09-05T07:39:04Z</time>
      </trkpt>
      <trkpt lat="45.09518" lon="6.16318">
        <ele>1518.4</ele>
        <time>2020-09-05T07:39:06Z</time>
      </trkpt>
      <trkpt lat="45.09522" lon="6.16318">
        <ele>1518.6</ele>
        <time>2020-09-05T07:39:08Z</time>
      </trkpt>
      <trkpt lat="45.09524" lon="6.16318">
        <ele>1518.8</ele>
        <time>2020-09-05T07:39:09Z</time>
      </trkpt>
      <trkpt lat="45.09526" lon="6.16319">
        <ele>1519.2</ele>
        <time>2020-09-05T07:39:10Z</time>
      </trkpt>
      <trkpt lat="45.09528" lon="6.16319">
        <ele>1519.4</ele>
        <time>2020-09-05T07:39:11Z</time>
      </trkpt>
      <trkpt lat="45.0953" lon="6.16319">
        <ele>1519.4</ele>
        <time>2020-09-05T07:39:12Z</time>
      </trkpt>
      <trkpt lat="45.09532" lon="6.1632">
        <ele>1519.6</ele>
        <time>2020-09-05T07:39:13Z</time>
      </trkpt>
      <trkpt lat="45.09534" lon="6.1632">
        <ele>1519.8</ele>
        <time>2020-09-05T07:39:14Z</time>
      </trkpt>
      <trkpt lat="45.09537" lon="6.1632">
        <ele>1520</ele>
        <time>2020-09-05T07:39:16Z</time>
      </trkpt>
      <trkpt lat="45.0954" lon="6.16321">
        <ele>1520.6</ele>
        <time>2020-09-05T07:39:18Z</time>
      </trkpt>
      <trkpt lat="45.09543" lon="6.16322">
        <ele>1521</ele>
        <time>2020-09-05T07:39:20Z</time>
      </trkpt>
      <trkpt lat="45.09545" lon="6.16322">
        <ele>1521.2</ele>
        <time>2020-09-05T07:39:21Z</time>
      </trkpt>
      <trkpt lat="45.09548" lon="6.16322">
        <ele>1521.4</ele>
        <time>2020-09-05T07:39:22Z</time>
      </trkpt>
      <trkpt lat="45.0955" lon="6.16322">
        <ele>1521.4</ele>
        <time>2020-09-05T07:39:23Z</time>
      </trkpt>
      <trkpt lat="45.09553" lon="6.16323">
        <ele>1521.6</ele>
        <time>2020-09-05T07:39:24Z</time>
      </trkpt>
      <trkpt lat="45.09555" lon="6.16323">
        <ele>1521.6</ele>
        <time>2020-09-05T07:39:25Z</time>
      </trkpt>
      <trkpt lat="45.09558" lon="6.16323">
        <ele>1521.8</ele>
        <time>2020-09-05T07:39:26Z</time>
      </trkpt>
      <trkpt lat="45.09561" lon="6.16323">
        <ele>1522</ele>
        <time>2020-09-05T07:39:27Z</time>
      </trkpt>
      <trkpt lat="45.09563" lon="6.16324">
        <ele>1522.4</ele>
        <time>2020-09-05T07:39:28Z</time>
      </trkpt>
      <trkpt lat="45.09566" lon="6.16324">
        <ele>1522.6</ele>
        <time>2020-09-05T07:39:29Z</time>
      </trkpt>
      <trkpt lat="45.09568" lon="6.16325">
        <ele>1522.8</ele>
        <time>2020-09-05T07:39:30Z</time>
      </trkpt>
      <trkpt lat="45.09571" lon="6.16326">
        <ele>1523</ele>
        <time>2020-09-05T07:39:31Z</time>
      </trkpt>
      <trkpt lat="45.09573" lon="6.16327">
        <ele>1523.2</ele>
        <time>2020-09-05T07:39:32Z</time>
      </trkpt>
      <trkpt lat="45.09576" lon="6.16327">
        <ele>1523.6</ele>
        <time>2020-09-05T07:39:33Z</time>
      </trkpt>
      <trkpt lat="45.09579" lon="6.16328">
        <ele>1523.6</ele>
        <time>2020-09-05T07:39:34Z</time>
      </trkpt>
      <trkpt lat="45.09581" lon="6.16328">
        <ele>1523.6</ele>
        <time>2020-09-05T07:39:35Z</time>
      </trkpt>
      <trkpt lat="45.09583" lon="6.16329">
        <ele>1524</ele>
        <time>2020-09-05T07:39:36Z</time>
      </trkpt>
      <trkpt lat="45.09586" lon="6.1633">
        <ele>1524.4</ele>
        <time>2020-09-05T07:39:37Z</time>
      </trkpt>
      <trkpt lat="45.09588" lon="6.16331">
        <ele>1524.4</ele>
        <time>2020-09-05T07:39:38Z</time>
      </trkpt>
      <trkpt lat="45.0959" lon="6.16333">
        <ele>1524.8</ele>
        <time>2020-09-05T07:39:39Z</time>
      </trkpt>
      <trkpt lat="45.09592" lon="6.16335">
        <ele>1525</ele>
        <time>2020-09-05T07:39:40Z</time>
      </trkpt>
      <trkpt lat="45.09594" lon="6.16336">
        <ele>1525.2</ele>
        <time>2020-09-05T07:39:41Z</time>
      </trkpt>
      <trkpt lat="45.09597" lon="6.16337">
        <ele>1525.4</ele>
        <time>2020-09-05T07:39:42Z</time>
      </trkpt>
      <trkpt lat="45.09599" lon="6.16339">
        <ele>1525.8</ele>
        <time>2020-09-05T07:39:43Z</time>
      </trkpt>
      <trkpt lat="45.09601" lon="6.16341">
        <ele>1526</ele>
        <time>2020-09-05T07:39:44Z</time>
      </trkpt>
      <trkpt lat="45.09603" lon="6.16342">
        <ele>1526.2</ele>
        <time>2020-09-05T07:39:45Z</time>
      </trkpt>
      <trkpt lat="45.09606" lon="6.16343">
        <ele>1526.4</ele>
        <time>2020-09-05T07:39:46Z</time>
      </trkpt>
      <trkpt lat="45.09608" lon="6.16345">
        <ele>1526.6</ele>
        <time>2020-09-05T07:39:47Z</time>
      </trkpt>
      <trkpt lat="45.09609" lon="6.16347">
        <ele>1526.8</ele>
        <time>2020-09-05T07:39:48Z</time>
      </trkpt>
      <trkpt lat="45.09611" lon="6.16348">
        <ele>1527</ele>
        <time>2020-09-05T07:39:49Z</time>
      </trkpt>
      <trkpt lat="45.09613" lon="6.16349">
        <ele>1527.6</ele>
        <time>2020-09-05T07:39:50Z</time>
      </trkpt>
      <trkpt lat="45.09615" lon="6.1635">
        <ele>1527.6</ele>
        <time>2020-09-05T07:39:51Z</time>
      </trkpt>
      <trkpt lat="45.09617" lon="6.16351">
        <ele>1527.6</ele>
        <time>2020-09-05T07:39:52Z</time>
      </trkpt>
      <trkpt lat="45.09619" lon="6.16353">
        <ele>1527.8</ele>
        <time>2020-09-05T07:39:53Z</time>
      </trkpt>
      <trkpt lat="45.09621" lon="6.16354">
        <ele>1527.8</ele>
        <time>2020-09-05T07:39:54Z</time>
      </trkpt>
      <trkpt lat="45.09623" lon="6.16355">
        <ele>1528</ele>
        <time>2020-09-05T07:39:55Z</time>
      </trkpt>
      <trkpt lat="45.09625" lon="6.16357">
        <ele>1528.2</ele>
        <time>2020-09-05T07:39:56Z</time>
      </trkpt>
      <trkpt lat="45.09627" lon="6.16359">
        <ele>1528.4</ele>
        <time>2020-09-05T07:39:57Z</time>
      </trkpt>
      <trkpt lat="45.09629" lon="6.16361">
        <ele>1528.4</ele>
        <time>2020-09-05T07:39:58Z</time>
      </trkpt>
      <trkpt lat="45.0963" lon="6.16362">
        <ele>1528.6</ele>
        <time>2020-09-05T07:39:59Z</time>
      </trkpt>
      <trkpt lat="45.09632" lon="6.16364">
        <ele>1529</ele>
        <time>2020-09-05T07:40:00Z</time>
      </trkpt>
      <trkpt lat="45.09634" lon="6.16366">
        <ele>1529</ele>
        <time>2020-09-05T07:40:01Z</time>
      </trkpt>
      <trkpt lat="45.09636" lon="6.16368">
        <ele>1529.2</ele>
        <time>2020-09-05T07:40:02Z</time>
      </trkpt>
      <trkpt lat="45.09637" lon="6.16371">
        <ele>1529.6</ele>
        <time>2020-09-05T07:40:03Z</time>
      </trkpt>
      <trkpt lat="45.09639" lon="6.16374">
        <ele>1529.8</ele>
        <time>2020-09-05T07:40:04Z</time>
      </trkpt>
      <trkpt lat="45.09641" lon="6.16376">
        <ele>1529.8</ele>
        <time>2020-09-05T07:40:05Z</time>
      </trkpt>
      <trkpt lat="45.09642" lon="6.16378">
        <ele>1530.2</ele>
        <time>2020-09-05T07:40:06Z</time>
      </trkpt>
      <trkpt lat="45.09644" lon="6.16381">
        <ele>1530.4</ele>
        <time>2020-09-05T07:40:07Z</time>
      </trkpt>
      <trkpt lat="45.09646" lon="6.16383">
        <ele>1530.6</ele>
        <time>2020-09-05T07:40:08Z</time>
      </trkpt>
      <trkpt lat="45.09647" lon="6.16386">
        <ele>1530.6</ele>
        <time>2020-09-05T07:40:09Z</time>
      </trkpt>
      <trkpt lat="45.09648" lon="6.16389">
        <ele>1531</ele>
        <time>2020-09-05T07:40:10Z</time>
      </trkpt>
      <trkpt lat="45.0965" lon="6.16391">
        <ele>1531.2</ele>
        <time>2020-09-05T07:40:11Z</time>
      </trkpt>
      <trkpt lat="45.09652" lon="6.16394">
        <ele>1531.4</ele>
        <time>2020-09-05T07:40:12Z</time>
      </trkpt>
      <trkpt lat="45.09653" lon="6.16397">
        <ele>1531.6</ele>
        <time>2020-09-05T07:40:13Z</time>
      </trkpt>
      <trkpt lat="45.09655" lon="6.16399">
        <ele>1531.8</ele>
        <time>2020-09-05T07:40:14Z</time>
      </trkpt>
      <trkpt lat="45.09657" lon="6.16402">
        <ele>1532.2</ele>
        <time>2020-09-05T07:40:15Z</time>
      </trkpt>
      <trkpt lat="45.09659" lon="6.16404">
        <ele>1532.4</ele>
        <time>2020-09-05T07:40:16Z</time>
      </trkpt>
      <trkpt lat="45.09661" lon="6.16405">
        <ele>1532.6</ele>
        <time>2020-09-05T07:40:17Z</time>
      </trkpt>
      <trkpt lat="45.09663" lon="6.16406">
        <ele>1533</ele>
        <time>2020-09-05T07:40:18Z</time>
      </trkpt>
      <trkpt lat="45.09665" lon="6.16407">
        <ele>1532.8</ele>
        <time>2020-09-05T07:40:19Z</time>
      </trkpt>
      <trkpt lat="45.09668" lon="6.16407">
        <ele>1533</ele>
        <time>2020-09-05T07:40:20Z</time>
      </trkpt>
      <trkpt lat="45.0967" lon="6.16407">
        <ele>1533.2</ele>
        <time>2020-09-05T07:40:21Z</time>
      </trkpt>
      <trkpt lat="45.09672" lon="6.16406">
        <ele>1533.2</ele>
        <time>2020-09-05T07:40:22Z</time>
      </trkpt>
      <trkpt lat="45.09674" lon="6.16405">
        <ele>1533.2</ele>
        <time>2020-09-05T07:40:23Z</time>
      </trkpt>
      <trkpt lat="45.09676" lon="6.16404">
        <ele>1533.6</ele>
        <time>2020-09-05T07:40:24Z</time>
      </trkpt>
      <trkpt lat="45.09679" lon="6.16402">
        <ele>1533.8</ele>
        <time>2020-09-05T07:40:25Z</time>
      </trkpt>
      <trkpt lat="45.09681" lon="6.164">
        <ele>1534</ele>
        <time>2020-09-05T07:40:26Z</time>
      </trkpt>
      <trkpt lat="45.09683" lon="6.16398">
        <ele>1534.2</ele>
        <time>2020-09-05T07:40:27Z</time>
      </trkpt>
      <trkpt lat="45.09685" lon="6.16397">
        <ele>1534.2</ele>
        <time>2020-09-05T07:40:28Z</time>
      </trkpt>
      <trkpt lat="45.09687" lon="6.16396">
        <ele>1534.4</ele>
        <time>2020-09-05T07:40:29Z</time>
      </trkpt>
      <trkpt lat="45.09689" lon="6.16395">
        <ele>1534.4</ele>
        <time>2020-09-05T07:40:30Z</time>
      </trkpt>
      <trkpt lat="45.09691" lon="6.16393">
        <ele>1534.8</ele>
        <time>2020-09-05T07:40:31Z</time>
      </trkpt>
      <trkpt lat="45.09693" lon="6.16391">
        <ele>1535</ele>
        <time>2020-09-05T07:40:32Z</time>
      </trkpt>
      <trkpt lat="45.09695" lon="6.16388">
        <ele>1535.2</ele>
        <time>2020-09-05T07:40:33Z</time>
      </trkpt>
      <trkpt lat="45.09697" lon="6.16386">
        <ele>1535.4</ele>
        <time>2020-09-05T07:40:34Z</time>
      </trkpt>
      <trkpt lat="45.09699" lon="6.16384">
        <ele>1535.4</ele>
        <time>2020-09-05T07:40:35Z</time>
      </trkpt>
      <trkpt lat="45.09701" lon="6.16383">
        <ele>1535.6</ele>
        <time>2020-09-05T07:40:36Z</time>
      </trkpt>
      <trkpt lat="45.09704" lon="6.16381">
        <ele>1536</ele>
        <time>2020-09-05T07:40:37Z</time>
      </trkpt>
      <trkpt lat="45.09706" lon="6.1638">
        <ele>1535.8</ele>
        <time>2020-09-05T07:40:38Z</time>
      </trkpt>
      <trkpt lat="45.09709" lon="6.16379">
        <ele>1535.8</ele>
        <time>2020-09-05T07:40:39Z</time>
      </trkpt>
      <trkpt lat="45.09711" lon="6.16377">
        <ele>1536</ele>
        <time>2020-09-05T07:40:40Z</time>
      </trkpt>
      <trkpt lat="45.09714" lon="6.16376">
        <ele>1536.2</ele>
        <time>2020-09-05T07:40:41Z</time>
      </trkpt>
      <trkpt lat="45.09716" lon="6.16376">
        <ele>1536.4</ele>
        <time>2020-09-05T07:40:42Z</time>
      </trkpt>
      <trkpt lat="45.09719" lon="6.16375">
        <ele>1536.8</ele>
        <time>2020-09-05T07:40:43Z</time>
      </trkpt>
      <trkpt lat="45.09721" lon="6.16376">
        <ele>1536.8</ele>
        <time>2020-09-05T07:40:44Z</time>
      </trkpt>
      <trkpt lat="45.09724" lon="6.16376">
        <ele>1536.8</ele>
        <time>2020-09-05T07:40:45Z</time>
      </trkpt>
      <trkpt lat="45.09726" lon="6.16377">
        <ele>1537</ele>
        <time>2020-09-05T07:40:46Z</time>
      </trkpt>
      <trkpt lat="45.09728" lon="6.16378">
        <ele>1537.2</ele>
        <time>2020-09-05T07:40:47Z</time>
      </trkpt>
      <trkpt lat="45.0973" lon="6.1638">
        <ele>1537.6</ele>
        <time>2020-09-05T07:40:48Z</time>
      </trkpt>
      <trkpt lat="45.09732" lon="6.16382">
        <ele>1537.8</ele>
        <time>2020-09-05T07:40:49Z</time>
      </trkpt>
      <trkpt lat="45.09734" lon="6.16384">
        <ele>1538.2</ele>
        <time>2020-09-05T07:40:50Z</time>
      </trkpt>
      <trkpt lat="45.09736" lon="6.16387">
        <ele>1538.6</ele>
        <time>2020-09-05T07:40:51Z</time>
      </trkpt>
      <trkpt lat="45.09738" lon="6.16389">
        <ele>1538.8</ele>
        <time>2020-09-05T07:40:52Z</time>
      </trkpt>
      <trkpt lat="45.0974" lon="6.16392">
        <ele>1539</ele>
        <time>2020-09-05T07:40:53Z</time>
      </trkpt>
      <trkpt lat="45.09741" lon="6.16396">
        <ele>1539.4</ele>
        <time>2020-09-05T07:40:54Z</time>
      </trkpt>
      <trkpt lat="45.09743" lon="6.16399">
        <ele>1539.6</ele>
        <time>2020-09-05T07:40:55Z</time>
      </trkpt>
      <trkpt lat="45.09745" lon="6.16402">
        <ele>1539.8</ele>
        <time>2020-09-05T07:40:56Z</time>
      </trkpt>
      <trkpt lat="45.09746" lon="6.16405">
        <ele>1539.8</ele>
        <time>2020-09-05T07:40:57Z</time>
      </trkpt>
      <trkpt lat="45.09748" lon="6.16408">
        <ele>1540</ele>
        <time>2020-09-05T07:40:58Z</time>
      </trkpt>
      <trkpt lat="45.09749" lon="6.16411">
        <ele>1540.4</ele>
        <time>2020-09-05T07:40:59Z</time>
      </trkpt>
      <trkpt lat="45.0975" lon="6.16413">
        <ele>1540.4</ele>
        <time>2020-09-05T07:41:00Z</time>
      </trkpt>
      <trkpt lat="45.09752" lon="6.16417">
        <ele>1540.6</ele>
        <time>2020-09-05T07:41:01Z</time>
      </trkpt>
      <trkpt lat="45.09753" lon="6.1642">
        <ele>1540.8</ele>
        <time>2020-09-05T07:41:02Z</time>
      </trkpt>
      <trkpt lat="45.09754" lon="6.16423">
        <ele>1541.2</ele>
        <time>2020-09-05T07:41:03Z</time>
      </trkpt>
      <trkpt lat="45.09756" lon="6.16426">
        <ele>1541.2</ele>
        <time>2020-09-05T07:41:04Z</time>
      </trkpt>
      <trkpt lat="45.09757" lon="6.16428">
        <ele>1541.4</ele>
        <time>2020-09-05T07:41:05Z</time>
      </trkpt>
      <trkpt lat="45.09759" lon="6.1643">
        <ele>1541.8</ele>
        <time>2020-09-05T07:41:06Z</time>
      </trkpt>
      <trkpt lat="45.09762" lon="6.16431">
        <ele>1541.8</ele>
        <time>2020-09-05T07:41:07Z</time>
      </trkpt>
      <trkpt lat="45.09764" lon="6.1643">
        <ele>1542.2</ele>
        <time>2020-09-05T07:41:08Z</time>
      </trkpt>
      <trkpt lat="45.09766" lon="6.16428">
        <ele>1542.4</ele>
        <time>2020-09-05T07:41:09Z</time>
      </trkpt>
      <trkpt lat="45.09768" lon="6.16425">
        <ele>1542.4</ele>
        <time>2020-09-05T07:41:10Z</time>
      </trkpt>
      <trkpt lat="45.09768" lon="6.16422">
        <ele>1542.6</ele>
        <time>2020-09-05T07:41:11Z</time>
      </trkpt>
      <trkpt lat="45.09766" lon="6.16419">
        <ele>1542.6</ele>
        <time>2020-09-05T07:41:12Z</time>
      </trkpt>
      <trkpt lat="45.09764" lon="6.16416">
        <ele>1542.8</ele>
        <time>2020-09-05T07:41:13Z</time>
      </trkpt>
      <trkpt lat="45.09763" lon="6.16413">
        <ele>1543</ele>
        <time>2020-09-05T07:41:14Z</time>
      </trkpt>
      <trkpt lat="45.09761" lon="6.1641">
        <ele>1543.2</ele>
        <time>2020-09-05T07:41:15Z</time>
      </trkpt>
      <trkpt lat="45.0976" lon="6.16406">
        <ele>1543.4</ele>
        <time>2020-09-05T07:41:16Z</time>
      </trkpt>
      <trkpt lat="45.09759" lon="6.16403">
        <ele>1543.8</ele>
        <time>2020-09-05T07:41:17Z</time>
      </trkpt>
      <trkpt lat="45.09758" lon="6.164">
        <ele>1543.8</ele>
        <time>2020-09-05T07:41:18Z</time>
      </trkpt>
      <trkpt lat="45.09757" lon="6.16398">
        <ele>1544</ele>
        <time>2020-09-05T07:41:19Z</time>
      </trkpt>
      <trkpt lat="45.09756" lon="6.16395">
        <ele>1544.2</ele>
        <time>2020-09-05T07:41:20Z</time>
      </trkpt>
      <trkpt lat="45.09755" lon="6.16392">
        <ele>1544.6</ele>
        <time>2020-09-05T07:41:21Z</time>
      </trkpt>
      <trkpt lat="45.09754" lon="6.16389">
        <ele>1544.8</ele>
        <time>2020-09-05T07:41:22Z</time>
      </trkpt>
      <trkpt lat="45.09754" lon="6.16386">
        <ele>1545</ele>
        <time>2020-09-05T07:41:23Z</time>
      </trkpt>
      <trkpt lat="45.09753" lon="6.16382">
        <ele>1545.2</ele>
        <time>2020-09-05T07:41:24Z</time>
      </trkpt>
      <trkpt lat="45.09753" lon="6.16379">
        <ele>1545.4</ele>
        <time>2020-09-05T07:41:25Z</time>
      </trkpt>
      <trkpt lat="45.09752" lon="6.16375">
        <ele>1545.6</ele>
        <time>2020-09-05T07:41:26Z</time>
      </trkpt>
      <trkpt lat="45.09751" lon="6.16372">
        <ele>1546</ele>
        <time>2020-09-05T07:41:27Z</time>
      </trkpt>
      <trkpt lat="45.0975" lon="6.16369">
        <ele>1546</ele>
        <time>2020-09-05T07:41:28Z</time>
      </trkpt>
      <trkpt lat="45.0975" lon="6.16365">
        <ele>1546.2</ele>
        <time>2020-09-05T07:41:29Z</time>
      </trkpt>
      <trkpt lat="45.09749" lon="6.16362">
        <ele>1546</ele>
        <time>2020-09-05T07:41:30Z</time>
      </trkpt>
      <trkpt lat="45.09748" lon="6.16359">
        <ele>1546.2</ele>
        <time>2020-09-05T07:41:31Z</time>
      </trkpt>
      <trkpt lat="45.09747" lon="6.16355">
        <ele>1546.4</ele>
        <time>2020-09-05T07:41:32Z</time>
      </trkpt>
      <trkpt lat="45.09746" lon="6.16352">
        <ele>1546.8</ele>
        <time>2020-09-05T07:41:33Z</time>
      </trkpt>
      <trkpt lat="45.09745" lon="6.16349">
        <ele>1546.8</ele>
        <time>2020-09-05T07:41:34Z</time>
      </trkpt>
      <trkpt lat="45.09744" lon="6.16345">
        <ele>1547</ele>
        <time>2020-09-05T07:41:35Z</time>
      </trkpt>
      <trkpt lat="45.09743" lon="6.16343">
        <ele>1547.2</ele>
        <time>2020-09-05T07:41:36Z</time>
      </trkpt>
      <trkpt lat="45.09741" lon="6.1634">
        <ele>1547.4</ele>
        <time>2020-09-05T07:41:37Z</time>
      </trkpt>
      <trkpt lat="45.0974" lon="6.16337">
        <ele>1547.4</ele>
        <time>2020-09-05T07:41:38Z</time>
      </trkpt>
      <trkpt lat="45.09739" lon="6.16335">
        <ele>1547.6</ele>
        <time>2020-09-05T07:41:39Z</time>
      </trkpt>
      <trkpt lat="45.09738" lon="6.16332">
        <ele>1547.8</ele>
        <time>2020-09-05T07:41:40Z</time>
      </trkpt>
      <trkpt lat="45.09737" lon="6.16329">
        <ele>1548.2</ele>
        <time>2020-09-05T07:41:41Z</time>
      </trkpt>
      <trkpt lat="45.09735" lon="6.16326">
        <ele>1548.2</ele>
        <time>2020-09-05T07:41:42Z</time>
      </trkpt>
      <trkpt lat="45.09734" lon="6.16323">
        <ele>1548.4</ele>
        <time>2020-09-05T07:41:43Z</time>
      </trkpt>
      <trkpt lat="45.09733" lon="6.16319">
        <ele>1548.8</ele>
        <time>2020-09-05T07:41:44Z</time>
      </trkpt>
      <trkpt lat="45.09732" lon="6.16316">
        <ele>1548.8</ele>
        <time>2020-09-05T07:41:45Z</time>
      </trkpt>
      <trkpt lat="45.0973" lon="6.16313">
        <ele>1549</ele>
        <time>2020-09-05T07:41:46Z</time>
      </trkpt>
      <trkpt lat="45.09729" lon="6.16309">
        <ele>1549</ele>
        <time>2020-09-05T07:41:47Z</time>
      </trkpt>
      <trkpt lat="45.09728" lon="6.16306">
        <ele>1549.2</ele>
        <time>2020-09-05T07:41:48Z</time>
      </trkpt>
      <trkpt lat="45.09727" lon="6.16304">
        <ele>1549.6</ele>
        <time>2020-09-05T07:41:49Z</time>
      </trkpt>
      <trkpt lat="45.09725" lon="6.163">
        <ele>1549.6</ele>
        <time>2020-09-05T07:41:50Z</time>
      </trkpt>
      <trkpt lat="45.09723" lon="6.16297">
        <ele>1550</ele>
        <time>2020-09-05T07:41:51Z</time>
      </trkpt>
      <trkpt lat="45.09722" lon="6.16293">
        <ele>1550</ele>
        <time>2020-09-05T07:41:52Z</time>
      </trkpt>
      <trkpt lat="45.0972" lon="6.1629">
        <ele>1550</ele>
        <time>2020-09-05T07:41:53Z</time>
      </trkpt>
      <trkpt lat="45.09719" lon="6.16286">
        <ele>1550</ele>
        <time>2020-09-05T07:41:54Z</time>
      </trkpt>
      <trkpt lat="45.09717" lon="6.16284">
        <ele>1550.4</ele>
        <time>2020-09-05T07:41:55Z</time>
      </trkpt>
      <trkpt lat="45.09715" lon="6.1628">
        <ele>1550.4</ele>
        <time>2020-09-05T07:41:56Z</time>
      </trkpt>
      <trkpt lat="45.09714" lon="6.16277">
        <ele>1550.6</ele>
        <time>2020-09-05T07:41:57Z</time>
      </trkpt>
      <trkpt lat="45.09712" lon="6.16274">
        <ele>1550.8</ele>
        <time>2020-09-05T07:41:58Z</time>
      </trkpt>
      <trkpt lat="45.0971" lon="6.16271">
        <ele>1551</ele>
        <time>2020-09-05T07:41:59Z</time>
      </trkpt>
      <trkpt lat="45.09708" lon="6.16269">
        <ele>1551</ele>
        <time>2020-09-05T07:42:00Z</time>
      </trkpt>
      <trkpt lat="45.09706" lon="6.16266">
        <ele>1551.2</ele>
        <time>2020-09-05T07:42:01Z</time>
      </trkpt>
      <trkpt lat="45.09704" lon="6.16264">
        <ele>1551.6</ele>
        <time>2020-09-05T07:42:02Z</time>
      </trkpt>
      <trkpt lat="45.09702" lon="6.16261">
        <ele>1551.6</ele>
        <time>2020-09-05T07:42:03Z</time>
      </trkpt>
      <trkpt lat="45.097" lon="6.16259">
        <ele>1552</ele>
        <time>2020-09-05T07:42:04Z</time>
      </trkpt>
      <trkpt lat="45.09698" lon="6.16256">
        <ele>1552</ele>
        <time>2020-09-05T07:42:05Z</time>
      </trkpt>
      <trkpt lat="45.09696" lon="6.16254">
        <ele>1552.2</ele>
        <time>2020-09-05T07:42:06Z</time>
      </trkpt>
      <trkpt lat="45.09695" lon="6.1625">
        <ele>1552.8</ele>
        <time>2020-09-05T07:42:07Z</time>
      </trkpt>
      <trkpt lat="45.09696" lon="6.16247">
        <ele>1552.8</ele>
        <time>2020-09-05T07:42:08Z</time>
      </trkpt>
      <trkpt lat="45.09698" lon="6.16245">
        <ele>1553.2</ele>
        <time>2020-09-05T07:42:09Z</time>
      </trkpt>
      <trkpt lat="45.09701" lon="6.16245">
        <ele>1553.4</ele>
        <time>2020-09-05T07:42:10Z</time>
      </trkpt>
      <trkpt lat="45.09703" lon="6.16247">
        <ele>1553.6</ele>
        <time>2020-09-05T07:42:11Z</time>
      </trkpt>
      <trkpt lat="45.09705" lon="6.16249">
        <ele>1553.8</ele>
        <time>2020-09-05T07:42:12Z</time>
      </trkpt>
      <trkpt lat="45.09707" lon="6.16252">
        <ele>1554</ele>
        <time>2020-09-05T07:42:13Z</time>
      </trkpt>
      <trkpt lat="45.09708" lon="6.16255">
        <ele>1554.4</ele>
        <time>2020-09-05T07:42:14Z</time>
      </trkpt>
      <trkpt lat="45.0971" lon="6.16258">
        <ele>1554.6</ele>
        <time>2020-09-05T07:42:15Z</time>
      </trkpt>
      <trkpt lat="45.09711" lon="6.16261">
        <ele>1554.6</ele>
        <time>2020-09-05T07:42:16Z</time>
      </trkpt>
      <trkpt lat="45.09713" lon="6.16263">
        <ele>1555</ele>
        <time>2020-09-05T07:42:17Z</time>
      </trkpt>
      <trkpt lat="45.09715" lon="6.16266">
        <ele>1555.4</ele>
        <time>2020-09-05T07:42:18Z</time>
      </trkpt>
      <trkpt lat="45.09717" lon="6.16268">
        <ele>1555.6</ele>
        <time>2020-09-05T07:42:19Z</time>
      </trkpt>
      <trkpt lat="45.09719" lon="6.1627">
        <ele>1556</ele>
        <time>2020-09-05T07:42:20Z</time>
      </trkpt>
      <trkpt lat="45.09721" lon="6.16273">
        <ele>1556.4</ele>
        <time>2020-09-05T07:42:21Z</time>
      </trkpt>
      <trkpt lat="45.09723" lon="6.16275">
        <ele>1556.6</ele>
        <time>2020-09-05T07:42:22Z</time>
      </trkpt>
      <trkpt lat="45.09725" lon="6.16278">
        <ele>1556.8</ele>
        <time>2020-09-05T07:42:23Z</time>
      </trkpt>
      <trkpt lat="45.09727" lon="6.1628">
        <ele>1556.8</ele>
        <time>2020-09-05T07:42:24Z</time>
      </trkpt>
      <trkpt lat="45.09729" lon="6.16282">
        <ele>1557</ele>
        <time>2020-09-05T07:42:25Z</time>
      </trkpt>
      <trkpt lat="45.09731" lon="6.16285">
        <ele>1557.2</ele>
        <time>2020-09-05T07:42:26Z</time>
      </trkpt>
      <trkpt lat="45.09732" lon="6.16287">
        <ele>1557.4</ele>
        <time>2020-09-05T07:42:27Z</time>
      </trkpt>
      <trkpt lat="45.09734" lon="6.16289">
        <ele>1557.8</ele>
        <time>2020-09-05T07:42:28Z</time>
      </trkpt>
      <trkpt lat="45.09735" lon="6.16291">
        <ele>1558</ele>
        <time>2020-09-05T07:42:29Z</time>
      </trkpt>
      <trkpt lat="45.09737" lon="6.16293">
        <ele>1558</ele>
        <time>2020-09-05T07:42:30Z</time>
      </trkpt>
      <trkpt lat="45.09738" lon="6.16295">
        <ele>1558</ele>
        <time>2020-09-05T07:42:31Z</time>
      </trkpt>
      <trkpt lat="45.09739" lon="6.16297">
        <ele>1558.4</ele>
        <time>2020-09-05T07:42:32Z</time>
      </trkpt>
      <trkpt lat="45.09741" lon="6.16299">
        <ele>1558.8</ele>
        <time>2020-09-05T07:42:33Z</time>
      </trkpt>
      <trkpt lat="45.09742" lon="6.16302">
        <ele>1559</ele>
        <time>2020-09-05T07:42:34Z</time>
      </trkpt>
      <trkpt lat="45.09744" lon="6.16304">
        <ele>1559.2</ele>
        <time>2020-09-05T07:42:35Z</time>
      </trkpt>
      <trkpt lat="45.09745" lon="6.16306">
        <ele>1559.6</ele>
        <time>2020-09-05T07:42:36Z</time>
      </trkpt>
      <trkpt lat="45.09747" lon="6.16309">
        <ele>1559.8</ele>
        <time>2020-09-05T07:42:37Z</time>
      </trkpt>
      <trkpt lat="45.09749" lon="6.16311">
        <ele>1560.2</ele>
        <time>2020-09-05T07:42:38Z</time>
      </trkpt>
      <trkpt lat="45.0975" lon="6.16313">
        <ele>1560.4</ele>
        <time>2020-09-05T07:42:39Z</time>
      </trkpt>
      <trkpt lat="45.09751" lon="6.16316">
        <ele>1560.8</ele>
        <time>2020-09-05T07:42:40Z</time>
      </trkpt>
      <trkpt lat="45.09753" lon="6.16318">
        <ele>1561.2</ele>
        <time>2020-09-05T07:42:41Z</time>
      </trkpt>
      <trkpt lat="45.09755" lon="6.1632">
        <ele>1561.2</ele>
        <time>2020-09-05T07:42:42Z</time>
      </trkpt>
      <trkpt lat="45.09757" lon="6.16322">
        <ele>1561.4</ele>
        <time>2020-09-05T07:42:43Z</time>
      </trkpt>
      <trkpt lat="45.09758" lon="6.16324">
        <ele>1561.6</ele>
        <time>2020-09-05T07:42:44Z</time>
      </trkpt>
      <trkpt lat="45.09761" lon="6.16326">
        <ele>1561.8</ele>
        <time>2020-09-05T07:42:45Z</time>
      </trkpt>
      <trkpt lat="45.09763" lon="6.16328">
        <ele>1561.8</ele>
        <time>2020-09-05T07:42:46Z</time>
      </trkpt>
      <trkpt lat="45.09765" lon="6.1633">
        <ele>1562</ele>
        <time>2020-09-05T07:42:47Z</time>
      </trkpt>
      <trkpt lat="45.09767" lon="6.16332">
        <ele>1562.4</ele>
        <time>2020-09-05T07:42:48Z</time>
      </trkpt>
      <trkpt lat="45.0977" lon="6.16334">
        <ele>1562.8</ele>
        <time>2020-09-05T07:42:49Z</time>
      </trkpt>
      <trkpt lat="45.09772" lon="6.16337">
        <ele>1563.2</ele>
        <time>2020-09-05T07:42:50Z</time>
      </trkpt>
      <trkpt lat="45.09774" lon="6.16339">
        <ele>1563.2</ele>
        <time>2020-09-05T07:42:51Z</time>
      </trkpt>
      <trkpt lat="45.09776" lon="6.16341">
        <ele>1563.4</ele>
        <time>2020-09-05T07:42:52Z</time>
      </trkpt>
      <trkpt lat="45.09778" lon="6.16343">
        <ele>1563.4</ele>
        <time>2020-09-05T07:42:53Z</time>
      </trkpt>
      <trkpt lat="45.0978" lon="6.16345">
        <ele>1563.6</ele>
        <time>2020-09-05T07:42:54Z</time>
      </trkpt>
      <trkpt lat="45.09782" lon="6.16346">
        <ele>1564</ele>
        <time>2020-09-05T07:42:55Z</time>
      </trkpt>
      <trkpt lat="45.09783" lon="6.16348">
        <ele>1564</ele>
        <time>2020-09-05T07:42:56Z</time>
      </trkpt>
      <trkpt lat="45.09785" lon="6.16349">
        <ele>1564.2</ele>
        <time>2020-09-05T07:42:57Z</time>
      </trkpt>
      <trkpt lat="45.09787" lon="6.16351">
        <ele>1564.4</ele>
        <time>2020-09-05T07:42:58Z</time>
      </trkpt>
      <trkpt lat="45.09789" lon="6.16353">
        <ele>1564.4</ele>
        <time>2020-09-05T07:42:59Z</time>
      </trkpt>
      <trkpt lat="45.09791" lon="6.16354">
        <ele>1564.8</ele>
        <time>2020-09-05T07:43:00Z</time>
      </trkpt>
      <trkpt lat="45.09792" lon="6.16354">
        <ele>1564.8</ele>
        <time>2020-09-05T07:43:01Z</time>
      </trkpt>
      <trkpt lat="45.09795" lon="6.16357">
        <ele>1565.2</ele>
        <time>2020-09-05T07:43:03Z</time>
      </trkpt>
      <trkpt lat="45.09796" lon="6.1636">
        <ele>1565.4</ele>
        <time>2020-09-05T07:43:05Z</time>
      </trkpt>
      <trkpt lat="45.09799" lon="6.16363">
        <ele>1565.4</ele>
        <time>2020-09-05T07:43:07Z</time>
      </trkpt>
      <trkpt lat="45.09801" lon="6.16367">
        <ele>1565.8</ele>
        <time>2020-09-05T07:43:09Z</time>
      </trkpt>
      <trkpt lat="45.09802" lon="6.16369">
        <ele>1565.8</ele>
        <time>2020-09-05T07:43:10Z</time>
      </trkpt>
      <trkpt lat="45.09803" lon="6.16372">
        <ele>1565.8</ele>
        <time>2020-09-05T07:43:11Z</time>
      </trkpt>
      <trkpt lat="45.09806" lon="6.16375">
        <ele>1566.4</ele>
        <time>2020-09-05T07:43:13Z</time>
      </trkpt>
      <trkpt lat="45.09808" lon="6.16377">
        <ele>1566.4</ele>
        <time>2020-09-05T07:43:14Z</time>
      </trkpt>
      <trkpt lat="45.0981" lon="6.16379">
        <ele>1566.6</ele>
        <time>2020-09-05T07:43:15Z</time>
      </trkpt>
      <trkpt lat="45.09812" lon="6.16381">
        <ele>1566.8</ele>
        <time>2020-09-05T07:43:16Z</time>
      </trkpt>
      <trkpt lat="45.09813" lon="6.16383">
        <ele>1566.8</ele>
        <time>2020-09-05T07:43:17Z</time>
      </trkpt>
      <trkpt lat="45.09815" lon="6.16384">
        <ele>1567</ele>
        <time>2020-09-05T07:43:18Z</time>
      </trkpt>
      <trkpt lat="45.09817" lon="6.16386">
        <ele>1567.2</ele>
        <time>2020-09-05T07:43:19Z</time>
      </trkpt>
      <trkpt lat="45.09819" lon="6.16388">
        <ele>1567.4</ele>
        <time>2020-09-05T07:43:20Z</time>
      </trkpt>
      <trkpt lat="45.09821" lon="6.16391">
        <ele>1567.6</ele>
        <time>2020-09-05T07:43:21Z</time>
      </trkpt>
      <trkpt lat="45.09823" lon="6.16393">
        <ele>1567.8</ele>
        <time>2020-09-05T07:43:22Z</time>
      </trkpt>
      <trkpt lat="45.09825" lon="6.16395">
        <ele>1567.8</ele>
        <time>2020-09-05T07:43:23Z</time>
      </trkpt>
      <trkpt lat="45.09826" lon="6.16397">
        <ele>1568</ele>
        <time>2020-09-05T07:43:24Z</time>
      </trkpt>
      <trkpt lat="45.09828" lon="6.16399">
        <ele>1568</ele>
        <time>2020-09-05T07:43:25Z</time>
      </trkpt>
      <trkpt lat="45.0983" lon="6.16401">
        <ele>1568.4</ele>
        <time>2020-09-05T07:43:26Z</time>
      </trkpt>
      <trkpt lat="45.09832" lon="6.16403">
        <ele>1568.6</ele>
        <time>2020-09-05T07:43:27Z</time>
      </trkpt>
      <trkpt lat="45.09833" lon="6.16405">
        <ele>1568.8</ele>
        <time>2020-09-05T07:43:28Z</time>
      </trkpt>
      <trkpt lat="45.09835" lon="6.16406">
        <ele>1569</ele>
        <time>2020-09-05T07:43:29Z</time>
      </trkpt>
      <trkpt lat="45.09837" lon="6.16408">
        <ele>1569</ele>
        <time>2020-09-05T07:43:30Z</time>
      </trkpt>
      <trkpt lat="45.09839" lon="6.16409">
        <ele>1569</ele>
        <time>2020-09-05T07:43:31Z</time>
      </trkpt>
      <trkpt lat="45.0984" lon="6.16411">
        <ele>1569.4</ele>
        <time>2020-09-05T07:43:32Z</time>
      </trkpt>
      <trkpt lat="45.09842" lon="6.16413">
        <ele>1569.6</ele>
        <time>2020-09-05T07:43:33Z</time>
      </trkpt>
      <trkpt lat="45.09844" lon="6.16414">
        <ele>1569.8</ele>
        <time>2020-09-05T07:43:34Z</time>
      </trkpt>
      <trkpt lat="45.09846" lon="6.16416">
        <ele>1570</ele>
        <time>2020-09-05T07:43:35Z</time>
      </trkpt>
      <trkpt lat="45.09848" lon="6.16418">
        <ele>1570.2</ele>
        <time>2020-09-05T07:43:36Z</time>
      </trkpt>
      <trkpt lat="45.09849" lon="6.16419">
        <ele>1570.4</ele>
        <time>2020-09-05T07:43:37Z</time>
      </trkpt>
      <trkpt lat="45.09851" lon="6.1642">
        <ele>1570.6</ele>
        <time>2020-09-05T07:43:38Z</time>
      </trkpt>
      <trkpt lat="45.09853" lon="6.16421">
        <ele>1570.8</ele>
        <time>2020-09-05T07:43:39Z</time>
      </trkpt>
      <trkpt lat="45.09855" lon="6.16422">
        <ele>1570.8</ele>
        <time>2020-09-05T07:43:40Z</time>
      </trkpt>
      <trkpt lat="45.09857" lon="6.16424">
        <ele>1570.8</ele>
        <time>2020-09-05T07:43:41Z</time>
      </trkpt>
      <trkpt lat="45.09859" lon="6.16425">
        <ele>1571.2</ele>
        <time>2020-09-05T07:43:42Z</time>
      </trkpt>
      <trkpt lat="45.09861" lon="6.16426">
        <ele>1571.4</ele>
        <time>2020-09-05T07:43:43Z</time>
      </trkpt>
      <trkpt lat="45.09863" lon="6.16427">
        <ele>1571.6</ele>
        <time>2020-09-05T07:43:44Z</time>
      </trkpt>
      <trkpt lat="45.09865" lon="6.16429">
        <ele>1571.8</ele>
        <time>2020-09-05T07:43:45Z</time>
      </trkpt>
      <trkpt lat="45.09866" lon="6.16431">
        <ele>1572</ele>
        <time>2020-09-05T07:43:46Z</time>
      </trkpt>
      <trkpt lat="45.09868" lon="6.16432">
        <ele>1572</ele>
        <time>2020-09-05T07:43:47Z</time>
      </trkpt>
      <trkpt lat="45.0987" lon="6.16434">
        <ele>1572.4</ele>
        <time>2020-09-05T07:43:48Z</time>
      </trkpt>
      <trkpt lat="45.09872" lon="6.16435">
        <ele>1572.6</ele>
        <time>2020-09-05T07:43:49Z</time>
      </trkpt>
      <trkpt lat="45.09874" lon="6.16437">
        <ele>1572.8</ele>
        <time>2020-09-05T07:43:50Z</time>
      </trkpt>
      <trkpt lat="45.09876" lon="6.16439">
        <ele>1573</ele>
        <time>2020-09-05T07:43:51Z</time>
      </trkpt>
      <trkpt lat="45.09877" lon="6.1644">
        <ele>1573.2</ele>
        <time>2020-09-05T07:43:52Z</time>
      </trkpt>
      <trkpt lat="45.09879" lon="6.16442">
        <ele>1573.4</ele>
        <time>2020-09-05T07:43:53Z</time>
      </trkpt>
      <trkpt lat="45.09881" lon="6.16443">
        <ele>1573.8</ele>
        <time>2020-09-05T07:43:54Z</time>
      </trkpt>
      <trkpt lat="45.09883" lon="6.16445">
        <ele>1573.8</ele>
        <time>2020-09-05T07:43:55Z</time>
      </trkpt>
      <trkpt lat="45.09885" lon="6.16446">
        <ele>1574.4</ele>
        <time>2020-09-05T07:43:56Z</time>
      </trkpt>
      <trkpt lat="45.09887" lon="6.16448">
        <ele>1574.6</ele>
        <time>2020-09-05T07:43:57Z</time>
      </trkpt>
      <trkpt lat="45.09889" lon="6.1645">
        <ele>1574.8</ele>
        <time>2020-09-05T07:43:58Z</time>
      </trkpt>
      <trkpt lat="45.09891" lon="6.16451">
        <ele>1574.8</ele>
        <time>2020-09-05T07:43:59Z</time>
      </trkpt>
      <trkpt lat="45.09893" lon="6.16452">
        <ele>1575.2</ele>
        <time>2020-09-05T07:44:00Z</time>
      </trkpt>
      <trkpt lat="45.09895" lon="6.16454">
        <ele>1575.4</ele>
        <time>2020-09-05T07:44:01Z</time>
      </trkpt>
      <trkpt lat="45.09897" lon="6.16455">
        <ele>1575.6</ele>
        <time>2020-09-05T07:44:02Z</time>
      </trkpt>
      <trkpt lat="45.09899" lon="6.16457">
        <ele>1575.6</ele>
        <time>2020-09-05T07:44:03Z</time>
      </trkpt>
      <trkpt lat="45.09901" lon="6.16458">
        <ele>1575.8</ele>
        <time>2020-09-05T07:44:04Z</time>
      </trkpt>
      <trkpt lat="45.09903" lon="6.16459">
        <ele>1576</ele>
        <time>2020-09-05T07:44:05Z</time>
      </trkpt>
      <trkpt lat="45.09905" lon="6.1646">
        <ele>1576.4</ele>
        <time>2020-09-05T07:44:06Z</time>
      </trkpt>
      <trkpt lat="45.09907" lon="6.16461">
        <ele>1576.6</ele>
        <time>2020-09-05T07:44:07Z</time>
      </trkpt>
      <trkpt lat="45.09909" lon="6.16463">
        <ele>1577</ele>
        <time>2020-09-05T07:44:08Z</time>
      </trkpt>
      <trkpt lat="45.09911" lon="6.16464">
        <ele>1577</ele>
        <time>2020-09-05T07:44:09Z</time>
      </trkpt>
      <trkpt lat="45.09913" lon="6.16466">
        <ele>1577.2</ele>
        <time>2020-09-05T07:44:10Z</time>
      </trkpt>
      <trkpt lat="45.09915" lon="6.16467">
        <ele>1577.4</ele>
        <time>2020-09-05T07:44:11Z</time>
      </trkpt>
      <trkpt lat="45.09917" lon="6.16468">
        <ele>1577.6</ele>
        <time>2020-09-05T07:44:12Z</time>
      </trkpt>
      <trkpt lat="45.09919" lon="6.16469">
        <ele>1577.8</ele>
        <time>2020-09-05T07:44:13Z</time>
      </trkpt>
      <trkpt lat="45.09921" lon="6.16471">
        <ele>1577.8</ele>
        <time>2020-09-05T07:44:14Z</time>
      </trkpt>
      <trkpt lat="45.09923" lon="6.16472">
        <ele>1578</ele>
        <time>2020-09-05T07:44:15Z</time>
      </trkpt>
      <trkpt lat="45.09925" lon="6.16473">
        <ele>1578.2</ele>
        <time>2020-09-05T07:44:16Z</time>
      </trkpt>
      <trkpt lat="45.09927" lon="6.16473">
        <ele>1578.4</ele>
        <time>2020-09-05T07:44:17Z</time>
      </trkpt>
      <trkpt lat="45.0993" lon="6.16474">
        <ele>1578.6</ele>
        <time>2020-09-05T07:44:18Z</time>
      </trkpt>
      <trkpt lat="45.09932" lon="6.16474">
        <ele>1578.8</ele>
        <time>2020-09-05T07:44:19Z</time>
      </trkpt>
      <trkpt lat="45.09935" lon="6.16475">
        <ele>1579.2</ele>
        <time>2020-09-05T07:44:20Z</time>
      </trkpt>
      <trkpt lat="45.09937" lon="6.16476">
        <ele>1579.4</ele>
        <time>2020-09-05T07:44:21Z</time>
      </trkpt>
      <trkpt lat="45.0994" lon="6.16476">
        <ele>1579.6</ele>
        <time>2020-09-05T07:44:22Z</time>
      </trkpt>
      <trkpt lat="45.09942" lon="6.16476">
        <ele>1580</ele>
        <time>2020-09-05T07:44:23Z</time>
      </trkpt>
      <trkpt lat="45.09945" lon="6.16476">
        <ele>1580</ele>
        <time>2020-09-05T07:44:24Z</time>
      </trkpt>
      <trkpt lat="45.09947" lon="6.16476">
        <ele>1580.2</ele>
        <time>2020-09-05T07:44:25Z</time>
      </trkpt>
      <trkpt lat="45.0995" lon="6.16476">
        <ele>1580.4</ele>
        <time>2020-09-05T07:44:26Z</time>
      </trkpt>
      <trkpt lat="45.09952" lon="6.16476">
        <ele>1580.6</ele>
        <time>2020-09-05T07:44:27Z</time>
      </trkpt>
      <trkpt lat="45.09955" lon="6.16475">
        <ele>1580.8</ele>
        <time>2020-09-05T07:44:28Z</time>
      </trkpt>
      <trkpt lat="45.09957" lon="6.16475">
        <ele>1581</ele>
        <time>2020-09-05T07:44:29Z</time>
      </trkpt>
      <trkpt lat="45.09959" lon="6.16474">
        <ele>1581.2</ele>
        <time>2020-09-05T07:44:30Z</time>
      </trkpt>
      <trkpt lat="45.09962" lon="6.16473">
        <ele>1581.6</ele>
        <time>2020-09-05T07:44:31Z</time>
      </trkpt>
      <trkpt lat="45.09964" lon="6.16473">
        <ele>1581.6</ele>
        <time>2020-09-05T07:44:32Z</time>
      </trkpt>
      <trkpt lat="45.09967" lon="6.16472">
        <ele>1581.8</ele>
        <time>2020-09-05T07:44:33Z</time>
      </trkpt>
      <trkpt lat="45.09969" lon="6.16472">
        <ele>1582</ele>
        <time>2020-09-05T07:44:34Z</time>
      </trkpt>
      <trkpt lat="45.09971" lon="6.16472">
        <ele>1582.2</ele>
        <time>2020-09-05T07:44:35Z</time>
      </trkpt>
      <trkpt lat="45.09974" lon="6.16472">
        <ele>1582.2</ele>
        <time>2020-09-05T07:44:36Z</time>
      </trkpt>
      <trkpt lat="45.09976" lon="6.16472">
        <ele>1582.4</ele>
        <time>2020-09-05T07:44:37Z</time>
      </trkpt>
      <trkpt lat="45.09978" lon="6.16472">
        <ele>1582.6</ele>
        <time>2020-09-05T07:44:38Z</time>
      </trkpt>
      <trkpt lat="45.0998" lon="6.16472">
        <ele>1583</ele>
        <time>2020-09-05T07:44:39Z</time>
      </trkpt>
      <trkpt lat="45.09982" lon="6.16472">
        <ele>1583</ele>
        <time>2020-09-05T07:44:40Z</time>
      </trkpt>
      <trkpt lat="45.09985" lon="6.16471">
        <ele>1583.4</ele>
        <time>2020-09-05T07:44:41Z</time>
      </trkpt>
      <trkpt lat="45.09987" lon="6.16472">
        <ele>1583.4</ele>
        <time>2020-09-05T07:44:42Z</time>
      </trkpt>
      <trkpt lat="45.09989" lon="6.16472">
        <ele>1583.6</ele>
        <time>2020-09-05T07:44:43Z</time>
      </trkpt>
      <trkpt lat="45.09991" lon="6.16472">
        <ele>1583.8</ele>
        <time>2020-09-05T07:44:44Z</time>
      </trkpt>
      <trkpt lat="45.09994" lon="6.16472">
        <ele>1584</ele>
        <time>2020-09-05T07:44:45Z</time>
      </trkpt>
      <trkpt lat="45.09996" lon="6.16472">
        <ele>1584.4</ele>
        <time>2020-09-05T07:44:46Z</time>
      </trkpt>
      <trkpt lat="45.09998" lon="6.16473">
        <ele>1584.6</ele>
        <time>2020-09-05T07:44:47Z</time>
      </trkpt>
      <trkpt lat="45.1" lon="6.16473">
        <ele>1584.8</ele>
        <time>2020-09-05T07:44:48Z</time>
      </trkpt>
      <trkpt lat="45.10003" lon="6.16473">
        <ele>1585</ele>
        <time>2020-09-05T07:44:49Z</time>
      </trkpt>
      <trkpt lat="45.10005" lon="6.16472">
        <ele>1585.4</ele>
        <time>2020-09-05T07:44:50Z</time>
      </trkpt>
      <trkpt lat="45.10008" lon="6.16472">
        <ele>1585.6</ele>
        <time>2020-09-05T07:44:51Z</time>
      </trkpt>
      <trkpt lat="45.1001" lon="6.16471">
        <ele>1586.2</ele>
        <time>2020-09-05T07:44:52Z</time>
      </trkpt>
      <trkpt lat="45.10012" lon="6.16468">
        <ele>1586.2</ele>
        <time>2020-09-05T07:44:53Z</time>
      </trkpt>
      <trkpt lat="45.10013" lon="6.16465">
        <ele>1586.6</ele>
        <time>2020-09-05T07:44:54Z</time>
      </trkpt>
      <trkpt lat="45.10013" lon="6.16462">
        <ele>1586.8</ele>
        <time>2020-09-05T07:44:55Z</time>
      </trkpt>
      <trkpt lat="45.10013" lon="6.16458">
        <ele>1587</ele>
        <time>2020-09-05T07:44:56Z</time>
      </trkpt>
      <trkpt lat="45.10011" lon="6.16455">
        <ele>1587.2</ele>
        <time>2020-09-05T07:44:57Z</time>
      </trkpt>
      <trkpt lat="45.10009" lon="6.16453">
        <ele>1587.2</ele>
        <time>2020-09-05T07:44:58Z</time>
      </trkpt>
      <trkpt lat="45.10007" lon="6.16452">
        <ele>1587.6</ele>
        <time>2020-09-05T07:44:59Z</time>
      </trkpt>
      <trkpt lat="45.10004" lon="6.1645">
        <ele>1587.8</ele>
        <time>2020-09-05T07:45:00Z</time>
      </trkpt>
      <trkpt lat="45.10001" lon="6.16449">
        <ele>1588</ele>
        <time>2020-09-05T07:45:01Z</time>
      </trkpt>
      <trkpt lat="45.09999" lon="6.16448">
        <ele>1588.2</ele>
        <time>2020-09-05T07:45:02Z</time>
      </trkpt>
      <trkpt lat="45.09996" lon="6.16447">
        <ele>1588.2</ele>
        <time>2020-09-05T07:45:03Z</time>
      </trkpt>
      <trkpt lat="45.09993" lon="6.16446">
        <ele>1588.2</ele>
        <time>2020-09-05T07:45:04Z</time>
      </trkpt>
      <trkpt lat="45.0999" lon="6.16446">
        <ele>1588.4</ele>
        <time>2020-09-05T07:45:05Z</time>
      </trkpt>
      <trkpt lat="45.09987" lon="6.16445">
        <ele>1588.4</ele>
        <time>2020-09-05T07:45:06Z</time>
      </trkpt>
      <trkpt lat="45.09984" lon="6.16445">
        <ele>1588.4</ele>
        <time>2020-09-05T07:45:07Z</time>
      </trkpt>
      <trkpt lat="45.09981" lon="6.16445">
        <ele>1588.6</ele>
        <time>2020-09-05T07:45:08Z</time>
      </trkpt>
      <trkpt lat="45.09978" lon="6.16445">
        <ele>1588.8</ele>
        <time>2020-09-05T07:45:09Z</time>
      </trkpt>
      <trkpt lat="45.09975" lon="6.16445">
        <ele>1589.2</ele>
        <time>2020-09-05T07:45:10Z</time>
      </trkpt>
      <trkpt lat="45.09972" lon="6.16445">
        <ele>1589.4</ele>
        <time>2020-09-05T07:45:11Z</time>
      </trkpt>
      <trkpt lat="45.09969" lon="6.16445">
        <ele>1589.4</ele>
        <time>2020-09-05T07:45:12Z</time>
      </trkpt>
      <trkpt lat="45.09966" lon="6.16445">
        <ele>1589.4</ele>
        <time>2020-09-05T07:45:13Z</time>
      </trkpt>
      <trkpt lat="45.09963" lon="6.16445">
        <ele>1589.8</ele>
        <time>2020-09-05T07:45:14Z</time>
      </trkpt>
      <trkpt lat="45.0996" lon="6.16445">
        <ele>1589.6</ele>
        <time>2020-09-05T07:45:15Z</time>
      </trkpt>
      <trkpt lat="45.09957" lon="6.16445">
        <ele>1589.8</ele>
        <time>2020-09-05T07:45:16Z</time>
      </trkpt>
      <trkpt lat="45.09954" lon="6.16444">
        <ele>1590</ele>
        <time>2020-09-05T07:45:17Z</time>
      </trkpt>
      <trkpt lat="45.09951" lon="6.16444">
        <ele>1590</ele>
        <time>2020-09-05T07:45:18Z</time>
      </trkpt>
      <trkpt lat="45.09948" lon="6.16443">
        <ele>1590</ele>
        <time>2020-09-05T07:45:19Z</time>
      </trkpt>
      <trkpt lat="45.09945" lon="6.16442">
        <ele>1590.4</ele>
        <time>2020-09-05T07:45:20Z</time>
      </trkpt>
      <trkpt lat="45.09941" lon="6.16441">
        <ele>1590.4</ele>
        <time>2020-09-05T07:45:21Z</time>
      </trkpt>
      <trkpt lat="45.09938" lon="6.1644">
        <ele>1590.6</ele>
        <time>2020-09-05T07:45:22Z</time>
      </trkpt>
      <trkpt lat="45.09935" lon="6.16438">
        <ele>1590.8</ele>
        <time>2020-09-05T07:45:23Z</time>
      </trkpt>
      <trkpt lat="45.09932" lon="6.16437">
        <ele>1591</ele>
        <time>2020-09-05T07:45:24Z</time>
      </trkpt>
      <trkpt lat="45.09929" lon="6.16435">
        <ele>1591.2</ele>
        <time>2020-09-05T07:45:25Z</time>
      </trkpt>
      <trkpt lat="45.09926" lon="6.16433">
        <ele>1591.4</ele>
        <time>2020-09-05T07:45:26Z</time>
      </trkpt>
      <trkpt lat="45.09923" lon="6.16431">
        <ele>1591.4</ele>
        <time>2020-09-05T07:45:27Z</time>
      </trkpt>
      <trkpt lat="45.09921" lon="6.16429">
        <ele>1591.8</ele>
        <time>2020-09-05T07:45:28Z</time>
      </trkpt>
      <trkpt lat="45.09918" lon="6.16427">
        <ele>1592</ele>
        <time>2020-09-05T07:45:29Z</time>
      </trkpt>
      <trkpt lat="45.09915" lon="6.16424">
        <ele>1592</ele>
        <time>2020-09-05T07:45:30Z</time>
      </trkpt>
      <trkpt lat="45.09913" lon="6.16422">
        <ele>1592.2</ele>
        <time>2020-09-05T07:45:31Z</time>
      </trkpt>
      <trkpt lat="45.0991" lon="6.16419">
        <ele>1592.4</ele>
        <time>2020-09-05T07:45:32Z</time>
      </trkpt>
      <trkpt lat="45.09908" lon="6.16416">
        <ele>1592.6</ele>
        <time>2020-09-05T07:45:33Z</time>
      </trkpt>
      <trkpt lat="45.09906" lon="6.16413">
        <ele>1593</ele>
        <time>2020-09-05T07:45:34Z</time>
      </trkpt>
      <trkpt lat="45.09905" lon="6.1641">
        <ele>1593.4</ele>
        <time>2020-09-05T07:45:35Z</time>
      </trkpt>
      <trkpt lat="45.09903" lon="6.16406">
        <ele>1593.6</ele>
        <time>2020-09-05T07:45:36Z</time>
      </trkpt>
      <trkpt lat="45.09902" lon="6.16402">
        <ele>1593.8</ele>
        <time>2020-09-05T07:45:37Z</time>
      </trkpt>
      <trkpt lat="45.09902" lon="6.16399">
        <ele>1594</ele>
        <time>2020-09-05T07:45:38Z</time>
      </trkpt>
      <trkpt lat="45.09902" lon="6.16395">
        <ele>1594</ele>
        <time>2020-09-05T07:45:39Z</time>
      </trkpt>
      <trkpt lat="45.09902" lon="6.16391">
        <ele>1594.2</ele>
        <time>2020-09-05T07:45:40Z</time>
      </trkpt>
      <trkpt lat="45.09901" lon="6.16388">
        <ele>1594.4</ele>
        <time>2020-09-05T07:45:41Z</time>
      </trkpt>
      <trkpt lat="45.099" lon="6.16384">
        <ele>1594.6</ele>
        <time>2020-09-05T07:45:42Z</time>
      </trkpt>
      <trkpt lat="45.099" lon="6.16381">
        <ele>1594.8</ele>
        <time>2020-09-05T07:45:43Z</time>
      </trkpt>
      <trkpt lat="45.099" lon="6.16377">
        <ele>1595</ele>
        <time>2020-09-05T07:45:44Z</time>
      </trkpt>
      <trkpt lat="45.09899" lon="6.16374">
        <ele>1595.6</ele>
        <time>2020-09-05T07:45:45Z</time>
      </trkpt>
      <trkpt lat="45.09899" lon="6.1637">
        <ele>1595.8</ele>
        <time>2020-09-05T07:45:46Z</time>
      </trkpt>
      <trkpt lat="45.09899" lon="6.16367">
        <ele>1596</ele>
        <time>2020-09-05T07:45:47Z</time>
      </trkpt>
      <trkpt lat="45.09899" lon="6.16363">
        <ele>1596.2</ele>
        <time>2020-09-05T07:45:48Z</time>
      </trkpt>
      <trkpt lat="45.09898" lon="6.1636">
        <ele>1596.4</ele>
        <time>2020-09-05T07:45:49Z</time>
      </trkpt>
      <trkpt lat="45.09898" lon="6.16356">
        <ele>1596.6</ele>
        <time>2020-09-05T07:45:50Z</time>
      </trkpt>
      <trkpt lat="45.09897" lon="6.16352">
        <ele>1596.8</ele>
        <time>2020-09-05T07:45:51Z</time>
      </trkpt>
      <trkpt lat="45.09896" lon="6.16349">
        <ele>1597</ele>
        <time>2020-09-05T07:45:52Z</time>
      </trkpt>
      <trkpt lat="45.09894" lon="6.16346">
        <ele>1597.4</ele>
        <time>2020-09-05T07:45:53Z</time>
      </trkpt>
      <trkpt lat="45.09892" lon="6.16343">
        <ele>1597.6</ele>
        <time>2020-09-05T07:45:54Z</time>
      </trkpt>
      <trkpt lat="45.09891" lon="6.16341">
        <ele>1598</ele>
        <time>2020-09-05T07:45:55Z</time>
      </trkpt>
      <trkpt lat="45.09889" lon="6.16338">
        <ele>1598.2</ele>
        <time>2020-09-05T07:45:56Z</time>
      </trkpt>
      <trkpt lat="45.09887" lon="6.16336">
        <ele>1598.4</ele>
        <time>2020-09-05T07:45:57Z</time>
      </trkpt>
      <trkpt lat="45.09885" lon="6.16333">
        <ele>1598.8</ele>
        <time>2020-09-05T07:45:58Z</time>
      </trkpt>
      <trkpt lat="45.09883" lon="6.1633">
        <ele>1599</ele>
        <time>2020-09-05T07:45:59Z</time>
      </trkpt>
      <trkpt lat="45.09881" lon="6.16328">
        <ele>1599.2</ele>
        <time>2020-09-05T07:46:00Z</time>
      </trkpt>
      <trkpt lat="45.09879" lon="6.16325">
        <ele>1599.2</ele>
        <time>2020-09-05T07:46:01Z</time>
      </trkpt>
      <trkpt lat="45.09877" lon="6.16323">
        <ele>1599.6</ele>
        <time>2020-09-05T07:46:02Z</time>
      </trkpt>
      <trkpt lat="45.09876" lon="6.1632">
        <ele>1599.8</ele>
        <time>2020-09-05T07:46:03Z</time>
      </trkpt>
      <trkpt lat="45.09874" lon="6.16318">
        <ele>1599.8</ele>
        <time>2020-09-05T07:46:04Z</time>
      </trkpt>
      <trkpt lat="45.09872" lon="6.16315">
        <ele>1600.2</ele>
        <time>2020-09-05T07:46:05Z</time>
      </trkpt>
      <trkpt lat="45.09871" lon="6.16313">
        <ele>1600.4</ele>
        <time>2020-09-05T07:46:06Z</time>
      </trkpt>
      <trkpt lat="45.09869" lon="6.1631">
        <ele>1600.6</ele>
        <time>2020-09-05T07:46:07Z</time>
      </trkpt>
      <trkpt lat="45.09867" lon="6.16307">
        <ele>1601</ele>
        <time>2020-09-05T07:46:08Z</time>
      </trkpt>
      <trkpt lat="45.09866" lon="6.16304">
        <ele>1600.8</ele>
        <time>2020-09-05T07:46:09Z</time>
      </trkpt>
      <trkpt lat="45.09865" lon="6.16302">
        <ele>1601.2</ele>
        <time>2020-09-05T07:46:10Z</time>
      </trkpt>
      <trkpt lat="45.09863" lon="6.16299">
        <ele>1601.4</ele>
        <time>2020-09-05T07:46:11Z</time>
      </trkpt>
      <trkpt lat="45.09862" lon="6.16297">
        <ele>1601.6</ele>
        <time>2020-09-05T07:46:12Z</time>
      </trkpt>
      <trkpt lat="45.0986" lon="6.16295">
        <ele>1601.8</ele>
        <time>2020-09-05T07:46:13Z</time>
      </trkpt>
      <trkpt lat="45.09859" lon="6.16292">
        <ele>1601.8</ele>
        <time>2020-09-05T07:46:14Z</time>
      </trkpt>
      <trkpt lat="45.09857" lon="6.1629">
        <ele>1602.2</ele>
        <time>2020-09-05T07:46:15Z</time>
      </trkpt>
      <trkpt lat="45.09856" lon="6.16287">
        <ele>1602.4</ele>
        <time>2020-09-05T07:46:16Z</time>
      </trkpt>
      <trkpt lat="45.09854" lon="6.16285">
        <ele>1602.8</ele>
        <time>2020-09-05T07:46:17Z</time>
      </trkpt>
      <trkpt lat="45.09853" lon="6.16282">
        <ele>1603</ele>
        <time>2020-09-05T07:46:18Z</time>
      </trkpt>
      <trkpt lat="45.09851" lon="6.16279">
        <ele>1603.4</ele>
        <time>2020-09-05T07:46:19Z</time>
      </trkpt>
      <trkpt lat="45.0985" lon="6.16276">
        <ele>1603.6</ele>
        <time>2020-09-05T07:46:20Z</time>
      </trkpt>
      <trkpt lat="45.09848" lon="6.16273">
        <ele>1604</ele>
        <time>2020-09-05T07:46:21Z</time>
      </trkpt>
      <trkpt lat="45.09847" lon="6.1627">
        <ele>1604.2</ele>
        <time>2020-09-05T07:46:22Z</time>
      </trkpt>
      <trkpt lat="45.09845" lon="6.16267">
        <ele>1604.6</ele>
        <time>2020-09-05T07:46:23Z</time>
      </trkpt>
      <trkpt lat="45.09844" lon="6.16264">
        <ele>1604.8</ele>
        <time>2020-09-05T07:46:24Z</time>
      </trkpt>
      <trkpt lat="45.09842" lon="6.16261">
        <ele>1605.2</ele>
        <time>2020-09-05T07:46:25Z</time>
      </trkpt>
      <trkpt lat="45.09841" lon="6.16258">
        <ele>1605.6</ele>
        <time>2020-09-05T07:46:26Z</time>
      </trkpt>
      <trkpt lat="45.09839" lon="6.16255">
        <ele>1605.6</ele>
        <time>2020-09-05T07:46:27Z</time>
      </trkpt>
      <trkpt lat="45.09838" lon="6.16252">
        <ele>1605.8</ele>
        <time>2020-09-05T07:46:28Z</time>
      </trkpt>
      <trkpt lat="45.09836" lon="6.16249">
        <ele>1606</ele>
        <time>2020-09-05T07:46:29Z</time>
      </trkpt>
      <trkpt lat="45.09835" lon="6.16246">
        <ele>1606.2</ele>
        <time>2020-09-05T07:46:30Z</time>
      </trkpt>
      <trkpt lat="45.09833" lon="6.16243">
        <ele>1606.2</ele>
        <time>2020-09-05T07:46:31Z</time>
      </trkpt>
      <trkpt lat="45.09832" lon="6.1624">
        <ele>1606.8</ele>
        <time>2020-09-05T07:46:32Z</time>
      </trkpt>
      <trkpt lat="45.0983" lon="6.16237">
        <ele>1607</ele>
        <time>2020-09-05T07:46:33Z</time>
      </trkpt>
      <trkpt lat="45.09829" lon="6.16234">
        <ele>1607.4</ele>
        <time>2020-09-05T07:46:34Z</time>
      </trkpt>
      <trkpt lat="45.09828" lon="6.16231">
        <ele>1607.6</ele>
        <time>2020-09-05T07:46:35Z</time>
      </trkpt>
      <trkpt lat="45.09827" lon="6.16229">
        <ele>1607.8</ele>
        <time>2020-09-05T07:46:36Z</time>
      </trkpt>
      <trkpt lat="45.09826" lon="6.16227">
        <ele>1608.2</ele>
        <time>2020-09-05T07:46:37Z</time>
      </trkpt>
      <trkpt lat="45.09826" lon="6.16224">
        <ele>1608.2</ele>
        <time>2020-09-05T07:46:38Z</time>
      </trkpt>
      <trkpt lat="45.09825" lon="6.16222">
        <ele>1608.4</ele>
        <time>2020-09-05T07:46:39Z</time>
      </trkpt>
      <trkpt lat="45.09824" lon="6.16219">
        <ele>1608.6</ele>
        <time>2020-09-05T07:46:40Z</time>
      </trkpt>
      <trkpt lat="45.09823" lon="6.16216">
        <ele>1608.8</ele>
        <time>2020-09-05T07:46:41Z</time>
      </trkpt>
      <trkpt lat="45.09822" lon="6.16213">
        <ele>1609</ele>
        <time>2020-09-05T07:46:42Z</time>
      </trkpt>
      <trkpt lat="45.09822" lon="6.1621">
        <ele>1609.2</ele>
        <time>2020-09-05T07:46:43Z</time>
      </trkpt>
      <trkpt lat="45.09821" lon="6.16206">
        <ele>1609.4</ele>
        <time>2020-09-05T07:46:44Z</time>
      </trkpt>
      <trkpt lat="45.0982" lon="6.16203">
        <ele>1609.4</ele>
        <time>2020-09-05T07:46:45Z</time>
      </trkpt>
      <trkpt lat="45.09819" lon="6.16199">
        <ele>1609.6</ele>
        <time>2020-09-05T07:46:46Z</time>
      </trkpt>
      <trkpt lat="45.09819" lon="6.16196">
        <ele>1609.8</ele>
        <time>2020-09-05T07:46:47Z</time>
      </trkpt>
      <trkpt lat="45.09818" lon="6.16192">
        <ele>1610</ele>
        <time>2020-09-05T07:46:48Z</time>
      </trkpt>
      <trkpt lat="45.09817" lon="6.16189">
        <ele>1610.2</ele>
        <time>2020-09-05T07:46:49Z</time>
      </trkpt>
      <trkpt lat="45.09817" lon="6.16185">
        <ele>1610.4</ele>
        <time>2020-09-05T07:46:50Z</time>
      </trkpt>
      <trkpt lat="45.09816" lon="6.16182">
        <ele>1610.6</ele>
        <time>2020-09-05T07:46:51Z</time>
      </trkpt>
      <trkpt lat="45.09815" lon="6.16179">
        <ele>1610.8</ele>
        <time>2020-09-05T07:46:52Z</time>
      </trkpt>
      <trkpt lat="45.09815" lon="6.16175">
        <ele>1611</ele>
        <time>2020-09-05T07:46:53Z</time>
      </trkpt>
      <trkpt lat="45.09814" lon="6.16172">
        <ele>1611.2</ele>
        <time>2020-09-05T07:46:54Z</time>
      </trkpt>
      <trkpt lat="45.09814" lon="6.16168">
        <ele>1611.4</ele>
        <time>2020-09-05T07:46:55Z</time>
      </trkpt>
      <trkpt lat="45.09813" lon="6.16164">
        <ele>1611.6</ele>
        <time>2020-09-05T07:46:56Z</time>
      </trkpt>
      <trkpt lat="45.09813" lon="6.1616">
        <ele>1612</ele>
        <time>2020-09-05T07:46:57Z</time>
      </trkpt>
      <trkpt lat="45.09812" lon="6.16157">
        <ele>1612</ele>
        <time>2020-09-05T07:46:58Z</time>
      </trkpt>
      <trkpt lat="45.09811" lon="6.16153">
        <ele>1612.2</ele>
        <time>2020-09-05T07:46:59Z</time>
      </trkpt>
      <trkpt lat="45.09809" lon="6.1615">
        <ele>1612.4</ele>
        <time>2020-09-05T07:47:00Z</time>
      </trkpt>
      <trkpt lat="45.09808" lon="6.16146">
        <ele>1612.4</ele>
        <time>2020-09-05T07:47:01Z</time>
      </trkpt>
      <trkpt lat="45.09806" lon="6.16143">
        <ele>1612.6</ele>
        <time>2020-09-05T07:47:02Z</time>
      </trkpt>
      <trkpt lat="45.09805" lon="6.1614">
        <ele>1612.8</ele>
        <time>2020-09-05T07:47:03Z</time>
      </trkpt>
      <trkpt lat="45.09804" lon="6.16137">
        <ele>1612.8</ele>
        <time>2020-09-05T07:47:04Z</time>
      </trkpt>
      <trkpt lat="45.09803" lon="6.16133">
        <ele>1612.8</ele>
        <time>2020-09-05T07:47:05Z</time>
      </trkpt>
      <trkpt lat="45.09803" lon="6.1613">
        <ele>1612.8</ele>
        <time>2020-09-05T07:47:06Z</time>
      </trkpt>
      <trkpt lat="45.09802" lon="6.16126">
        <ele>1613</ele>
        <time>2020-09-05T07:47:07Z</time>
      </trkpt>
      <trkpt lat="45.09802" lon="6.16122">
        <ele>1613</ele>
        <time>2020-09-05T07:47:08Z</time>
      </trkpt>
      <trkpt lat="45.09803" lon="6.16119">
        <ele>1613.2</ele>
        <time>2020-09-05T07:47:09Z</time>
      </trkpt>
      <trkpt lat="45.09805" lon="6.16117">
        <ele>1613.4</ele>
        <time>2020-09-05T07:47:10Z</time>
      </trkpt>
      <trkpt lat="45.09808" lon="6.16116">
        <ele>1613.4</ele>
        <time>2020-09-05T07:47:11Z</time>
      </trkpt>
      <trkpt lat="45.0981" lon="6.16114">
        <ele>1613.6</ele>
        <time>2020-09-05T07:47:12Z</time>
      </trkpt>
      <trkpt lat="45.09812" lon="6.16114">
        <ele>1613.8</ele>
        <time>2020-09-05T07:47:13Z</time>
      </trkpt>
      <trkpt lat="45.09815" lon="6.16116">
        <ele>1614</ele>
        <time>2020-09-05T07:47:14Z</time>
      </trkpt>
      <trkpt lat="45.09817" lon="6.16117">
        <ele>1614.2</ele>
        <time>2020-09-05T07:47:15Z</time>
      </trkpt>
      <trkpt lat="45.09819" lon="6.16119">
        <ele>1614.2</ele>
        <time>2020-09-05T07:47:16Z</time>
      </trkpt>
      <trkpt lat="45.09821" lon="6.16122">
        <ele>1614.4</ele>
        <time>2020-09-05T07:47:17Z</time>
      </trkpt>
      <trkpt lat="45.09823" lon="6.16124">
        <ele>1614.6</ele>
        <time>2020-09-05T07:47:18Z</time>
      </trkpt>
      <trkpt lat="45.09824" lon="6.16128">
        <ele>1615</ele>
        <time>2020-09-05T07:47:19Z</time>
      </trkpt>
      <trkpt lat="45.09824" lon="6.16131">
        <ele>1615</ele>
        <time>2020-09-05T07:47:20Z</time>
      </trkpt>
      <trkpt lat="45.09825" lon="6.16135">
        <ele>1615.4</ele>
        <time>2020-09-05T07:47:21Z</time>
      </trkpt>
      <trkpt lat="45.09825" lon="6.16139">
        <ele>1615.6</ele>
        <time>2020-09-05T07:47:22Z</time>
      </trkpt>
      <trkpt lat="45.09825" lon="6.16142">
        <ele>1615.8</ele>
        <time>2020-09-05T07:47:23Z</time>
      </trkpt>
      <trkpt lat="45.09825" lon="6.16146">
        <ele>1616</ele>
        <time>2020-09-05T07:47:24Z</time>
      </trkpt>
      <trkpt lat="45.09826" lon="6.16149">
        <ele>1616.2</ele>
        <time>2020-09-05T07:47:25Z</time>
      </trkpt>
      <trkpt lat="45.09826" lon="6.16153">
        <ele>1616.6</ele>
        <time>2020-09-05T07:47:26Z</time>
      </trkpt>
      <trkpt lat="45.09827" lon="6.16156">
        <ele>1616.8</ele>
        <time>2020-09-05T07:47:27Z</time>
      </trkpt>
      <trkpt lat="45.09827" lon="6.1616">
        <ele>1617</ele>
        <time>2020-09-05T07:47:28Z</time>
      </trkpt>
      <trkpt lat="45.09828" lon="6.16164">
        <ele>1617</ele>
        <time>2020-09-05T07:47:29Z</time>
      </trkpt>
      <trkpt lat="45.09829" lon="6.16167">
        <ele>1617.4</ele>
        <time>2020-09-05T07:47:30Z</time>
      </trkpt>
      <trkpt lat="45.0983" lon="6.1617">
        <ele>1617.8</ele>
        <time>2020-09-05T07:47:31Z</time>
      </trkpt>
      <trkpt lat="45.09831" lon="6.16174">
        <ele>1618.2</ele>
        <time>2020-09-05T07:47:32Z</time>
      </trkpt>
      <trkpt lat="45.09832" lon="6.16177">
        <ele>1618.4</ele>
        <time>2020-09-05T07:47:33Z</time>
      </trkpt>
      <trkpt lat="45.09834" lon="6.16181">
        <ele>1618.6</ele>
        <time>2020-09-05T07:47:34Z</time>
      </trkpt>
      <trkpt lat="45.09835" lon="6.16184">
        <ele>1618.8</ele>
        <time>2020-09-05T07:47:35Z</time>
      </trkpt>
      <trkpt lat="45.09837" lon="6.16187">
        <ele>1619.2</ele>
        <time>2020-09-05T07:47:36Z</time>
      </trkpt>
      <trkpt lat="45.09838" lon="6.1619">
        <ele>1619.2</ele>
        <time>2020-09-05T07:47:37Z</time>
      </trkpt>
      <trkpt lat="45.0984" lon="6.16192">
        <ele>1619.4</ele>
        <time>2020-09-05T07:47:38Z</time>
      </trkpt>
      <trkpt lat="45.09842" lon="6.16194">
        <ele>1619.6</ele>
        <time>2020-09-05T07:47:39Z</time>
      </trkpt>
      <trkpt lat="45.09844" lon="6.16196">
        <ele>1619.8</ele>
        <time>2020-09-05T07:47:40Z</time>
      </trkpt>
      <trkpt lat="45.09846" lon="6.16198">
        <ele>1620.2</ele>
        <time>2020-09-05T07:47:41Z</time>
      </trkpt>
      <trkpt lat="45.09848" lon="6.162">
        <ele>1620.6</ele>
        <time>2020-09-05T07:47:42Z</time>
      </trkpt>
      <trkpt lat="45.0985" lon="6.16202">
        <ele>1621</ele>
        <time>2020-09-05T07:47:43Z</time>
      </trkpt>
      <trkpt lat="45.09852" lon="6.16204">
        <ele>1621</ele>
        <time>2020-09-05T07:47:44Z</time>
      </trkpt>
      <trkpt lat="45.09854" lon="6.16206">
        <ele>1621.4</ele>
        <time>2020-09-05T07:47:45Z</time>
      </trkpt>
      <trkpt lat="45.09856" lon="6.16208">
        <ele>1621.6</ele>
        <time>2020-09-05T07:47:46Z</time>
      </trkpt>
      <trkpt lat="45.09858" lon="6.1621">
        <ele>1621.8</ele>
        <time>2020-09-05T07:47:47Z</time>
      </trkpt>
      <trkpt lat="45.0986" lon="6.16211">
        <ele>1622</ele>
        <time>2020-09-05T07:47:48Z</time>
      </trkpt>
      <trkpt lat="45.09862" lon="6.16213">
        <ele>1622.4</ele>
        <time>2020-09-05T07:47:49Z</time>
      </trkpt>
      <trkpt lat="45.09864" lon="6.16215">
        <ele>1622.6</ele>
        <time>2020-09-05T07:47:50Z</time>
      </trkpt>
      <trkpt lat="45.09866" lon="6.16216">
        <ele>1622.8</ele>
        <time>2020-09-05T07:47:51Z</time>
      </trkpt>
      <trkpt lat="45.09869" lon="6.16217">
        <ele>1623.2</ele>
        <time>2020-09-05T07:47:52Z</time>
      </trkpt>
      <trkpt lat="45.09871" lon="6.16218">
        <ele>1623.4</ele>
        <time>2020-09-05T07:47:53Z</time>
      </trkpt>
      <trkpt lat="45.09873" lon="6.16219">
        <ele>1623.8</ele>
        <time>2020-09-05T07:47:54Z</time>
      </trkpt>
      <trkpt lat="45.09875" lon="6.1622">
        <ele>1623.8</ele>
        <time>2020-09-05T07:47:55Z</time>
      </trkpt>
      <trkpt lat="45.09877" lon="6.16221">
        <ele>1624.2</ele>
        <time>2020-09-05T07:47:56Z</time>
      </trkpt>
      <trkpt lat="45.09879" lon="6.16221">
        <ele>1624.4</ele>
        <time>2020-09-05T07:47:57Z</time>
      </trkpt>
      <trkpt lat="45.09881" lon="6.16221">
        <ele>1624.8</ele>
        <time>2020-09-05T07:47:58Z</time>
      </trkpt>
      <trkpt lat="45.09883" lon="6.16222">
        <ele>1625</ele>
        <time>2020-09-05T07:47:59Z</time>
      </trkpt>
      <trkpt lat="45.09885" lon="6.16222">
        <ele>1625.2</ele>
        <time>2020-09-05T07:48:00Z</time>
      </trkpt>
      <trkpt lat="45.09887" lon="6.16222">
        <ele>1625.4</ele>
        <time>2020-09-05T07:48:01Z</time>
      </trkpt>
      <trkpt lat="45.09889" lon="6.16222">
        <ele>1625.8</ele>
        <time>2020-09-05T07:48:02Z</time>
      </trkpt>
      <trkpt lat="45.09892" lon="6.16223">
        <ele>1626</ele>
        <time>2020-09-05T07:48:03Z</time>
      </trkpt>
      <trkpt lat="45.09894" lon="6.16222">
        <ele>1626.2</ele>
        <time>2020-09-05T07:48:04Z</time>
      </trkpt>
      <trkpt lat="45.09896" lon="6.16222">
        <ele>1626.4</ele>
        <time>2020-09-05T07:48:05Z</time>
      </trkpt>
      <trkpt lat="45.09899" lon="6.16221">
        <ele>1626.8</ele>
        <time>2020-09-05T07:48:06Z</time>
      </trkpt>
      <trkpt lat="45.09901" lon="6.1622">
        <ele>1627.2</ele>
        <time>2020-09-05T07:48:07Z</time>
      </trkpt>
      <trkpt lat="45.09903" lon="6.16218">
        <ele>1627.6</ele>
        <time>2020-09-05T07:48:08Z</time>
      </trkpt>
      <trkpt lat="45.09905" lon="6.16217">
        <ele>1627.8</ele>
        <time>2020-09-05T07:48:09Z</time>
      </trkpt>
      <trkpt lat="45.09907" lon="6.16216">
        <ele>1628</ele>
        <time>2020-09-05T07:48:10Z</time>
      </trkpt>
      <trkpt lat="45.09909" lon="6.16214">
        <ele>1628.4</ele>
        <time>2020-09-05T07:48:11Z</time>
      </trkpt>
      <trkpt lat="45.09912" lon="6.16213">
        <ele>1628.6</ele>
        <time>2020-09-05T07:48:12Z</time>
      </trkpt>
      <trkpt lat="45.09914" lon="6.16212">
        <ele>1629</ele>
        <time>2020-09-05T07:48:13Z</time>
      </trkpt>
      <trkpt lat="45.09916" lon="6.1621">
        <ele>1629.2</ele>
        <time>2020-09-05T07:48:14Z</time>
      </trkpt>
      <trkpt lat="45.09918" lon="6.16209">
        <ele>1629.6</ele>
        <time>2020-09-05T07:48:15Z</time>
      </trkpt>
      <trkpt lat="45.0992" lon="6.16208">
        <ele>1629.8</ele>
        <time>2020-09-05T07:48:16Z</time>
      </trkpt>
      <trkpt lat="45.09922" lon="6.16206">
        <ele>1630</ele>
        <time>2020-09-05T07:48:17Z</time>
      </trkpt>
      <trkpt lat="45.09924" lon="6.16205">
        <ele>1630.2</ele>
        <time>2020-09-05T07:48:18Z</time>
      </trkpt>
      <trkpt lat="45.09926" lon="6.16204">
        <ele>1630.4</ele>
        <time>2020-09-05T07:48:19Z</time>
      </trkpt>
      <trkpt lat="45.09928" lon="6.16202">
        <ele>1630.6</ele>
        <time>2020-09-05T07:48:20Z</time>
      </trkpt>
      <trkpt lat="45.0993" lon="6.16201">
        <ele>1630.8</ele>
        <time>2020-09-05T07:48:21Z</time>
      </trkpt>
      <trkpt lat="45.09931" lon="6.162">
        <ele>1630.8</ele>
        <time>2020-09-05T07:48:22Z</time>
      </trkpt>
      <trkpt lat="45.09935" lon="6.16198">
        <ele>1631.4</ele>
        <time>2020-09-05T07:48:24Z</time>
      </trkpt>
      <trkpt lat="45.09936" lon="6.16197">
        <ele>1631.8</ele>
        <time>2020-09-05T07:48:25Z</time>
      </trkpt>
      <trkpt lat="45.09938" lon="6.16196">
        <ele>1632.2</ele>
        <time>2020-09-05T07:48:26Z</time>
      </trkpt>
      <trkpt lat="45.0994" lon="6.16195">
        <ele>1632.6</ele>
        <time>2020-09-05T07:48:27Z</time>
      </trkpt>
      <trkpt lat="45.09942" lon="6.16194">
        <ele>1632.6</ele>
        <time>2020-09-05T07:48:28Z</time>
      </trkpt>
      <trkpt lat="45.09943" lon="6.16193">
        <ele>1632.8</ele>
        <time>2020-09-05T07:48:29Z</time>
      </trkpt>
      <trkpt lat="45.09945" lon="6.16192">
        <ele>1633</ele>
        <time>2020-09-05T07:48:30Z</time>
      </trkpt>
      <trkpt lat="45.09947" lon="6.16191">
        <ele>1633.6</ele>
        <time>2020-09-05T07:48:31Z</time>
      </trkpt>
      <trkpt lat="45.09949" lon="6.1619">
        <ele>1633.8</ele>
        <time>2020-09-05T07:48:32Z</time>
      </trkpt>
      <trkpt lat="45.09951" lon="6.16189">
        <ele>1633.8</ele>
        <time>2020-09-05T07:48:33Z</time>
      </trkpt>
      <trkpt lat="45.09953" lon="6.16189">
        <ele>1634</ele>
        <time>2020-09-05T07:48:34Z</time>
      </trkpt>
      <trkpt lat="45.09955" lon="6.16188">
        <ele>1634.4</ele>
        <time>2020-09-05T07:48:35Z</time>
      </trkpt>
      <trkpt lat="45.09957" lon="6.16188">
        <ele>1634.8</ele>
        <time>2020-09-05T07:48:36Z</time>
      </trkpt>
      <trkpt lat="45.09959" lon="6.16188">
        <ele>1635</ele>
        <time>2020-09-05T07:48:37Z</time>
      </trkpt>
      <trkpt lat="45.09961" lon="6.16189">
        <ele>1635.2</ele>
        <time>2020-09-05T07:48:38Z</time>
      </trkpt>
      <trkpt lat="45.09963" lon="6.16189">
        <ele>1635.4</ele>
        <time>2020-09-05T07:48:39Z</time>
      </trkpt>
      <trkpt lat="45.09965" lon="6.16189">
        <ele>1635.6</ele>
        <time>2020-09-05T07:48:40Z</time>
      </trkpt>
      <trkpt lat="45.09967" lon="6.1619">
        <ele>1635.8</ele>
        <time>2020-09-05T07:48:41Z</time>
      </trkpt>
      <trkpt lat="45.09969" lon="6.1619">
        <ele>1636.2</ele>
        <time>2020-09-05T07:48:42Z</time>
      </trkpt>
      <trkpt lat="45.09971" lon="6.1619">
        <ele>1636.4</ele>
        <time>2020-09-05T07:48:43Z</time>
      </trkpt>
      <trkpt lat="45.09974" lon="6.1619">
        <ele>1636.6</ele>
        <time>2020-09-05T07:48:44Z</time>
      </trkpt>
      <trkpt lat="45.09976" lon="6.1619">
        <ele>1637</ele>
        <time>2020-09-05T07:48:45Z</time>
      </trkpt>
      <trkpt lat="45.09978" lon="6.16188">
        <ele>1637.2</ele>
        <time>2020-09-05T07:48:46Z</time>
      </trkpt>
      <trkpt lat="45.0998" lon="6.16187">
        <ele>1637.4</ele>
        <time>2020-09-05T07:48:47Z</time>
      </trkpt>
      <trkpt lat="45.09981" lon="6.16184">
        <ele>1637.6</ele>
        <time>2020-09-05T07:48:48Z</time>
      </trkpt>
      <trkpt lat="45.09982" lon="6.16181">
        <ele>1638</ele>
        <time>2020-09-05T07:48:49Z</time>
      </trkpt>
      <trkpt lat="45.09982" lon="6.16178">
        <ele>1638</ele>
        <time>2020-09-05T07:48:50Z</time>
      </trkpt>
      <trkpt lat="45.09981" lon="6.16176">
        <ele>1638.2</ele>
        <time>2020-09-05T07:48:51Z</time>
      </trkpt>
      <trkpt lat="45.09979" lon="6.16173">
        <ele>1638.6</ele>
        <time>2020-09-05T07:48:52Z</time>
      </trkpt>
      <trkpt lat="45.09978" lon="6.1617">
        <ele>1638.8</ele>
        <time>2020-09-05T07:48:53Z</time>
      </trkpt>
      <trkpt lat="45.09975" lon="6.16169">
        <ele>1638.6</ele>
        <time>2020-09-05T07:48:54Z</time>
      </trkpt>
      <trkpt lat="45.09973" lon="6.16167">
        <ele>1638.8</ele>
        <time>2020-09-05T07:48:55Z</time>
      </trkpt>
      <trkpt lat="45.09971" lon="6.16167">
        <ele>1639.2</ele>
        <time>2020-09-05T07:48:56Z</time>
      </trkpt>
      <trkpt lat="45.09968" lon="6.16166">
        <ele>1639.4</ele>
        <time>2020-09-05T07:48:57Z</time>
      </trkpt>
      <trkpt lat="45.09966" lon="6.16165">
        <ele>1639.6</ele>
        <time>2020-09-05T07:48:58Z</time>
      </trkpt>
      <trkpt lat="45.09963" lon="6.16165">
        <ele>1640</ele>
        <time>2020-09-05T07:48:59Z</time>
      </trkpt>
      <trkpt lat="45.09961" lon="6.16164">
        <ele>1640.2</ele>
        <time>2020-09-05T07:49:00Z</time>
      </trkpt>
      <trkpt lat="45.09959" lon="6.16163">
        <ele>1640.2</ele>
        <time>2020-09-05T07:49:01Z</time>
      </trkpt>
      <trkpt lat="45.09957" lon="6.16162">
        <ele>1640.6</ele>
        <time>2020-09-05T07:49:02Z</time>
      </trkpt>
      <trkpt lat="45.09954" lon="6.16161">
        <ele>1640.8</ele>
        <time>2020-09-05T07:49:03Z</time>
      </trkpt>
      <trkpt lat="45.09952" lon="6.1616">
        <ele>1641</ele>
        <time>2020-09-05T07:49:04Z</time>
      </trkpt>
      <trkpt lat="45.0995" lon="6.16158">
        <ele>1641.2</ele>
        <time>2020-09-05T07:49:05Z</time>
      </trkpt>
      <trkpt lat="45.09948" lon="6.16157">
        <ele>1641.4</ele>
        <time>2020-09-05T07:49:06Z</time>
      </trkpt>
      <trkpt lat="45.09947" lon="6.16155">
        <ele>1641.8</ele>
        <time>2020-09-05T07:49:07Z</time>
      </trkpt>
      <trkpt lat="45.09945" lon="6.16153">
        <ele>1642.2</ele>
        <time>2020-09-05T07:49:08Z</time>
      </trkpt>
      <trkpt lat="45.09943" lon="6.16152">
        <ele>1642.4</ele>
        <time>2020-09-05T07:49:09Z</time>
      </trkpt>
      <trkpt lat="45.09941" lon="6.1615">
        <ele>1642.6</ele>
        <time>2020-09-05T07:49:10Z</time>
      </trkpt>
      <trkpt lat="45.09939" lon="6.16148">
        <ele>1643</ele>
        <time>2020-09-05T07:49:11Z</time>
      </trkpt>
      <trkpt lat="45.09937" lon="6.16146">
        <ele>1643.2</ele>
        <time>2020-09-05T07:49:12Z</time>
      </trkpt>
      <trkpt lat="45.09935" lon="6.16144">
        <ele>1643.4</ele>
        <time>2020-09-05T07:49:13Z</time>
      </trkpt>
      <trkpt lat="45.09934" lon="6.16143">
        <ele>1643.8</ele>
        <time>2020-09-05T07:49:14Z</time>
      </trkpt>
      <trkpt lat="45.09932" lon="6.16141">
        <ele>1643.8</ele>
        <time>2020-09-05T07:49:15Z</time>
      </trkpt>
      <trkpt lat="45.0993" lon="6.16139">
        <ele>1644.2</ele>
        <time>2020-09-05T07:49:16Z</time>
      </trkpt>
      <trkpt lat="45.09928" lon="6.16137">
        <ele>1644.4</ele>
        <time>2020-09-05T07:49:17Z</time>
      </trkpt>
      <trkpt lat="45.09927" lon="6.16134">
        <ele>1644.4</ele>
        <time>2020-09-05T07:49:18Z</time>
      </trkpt>
      <trkpt lat="45.09925" lon="6.16132">
        <ele>1644.6</ele>
        <time>2020-09-05T07:49:19Z</time>
      </trkpt>
      <trkpt lat="45.09923" lon="6.1613">
        <ele>1645</ele>
        <time>2020-09-05T07:49:20Z</time>
      </trkpt>
      <trkpt lat="45.09921" lon="6.16128">
        <ele>1644.8</ele>
        <time>2020-09-05T07:49:21Z</time>
      </trkpt>
      <trkpt lat="45.09919" lon="6.16125">
        <ele>1645</ele>
        <time>2020-09-05T07:49:22Z</time>
      </trkpt>
      <trkpt lat="45.09918" lon="6.16123">
        <ele>1645.4</ele>
        <time>2020-09-05T07:49:23Z</time>
      </trkpt>
      <trkpt lat="45.09916" lon="6.1612">
        <ele>1645.6</ele>
        <time>2020-09-05T07:49:24Z</time>
      </trkpt>
      <trkpt lat="45.09915" lon="6.16118">
        <ele>1646</ele>
        <time>2020-09-05T07:49:25Z</time>
      </trkpt>
      <trkpt lat="45.09913" lon="6.16115">
        <ele>1646.2</ele>
        <time>2020-09-05T07:49:26Z</time>
      </trkpt>
      <trkpt lat="45.09912" lon="6.16112">
        <ele>1646.4</ele>
        <time>2020-09-05T07:49:27Z</time>
      </trkpt>
      <trkpt lat="45.09911" lon="6.1611">
        <ele>1646.8</ele>
        <time>2020-09-05T07:49:28Z</time>
      </trkpt>
      <trkpt lat="45.09909" lon="6.16108">
        <ele>1647</ele>
        <time>2020-09-05T07:49:29Z</time>
      </trkpt>
      <trkpt lat="45.09908" lon="6.16106">
        <ele>1647.2</ele>
        <time>2020-09-05T07:49:30Z</time>
      </trkpt>
      <trkpt lat="45.09906" lon="6.16103">
        <ele>1647.8</ele>
        <time>2020-09-05T07:49:32Z</time>
      </trkpt>
      <trkpt lat="45.09905" lon="6.16106">
        <ele>1648</ele>
        <time>2020-09-05T07:49:34Z</time>
      </trkpt>
      <trkpt lat="45.09907" lon="6.16109">
        <ele>1648</ele>
        <time>2020-09-05T07:49:36Z</time>
      </trkpt>
      <trkpt lat="45.09909" lon="6.16111">
        <ele>1647.8</ele>
        <time>2020-09-05T07:49:38Z</time>
      </trkpt>
      <trkpt lat="45.0991" lon="6.16108">
        <ele>1647.8</ele>
        <time>2020-09-05T07:49:40Z</time>
      </trkpt>
      <trkpt lat="45.09907" lon="6.16105">
        <ele>1647.8</ele>
        <time>2020-09-05T07:49:42Z</time>
      </trkpt>
      <trkpt lat="45.09905" lon="6.16102">
        <ele>1648</ele>
        <time>2020-09-05T07:49:43Z</time>
      </trkpt>
      <trkpt lat="45.09903" lon="6.16099">
        <ele>1648.2</ele>
        <time>2020-09-05T07:49:44Z</time>
      </trkpt>
      <trkpt lat="45.09901" lon="6.16096">
        <ele>1648.8</ele>
        <time>2020-09-05T07:49:45Z</time>
      </trkpt>
      <trkpt lat="45.09899" lon="6.16093">
        <ele>1649</ele>
        <time>2020-09-05T07:49:46Z</time>
      </trkpt>
      <trkpt lat="45.09897" lon="6.1609">
        <ele>1649.4</ele>
        <time>2020-09-05T07:49:47Z</time>
      </trkpt>
      <trkpt lat="45.09895" lon="6.16088">
        <ele>1649.6</ele>
        <time>2020-09-05T07:49:48Z</time>
      </trkpt>
      <trkpt lat="45.09892" lon="6.16086">
        <ele>1649.8</ele>
        <time>2020-09-05T07:49:49Z</time>
      </trkpt>
      <trkpt lat="45.0989" lon="6.16084">
        <ele>1650</ele>
        <time>2020-09-05T07:49:50Z</time>
      </trkpt>
      <trkpt lat="45.09888" lon="6.16083">
        <ele>1650.2</ele>
        <time>2020-09-05T07:49:51Z</time>
      </trkpt>
      <trkpt lat="45.09886" lon="6.16081">
        <ele>1650.8</ele>
        <time>2020-09-05T07:49:52Z</time>
      </trkpt>
      <trkpt lat="45.09883" lon="6.1608">
        <ele>1650.8</ele>
        <time>2020-09-05T07:49:53Z</time>
      </trkpt>
      <trkpt lat="45.09881" lon="6.16079">
        <ele>1650.8</ele>
        <time>2020-09-05T07:49:54Z</time>
      </trkpt>
      <trkpt lat="45.09879" lon="6.16078">
        <ele>1651.2</ele>
        <time>2020-09-05T07:49:55Z</time>
      </trkpt>
      <trkpt lat="45.09876" lon="6.16078">
        <ele>1651.2</ele>
        <time>2020-09-05T07:49:56Z</time>
      </trkpt>
      <trkpt lat="45.09874" lon="6.16077">
        <ele>1651.6</ele>
        <time>2020-09-05T07:49:57Z</time>
      </trkpt>
      <trkpt lat="45.09871" lon="6.16076">
        <ele>1651.6</ele>
        <time>2020-09-05T07:49:58Z</time>
      </trkpt>
      <trkpt lat="45.09869" lon="6.16075">
        <ele>1651.8</ele>
        <time>2020-09-05T07:49:59Z</time>
      </trkpt>
      <trkpt lat="45.09867" lon="6.16073">
        <ele>1652</ele>
        <time>2020-09-05T07:50:00Z</time>
      </trkpt>
      <trkpt lat="45.09864" lon="6.16072">
        <ele>1652.6</ele>
        <time>2020-09-05T07:50:01Z</time>
      </trkpt>
      <trkpt lat="45.09862" lon="6.16071">
        <ele>1652.6</ele>
        <time>2020-09-05T07:50:02Z</time>
      </trkpt>
      <trkpt lat="45.0986" lon="6.16069">
        <ele>1653</ele>
        <time>2020-09-05T07:50:03Z</time>
      </trkpt>
      <trkpt lat="45.09858" lon="6.16068">
        <ele>1653</ele>
        <time>2020-09-05T07:50:04Z</time>
      </trkpt>
      <trkpt lat="45.09855" lon="6.16066">
        <ele>1653.2</ele>
        <time>2020-09-05T07:50:05Z</time>
      </trkpt>
      <trkpt lat="45.09854" lon="6.16063">
        <ele>1653.2</ele>
        <time>2020-09-05T07:50:06Z</time>
      </trkpt>
      <trkpt lat="45.09853" lon="6.1606">
        <ele>1653.4</ele>
        <time>2020-09-05T07:50:07Z</time>
      </trkpt>
      <trkpt lat="45.09853" lon="6.16056">
        <ele>1653.4</ele>
        <time>2020-09-05T07:50:08Z</time>
      </trkpt>
      <trkpt lat="45.09854" lon="6.16053">
        <ele>1653.6</ele>
        <time>2020-09-05T07:50:09Z</time>
      </trkpt>
      <trkpt lat="45.09856" lon="6.1605">
        <ele>1654</ele>
        <time>2020-09-05T07:50:10Z</time>
      </trkpt>
      <trkpt lat="45.09859" lon="6.1605">
        <ele>1654</ele>
        <time>2020-09-05T07:50:11Z</time>
      </trkpt>
      <trkpt lat="45.09862" lon="6.1605">
        <ele>1654.4</ele>
        <time>2020-09-05T07:50:12Z</time>
      </trkpt>
      <trkpt lat="45.09864" lon="6.16052">
        <ele>1654.4</ele>
        <time>2020-09-05T07:50:13Z</time>
      </trkpt>
      <trkpt lat="45.09867" lon="6.16055">
        <ele>1654.6</ele>
        <time>2020-09-05T07:50:14Z</time>
      </trkpt>
      <trkpt lat="45.09869" lon="6.16057">
        <ele>1654.8</ele>
        <time>2020-09-05T07:50:15Z</time>
      </trkpt>
      <trkpt lat="45.09872" lon="6.16059">
        <ele>1655</ele>
        <time>2020-09-05T07:50:16Z</time>
      </trkpt>
      <trkpt lat="45.09874" lon="6.16061">
        <ele>1655.2</ele>
        <time>2020-09-05T07:50:17Z</time>
      </trkpt>
      <trkpt lat="45.09877" lon="6.16063">
        <ele>1655.4</ele>
        <time>2020-09-05T07:50:18Z</time>
      </trkpt>
      <trkpt lat="45.09879" lon="6.16063">
        <ele>1655.6</ele>
        <time>2020-09-05T07:50:19Z</time>
      </trkpt>
      <trkpt lat="45.09882" lon="6.16063">
        <ele>1655.6</ele>
        <time>2020-09-05T07:50:20Z</time>
      </trkpt>
      <trkpt lat="45.09885" lon="6.16063">
        <ele>1656</ele>
        <time>2020-09-05T07:50:21Z</time>
      </trkpt>
      <trkpt lat="45.09888" lon="6.16062">
        <ele>1656.2</ele>
        <time>2020-09-05T07:50:22Z</time>
      </trkpt>
      <trkpt lat="45.0989" lon="6.16061">
        <ele>1656.6</ele>
        <time>2020-09-05T07:50:23Z</time>
      </trkpt>
      <trkpt lat="45.09893" lon="6.1606">
        <ele>1656.8</ele>
        <time>2020-09-05T07:50:24Z</time>
      </trkpt>
      <trkpt lat="45.09895" lon="6.16058">
        <ele>1656.8</ele>
        <time>2020-09-05T07:50:25Z</time>
      </trkpt>
      <trkpt lat="45.09897" lon="6.16057">
        <ele>1656.8</ele>
        <time>2020-09-05T07:50:26Z</time>
      </trkpt>
      <trkpt lat="45.099" lon="6.16056">
        <ele>1657.2</ele>
        <time>2020-09-05T07:50:27Z</time>
      </trkpt>
      <trkpt lat="45.09902" lon="6.16055">
        <ele>1657.4</ele>
        <time>2020-09-05T07:50:28Z</time>
      </trkpt>
      <trkpt lat="45.09904" lon="6.16054">
        <ele>1657.6</ele>
        <time>2020-09-05T07:50:29Z</time>
      </trkpt>
      <trkpt lat="45.09906" lon="6.16053">
        <ele>1658</ele>
        <time>2020-09-05T07:50:30Z</time>
      </trkpt>
      <trkpt lat="45.09908" lon="6.16052">
        <ele>1658.4</ele>
        <time>2020-09-05T07:50:31Z</time>
      </trkpt>
      <trkpt lat="45.09911" lon="6.16051">
        <ele>1658.6</ele>
        <time>2020-09-05T07:50:32Z</time>
      </trkpt>
      <trkpt lat="45.09913" lon="6.1605">
        <ele>1659</ele>
        <time>2020-09-05T07:50:33Z</time>
      </trkpt>
      <trkpt lat="45.09915" lon="6.16049">
        <ele>1659.4</ele>
        <time>2020-09-05T07:50:34Z</time>
      </trkpt>
      <trkpt lat="45.09917" lon="6.16048">
        <ele>1659.6</ele>
        <time>2020-09-05T07:50:35Z</time>
      </trkpt>
      <trkpt lat="45.09919" lon="6.16048">
        <ele>1659.6</ele>
        <time>2020-09-05T07:50:36Z</time>
      </trkpt>
      <trkpt lat="45.09921" lon="6.16048">
        <ele>1659.6</ele>
        <time>2020-09-05T07:50:37Z</time>
      </trkpt>
      <trkpt lat="45.09923" lon="6.16047">
        <ele>1659.8</ele>
        <time>2020-09-05T07:50:38Z</time>
      </trkpt>
      <trkpt lat="45.09925" lon="6.16046">
        <ele>1660</ele>
        <time>2020-09-05T07:50:39Z</time>
      </trkpt>
      <trkpt lat="45.09928" lon="6.16046">
        <ele>1660.4</ele>
        <time>2020-09-05T07:50:40Z</time>
      </trkpt>
      <trkpt lat="45.0993" lon="6.16045">
        <ele>1661</ele>
        <time>2020-09-05T07:50:41Z</time>
      </trkpt>
      <trkpt lat="45.09932" lon="6.16045">
        <ele>1661.4</ele>
        <time>2020-09-05T07:50:42Z</time>
      </trkpt>
      <trkpt lat="45.09935" lon="6.16045">
        <ele>1661.8</ele>
        <time>2020-09-05T07:50:43Z</time>
      </trkpt>
      <trkpt lat="45.09938" lon="6.16045">
        <ele>1662.2</ele>
        <time>2020-09-05T07:50:44Z</time>
      </trkpt>
      <trkpt lat="45.0994" lon="6.16046">
        <ele>1662.6</ele>
        <time>2020-09-05T07:50:45Z</time>
      </trkpt>
      <trkpt lat="45.09943" lon="6.16046">
        <ele>1662.8</ele>
        <time>2020-09-05T07:50:46Z</time>
      </trkpt>
      <trkpt lat="45.09946" lon="6.16047">
        <ele>1663.2</ele>
        <time>2020-09-05T07:50:47Z</time>
      </trkpt>
      <trkpt lat="45.09948" lon="6.16048">
        <ele>1663.4</ele>
        <time>2020-09-05T07:50:48Z</time>
      </trkpt>
      <trkpt lat="45.0995" lon="6.16049">
        <ele>1663.4</ele>
        <time>2020-09-05T07:50:49Z</time>
      </trkpt>
      <trkpt lat="45.09953" lon="6.1605">
        <ele>1663.4</ele>
        <time>2020-09-05T07:50:50Z</time>
      </trkpt>
      <trkpt lat="45.09955" lon="6.1605">
        <ele>1663.6</ele>
        <time>2020-09-05T07:50:51Z</time>
      </trkpt>
      <trkpt lat="45.09957" lon="6.16051">
        <ele>1664</ele>
        <time>2020-09-05T07:50:52Z</time>
      </trkpt>
      <trkpt lat="45.09959" lon="6.16052">
        <ele>1664.2</ele>
        <time>2020-09-05T07:50:53Z</time>
      </trkpt>
      <trkpt lat="45.09962" lon="6.16053">
        <ele>1664.4</ele>
        <time>2020-09-05T07:50:54Z</time>
      </trkpt>
      <trkpt lat="45.09964" lon="6.16054">
        <ele>1664.4</ele>
        <time>2020-09-05T07:50:55Z</time>
      </trkpt>
      <trkpt lat="45.09966" lon="6.16055">
        <ele>1664.8</ele>
        <time>2020-09-05T07:50:56Z</time>
      </trkpt>
      <trkpt lat="45.09969" lon="6.16056">
        <ele>1665</ele>
        <time>2020-09-05T07:50:57Z</time>
      </trkpt>
      <trkpt lat="45.09971" lon="6.16057">
        <ele>1665</ele>
        <time>2020-09-05T07:50:58Z</time>
      </trkpt>
      <trkpt lat="45.09973" lon="6.16059">
        <ele>1665.2</ele>
        <time>2020-09-05T07:50:59Z</time>
      </trkpt>
      <trkpt lat="45.09976" lon="6.1606">
        <ele>1665.4</ele>
        <time>2020-09-05T07:51:00Z</time>
      </trkpt>
      <trkpt lat="45.09978" lon="6.16061">
        <ele>1665.6</ele>
        <time>2020-09-05T07:51:01Z</time>
      </trkpt>
      <trkpt lat="45.0998" lon="6.16063">
        <ele>1665.8</ele>
        <time>2020-09-05T07:51:02Z</time>
      </trkpt>
      <trkpt lat="45.09982" lon="6.16064">
        <ele>1666.2</ele>
        <time>2020-09-05T07:51:03Z</time>
      </trkpt>
      <trkpt lat="45.09985" lon="6.16066">
        <ele>1666.2</ele>
        <time>2020-09-05T07:51:04Z</time>
      </trkpt>
      <trkpt lat="45.09987" lon="6.16067">
        <ele>1666.2</ele>
        <time>2020-09-05T07:51:05Z</time>
      </trkpt>
      <trkpt lat="45.0999" lon="6.16067">
        <ele>1666.4</ele>
        <time>2020-09-05T07:51:06Z</time>
      </trkpt>
      <trkpt lat="45.09992" lon="6.16067">
        <ele>1666.6</ele>
        <time>2020-09-05T07:51:07Z</time>
      </trkpt>
      <trkpt lat="45.09994" lon="6.16067">
        <ele>1667</ele>
        <time>2020-09-05T07:51:08Z</time>
      </trkpt>
      <trkpt lat="45.09996" lon="6.16065">
        <ele>1667</ele>
        <time>2020-09-05T07:51:09Z</time>
      </trkpt>
      <trkpt lat="45.09998" lon="6.16062">
        <ele>1667.2</ele>
        <time>2020-09-05T07:51:10Z</time>
      </trkpt>
      <trkpt lat="45.09998" lon="6.16059">
        <ele>1667.4</ele>
        <time>2020-09-05T07:51:11Z</time>
      </trkpt>
      <trkpt lat="45.09997" lon="6.16055">
        <ele>1667.6</ele>
        <time>2020-09-05T07:51:12Z</time>
      </trkpt>
      <trkpt lat="45.09995" lon="6.16053">
        <ele>1667.8</ele>
        <time>2020-09-05T07:51:13Z</time>
      </trkpt>
      <trkpt lat="45.09993" lon="6.1605">
        <ele>1668</ele>
        <time>2020-09-05T07:51:14Z</time>
      </trkpt>
      <trkpt lat="45.09991" lon="6.16049">
        <ele>1668.2</ele>
        <time>2020-09-05T07:51:15Z</time>
      </trkpt>
      <trkpt lat="45.09989" lon="6.16047">
        <ele>1668.2</ele>
        <time>2020-09-05T07:51:16Z</time>
      </trkpt>
      <trkpt lat="45.09986" lon="6.16045">
        <ele>1668.6</ele>
        <time>2020-09-05T07:51:17Z</time>
      </trkpt>
      <trkpt lat="45.09984" lon="6.16044">
        <ele>1668.8</ele>
        <time>2020-09-05T07:51:18Z</time>
      </trkpt>
      <trkpt lat="45.09981" lon="6.16042">
        <ele>1669.2</ele>
        <time>2020-09-05T07:51:19Z</time>
      </trkpt>
      <trkpt lat="45.09979" lon="6.16041">
        <ele>1669.2</ele>
        <time>2020-09-05T07:51:20Z</time>
      </trkpt>
      <trkpt lat="45.09976" lon="6.16039">
        <ele>1669.4</ele>
        <time>2020-09-05T07:51:21Z</time>
      </trkpt>
      <trkpt lat="45.09974" lon="6.16038">
        <ele>1669.6</ele>
        <time>2020-09-05T07:51:22Z</time>
      </trkpt>
      <trkpt lat="45.09972" lon="6.16036">
        <ele>1670</ele>
        <time>2020-09-05T07:51:23Z</time>
      </trkpt>
      <trkpt lat="45.09969" lon="6.16034">
        <ele>1670.2</ele>
        <time>2020-09-05T07:51:24Z</time>
      </trkpt>
      <trkpt lat="45.09967" lon="6.16032">
        <ele>1670.6</ele>
        <time>2020-09-05T07:51:25Z</time>
      </trkpt>
      <trkpt lat="45.09965" lon="6.1603">
        <ele>1670.6</ele>
        <time>2020-09-05T07:51:26Z</time>
      </trkpt>
      <trkpt lat="45.09962" lon="6.16028">
        <ele>1671</ele>
        <time>2020-09-05T07:51:27Z</time>
      </trkpt>
      <trkpt lat="45.0996" lon="6.16026">
        <ele>1671.2</ele>
        <time>2020-09-05T07:51:28Z</time>
      </trkpt>
      <trkpt lat="45.09958" lon="6.16023">
        <ele>1671.4</ele>
        <time>2020-09-05T07:51:29Z</time>
      </trkpt>
      <trkpt lat="45.09956" lon="6.16021">
        <ele>1671.8</ele>
        <time>2020-09-05T07:51:30Z</time>
      </trkpt>
      <trkpt lat="45.09954" lon="6.16018">
        <ele>1672</ele>
        <time>2020-09-05T07:51:31Z</time>
      </trkpt>
      <trkpt lat="45.09952" lon="6.16016">
        <ele>1672.2</ele>
        <time>2020-09-05T07:51:32Z</time>
      </trkpt>
      <trkpt lat="45.09949" lon="6.16014">
        <ele>1672.4</ele>
        <time>2020-09-05T07:51:33Z</time>
      </trkpt>
      <trkpt lat="45.09947" lon="6.16012">
        <ele>1672.6</ele>
        <time>2020-09-05T07:51:34Z</time>
      </trkpt>
      <trkpt lat="45.09945" lon="6.1601">
        <ele>1672.8</ele>
        <time>2020-09-05T07:51:35Z</time>
      </trkpt>
      <trkpt lat="45.09942" lon="6.16009">
        <ele>1673</ele>
        <time>2020-09-05T07:51:36Z</time>
      </trkpt>
      <trkpt lat="45.09939" lon="6.16008">
        <ele>1673</ele>
        <time>2020-09-05T07:51:37Z</time>
      </trkpt>
      <trkpt lat="45.09937" lon="6.16007">
        <ele>1673.2</ele>
        <time>2020-09-05T07:51:38Z</time>
      </trkpt>
      <trkpt lat="45.09934" lon="6.16006">
        <ele>1673.4</ele>
        <time>2020-09-05T07:51:39Z</time>
      </trkpt>
      <trkpt lat="45.09932" lon="6.16005">
        <ele>1673.6</ele>
        <time>2020-09-05T07:51:40Z</time>
      </trkpt>
      <trkpt lat="45.09929" lon="6.16005">
        <ele>1673.8</ele>
        <time>2020-09-05T07:51:41Z</time>
      </trkpt>
      <trkpt lat="45.09926" lon="6.16004">
        <ele>1674.2</ele>
        <time>2020-09-05T07:51:42Z</time>
      </trkpt>
      <trkpt lat="45.09924" lon="6.16002">
        <ele>1674.6</ele>
        <time>2020-09-05T07:51:43Z</time>
      </trkpt>
      <trkpt lat="45.09922" lon="6.15999">
        <ele>1674.8</ele>
        <time>2020-09-05T07:51:44Z</time>
      </trkpt>
      <trkpt lat="45.09921" lon="6.15996">
        <ele>1674.8</ele>
        <time>2020-09-05T07:51:45Z</time>
      </trkpt>
      <trkpt lat="45.09922" lon="6.15992">
        <ele>1674.8</ele>
        <time>2020-09-05T07:51:46Z</time>
      </trkpt>
      <trkpt lat="45.09922" lon="6.15988">
        <ele>1675.2</ele>
        <time>2020-09-05T07:51:47Z</time>
      </trkpt>
      <trkpt lat="45.09924" lon="6.15985">
        <ele>1675.8</ele>
        <time>2020-09-05T07:51:48Z</time>
      </trkpt>
      <trkpt lat="45.09926" lon="6.15983">
        <ele>1676.2</ele>
        <time>2020-09-05T07:51:49Z</time>
      </trkpt>
      <trkpt lat="45.09929" lon="6.15982">
        <ele>1676</ele>
        <time>2020-09-05T07:51:50Z</time>
      </trkpt>
      <trkpt lat="45.09932" lon="6.15983">
        <ele>1676.2</ele>
        <time>2020-09-05T07:51:51Z</time>
      </trkpt>
      <trkpt lat="45.09934" lon="6.15984">
        <ele>1676.4</ele>
        <time>2020-09-05T07:51:52Z</time>
      </trkpt>
      <trkpt lat="45.09937" lon="6.15986">
        <ele>1676.6</ele>
        <time>2020-09-05T07:51:53Z</time>
      </trkpt>
      <trkpt lat="45.09939" lon="6.15988">
        <ele>1676.8</ele>
        <time>2020-09-05T07:51:54Z</time>
      </trkpt>
      <trkpt lat="45.09941" lon="6.1599">
        <ele>1677.4</ele>
        <time>2020-09-05T07:51:55Z</time>
      </trkpt>
      <trkpt lat="45.09944" lon="6.15991">
        <ele>1677.6</ele>
        <time>2020-09-05T07:51:56Z</time>
      </trkpt>
      <trkpt lat="45.09946" lon="6.15992">
        <ele>1677.8</ele>
        <time>2020-09-05T07:51:57Z</time>
      </trkpt>
      <trkpt lat="45.09948" lon="6.15993">
        <ele>1678.2</ele>
        <time>2020-09-05T07:51:58Z</time>
      </trkpt>
      <trkpt lat="45.09951" lon="6.15994">
        <ele>1678.2</ele>
        <time>2020-09-05T07:51:59Z</time>
      </trkpt>
      <trkpt lat="45.09953" lon="6.15996">
        <ele>1678.4</ele>
        <time>2020-09-05T07:52:00Z</time>
      </trkpt>
      <trkpt lat="45.09956" lon="6.15997">
        <ele>1678.8</ele>
        <time>2020-09-05T07:52:01Z</time>
      </trkpt>
      <trkpt lat="45.09958" lon="6.15998">
        <ele>1679</ele>
        <time>2020-09-05T07:52:02Z</time>
      </trkpt>
      <trkpt lat="45.09961" lon="6.15999">
        <ele>1679</ele>
        <time>2020-09-05T07:52:03Z</time>
      </trkpt>
      <trkpt lat="45.09963" lon="6.15999">
        <ele>1679.6</ele>
        <time>2020-09-05T07:52:04Z</time>
      </trkpt>
      <trkpt lat="45.09966" lon="6.16">
        <ele>1680</ele>
        <time>2020-09-05T07:52:05Z</time>
      </trkpt>
      <trkpt lat="45.09969" lon="6.16001">
        <ele>1680.2</ele>
        <time>2020-09-05T07:52:06Z</time>
      </trkpt>
      <trkpt lat="45.09971" lon="6.16002">
        <ele>1680.4</ele>
        <time>2020-09-05T07:52:07Z</time>
      </trkpt>
      <trkpt lat="45.09974" lon="6.16003">
        <ele>1680.8</ele>
        <time>2020-09-05T07:52:08Z</time>
      </trkpt>
      <trkpt lat="45.09976" lon="6.16003">
        <ele>1681</ele>
        <time>2020-09-05T07:52:09Z</time>
      </trkpt>
      <trkpt lat="45.09979" lon="6.16004">
        <ele>1681.4</ele>
        <time>2020-09-05T07:52:10Z</time>
      </trkpt>
      <trkpt lat="45.09981" lon="6.16006">
        <ele>1681.8</ele>
        <time>2020-09-05T07:52:11Z</time>
      </trkpt>
      <trkpt lat="45.09984" lon="6.16007">
        <ele>1682</ele>
        <time>2020-09-05T07:52:12Z</time>
      </trkpt>
      <trkpt lat="45.09986" lon="6.16008">
        <ele>1682.2</ele>
        <time>2020-09-05T07:52:13Z</time>
      </trkpt>
      <trkpt lat="45.09989" lon="6.1601">
        <ele>1682.6</ele>
        <time>2020-09-05T07:52:14Z</time>
      </trkpt>
      <trkpt lat="45.09991" lon="6.16012">
        <ele>1682.8</ele>
        <time>2020-09-05T07:52:15Z</time>
      </trkpt>
      <trkpt lat="45.09993" lon="6.16013">
        <ele>1683.2</ele>
        <time>2020-09-05T07:52:16Z</time>
      </trkpt>
      <trkpt lat="45.09995" lon="6.16015">
        <ele>1683.4</ele>
        <time>2020-09-05T07:52:17Z</time>
      </trkpt>
      <trkpt lat="45.09997" lon="6.16017">
        <ele>1683.8</ele>
        <time>2020-09-05T07:52:18Z</time>
      </trkpt>
      <trkpt lat="45.1" lon="6.16018">
        <ele>1684</ele>
        <time>2020-09-05T07:52:19Z</time>
      </trkpt>
      <trkpt lat="45.10002" lon="6.16019">
        <ele>1684.2</ele>
        <time>2020-09-05T07:52:20Z</time>
      </trkpt>
      <trkpt lat="45.10004" lon="6.1602">
        <ele>1684.6</ele>
        <time>2020-09-05T07:52:21Z</time>
      </trkpt>
      <trkpt lat="45.10007" lon="6.16019">
        <ele>1685</ele>
        <time>2020-09-05T07:52:22Z</time>
      </trkpt>
      <trkpt lat="45.10009" lon="6.16017">
        <ele>1685</ele>
        <time>2020-09-05T07:52:23Z</time>
      </trkpt>
      <trkpt lat="45.10011" lon="6.16015">
        <ele>1685.2</ele>
        <time>2020-09-05T07:52:24Z</time>
      </trkpt>
      <trkpt lat="45.10012" lon="6.16012">
        <ele>1685</ele>
        <time>2020-09-05T07:52:25Z</time>
      </trkpt>
      <trkpt lat="45.10012" lon="6.16008">
        <ele>1685.4</ele>
        <time>2020-09-05T07:52:26Z</time>
      </trkpt>
      <trkpt lat="45.10011" lon="6.16004">
        <ele>1685.6</ele>
        <time>2020-09-05T07:52:27Z</time>
      </trkpt>
      <trkpt lat="45.1001" lon="6.16">
        <ele>1686</ele>
        <time>2020-09-05T07:52:28Z</time>
      </trkpt>
      <trkpt lat="45.10008" lon="6.15997">
        <ele>1686.2</ele>
        <time>2020-09-05T07:52:29Z</time>
      </trkpt>
      <trkpt lat="45.10007" lon="6.15994">
        <ele>1686.2</ele>
        <time>2020-09-05T07:52:30Z</time>
      </trkpt>
      <trkpt lat="45.10004" lon="6.15992">
        <ele>1686.6</ele>
        <time>2020-09-05T07:52:31Z</time>
      </trkpt>
      <trkpt lat="45.10002" lon="6.1599">
        <ele>1686.8</ele>
        <time>2020-09-05T07:52:32Z</time>
      </trkpt>
      <trkpt lat="45.1" lon="6.15987">
        <ele>1687</ele>
        <time>2020-09-05T07:52:33Z</time>
      </trkpt>
      <trkpt lat="45.09997" lon="6.15986">
        <ele>1687.2</ele>
        <time>2020-09-05T07:52:34Z</time>
      </trkpt>
      <trkpt lat="45.09995" lon="6.15985">
        <ele>1687.4</ele>
        <time>2020-09-05T07:52:35Z</time>
      </trkpt>
      <trkpt lat="45.09992" lon="6.15984">
        <ele>1687.6</ele>
        <time>2020-09-05T07:52:36Z</time>
      </trkpt>
      <trkpt lat="45.0999" lon="6.15982">
        <ele>1688.2</ele>
        <time>2020-09-05T07:52:37Z</time>
      </trkpt>
      <trkpt lat="45.09987" lon="6.15981">
        <ele>1688.2</ele>
        <time>2020-09-05T07:52:38Z</time>
      </trkpt>
      <trkpt lat="45.09985" lon="6.15979">
        <ele>1688.6</ele>
        <time>2020-09-05T07:52:39Z</time>
      </trkpt>
      <trkpt lat="45.09982" lon="6.15978">
        <ele>1688.6</ele>
        <time>2020-09-05T07:52:40Z</time>
      </trkpt>
      <trkpt lat="45.0998" lon="6.15976">
        <ele>1689.2</ele>
        <time>2020-09-05T07:52:41Z</time>
      </trkpt>
      <trkpt lat="45.09978" lon="6.15973">
        <ele>1689.4</ele>
        <time>2020-09-05T07:52:42Z</time>
      </trkpt>
      <trkpt lat="45.09976" lon="6.15971">
        <ele>1689.8</ele>
        <time>2020-09-05T07:52:43Z</time>
      </trkpt>
      <trkpt lat="45.09975" lon="6.1597">
        <ele>1690.2</ele>
        <time>2020-09-05T07:52:44Z</time>
      </trkpt>
      <trkpt lat="45.09973" lon="6.15968">
        <ele>1690.6</ele>
        <time>2020-09-05T07:52:45Z</time>
      </trkpt>
      <trkpt lat="45.09971" lon="6.15966">
        <ele>1690.6</ele>
        <time>2020-09-05T07:52:46Z</time>
      </trkpt>
      <trkpt lat="45.09969" lon="6.15964">
        <ele>1690.8</ele>
        <time>2020-09-05T07:52:47Z</time>
      </trkpt>
      <trkpt lat="45.09967" lon="6.15962">
        <ele>1691.2</ele>
        <time>2020-09-05T07:52:48Z</time>
      </trkpt>
      <trkpt lat="45.09965" lon="6.1596">
        <ele>1691.4</ele>
        <time>2020-09-05T07:52:49Z</time>
      </trkpt>
      <trkpt lat="45.09964" lon="6.15957">
        <ele>1691.4</ele>
        <time>2020-09-05T07:52:50Z</time>
      </trkpt>
      <trkpt lat="45.09962" lon="6.15955">
        <ele>1691.6</ele>
        <time>2020-09-05T07:52:51Z</time>
      </trkpt>
      <trkpt lat="45.0996" lon="6.15953">
        <ele>1691.8</ele>
        <time>2020-09-05T07:52:52Z</time>
      </trkpt>
      <trkpt lat="45.09958" lon="6.15951">
        <ele>1692</ele>
        <time>2020-09-05T07:52:53Z</time>
      </trkpt>
      <trkpt lat="45.09957" lon="6.15949">
        <ele>1692.4</ele>
        <time>2020-09-05T07:52:54Z</time>
      </trkpt>
      <trkpt lat="45.09955" lon="6.15947">
        <ele>1692.4</ele>
        <time>2020-09-05T07:52:55Z</time>
      </trkpt>
      <trkpt lat="45.09953" lon="6.15945">
        <ele>1692.8</ele>
        <time>2020-09-05T07:52:56Z</time>
      </trkpt>
      <trkpt lat="45.09952" lon="6.15943">
        <ele>1693</ele>
        <time>2020-09-05T07:52:57Z</time>
      </trkpt>
      <trkpt lat="45.0995" lon="6.15941">
        <ele>1693.2</ele>
        <time>2020-09-05T07:52:58Z</time>
      </trkpt>
      <trkpt lat="45.09948" lon="6.15939">
        <ele>1693.4</ele>
        <time>2020-09-05T07:52:59Z</time>
      </trkpt>
      <trkpt lat="45.09946" lon="6.15937">
        <ele>1693.6</ele>
        <time>2020-09-05T07:53:00Z</time>
      </trkpt>
      <trkpt lat="45.09944" lon="6.15935">
        <ele>1694</ele>
        <time>2020-09-05T07:53:01Z</time>
      </trkpt>
      <trkpt lat="45.09943" lon="6.15933">
        <ele>1694.2</ele>
        <time>2020-09-05T07:53:02Z</time>
      </trkpt>
      <trkpt lat="45.09941" lon="6.15931">
        <ele>1694.4</ele>
        <time>2020-09-05T07:53:03Z</time>
      </trkpt>
      <trkpt lat="45.0994" lon="6.15929">
        <ele>1694.4</ele>
        <time>2020-09-05T07:53:04Z</time>
      </trkpt>
      <trkpt lat="45.09938" lon="6.15927">
        <ele>1694.8</ele>
        <time>2020-09-05T07:53:05Z</time>
      </trkpt>
      <trkpt lat="45.09936" lon="6.15925">
        <ele>1695</ele>
        <time>2020-09-05T07:53:06Z</time>
      </trkpt>
      <trkpt lat="45.09935" lon="6.15923">
        <ele>1695.2</ele>
        <time>2020-09-05T07:53:07Z</time>
      </trkpt>
      <trkpt lat="45.09933" lon="6.15921">
        <ele>1695.6</ele>
        <time>2020-09-05T07:53:08Z</time>
      </trkpt>
      <trkpt lat="45.09931" lon="6.15919">
        <ele>1695.8</ele>
        <time>2020-09-05T07:53:09Z</time>
      </trkpt>
      <trkpt lat="45.09929" lon="6.15917">
        <ele>1696</ele>
        <time>2020-09-05T07:53:10Z</time>
      </trkpt>
      <trkpt lat="45.09927" lon="6.15914">
        <ele>1696</ele>
        <time>2020-09-05T07:53:11Z</time>
      </trkpt>
      <trkpt lat="45.09925" lon="6.15912">
        <ele>1696.2</ele>
        <time>2020-09-05T07:53:12Z</time>
      </trkpt>
      <trkpt lat="45.09923" lon="6.1591">
        <ele>1696.4</ele>
        <time>2020-09-05T07:53:13Z</time>
      </trkpt>
      <trkpt lat="45.09922" lon="6.15908">
        <ele>1696.8</ele>
        <time>2020-09-05T07:53:14Z</time>
      </trkpt>
      <trkpt lat="45.0992" lon="6.15905">
        <ele>1697.2</ele>
        <time>2020-09-05T07:53:15Z</time>
      </trkpt>
      <trkpt lat="45.09918" lon="6.15903">
        <ele>1697.4</ele>
        <time>2020-09-05T07:53:16Z</time>
      </trkpt>
      <trkpt lat="45.09916" lon="6.15901">
        <ele>1697.6</ele>
        <time>2020-09-05T07:53:17Z</time>
      </trkpt>
      <trkpt lat="45.09914" lon="6.15899">
        <ele>1697.8</ele>
        <time>2020-09-05T07:53:18Z</time>
      </trkpt>
      <trkpt lat="45.09911" lon="6.15896">
        <ele>1698.2</ele>
        <time>2020-09-05T07:53:19Z</time>
      </trkpt>
      <trkpt lat="45.09909" lon="6.15894">
        <ele>1698.6</ele>
        <time>2020-09-05T07:53:20Z</time>
      </trkpt>
      <trkpt lat="45.09906" lon="6.15893">
        <ele>1698.8</ele>
        <time>2020-09-05T07:53:21Z</time>
      </trkpt>
      <trkpt lat="45.09904" lon="6.15891">
        <ele>1699.2</ele>
        <time>2020-09-05T07:53:22Z</time>
      </trkpt>
      <trkpt lat="45.09902" lon="6.1589">
        <ele>1699.6</ele>
        <time>2020-09-05T07:53:23Z</time>
      </trkpt>
      <trkpt lat="45.099" lon="6.15889">
        <ele>1699.8</ele>
        <time>2020-09-05T07:53:24Z</time>
      </trkpt>
      <trkpt lat="45.09898" lon="6.15888">
        <ele>1700</ele>
        <time>2020-09-05T07:53:25Z</time>
      </trkpt>
      <trkpt lat="45.09896" lon="6.15888">
        <ele>1700.2</ele>
        <time>2020-09-05T07:53:26Z</time>
      </trkpt>
      <trkpt lat="45.09894" lon="6.15887">
        <ele>1700.6</ele>
        <time>2020-09-05T07:53:27Z</time>
      </trkpt>
      <trkpt lat="45.09892" lon="6.15886">
        <ele>1700.6</ele>
        <time>2020-09-05T07:53:28Z</time>
      </trkpt>
      <trkpt lat="45.0989" lon="6.15886">
        <ele>1701</ele>
        <time>2020-09-05T07:53:29Z</time>
      </trkpt>
      <trkpt lat="45.09888" lon="6.15885">
        <ele>1701.4</ele>
        <time>2020-09-05T07:53:30Z</time>
      </trkpt>
      <trkpt lat="45.09886" lon="6.15884">
        <ele>1701.6</ele>
        <time>2020-09-05T07:53:31Z</time>
      </trkpt>
      <trkpt lat="45.09884" lon="6.15883">
        <ele>1701.6</ele>
        <time>2020-09-05T07:53:32Z</time>
      </trkpt>
      <trkpt lat="45.09882" lon="6.15882">
        <ele>1701.8</ele>
        <time>2020-09-05T07:53:33Z</time>
      </trkpt>
      <trkpt lat="45.0988" lon="6.1588">
        <ele>1702</ele>
        <time>2020-09-05T07:53:34Z</time>
      </trkpt>
      <trkpt lat="45.09878" lon="6.15878">
        <ele>1702</ele>
        <time>2020-09-05T07:53:35Z</time>
      </trkpt>
      <trkpt lat="45.09876" lon="6.15875">
        <ele>1702.2</ele>
        <time>2020-09-05T07:53:36Z</time>
      </trkpt>
      <trkpt lat="45.09874" lon="6.15872">
        <ele>1702.4</ele>
        <time>2020-09-05T07:53:37Z</time>
      </trkpt>
      <trkpt lat="45.09873" lon="6.15869">
        <ele>1702.8</ele>
        <time>2020-09-05T07:53:38Z</time>
      </trkpt>
      <trkpt lat="45.09872" lon="6.15866">
        <ele>1703</ele>
        <time>2020-09-05T07:53:39Z</time>
      </trkpt>
      <trkpt lat="45.09871" lon="6.15863">
        <ele>1703.4</ele>
        <time>2020-09-05T07:53:40Z</time>
      </trkpt>
      <trkpt lat="45.0987" lon="6.1586">
        <ele>1703.4</ele>
        <time>2020-09-05T07:53:41Z</time>
      </trkpt>
      <trkpt lat="45.09869" lon="6.15857">
        <ele>1703.6</ele>
        <time>2020-09-05T07:53:42Z</time>
      </trkpt>
      <trkpt lat="45.09869" lon="6.15854">
        <ele>1703.8</ele>
        <time>2020-09-05T07:53:43Z</time>
      </trkpt>
      <trkpt lat="45.09868" lon="6.15851">
        <ele>1704</ele>
        <time>2020-09-05T07:53:44Z</time>
      </trkpt>
      <trkpt lat="45.09867" lon="6.15848">
        <ele>1704.4</ele>
        <time>2020-09-05T07:53:45Z</time>
      </trkpt>
      <trkpt lat="45.09867" lon="6.15845">
        <ele>1704.6</ele>
        <time>2020-09-05T07:53:46Z</time>
      </trkpt>
      <trkpt lat="45.09866" lon="6.15842">
        <ele>1705</ele>
        <time>2020-09-05T07:53:47Z</time>
      </trkpt>
      <trkpt lat="45.09865" lon="6.15839">
        <ele>1705.4</ele>
        <time>2020-09-05T07:53:48Z</time>
      </trkpt>
      <trkpt lat="45.09864" lon="6.15836">
        <ele>1705.8</ele>
        <time>2020-09-05T07:53:49Z</time>
      </trkpt>
      <trkpt lat="45.09864" lon="6.15833">
        <ele>1706</ele>
        <time>2020-09-05T07:53:50Z</time>
      </trkpt>
      <trkpt lat="45.09863" lon="6.15831">
        <ele>1706.4</ele>
        <time>2020-09-05T07:53:51Z</time>
      </trkpt>
      <trkpt lat="45.09862" lon="6.15828">
        <ele>1707</ele>
        <time>2020-09-05T07:53:52Z</time>
      </trkpt>
      <trkpt lat="45.09861" lon="6.15825">
        <ele>1707.2</ele>
        <time>2020-09-05T07:53:53Z</time>
      </trkpt>
      <trkpt lat="45.0986" lon="6.15823">
        <ele>1707.4</ele>
        <time>2020-09-05T07:53:54Z</time>
      </trkpt>
      <trkpt lat="45.09859" lon="6.1582">
        <ele>1707.4</ele>
        <time>2020-09-05T07:53:55Z</time>
      </trkpt>
      <trkpt lat="45.09859" lon="6.15817">
        <ele>1707.6</ele>
        <time>2020-09-05T07:53:56Z</time>
      </trkpt>
      <trkpt lat="45.09857" lon="6.15815">
        <ele>1707.8</ele>
        <time>2020-09-05T07:53:57Z</time>
      </trkpt>
      <trkpt lat="45.09856" lon="6.15812">
        <ele>1708.2</ele>
        <time>2020-09-05T07:53:58Z</time>
      </trkpt>
      <trkpt lat="45.09854" lon="6.1581">
        <ele>1708.6</ele>
        <time>2020-09-05T07:53:59Z</time>
      </trkpt>
      <trkpt lat="45.09853" lon="6.15807">
        <ele>1708.8</ele>
        <time>2020-09-05T07:54:00Z</time>
      </trkpt>
      <trkpt lat="45.09851" lon="6.15804">
        <ele>1709.2</ele>
        <time>2020-09-05T07:54:01Z</time>
      </trkpt>
      <trkpt lat="45.09849" lon="6.15802">
        <ele>1709.4</ele>
        <time>2020-09-05T07:54:02Z</time>
      </trkpt>
      <trkpt lat="45.09848" lon="6.15799">
        <ele>1709.6</ele>
        <time>2020-09-05T07:54:03Z</time>
      </trkpt>
      <trkpt lat="45.09847" lon="6.15797">
        <ele>1709.8</ele>
        <time>2020-09-05T07:54:04Z</time>
      </trkpt>
      <trkpt lat="45.09845" lon="6.15794">
        <ele>1710</ele>
        <time>2020-09-05T07:54:05Z</time>
      </trkpt>
      <trkpt lat="45.09843" lon="6.15792">
        <ele>1710.2</ele>
        <time>2020-09-05T07:54:06Z</time>
      </trkpt>
      <trkpt lat="45.09842" lon="6.1579">
        <ele>1710.8</ele>
        <time>2020-09-05T07:54:07Z</time>
      </trkpt>
      <trkpt lat="45.09841" lon="6.15787">
        <ele>1711</ele>
        <time>2020-09-05T07:54:08Z</time>
      </trkpt>
      <trkpt lat="45.09839" lon="6.15785">
        <ele>1711.2</ele>
        <time>2020-09-05T07:54:09Z</time>
      </trkpt>
      <trkpt lat="45.09837" lon="6.15782">
        <ele>1711.4</ele>
        <time>2020-09-05T07:54:10Z</time>
      </trkpt>
      <trkpt lat="45.09834" lon="6.1578">
        <ele>1711.8</ele>
        <time>2020-09-05T07:54:11Z</time>
      </trkpt>
      <trkpt lat="45.09832" lon="6.15778">
        <ele>1712</ele>
        <time>2020-09-05T07:54:12Z</time>
      </trkpt>
      <trkpt lat="45.09829" lon="6.15776">
        <ele>1712.2</ele>
        <time>2020-09-05T07:54:13Z</time>
      </trkpt>
      <trkpt lat="45.09827" lon="6.15773">
        <ele>1712.4</ele>
        <time>2020-09-05T07:54:14Z</time>
      </trkpt>
      <trkpt lat="45.09825" lon="6.15771">
        <ele>1712.8</ele>
        <time>2020-09-05T07:54:15Z</time>
      </trkpt>
      <trkpt lat="45.09822" lon="6.15768">
        <ele>1713.2</ele>
        <time>2020-09-05T07:54:16Z</time>
      </trkpt>
      <trkpt lat="45.0982" lon="6.15766">
        <ele>1713.4</ele>
        <time>2020-09-05T07:54:17Z</time>
      </trkpt>
      <trkpt lat="45.09818" lon="6.15765">
        <ele>1713.6</ele>
        <time>2020-09-05T07:54:18Z</time>
      </trkpt>
      <trkpt lat="45.09816" lon="6.15763">
        <ele>1713.8</ele>
        <time>2020-09-05T07:54:19Z</time>
      </trkpt>
      <trkpt lat="45.09814" lon="6.15762">
        <ele>1713.8</ele>
        <time>2020-09-05T07:54:20Z</time>
      </trkpt>
      <trkpt lat="45.09812" lon="6.1576">
        <ele>1714</ele>
        <time>2020-09-05T07:54:21Z</time>
      </trkpt>
      <trkpt lat="45.09811" lon="6.15759">
        <ele>1714</ele>
        <time>2020-09-05T07:54:22Z</time>
      </trkpt>
      <trkpt lat="45.09809" lon="6.15757">
        <ele>1714.4</ele>
        <time>2020-09-05T07:54:23Z</time>
      </trkpt>
      <trkpt lat="45.09807" lon="6.15755">
        <ele>1714.8</ele>
        <time>2020-09-05T07:54:24Z</time>
      </trkpt>
      <trkpt lat="45.09805" lon="6.15754">
        <ele>1715</ele>
        <time>2020-09-05T07:54:25Z</time>
      </trkpt>
      <trkpt lat="45.09803" lon="6.15752">
        <ele>1715.2</ele>
        <time>2020-09-05T07:54:26Z</time>
      </trkpt>
      <trkpt lat="45.09801" lon="6.1575">
        <ele>1715.6</ele>
        <time>2020-09-05T07:54:27Z</time>
      </trkpt>
      <trkpt lat="45.09799" lon="6.15748">
        <ele>1715.8</ele>
        <time>2020-09-05T07:54:28Z</time>
      </trkpt>
      <trkpt lat="45.09797" lon="6.15746">
        <ele>1716</ele>
        <time>2020-09-05T07:54:29Z</time>
      </trkpt>
      <trkpt lat="45.09796" lon="6.15744">
        <ele>1716.4</ele>
        <time>2020-09-05T07:54:30Z</time>
      </trkpt>
      <trkpt lat="45.09794" lon="6.15742">
        <ele>1716.6</ele>
        <time>2020-09-05T07:54:31Z</time>
      </trkpt>
      <trkpt lat="45.09792" lon="6.1574">
        <ele>1717</ele>
        <time>2020-09-05T07:54:32Z</time>
      </trkpt>
      <trkpt lat="45.09791" lon="6.15738">
        <ele>1717.2</ele>
        <time>2020-09-05T07:54:33Z</time>
      </trkpt>
      <trkpt lat="45.09789" lon="6.15736">
        <ele>1717.2</ele>
        <time>2020-09-05T07:54:34Z</time>
      </trkpt>
      <trkpt lat="45.09788" lon="6.15734">
        <ele>1717.6</ele>
        <time>2020-09-05T07:54:35Z</time>
      </trkpt>
      <trkpt lat="45.09786" lon="6.15732">
        <ele>1718</ele>
        <time>2020-09-05T07:54:36Z</time>
      </trkpt>
      <trkpt lat="45.09785" lon="6.15729">
        <ele>1718.4</ele>
        <time>2020-09-05T07:54:37Z</time>
      </trkpt>
      <trkpt lat="45.09783" lon="6.15727">
        <ele>1718.8</ele>
        <time>2020-09-05T07:54:38Z</time>
      </trkpt>
      <trkpt lat="45.09782" lon="6.15725">
        <ele>1719</ele>
        <time>2020-09-05T07:54:39Z</time>
      </trkpt>
      <trkpt lat="45.0978" lon="6.15722">
        <ele>1719.2</ele>
        <time>2020-09-05T07:54:40Z</time>
      </trkpt>
      <trkpt lat="45.09779" lon="6.1572">
        <ele>1719.4</ele>
        <time>2020-09-05T07:54:41Z</time>
      </trkpt>
      <trkpt lat="45.09777" lon="6.15717">
        <ele>1719.8</ele>
        <time>2020-09-05T07:54:42Z</time>
      </trkpt>
      <trkpt lat="45.09776" lon="6.15715">
        <ele>1720</ele>
        <time>2020-09-05T07:54:43Z</time>
      </trkpt>
      <trkpt lat="45.09774" lon="6.15713">
        <ele>1720</ele>
        <time>2020-09-05T07:54:44Z</time>
      </trkpt>
      <trkpt lat="45.09772" lon="6.15711">
        <ele>1720.4</ele>
        <time>2020-09-05T07:54:45Z</time>
      </trkpt>
      <trkpt lat="45.09771" lon="6.15708">
        <ele>1720.8</ele>
        <time>2020-09-05T07:54:46Z</time>
      </trkpt>
      <trkpt lat="45.09769" lon="6.15706">
        <ele>1720.8</ele>
        <time>2020-09-05T07:54:47Z</time>
      </trkpt>
      <trkpt lat="45.09767" lon="6.15704">
        <ele>1721.2</ele>
        <time>2020-09-05T07:54:48Z</time>
      </trkpt>
      <trkpt lat="45.09765" lon="6.15702">
        <ele>1721.4</ele>
        <time>2020-09-05T07:54:49Z</time>
      </trkpt>
      <trkpt lat="45.09764" lon="6.157">
        <ele>1721.6</ele>
        <time>2020-09-05T07:54:50Z</time>
      </trkpt>
      <trkpt lat="45.09762" lon="6.15698">
        <ele>1721.6</ele>
        <time>2020-09-05T07:54:51Z</time>
      </trkpt>
      <trkpt lat="45.0976" lon="6.15696">
        <ele>1722</ele>
        <time>2020-09-05T07:54:52Z</time>
      </trkpt>
      <trkpt lat="45.09758" lon="6.15693">
        <ele>1722.2</ele>
        <time>2020-09-05T07:54:53Z</time>
      </trkpt>
      <trkpt lat="45.09756" lon="6.15691">
        <ele>1722.4</ele>
        <time>2020-09-05T07:54:54Z</time>
      </trkpt>
      <trkpt lat="45.09754" lon="6.1569">
        <ele>1722.8</ele>
        <time>2020-09-05T07:54:55Z</time>
      </trkpt>
      <trkpt lat="45.09752" lon="6.15688">
        <ele>1722.8</ele>
        <time>2020-09-05T07:54:56Z</time>
      </trkpt>
      <trkpt lat="45.0975" lon="6.15686">
        <ele>1723</ele>
        <time>2020-09-05T07:54:57Z</time>
      </trkpt>
      <trkpt lat="45.09748" lon="6.15685">
        <ele>1723.2</ele>
        <time>2020-09-05T07:54:58Z</time>
      </trkpt>
      <trkpt lat="45.09746" lon="6.15683">
        <ele>1723.2</ele>
        <time>2020-09-05T07:54:59Z</time>
      </trkpt>
      <trkpt lat="45.09744" lon="6.15681">
        <ele>1723.6</ele>
        <time>2020-09-05T07:55:00Z</time>
      </trkpt>
      <trkpt lat="45.09741" lon="6.15679">
        <ele>1723.8</ele>
        <time>2020-09-05T07:55:01Z</time>
      </trkpt>
      <trkpt lat="45.09739" lon="6.15678">
        <ele>1724.2</ele>
        <time>2020-09-05T07:55:02Z</time>
      </trkpt>
      <trkpt lat="45.09737" lon="6.15676">
        <ele>1724.4</ele>
        <time>2020-09-05T07:55:03Z</time>
      </trkpt>
      <trkpt lat="45.09734" lon="6.15674">
        <ele>1724.4</ele>
        <time>2020-09-05T07:55:04Z</time>
      </trkpt>
      <trkpt lat="45.09732" lon="6.15673">
        <ele>1724.6</ele>
        <time>2020-09-05T07:55:05Z</time>
      </trkpt>
      <trkpt lat="45.0973" lon="6.15672">
        <ele>1725</ele>
        <time>2020-09-05T07:55:06Z</time>
      </trkpt>
      <trkpt lat="45.09727" lon="6.1567">
        <ele>1725.4</ele>
        <time>2020-09-05T07:55:07Z</time>
      </trkpt>
      <trkpt lat="45.09725" lon="6.15669">
        <ele>1725.4</ele>
        <time>2020-09-05T07:55:08Z</time>
      </trkpt>
      <trkpt lat="45.09723" lon="6.15667">
        <ele>1725.6</ele>
        <time>2020-09-05T07:55:09Z</time>
      </trkpt>
      <trkpt lat="45.0972" lon="6.15666">
        <ele>1725.8</ele>
        <time>2020-09-05T07:55:10Z</time>
      </trkpt>
      <trkpt lat="45.09718" lon="6.15664">
        <ele>1725.8</ele>
        <time>2020-09-05T07:55:11Z</time>
      </trkpt>
      <trkpt lat="45.09716" lon="6.15663">
        <ele>1726.4</ele>
        <time>2020-09-05T07:55:12Z</time>
      </trkpt>
      <trkpt lat="45.09714" lon="6.15661">
        <ele>1726.8</ele>
        <time>2020-09-05T07:55:13Z</time>
      </trkpt>
      <trkpt lat="45.09712" lon="6.1566">
        <ele>1726.8</ele>
        <time>2020-09-05T07:55:14Z</time>
      </trkpt>
      <trkpt lat="45.09709" lon="6.15658">
        <ele>1727.2</ele>
        <time>2020-09-05T07:55:15Z</time>
      </trkpt>
      <trkpt lat="45.09707" lon="6.15656">
        <ele>1727.2</ele>
        <time>2020-09-05T07:55:16Z</time>
      </trkpt>
      <trkpt lat="45.09705" lon="6.15655">
        <ele>1727.6</ele>
        <time>2020-09-05T07:55:17Z</time>
      </trkpt>
      <trkpt lat="45.09702" lon="6.15653">
        <ele>1728</ele>
        <time>2020-09-05T07:55:18Z</time>
      </trkpt>
      <trkpt lat="45.097" lon="6.15652">
        <ele>1728.2</ele>
        <time>2020-09-05T07:55:19Z</time>
      </trkpt>
      <trkpt lat="45.09698" lon="6.1565">
        <ele>1728.6</ele>
        <time>2020-09-05T07:55:20Z</time>
      </trkpt>
      <trkpt lat="45.09696" lon="6.15649">
        <ele>1728.6</ele>
        <time>2020-09-05T07:55:21Z</time>
      </trkpt>
      <trkpt lat="45.09693" lon="6.15647">
        <ele>1728.8</ele>
        <time>2020-09-05T07:55:22Z</time>
      </trkpt>
      <trkpt lat="45.09691" lon="6.15645">
        <ele>1729</ele>
        <time>2020-09-05T07:55:23Z</time>
      </trkpt>
      <trkpt lat="45.09688" lon="6.15644">
        <ele>1729.4</ele>
        <time>2020-09-05T07:55:24Z</time>
      </trkpt>
      <trkpt lat="45.09686" lon="6.15643">
        <ele>1729.8</ele>
        <time>2020-09-05T07:55:25Z</time>
      </trkpt>
      <trkpt lat="45.09684" lon="6.15642">
        <ele>1730</ele>
        <time>2020-09-05T07:55:26Z</time>
      </trkpt>
      <trkpt lat="45.09681" lon="6.15641">
        <ele>1730.4</ele>
        <time>2020-09-05T07:55:27Z</time>
      </trkpt>
      <trkpt lat="45.09679" lon="6.1564">
        <ele>1730.6</ele>
        <time>2020-09-05T07:55:28Z</time>
      </trkpt>
      <trkpt lat="45.09676" lon="6.1564">
        <ele>1731</ele>
        <time>2020-09-05T07:55:29Z</time>
      </trkpt>
      <trkpt lat="45.09674" lon="6.15639">
        <ele>1731</ele>
        <time>2020-09-05T07:55:30Z</time>
      </trkpt>
      <trkpt lat="45.09671" lon="6.15639">
        <ele>1731.4</ele>
        <time>2020-09-05T07:55:31Z</time>
      </trkpt>
      <trkpt lat="45.09669" lon="6.15638">
        <ele>1731.4</ele>
        <time>2020-09-05T07:55:32Z</time>
      </trkpt>
      <trkpt lat="45.09666" lon="6.15637">
        <ele>1731.6</ele>
        <time>2020-09-05T07:55:33Z</time>
      </trkpt>
      <trkpt lat="45.09664" lon="6.15637">
        <ele>1731.8</ele>
        <time>2020-09-05T07:55:34Z</time>
      </trkpt>
      <trkpt lat="45.09661" lon="6.15636">
        <ele>1732</ele>
        <time>2020-09-05T07:55:35Z</time>
      </trkpt>
      <trkpt lat="45.09658" lon="6.15636">
        <ele>1732.4</ele>
        <time>2020-09-05T07:55:36Z</time>
      </trkpt>
      <trkpt lat="45.09656" lon="6.15635">
        <ele>1732.4</ele>
        <time>2020-09-05T07:55:37Z</time>
      </trkpt>
      <trkpt lat="45.09653" lon="6.15634">
        <ele>1732.8</ele>
        <time>2020-09-05T07:55:38Z</time>
      </trkpt>
      <trkpt lat="45.09651" lon="6.15633">
        <ele>1732.8</ele>
        <time>2020-09-05T07:55:39Z</time>
      </trkpt>
      <trkpt lat="45.09649" lon="6.15632">
        <ele>1733.4</ele>
        <time>2020-09-05T07:55:40Z</time>
      </trkpt>
      <trkpt lat="45.09646" lon="6.15631">
        <ele>1733.8</ele>
        <time>2020-09-05T07:55:41Z</time>
      </trkpt>
      <trkpt lat="45.09644" lon="6.1563">
        <ele>1734</ele>
        <time>2020-09-05T07:55:42Z</time>
      </trkpt>
      <trkpt lat="45.09641" lon="6.15629">
        <ele>1734.4</ele>
        <time>2020-09-05T07:55:43Z</time>
      </trkpt>
      <trkpt lat="45.09638" lon="6.15627">
        <ele>1734.6</ele>
        <time>2020-09-05T07:55:44Z</time>
      </trkpt>
      <trkpt lat="45.09636" lon="6.15626">
        <ele>1735</ele>
        <time>2020-09-05T07:55:45Z</time>
      </trkpt>
      <trkpt lat="45.09633" lon="6.15624">
        <ele>1734.8</ele>
        <time>2020-09-05T07:55:46Z</time>
      </trkpt>
      <trkpt lat="45.09631" lon="6.15623">
        <ele>1735</ele>
        <time>2020-09-05T07:55:47Z</time>
      </trkpt>
      <trkpt lat="45.09628" lon="6.15621">
        <ele>1735.6</ele>
        <time>2020-09-05T07:55:48Z</time>
      </trkpt>
      <trkpt lat="45.09625" lon="6.1562">
        <ele>1736</ele>
        <time>2020-09-05T07:55:49Z</time>
      </trkpt>
      <trkpt lat="45.09623" lon="6.15618">
        <ele>1736.2</ele>
        <time>2020-09-05T07:55:50Z</time>
      </trkpt>
      <trkpt lat="45.09621" lon="6.15616">
        <ele>1736.8</ele>
        <time>2020-09-05T07:55:51Z</time>
      </trkpt>
      <trkpt lat="45.09618" lon="6.15615">
        <ele>1737.2</ele>
        <time>2020-09-05T07:55:52Z</time>
      </trkpt>
      <trkpt lat="45.09616" lon="6.15613">
        <ele>1737.6</ele>
        <time>2020-09-05T07:55:53Z</time>
      </trkpt>
      <trkpt lat="45.09614" lon="6.15612">
        <ele>1737.6</ele>
        <time>2020-09-05T07:55:54Z</time>
      </trkpt>
      <trkpt lat="45.09612" lon="6.1561">
        <ele>1738</ele>
        <time>2020-09-05T07:55:55Z</time>
      </trkpt>
      <trkpt lat="45.0961" lon="6.15608">
        <ele>1738.2</ele>
        <time>2020-09-05T07:55:56Z</time>
      </trkpt>
      <trkpt lat="45.09608" lon="6.15606">
        <ele>1738.4</ele>
        <time>2020-09-05T07:55:57Z</time>
      </trkpt>
      <trkpt lat="45.09606" lon="6.15604">
        <ele>1738.6</ele>
        <time>2020-09-05T07:55:58Z</time>
      </trkpt>
      <trkpt lat="45.09604" lon="6.15601">
        <ele>1738.8</ele>
        <time>2020-09-05T07:55:59Z</time>
      </trkpt>
      <trkpt lat="45.09602" lon="6.15599">
        <ele>1739.2</ele>
        <time>2020-09-05T07:56:00Z</time>
      </trkpt>
      <trkpt lat="45.096" lon="6.15597">
        <ele>1739.2</ele>
        <time>2020-09-05T07:56:01Z</time>
      </trkpt>
      <trkpt lat="45.09598" lon="6.15594">
        <ele>1739.4</ele>
        <time>2020-09-05T07:56:02Z</time>
      </trkpt>
      <trkpt lat="45.09597" lon="6.15592">
        <ele>1739.6</ele>
        <time>2020-09-05T07:56:03Z</time>
      </trkpt>
      <trkpt lat="45.09595" lon="6.15589">
        <ele>1739.8</ele>
        <time>2020-09-05T07:56:04Z</time>
      </trkpt>
      <trkpt lat="45.09593" lon="6.15586">
        <ele>1740</ele>
        <time>2020-09-05T07:56:05Z</time>
      </trkpt>
      <trkpt lat="45.09592" lon="6.15584">
        <ele>1740.2</ele>
        <time>2020-09-05T07:56:06Z</time>
      </trkpt>
      <trkpt lat="45.0959" lon="6.15581">
        <ele>1740.6</ele>
        <time>2020-09-05T07:56:07Z</time>
      </trkpt>
      <trkpt lat="45.09589" lon="6.15578">
        <ele>1741.2</ele>
        <time>2020-09-05T07:56:08Z</time>
      </trkpt>
      <trkpt lat="45.09588" lon="6.15576">
        <ele>1741.6</ele>
        <time>2020-09-05T07:56:09Z</time>
      </trkpt>
      <trkpt lat="45.09587" lon="6.15573">
        <ele>1741.4</ele>
        <time>2020-09-05T07:56:10Z</time>
      </trkpt>
      <trkpt lat="45.09586" lon="6.1557">
        <ele>1741.6</ele>
        <time>2020-09-05T07:56:11Z</time>
      </trkpt>
      <trkpt lat="45.09584" lon="6.15567">
        <ele>1741.8</ele>
        <time>2020-09-05T07:56:12Z</time>
      </trkpt>
      <trkpt lat="45.09583" lon="6.15564">
        <ele>1742.2</ele>
        <time>2020-09-05T07:56:13Z</time>
      </trkpt>
      <trkpt lat="45.09581" lon="6.15561">
        <ele>1742.4</ele>
        <time>2020-09-05T07:56:14Z</time>
      </trkpt>
      <trkpt lat="45.0958" lon="6.15559">
        <ele>1742.6</ele>
        <time>2020-09-05T07:56:15Z</time>
      </trkpt>
      <trkpt lat="45.09579" lon="6.15556">
        <ele>1742.8</ele>
        <time>2020-09-05T07:56:16Z</time>
      </trkpt>
      <trkpt lat="45.09578" lon="6.15553">
        <ele>1743</ele>
        <time>2020-09-05T07:56:17Z</time>
      </trkpt>
      <trkpt lat="45.09576" lon="6.1555">
        <ele>1743.6</ele>
        <time>2020-09-05T07:56:18Z</time>
      </trkpt>
      <trkpt lat="45.09575" lon="6.15547">
        <ele>1743.8</ele>
        <time>2020-09-05T07:56:19Z</time>
      </trkpt>
      <trkpt lat="45.09573" lon="6.15545">
        <ele>1744.4</ele>
        <time>2020-09-05T07:56:20Z</time>
      </trkpt>
      <trkpt lat="45.09572" lon="6.15542">
        <ele>1744.6</ele>
        <time>2020-09-05T07:56:21Z</time>
      </trkpt>
      <trkpt lat="45.0957" lon="6.15539">
        <ele>1744.8</ele>
        <time>2020-09-05T07:56:22Z</time>
      </trkpt>
      <trkpt lat="45.09568" lon="6.15536">
        <ele>1745</ele>
        <time>2020-09-05T07:56:23Z</time>
      </trkpt>
      <trkpt lat="45.09567" lon="6.15533">
        <ele>1745.4</ele>
        <time>2020-09-05T07:56:24Z</time>
      </trkpt>
      <trkpt lat="45.09565" lon="6.15531">
        <ele>1745.6</ele>
        <time>2020-09-05T07:56:25Z</time>
      </trkpt>
      <trkpt lat="45.09564" lon="6.15528">
        <ele>1746</ele>
        <time>2020-09-05T07:56:26Z</time>
      </trkpt>
      <trkpt lat="45.09562" lon="6.15526">
        <ele>1746.2</ele>
        <time>2020-09-05T07:56:27Z</time>
      </trkpt>
      <trkpt lat="45.0956" lon="6.15523">
        <ele>1746.4</ele>
        <time>2020-09-05T07:56:28Z</time>
      </trkpt>
      <trkpt lat="45.09558" lon="6.15521">
        <ele>1746.6</ele>
        <time>2020-09-05T07:56:29Z</time>
      </trkpt>
      <trkpt lat="45.09556" lon="6.15518">
        <ele>1747</ele>
        <time>2020-09-05T07:56:30Z</time>
      </trkpt>
      <trkpt lat="45.09554" lon="6.15516">
        <ele>1747.2</ele>
        <time>2020-09-05T07:56:31Z</time>
      </trkpt>
      <trkpt lat="45.09553" lon="6.15513">
        <ele>1747.6</ele>
        <time>2020-09-05T07:56:32Z</time>
      </trkpt>
      <trkpt lat="45.09551" lon="6.15511">
        <ele>1747.8</ele>
        <time>2020-09-05T07:56:33Z</time>
      </trkpt>
      <trkpt lat="45.09549" lon="6.15509">
        <ele>1748.2</ele>
        <time>2020-09-05T07:56:34Z</time>
      </trkpt>
      <trkpt lat="45.09547" lon="6.15506">
        <ele>1748.4</ele>
        <time>2020-09-05T07:56:35Z</time>
      </trkpt>
      <trkpt lat="45.09545" lon="6.15504">
        <ele>1748.6</ele>
        <time>2020-09-05T07:56:36Z</time>
      </trkpt>
      <trkpt lat="45.09543" lon="6.15502">
        <ele>1748.8</ele>
        <time>2020-09-05T07:56:37Z</time>
      </trkpt>
      <trkpt lat="45.09541" lon="6.155">
        <ele>1749</ele>
        <time>2020-09-05T07:56:38Z</time>
      </trkpt>
      <trkpt lat="45.09539" lon="6.15498">
        <ele>1749.8</ele>
        <time>2020-09-05T07:56:39Z</time>
      </trkpt>
      <trkpt lat="45.09537" lon="6.15496">
        <ele>1750</ele>
        <time>2020-09-05T07:56:40Z</time>
      </trkpt>
      <trkpt lat="45.09535" lon="6.15495">
        <ele>1750</ele>
        <time>2020-09-05T07:56:41Z</time>
      </trkpt>
      <trkpt lat="45.09532" lon="6.15493">
        <ele>1750.4</ele>
        <time>2020-09-05T07:56:42Z</time>
      </trkpt>
      <trkpt lat="45.0953" lon="6.15491">
        <ele>1750.6</ele>
        <time>2020-09-05T07:56:43Z</time>
      </trkpt>
      <trkpt lat="45.09528" lon="6.15489">
        <ele>1750.8</ele>
        <time>2020-09-05T07:56:44Z</time>
      </trkpt>
      <trkpt lat="45.09526" lon="6.15488">
        <ele>1751</ele>
        <time>2020-09-05T07:56:45Z</time>
      </trkpt>
      <trkpt lat="45.09523" lon="6.15486">
        <ele>1751</ele>
        <time>2020-09-05T07:56:46Z</time>
      </trkpt>
      <trkpt lat="45.09521" lon="6.15485">
        <ele>1751.4</ele>
        <time>2020-09-05T07:56:47Z</time>
      </trkpt>
      <trkpt lat="45.09519" lon="6.15483">
        <ele>1751.6</ele>
        <time>2020-09-05T07:56:48Z</time>
      </trkpt>
      <trkpt lat="45.09517" lon="6.15481">
        <ele>1751.8</ele>
        <time>2020-09-05T07:56:49Z</time>
      </trkpt>
      <trkpt lat="45.09514" lon="6.1548">
        <ele>1752</ele>
        <time>2020-09-05T07:56:50Z</time>
      </trkpt>
      <trkpt lat="45.09512" lon="6.15478">
        <ele>1752.4</ele>
        <time>2020-09-05T07:56:51Z</time>
      </trkpt>
      <trkpt lat="45.0951" lon="6.15476">
        <ele>1752.6</ele>
        <time>2020-09-05T07:56:52Z</time>
      </trkpt>
      <trkpt lat="45.09508" lon="6.15474">
        <ele>1752.8</ele>
        <time>2020-09-05T07:56:53Z</time>
      </trkpt>
      <trkpt lat="45.09506" lon="6.15473">
        <ele>1753</ele>
        <time>2020-09-05T07:56:54Z</time>
      </trkpt>
      <trkpt lat="45.09504" lon="6.15471">
        <ele>1753</ele>
        <time>2020-09-05T07:56:55Z</time>
      </trkpt>
      <trkpt lat="45.09502" lon="6.1547">
        <ele>1753.4</ele>
        <time>2020-09-05T07:56:56Z</time>
      </trkpt>
      <trkpt lat="45.095" lon="6.15468">
        <ele>1753.8</ele>
        <time>2020-09-05T07:56:57Z</time>
      </trkpt>
      <trkpt lat="45.09498" lon="6.15466">
        <ele>1754.2</ele>
        <time>2020-09-05T07:56:58Z</time>
      </trkpt>
      <trkpt lat="45.09496" lon="6.15464">
        <ele>1754.6</ele>
        <time>2020-09-05T07:56:59Z</time>
      </trkpt>
      <trkpt lat="45.09494" lon="6.15462">
        <ele>1754.8</ele>
        <time>2020-09-05T07:57:00Z</time>
      </trkpt>
      <trkpt lat="45.09492" lon="6.1546">
        <ele>1755.2</ele>
        <time>2020-09-05T07:57:01Z</time>
      </trkpt>
      <trkpt lat="45.09489" lon="6.15458">
        <ele>1755.6</ele>
        <time>2020-09-05T07:57:02Z</time>
      </trkpt>
      <trkpt lat="45.09487" lon="6.15456">
        <ele>1756</ele>
        <time>2020-09-05T07:57:03Z</time>
      </trkpt>
      <trkpt lat="45.09485" lon="6.15453">
        <ele>1756.2</ele>
        <time>2020-09-05T07:57:04Z</time>
      </trkpt>
      <trkpt lat="45.09483" lon="6.1545">
        <ele>1756.6</ele>
        <time>2020-09-05T07:57:05Z</time>
      </trkpt>
      <trkpt lat="45.09481" lon="6.15448">
        <ele>1756.6</ele>
        <time>2020-09-05T07:57:06Z</time>
      </trkpt>
      <trkpt lat="45.09479" lon="6.15446">
        <ele>1756.8</ele>
        <time>2020-09-05T07:57:07Z</time>
      </trkpt>
      <trkpt lat="45.09477" lon="6.15444">
        <ele>1757</ele>
        <time>2020-09-05T07:57:08Z</time>
      </trkpt>
      <trkpt lat="45.09475" lon="6.15442">
        <ele>1757.2</ele>
        <time>2020-09-05T07:57:09Z</time>
      </trkpt>
      <trkpt lat="45.09474" lon="6.1544">
        <ele>1757.6</ele>
        <time>2020-09-05T07:57:10Z</time>
      </trkpt>
      <trkpt lat="45.09472" lon="6.15438">
        <ele>1757.6</ele>
        <time>2020-09-05T07:57:11Z</time>
      </trkpt>
      <trkpt lat="45.0947" lon="6.15436">
        <ele>1757.8</ele>
        <time>2020-09-05T07:57:12Z</time>
      </trkpt>
      <trkpt lat="45.09468" lon="6.15434">
        <ele>1758</ele>
        <time>2020-09-05T07:57:13Z</time>
      </trkpt>
      <trkpt lat="45.09466" lon="6.15432">
        <ele>1758.2</ele>
        <time>2020-09-05T07:57:14Z</time>
      </trkpt>
      <trkpt lat="45.09464" lon="6.1543">
        <ele>1758.4</ele>
        <time>2020-09-05T07:57:15Z</time>
      </trkpt>
      <trkpt lat="45.09462" lon="6.15428">
        <ele>1758.8</ele>
        <time>2020-09-05T07:57:16Z</time>
      </trkpt>
      <trkpt lat="45.0946" lon="6.15426">
        <ele>1759</ele>
        <time>2020-09-05T07:57:17Z</time>
      </trkpt>
      <trkpt lat="45.09458" lon="6.15424">
        <ele>1759.4</ele>
        <time>2020-09-05T07:57:18Z</time>
      </trkpt>
      <trkpt lat="45.09456" lon="6.15422">
        <ele>1759.8</ele>
        <time>2020-09-05T07:57:19Z</time>
      </trkpt>
      <trkpt lat="45.09454" lon="6.1542">
        <ele>1760</ele>
        <time>2020-09-05T07:57:20Z</time>
      </trkpt>
      <trkpt lat="45.09452" lon="6.15418">
        <ele>1760.2</ele>
        <time>2020-09-05T07:57:21Z</time>
      </trkpt>
      <trkpt lat="45.0945" lon="6.15416">
        <ele>1760.6</ele>
        <time>2020-09-05T07:57:22Z</time>
      </trkpt>
      <trkpt lat="45.09447" lon="6.15414">
        <ele>1760.8</ele>
        <time>2020-09-05T07:57:23Z</time>
      </trkpt>
      <trkpt lat="45.09445" lon="6.15412">
        <ele>1761.4</ele>
        <time>2020-09-05T07:57:24Z</time>
      </trkpt>
      <trkpt lat="45.09443" lon="6.1541">
        <ele>1761.6</ele>
        <time>2020-09-05T07:57:25Z</time>
      </trkpt>
      <trkpt lat="45.09441" lon="6.15408">
        <ele>1761.6</ele>
        <time>2020-09-05T07:57:26Z</time>
      </trkpt>
      <trkpt lat="45.09439" lon="6.15405">
        <ele>1761.8</ele>
        <time>2020-09-05T07:57:27Z</time>
      </trkpt>
      <trkpt lat="45.09438" lon="6.15402">
        <ele>1761.8</ele>
        <time>2020-09-05T07:57:28Z</time>
      </trkpt>
      <trkpt lat="45.09436" lon="6.15399">
        <ele>1762</ele>
        <time>2020-09-05T07:57:29Z</time>
      </trkpt>
      <trkpt lat="45.09435" lon="6.15396">
        <ele>1762.2</ele>
        <time>2020-09-05T07:57:30Z</time>
      </trkpt>
      <trkpt lat="45.09433" lon="6.15393">
        <ele>1762.6</ele>
        <time>2020-09-05T07:57:31Z</time>
      </trkpt>
      <trkpt lat="45.09431" lon="6.15391">
        <ele>1762.8</ele>
        <time>2020-09-05T07:57:32Z</time>
      </trkpt>
      <trkpt lat="45.0943" lon="6.15388">
        <ele>1763.2</ele>
        <time>2020-09-05T07:57:33Z</time>
      </trkpt>
      <trkpt lat="45.09428" lon="6.15385">
        <ele>1763.4</ele>
        <time>2020-09-05T07:57:34Z</time>
      </trkpt>
      <trkpt lat="45.09427" lon="6.15383">
        <ele>1763.6</ele>
        <time>2020-09-05T07:57:35Z</time>
      </trkpt>
      <trkpt lat="45.09425" lon="6.1538">
        <ele>1763.8</ele>
        <time>2020-09-05T07:57:36Z</time>
      </trkpt>
      <trkpt lat="45.09423" lon="6.15377">
        <ele>1764.4</ele>
        <time>2020-09-05T07:57:37Z</time>
      </trkpt>
      <trkpt lat="45.09422" lon="6.15375">
        <ele>1764.4</ele>
        <time>2020-09-05T07:57:38Z</time>
      </trkpt>
      <trkpt lat="45.0942" lon="6.15372">
        <ele>1764.6</ele>
        <time>2020-09-05T07:57:39Z</time>
      </trkpt>
      <trkpt lat="45.09418" lon="6.1537">
        <ele>1765</ele>
        <time>2020-09-05T07:57:40Z</time>
      </trkpt>
      <trkpt lat="45.09417" lon="6.15367">
        <ele>1765.2</ele>
        <time>2020-09-05T07:57:41Z</time>
      </trkpt>
      <trkpt lat="45.09415" lon="6.15364">
        <ele>1765.4</ele>
        <time>2020-09-05T07:57:42Z</time>
      </trkpt>
      <trkpt lat="45.09413" lon="6.15361">
        <ele>1765.8</ele>
        <time>2020-09-05T07:57:43Z</time>
      </trkpt>
      <trkpt lat="45.09411" lon="6.15359">
        <ele>1766</ele>
        <time>2020-09-05T07:57:44Z</time>
      </trkpt>
      <trkpt lat="45.09409" lon="6.15356">
        <ele>1766.4</ele>
        <time>2020-09-05T07:57:45Z</time>
      </trkpt>
      <trkpt lat="45.09407" lon="6.15354">
        <ele>1766.6</ele>
        <time>2020-09-05T07:57:46Z</time>
      </trkpt>
      <trkpt lat="45.09406" lon="6.15351">
        <ele>1767</ele>
        <time>2020-09-05T07:57:47Z</time>
      </trkpt>
      <trkpt lat="45.09404" lon="6.15349">
        <ele>1767.4</ele>
        <time>2020-09-05T07:57:48Z</time>
      </trkpt>
      <trkpt lat="45.09402" lon="6.15346">
        <ele>1767.8</ele>
        <time>2020-09-05T07:57:49Z</time>
      </trkpt>
      <trkpt lat="45.094" lon="6.15344">
        <ele>1768.2</ele>
        <time>2020-09-05T07:57:50Z</time>
      </trkpt>
      <trkpt lat="45.09398" lon="6.15341">
        <ele>1768.2</ele>
        <time>2020-09-05T07:57:51Z</time>
      </trkpt>
      <trkpt lat="45.09397" lon="6.15339">
        <ele>1768.6</ele>
        <time>2020-09-05T07:57:52Z</time>
      </trkpt>
      <trkpt lat="45.09395" lon="6.15336">
        <ele>1768.8</ele>
        <time>2020-09-05T07:57:53Z</time>
      </trkpt>
      <trkpt lat="45.09393" lon="6.15334">
        <ele>1769.2</ele>
        <time>2020-09-05T07:57:54Z</time>
      </trkpt>
      <trkpt lat="45.09391" lon="6.15332">
        <ele>1769.4</ele>
        <time>2020-09-05T07:57:55Z</time>
      </trkpt>
      <trkpt lat="45.09389" lon="6.15329">
        <ele>1770</ele>
        <time>2020-09-05T07:57:56Z</time>
      </trkpt>
      <trkpt lat="45.09388" lon="6.15327">
        <ele>1770.6</ele>
        <time>2020-09-05T07:57:57Z</time>
      </trkpt>
      <trkpt lat="45.09386" lon="6.15324">
        <ele>1770.8</ele>
        <time>2020-09-05T07:57:58Z</time>
      </trkpt>
      <trkpt lat="45.09384" lon="6.15322">
        <ele>1771</ele>
        <time>2020-09-05T07:57:59Z</time>
      </trkpt>
      <trkpt lat="45.09382" lon="6.1532">
        <ele>1771.4</ele>
        <time>2020-09-05T07:58:00Z</time>
      </trkpt>
      <trkpt lat="45.0938" lon="6.15318">
        <ele>1771.6</ele>
        <time>2020-09-05T07:58:01Z</time>
      </trkpt>
      <trkpt lat="45.09379" lon="6.15316">
        <ele>1772</ele>
        <time>2020-09-05T07:58:02Z</time>
      </trkpt>
      <trkpt lat="45.09377" lon="6.15315">
        <ele>1772.2</ele>
        <time>2020-09-05T07:58:03Z</time>
      </trkpt>
      <trkpt lat="45.09375" lon="6.15313">
        <ele>1772.4</ele>
        <time>2020-09-05T07:58:04Z</time>
      </trkpt>
      <trkpt lat="45.09373" lon="6.15312">
        <ele>1772.8</ele>
        <time>2020-09-05T07:58:05Z</time>
      </trkpt>
      <trkpt lat="45.09371" lon="6.1531">
        <ele>1773</ele>
        <time>2020-09-05T07:58:06Z</time>
      </trkpt>
      <trkpt lat="45.09369" lon="6.15308">
        <ele>1773.2</ele>
        <time>2020-09-05T07:58:07Z</time>
      </trkpt>
      <trkpt lat="45.09367" lon="6.15306">
        <ele>1773.6</ele>
        <time>2020-09-05T07:58:08Z</time>
      </trkpt>
      <trkpt lat="45.09365" lon="6.15305">
        <ele>1773.8</ele>
        <time>2020-09-05T07:58:09Z</time>
      </trkpt>
      <trkpt lat="45.09363" lon="6.15303">
        <ele>1774.2</ele>
        <time>2020-09-05T07:58:10Z</time>
      </trkpt>
      <trkpt lat="45.09361" lon="6.15301">
        <ele>1774.6</ele>
        <time>2020-09-05T07:58:11Z</time>
      </trkpt>
      <trkpt lat="45.09359" lon="6.153">
        <ele>1774.8</ele>
        <time>2020-09-05T07:58:12Z</time>
      </trkpt>
      <trkpt lat="45.09357" lon="6.15298">
        <ele>1774.8</ele>
        <time>2020-09-05T07:58:13Z</time>
      </trkpt>
      <trkpt lat="45.09354" lon="6.15296">
        <ele>1775.2</ele>
        <time>2020-09-05T07:58:14Z</time>
      </trkpt>
      <trkpt lat="45.09352" lon="6.15294">
        <ele>1775.6</ele>
        <time>2020-09-05T07:58:15Z</time>
      </trkpt>
      <trkpt lat="45.0935" lon="6.15292">
        <ele>1775.8</ele>
        <time>2020-09-05T07:58:16Z</time>
      </trkpt>
      <trkpt lat="45.09348" lon="6.15291">
        <ele>1775.8</ele>
        <time>2020-09-05T07:58:17Z</time>
      </trkpt>
      <trkpt lat="45.09346" lon="6.15289">
        <ele>1775.8</ele>
        <time>2020-09-05T07:58:18Z</time>
      </trkpt>
      <trkpt lat="45.09343" lon="6.15288">
        <ele>1776</ele>
        <time>2020-09-05T07:58:19Z</time>
      </trkpt>
      <trkpt lat="45.09341" lon="6.15286">
        <ele>1776.2</ele>
        <time>2020-09-05T07:58:20Z</time>
      </trkpt>
      <trkpt lat="45.09338" lon="6.15285">
        <ele>1776.6</ele>
        <time>2020-09-05T07:58:21Z</time>
      </trkpt>
      <trkpt lat="45.09336" lon="6.15283">
        <ele>1776.8</ele>
        <time>2020-09-05T07:58:22Z</time>
      </trkpt>
      <trkpt lat="45.09333" lon="6.15282">
        <ele>1777.2</ele>
        <time>2020-09-05T07:58:23Z</time>
      </trkpt>
      <trkpt lat="45.09331" lon="6.15281">
        <ele>1777.4</ele>
        <time>2020-09-05T07:58:24Z</time>
      </trkpt>
      <trkpt lat="45.09328" lon="6.1528">
        <ele>1777.6</ele>
        <time>2020-09-05T07:58:25Z</time>
      </trkpt>
      <trkpt lat="45.09325" lon="6.15279">
        <ele>1777.8</ele>
        <time>2020-09-05T07:58:26Z</time>
      </trkpt>
      <trkpt lat="45.09323" lon="6.15278">
        <ele>1777.8</ele>
        <time>2020-09-05T07:58:27Z</time>
      </trkpt>
      <trkpt lat="45.0932" lon="6.15277">
        <ele>1778</ele>
        <time>2020-09-05T07:58:28Z</time>
      </trkpt>
      <trkpt lat="45.09317" lon="6.15276">
        <ele>1778</ele>
        <time>2020-09-05T07:58:29Z</time>
      </trkpt>
      <trkpt lat="45.09314" lon="6.15276">
        <ele>1778.2</ele>
        <time>2020-09-05T07:58:30Z</time>
      </trkpt>
      <trkpt lat="45.09311" lon="6.15275">
        <ele>1778.4</ele>
        <time>2020-09-05T07:58:31Z</time>
      </trkpt>
      <trkpt lat="45.09308" lon="6.15275">
        <ele>1778.6</ele>
        <time>2020-09-05T07:58:32Z</time>
      </trkpt>
      <trkpt lat="45.09305" lon="6.15274">
        <ele>1778.8</ele>
        <time>2020-09-05T07:58:33Z</time>
      </trkpt>
      <trkpt lat="45.09302" lon="6.15272">
        <ele>1778.8</ele>
        <time>2020-09-05T07:58:34Z</time>
      </trkpt>
      <trkpt lat="45.093" lon="6.1527">
        <ele>1779</ele>
        <time>2020-09-05T07:58:35Z</time>
      </trkpt>
      <trkpt lat="45.09299" lon="6.15266">
        <ele>1779.4</ele>
        <time>2020-09-05T07:58:36Z</time>
      </trkpt>
      <trkpt lat="45.09299" lon="6.15263">
        <ele>1779.8</ele>
        <time>2020-09-05T07:58:37Z</time>
      </trkpt>
      <trkpt lat="45.09302" lon="6.15261">
        <ele>1779.8</ele>
        <time>2020-09-05T07:58:38Z</time>
      </trkpt>
      <trkpt lat="45.09305" lon="6.15261">
        <ele>1780.4</ele>
        <time>2020-09-05T07:58:39Z</time>
      </trkpt>
      <trkpt lat="45.09307" lon="6.15262">
        <ele>1780.8</ele>
        <time>2020-09-05T07:58:40Z</time>
      </trkpt>
      <trkpt lat="45.0931" lon="6.15263">
        <ele>1781</ele>
        <time>2020-09-05T07:58:41Z</time>
      </trkpt>
      <trkpt lat="45.09313" lon="6.15264">
        <ele>1781.2</ele>
        <time>2020-09-05T07:58:42Z</time>
      </trkpt>
      <trkpt lat="45.09316" lon="6.15265">
        <ele>1781.2</ele>
        <time>2020-09-05T07:58:43Z</time>
      </trkpt>
      <trkpt lat="45.09318" lon="6.15266">
        <ele>1781.6</ele>
        <time>2020-09-05T07:58:44Z</time>
      </trkpt>
      <trkpt lat="45.09321" lon="6.15267">
        <ele>1781.6</ele>
        <time>2020-09-05T07:58:45Z</time>
      </trkpt>
      <trkpt lat="45.09324" lon="6.15267">
        <ele>1782</ele>
        <time>2020-09-05T07:58:46Z</time>
      </trkpt>
      <trkpt lat="45.09327" lon="6.15267">
        <ele>1782.4</ele>
        <time>2020-09-05T07:58:47Z</time>
      </trkpt>
      <trkpt lat="45.0933" lon="6.15267">
        <ele>1782.6</ele>
        <time>2020-09-05T07:58:48Z</time>
      </trkpt>
      <trkpt lat="45.09333" lon="6.15267">
        <ele>1782.8</ele>
        <time>2020-09-05T07:58:49Z</time>
      </trkpt>
      <trkpt lat="45.09335" lon="6.15268">
        <ele>1783</ele>
        <time>2020-09-05T07:58:50Z</time>
      </trkpt>
      <trkpt lat="45.09338" lon="6.15268">
        <ele>1783</ele>
        <time>2020-09-05T07:58:51Z</time>
      </trkpt>
      <trkpt lat="45.09341" lon="6.15269">
        <ele>1783</ele>
        <time>2020-09-05T07:58:52Z</time>
      </trkpt>
      <trkpt lat="45.09344" lon="6.15269">
        <ele>1783.4</ele>
        <time>2020-09-05T07:58:53Z</time>
      </trkpt>
      <trkpt lat="45.09346" lon="6.1527">
        <ele>1783.6</ele>
        <time>2020-09-05T07:58:54Z</time>
      </trkpt>
      <trkpt lat="45.0935" lon="6.1527">
        <ele>1784.2</ele>
        <time>2020-09-05T07:58:55Z</time>
      </trkpt>
      <trkpt lat="45.09353" lon="6.15271">
        <ele>1784.4</ele>
        <time>2020-09-05T07:58:56Z</time>
      </trkpt>
      <trkpt lat="45.09356" lon="6.15272">
        <ele>1784.6</ele>
        <time>2020-09-05T07:58:57Z</time>
      </trkpt>
      <trkpt lat="45.09359" lon="6.15273">
        <ele>1785</ele>
        <time>2020-09-05T07:58:58Z</time>
      </trkpt>
      <trkpt lat="45.09362" lon="6.15273">
        <ele>1785.4</ele>
        <time>2020-09-05T07:58:59Z</time>
      </trkpt>
      <trkpt lat="45.09365" lon="6.15274">
        <ele>1785.8</ele>
        <time>2020-09-05T07:59:00Z</time>
      </trkpt>
      <trkpt lat="45.09368" lon="6.15274">
        <ele>1786</ele>
        <time>2020-09-05T07:59:01Z</time>
      </trkpt>
      <trkpt lat="45.0937" lon="6.15275">
        <ele>1786.4</ele>
        <time>2020-09-05T07:59:02Z</time>
      </trkpt>
      <trkpt lat="45.09373" lon="6.15276">
        <ele>1786.6</ele>
        <time>2020-09-05T07:59:03Z</time>
      </trkpt>
      <trkpt lat="45.09376" lon="6.15276">
        <ele>1787.2</ele>
        <time>2020-09-05T07:59:04Z</time>
      </trkpt>
      <trkpt lat="45.09379" lon="6.15277">
        <ele>1787.6</ele>
        <time>2020-09-05T07:59:05Z</time>
      </trkpt>
      <trkpt lat="45.09382" lon="6.15277">
        <ele>1788</ele>
        <time>2020-09-05T07:59:06Z</time>
      </trkpt>
      <trkpt lat="45.09385" lon="6.15278">
        <ele>1788.2</ele>
        <time>2020-09-05T07:59:07Z</time>
      </trkpt>
      <trkpt lat="45.09387" lon="6.15278">
        <ele>1788.6</ele>
        <time>2020-09-05T07:59:08Z</time>
      </trkpt>
      <trkpt lat="45.0939" lon="6.15279">
        <ele>1788.8</ele>
        <time>2020-09-05T07:59:09Z</time>
      </trkpt>
      <trkpt lat="45.09392" lon="6.15279">
        <ele>1789.2</ele>
        <time>2020-09-05T07:59:10Z</time>
      </trkpt>
      <trkpt lat="45.09394" lon="6.1528">
        <ele>1789.4</ele>
        <time>2020-09-05T07:59:11Z</time>
      </trkpt>
      <trkpt lat="45.09396" lon="6.15281">
        <ele>1789.6</ele>
        <time>2020-09-05T07:59:12Z</time>
      </trkpt>
      <trkpt lat="45.09398" lon="6.15281">
        <ele>1789.8</ele>
        <time>2020-09-05T07:59:13Z</time>
      </trkpt>
      <trkpt lat="45.094" lon="6.15282">
        <ele>1790.2</ele>
        <time>2020-09-05T07:59:14Z</time>
      </trkpt>
      <trkpt lat="45.09402" lon="6.15283">
        <ele>1790.4</ele>
        <time>2020-09-05T07:59:15Z</time>
      </trkpt>
      <trkpt lat="45.09404" lon="6.15284">
        <ele>1790.8</ele>
        <time>2020-09-05T07:59:16Z</time>
      </trkpt>
      <trkpt lat="45.09406" lon="6.15285">
        <ele>1791</ele>
        <time>2020-09-05T07:59:17Z</time>
      </trkpt>
      <trkpt lat="45.09409" lon="6.15286">
        <ele>1791.6</ele>
        <time>2020-09-05T07:59:18Z</time>
      </trkpt>
      <trkpt lat="45.09411" lon="6.15287">
        <ele>1792</ele>
        <time>2020-09-05T07:59:19Z</time>
      </trkpt>
      <trkpt lat="45.09413" lon="6.15288">
        <ele>1792</ele>
        <time>2020-09-05T07:59:20Z</time>
      </trkpt>
      <trkpt lat="45.09415" lon="6.15289">
        <ele>1792.2</ele>
        <time>2020-09-05T07:59:21Z</time>
      </trkpt>
      <trkpt lat="45.09418" lon="6.1529">
        <ele>1792.4</ele>
        <time>2020-09-05T07:59:22Z</time>
      </trkpt>
      <trkpt lat="45.0942" lon="6.15291">
        <ele>1792.6</ele>
        <time>2020-09-05T07:59:23Z</time>
      </trkpt>
      <trkpt lat="45.09422" lon="6.15292">
        <ele>1793</ele>
        <time>2020-09-05T07:59:24Z</time>
      </trkpt>
      <trkpt lat="45.09424" lon="6.15293">
        <ele>1793</ele>
        <time>2020-09-05T07:59:25Z</time>
      </trkpt>
      <trkpt lat="45.09427" lon="6.15293">
        <ele>1793.4</ele>
        <time>2020-09-05T07:59:26Z</time>
      </trkpt>
      <trkpt lat="45.09429" lon="6.15294">
        <ele>1793.8</ele>
        <time>2020-09-05T07:59:27Z</time>
      </trkpt>
      <trkpt lat="45.09431" lon="6.15294">
        <ele>1794</ele>
        <time>2020-09-05T07:59:28Z</time>
      </trkpt>
      <trkpt lat="45.09434" lon="6.15295">
        <ele>1794.4</ele>
        <time>2020-09-05T07:59:29Z</time>
      </trkpt>
      <trkpt lat="45.09436" lon="6.15296">
        <ele>1794.6</ele>
        <time>2020-09-05T07:59:30Z</time>
      </trkpt>
      <trkpt lat="45.09438" lon="6.15297">
        <ele>1795.2</ele>
        <time>2020-09-05T07:59:31Z</time>
      </trkpt>
      <trkpt lat="45.09441" lon="6.15299">
        <ele>1795.4</ele>
        <time>2020-09-05T07:59:32Z</time>
      </trkpt>
      <trkpt lat="45.09443" lon="6.153">
        <ele>1795.6</ele>
        <time>2020-09-05T07:59:33Z</time>
      </trkpt>
      <trkpt lat="45.09445" lon="6.15301">
        <ele>1795.8</ele>
        <time>2020-09-05T07:59:34Z</time>
      </trkpt>
      <trkpt lat="45.09447" lon="6.15302">
        <ele>1796</ele>
        <time>2020-09-05T07:59:35Z</time>
      </trkpt>
      <trkpt lat="45.09449" lon="6.15303">
        <ele>1796.4</ele>
        <time>2020-09-05T07:59:36Z</time>
      </trkpt>
      <trkpt lat="45.09452" lon="6.15304">
        <ele>1796.6</ele>
        <time>2020-09-05T07:59:37Z</time>
      </trkpt>
      <trkpt lat="45.09454" lon="6.15306">
        <ele>1796.8</ele>
        <time>2020-09-05T07:59:38Z</time>
      </trkpt>
      <trkpt lat="45.09456" lon="6.15307">
        <ele>1797.2</ele>
        <time>2020-09-05T07:59:39Z</time>
      </trkpt>
      <trkpt lat="45.09458" lon="6.15308">
        <ele>1797.4</ele>
        <time>2020-09-05T07:59:40Z</time>
      </trkpt>
      <trkpt lat="45.0946" lon="6.15309">
        <ele>1797.8</ele>
        <time>2020-09-05T07:59:41Z</time>
      </trkpt>
      <trkpt lat="45.09462" lon="6.15311">
        <ele>1798</ele>
        <time>2020-09-05T07:59:42Z</time>
      </trkpt>
      <trkpt lat="45.09465" lon="6.15312">
        <ele>1798.4</ele>
        <time>2020-09-05T07:59:43Z</time>
      </trkpt>
      <trkpt lat="45.09467" lon="6.15313">
        <ele>1798.8</ele>
        <time>2020-09-05T07:59:44Z</time>
      </trkpt>
      <trkpt lat="45.09469" lon="6.15314">
        <ele>1799</ele>
        <time>2020-09-05T07:59:45Z</time>
      </trkpt>
      <trkpt lat="45.09471" lon="6.15316">
        <ele>1799</ele>
        <time>2020-09-05T07:59:46Z</time>
      </trkpt>
      <trkpt lat="45.09473" lon="6.15317">
        <ele>1799.2</ele>
        <time>2020-09-05T07:59:47Z</time>
      </trkpt>
      <trkpt lat="45.09476" lon="6.15319">
        <ele>1799.6</ele>
        <time>2020-09-05T07:59:48Z</time>
      </trkpt>
      <trkpt lat="45.09478" lon="6.1532">
        <ele>1799.8</ele>
        <time>2020-09-05T07:59:49Z</time>
      </trkpt>
      <trkpt lat="45.0948" lon="6.15321">
        <ele>1800.2</ele>
        <time>2020-09-05T07:59:50Z</time>
      </trkpt>
      <trkpt lat="45.09482" lon="6.15322">
        <ele>1800.6</ele>
        <time>2020-09-05T07:59:51Z</time>
      </trkpt>
      <trkpt lat="45.09485" lon="6.15323">
        <ele>1800.8</ele>
        <time>2020-09-05T07:59:52Z</time>
      </trkpt>
      <trkpt lat="45.09487" lon="6.15324">
        <ele>1801.2</ele>
        <time>2020-09-05T07:59:53Z</time>
      </trkpt>
      <trkpt lat="45.0949" lon="6.15325">
        <ele>1801.2</ele>
        <time>2020-09-05T07:59:54Z</time>
      </trkpt>
      <trkpt lat="45.09493" lon="6.15326">
        <ele>1801.4</ele>
        <time>2020-09-05T07:59:55Z</time>
      </trkpt>
      <trkpt lat="45.09495" lon="6.15327">
        <ele>1801.6</ele>
        <time>2020-09-05T07:59:56Z</time>
      </trkpt>
      <trkpt lat="45.09498" lon="6.15329">
        <ele>1802</ele>
        <time>2020-09-05T07:59:57Z</time>
      </trkpt>
      <trkpt lat="45.09501" lon="6.1533">
        <ele>1802.6</ele>
        <time>2020-09-05T07:59:58Z</time>
      </trkpt>
      <trkpt lat="45.09503" lon="6.15331">
        <ele>1803</ele>
        <time>2020-09-05T07:59:59Z</time>
      </trkpt>
      <trkpt lat="45.09506" lon="6.15332">
        <ele>1803.2</ele>
        <time>2020-09-05T08:00:00Z</time>
      </trkpt>
      <trkpt lat="45.09508" lon="6.15334">
        <ele>1803.4</ele>
        <time>2020-09-05T08:00:01Z</time>
      </trkpt>
      <trkpt lat="45.0951" lon="6.15335">
        <ele>1803.8</ele>
        <time>2020-09-05T08:00:02Z</time>
      </trkpt>
      <trkpt lat="45.09512" lon="6.15336">
        <ele>1804</ele>
        <time>2020-09-05T08:00:03Z</time>
      </trkpt>
      <trkpt lat="45.09514" lon="6.15337">
        <ele>1804.4</ele>
        <time>2020-09-05T08:00:04Z</time>
      </trkpt>
      <trkpt lat="45.09516" lon="6.15338">
        <ele>1804.4</ele>
        <time>2020-09-05T08:00:05Z</time>
      </trkpt>
      <trkpt lat="45.09518" lon="6.15339">
        <ele>1804.8</ele>
        <time>2020-09-05T08:00:06Z</time>
      </trkpt>
      <trkpt lat="45.0952" lon="6.1534">
        <ele>1804.8</ele>
        <time>2020-09-05T08:00:07Z</time>
      </trkpt>
      <trkpt lat="45.09522" lon="6.15341">
        <ele>1805.2</ele>
        <time>2020-09-05T08:00:08Z</time>
      </trkpt>
      <trkpt lat="45.09524" lon="6.15342">
        <ele>1805.2</ele>
        <time>2020-09-05T08:00:09Z</time>
      </trkpt>
      <trkpt lat="45.09526" lon="6.15343">
        <ele>1805.4</ele>
        <time>2020-09-05T08:00:10Z</time>
      </trkpt>
      <trkpt lat="45.09528" lon="6.15344">
        <ele>1805.8</ele>
        <time>2020-09-05T08:00:11Z</time>
      </trkpt>
      <trkpt lat="45.0953" lon="6.15345">
        <ele>1806</ele>
        <time>2020-09-05T08:00:12Z</time>
      </trkpt>
      <trkpt lat="45.09533" lon="6.15345">
        <ele>1806.4</ele>
        <time>2020-09-05T08:00:13Z</time>
      </trkpt>
      <trkpt lat="45.09535" lon="6.15346">
        <ele>1806.8</ele>
        <time>2020-09-05T08:00:14Z</time>
      </trkpt>
      <trkpt lat="45.09537" lon="6.15347">
        <ele>1806.8</ele>
        <time>2020-09-05T08:00:15Z</time>
      </trkpt>
      <trkpt lat="45.09539" lon="6.15348">
        <ele>1807.2</ele>
        <time>2020-09-05T08:00:16Z</time>
      </trkpt>
      <trkpt lat="45.09541" lon="6.15349">
        <ele>1807.4</ele>
        <time>2020-09-05T08:00:17Z</time>
      </trkpt>
      <trkpt lat="45.09544" lon="6.1535">
        <ele>1807.6</ele>
        <time>2020-09-05T08:00:18Z</time>
      </trkpt>
      <trkpt lat="45.09546" lon="6.15351">
        <ele>1808</ele>
        <time>2020-09-05T08:00:19Z</time>
      </trkpt>
      <trkpt lat="45.09548" lon="6.15351">
        <ele>1808.2</ele>
        <time>2020-09-05T08:00:20Z</time>
      </trkpt>
      <trkpt lat="45.09551" lon="6.15353">
        <ele>1808.6</ele>
        <time>2020-09-05T08:00:21Z</time>
      </trkpt>
      <trkpt lat="45.09553" lon="6.15354">
        <ele>1808.8</ele>
        <time>2020-09-05T08:00:22Z</time>
      </trkpt>
      <trkpt lat="45.09555" lon="6.15355">
        <ele>1809</ele>
        <time>2020-09-05T08:00:23Z</time>
      </trkpt>
      <trkpt lat="45.09557" lon="6.15356">
        <ele>1809.2</ele>
        <time>2020-09-05T08:00:24Z</time>
      </trkpt>
      <trkpt lat="45.09559" lon="6.15356">
        <ele>1809.4</ele>
        <time>2020-09-05T08:00:25Z</time>
      </trkpt>
      <trkpt lat="45.09562" lon="6.15357">
        <ele>1809.8</ele>
        <time>2020-09-05T08:00:26Z</time>
      </trkpt>
      <trkpt lat="45.09564" lon="6.15357">
        <ele>1810</ele>
        <time>2020-09-05T08:00:27Z</time>
      </trkpt>
      <trkpt lat="45.09566" lon="6.15359">
        <ele>1810.4</ele>
        <time>2020-09-05T08:00:28Z</time>
      </trkpt>
      <trkpt lat="45.09568" lon="6.1536">
        <ele>1810.8</ele>
        <time>2020-09-05T08:00:29Z</time>
      </trkpt>
      <trkpt lat="45.0957" lon="6.15361">
        <ele>1811.2</ele>
        <time>2020-09-05T08:00:30Z</time>
      </trkpt>
      <trkpt lat="45.09573" lon="6.15362">
        <ele>1811.4</ele>
        <time>2020-09-05T08:00:31Z</time>
      </trkpt>
      <trkpt lat="45.09575" lon="6.15363">
        <ele>1811.6</ele>
        <time>2020-09-05T08:00:32Z</time>
      </trkpt>
      <trkpt lat="45.09577" lon="6.15364">
        <ele>1812</ele>
        <time>2020-09-05T08:00:33Z</time>
      </trkpt>
      <trkpt lat="45.0958" lon="6.15365">
        <ele>1812.4</ele>
        <time>2020-09-05T08:00:34Z</time>
      </trkpt>
      <trkpt lat="45.09582" lon="6.15366">
        <ele>1812.6</ele>
        <time>2020-09-05T08:00:35Z</time>
      </trkpt>
      <trkpt lat="45.09584" lon="6.15367">
        <ele>1813</ele>
        <time>2020-09-05T08:00:36Z</time>
      </trkpt>
      <trkpt lat="45.09586" lon="6.15368">
        <ele>1813.4</ele>
        <time>2020-09-05T08:00:37Z</time>
      </trkpt>
      <trkpt lat="45.09589" lon="6.15369">
        <ele>1813.8</ele>
        <time>2020-09-05T08:00:38Z</time>
      </trkpt>
      <trkpt lat="45.09591" lon="6.1537">
        <ele>1814.2</ele>
        <time>2020-09-05T08:00:39Z</time>
      </trkpt>
      <trkpt lat="45.09594" lon="6.15371">
        <ele>1814.2</ele>
        <time>2020-09-05T08:00:40Z</time>
      </trkpt>
      <trkpt lat="45.09596" lon="6.15371">
        <ele>1814.4</ele>
        <time>2020-09-05T08:00:41Z</time>
      </trkpt>
      <trkpt lat="45.09599" lon="6.15372">
        <ele>1814.8</ele>
        <time>2020-09-05T08:00:42Z</time>
      </trkpt>
      <trkpt lat="45.09601" lon="6.15373">
        <ele>1815</ele>
        <time>2020-09-05T08:00:43Z</time>
      </trkpt>
      <trkpt lat="45.09603" lon="6.15374">
        <ele>1815.2</ele>
        <time>2020-09-05T08:00:44Z</time>
      </trkpt>
      <trkpt lat="45.09606" lon="6.15375">
        <ele>1815.4</ele>
        <time>2020-09-05T08:00:45Z</time>
      </trkpt>
      <trkpt lat="45.09608" lon="6.15375">
        <ele>1815.8</ele>
        <time>2020-09-05T08:00:46Z</time>
      </trkpt>
      <trkpt lat="45.09611" lon="6.15376">
        <ele>1816</ele>
        <time>2020-09-05T08:00:47Z</time>
      </trkpt>
      <trkpt lat="45.09613" lon="6.15378">
        <ele>1816.2</ele>
        <time>2020-09-05T08:00:48Z</time>
      </trkpt>
      <trkpt lat="45.09615" lon="6.15379">
        <ele>1816.6</ele>
        <time>2020-09-05T08:00:49Z</time>
      </trkpt>
      <trkpt lat="45.09617" lon="6.15381">
        <ele>1816.8</ele>
        <time>2020-09-05T08:00:50Z</time>
      </trkpt>
      <trkpt lat="45.0962" lon="6.15382">
        <ele>1817</ele>
        <time>2020-09-05T08:00:51Z</time>
      </trkpt>
      <trkpt lat="45.09622" lon="6.15383">
        <ele>1817.2</ele>
        <time>2020-09-05T08:00:52Z</time>
      </trkpt>
      <trkpt lat="45.09624" lon="6.15384">
        <ele>1817.6</ele>
        <time>2020-09-05T08:00:53Z</time>
      </trkpt>
      <trkpt lat="45.09626" lon="6.15385">
        <ele>1817.6</ele>
        <time>2020-09-05T08:00:54Z</time>
      </trkpt>
      <trkpt lat="45.09629" lon="6.15386">
        <ele>1818</ele>
        <time>2020-09-05T08:00:55Z</time>
      </trkpt>
      <trkpt lat="45.09631" lon="6.15388">
        <ele>1818.4</ele>
        <time>2020-09-05T08:00:56Z</time>
      </trkpt>
      <trkpt lat="45.09633" lon="6.15389">
        <ele>1818.8</ele>
        <time>2020-09-05T08:00:57Z</time>
      </trkpt>
      <trkpt lat="45.09635" lon="6.1539">
        <ele>1819.2</ele>
        <time>2020-09-05T08:00:58Z</time>
      </trkpt>
      <trkpt lat="45.09637" lon="6.15392">
        <ele>1819.4</ele>
        <time>2020-09-05T08:00:59Z</time>
      </trkpt>
      <trkpt lat="45.09639" lon="6.15393">
        <ele>1819.6</ele>
        <time>2020-09-05T08:01:00Z</time>
      </trkpt>
      <trkpt lat="45.09641" lon="6.15395">
        <ele>1819.8</ele>
        <time>2020-09-05T08:01:01Z</time>
      </trkpt>
      <trkpt lat="45.09644" lon="6.15397">
        <ele>1820.2</ele>
        <time>2020-09-05T08:01:02Z</time>
      </trkpt>
      <trkpt lat="45.09646" lon="6.15399">
        <ele>1820.6</ele>
        <time>2020-09-05T08:01:03Z</time>
      </trkpt>
      <trkpt lat="45.09648" lon="6.15401">
        <ele>1821</ele>
        <time>2020-09-05T08:01:04Z</time>
      </trkpt>
      <trkpt lat="45.0965" lon="6.15403">
        <ele>1821.2</ele>
        <time>2020-09-05T08:01:05Z</time>
      </trkpt>
      <trkpt lat="45.09652" lon="6.15405">
        <ele>1821.4</ele>
        <time>2020-09-05T08:01:06Z</time>
      </trkpt>
      <trkpt lat="45.09654" lon="6.15407">
        <ele>1821.6</ele>
        <time>2020-09-05T08:01:07Z</time>
      </trkpt>
      <trkpt lat="45.09656" lon="6.15409">
        <ele>1821.6</ele>
        <time>2020-09-05T08:01:08Z</time>
      </trkpt>
      <trkpt lat="45.09658" lon="6.1541">
        <ele>1822</ele>
        <time>2020-09-05T08:01:09Z</time>
      </trkpt>
      <trkpt lat="45.0966" lon="6.15412">
        <ele>1822</ele>
        <time>2020-09-05T08:01:10Z</time>
      </trkpt>
      <trkpt lat="45.09662" lon="6.15414">
        <ele>1822.4</ele>
        <time>2020-09-05T08:01:11Z</time>
      </trkpt>
      <trkpt lat="45.09665" lon="6.15416">
        <ele>1822.6</ele>
        <time>2020-09-05T08:01:12Z</time>
      </trkpt>
      <trkpt lat="45.09667" lon="6.15418">
        <ele>1823.2</ele>
        <time>2020-09-05T08:01:13Z</time>
      </trkpt>
      <trkpt lat="45.09669" lon="6.1542">
        <ele>1823.2</ele>
        <time>2020-09-05T08:01:14Z</time>
      </trkpt>
      <trkpt lat="45.09672" lon="6.15421">
        <ele>1823.8</ele>
        <time>2020-09-05T08:01:15Z</time>
      </trkpt>
      <trkpt lat="45.09674" lon="6.15422">
        <ele>1824.2</ele>
        <time>2020-09-05T08:01:16Z</time>
      </trkpt>
      <trkpt lat="45.09677" lon="6.15424">
        <ele>1824.4</ele>
        <time>2020-09-05T08:01:17Z</time>
      </trkpt>
      <trkpt lat="45.09679" lon="6.15425">
        <ele>1824.6</ele>
        <time>2020-09-05T08:01:18Z</time>
      </trkpt>
      <trkpt lat="45.09681" lon="6.15426">
        <ele>1824.8</ele>
        <time>2020-09-05T08:01:19Z</time>
      </trkpt>
      <trkpt lat="45.09683" lon="6.15427">
        <ele>1825.2</ele>
        <time>2020-09-05T08:01:20Z</time>
      </trkpt>
      <trkpt lat="45.09685" lon="6.15428">
        <ele>1825.4</ele>
        <time>2020-09-05T08:01:21Z</time>
      </trkpt>
      <trkpt lat="45.09687" lon="6.15429">
        <ele>1825.6</ele>
        <time>2020-09-05T08:01:22Z</time>
      </trkpt>
      <trkpt lat="45.09689" lon="6.1543">
        <ele>1825.8</ele>
        <time>2020-09-05T08:01:23Z</time>
      </trkpt>
      <trkpt lat="45.09691" lon="6.15432">
        <ele>1826.2</ele>
        <time>2020-09-05T08:01:24Z</time>
      </trkpt>
      <trkpt lat="45.09693" lon="6.15433">
        <ele>1826.4</ele>
        <time>2020-09-05T08:01:25Z</time>
      </trkpt>
      <trkpt lat="45.09695" lon="6.15434">
        <ele>1827</ele>
        <time>2020-09-05T08:01:26Z</time>
      </trkpt>
      <trkpt lat="45.09697" lon="6.15435">
        <ele>1827.2</ele>
        <time>2020-09-05T08:01:27Z</time>
      </trkpt>
      <trkpt lat="45.09699" lon="6.15436">
        <ele>1827.6</ele>
        <time>2020-09-05T08:01:28Z</time>
      </trkpt>
      <trkpt lat="45.09701" lon="6.15437">
        <ele>1827.8</ele>
        <time>2020-09-05T08:01:29Z</time>
      </trkpt>
      <trkpt lat="45.09704" lon="6.15438">
        <ele>1828.2</ele>
        <time>2020-09-05T08:01:30Z</time>
      </trkpt>
      <trkpt lat="45.09706" lon="6.15439">
        <ele>1828.4</ele>
        <time>2020-09-05T08:01:31Z</time>
      </trkpt>
      <trkpt lat="45.09708" lon="6.1544">
        <ele>1828.6</ele>
        <time>2020-09-05T08:01:32Z</time>
      </trkpt>
      <trkpt lat="45.0971" lon="6.15442">
        <ele>1829</ele>
        <time>2020-09-05T08:01:33Z</time>
      </trkpt>
      <trkpt lat="45.09713" lon="6.15443">
        <ele>1829.2</ele>
        <time>2020-09-05T08:01:34Z</time>
      </trkpt>
      <trkpt lat="45.09715" lon="6.15445">
        <ele>1829.2</ele>
        <time>2020-09-05T08:01:35Z</time>
      </trkpt>
      <trkpt lat="45.09717" lon="6.15447">
        <ele>1829.6</ele>
        <time>2020-09-05T08:01:36Z</time>
      </trkpt>
      <trkpt lat="45.09719" lon="6.15449">
        <ele>1829.6</ele>
        <time>2020-09-05T08:01:37Z</time>
      </trkpt>
      <trkpt lat="45.09722" lon="6.15451">
        <ele>1829.6</ele>
        <time>2020-09-05T08:01:38Z</time>
      </trkpt>
      <trkpt lat="45.09724" lon="6.15452">
        <ele>1829.8</ele>
        <time>2020-09-05T08:01:39Z</time>
      </trkpt>
      <trkpt lat="45.09726" lon="6.15453">
        <ele>1830</ele>
        <time>2020-09-05T08:01:40Z</time>
      </trkpt>
      <trkpt lat="45.09729" lon="6.15453">
        <ele>1830.2</ele>
        <time>2020-09-05T08:01:41Z</time>
      </trkpt>
      <trkpt lat="45.09731" lon="6.15451">
        <ele>1830.6</ele>
        <time>2020-09-05T08:01:42Z</time>
      </trkpt>
      <trkpt lat="45.09731" lon="6.15448">
        <ele>1830.8</ele>
        <time>2020-09-05T08:01:43Z</time>
      </trkpt>
      <trkpt lat="45.09731" lon="6.15444">
        <ele>1831</ele>
        <time>2020-09-05T08:01:44Z</time>
      </trkpt>
      <trkpt lat="45.0973" lon="6.15441">
        <ele>1831.2</ele>
        <time>2020-09-05T08:01:45Z</time>
      </trkpt>
      <trkpt lat="45.09728" lon="6.15438">
        <ele>1831.4</ele>
        <time>2020-09-05T08:01:46Z</time>
      </trkpt>
      <trkpt lat="45.09726" lon="6.15435">
        <ele>1831.6</ele>
        <time>2020-09-05T08:01:47Z</time>
      </trkpt>
      <trkpt lat="45.09724" lon="6.15432">
        <ele>1831.8</ele>
        <time>2020-09-05T08:01:48Z</time>
      </trkpt>
      <trkpt lat="45.09722" lon="6.15431">
        <ele>1832.2</ele>
        <time>2020-09-05T08:01:49Z</time>
      </trkpt>
      <trkpt lat="45.0972" lon="6.15429">
        <ele>1832.6</ele>
        <time>2020-09-05T08:01:50Z</time>
      </trkpt>
      <trkpt lat="45.09717" lon="6.15428">
        <ele>1833</ele>
        <time>2020-09-05T08:01:51Z</time>
      </trkpt>
      <trkpt lat="45.09715" lon="6.15426">
        <ele>1833</ele>
        <time>2020-09-05T08:01:52Z</time>
      </trkpt>
      <trkpt lat="45.09713" lon="6.15424">
        <ele>1833.2</ele>
        <time>2020-09-05T08:01:53Z</time>
      </trkpt>
      <trkpt lat="45.0971" lon="6.15422">
        <ele>1833.6</ele>
        <time>2020-09-05T08:01:54Z</time>
      </trkpt>
      <trkpt lat="45.09708" lon="6.1542">
        <ele>1833.6</ele>
        <time>2020-09-05T08:01:55Z</time>
      </trkpt>
      <trkpt lat="45.09706" lon="6.15418">
        <ele>1833.6</ele>
        <time>2020-09-05T08:01:56Z</time>
      </trkpt>
      <trkpt lat="45.09703" lon="6.15415">
        <ele>1834</ele>
        <time>2020-09-05T08:01:57Z</time>
      </trkpt>
      <trkpt lat="45.09701" lon="6.15413">
        <ele>1834</ele>
        <time>2020-09-05T08:01:58Z</time>
      </trkpt>
      <trkpt lat="45.09699" lon="6.15411">
        <ele>1834.6</ele>
        <time>2020-09-05T08:01:59Z</time>
      </trkpt>
      <trkpt lat="45.09696" lon="6.15409">
        <ele>1834.8</ele>
        <time>2020-09-05T08:02:00Z</time>
      </trkpt>
      <trkpt lat="45.09694" lon="6.15407">
        <ele>1835</ele>
        <time>2020-09-05T08:02:01Z</time>
      </trkpt>
      <trkpt lat="45.09692" lon="6.15404">
        <ele>1835.4</ele>
        <time>2020-09-05T08:02:02Z</time>
      </trkpt>
      <trkpt lat="45.09689" lon="6.15402">
        <ele>1835.8</ele>
        <time>2020-09-05T08:02:03Z</time>
      </trkpt>
      <trkpt lat="45.09687" lon="6.154">
        <ele>1836.2</ele>
        <time>2020-09-05T08:02:04Z</time>
      </trkpt>
      <trkpt lat="45.09685" lon="6.15398">
        <ele>1836.4</ele>
        <time>2020-09-05T08:02:05Z</time>
      </trkpt>
      <trkpt lat="45.09683" lon="6.15395">
        <ele>1836.6</ele>
        <time>2020-09-05T08:02:06Z</time>
      </trkpt>
      <trkpt lat="45.09681" lon="6.15392">
        <ele>1837</ele>
        <time>2020-09-05T08:02:07Z</time>
      </trkpt>
      <trkpt lat="45.09678" lon="6.15389">
        <ele>1837.4</ele>
        <time>2020-09-05T08:02:08Z</time>
      </trkpt>
      <trkpt lat="45.09676" lon="6.15387">
        <ele>1837.8</ele>
        <time>2020-09-05T08:02:09Z</time>
      </trkpt>
      <trkpt lat="45.09674" lon="6.15383">
        <ele>1838</ele>
        <time>2020-09-05T08:02:10Z</time>
      </trkpt>
      <trkpt lat="45.09672" lon="6.1538">
        <ele>1838.2</ele>
        <time>2020-09-05T08:02:11Z</time>
      </trkpt>
      <trkpt lat="45.0967" lon="6.15377">
        <ele>1838.4</ele>
        <time>2020-09-05T08:02:12Z</time>
      </trkpt>
      <trkpt lat="45.09667" lon="6.15375">
        <ele>1838.4</ele>
        <time>2020-09-05T08:02:13Z</time>
      </trkpt>
      <trkpt lat="45.09665" lon="6.15372">
        <ele>1838.8</ele>
        <time>2020-09-05T08:02:14Z</time>
      </trkpt>
      <trkpt lat="45.09663" lon="6.15369">
        <ele>1839</ele>
        <time>2020-09-05T08:02:15Z</time>
      </trkpt>
      <trkpt lat="45.09661" lon="6.15367">
        <ele>1839.2</ele>
        <time>2020-09-05T08:02:16Z</time>
      </trkpt>
      <trkpt lat="45.09658" lon="6.15365">
        <ele>1839.4</ele>
        <time>2020-09-05T08:02:17Z</time>
      </trkpt>
      <trkpt lat="45.09655" lon="6.15363">
        <ele>1839.8</ele>
        <time>2020-09-05T08:02:18Z</time>
      </trkpt>
      <trkpt lat="45.09653" lon="6.15361">
        <ele>1840.2</ele>
        <time>2020-09-05T08:02:19Z</time>
      </trkpt>
      <trkpt lat="45.0965" lon="6.15359">
        <ele>1840.4</ele>
        <time>2020-09-05T08:02:20Z</time>
      </trkpt>
      <trkpt lat="45.09648" lon="6.15357">
        <ele>1840.4</ele>
        <time>2020-09-05T08:02:21Z</time>
      </trkpt>
      <trkpt lat="45.09645" lon="6.15355">
        <ele>1840.6</ele>
        <time>2020-09-05T08:02:22Z</time>
      </trkpt>
      <trkpt lat="45.09642" lon="6.15353">
        <ele>1841</ele>
        <time>2020-09-05T08:02:23Z</time>
      </trkpt>
      <trkpt lat="45.0964" lon="6.15351">
        <ele>1841</ele>
        <time>2020-09-05T08:02:24Z</time>
      </trkpt>
      <trkpt lat="45.09638" lon="6.15349">
        <ele>1841.2</ele>
        <time>2020-09-05T08:02:25Z</time>
      </trkpt>
      <trkpt lat="45.09635" lon="6.15347">
        <ele>1841.6</ele>
        <time>2020-09-05T08:02:26Z</time>
      </trkpt>
      <trkpt lat="45.09633" lon="6.15344">
        <ele>1841.8</ele>
        <time>2020-09-05T08:02:27Z</time>
      </trkpt>
      <trkpt lat="45.09631" lon="6.15342">
        <ele>1841.8</ele>
        <time>2020-09-05T08:02:28Z</time>
      </trkpt>
      <trkpt lat="45.09629" lon="6.1534">
        <ele>1842.4</ele>
        <time>2020-09-05T08:02:29Z</time>
      </trkpt>
      <trkpt lat="45.09626" lon="6.15337">
        <ele>1842.6</ele>
        <time>2020-09-05T08:02:30Z</time>
      </trkpt>
      <trkpt lat="45.09624" lon="6.15335">
        <ele>1842.8</ele>
        <time>2020-09-05T08:02:31Z</time>
      </trkpt>
      <trkpt lat="45.09622" lon="6.15333">
        <ele>1842.8</ele>
        <time>2020-09-05T08:02:32Z</time>
      </trkpt>
      <trkpt lat="45.0962" lon="6.1533">
        <ele>1843.2</ele>
        <time>2020-09-05T08:02:33Z</time>
      </trkpt>
      <trkpt lat="45.09617" lon="6.15328">
        <ele>1843.6</ele>
        <time>2020-09-05T08:02:34Z</time>
      </trkpt>
      <trkpt lat="45.09615" lon="6.15326">
        <ele>1843.6</ele>
        <time>2020-09-05T08:02:35Z</time>
      </trkpt>
      <trkpt lat="45.09613" lon="6.15324">
        <ele>1844</ele>
        <time>2020-09-05T08:02:36Z</time>
      </trkpt>
      <trkpt lat="45.09611" lon="6.15322">
        <ele>1844.2</ele>
        <time>2020-09-05T08:02:37Z</time>
      </trkpt>
      <trkpt lat="45.09608" lon="6.15319">
        <ele>1844.6</ele>
        <time>2020-09-05T08:02:38Z</time>
      </trkpt>
      <trkpt lat="45.09606" lon="6.15316">
        <ele>1844.8</ele>
        <time>2020-09-05T08:02:39Z</time>
      </trkpt>
      <trkpt lat="45.09604" lon="6.15314">
        <ele>1845.2</ele>
        <time>2020-09-05T08:02:40Z</time>
      </trkpt>
      <trkpt lat="45.09602" lon="6.15311">
        <ele>1845.4</ele>
        <time>2020-09-05T08:02:41Z</time>
      </trkpt>
      <trkpt lat="45.096" lon="6.15308">
        <ele>1845.8</ele>
        <time>2020-09-05T08:02:42Z</time>
      </trkpt>
      <trkpt lat="45.09598" lon="6.15305">
        <ele>1846.2</ele>
        <time>2020-09-05T08:02:43Z</time>
      </trkpt>
      <trkpt lat="45.09596" lon="6.15302">
        <ele>1846.6</ele>
        <time>2020-09-05T08:02:44Z</time>
      </trkpt>
      <trkpt lat="45.09595" lon="6.15299">
        <ele>1847</ele>
        <time>2020-09-05T08:02:45Z</time>
      </trkpt>
      <trkpt lat="45.09594" lon="6.15296">
        <ele>1847.4</ele>
        <time>2020-09-05T08:02:46Z</time>
      </trkpt>
      <trkpt lat="45.09592" lon="6.15294">
        <ele>1847.8</ele>
        <time>2020-09-05T08:02:47Z</time>
      </trkpt>
      <trkpt lat="45.09591" lon="6.15291">
        <ele>1847.8</ele>
        <time>2020-09-05T08:02:48Z</time>
      </trkpt>
      <trkpt lat="45.0959" lon="6.15289">
        <ele>1848.2</ele>
        <time>2020-09-05T08:02:49Z</time>
      </trkpt>
      <trkpt lat="45.09588" lon="6.15286">
        <ele>1848.6</ele>
        <time>2020-09-05T08:02:50Z</time>
      </trkpt>
      <trkpt lat="45.09587" lon="6.15284">
        <ele>1848.6</ele>
        <time>2020-09-05T08:02:51Z</time>
      </trkpt>
      <trkpt lat="45.09585" lon="6.15281">
        <ele>1848.8</ele>
        <time>2020-09-05T08:02:52Z</time>
      </trkpt>
      <trkpt lat="45.09584" lon="6.15279">
        <ele>1849.2</ele>
        <time>2020-09-05T08:02:53Z</time>
      </trkpt>
      <trkpt lat="45.09583" lon="6.15276">
        <ele>1849.6</ele>
        <time>2020-09-05T08:02:54Z</time>
      </trkpt>
      <trkpt lat="45.09581" lon="6.15274">
        <ele>1849.8</ele>
        <time>2020-09-05T08:02:55Z</time>
      </trkpt>
      <trkpt lat="45.0958" lon="6.15272">
        <ele>1850</ele>
        <time>2020-09-05T08:02:56Z</time>
      </trkpt>
      <trkpt lat="45.09578" lon="6.15269">
        <ele>1850.2</ele>
        <time>2020-09-05T08:02:57Z</time>
      </trkpt>
      <trkpt lat="45.09577" lon="6.15267">
        <ele>1850.8</ele>
        <time>2020-09-05T08:02:58Z</time>
      </trkpt>
      <trkpt lat="45.09576" lon="6.15265">
        <ele>1850.8</ele>
        <time>2020-09-05T08:02:59Z</time>
      </trkpt>
      <trkpt lat="45.09574" lon="6.15263">
        <ele>1851.2</ele>
        <time>2020-09-05T08:03:00Z</time>
      </trkpt>
      <trkpt lat="45.09572" lon="6.15261">
        <ele>1851.4</ele>
        <time>2020-09-05T08:03:01Z</time>
      </trkpt>
      <trkpt lat="45.0957" lon="6.1526">
        <ele>1851.6</ele>
        <time>2020-09-05T08:03:02Z</time>
      </trkpt>
      <trkpt lat="45.09569" lon="6.15258">
        <ele>1851.8</ele>
        <time>2020-09-05T08:03:03Z</time>
      </trkpt>
      <trkpt lat="45.09567" lon="6.15256">
        <ele>1852.4</ele>
        <time>2020-09-05T08:03:04Z</time>
      </trkpt>
      <trkpt lat="45.09565" lon="6.15254">
        <ele>1852.6</ele>
        <time>2020-09-05T08:03:05Z</time>
      </trkpt>
      <trkpt lat="45.09563" lon="6.15252">
        <ele>1853</ele>
        <time>2020-09-05T08:03:06Z</time>
      </trkpt>
      <trkpt lat="45.09562" lon="6.1525">
        <ele>1853.2</ele>
        <time>2020-09-05T08:03:07Z</time>
      </trkpt>
      <trkpt lat="45.0956" lon="6.15248">
        <ele>1853.4</ele>
        <time>2020-09-05T08:03:08Z</time>
      </trkpt>
      <trkpt lat="45.09558" lon="6.15246">
        <ele>1853.6</ele>
        <time>2020-09-05T08:03:09Z</time>
      </trkpt>
      <trkpt lat="45.09557" lon="6.15244">
        <ele>1853.8</ele>
        <time>2020-09-05T08:03:10Z</time>
      </trkpt>
      <trkpt lat="45.09555" lon="6.15242">
        <ele>1854</ele>
        <time>2020-09-05T08:03:11Z</time>
      </trkpt>
      <trkpt lat="45.09553" lon="6.15239">
        <ele>1854.2</ele>
        <time>2020-09-05T08:03:12Z</time>
      </trkpt>
      <trkpt lat="45.09551" lon="6.15237">
        <ele>1854.6</ele>
        <time>2020-09-05T08:03:13Z</time>
      </trkpt>
      <trkpt lat="45.0955" lon="6.15235">
        <ele>1854.8</ele>
        <time>2020-09-05T08:03:14Z</time>
      </trkpt>
      <trkpt lat="45.09548" lon="6.15233">
        <ele>1855</ele>
        <time>2020-09-05T08:03:15Z</time>
      </trkpt>
      <trkpt lat="45.09547" lon="6.15231">
        <ele>1855.2</ele>
        <time>2020-09-05T08:03:16Z</time>
      </trkpt>
      <trkpt lat="45.09545" lon="6.15228">
        <ele>1855.2</ele>
        <time>2020-09-05T08:03:17Z</time>
      </trkpt>
      <trkpt lat="45.09543" lon="6.15226">
        <ele>1855.6</ele>
        <time>2020-09-05T08:03:18Z</time>
      </trkpt>
      <trkpt lat="45.09542" lon="6.15224">
        <ele>1856</ele>
        <time>2020-09-05T08:03:19Z</time>
      </trkpt>
      <trkpt lat="45.0954" lon="6.15222">
        <ele>1856.4</ele>
        <time>2020-09-05T08:03:20Z</time>
      </trkpt>
      <trkpt lat="45.09539" lon="6.1522">
        <ele>1856.6</ele>
        <time>2020-09-05T08:03:21Z</time>
      </trkpt>
      <trkpt lat="45.09538" lon="6.15217">
        <ele>1856.8</ele>
        <time>2020-09-05T08:03:22Z</time>
      </trkpt>
      <trkpt lat="45.09536" lon="6.15215">
        <ele>1857</ele>
        <time>2020-09-05T08:03:23Z</time>
      </trkpt>
      <trkpt lat="45.09535" lon="6.15212">
        <ele>1857.4</ele>
        <time>2020-09-05T08:03:24Z</time>
      </trkpt>
      <trkpt lat="45.09533" lon="6.1521">
        <ele>1857.6</ele>
        <time>2020-09-05T08:03:25Z</time>
      </trkpt>
      <trkpt lat="45.09531" lon="6.15207">
        <ele>1858.2</ele>
        <time>2020-09-05T08:03:26Z</time>
      </trkpt>
      <trkpt lat="45.0953" lon="6.15205">
        <ele>1858.4</ele>
        <time>2020-09-05T08:03:27Z</time>
      </trkpt>
      <trkpt lat="45.09528" lon="6.15203">
        <ele>1858.6</ele>
        <time>2020-09-05T08:03:28Z</time>
      </trkpt>
      <trkpt lat="45.09527" lon="6.152">
        <ele>1858.8</ele>
        <time>2020-09-05T08:03:29Z</time>
      </trkpt>
      <trkpt lat="45.09525" lon="6.15198">
        <ele>1859</ele>
        <time>2020-09-05T08:03:30Z</time>
      </trkpt>
      <trkpt lat="45.09523" lon="6.15196">
        <ele>1859.4</ele>
        <time>2020-09-05T08:03:31Z</time>
      </trkpt>
      <trkpt lat="45.09521" lon="6.15194">
        <ele>1859.6</ele>
        <time>2020-09-05T08:03:32Z</time>
      </trkpt>
      <trkpt lat="45.09519" lon="6.15192">
        <ele>1860</ele>
        <time>2020-09-05T08:03:33Z</time>
      </trkpt>
      <trkpt lat="45.09517" lon="6.1519">
        <ele>1860.2</ele>
        <time>2020-09-05T08:03:34Z</time>
      </trkpt>
      <trkpt lat="45.09515" lon="6.15189">
        <ele>1860.6</ele>
        <time>2020-09-05T08:03:35Z</time>
      </trkpt>
      <trkpt lat="45.09513" lon="6.15187">
        <ele>1860.8</ele>
        <time>2020-09-05T08:03:36Z</time>
      </trkpt>
      <trkpt lat="45.09511" lon="6.15186">
        <ele>1861</ele>
        <time>2020-09-05T08:03:37Z</time>
      </trkpt>
      <trkpt lat="45.09508" lon="6.15184">
        <ele>1861.4</ele>
        <time>2020-09-05T08:03:38Z</time>
      </trkpt>
      <trkpt lat="45.09506" lon="6.15183">
        <ele>1861.6</ele>
        <time>2020-09-05T08:03:39Z</time>
      </trkpt>
      <trkpt lat="45.09504" lon="6.15182">
        <ele>1861.8</ele>
        <time>2020-09-05T08:03:40Z</time>
      </trkpt>
      <trkpt lat="45.09501" lon="6.15181">
        <ele>1861.8</ele>
        <time>2020-09-05T08:03:41Z</time>
      </trkpt>
      <trkpt lat="45.09499" lon="6.1518">
        <ele>1862.2</ele>
        <time>2020-09-05T08:03:42Z</time>
      </trkpt>
      <trkpt lat="45.09497" lon="6.1518">
        <ele>1862.6</ele>
        <time>2020-09-05T08:03:43Z</time>
      </trkpt>
      <trkpt lat="45.09494" lon="6.15179">
        <ele>1863</ele>
        <time>2020-09-05T08:03:44Z</time>
      </trkpt>
      <trkpt lat="45.09492" lon="6.15179">
        <ele>1863.2</ele>
        <time>2020-09-05T08:03:45Z</time>
      </trkpt>
      <trkpt lat="45.09489" lon="6.15178">
        <ele>1863.4</ele>
        <time>2020-09-05T08:03:46Z</time>
      </trkpt>
      <trkpt lat="45.09487" lon="6.15177">
        <ele>1863.4</ele>
        <time>2020-09-05T08:03:47Z</time>
      </trkpt>
      <trkpt lat="45.09485" lon="6.15176">
        <ele>1863.6</ele>
        <time>2020-09-05T08:03:48Z</time>
      </trkpt>
      <trkpt lat="45.09482" lon="6.15175">
        <ele>1864</ele>
        <time>2020-09-05T08:03:49Z</time>
      </trkpt>
      <trkpt lat="45.0948" lon="6.15174">
        <ele>1864.4</ele>
        <time>2020-09-05T08:03:50Z</time>
      </trkpt>
      <trkpt lat="45.09478" lon="6.15172">
        <ele>1864.6</ele>
        <time>2020-09-05T08:03:51Z</time>
      </trkpt>
      <trkpt lat="45.09476" lon="6.15171">
        <ele>1864.8</ele>
        <time>2020-09-05T08:03:52Z</time>
      </trkpt>
      <trkpt lat="45.09474" lon="6.15169">
        <ele>1865</ele>
        <time>2020-09-05T08:03:53Z</time>
      </trkpt>
      <trkpt lat="45.09472" lon="6.15167">
        <ele>1865.6</ele>
        <time>2020-09-05T08:03:54Z</time>
      </trkpt>
      <trkpt lat="45.0947" lon="6.15165">
        <ele>1865.6</ele>
        <time>2020-09-05T08:03:55Z</time>
      </trkpt>
      <trkpt lat="45.09468" lon="6.15163">
        <ele>1865.8</ele>
        <time>2020-09-05T08:03:56Z</time>
      </trkpt>
      <trkpt lat="45.09466" lon="6.15161">
        <ele>1866.2</ele>
        <time>2020-09-05T08:03:57Z</time>
      </trkpt>
      <trkpt lat="45.09464" lon="6.15159">
        <ele>1866.6</ele>
        <time>2020-09-05T08:03:58Z</time>
      </trkpt>
      <trkpt lat="45.09461" lon="6.15157">
        <ele>1866.6</ele>
        <time>2020-09-05T08:03:59Z</time>
      </trkpt>
      <trkpt lat="45.09459" lon="6.15154">
        <ele>1867</ele>
        <time>2020-09-05T08:04:00Z</time>
      </trkpt>
      <trkpt lat="45.09457" lon="6.15153">
        <ele>1867.4</ele>
        <time>2020-09-05T08:04:01Z</time>
      </trkpt>
      <trkpt lat="45.09454" lon="6.15151">
        <ele>1868</ele>
        <time>2020-09-05T08:04:02Z</time>
      </trkpt>
      <trkpt lat="45.09451" lon="6.1515">
        <ele>1868.2</ele>
        <time>2020-09-05T08:04:03Z</time>
      </trkpt>
      <trkpt lat="45.09448" lon="6.15149">
        <ele>1868.6</ele>
        <time>2020-09-05T08:04:04Z</time>
      </trkpt>
      <trkpt lat="45.09446" lon="6.15148">
        <ele>1868.8</ele>
        <time>2020-09-05T08:04:05Z</time>
      </trkpt>
      <trkpt lat="45.09443" lon="6.15147">
        <ele>1868.6</ele>
        <time>2020-09-05T08:04:06Z</time>
      </trkpt>
      <trkpt lat="45.09441" lon="6.15147">
        <ele>1869</ele>
        <time>2020-09-05T08:04:07Z</time>
      </trkpt>
      <trkpt lat="45.09439" lon="6.15146">
        <ele>1869.2</ele>
        <time>2020-09-05T08:04:08Z</time>
      </trkpt>
      <trkpt lat="45.09436" lon="6.15145">
        <ele>1869.6</ele>
        <time>2020-09-05T08:04:09Z</time>
      </trkpt>
      <trkpt lat="45.09434" lon="6.15145">
        <ele>1869.8</ele>
        <time>2020-09-05T08:04:10Z</time>
      </trkpt>
      <trkpt lat="45.09432" lon="6.15144">
        <ele>1869.8</ele>
        <time>2020-09-05T08:04:11Z</time>
      </trkpt>
      <trkpt lat="45.0943" lon="6.15143">
        <ele>1870.2</ele>
        <time>2020-09-05T08:04:12Z</time>
      </trkpt>
      <trkpt lat="45.09428" lon="6.15142">
        <ele>1870.4</ele>
        <time>2020-09-05T08:04:13Z</time>
      </trkpt>
      <trkpt lat="45.09426" lon="6.15141">
        <ele>1870.6</ele>
        <time>2020-09-05T08:04:14Z</time>
      </trkpt>
      <trkpt lat="45.09423" lon="6.1514">
        <ele>1871</ele>
        <time>2020-09-05T08:04:15Z</time>
      </trkpt>
      <trkpt lat="45.09421" lon="6.15139">
        <ele>1871.4</ele>
        <time>2020-09-05T08:04:16Z</time>
      </trkpt>
      <trkpt lat="45.09419" lon="6.15137">
        <ele>1871.6</ele>
        <time>2020-09-05T08:04:17Z</time>
      </trkpt>
      <trkpt lat="45.09417" lon="6.15136">
        <ele>1872</ele>
        <time>2020-09-05T08:04:18Z</time>
      </trkpt>
      <trkpt lat="45.09415" lon="6.15134">
        <ele>1872.4</ele>
        <time>2020-09-05T08:04:19Z</time>
      </trkpt>
      <trkpt lat="45.09413" lon="6.15131">
        <ele>1872.8</ele>
        <time>2020-09-05T08:04:20Z</time>
      </trkpt>
      <trkpt lat="45.09411" lon="6.15129">
        <ele>1872.8</ele>
        <time>2020-09-05T08:04:21Z</time>
      </trkpt>
      <trkpt lat="45.0941" lon="6.15126">
        <ele>1873</ele>
        <time>2020-09-05T08:04:22Z</time>
      </trkpt>
      <trkpt lat="45.09408" lon="6.15124">
        <ele>1873</ele>
        <time>2020-09-05T08:04:23Z</time>
      </trkpt>
      <trkpt lat="45.09406" lon="6.15122">
        <ele>1873.4</ele>
        <time>2020-09-05T08:04:24Z</time>
      </trkpt>
      <trkpt lat="45.09404" lon="6.1512">
        <ele>1873.6</ele>
        <time>2020-09-05T08:04:25Z</time>
      </trkpt>
      <trkpt lat="45.09402" lon="6.15117">
        <ele>1874</ele>
        <time>2020-09-05T08:04:26Z</time>
      </trkpt>
      <trkpt lat="45.094" lon="6.15114">
        <ele>1874</ele>
        <time>2020-09-05T08:04:27Z</time>
      </trkpt>
      <trkpt lat="45.09398" lon="6.15112">
        <ele>1874.4</ele>
        <time>2020-09-05T08:04:28Z</time>
      </trkpt>
      <trkpt lat="45.09396" lon="6.15109">
        <ele>1874.6</ele>
        <time>2020-09-05T08:04:29Z</time>
      </trkpt>
      <trkpt lat="45.09394" lon="6.15107">
        <ele>1874.8</ele>
        <time>2020-09-05T08:04:30Z</time>
      </trkpt>
      <trkpt lat="45.09392" lon="6.15105">
        <ele>1875</ele>
        <time>2020-09-05T08:04:31Z</time>
      </trkpt>
      <trkpt lat="45.0939" lon="6.15104">
        <ele>1875.4</ele>
        <time>2020-09-05T08:04:32Z</time>
      </trkpt>
      <trkpt lat="45.09387" lon="6.15103">
        <ele>1875.8</ele>
        <time>2020-09-05T08:04:33Z</time>
      </trkpt>
      <trkpt lat="45.09385" lon="6.15102">
        <ele>1876</ele>
        <time>2020-09-05T08:04:34Z</time>
      </trkpt>
      <trkpt lat="45.09382" lon="6.15101">
        <ele>1876.2</ele>
        <time>2020-09-05T08:04:35Z</time>
      </trkpt>
      <trkpt lat="45.09379" lon="6.15102">
        <ele>1876.6</ele>
        <time>2020-09-05T08:04:36Z</time>
      </trkpt>
      <trkpt lat="45.09377" lon="6.15103">
        <ele>1876.4</ele>
        <time>2020-09-05T08:04:37Z</time>
      </trkpt>
      <trkpt lat="45.09374" lon="6.15104">
        <ele>1876.8</ele>
        <time>2020-09-05T08:04:38Z</time>
      </trkpt>
      <trkpt lat="45.09371" lon="6.15106">
        <ele>1876.8</ele>
        <time>2020-09-05T08:04:39Z</time>
      </trkpt>
      <trkpt lat="45.09369" lon="6.15108">
        <ele>1877</ele>
        <time>2020-09-05T08:04:40Z</time>
      </trkpt>
      <trkpt lat="45.09366" lon="6.1511">
        <ele>1877.2</ele>
        <time>2020-09-05T08:04:41Z</time>
      </trkpt>
      <trkpt lat="45.09363" lon="6.15111">
        <ele>1877.6</ele>
        <time>2020-09-05T08:04:42Z</time>
      </trkpt>
      <trkpt lat="45.09361" lon="6.15111">
        <ele>1877.6</ele>
        <time>2020-09-05T08:04:43Z</time>
      </trkpt>
      <trkpt lat="45.09358" lon="6.1511">
        <ele>1877.8</ele>
        <time>2020-09-05T08:04:44Z</time>
      </trkpt>
      <trkpt lat="45.09355" lon="6.15109">
        <ele>1877.8</ele>
        <time>2020-09-05T08:04:45Z</time>
      </trkpt>
      <trkpt lat="45.09353" lon="6.15107">
        <ele>1878.2</ele>
        <time>2020-09-05T08:04:46Z</time>
      </trkpt>
      <trkpt lat="45.09351" lon="6.15104">
        <ele>1878.2</ele>
        <time>2020-09-05T08:04:47Z</time>
      </trkpt>
      <trkpt lat="45.09349" lon="6.15102">
        <ele>1878.4</ele>
        <time>2020-09-05T08:04:48Z</time>
      </trkpt>
      <trkpt lat="45.09348" lon="6.15099">
        <ele>1878.6</ele>
        <time>2020-09-05T08:04:49Z</time>
      </trkpt>
      <trkpt lat="45.09346" lon="6.15097">
        <ele>1879</ele>
        <time>2020-09-05T08:04:50Z</time>
      </trkpt>
      <trkpt lat="45.09345" lon="6.15094">
        <ele>1879</ele>
        <time>2020-09-05T08:04:51Z</time>
      </trkpt>
      <trkpt lat="45.09343" lon="6.15092">
        <ele>1879.4</ele>
        <time>2020-09-05T08:04:52Z</time>
      </trkpt>
      <trkpt lat="45.09342" lon="6.15089">
        <ele>1879.6</ele>
        <time>2020-09-05T08:04:53Z</time>
      </trkpt>
      <trkpt lat="45.0934" lon="6.15086">
        <ele>1879.8</ele>
        <time>2020-09-05T08:04:54Z</time>
      </trkpt>
      <trkpt lat="45.09338" lon="6.15083">
        <ele>1880.2</ele>
        <time>2020-09-05T08:04:55Z</time>
      </trkpt>
      <trkpt lat="45.09335" lon="6.15081">
        <ele>1880.2</ele>
        <time>2020-09-05T08:04:56Z</time>
      </trkpt>
      <trkpt lat="45.09332" lon="6.15079">
        <ele>1880.4</ele>
        <time>2020-09-05T08:04:57Z</time>
      </trkpt>
      <trkpt lat="45.09329" lon="6.15079">
        <ele>1880.4</ele>
        <time>2020-09-05T08:04:58Z</time>
      </trkpt>
      <trkpt lat="45.09326" lon="6.15079">
        <ele>1880.8</ele>
        <time>2020-09-05T08:04:59Z</time>
      </trkpt>
      <trkpt lat="45.09323" lon="6.15079">
        <ele>1881</ele>
        <time>2020-09-05T08:05:00Z</time>
      </trkpt>
      <trkpt lat="45.0932" lon="6.1508">
        <ele>1881.2</ele>
        <time>2020-09-05T08:05:01Z</time>
      </trkpt>
      <trkpt lat="45.09317" lon="6.15081">
        <ele>1881.6</ele>
        <time>2020-09-05T08:05:02Z</time>
      </trkpt>
      <trkpt lat="45.09315" lon="6.15082">
        <ele>1882</ele>
        <time>2020-09-05T08:05:03Z</time>
      </trkpt>
      <trkpt lat="45.09312" lon="6.15083">
        <ele>1881.8</ele>
        <time>2020-09-05T08:05:04Z</time>
      </trkpt>
      <trkpt lat="45.09309" lon="6.15083">
        <ele>1882.2</ele>
        <time>2020-09-05T08:05:05Z</time>
      </trkpt>
      <trkpt lat="45.09306" lon="6.15082">
        <ele>1882.6</ele>
        <time>2020-09-05T08:05:06Z</time>
      </trkpt>
      <trkpt lat="45.09304" lon="6.15081">
        <ele>1882.8</ele>
        <time>2020-09-05T08:05:07Z</time>
      </trkpt>
      <trkpt lat="45.09302" lon="6.15079">
        <ele>1883.2</ele>
        <time>2020-09-05T08:05:08Z</time>
      </trkpt>
      <trkpt lat="45.093" lon="6.15076">
        <ele>1883.4</ele>
        <time>2020-09-05T08:05:09Z</time>
      </trkpt>
      <trkpt lat="45.09299" lon="6.15073">
        <ele>1884.2</ele>
        <time>2020-09-05T08:05:10Z</time>
      </trkpt>
      <trkpt lat="45.09297" lon="6.1507">
        <ele>1884.6</ele>
        <time>2020-09-05T08:05:11Z</time>
      </trkpt>
      <trkpt lat="45.09296" lon="6.15067">
        <ele>1885</ele>
        <time>2020-09-05T08:05:12Z</time>
      </trkpt>
      <trkpt lat="45.09294" lon="6.15064">
        <ele>1885.4</ele>
        <time>2020-09-05T08:05:13Z</time>
      </trkpt>
      <trkpt lat="45.09292" lon="6.15062">
        <ele>1885.6</ele>
        <time>2020-09-05T08:05:14Z</time>
      </trkpt>
      <trkpt lat="45.0929" lon="6.1506">
        <ele>1885.8</ele>
        <time>2020-09-05T08:05:15Z</time>
      </trkpt>
      <trkpt lat="45.09287" lon="6.15058">
        <ele>1886</ele>
        <time>2020-09-05T08:05:16Z</time>
      </trkpt>
      <trkpt lat="45.09285" lon="6.15056">
        <ele>1886.2</ele>
        <time>2020-09-05T08:05:17Z</time>
      </trkpt>
      <trkpt lat="45.09282" lon="6.15055">
        <ele>1886.6</ele>
        <time>2020-09-05T08:05:18Z</time>
      </trkpt>
      <trkpt lat="45.09279" lon="6.15055">
        <ele>1886.8</ele>
        <time>2020-09-05T08:05:19Z</time>
      </trkpt>
      <trkpt lat="45.09277" lon="6.15054">
        <ele>1887.2</ele>
        <time>2020-09-05T08:05:20Z</time>
      </trkpt>
      <trkpt lat="45.09274" lon="6.15053">
        <ele>1887.4</ele>
        <time>2020-09-05T08:05:21Z</time>
      </trkpt>
      <trkpt lat="45.09271" lon="6.15053">
        <ele>1887.6</ele>
        <time>2020-09-05T08:05:22Z</time>
      </trkpt>
      <trkpt lat="45.09269" lon="6.15053">
        <ele>1887.6</ele>
        <time>2020-09-05T08:05:23Z</time>
      </trkpt>
      <trkpt lat="45.09266" lon="6.15054">
        <ele>1887.8</ele>
        <time>2020-09-05T08:05:24Z</time>
      </trkpt>
      <trkpt lat="45.09263" lon="6.15055">
        <ele>1888</ele>
        <time>2020-09-05T08:05:25Z</time>
      </trkpt>
      <trkpt lat="45.0926" lon="6.15056">
        <ele>1888.2</ele>
        <time>2020-09-05T08:05:26Z</time>
      </trkpt>
      <trkpt lat="45.09258" lon="6.15057">
        <ele>1888.4</ele>
        <time>2020-09-05T08:05:27Z</time>
      </trkpt>
      <trkpt lat="45.09255" lon="6.15057">
        <ele>1888.4</ele>
        <time>2020-09-05T08:05:28Z</time>
      </trkpt>
      <trkpt lat="45.09252" lon="6.15057">
        <ele>1888.4</ele>
        <time>2020-09-05T08:05:29Z</time>
      </trkpt>
      <trkpt lat="45.09249" lon="6.15057">
        <ele>1888.8</ele>
        <time>2020-09-05T08:05:30Z</time>
      </trkpt>
      <trkpt lat="45.09246" lon="6.15057">
        <ele>1889</ele>
        <time>2020-09-05T08:05:31Z</time>
      </trkpt>
      <trkpt lat="45.09243" lon="6.15057">
        <ele>1889.4</ele>
        <time>2020-09-05T08:05:32Z</time>
      </trkpt>
      <trkpt lat="45.0924" lon="6.15057">
        <ele>1889.8</ele>
        <time>2020-09-05T08:05:33Z</time>
      </trkpt>
      <trkpt lat="45.09237" lon="6.15056">
        <ele>1890</ele>
        <time>2020-09-05T08:05:34Z</time>
      </trkpt>
      <trkpt lat="45.09234" lon="6.15055">
        <ele>1890</ele>
        <time>2020-09-05T08:05:35Z</time>
      </trkpt>
      <trkpt lat="45.09231" lon="6.15053">
        <ele>1890.6</ele>
        <time>2020-09-05T08:05:36Z</time>
      </trkpt>
      <trkpt lat="45.09229" lon="6.15051">
        <ele>1890.8</ele>
        <time>2020-09-05T08:05:37Z</time>
      </trkpt>
      <trkpt lat="45.09226" lon="6.15049">
        <ele>1891</ele>
        <time>2020-09-05T08:05:38Z</time>
      </trkpt>
      <trkpt lat="45.09223" lon="6.15047">
        <ele>1891.4</ele>
        <time>2020-09-05T08:05:39Z</time>
      </trkpt>
      <trkpt lat="45.09221" lon="6.15046">
        <ele>1891.6</ele>
        <time>2020-09-05T08:05:40Z</time>
      </trkpt>
      <trkpt lat="45.09218" lon="6.15044">
        <ele>1892</ele>
        <time>2020-09-05T08:05:41Z</time>
      </trkpt>
      <trkpt lat="45.09215" lon="6.15042">
        <ele>1892.4</ele>
        <time>2020-09-05T08:05:42Z</time>
      </trkpt>
      <trkpt lat="45.09212" lon="6.15041">
        <ele>1892.6</ele>
        <time>2020-09-05T08:05:43Z</time>
      </trkpt>
      <trkpt lat="45.09209" lon="6.1504">
        <ele>1893</ele>
        <time>2020-09-05T08:05:44Z</time>
      </trkpt>
      <trkpt lat="45.09206" lon="6.15039">
        <ele>1893.2</ele>
        <time>2020-09-05T08:05:45Z</time>
      </trkpt>
      <trkpt lat="45.09203" lon="6.15038">
        <ele>1893.6</ele>
        <time>2020-09-05T08:05:46Z</time>
      </trkpt>
      <trkpt lat="45.092" lon="6.15036">
        <ele>1894</ele>
        <time>2020-09-05T08:05:47Z</time>
      </trkpt>
      <trkpt lat="45.09197" lon="6.15034">
        <ele>1894</ele>
        <time>2020-09-05T08:05:48Z</time>
      </trkpt>
      <trkpt lat="45.09195" lon="6.15031">
        <ele>1893.8</ele>
        <time>2020-09-05T08:05:49Z</time>
      </trkpt>
      <trkpt lat="45.09193" lon="6.15028">
        <ele>1894.2</ele>
        <time>2020-09-05T08:05:50Z</time>
      </trkpt>
      <trkpt lat="45.09191" lon="6.15024">
        <ele>1894.4</ele>
        <time>2020-09-05T08:05:51Z</time>
      </trkpt>
      <trkpt lat="45.09189" lon="6.15021">
        <ele>1894.6</ele>
        <time>2020-09-05T08:05:52Z</time>
      </trkpt>
      <trkpt lat="45.09188" lon="6.15017">
        <ele>1895.2</ele>
        <time>2020-09-05T08:05:53Z</time>
      </trkpt>
      <trkpt lat="45.09187" lon="6.15013">
        <ele>1895.4</ele>
        <time>2020-09-05T08:05:54Z</time>
      </trkpt>
      <trkpt lat="45.09187" lon="6.15009">
        <ele>1895.6</ele>
        <time>2020-09-05T08:05:55Z</time>
      </trkpt>
      <trkpt lat="45.09186" lon="6.15005">
        <ele>1895.8</ele>
        <time>2020-09-05T08:05:56Z</time>
      </trkpt>
      <trkpt lat="45.09185" lon="6.15001">
        <ele>1896.2</ele>
        <time>2020-09-05T08:05:57Z</time>
      </trkpt>
      <trkpt lat="45.09185" lon="6.14997">
        <ele>1896.6</ele>
        <time>2020-09-05T08:05:58Z</time>
      </trkpt>
      <trkpt lat="45.09183" lon="6.14994">
        <ele>1897</ele>
        <time>2020-09-05T08:05:59Z</time>
      </trkpt>
      <trkpt lat="45.09182" lon="6.14991">
        <ele>1897.2</ele>
        <time>2020-09-05T08:06:00Z</time>
      </trkpt>
      <trkpt lat="45.09181" lon="6.14988">
        <ele>1897.8</ele>
        <time>2020-09-05T08:06:01Z</time>
      </trkpt>
      <trkpt lat="45.09179" lon="6.14985">
        <ele>1898</ele>
        <time>2020-09-05T08:06:02Z</time>
      </trkpt>
      <trkpt lat="45.09178" lon="6.14982">
        <ele>1898</ele>
        <time>2020-09-05T08:06:03Z</time>
      </trkpt>
      <trkpt lat="45.09177" lon="6.14979">
        <ele>1898.4</ele>
        <time>2020-09-05T08:06:04Z</time>
      </trkpt>
      <trkpt lat="45.09175" lon="6.14976">
        <ele>1899</ele>
        <time>2020-09-05T08:06:05Z</time>
      </trkpt>
      <trkpt lat="45.09174" lon="6.14973">
        <ele>1899.2</ele>
        <time>2020-09-05T08:06:06Z</time>
      </trkpt>
      <trkpt lat="45.09173" lon="6.1497">
        <ele>1899.6</ele>
        <time>2020-09-05T08:06:07Z</time>
      </trkpt>
      <trkpt lat="45.09172" lon="6.14967">
        <ele>1899.8</ele>
        <time>2020-09-05T08:06:08Z</time>
      </trkpt>
      <trkpt lat="45.0917" lon="6.14965">
        <ele>1900</ele>
        <time>2020-09-05T08:06:09Z</time>
      </trkpt>
      <trkpt lat="45.09169" lon="6.14963">
        <ele>1900.4</ele>
        <time>2020-09-05T08:06:10Z</time>
      </trkpt>
      <trkpt lat="45.09168" lon="6.14961">
        <ele>1900.8</ele>
        <time>2020-09-05T08:06:11Z</time>
      </trkpt>
      <trkpt lat="45.09166" lon="6.14958">
        <ele>1901</ele>
        <time>2020-09-05T08:06:12Z</time>
      </trkpt>
      <trkpt lat="45.09164" lon="6.14956">
        <ele>1901.4</ele>
        <time>2020-09-05T08:06:13Z</time>
      </trkpt>
      <trkpt lat="45.09162" lon="6.14954">
        <ele>1901.6</ele>
        <time>2020-09-05T08:06:14Z</time>
      </trkpt>
      <trkpt lat="45.09161" lon="6.14952">
        <ele>1901.8</ele>
        <time>2020-09-05T08:06:15Z</time>
      </trkpt>
      <trkpt lat="45.09159" lon="6.14951">
        <ele>1902</ele>
        <time>2020-09-05T08:06:16Z</time>
      </trkpt>
      <trkpt lat="45.09157" lon="6.14949">
        <ele>1902.6</ele>
        <time>2020-09-05T08:06:17Z</time>
      </trkpt>
      <trkpt lat="45.09154" lon="6.14947">
        <ele>1903</ele>
        <time>2020-09-05T08:06:18Z</time>
      </trkpt>
      <trkpt lat="45.09152" lon="6.14946">
        <ele>1903.4</ele>
        <time>2020-09-05T08:06:19Z</time>
      </trkpt>
      <trkpt lat="45.0915" lon="6.14944">
        <ele>1903.8</ele>
        <time>2020-09-05T08:06:20Z</time>
      </trkpt>
      <trkpt lat="45.09148" lon="6.14942">
        <ele>1904.2</ele>
        <time>2020-09-05T08:06:21Z</time>
      </trkpt>
      <trkpt lat="45.09146" lon="6.1494">
        <ele>1904.2</ele>
        <time>2020-09-05T08:06:22Z</time>
      </trkpt>
      <trkpt lat="45.09144" lon="6.14939">
        <ele>1904.6</ele>
        <time>2020-09-05T08:06:23Z</time>
      </trkpt>
      <trkpt lat="45.09142" lon="6.14937">
        <ele>1905</ele>
        <time>2020-09-05T08:06:24Z</time>
      </trkpt>
      <trkpt lat="45.0914" lon="6.14936">
        <ele>1905.2</ele>
        <time>2020-09-05T08:06:25Z</time>
      </trkpt>
      <trkpt lat="45.09139" lon="6.14934">
        <ele>1905.6</ele>
        <time>2020-09-05T08:06:26Z</time>
      </trkpt>
      <trkpt lat="45.09137" lon="6.14931">
        <ele>1905.8</ele>
        <time>2020-09-05T08:06:27Z</time>
      </trkpt>
      <trkpt lat="45.09136" lon="6.14928">
        <ele>1906</ele>
        <time>2020-09-05T08:06:28Z</time>
      </trkpt>
      <trkpt lat="45.09135" lon="6.14925">
        <ele>1906.4</ele>
        <time>2020-09-05T08:06:29Z</time>
      </trkpt>
      <trkpt lat="45.09133" lon="6.14923">
        <ele>1906.6</ele>
        <time>2020-09-05T08:06:30Z</time>
      </trkpt>
      <trkpt lat="45.09131" lon="6.1492">
        <ele>1907</ele>
        <time>2020-09-05T08:06:31Z</time>
      </trkpt>
      <trkpt lat="45.0913" lon="6.14917">
        <ele>1907.2</ele>
        <time>2020-09-05T08:06:32Z</time>
      </trkpt>
      <trkpt lat="45.09128" lon="6.14915">
        <ele>1907.6</ele>
        <time>2020-09-05T08:06:33Z</time>
      </trkpt>
      <trkpt lat="45.09126" lon="6.14913">
        <ele>1908.2</ele>
        <time>2020-09-05T08:06:34Z</time>
      </trkpt>
      <trkpt lat="45.09124" lon="6.14911">
        <ele>1908.6</ele>
        <time>2020-09-05T08:06:35Z</time>
      </trkpt>
      <trkpt lat="45.09122" lon="6.14909">
        <ele>1908.8</ele>
        <time>2020-09-05T08:06:36Z</time>
      </trkpt>
      <trkpt lat="45.0912" lon="6.14907">
        <ele>1909</ele>
        <time>2020-09-05T08:06:37Z</time>
      </trkpt>
      <trkpt lat="45.09118" lon="6.14906">
        <ele>1909.2</ele>
        <time>2020-09-05T08:06:38Z</time>
      </trkpt>
      <trkpt lat="45.09116" lon="6.14904">
        <ele>1909.6</ele>
        <time>2020-09-05T08:06:39Z</time>
      </trkpt>
      <trkpt lat="45.09114" lon="6.14902">
        <ele>1909.8</ele>
        <time>2020-09-05T08:06:40Z</time>
      </trkpt>
      <trkpt lat="45.09112" lon="6.14901">
        <ele>1910.2</ele>
        <time>2020-09-05T08:06:41Z</time>
      </trkpt>
      <trkpt lat="45.0911" lon="6.14899">
        <ele>1910.6</ele>
        <time>2020-09-05T08:06:42Z</time>
      </trkpt>
      <trkpt lat="45.09107" lon="6.14898">
        <ele>1911</ele>
        <time>2020-09-05T08:06:43Z</time>
      </trkpt>
      <trkpt lat="45.09105" lon="6.14897">
        <ele>1911.2</ele>
        <time>2020-09-05T08:06:44Z</time>
      </trkpt>
      <trkpt lat="45.09103" lon="6.14895">
        <ele>1911.6</ele>
        <time>2020-09-05T08:06:45Z</time>
      </trkpt>
      <trkpt lat="45.091" lon="6.14894">
        <ele>1911.6</ele>
        <time>2020-09-05T08:06:46Z</time>
      </trkpt>
      <trkpt lat="45.09098" lon="6.14893">
        <ele>1911.8</ele>
        <time>2020-09-05T08:06:47Z</time>
      </trkpt>
      <trkpt lat="45.09095" lon="6.14892">
        <ele>1912</ele>
        <time>2020-09-05T08:06:48Z</time>
      </trkpt>
      <trkpt lat="45.09092" lon="6.14891">
        <ele>1912.2</ele>
        <time>2020-09-05T08:06:49Z</time>
      </trkpt>
      <trkpt lat="45.09089" lon="6.14891">
        <ele>1912.2</ele>
        <time>2020-09-05T08:06:50Z</time>
      </trkpt>
      <trkpt lat="45.09087" lon="6.14892">
        <ele>1912.4</ele>
        <time>2020-09-05T08:06:51Z</time>
      </trkpt>
      <trkpt lat="45.09084" lon="6.14892">
        <ele>1913</ele>
        <time>2020-09-05T08:06:52Z</time>
      </trkpt>
      <trkpt lat="45.09081" lon="6.14893">
        <ele>1913</ele>
        <time>2020-09-05T08:06:53Z</time>
      </trkpt>
      <trkpt lat="45.09078" lon="6.14895">
        <ele>1913.2</ele>
        <time>2020-09-05T08:06:54Z</time>
      </trkpt>
      <trkpt lat="45.09075" lon="6.14896">
        <ele>1913.4</ele>
        <time>2020-09-05T08:06:55Z</time>
      </trkpt>
      <trkpt lat="45.09072" lon="6.14898">
        <ele>1913.4</ele>
        <time>2020-09-05T08:06:56Z</time>
      </trkpt>
      <trkpt lat="45.0907" lon="6.149">
        <ele>1913.6</ele>
        <time>2020-09-05T08:06:57Z</time>
      </trkpt>
      <trkpt lat="45.09067" lon="6.14901">
        <ele>1913.8</ele>
        <time>2020-09-05T08:06:58Z</time>
      </trkpt>
      <trkpt lat="45.09064" lon="6.14903">
        <ele>1914.2</ele>
        <time>2020-09-05T08:06:59Z</time>
      </trkpt>
      <trkpt lat="45.09061" lon="6.14904">
        <ele>1914.4</ele>
        <time>2020-09-05T08:07:00Z</time>
      </trkpt>
      <trkpt lat="45.09058" lon="6.14905">
        <ele>1915</ele>
        <time>2020-09-05T08:07:01Z</time>
      </trkpt>
      <trkpt lat="45.09055" lon="6.14906">
        <ele>1915.2</ele>
        <time>2020-09-05T08:07:02Z</time>
      </trkpt>
      <trkpt lat="45.09053" lon="6.14907">
        <ele>1915.4</ele>
        <time>2020-09-05T08:07:03Z</time>
      </trkpt>
      <trkpt lat="45.0905" lon="6.14907">
        <ele>1915.6</ele>
        <time>2020-09-05T08:07:04Z</time>
      </trkpt>
      <trkpt lat="45.09047" lon="6.14907">
        <ele>1915.8</ele>
        <time>2020-09-05T08:07:05Z</time>
      </trkpt>
      <trkpt lat="45.09044" lon="6.14908">
        <ele>1916</ele>
        <time>2020-09-05T08:07:06Z</time>
      </trkpt>
      <trkpt lat="45.09041" lon="6.14909">
        <ele>1916.2</ele>
        <time>2020-09-05T08:07:07Z</time>
      </trkpt>
      <trkpt lat="45.09038" lon="6.14909">
        <ele>1916.2</ele>
        <time>2020-09-05T08:07:08Z</time>
      </trkpt>
      <trkpt lat="45.09035" lon="6.1491">
        <ele>1916.6</ele>
        <time>2020-09-05T08:07:09Z</time>
      </trkpt>
      <trkpt lat="45.09033" lon="6.14912">
        <ele>1917</ele>
        <time>2020-09-05T08:07:10Z</time>
      </trkpt>
      <trkpt lat="45.0903" lon="6.14913">
        <ele>1917.2</ele>
        <time>2020-09-05T08:07:11Z</time>
      </trkpt>
      <trkpt lat="45.09027" lon="6.14915">
        <ele>1917.2</ele>
        <time>2020-09-05T08:07:12Z</time>
      </trkpt>
      <trkpt lat="45.09025" lon="6.14917">
        <ele>1917.8</ele>
        <time>2020-09-05T08:07:13Z</time>
      </trkpt>
      <trkpt lat="45.09023" lon="6.14919">
        <ele>1918.2</ele>
        <time>2020-09-05T08:07:14Z</time>
      </trkpt>
      <trkpt lat="45.09021" lon="6.14922">
        <ele>1918.4</ele>
        <time>2020-09-05T08:07:15Z</time>
      </trkpt>
      <trkpt lat="45.09019" lon="6.14925">
        <ele>1918.6</ele>
        <time>2020-09-05T08:07:16Z</time>
      </trkpt>
      <trkpt lat="45.09017" lon="6.14928">
        <ele>1919</ele>
        <time>2020-09-05T08:07:17Z</time>
      </trkpt>
      <trkpt lat="45.09016" lon="6.14932">
        <ele>1919.2</ele>
        <time>2020-09-05T08:07:18Z</time>
      </trkpt>
      <trkpt lat="45.09014" lon="6.14935">
        <ele>1919.6</ele>
        <time>2020-09-05T08:07:19Z</time>
      </trkpt>
      <trkpt lat="45.09013" lon="6.14938">
        <ele>1919.8</ele>
        <time>2020-09-05T08:07:20Z</time>
      </trkpt>
      <trkpt lat="45.09011" lon="6.14942">
        <ele>1920.2</ele>
        <time>2020-09-05T08:07:21Z</time>
      </trkpt>
      <trkpt lat="45.0901" lon="6.14945">
        <ele>1920.4</ele>
        <time>2020-09-05T08:07:22Z</time>
      </trkpt>
      <trkpt lat="45.09008" lon="6.14948">
        <ele>1920.8</ele>
        <time>2020-09-05T08:07:23Z</time>
      </trkpt>
      <trkpt lat="45.09006" lon="6.1495">
        <ele>1921</ele>
        <time>2020-09-05T08:07:24Z</time>
      </trkpt>
      <trkpt lat="45.09003" lon="6.14952">
        <ele>1921.4</ele>
        <time>2020-09-05T08:07:25Z</time>
      </trkpt>
      <trkpt lat="45.09" lon="6.14952">
        <ele>1921.6</ele>
        <time>2020-09-05T08:07:26Z</time>
      </trkpt>
      <trkpt lat="45.08997" lon="6.14951">
        <ele>1922</ele>
        <time>2020-09-05T08:07:27Z</time>
      </trkpt>
      <trkpt lat="45.08995" lon="6.14948">
        <ele>1922.4</ele>
        <time>2020-09-05T08:07:28Z</time>
      </trkpt>
      <trkpt lat="45.08993" lon="6.14944">
        <ele>1922.8</ele>
        <time>2020-09-05T08:07:29Z</time>
      </trkpt>
      <trkpt lat="45.08993" lon="6.1494">
        <ele>1922.8</ele>
        <time>2020-09-05T08:07:30Z</time>
      </trkpt>
      <trkpt lat="45.08993" lon="6.14936">
        <ele>1923.4</ele>
        <time>2020-09-05T08:07:31Z</time>
      </trkpt>
      <trkpt lat="45.08994" lon="6.14933">
        <ele>1923.8</ele>
        <time>2020-09-05T08:07:32Z</time>
      </trkpt>
      <trkpt lat="45.08995" lon="6.1493">
        <ele>1924</ele>
        <time>2020-09-05T08:07:33Z</time>
      </trkpt>
      <trkpt lat="45.08996" lon="6.14927">
        <ele>1924.4</ele>
        <time>2020-09-05T08:07:34Z</time>
      </trkpt>
      <trkpt lat="45.08998" lon="6.14924">
        <ele>1924.8</ele>
        <time>2020-09-05T08:07:35Z</time>
      </trkpt>
      <trkpt lat="45.08999" lon="6.14922">
        <ele>1925</ele>
        <time>2020-09-05T08:07:36Z</time>
      </trkpt>
      <trkpt lat="45.09" lon="6.14919">
        <ele>1925.2</ele>
        <time>2020-09-05T08:07:37Z</time>
      </trkpt>
      <trkpt lat="45.09001" lon="6.14916">
        <ele>1925.6</ele>
        <time>2020-09-05T08:07:38Z</time>
      </trkpt>
      <trkpt lat="45.09003" lon="6.14913">
        <ele>1926</ele>
        <time>2020-09-05T08:07:39Z</time>
      </trkpt>
      <trkpt lat="45.09006" lon="6.14911">
        <ele>1926.4</ele>
        <time>2020-09-05T08:07:40Z</time>
      </trkpt>
      <trkpt lat="45.09008" lon="6.14909">
        <ele>1926.8</ele>
        <time>2020-09-05T08:07:41Z</time>
      </trkpt>
      <trkpt lat="45.0901" lon="6.14906">
        <ele>1927.2</ele>
        <time>2020-09-05T08:07:42Z</time>
      </trkpt>
      <trkpt lat="45.09012" lon="6.14904">
        <ele>1927.6</ele>
        <time>2020-09-05T08:07:43Z</time>
      </trkpt>
      <trkpt lat="45.09014" lon="6.14902">
        <ele>1927.8</ele>
        <time>2020-09-05T08:07:44Z</time>
      </trkpt>
      <trkpt lat="45.09015" lon="6.149">
        <ele>1928.2</ele>
        <time>2020-09-05T08:07:45Z</time>
      </trkpt>
      <trkpt lat="45.09017" lon="6.14898">
        <ele>1928.2</ele>
        <time>2020-09-05T08:07:46Z</time>
      </trkpt>
      <trkpt lat="45.09019" lon="6.14895">
        <ele>1928.4</ele>
        <time>2020-09-05T08:07:47Z</time>
      </trkpt>
      <trkpt lat="45.09022" lon="6.14893">
        <ele>1928.6</ele>
        <time>2020-09-05T08:07:48Z</time>
      </trkpt>
      <trkpt lat="45.09024" lon="6.14891">
        <ele>1928.8</ele>
        <time>2020-09-05T08:07:49Z</time>
      </trkpt>
      <trkpt lat="45.09026" lon="6.14889">
        <ele>1929</ele>
        <time>2020-09-05T08:07:50Z</time>
      </trkpt>
      <trkpt lat="45.09028" lon="6.14887">
        <ele>1929.4</ele>
        <time>2020-09-05T08:07:51Z</time>
      </trkpt>
      <trkpt lat="45.0903" lon="6.14885">
        <ele>1929.6</ele>
        <time>2020-09-05T08:07:52Z</time>
      </trkpt>
      <trkpt lat="45.09032" lon="6.14883">
        <ele>1929.8</ele>
        <time>2020-09-05T08:07:53Z</time>
      </trkpt>
      <trkpt lat="45.09035" lon="6.14881">
        <ele>1930.2</ele>
        <time>2020-09-05T08:07:54Z</time>
      </trkpt>
      <trkpt lat="45.09037" lon="6.14879">
        <ele>1930.6</ele>
        <time>2020-09-05T08:07:55Z</time>
      </trkpt>
      <trkpt lat="45.09039" lon="6.14878">
        <ele>1930.6</ele>
        <time>2020-09-05T08:07:56Z</time>
      </trkpt>
      <trkpt lat="45.09041" lon="6.14875">
        <ele>1931</ele>
        <time>2020-09-05T08:07:57Z</time>
      </trkpt>
      <trkpt lat="45.09042" lon="6.14872">
        <ele>1931.2</ele>
        <time>2020-09-05T08:07:58Z</time>
      </trkpt>
      <trkpt lat="45.09041" lon="6.14868">
        <ele>1931.6</ele>
        <time>2020-09-05T08:07:59Z</time>
      </trkpt>
      <trkpt lat="45.09039" lon="6.14866">
        <ele>1931.8</ele>
        <time>2020-09-05T08:08:00Z</time>
      </trkpt>
      <trkpt lat="45.09037" lon="6.14865">
        <ele>1932</ele>
        <time>2020-09-05T08:08:01Z</time>
      </trkpt>
      <trkpt lat="45.09034" lon="6.14865">
        <ele>1932.4</ele>
        <time>2020-09-05T08:08:02Z</time>
      </trkpt>
      <trkpt lat="45.09032" lon="6.14866">
        <ele>1933</ele>
        <time>2020-09-05T08:08:03Z</time>
      </trkpt>
      <trkpt lat="45.09029" lon="6.14867">
        <ele>1933.2</ele>
        <time>2020-09-05T08:08:04Z</time>
      </trkpt>
      <trkpt lat="45.09027" lon="6.14868">
        <ele>1933.4</ele>
        <time>2020-09-05T08:08:05Z</time>
      </trkpt>
      <trkpt lat="45.09024" lon="6.1487">
        <ele>1933.4</ele>
        <time>2020-09-05T08:08:06Z</time>
      </trkpt>
      <trkpt lat="45.09022" lon="6.14871">
        <ele>1933.8</ele>
        <time>2020-09-05T08:08:07Z</time>
      </trkpt>
      <trkpt lat="45.09019" lon="6.14873">
        <ele>1934</ele>
        <time>2020-09-05T08:08:08Z</time>
      </trkpt>
      <trkpt lat="45.09017" lon="6.14875">
        <ele>1934.4</ele>
        <time>2020-09-05T08:08:09Z</time>
      </trkpt>
      <trkpt lat="45.09014" lon="6.14877">
        <ele>1934.6</ele>
        <time>2020-09-05T08:08:10Z</time>
      </trkpt>
      <trkpt lat="45.09012" lon="6.14879">
        <ele>1935</ele>
        <time>2020-09-05T08:08:11Z</time>
      </trkpt>
      <trkpt lat="45.09009" lon="6.14881">
        <ele>1935.2</ele>
        <time>2020-09-05T08:08:12Z</time>
      </trkpt>
      <trkpt lat="45.09006" lon="6.14883">
        <ele>1935.4</ele>
        <time>2020-09-05T08:08:13Z</time>
      </trkpt>
      <trkpt lat="45.09004" lon="6.14884">
        <ele>1935.6</ele>
        <time>2020-09-05T08:08:14Z</time>
      </trkpt>
      <trkpt lat="45.09001" lon="6.14886">
        <ele>1936</ele>
        <time>2020-09-05T08:08:15Z</time>
      </trkpt>
      <trkpt lat="45.08998" lon="6.14888">
        <ele>1936.4</ele>
        <time>2020-09-05T08:08:16Z</time>
      </trkpt>
      <trkpt lat="45.08995" lon="6.1489">
        <ele>1936.8</ele>
        <time>2020-09-05T08:08:17Z</time>
      </trkpt>
      <trkpt lat="45.08993" lon="6.14892">
        <ele>1937.4</ele>
        <time>2020-09-05T08:08:18Z</time>
      </trkpt>
      <trkpt lat="45.0899" lon="6.14893">
        <ele>1937.6</ele>
        <time>2020-09-05T08:08:19Z</time>
      </trkpt>
      <trkpt lat="45.08987" lon="6.14895">
        <ele>1937.6</ele>
        <time>2020-09-05T08:08:20Z</time>
      </trkpt>
      <trkpt lat="45.08985" lon="6.14897">
        <ele>1938</ele>
        <time>2020-09-05T08:08:21Z</time>
      </trkpt>
      <trkpt lat="45.08982" lon="6.149">
        <ele>1938</ele>
        <time>2020-09-05T08:08:22Z</time>
      </trkpt>
      <trkpt lat="45.08979" lon="6.14902">
        <ele>1938.2</ele>
        <time>2020-09-05T08:08:23Z</time>
      </trkpt>
      <trkpt lat="45.08976" lon="6.14904">
        <ele>1938.6</ele>
        <time>2020-09-05T08:08:24Z</time>
      </trkpt>
      <trkpt lat="45.08974" lon="6.14907">
        <ele>1939</ele>
        <time>2020-09-05T08:08:25Z</time>
      </trkpt>
      <trkpt lat="45.08972" lon="6.1491">
        <ele>1939.2</ele>
        <time>2020-09-05T08:08:26Z</time>
      </trkpt>
      <trkpt lat="45.08969" lon="6.14912">
        <ele>1939.6</ele>
        <time>2020-09-05T08:08:27Z</time>
      </trkpt>
      <trkpt lat="45.08967" lon="6.14914">
        <ele>1940</ele>
        <time>2020-09-05T08:08:28Z</time>
      </trkpt>
      <trkpt lat="45.08964" lon="6.14916">
        <ele>1940.4</ele>
        <time>2020-09-05T08:08:29Z</time>
      </trkpt>
      <trkpt lat="45.08961" lon="6.14918">
        <ele>1940.8</ele>
        <time>2020-09-05T08:08:30Z</time>
      </trkpt>
      <trkpt lat="45.08959" lon="6.1492">
        <ele>1941.4</ele>
        <time>2020-09-05T08:08:31Z</time>
      </trkpt>
      <trkpt lat="45.08955" lon="6.14922">
        <ele>1941.6</ele>
        <time>2020-09-05T08:08:32Z</time>
      </trkpt>
      <trkpt lat="45.08953" lon="6.14923">
        <ele>1941.8</ele>
        <time>2020-09-05T08:08:33Z</time>
      </trkpt>
      <trkpt lat="45.0895" lon="6.14923">
        <ele>1942</ele>
        <time>2020-09-05T08:08:34Z</time>
      </trkpt>
      <trkpt lat="45.08947" lon="6.14924">
        <ele>1942.4</ele>
        <time>2020-09-05T08:08:35Z</time>
      </trkpt>
      <trkpt lat="45.08943" lon="6.14924">
        <ele>1942.6</ele>
        <time>2020-09-05T08:08:36Z</time>
      </trkpt>
      <trkpt lat="45.08941" lon="6.14924">
        <ele>1943</ele>
        <time>2020-09-05T08:08:37Z</time>
      </trkpt>
      <trkpt lat="45.08938" lon="6.14923">
        <ele>1943</ele>
        <time>2020-09-05T08:08:38Z</time>
      </trkpt>
      <trkpt lat="45.08935" lon="6.14922">
        <ele>1943.4</ele>
        <time>2020-09-05T08:08:39Z</time>
      </trkpt>
      <trkpt lat="45.08932" lon="6.1492">
        <ele>1943.6</ele>
        <time>2020-09-05T08:08:40Z</time>
      </trkpt>
      <trkpt lat="45.08929" lon="6.14919">
        <ele>1944</ele>
        <time>2020-09-05T08:08:41Z</time>
      </trkpt>
      <trkpt lat="45.08926" lon="6.14918">
        <ele>1944</ele>
        <time>2020-09-05T08:08:42Z</time>
      </trkpt>
      <trkpt lat="45.08923" lon="6.14917">
        <ele>1944.2</ele>
        <time>2020-09-05T08:08:43Z</time>
      </trkpt>
      <trkpt lat="45.08919" lon="6.14916">
        <ele>1944.6</ele>
        <time>2020-09-05T08:08:44Z</time>
      </trkpt>
      <trkpt lat="45.08916" lon="6.14916">
        <ele>1944.8</ele>
        <time>2020-09-05T08:08:45Z</time>
      </trkpt>
      <trkpt lat="45.08913" lon="6.14915">
        <ele>1945</ele>
        <time>2020-09-05T08:08:46Z</time>
      </trkpt>
      <trkpt lat="45.0891" lon="6.14916">
        <ele>1945.2</ele>
        <time>2020-09-05T08:08:47Z</time>
      </trkpt>
      <trkpt lat="45.08906" lon="6.14916">
        <ele>1945.6</ele>
        <time>2020-09-05T08:08:48Z</time>
      </trkpt>
      <trkpt lat="45.08903" lon="6.14917">
        <ele>1946</ele>
        <time>2020-09-05T08:08:49Z</time>
      </trkpt>
      <trkpt lat="45.089" lon="6.14919">
        <ele>1945.8</ele>
        <time>2020-09-05T08:08:50Z</time>
      </trkpt>
      <trkpt lat="45.08897" lon="6.14921">
        <ele>1946</ele>
        <time>2020-09-05T08:08:51Z</time>
      </trkpt>
      <trkpt lat="45.08894" lon="6.14923">
        <ele>1946.2</ele>
        <time>2020-09-05T08:08:52Z</time>
      </trkpt>
      <trkpt lat="45.08891" lon="6.14926">
        <ele>1946.6</ele>
        <time>2020-09-05T08:08:53Z</time>
      </trkpt>
      <trkpt lat="45.08888" lon="6.14929">
        <ele>1946.8</ele>
        <time>2020-09-05T08:08:54Z</time>
      </trkpt>
      <trkpt lat="45.08886" lon="6.14931">
        <ele>1947</ele>
        <time>2020-09-05T08:08:55Z</time>
      </trkpt>
      <trkpt lat="45.08883" lon="6.14934">
        <ele>1947.4</ele>
        <time>2020-09-05T08:08:56Z</time>
      </trkpt>
      <trkpt lat="45.08881" lon="6.14937">
        <ele>1947.8</ele>
        <time>2020-09-05T08:08:57Z</time>
      </trkpt>
      <trkpt lat="45.08878" lon="6.14939">
        <ele>1948</ele>
        <time>2020-09-05T08:08:58Z</time>
      </trkpt>
      <trkpt lat="45.08875" lon="6.1494">
        <ele>1948.2</ele>
        <time>2020-09-05T08:08:59Z</time>
      </trkpt>
      <trkpt lat="45.08871" lon="6.14941">
        <ele>1948.6</ele>
        <time>2020-09-05T08:09:00Z</time>
      </trkpt>
      <trkpt lat="45.08868" lon="6.14942">
        <ele>1949</ele>
        <time>2020-09-05T08:09:01Z</time>
      </trkpt>
      <trkpt lat="45.08864" lon="6.14942">
        <ele>1949</ele>
        <time>2020-09-05T08:09:02Z</time>
      </trkpt>
      <trkpt lat="45.08861" lon="6.14941">
        <ele>1949.4</ele>
        <time>2020-09-05T08:09:03Z</time>
      </trkpt>
      <trkpt lat="45.08857" lon="6.14941">
        <ele>1949.4</ele>
        <time>2020-09-05T08:09:04Z</time>
      </trkpt>
      <trkpt lat="45.08854" lon="6.14941">
        <ele>1949.8</ele>
        <time>2020-09-05T08:09:05Z</time>
      </trkpt>
      <trkpt lat="45.08851" lon="6.1494">
        <ele>1950.2</ele>
        <time>2020-09-05T08:09:06Z</time>
      </trkpt>
      <trkpt lat="45.08847" lon="6.14939">
        <ele>1950.6</ele>
        <time>2020-09-05T08:09:07Z</time>
      </trkpt>
      <trkpt lat="45.08844" lon="6.14939">
        <ele>1951</ele>
        <time>2020-09-05T08:09:08Z</time>
      </trkpt>
      <trkpt lat="45.08841" lon="6.14938">
        <ele>1951.4</ele>
        <time>2020-09-05T08:09:09Z</time>
      </trkpt>
      <trkpt lat="45.08837" lon="6.14936">
        <ele>1951.8</ele>
        <time>2020-09-05T08:09:10Z</time>
      </trkpt>
      <trkpt lat="45.08834" lon="6.14935">
        <ele>1952.4</ele>
        <time>2020-09-05T08:09:11Z</time>
      </trkpt>
      <trkpt lat="45.08831" lon="6.14934">
        <ele>1952.4</ele>
        <time>2020-09-05T08:09:12Z</time>
      </trkpt>
      <trkpt lat="45.08828" lon="6.14932">
        <ele>1953</ele>
        <time>2020-09-05T08:09:13Z</time>
      </trkpt>
      <trkpt lat="45.08825" lon="6.1493">
        <ele>1953.2</ele>
        <time>2020-09-05T08:09:14Z</time>
      </trkpt>
      <trkpt lat="45.08822" lon="6.14929">
        <ele>1953.4</ele>
        <time>2020-09-05T08:09:15Z</time>
      </trkpt>
      <trkpt lat="45.08819" lon="6.14927">
        <ele>1953.6</ele>
        <time>2020-09-05T08:09:16Z</time>
      </trkpt>
      <trkpt lat="45.08816" lon="6.14926">
        <ele>1953.6</ele>
        <time>2020-09-05T08:09:17Z</time>
      </trkpt>
      <trkpt lat="45.08813" lon="6.14924">
        <ele>1954.2</ele>
        <time>2020-09-05T08:09:18Z</time>
      </trkpt>
      <trkpt lat="45.0881" lon="6.14923">
        <ele>1954.4</ele>
        <time>2020-09-05T08:09:19Z</time>
      </trkpt>
      <trkpt lat="45.08807" lon="6.14921">
        <ele>1954.8</ele>
        <time>2020-09-05T08:09:20Z</time>
      </trkpt>
      <trkpt lat="45.08804" lon="6.14919">
        <ele>1955</ele>
        <time>2020-09-05T08:09:21Z</time>
      </trkpt>
      <trkpt lat="45.08801" lon="6.14918">
        <ele>1955.4</ele>
        <time>2020-09-05T08:09:22Z</time>
      </trkpt>
      <trkpt lat="45.08798" lon="6.14916">
        <ele>1955.8</ele>
        <time>2020-09-05T08:09:23Z</time>
      </trkpt>
      <trkpt lat="45.08794" lon="6.14915">
        <ele>1956.4</ele>
        <time>2020-09-05T08:09:24Z</time>
      </trkpt>
      <trkpt lat="45.08791" lon="6.14914">
        <ele>1956.6</ele>
        <time>2020-09-05T08:09:25Z</time>
      </trkpt>
      <trkpt lat="45.08787" lon="6.14913">
        <ele>1956.8</ele>
        <time>2020-09-05T08:09:26Z</time>
      </trkpt>
      <trkpt lat="45.08784" lon="6.14912">
        <ele>1957.2</ele>
        <time>2020-09-05T08:09:27Z</time>
      </trkpt>
      <trkpt lat="45.0878" lon="6.14911">
        <ele>1957.6</ele>
        <time>2020-09-05T08:09:28Z</time>
      </trkpt>
      <trkpt lat="45.08776" lon="6.1491">
        <ele>1958.2</ele>
        <time>2020-09-05T08:09:29Z</time>
      </trkpt>
      <trkpt lat="45.08772" lon="6.1491">
        <ele>1958.4</ele>
        <time>2020-09-05T08:09:30Z</time>
      </trkpt>
      <trkpt lat="45.08768" lon="6.14909">
        <ele>1958.8</ele>
        <time>2020-09-05T08:09:31Z</time>
      </trkpt>
      <trkpt lat="45.08765" lon="6.14908">
        <ele>1959.2</ele>
        <time>2020-09-05T08:09:32Z</time>
      </trkpt>
      <trkpt lat="45.08762" lon="6.14907">
        <ele>1959.4</ele>
        <time>2020-09-05T08:09:33Z</time>
      </trkpt>
      <trkpt lat="45.08758" lon="6.14907">
        <ele>1959.4</ele>
        <time>2020-09-05T08:09:34Z</time>
      </trkpt>
      <trkpt lat="45.08755" lon="6.14907">
        <ele>1959.6</ele>
        <time>2020-09-05T08:09:35Z</time>
      </trkpt>
      <trkpt lat="45.08752" lon="6.14907">
        <ele>1959.8</ele>
        <time>2020-09-05T08:09:36Z</time>
      </trkpt>
      <trkpt lat="45.08749" lon="6.14907">
        <ele>1960</ele>
        <time>2020-09-05T08:09:37Z</time>
      </trkpt>
      <trkpt lat="45.08746" lon="6.14906">
        <ele>1960.2</ele>
        <time>2020-09-05T08:09:38Z</time>
      </trkpt>
      <trkpt lat="45.08743" lon="6.14906">
        <ele>1960.2</ele>
        <time>2020-09-05T08:09:39Z</time>
      </trkpt>
      <trkpt lat="45.08741" lon="6.14905">
        <ele>1960</ele>
        <time>2020-09-05T08:09:40Z</time>
      </trkpt>
      <trkpt lat="45.08739" lon="6.14905">
        <ele>1959.8</ele>
        <time>2020-09-05T08:09:41Z</time>
      </trkpt>
      <trkpt lat="45.08737" lon="6.14906">
        <ele>1959.6</ele>
        <time>2020-09-05T08:09:42Z</time>
      </trkpt>
      <trkpt lat="45.08736" lon="6.14909">
        <ele>1959.2</ele>
        <time>2020-09-05T08:09:44Z</time>
      </trkpt>
      <trkpt lat="45.08737" lon="6.14911">
        <ele>1959</ele>
        <time>2020-09-05T08:12:34Z</time>
      </trkpt>
      <trkpt lat="45.08737" lon="6.14909">
        <ele>1958.8</ele>
        <time>2020-09-05T08:28:44Z</time>
      </trkpt>
      <trkpt lat="45.08734" lon="6.14907">
        <ele>1958.4</ele>
        <time>2020-09-05T08:29:07Z</time>
      </trkpt>
      <trkpt lat="45.08732" lon="6.14907">
        <ele>1958.4</ele>
        <time>2020-09-05T08:29:08Z</time>
      </trkpt>
      <trkpt lat="45.0873" lon="6.14906">
        <ele>1958.6</ele>
        <time>2020-09-05T08:29:09Z</time>
      </trkpt>
      <trkpt lat="45.08727" lon="6.14906">
        <ele>1958.6</ele>
        <time>2020-09-05T08:29:10Z</time>
      </trkpt>
      <trkpt lat="45.08723" lon="6.14905">
        <ele>1958.8</ele>
        <time>2020-09-05T08:29:11Z</time>
      </trkpt>
      <trkpt lat="45.08719" lon="6.14904">
        <ele>1959</ele>
        <time>2020-09-05T08:29:12Z</time>
      </trkpt>
      <trkpt lat="45.08715" lon="6.14903">
        <ele>1959.2</ele>
        <time>2020-09-05T08:29:13Z</time>
      </trkpt>
      <trkpt lat="45.0871" lon="6.14901">
        <ele>1959</ele>
        <time>2020-09-05T08:29:14Z</time>
      </trkpt>
      <trkpt lat="45.08705" lon="6.14899">
        <ele>1959</ele>
        <time>2020-09-05T08:29:15Z</time>
      </trkpt>
      <trkpt lat="45.08699" lon="6.14896">
        <ele>1958.8</ele>
        <time>2020-09-05T08:29:16Z</time>
      </trkpt>
      <trkpt lat="45.08693" lon="6.14893">
        <ele>1958.8</ele>
        <time>2020-09-05T08:29:17Z</time>
      </trkpt>
      <trkpt lat="45.08687" lon="6.1489">
        <ele>1958.2</ele>
        <time>2020-09-05T08:29:18Z</time>
      </trkpt>
      <trkpt lat="45.0868" lon="6.14886">
        <ele>1958</ele>
        <time>2020-09-05T08:29:19Z</time>
      </trkpt>
      <trkpt lat="45.08674" lon="6.14882">
        <ele>1957.8</ele>
        <time>2020-09-05T08:29:20Z</time>
      </trkpt>
      <trkpt lat="45.08667" lon="6.14877">
        <ele>1957.8</ele>
        <time>2020-09-05T08:29:21Z</time>
      </trkpt>
      <trkpt lat="45.0866" lon="6.14872">
        <ele>1957.4</ele>
        <time>2020-09-05T08:29:22Z</time>
      </trkpt>
      <trkpt lat="45.08653" lon="6.14866">
        <ele>1956.4</ele>
        <time>2020-09-05T08:29:23Z</time>
      </trkpt>
      <trkpt lat="45.08645" lon="6.1486">
        <ele>1956.2</ele>
        <time>2020-09-05T08:29:24Z</time>
      </trkpt>
      <trkpt lat="45.08638" lon="6.14853">
        <ele>1955.2</ele>
        <time>2020-09-05T08:29:25Z</time>
      </trkpt>
      <trkpt lat="45.08631" lon="6.14846">
        <ele>1955</ele>
        <time>2020-09-05T08:29:26Z</time>
      </trkpt>
      <trkpt lat="45.08623" lon="6.14839">
        <ele>1954.4</ele>
        <time>2020-09-05T08:29:27Z</time>
      </trkpt>
      <trkpt lat="45.08616" lon="6.14831">
        <ele>1954.2</ele>
        <time>2020-09-05T08:29:28Z</time>
      </trkpt>
      <trkpt lat="45.0861" lon="6.14823">
        <ele>1953.6</ele>
        <time>2020-09-05T08:29:29Z</time>
      </trkpt>
      <trkpt lat="45.08604" lon="6.14815">
        <ele>1953</ele>
        <time>2020-09-05T08:29:30Z</time>
      </trkpt>
      <trkpt lat="45.08598" lon="6.14806">
        <ele>1953</ele>
        <time>2020-09-05T08:29:31Z</time>
      </trkpt>
      <trkpt lat="45.08592" lon="6.14797">
        <ele>1952.2</ele>
        <time>2020-09-05T08:29:32Z</time>
      </trkpt>
      <trkpt lat="45.08586" lon="6.14788">
        <ele>1952.2</ele>
        <time>2020-09-05T08:29:33Z</time>
      </trkpt>
      <trkpt lat="45.0858" lon="6.14779">
        <ele>1952</ele>
        <time>2020-09-05T08:29:34Z</time>
      </trkpt>
      <trkpt lat="45.08573" lon="6.14771">
        <ele>1951.4</ele>
        <time>2020-09-05T08:29:35Z</time>
      </trkpt>
      <trkpt lat="45.08566" lon="6.14763">
        <ele>1951</ele>
        <time>2020-09-05T08:29:36Z</time>
      </trkpt>
      <trkpt lat="45.08559" lon="6.14755">
        <ele>1950.6</ele>
        <time>2020-09-05T08:29:37Z</time>
      </trkpt>
      <trkpt lat="45.08552" lon="6.14748">
        <ele>1950</ele>
        <time>2020-09-05T08:29:38Z</time>
      </trkpt>
      <trkpt lat="45.08544" lon="6.14741">
        <ele>1949.4</ele>
        <time>2020-09-05T08:29:39Z</time>
      </trkpt>
      <trkpt lat="45.08536" lon="6.14734">
        <ele>1948.6</ele>
        <time>2020-09-05T08:29:40Z</time>
      </trkpt>
      <trkpt lat="45.08528" lon="6.14727">
        <ele>1948</ele>
        <time>2020-09-05T08:29:41Z</time>
      </trkpt>
      <trkpt lat="45.0852" lon="6.14719">
        <ele>1947.6</ele>
        <time>2020-09-05T08:29:42Z</time>
      </trkpt>
      <trkpt lat="45.08513" lon="6.14711">
        <ele>1946.8</ele>
        <time>2020-09-05T08:29:43Z</time>
      </trkpt>
      <trkpt lat="45.08505" lon="6.14702">
        <ele>1946.4</ele>
        <time>2020-09-05T08:29:44Z</time>
      </trkpt>
      <trkpt lat="45.08498" lon="6.14693">
        <ele>1945.8</ele>
        <time>2020-09-05T08:29:45Z</time>
      </trkpt>
      <trkpt lat="45.08491" lon="6.14683">
        <ele>1945.6</ele>
        <time>2020-09-05T08:29:46Z</time>
      </trkpt>
      <trkpt lat="45.08484" lon="6.14673">
        <ele>1945</ele>
        <time>2020-09-05T08:29:47Z</time>
      </trkpt>
      <trkpt lat="45.08478" lon="6.14663">
        <ele>1944.4</ele>
        <time>2020-09-05T08:29:48Z</time>
      </trkpt>
      <trkpt lat="45.08471" lon="6.14652">
        <ele>1944.2</ele>
        <time>2020-09-05T08:29:49Z</time>
      </trkpt>
      <trkpt lat="45.08464" lon="6.14642">
        <ele>1943.6</ele>
        <time>2020-09-05T08:29:50Z</time>
      </trkpt>
      <trkpt lat="45.08458" lon="6.14633">
        <ele>1943.4</ele>
        <time>2020-09-05T08:29:51Z</time>
      </trkpt>
      <trkpt lat="45.08451" lon="6.14624">
        <ele>1942.8</ele>
        <time>2020-09-05T08:29:52Z</time>
      </trkpt>
      <trkpt lat="45.08445" lon="6.14615">
        <ele>1941.6</ele>
        <time>2020-09-05T08:29:53Z</time>
      </trkpt>
      <trkpt lat="45.08439" lon="6.14606">
        <ele>1941</ele>
        <time>2020-09-05T08:29:54Z</time>
      </trkpt>
      <trkpt lat="45.08432" lon="6.14597">
        <ele>1940.4</ele>
        <time>2020-09-05T08:29:55Z</time>
      </trkpt>
      <trkpt lat="45.08426" lon="6.14587">
        <ele>1939.4</ele>
        <time>2020-09-05T08:29:56Z</time>
      </trkpt>
      <trkpt lat="45.08419" lon="6.14578">
        <ele>1938.8</ele>
        <time>2020-09-05T08:29:57Z</time>
      </trkpt>
      <trkpt lat="45.08413" lon="6.14568">
        <ele>1938.2</ele>
        <time>2020-09-05T08:29:58Z</time>
      </trkpt>
      <trkpt lat="45.08406" lon="6.14558">
        <ele>1937.6</ele>
        <time>2020-09-05T08:29:59Z</time>
      </trkpt>
      <trkpt lat="45.084" lon="6.14548">
        <ele>1936.8</ele>
        <time>2020-09-05T08:30:00Z</time>
      </trkpt>
      <trkpt lat="45.08394" lon="6.14537">
        <ele>1936.4</ele>
        <time>2020-09-05T08:30:01Z</time>
      </trkpt>
      <trkpt lat="45.08387" lon="6.14526">
        <ele>1936</ele>
        <time>2020-09-05T08:30:02Z</time>
      </trkpt>
      <trkpt lat="45.08381" lon="6.14515">
        <ele>1935</ele>
        <time>2020-09-05T08:30:03Z</time>
      </trkpt>
      <trkpt lat="45.08375" lon="6.14504">
        <ele>1934</ele>
        <time>2020-09-05T08:30:04Z</time>
      </trkpt>
      <trkpt lat="45.08369" lon="6.14493">
        <ele>1933</ele>
        <time>2020-09-05T08:30:05Z</time>
      </trkpt>
      <trkpt lat="45.08363" lon="6.14482">
        <ele>1932</ele>
        <time>2020-09-05T08:30:06Z</time>
      </trkpt>
      <trkpt lat="45.08357" lon="6.14472">
        <ele>1930.6</ele>
        <time>2020-09-05T08:30:07Z</time>
      </trkpt>
      <trkpt lat="45.08351" lon="6.14461">
        <ele>1930</ele>
        <time>2020-09-05T08:30:08Z</time>
      </trkpt>
      <trkpt lat="45.08345" lon="6.14451">
        <ele>1929</ele>
        <time>2020-09-05T08:30:09Z</time>
      </trkpt>
      <trkpt lat="45.08339" lon="6.1444">
        <ele>1928.6</ele>
        <time>2020-09-05T08:30:10Z</time>
      </trkpt>
      <trkpt lat="45.08332" lon="6.14429">
        <ele>1927.4</ele>
        <time>2020-09-05T08:30:11Z</time>
      </trkpt>
      <trkpt lat="45.08326" lon="6.14419">
        <ele>1926.6</ele>
        <time>2020-09-05T08:30:12Z</time>
      </trkpt>
      <trkpt lat="45.08319" lon="6.14409">
        <ele>1925.8</ele>
        <time>2020-09-05T08:30:13Z</time>
      </trkpt>
      <trkpt lat="45.08313" lon="6.14399">
        <ele>1925.4</ele>
        <time>2020-09-05T08:30:14Z</time>
      </trkpt>
      <trkpt lat="45.08305" lon="6.14388">
        <ele>1924.8</ele>
        <time>2020-09-05T08:30:15Z</time>
      </trkpt>
      <trkpt lat="45.08298" lon="6.14378">
        <ele>1923.4</ele>
        <time>2020-09-05T08:30:16Z</time>
      </trkpt>
      <trkpt lat="45.08291" lon="6.14367">
        <ele>1922.4</ele>
        <time>2020-09-05T08:30:17Z</time>
      </trkpt>
      <trkpt lat="45.08284" lon="6.14357">
        <ele>1921.2</ele>
        <time>2020-09-05T08:30:18Z</time>
      </trkpt>
      <trkpt lat="45.08277" lon="6.14347">
        <ele>1920</ele>
        <time>2020-09-05T08:30:19Z</time>
      </trkpt>
      <trkpt lat="45.0827" lon="6.14336">
        <ele>1918.8</ele>
        <time>2020-09-05T08:30:20Z</time>
      </trkpt>
      <trkpt lat="45.08264" lon="6.14325">
        <ele>1917.8</ele>
        <time>2020-09-05T08:30:21Z</time>
      </trkpt>
      <trkpt lat="45.08257" lon="6.14313">
        <ele>1916.6</ele>
        <time>2020-09-05T08:30:22Z</time>
      </trkpt>
      <trkpt lat="45.0825" lon="6.14301">
        <ele>1915</ele>
        <time>2020-09-05T08:30:23Z</time>
      </trkpt>
      <trkpt lat="45.08244" lon="6.1429">
        <ele>1913.4</ele>
        <time>2020-09-05T08:30:24Z</time>
      </trkpt>
      <trkpt lat="45.08237" lon="6.14279">
        <ele>1912.2</ele>
        <time>2020-09-05T08:30:25Z</time>
      </trkpt>
      <trkpt lat="45.08231" lon="6.14269">
        <ele>1911.2</ele>
        <time>2020-09-05T08:30:26Z</time>
      </trkpt>
      <trkpt lat="45.08224" lon="6.14259">
        <ele>1910.2</ele>
        <time>2020-09-05T08:30:27Z</time>
      </trkpt>
      <trkpt lat="45.08218" lon="6.14249">
        <ele>1909</ele>
        <time>2020-09-05T08:30:28Z</time>
      </trkpt>
      <trkpt lat="45.08211" lon="6.14238">
        <ele>1907.8</ele>
        <time>2020-09-05T08:30:29Z</time>
      </trkpt>
      <trkpt lat="45.08205" lon="6.14227">
        <ele>1906.6</ele>
        <time>2020-09-05T08:30:30Z</time>
      </trkpt>
      <trkpt lat="45.082" lon="6.14217">
        <ele>1905.4</ele>
        <time>2020-09-05T08:30:31Z</time>
      </trkpt>
      <trkpt lat="45.08194" lon="6.14207">
        <ele>1904.6</ele>
        <time>2020-09-05T08:30:32Z</time>
      </trkpt>
      <trkpt lat="45.0819" lon="6.14195">
        <ele>1903</ele>
        <time>2020-09-05T08:30:33Z</time>
      </trkpt>
      <trkpt lat="45.08186" lon="6.14182">
        <ele>1901.8</ele>
        <time>2020-09-05T08:30:34Z</time>
      </trkpt>
      <trkpt lat="45.08182" lon="6.14168">
        <ele>1900.8</ele>
        <time>2020-09-05T08:30:35Z</time>
      </trkpt>
      <trkpt lat="45.08179" lon="6.14153">
        <ele>1900</ele>
        <time>2020-09-05T08:30:36Z</time>
      </trkpt>
      <trkpt lat="45.08176" lon="6.14137">
        <ele>1898.6</ele>
        <time>2020-09-05T08:30:37Z</time>
      </trkpt>
      <trkpt lat="45.08173" lon="6.14123">
        <ele>1897.4</ele>
        <time>2020-09-05T08:30:38Z</time>
      </trkpt>
      <trkpt lat="45.0817" lon="6.14109">
        <ele>1896</ele>
        <time>2020-09-05T08:30:39Z</time>
      </trkpt>
      <trkpt lat="45.08166" lon="6.14095">
        <ele>1894.8</ele>
        <time>2020-09-05T08:30:40Z</time>
      </trkpt>
      <trkpt lat="45.08162" lon="6.14081">
        <ele>1893.8</ele>
        <time>2020-09-05T08:30:41Z</time>
      </trkpt>
      <trkpt lat="45.08158" lon="6.14067">
        <ele>1893.4</ele>
        <time>2020-09-05T08:30:42Z</time>
      </trkpt>
      <trkpt lat="45.08153" lon="6.14054">
        <ele>1892.4</ele>
        <time>2020-09-05T08:30:43Z</time>
      </trkpt>
      <trkpt lat="45.08148" lon="6.14041">
        <ele>1891</ele>
        <time>2020-09-05T08:30:44Z</time>
      </trkpt>
      <trkpt lat="45.08143" lon="6.14028">
        <ele>1890</ele>
        <time>2020-09-05T08:30:45Z</time>
      </trkpt>
      <trkpt lat="45.08138" lon="6.14015">
        <ele>1888.6</ele>
        <time>2020-09-05T08:30:46Z</time>
      </trkpt>
      <trkpt lat="45.08134" lon="6.14002">
        <ele>1887.6</ele>
        <time>2020-09-05T08:30:47Z</time>
      </trkpt>
      <trkpt lat="45.0813" lon="6.13987">
        <ele>1886.4</ele>
        <time>2020-09-05T08:30:48Z</time>
      </trkpt>
      <trkpt lat="45.08125" lon="6.13973">
        <ele>1885.6</ele>
        <time>2020-09-05T08:30:49Z</time>
      </trkpt>
      <trkpt lat="45.08121" lon="6.13958">
        <ele>1884.8</ele>
        <time>2020-09-05T08:30:50Z</time>
      </trkpt>
      <trkpt lat="45.08116" lon="6.13944">
        <ele>1884.2</ele>
        <time>2020-09-05T08:30:51Z</time>
      </trkpt>
      <trkpt lat="45.08112" lon="6.13931">
        <ele>1883</ele>
        <time>2020-09-05T08:30:52Z</time>
      </trkpt>
      <trkpt lat="45.08107" lon="6.13917">
        <ele>1881.8</ele>
        <time>2020-09-05T08:30:53Z</time>
      </trkpt>
      <trkpt lat="45.08103" lon="6.13903">
        <ele>1880.4</ele>
        <time>2020-09-05T08:30:54Z</time>
      </trkpt>
      <trkpt lat="45.08099" lon="6.13889">
        <ele>1879</ele>
        <time>2020-09-05T08:30:55Z</time>
      </trkpt>
      <trkpt lat="45.08096" lon="6.13875">
        <ele>1877.4</ele>
        <time>2020-09-05T08:30:56Z</time>
      </trkpt>
      <trkpt lat="45.08093" lon="6.13861">
        <ele>1875.8</ele>
        <time>2020-09-05T08:30:57Z</time>
      </trkpt>
      <trkpt lat="45.0809" lon="6.13848">
        <ele>1874.4</ele>
        <time>2020-09-05T08:30:58Z</time>
      </trkpt>
      <trkpt lat="45.08088" lon="6.13834">
        <ele>1873</ele>
        <time>2020-09-05T08:30:59Z</time>
      </trkpt>
      <trkpt lat="45.08086" lon="6.1382">
        <ele>1872</ele>
        <time>2020-09-05T08:31:00Z</time>
      </trkpt>
      <trkpt lat="45.08084" lon="6.13805">
        <ele>1870.4</ele>
        <time>2020-09-05T08:31:01Z</time>
      </trkpt>
      <trkpt lat="45.08082" lon="6.13792">
        <ele>1869</ele>
        <time>2020-09-05T08:31:02Z</time>
      </trkpt>
      <trkpt lat="45.08081" lon="6.13779">
        <ele>1867.6</ele>
        <time>2020-09-05T08:31:03Z</time>
      </trkpt>
      <trkpt lat="45.08079" lon="6.13766">
        <ele>1867</ele>
        <time>2020-09-05T08:31:04Z</time>
      </trkpt>
      <trkpt lat="45.08078" lon="6.13753">
        <ele>1865.8</ele>
        <time>2020-09-05T08:31:05Z</time>
      </trkpt>
      <trkpt lat="45.08077" lon="6.13739">
        <ele>1864.8</ele>
        <time>2020-09-05T08:31:06Z</time>
      </trkpt>
      <trkpt lat="45.08075" lon="6.13725">
        <ele>1863</ele>
        <time>2020-09-05T08:31:07Z</time>
      </trkpt>
      <trkpt lat="45.08074" lon="6.13711">
        <ele>1861.8</ele>
        <time>2020-09-05T08:31:08Z</time>
      </trkpt>
      <trkpt lat="45.08073" lon="6.13698">
        <ele>1860.4</ele>
        <time>2020-09-05T08:31:09Z</time>
      </trkpt>
      <trkpt lat="45.08072" lon="6.13685">
        <ele>1859.6</ele>
        <time>2020-09-05T08:31:10Z</time>
      </trkpt>
      <trkpt lat="45.08072" lon="6.13672">
        <ele>1859</ele>
        <time>2020-09-05T08:31:11Z</time>
      </trkpt>
      <trkpt lat="45.08071" lon="6.13657">
        <ele>1858.2</ele>
        <time>2020-09-05T08:31:12Z</time>
      </trkpt>
      <trkpt lat="45.0807" lon="6.13643">
        <ele>1857</ele>
        <time>2020-09-05T08:31:13Z</time>
      </trkpt>
      <trkpt lat="45.0807" lon="6.13628">
        <ele>1856.2</ele>
        <time>2020-09-05T08:31:14Z</time>
      </trkpt>
      <trkpt lat="45.08069" lon="6.13612">
        <ele>1855.4</ele>
        <time>2020-09-05T08:31:15Z</time>
      </trkpt>
      <trkpt lat="45.08068" lon="6.13596">
        <ele>1854.4</ele>
        <time>2020-09-05T08:31:16Z</time>
      </trkpt>
      <trkpt lat="45.08067" lon="6.13581">
        <ele>1853.8</ele>
        <time>2020-09-05T08:31:17Z</time>
      </trkpt>
      <trkpt lat="45.08066" lon="6.13567">
        <ele>1852.8</ele>
        <time>2020-09-05T08:31:18Z</time>
      </trkpt>
      <trkpt lat="45.08064" lon="6.13554">
        <ele>1851.4</ele>
        <time>2020-09-05T08:31:19Z</time>
      </trkpt>
      <trkpt lat="45.08061" lon="6.13541">
        <ele>1849.8</ele>
        <time>2020-09-05T08:31:20Z</time>
      </trkpt>
      <trkpt lat="45.08057" lon="6.13529">
        <ele>1848.2</ele>
        <time>2020-09-05T08:31:21Z</time>
      </trkpt>
      <trkpt lat="45.08054" lon="6.13516">
        <ele>1847.4</ele>
        <time>2020-09-05T08:31:22Z</time>
      </trkpt>
      <trkpt lat="45.0805" lon="6.13503">
        <ele>1846.4</ele>
        <time>2020-09-05T08:31:23Z</time>
      </trkpt>
      <trkpt lat="45.08046" lon="6.1349">
        <ele>1845.4</ele>
        <time>2020-09-05T08:31:24Z</time>
      </trkpt>
      <trkpt lat="45.08042" lon="6.13476">
        <ele>1844.6</ele>
        <time>2020-09-05T08:31:25Z</time>
      </trkpt>
      <trkpt lat="45.08038" lon="6.13462">
        <ele>1844</ele>
        <time>2020-09-05T08:31:26Z</time>
      </trkpt>
      <trkpt lat="45.08033" lon="6.13448">
        <ele>1843.4</ele>
        <time>2020-09-05T08:31:27Z</time>
      </trkpt>
      <trkpt lat="45.08029" lon="6.13434">
        <ele>1841.8</ele>
        <time>2020-09-05T08:31:28Z</time>
      </trkpt>
      <trkpt lat="45.08025" lon="6.13419">
        <ele>1841.2</ele>
        <time>2020-09-05T08:31:29Z</time>
      </trkpt>
      <trkpt lat="45.0802" lon="6.13405">
        <ele>1839.8</ele>
        <time>2020-09-05T08:31:30Z</time>
      </trkpt>
      <trkpt lat="45.08016" lon="6.1339">
        <ele>1838.8</ele>
        <time>2020-09-05T08:31:31Z</time>
      </trkpt>
      <trkpt lat="45.08012" lon="6.13376">
        <ele>1838</ele>
        <time>2020-09-05T08:31:32Z</time>
      </trkpt>
      <trkpt lat="45.08009" lon="6.13361">
        <ele>1836.6</ele>
        <time>2020-09-05T08:31:33Z</time>
      </trkpt>
      <trkpt lat="45.08005" lon="6.13348">
        <ele>1835.6</ele>
        <time>2020-09-05T08:31:34Z</time>
      </trkpt>
      <trkpt lat="45.08002" lon="6.13335">
        <ele>1834.8</ele>
        <time>2020-09-05T08:31:35Z</time>
      </trkpt>
      <trkpt lat="45.07998" lon="6.13323">
        <ele>1834</ele>
        <time>2020-09-05T08:31:36Z</time>
      </trkpt>
      <trkpt lat="45.07994" lon="6.13311">
        <ele>1832.8</ele>
        <time>2020-09-05T08:31:37Z</time>
      </trkpt>
      <trkpt lat="45.07989" lon="6.13299">
        <ele>1831.8</ele>
        <time>2020-09-05T08:31:38Z</time>
      </trkpt>
      <trkpt lat="45.07984" lon="6.13288">
        <ele>1831.2</ele>
        <time>2020-09-05T08:31:39Z</time>
      </trkpt>
      <trkpt lat="45.07979" lon="6.13277">
        <ele>1829.6</ele>
        <time>2020-09-05T08:31:40Z</time>
      </trkpt>
      <trkpt lat="45.07974" lon="6.13266">
        <ele>1828.2</ele>
        <time>2020-09-05T08:31:41Z</time>
      </trkpt>
      <trkpt lat="45.07971" lon="6.13256">
        <ele>1827.4</ele>
        <time>2020-09-05T08:31:42Z</time>
      </trkpt>
      <trkpt lat="45.07968" lon="6.13245">
        <ele>1826.6</ele>
        <time>2020-09-05T08:31:43Z</time>
      </trkpt>
      <trkpt lat="45.07967" lon="6.13235">
        <ele>1825.4</ele>
        <time>2020-09-05T08:31:44Z</time>
      </trkpt>
      <trkpt lat="45.07966" lon="6.13224">
        <ele>1824.4</ele>
        <time>2020-09-05T08:31:45Z</time>
      </trkpt>
      <trkpt lat="45.07966" lon="6.13213">
        <ele>1823.4</ele>
        <time>2020-09-05T08:31:46Z</time>
      </trkpt>
      <trkpt lat="45.07967" lon="6.13202">
        <ele>1822.6</ele>
        <time>2020-09-05T08:31:47Z</time>
      </trkpt>
      <trkpt lat="45.07968" lon="6.1319">
        <ele>1821.6</ele>
        <time>2020-09-05T08:31:48Z</time>
      </trkpt>
      <trkpt lat="45.0797" lon="6.13177">
        <ele>1821</ele>
        <time>2020-09-05T08:31:49Z</time>
      </trkpt>
      <trkpt lat="45.07973" lon="6.13165">
        <ele>1820.2</ele>
        <time>2020-09-05T08:31:50Z</time>
      </trkpt>
      <trkpt lat="45.07976" lon="6.13153">
        <ele>1819</ele>
        <time>2020-09-05T08:31:51Z</time>
      </trkpt>
      <trkpt lat="45.07979" lon="6.1314">
        <ele>1818.2</ele>
        <time>2020-09-05T08:31:52Z</time>
      </trkpt>
      <trkpt lat="45.07983" lon="6.13129">
        <ele>1817.4</ele>
        <time>2020-09-05T08:31:53Z</time>
      </trkpt>
      <trkpt lat="45.07986" lon="6.13117">
        <ele>1816.4</ele>
        <time>2020-09-05T08:31:54Z</time>
      </trkpt>
      <trkpt lat="45.0799" lon="6.13107">
        <ele>1815.4</ele>
        <time>2020-09-05T08:31:55Z</time>
      </trkpt>
      <trkpt lat="45.07992" lon="6.13099">
        <ele>1814.4</ele>
        <time>2020-09-05T08:31:56Z</time>
      </trkpt>
      <trkpt lat="45.07995" lon="6.13092">
        <ele>1813.4</ele>
        <time>2020-09-05T08:31:57Z</time>
      </trkpt>
      <trkpt lat="45.07999" lon="6.13088">
        <ele>1812.4</ele>
        <time>2020-09-05T08:31:58Z</time>
      </trkpt>
      <trkpt lat="45.08003" lon="6.1309">
        <ele>1811.6</ele>
        <time>2020-09-05T08:31:59Z</time>
      </trkpt>
      <trkpt lat="45.08006" lon="6.13096">
        <ele>1811</ele>
        <time>2020-09-05T08:32:00Z</time>
      </trkpt>
      <trkpt lat="45.08008" lon="6.13104">
        <ele>1810.2</ele>
        <time>2020-09-05T08:32:01Z</time>
      </trkpt>
      <trkpt lat="45.08009" lon="6.13113">
        <ele>1809.2</ele>
        <time>2020-09-05T08:32:02Z</time>
      </trkpt>
      <trkpt lat="45.08011" lon="6.13123">
        <ele>1809</ele>
        <time>2020-09-05T08:32:03Z</time>
      </trkpt>
      <trkpt lat="45.08013" lon="6.13133">
        <ele>1809</ele>
        <time>2020-09-05T08:32:04Z</time>
      </trkpt>
      <trkpt lat="45.08017" lon="6.13143">
        <ele>1808.6</ele>
        <time>2020-09-05T08:32:05Z</time>
      </trkpt>
      <trkpt lat="45.08021" lon="6.13153">
        <ele>1808.4</ele>
        <time>2020-09-05T08:32:06Z</time>
      </trkpt>
      <trkpt lat="45.08026" lon="6.13164">
        <ele>1808</ele>
        <time>2020-09-05T08:32:07Z</time>
      </trkpt>
      <trkpt lat="45.08032" lon="6.13174">
        <ele>1807.2</ele>
        <time>2020-09-05T08:32:08Z</time>
      </trkpt>
      <trkpt lat="45.08038" lon="6.13185">
        <ele>1806.4</ele>
        <time>2020-09-05T08:32:09Z</time>
      </trkpt>
      <trkpt lat="45.08045" lon="6.13196">
        <ele>1805.6</ele>
        <time>2020-09-05T08:32:10Z</time>
      </trkpt>
      <trkpt lat="45.08052" lon="6.13205">
        <ele>1805</ele>
        <time>2020-09-05T08:32:11Z</time>
      </trkpt>
      <trkpt lat="45.0806" lon="6.13212">
        <ele>1804.2</ele>
        <time>2020-09-05T08:32:12Z</time>
      </trkpt>
      <trkpt lat="45.08068" lon="6.13215">
        <ele>1803.8</ele>
        <time>2020-09-05T08:32:13Z</time>
      </trkpt>
      <trkpt lat="45.08077" lon="6.13216">
        <ele>1802.6</ele>
        <time>2020-09-05T08:32:14Z</time>
      </trkpt>
      <trkpt lat="45.08086" lon="6.13216">
        <ele>1802.2</ele>
        <time>2020-09-05T08:32:15Z</time>
      </trkpt>
      <trkpt lat="45.08094" lon="6.13214">
        <ele>1801.4</ele>
        <time>2020-09-05T08:32:16Z</time>
      </trkpt>
      <trkpt lat="45.08103" lon="6.13211">
        <ele>1800.8</ele>
        <time>2020-09-05T08:32:17Z</time>
      </trkpt>
      <trkpt lat="45.08111" lon="6.13206">
        <ele>1800</ele>
        <time>2020-09-05T08:32:18Z</time>
      </trkpt>
      <trkpt lat="45.08118" lon="6.132">
        <ele>1799.4</ele>
        <time>2020-09-05T08:32:19Z</time>
      </trkpt>
      <trkpt lat="45.08126" lon="6.13194">
        <ele>1798.4</ele>
        <time>2020-09-05T08:32:20Z</time>
      </trkpt>
      <trkpt lat="45.08133" lon="6.13188">
        <ele>1797.6</ele>
        <time>2020-09-05T08:32:21Z</time>
      </trkpt>
      <trkpt lat="45.08141" lon="6.13181">
        <ele>1797.2</ele>
        <time>2020-09-05T08:32:22Z</time>
      </trkpt>
      <trkpt lat="45.08148" lon="6.13175">
        <ele>1796.6</ele>
        <time>2020-09-05T08:32:23Z</time>
      </trkpt>
      <trkpt lat="45.08154" lon="6.13169">
        <ele>1795.6</ele>
        <time>2020-09-05T08:32:24Z</time>
      </trkpt>
      <trkpt lat="45.08158" lon="6.13162">
        <ele>1794.8</ele>
        <time>2020-09-05T08:32:25Z</time>
      </trkpt>
      <trkpt lat="45.08161" lon="6.13153">
        <ele>1794.4</ele>
        <time>2020-09-05T08:32:26Z</time>
      </trkpt>
      <trkpt lat="45.08161" lon="6.13144">
        <ele>1794.2</ele>
        <time>2020-09-05T08:32:27Z</time>
      </trkpt>
      <trkpt lat="45.08158" lon="6.13133">
        <ele>1793.6</ele>
        <time>2020-09-05T08:32:28Z</time>
      </trkpt>
      <trkpt lat="45.08154" lon="6.13123">
        <ele>1793</ele>
        <time>2020-09-05T08:32:29Z</time>
      </trkpt>
      <trkpt lat="45.0815" lon="6.13111">
        <ele>1792.6</ele>
        <time>2020-09-05T08:32:30Z</time>
      </trkpt>
      <trkpt lat="45.08147" lon="6.131">
        <ele>1791.8</ele>
        <time>2020-09-05T08:32:31Z</time>
      </trkpt>
      <trkpt lat="45.08144" lon="6.13088">
        <ele>1791.6</ele>
        <time>2020-09-05T08:32:32Z</time>
      </trkpt>
      <trkpt lat="45.08142" lon="6.13075">
        <ele>1791</ele>
        <time>2020-09-05T08:32:33Z</time>
      </trkpt>
      <trkpt lat="45.08142" lon="6.13062">
        <ele>1790.4</ele>
        <time>2020-09-05T08:32:34Z</time>
      </trkpt>
      <trkpt lat="45.08144" lon="6.13048">
        <ele>1790</ele>
        <time>2020-09-05T08:32:35Z</time>
      </trkpt>
      <trkpt lat="45.08148" lon="6.13036">
        <ele>1789.6</ele>
        <time>2020-09-05T08:32:36Z</time>
      </trkpt>
      <trkpt lat="45.08153" lon="6.13024">
        <ele>1789.2</ele>
        <time>2020-09-05T08:32:37Z</time>
      </trkpt>
      <trkpt lat="45.08159" lon="6.13013">
        <ele>1788.8</ele>
        <time>2020-09-05T08:32:38Z</time>
      </trkpt>
      <trkpt lat="45.08164" lon="6.13001">
        <ele>1788.2</ele>
        <time>2020-09-05T08:32:39Z</time>
      </trkpt>
      <trkpt lat="45.0817" lon="6.1299">
        <ele>1787.6</ele>
        <time>2020-09-05T08:32:40Z</time>
      </trkpt>
      <trkpt lat="45.08175" lon="6.12977">
        <ele>1786.6</ele>
        <time>2020-09-05T08:32:41Z</time>
      </trkpt>
      <trkpt lat="45.0818" lon="6.12964">
        <ele>1785.4</ele>
        <time>2020-09-05T08:32:42Z</time>
      </trkpt>
      <trkpt lat="45.08183" lon="6.1295">
        <ele>1784.2</ele>
        <time>2020-09-05T08:32:43Z</time>
      </trkpt>
      <trkpt lat="45.08185" lon="6.12935">
        <ele>1783.6</ele>
        <time>2020-09-05T08:32:44Z</time>
      </trkpt>
      <trkpt lat="45.08184" lon="6.12919">
        <ele>1783</ele>
        <time>2020-09-05T08:32:45Z</time>
      </trkpt>
      <trkpt lat="45.08183" lon="6.12903">
        <ele>1782.6</ele>
        <time>2020-09-05T08:32:46Z</time>
      </trkpt>
      <trkpt lat="45.08182" lon="6.12887">
        <ele>1781.8</ele>
        <time>2020-09-05T08:32:47Z</time>
      </trkpt>
      <trkpt lat="45.08182" lon="6.12871">
        <ele>1781.6</ele>
        <time>2020-09-05T08:32:48Z</time>
      </trkpt>
      <trkpt lat="45.08181" lon="6.12856">
        <ele>1780.8</ele>
        <time>2020-09-05T08:32:49Z</time>
      </trkpt>
      <trkpt lat="45.0818" lon="6.12841">
        <ele>1779.8</ele>
        <time>2020-09-05T08:32:50Z</time>
      </trkpt>
      <trkpt lat="45.08178" lon="6.12827">
        <ele>1778.4</ele>
        <time>2020-09-05T08:32:51Z</time>
      </trkpt>
      <trkpt lat="45.08175" lon="6.12813">
        <ele>1778</ele>
        <time>2020-09-05T08:32:52Z</time>
      </trkpt>
      <trkpt lat="45.0817" lon="6.12799">
        <ele>1777</ele>
        <time>2020-09-05T08:32:53Z</time>
      </trkpt>
      <trkpt lat="45.08166" lon="6.12785">
        <ele>1776.2</ele>
        <time>2020-09-05T08:32:54Z</time>
      </trkpt>
      <trkpt lat="45.08161" lon="6.1277">
        <ele>1775.8</ele>
        <time>2020-09-05T08:32:55Z</time>
      </trkpt>
      <trkpt lat="45.08157" lon="6.12756">
        <ele>1775.4</ele>
        <time>2020-09-05T08:32:56Z</time>
      </trkpt>
      <trkpt lat="45.08154" lon="6.12742">
        <ele>1774.2</ele>
        <time>2020-09-05T08:32:57Z</time>
      </trkpt>
      <trkpt lat="45.0815" lon="6.12728">
        <ele>1774</ele>
        <time>2020-09-05T08:32:58Z</time>
      </trkpt>
      <trkpt lat="45.08147" lon="6.12715">
        <ele>1773</ele>
        <time>2020-09-05T08:32:59Z</time>
      </trkpt>
      <trkpt lat="45.08144" lon="6.12704">
        <ele>1772</ele>
        <time>2020-09-05T08:33:00Z</time>
      </trkpt>
      <trkpt lat="45.08142" lon="6.12692">
        <ele>1770.8</ele>
        <time>2020-09-05T08:33:01Z</time>
      </trkpt>
      <trkpt lat="45.0814" lon="6.12679">
        <ele>1770.2</ele>
        <time>2020-09-05T08:33:02Z</time>
      </trkpt>
      <trkpt lat="45.08138" lon="6.12667">
        <ele>1770.2</ele>
        <time>2020-09-05T08:33:03Z</time>
      </trkpt>
      <trkpt lat="45.08135" lon="6.12655">
        <ele>1769.6</ele>
        <time>2020-09-05T08:33:04Z</time>
      </trkpt>
      <trkpt lat="45.0813" lon="6.12644">
        <ele>1768.8</ele>
        <time>2020-09-05T08:33:05Z</time>
      </trkpt>
      <trkpt lat="45.08124" lon="6.12633">
        <ele>1768.4</ele>
        <time>2020-09-05T08:33:06Z</time>
      </trkpt>
      <trkpt lat="45.08118" lon="6.12623">
        <ele>1767.6</ele>
        <time>2020-09-05T08:33:07Z</time>
      </trkpt>
      <trkpt lat="45.08112" lon="6.12612">
        <ele>1766.8</ele>
        <time>2020-09-05T08:33:08Z</time>
      </trkpt>
      <trkpt lat="45.08106" lon="6.126">
        <ele>1766.2</ele>
        <time>2020-09-05T08:33:09Z</time>
      </trkpt>
      <trkpt lat="45.081" lon="6.12589">
        <ele>1764.6</ele>
        <time>2020-09-05T08:33:10Z</time>
      </trkpt>
      <trkpt lat="45.08094" lon="6.12577">
        <ele>1763.6</ele>
        <time>2020-09-05T08:33:11Z</time>
      </trkpt>
      <trkpt lat="45.08088" lon="6.12567">
        <ele>1763.2</ele>
        <time>2020-09-05T08:33:12Z</time>
      </trkpt>
      <trkpt lat="45.08083" lon="6.12557">
        <ele>1762.2</ele>
        <time>2020-09-05T08:33:13Z</time>
      </trkpt>
      <trkpt lat="45.08077" lon="6.12547">
        <ele>1761.4</ele>
        <time>2020-09-05T08:33:14Z</time>
      </trkpt>
      <trkpt lat="45.08071" lon="6.12537">
        <ele>1761.4</ele>
        <time>2020-09-05T08:33:15Z</time>
      </trkpt>
      <trkpt lat="45.08065" lon="6.12526">
        <ele>1760.8</ele>
        <time>2020-09-05T08:33:16Z</time>
      </trkpt>
      <trkpt lat="45.08058" lon="6.12515">
        <ele>1760.2</ele>
        <time>2020-09-05T08:33:17Z</time>
      </trkpt>
      <trkpt lat="45.08052" lon="6.12504">
        <ele>1759.6</ele>
        <time>2020-09-05T08:33:18Z</time>
      </trkpt>
      <trkpt lat="45.08045" lon="6.12493">
        <ele>1759</ele>
        <time>2020-09-05T08:33:19Z</time>
      </trkpt>
      <trkpt lat="45.08038" lon="6.12482">
        <ele>1758.2</ele>
        <time>2020-09-05T08:33:20Z</time>
      </trkpt>
      <trkpt lat="45.08031" lon="6.12471">
        <ele>1757.4</ele>
        <time>2020-09-05T08:33:21Z</time>
      </trkpt>
      <trkpt lat="45.08025" lon="6.12459">
        <ele>1756.6</ele>
        <time>2020-09-05T08:33:22Z</time>
      </trkpt>
      <trkpt lat="45.08018" lon="6.12449">
        <ele>1755.6</ele>
        <time>2020-09-05T08:33:23Z</time>
      </trkpt>
      <trkpt lat="45.08011" lon="6.1244">
        <ele>1755</ele>
        <time>2020-09-05T08:33:24Z</time>
      </trkpt>
      <trkpt lat="45.08004" lon="6.12432">
        <ele>1753.8</ele>
        <time>2020-09-05T08:33:25Z</time>
      </trkpt>
      <trkpt lat="45.07998" lon="6.12424">
        <ele>1753.2</ele>
        <time>2020-09-05T08:33:26Z</time>
      </trkpt>
      <trkpt lat="45.07992" lon="6.12416">
        <ele>1753</ele>
        <time>2020-09-05T08:33:27Z</time>
      </trkpt>
      <trkpt lat="45.07986" lon="6.12407">
        <ele>1752</ele>
        <time>2020-09-05T08:33:28Z</time>
      </trkpt>
      <trkpt lat="45.0798" lon="6.12397">
        <ele>1751.2</ele>
        <time>2020-09-05T08:33:29Z</time>
      </trkpt>
      <trkpt lat="45.07975" lon="6.12388">
        <ele>1750.2</ele>
        <time>2020-09-05T08:33:30Z</time>
      </trkpt>
      <trkpt lat="45.0797" lon="6.12377">
        <ele>1749.6</ele>
        <time>2020-09-05T08:33:31Z</time>
      </trkpt>
      <trkpt lat="45.07965" lon="6.12367">
        <ele>1749.6</ele>
        <time>2020-09-05T08:33:32Z</time>
      </trkpt>
      <trkpt lat="45.07962" lon="6.12356">
        <ele>1748.6</ele>
        <time>2020-09-05T08:33:33Z</time>
      </trkpt>
      <trkpt lat="45.07959" lon="6.12344">
        <ele>1747.8</ele>
        <time>2020-09-05T08:33:34Z</time>
      </trkpt>
      <trkpt lat="45.07957" lon="6.12332">
        <ele>1747.4</ele>
        <time>2020-09-05T08:33:35Z</time>
      </trkpt>
      <trkpt lat="45.07956" lon="6.12319">
        <ele>1746.8</ele>
        <time>2020-09-05T08:33:36Z</time>
      </trkpt>
      <trkpt lat="45.07954" lon="6.12306">
        <ele>1745.6</ele>
        <time>2020-09-05T08:33:37Z</time>
      </trkpt>
      <trkpt lat="45.07951" lon="6.12293">
        <ele>1745.4</ele>
        <time>2020-09-05T08:33:38Z</time>
      </trkpt>
      <trkpt lat="45.07948" lon="6.1228">
        <ele>1744.8</ele>
        <time>2020-09-05T08:33:39Z</time>
      </trkpt>
      <trkpt lat="45.07946" lon="6.12267">
        <ele>1744.4</ele>
        <time>2020-09-05T08:33:40Z</time>
      </trkpt>
      <trkpt lat="45.07943" lon="6.12253">
        <ele>1744.4</ele>
        <time>2020-09-05T08:33:41Z</time>
      </trkpt>
      <trkpt lat="45.0794" lon="6.1224">
        <ele>1743.8</ele>
        <time>2020-09-05T08:33:42Z</time>
      </trkpt>
      <trkpt lat="45.07938" lon="6.12226">
        <ele>1743</ele>
        <time>2020-09-05T08:33:43Z</time>
      </trkpt>
      <trkpt lat="45.07936" lon="6.12212">
        <ele>1742.6</ele>
        <time>2020-09-05T08:33:44Z</time>
      </trkpt>
      <trkpt lat="45.07934" lon="6.12198">
        <ele>1742</ele>
        <time>2020-09-05T08:33:45Z</time>
      </trkpt>
      <trkpt lat="45.07932" lon="6.12184">
        <ele>1741.6</ele>
        <time>2020-09-05T08:33:46Z</time>
      </trkpt>
      <trkpt lat="45.07929" lon="6.1217">
        <ele>1740.8</ele>
        <time>2020-09-05T08:33:47Z</time>
      </trkpt>
      <trkpt lat="45.07926" lon="6.12156">
        <ele>1740.4</ele>
        <time>2020-09-05T08:33:48Z</time>
      </trkpt>
      <trkpt lat="45.07925" lon="6.12141">
        <ele>1739.4</ele>
        <time>2020-09-05T08:33:49Z</time>
      </trkpt>
      <trkpt lat="45.07924" lon="6.12126">
        <ele>1738.8</ele>
        <time>2020-09-05T08:33:50Z</time>
      </trkpt>
      <trkpt lat="45.07923" lon="6.12112">
        <ele>1738.4</ele>
        <time>2020-09-05T08:33:51Z</time>
      </trkpt>
      <trkpt lat="45.07921" lon="6.12098">
        <ele>1738.4</ele>
        <time>2020-09-05T08:33:52Z</time>
      </trkpt>
      <trkpt lat="45.07919" lon="6.12084">
        <ele>1738</ele>
        <time>2020-09-05T08:33:53Z</time>
      </trkpt>
      <trkpt lat="45.07916" lon="6.12071">
        <ele>1737.4</ele>
        <time>2020-09-05T08:33:54Z</time>
      </trkpt>
      <trkpt lat="45.07914" lon="6.12058">
        <ele>1736.8</ele>
        <time>2020-09-05T08:33:55Z</time>
      </trkpt>
      <trkpt lat="45.07911" lon="6.12046">
        <ele>1736.4</ele>
        <time>2020-09-05T08:33:56Z</time>
      </trkpt>
      <trkpt lat="45.07907" lon="6.12034">
        <ele>1736</ele>
        <time>2020-09-05T08:33:57Z</time>
      </trkpt>
      <trkpt lat="45.07904" lon="6.12023">
        <ele>1735.8</ele>
        <time>2020-09-05T08:33:58Z</time>
      </trkpt>
      <trkpt lat="45.079" lon="6.12012">
        <ele>1735.4</ele>
        <time>2020-09-05T08:33:59Z</time>
      </trkpt>
      <trkpt lat="45.07897" lon="6.12001">
        <ele>1735.2</ele>
        <time>2020-09-05T08:34:00Z</time>
      </trkpt>
      <trkpt lat="45.07894" lon="6.11991">
        <ele>1734.8</ele>
        <time>2020-09-05T08:34:01Z</time>
      </trkpt>
      <trkpt lat="45.07891" lon="6.1198">
        <ele>1735</ele>
        <time>2020-09-05T08:34:02Z</time>
      </trkpt>
      <trkpt lat="45.07888" lon="6.11969">
        <ele>1734.8</ele>
        <time>2020-09-05T08:34:03Z</time>
      </trkpt>
      <trkpt lat="45.07886" lon="6.11959">
        <ele>1734.6</ele>
        <time>2020-09-05T08:34:04Z</time>
      </trkpt>
      <trkpt lat="45.07884" lon="6.11948">
        <ele>1734.6</ele>
        <time>2020-09-05T08:34:05Z</time>
      </trkpt>
      <trkpt lat="45.07882" lon="6.11937">
        <ele>1734.4</ele>
        <time>2020-09-05T08:34:06Z</time>
      </trkpt>
      <trkpt lat="45.0788" lon="6.11927">
        <ele>1734</ele>
        <time>2020-09-05T08:34:07Z</time>
      </trkpt>
      <trkpt lat="45.07879" lon="6.11916">
        <ele>1733.6</ele>
        <time>2020-09-05T08:34:08Z</time>
      </trkpt>
      <trkpt lat="45.07878" lon="6.11906">
        <ele>1733.4</ele>
        <time>2020-09-05T08:34:09Z</time>
      </trkpt>
      <trkpt lat="45.07877" lon="6.11896">
        <ele>1733</ele>
        <time>2020-09-05T08:34:10Z</time>
      </trkpt>
      <trkpt lat="45.07878" lon="6.11886">
        <ele>1733.2</ele>
        <time>2020-09-05T08:34:11Z</time>
      </trkpt>
      <trkpt lat="45.07879" lon="6.11876">
        <ele>1732.8</ele>
        <time>2020-09-05T08:34:12Z</time>
      </trkpt>
      <trkpt lat="45.07881" lon="6.11867">
        <ele>1733.2</ele>
        <time>2020-09-05T08:34:13Z</time>
      </trkpt>
      <trkpt lat="45.07884" lon="6.11858">
        <ele>1733.2</ele>
        <time>2020-09-05T08:34:14Z</time>
      </trkpt>
      <trkpt lat="45.07886" lon="6.1185">
        <ele>1733.4</ele>
        <time>2020-09-05T08:34:15Z</time>
      </trkpt>
      <trkpt lat="45.07889" lon="6.11842">
        <ele>1733.4</ele>
        <time>2020-09-05T08:34:16Z</time>
      </trkpt>
      <trkpt lat="45.07891" lon="6.11834">
        <ele>1733.2</ele>
        <time>2020-09-05T08:34:17Z</time>
      </trkpt>
      <trkpt lat="45.07892" lon="6.11826">
        <ele>1733.2</ele>
        <time>2020-09-05T08:34:18Z</time>
      </trkpt>
      <trkpt lat="45.07893" lon="6.11818">
        <ele>1733.2</ele>
        <time>2020-09-05T08:34:19Z</time>
      </trkpt>
      <trkpt lat="45.07894" lon="6.1181">
        <ele>1733.4</ele>
        <time>2020-09-05T08:34:20Z</time>
      </trkpt>
      <trkpt lat="45.07895" lon="6.11801">
        <ele>1733.4</ele>
        <time>2020-09-05T08:34:21Z</time>
      </trkpt>
      <trkpt lat="45.07896" lon="6.11793">
        <ele>1733.6</ele>
        <time>2020-09-05T08:34:22Z</time>
      </trkpt>
      <trkpt lat="45.07897" lon="6.11784">
        <ele>1733.6</ele>
        <time>2020-09-05T08:34:23Z</time>
      </trkpt>
      <trkpt lat="45.07898" lon="6.11775">
        <ele>1733.8</ele>
        <time>2020-09-05T08:34:24Z</time>
      </trkpt>
      <trkpt lat="45.07899" lon="6.11767">
        <ele>1734</ele>
        <time>2020-09-05T08:34:25Z</time>
      </trkpt>
      <trkpt lat="45.079" lon="6.11758">
        <ele>1734</ele>
        <time>2020-09-05T08:34:26Z</time>
      </trkpt>
      <trkpt lat="45.07901" lon="6.11749">
        <ele>1734</ele>
        <time>2020-09-05T08:34:27Z</time>
      </trkpt>
      <trkpt lat="45.07903" lon="6.11741">
        <ele>1734.2</ele>
        <time>2020-09-05T08:34:28Z</time>
      </trkpt>
      <trkpt lat="45.07905" lon="6.11733">
        <ele>1734.2</ele>
        <time>2020-09-05T08:34:29Z</time>
      </trkpt>
      <trkpt lat="45.07907" lon="6.11725">
        <ele>1734.2</ele>
        <time>2020-09-05T08:34:30Z</time>
      </trkpt>
      <trkpt lat="45.0791" lon="6.11718">
        <ele>1734.2</ele>
        <time>2020-09-05T08:34:31Z</time>
      </trkpt>
      <trkpt lat="45.07912" lon="6.11711">
        <ele>1734.6</ele>
        <time>2020-09-05T08:34:32Z</time>
      </trkpt>
      <trkpt lat="45.07915" lon="6.11705">
        <ele>1734.8</ele>
        <time>2020-09-05T08:34:33Z</time>
      </trkpt>
      <trkpt lat="45.07917" lon="6.11699">
        <ele>1734.8</ele>
        <time>2020-09-05T08:34:34Z</time>
      </trkpt>
      <trkpt lat="45.0792" lon="6.11693">
        <ele>1735</ele>
        <time>2020-09-05T08:34:35Z</time>
      </trkpt>
      <trkpt lat="45.07922" lon="6.11687">
        <ele>1735</ele>
        <time>2020-09-05T08:34:36Z</time>
      </trkpt>
      <trkpt lat="45.07924" lon="6.11681">
        <ele>1735</ele>
        <time>2020-09-05T08:34:37Z</time>
      </trkpt>
      <trkpt lat="45.07927" lon="6.11676">
        <ele>1735.2</ele>
        <time>2020-09-05T08:34:38Z</time>
      </trkpt>
      <trkpt lat="45.07929" lon="6.1167">
        <ele>1735.6</ele>
        <time>2020-09-05T08:34:39Z</time>
      </trkpt>
      <trkpt lat="45.07931" lon="6.11665">
        <ele>1735.6</ele>
        <time>2020-09-05T08:34:40Z</time>
      </trkpt>
      <trkpt lat="45.07933" lon="6.1166">
        <ele>1735.8</ele>
        <time>2020-09-05T08:34:41Z</time>
      </trkpt>
      <trkpt lat="45.07936" lon="6.11654">
        <ele>1736</ele>
        <time>2020-09-05T08:34:42Z</time>
      </trkpt>
      <trkpt lat="45.07938" lon="6.11649">
        <ele>1736</ele>
        <time>2020-09-05T08:34:43Z</time>
      </trkpt>
      <trkpt lat="45.0794" lon="6.11643">
        <ele>1736.4</ele>
        <time>2020-09-05T08:34:44Z</time>
      </trkpt>
      <trkpt lat="45.07942" lon="6.11637">
        <ele>1736.8</ele>
        <time>2020-09-05T08:34:45Z</time>
      </trkpt>
      <trkpt lat="45.07944" lon="6.11631">
        <ele>1737</ele>
        <time>2020-09-05T08:34:46Z</time>
      </trkpt>
      <trkpt lat="45.07946" lon="6.11625">
        <ele>1737.4</ele>
        <time>2020-09-05T08:34:47Z</time>
      </trkpt>
      <trkpt lat="45.07948" lon="6.11618">
        <ele>1737.6</ele>
        <time>2020-09-05T08:34:48Z</time>
      </trkpt>
      <trkpt lat="45.07949" lon="6.11612">
        <ele>1738.2</ele>
        <time>2020-09-05T08:34:49Z</time>
      </trkpt>
      <trkpt lat="45.07951" lon="6.11607">
        <ele>1738.4</ele>
        <time>2020-09-05T08:34:50Z</time>
      </trkpt>
      <trkpt lat="45.07952" lon="6.11601">
        <ele>1738.8</ele>
        <time>2020-09-05T08:34:51Z</time>
      </trkpt>
      <trkpt lat="45.07954" lon="6.11595">
        <ele>1739.4</ele>
        <time>2020-09-05T08:34:52Z</time>
      </trkpt>
      <trkpt lat="45.07955" lon="6.11589">
        <ele>1739.6</ele>
        <time>2020-09-05T08:34:53Z</time>
      </trkpt>
      <trkpt lat="45.07957" lon="6.11583">
        <ele>1739.6</ele>
        <time>2020-09-05T08:34:54Z</time>
      </trkpt>
      <trkpt lat="45.07958" lon="6.11577">
        <ele>1739.6</ele>
        <time>2020-09-05T08:34:55Z</time>
      </trkpt>
      <trkpt lat="45.0796" lon="6.11571">
        <ele>1740</ele>
        <time>2020-09-05T08:34:56Z</time>
      </trkpt>
      <trkpt lat="45.07961" lon="6.11565">
        <ele>1740</ele>
        <time>2020-09-05T08:34:57Z</time>
      </trkpt>
      <trkpt lat="45.07963" lon="6.11559">
        <ele>1740.6</ele>
        <time>2020-09-05T08:34:58Z</time>
      </trkpt>
      <trkpt lat="45.07964" lon="6.11553">
        <ele>1741</ele>
        <time>2020-09-05T08:34:59Z</time>
      </trkpt>
      <trkpt lat="45.07965" lon="6.11547">
        <ele>1741.2</ele>
        <time>2020-09-05T08:35:00Z</time>
      </trkpt>
      <trkpt lat="45.07967" lon="6.11542">
        <ele>1741.6</ele>
        <time>2020-09-05T08:35:01Z</time>
      </trkpt>
      <trkpt lat="45.07969" lon="6.11537">
        <ele>1742.2</ele>
        <time>2020-09-05T08:35:02Z</time>
      </trkpt>
      <trkpt lat="45.0797" lon="6.11532">
        <ele>1742.2</ele>
        <time>2020-09-05T08:35:03Z</time>
      </trkpt>
      <trkpt lat="45.07972" lon="6.11528">
        <ele>1742.4</ele>
        <time>2020-09-05T08:35:04Z</time>
      </trkpt>
      <trkpt lat="45.07974" lon="6.11523">
        <ele>1742.6</ele>
        <time>2020-09-05T08:35:05Z</time>
      </trkpt>
      <trkpt lat="45.07975" lon="6.11519">
        <ele>1742.6</ele>
        <time>2020-09-05T08:35:06Z</time>
      </trkpt>
      <trkpt lat="45.07977" lon="6.11515">
        <ele>1742.4</ele>
        <time>2020-09-05T08:35:07Z</time>
      </trkpt>
      <trkpt lat="45.07978" lon="6.11511">
        <ele>1742.6</ele>
        <time>2020-09-05T08:35:08Z</time>
      </trkpt>
      <trkpt lat="45.0798" lon="6.11506">
        <ele>1742.8</ele>
        <time>2020-09-05T08:35:09Z</time>
      </trkpt>
      <trkpt lat="45.07982" lon="6.11501">
        <ele>1743.4</ele>
        <time>2020-09-05T08:35:10Z</time>
      </trkpt>
      <trkpt lat="45.07983" lon="6.11496">
        <ele>1743.2</ele>
        <time>2020-09-05T08:35:11Z</time>
      </trkpt>
      <trkpt lat="45.07985" lon="6.11491">
        <ele>1743.4</ele>
        <time>2020-09-05T08:35:12Z</time>
      </trkpt>
      <trkpt lat="45.07987" lon="6.11486">
        <ele>1743.8</ele>
        <time>2020-09-05T08:35:13Z</time>
      </trkpt>
      <trkpt lat="45.07988" lon="6.11481">
        <ele>1744</ele>
        <time>2020-09-05T08:35:14Z</time>
      </trkpt>
      <trkpt lat="45.0799" lon="6.11476">
        <ele>1744.4</ele>
        <time>2020-09-05T08:35:15Z</time>
      </trkpt>
      <trkpt lat="45.07992" lon="6.11471">
        <ele>1744.6</ele>
        <time>2020-09-05T08:35:16Z</time>
      </trkpt>
      <trkpt lat="45.07993" lon="6.11466">
        <ele>1745.2</ele>
        <time>2020-09-05T08:35:17Z</time>
      </trkpt>
      <trkpt lat="45.07995" lon="6.11461">
        <ele>1745.2</ele>
        <time>2020-09-05T08:35:18Z</time>
      </trkpt>
      <trkpt lat="45.07996" lon="6.11456">
        <ele>1745.8</ele>
        <time>2020-09-05T08:35:19Z</time>
      </trkpt>
      <trkpt lat="45.07998" lon="6.11451">
        <ele>1746</ele>
        <time>2020-09-05T08:35:20Z</time>
      </trkpt>
      <trkpt lat="45.08" lon="6.11447">
        <ele>1746.2</ele>
        <time>2020-09-05T08:35:21Z</time>
      </trkpt>
      <trkpt lat="45.08002" lon="6.11442">
        <ele>1746.4</ele>
        <time>2020-09-05T08:35:22Z</time>
      </trkpt>
      <trkpt lat="45.08004" lon="6.11438">
        <ele>1746.4</ele>
        <time>2020-09-05T08:35:23Z</time>
      </trkpt>
      <trkpt lat="45.08006" lon="6.11433">
        <ele>1746.6</ele>
        <time>2020-09-05T08:35:24Z</time>
      </trkpt>
      <trkpt lat="45.08008" lon="6.11428">
        <ele>1747</ele>
        <time>2020-09-05T08:35:25Z</time>
      </trkpt>
      <trkpt lat="45.0801" lon="6.11424">
        <ele>1747.2</ele>
        <time>2020-09-05T08:35:26Z</time>
      </trkpt>
      <trkpt lat="45.08012" lon="6.11419">
        <ele>1747.2</ele>
        <time>2020-09-05T08:35:27Z</time>
      </trkpt>
      <trkpt lat="45.08014" lon="6.11414">
        <ele>1747.6</ele>
        <time>2020-09-05T08:35:28Z</time>
      </trkpt>
      <trkpt lat="45.08016" lon="6.11409">
        <ele>1747.6</ele>
        <time>2020-09-05T08:35:29Z</time>
      </trkpt>
      <trkpt lat="45.08018" lon="6.11403">
        <ele>1747.6</ele>
        <time>2020-09-05T08:35:30Z</time>
      </trkpt>
      <trkpt lat="45.08019" lon="6.11398">
        <ele>1747.6</ele>
        <time>2020-09-05T08:35:31Z</time>
      </trkpt>
      <trkpt lat="45.08021" lon="6.11392">
        <ele>1747.8</ele>
        <time>2020-09-05T08:35:32Z</time>
      </trkpt>
      <trkpt lat="45.08022" lon="6.11387">
        <ele>1748</ele>
        <time>2020-09-05T08:35:33Z</time>
      </trkpt>
      <trkpt lat="45.08023" lon="6.11381">
        <ele>1748.2</ele>
        <time>2020-09-05T08:35:34Z</time>
      </trkpt>
      <trkpt lat="45.08024" lon="6.11375">
        <ele>1748.6</ele>
        <time>2020-09-05T08:35:35Z</time>
      </trkpt>
      <trkpt lat="45.08024" lon="6.11369">
        <ele>1748.8</ele>
        <time>2020-09-05T08:35:36Z</time>
      </trkpt>
      <trkpt lat="45.08025" lon="6.11363">
        <ele>1749</ele>
        <time>2020-09-05T08:35:37Z</time>
      </trkpt>
      <trkpt lat="45.08026" lon="6.11357">
        <ele>1749.2</ele>
        <time>2020-09-05T08:35:38Z</time>
      </trkpt>
      <trkpt lat="45.08027" lon="6.11352">
        <ele>1749.2</ele>
        <time>2020-09-05T08:35:39Z</time>
      </trkpt>
      <trkpt lat="45.08029" lon="6.11347">
        <ele>1749.2</ele>
        <time>2020-09-05T08:35:40Z</time>
      </trkpt>
      <trkpt lat="45.0803" lon="6.11342">
        <ele>1749.4</ele>
        <time>2020-09-05T08:35:41Z</time>
      </trkpt>
      <trkpt lat="45.08031" lon="6.11337">
        <ele>1749.6</ele>
        <time>2020-09-05T08:35:42Z</time>
      </trkpt>
      <trkpt lat="45.08032" lon="6.11332">
        <ele>1749.6</ele>
        <time>2020-09-05T08:35:43Z</time>
      </trkpt>
      <trkpt lat="45.08034" lon="6.11327">
        <ele>1749.8</ele>
        <time>2020-09-05T08:35:44Z</time>
      </trkpt>
      <trkpt lat="45.08035" lon="6.11322">
        <ele>1750</ele>
        <time>2020-09-05T08:35:45Z</time>
      </trkpt>
      <trkpt lat="45.08036" lon="6.11317">
        <ele>1750.2</ele>
        <time>2020-09-05T08:35:46Z</time>
      </trkpt>
      <trkpt lat="45.08038" lon="6.11312">
        <ele>1750.4</ele>
        <time>2020-09-05T08:35:47Z</time>
      </trkpt>
      <trkpt lat="45.08039" lon="6.11306">
        <ele>1750.6</ele>
        <time>2020-09-05T08:35:48Z</time>
      </trkpt>
      <trkpt lat="45.0804" lon="6.11301">
        <ele>1750.8</ele>
        <time>2020-09-05T08:35:49Z</time>
      </trkpt>
      <trkpt lat="45.0804" lon="6.11296">
        <ele>1751</ele>
        <time>2020-09-05T08:35:50Z</time>
      </trkpt>
      <trkpt lat="45.0804" lon="6.11291">
        <ele>1751.4</ele>
        <time>2020-09-05T08:35:51Z</time>
      </trkpt>
      <trkpt lat="45.0804" lon="6.11285">
        <ele>1751.6</ele>
        <time>2020-09-05T08:35:52Z</time>
      </trkpt>
      <trkpt lat="45.0804" lon="6.1128">
        <ele>1751.8</ele>
        <time>2020-09-05T08:35:53Z</time>
      </trkpt>
      <trkpt lat="45.08039" lon="6.11275">
        <ele>1752</ele>
        <time>2020-09-05T08:35:54Z</time>
      </trkpt>
      <trkpt lat="45.08038" lon="6.1127">
        <ele>1752</ele>
        <time>2020-09-05T08:35:55Z</time>
      </trkpt>
      <trkpt lat="45.08038" lon="6.11265">
        <ele>1752.4</ele>
        <time>2020-09-05T08:35:56Z</time>
      </trkpt>
      <trkpt lat="45.08037" lon="6.1126">
        <ele>1752.4</ele>
        <time>2020-09-05T08:35:57Z</time>
      </trkpt>
      <trkpt lat="45.08036" lon="6.11254">
        <ele>1752.4</ele>
        <time>2020-09-05T08:35:58Z</time>
      </trkpt>
      <trkpt lat="45.08035" lon="6.11248">
        <ele>1752.8</ele>
        <time>2020-09-05T08:35:59Z</time>
      </trkpt>
      <trkpt lat="45.08035" lon="6.11243">
        <ele>1752.6</ele>
        <time>2020-09-05T08:36:00Z</time>
      </trkpt>
      <trkpt lat="45.08034" lon="6.11237">
        <ele>1752.8</ele>
        <time>2020-09-05T08:36:01Z</time>
      </trkpt>
      <trkpt lat="45.08033" lon="6.11231">
        <ele>1752.8</ele>
        <time>2020-09-05T08:36:02Z</time>
      </trkpt>
      <trkpt lat="45.08033" lon="6.11224">
        <ele>1752.8</ele>
        <time>2020-09-05T08:36:03Z</time>
      </trkpt>
      <trkpt lat="45.08033" lon="6.11218">
        <ele>1752.8</ele>
        <time>2020-09-05T08:36:04Z</time>
      </trkpt>
      <trkpt lat="45.08033" lon="6.11211">
        <ele>1753.2</ele>
        <time>2020-09-05T08:36:05Z</time>
      </trkpt>
      <trkpt lat="45.08033" lon="6.11205">
        <ele>1753.2</ele>
        <time>2020-09-05T08:36:06Z</time>
      </trkpt>
      <trkpt lat="45.08034" lon="6.11198">
        <ele>1753</ele>
        <time>2020-09-05T08:36:07Z</time>
      </trkpt>
      <trkpt lat="45.08034" lon="6.11191">
        <ele>1753.4</ele>
        <time>2020-09-05T08:36:08Z</time>
      </trkpt>
      <trkpt lat="45.08034" lon="6.11185">
        <ele>1753</ele>
        <time>2020-09-05T08:36:09Z</time>
      </trkpt>
      <trkpt lat="45.08034" lon="6.11178">
        <ele>1753.2</ele>
        <time>2020-09-05T08:36:10Z</time>
      </trkpt>
      <trkpt lat="45.08034" lon="6.11171">
        <ele>1753</ele>
        <time>2020-09-05T08:36:11Z</time>
      </trkpt>
      <trkpt lat="45.08034" lon="6.11164">
        <ele>1753</ele>
        <time>2020-09-05T08:36:12Z</time>
      </trkpt>
      <trkpt lat="45.08034" lon="6.11156">
        <ele>1753</ele>
        <time>2020-09-05T08:36:13Z</time>
      </trkpt>
      <trkpt lat="45.08033" lon="6.11149">
        <ele>1752.8</ele>
        <time>2020-09-05T08:36:14Z</time>
      </trkpt>
      <trkpt lat="45.08033" lon="6.11141">
        <ele>1753.4</ele>
        <time>2020-09-05T08:36:15Z</time>
      </trkpt>
      <trkpt lat="45.08033" lon="6.11134">
        <ele>1753.2</ele>
        <time>2020-09-05T08:36:16Z</time>
      </trkpt>
      <trkpt lat="45.08033" lon="6.11126">
        <ele>1753.2</ele>
        <time>2020-09-05T08:36:17Z</time>
      </trkpt>
      <trkpt lat="45.08033" lon="6.11118">
        <ele>1753</ele>
        <time>2020-09-05T08:36:18Z</time>
      </trkpt>
      <trkpt lat="45.08033" lon="6.11111">
        <ele>1753</ele>
        <time>2020-09-05T08:36:19Z</time>
      </trkpt>
      <trkpt lat="45.08033" lon="6.11102">
        <ele>1753.2</ele>
        <time>2020-09-05T08:36:20Z</time>
      </trkpt>
      <trkpt lat="45.08032" lon="6.11095">
        <ele>1753.2</ele>
        <time>2020-09-05T08:36:21Z</time>
      </trkpt>
      <trkpt lat="45.0803" lon="6.11087">
        <ele>1753</ele>
        <time>2020-09-05T08:36:22Z</time>
      </trkpt>
      <trkpt lat="45.08028" lon="6.11079">
        <ele>1753</ele>
        <time>2020-09-05T08:36:23Z</time>
      </trkpt>
      <trkpt lat="45.08026" lon="6.11072">
        <ele>1753</ele>
        <time>2020-09-05T08:36:24Z</time>
      </trkpt>
      <trkpt lat="45.08024" lon="6.11064">
        <ele>1753</ele>
        <time>2020-09-05T08:36:25Z</time>
      </trkpt>
      <trkpt lat="45.08023" lon="6.11057">
        <ele>1753</ele>
        <time>2020-09-05T08:36:26Z</time>
      </trkpt>
      <trkpt lat="45.08022" lon="6.11049">
        <ele>1753.6</ele>
        <time>2020-09-05T08:36:27Z</time>
      </trkpt>
      <trkpt lat="45.08021" lon="6.11041">
        <ele>1753.6</ele>
        <time>2020-09-05T08:36:28Z</time>
      </trkpt>
      <trkpt lat="45.0802" lon="6.11033">
        <ele>1753.6</ele>
        <time>2020-09-05T08:36:29Z</time>
      </trkpt>
      <trkpt lat="45.0802" lon="6.11025">
        <ele>1753.4</ele>
        <time>2020-09-05T08:36:30Z</time>
      </trkpt>
      <trkpt lat="45.08019" lon="6.11017">
        <ele>1754</ele>
        <time>2020-09-05T08:36:31Z</time>
      </trkpt>
      <trkpt lat="45.08018" lon="6.11009">
        <ele>1754.4</ele>
        <time>2020-09-05T08:36:32Z</time>
      </trkpt>
      <trkpt lat="45.08018" lon="6.11001">
        <ele>1754.4</ele>
        <time>2020-09-05T08:36:33Z</time>
      </trkpt>
      <trkpt lat="45.08018" lon="6.10994">
        <ele>1754.8</ele>
        <time>2020-09-05T08:36:34Z</time>
      </trkpt>
      <trkpt lat="45.0802" lon="6.10987">
        <ele>1754.8</ele>
        <time>2020-09-05T08:36:35Z</time>
      </trkpt>
      <trkpt lat="45.08023" lon="6.10981">
        <ele>1754.6</ele>
        <time>2020-09-05T08:36:36Z</time>
      </trkpt>
      <trkpt lat="45.08027" lon="6.10978">
        <ele>1754.4</ele>
        <time>2020-09-05T08:36:37Z</time>
      </trkpt>
      <trkpt lat="45.08031" lon="6.10974">
        <ele>1754.2</ele>
        <time>2020-09-05T08:36:38Z</time>
      </trkpt>
      <trkpt lat="45.08034" lon="6.10971">
        <ele>1754</ele>
        <time>2020-09-05T08:36:39Z</time>
      </trkpt>
      <trkpt lat="45.08038" lon="6.10968">
        <ele>1753.8</ele>
        <time>2020-09-05T08:36:40Z</time>
      </trkpt>
      <trkpt lat="45.08041" lon="6.10965">
        <ele>1753.8</ele>
        <time>2020-09-05T08:36:41Z</time>
      </trkpt>
      <trkpt lat="45.08044" lon="6.10962">
        <ele>1753.8</ele>
        <time>2020-09-05T08:36:42Z</time>
      </trkpt>
      <trkpt lat="45.08047" lon="6.10959">
        <ele>1754</ele>
        <time>2020-09-05T08:36:43Z</time>
      </trkpt>
      <trkpt lat="45.0805" lon="6.10956">
        <ele>1754.2</ele>
        <time>2020-09-05T08:36:44Z</time>
      </trkpt>
      <trkpt lat="45.08053" lon="6.10953">
        <ele>1754.2</ele>
        <time>2020-09-05T08:36:45Z</time>
      </trkpt>
      <trkpt lat="45.08055" lon="6.1095">
        <ele>1754.6</ele>
        <time>2020-09-05T08:36:46Z</time>
      </trkpt>
      <trkpt lat="45.08057" lon="6.10948">
        <ele>1754.6</ele>
        <time>2020-09-05T08:36:47Z</time>
      </trkpt>
      <trkpt lat="45.0806" lon="6.10946">
        <ele>1755</ele>
        <time>2020-09-05T08:36:48Z</time>
      </trkpt>
      <trkpt lat="45.08062" lon="6.10944">
        <ele>1755.2</ele>
        <time>2020-09-05T08:36:49Z</time>
      </trkpt>
      <trkpt lat="45.08065" lon="6.10942">
        <ele>1755.4</ele>
        <time>2020-09-05T08:36:50Z</time>
      </trkpt>
      <trkpt lat="45.08067" lon="6.1094">
        <ele>1755.6</ele>
        <time>2020-09-05T08:36:51Z</time>
      </trkpt>
      <trkpt lat="45.08069" lon="6.10938">
        <ele>1755.8</ele>
        <time>2020-09-05T08:36:52Z</time>
      </trkpt>
      <trkpt lat="45.08072" lon="6.10936">
        <ele>1756.2</ele>
        <time>2020-09-05T08:36:53Z</time>
      </trkpt>
      <trkpt lat="45.08075" lon="6.10935">
        <ele>1756.4</ele>
        <time>2020-09-05T08:36:54Z</time>
      </trkpt>
      <trkpt lat="45.08077" lon="6.10933">
        <ele>1756.8</ele>
        <time>2020-09-05T08:36:55Z</time>
      </trkpt>
      <trkpt lat="45.08079" lon="6.10931">
        <ele>1757.2</ele>
        <time>2020-09-05T08:36:56Z</time>
      </trkpt>
      <trkpt lat="45.08082" lon="6.10929">
        <ele>1757.4</ele>
        <time>2020-09-05T08:36:57Z</time>
      </trkpt>
      <trkpt lat="45.08084" lon="6.10927">
        <ele>1757.8</ele>
        <time>2020-09-05T08:36:58Z</time>
      </trkpt>
      <trkpt lat="45.08087" lon="6.10926">
        <ele>1758</ele>
        <time>2020-09-05T08:36:59Z</time>
      </trkpt>
      <trkpt lat="45.08089" lon="6.10924">
        <ele>1757.8</ele>
        <time>2020-09-05T08:37:00Z</time>
      </trkpt>
      <trkpt lat="45.08092" lon="6.10922">
        <ele>1758</ele>
        <time>2020-09-05T08:37:01Z</time>
      </trkpt>
      <trkpt lat="45.08094" lon="6.10921">
        <ele>1758.2</ele>
        <time>2020-09-05T08:37:02Z</time>
      </trkpt>
      <trkpt lat="45.08097" lon="6.1092">
        <ele>1758.6</ele>
        <time>2020-09-05T08:37:03Z</time>
      </trkpt>
      <trkpt lat="45.08099" lon="6.10918">
        <ele>1758.8</ele>
        <time>2020-09-05T08:37:04Z</time>
      </trkpt>
      <trkpt lat="45.08102" lon="6.10917">
        <ele>1759.2</ele>
        <time>2020-09-05T08:37:05Z</time>
      </trkpt>
      <trkpt lat="45.08104" lon="6.10915">
        <ele>1759.8</ele>
        <time>2020-09-05T08:37:06Z</time>
      </trkpt>
      <trkpt lat="45.08107" lon="6.10913">
        <ele>1760.4</ele>
        <time>2020-09-05T08:37:07Z</time>
      </trkpt>
      <trkpt lat="45.08109" lon="6.10912">
        <ele>1760.6</ele>
        <time>2020-09-05T08:37:08Z</time>
      </trkpt>
      <trkpt lat="45.08112" lon="6.10911">
        <ele>1760.8</ele>
        <time>2020-09-05T08:37:09Z</time>
      </trkpt>
      <trkpt lat="45.08114" lon="6.1091">
        <ele>1760.8</ele>
        <time>2020-09-05T08:37:10Z</time>
      </trkpt>
      <trkpt lat="45.08117" lon="6.10909">
        <ele>1760.8</ele>
        <time>2020-09-05T08:37:11Z</time>
      </trkpt>
      <trkpt lat="45.08119" lon="6.10908">
        <ele>1760.8</ele>
        <time>2020-09-05T08:37:12Z</time>
      </trkpt>
      <trkpt lat="45.08122" lon="6.10908">
        <ele>1761</ele>
        <time>2020-09-05T08:37:13Z</time>
      </trkpt>
      <trkpt lat="45.08125" lon="6.10907">
        <ele>1761.4</ele>
        <time>2020-09-05T08:37:14Z</time>
      </trkpt>
      <trkpt lat="45.08127" lon="6.10907">
        <ele>1761.6</ele>
        <time>2020-09-05T08:37:15Z</time>
      </trkpt>
      <trkpt lat="45.0813" lon="6.10906">
        <ele>1761.8</ele>
        <time>2020-09-05T08:37:16Z</time>
      </trkpt>
      <trkpt lat="45.08132" lon="6.10906">
        <ele>1762</ele>
        <time>2020-09-05T08:37:17Z</time>
      </trkpt>
      <trkpt lat="45.08135" lon="6.10906">
        <ele>1762.2</ele>
        <time>2020-09-05T08:37:18Z</time>
      </trkpt>
      <trkpt lat="45.08138" lon="6.10906">
        <ele>1762.4</ele>
        <time>2020-09-05T08:37:19Z</time>
      </trkpt>
      <trkpt lat="45.08141" lon="6.10907">
        <ele>1762.6</ele>
        <time>2020-09-05T08:37:20Z</time>
      </trkpt>
      <trkpt lat="45.08144" lon="6.10907">
        <ele>1762.8</ele>
        <time>2020-09-05T08:37:21Z</time>
      </trkpt>
      <trkpt lat="45.08147" lon="6.10908">
        <ele>1763</ele>
        <time>2020-09-05T08:37:22Z</time>
      </trkpt>
      <trkpt lat="45.0815" lon="6.10908">
        <ele>1763</ele>
        <time>2020-09-05T08:37:23Z</time>
      </trkpt>
      <trkpt lat="45.08153" lon="6.10908">
        <ele>1763.2</ele>
        <time>2020-09-05T08:37:24Z</time>
      </trkpt>
      <trkpt lat="45.08156" lon="6.10908">
        <ele>1763.6</ele>
        <time>2020-09-05T08:37:25Z</time>
      </trkpt>
      <trkpt lat="45.08158" lon="6.10908">
        <ele>1763.6</ele>
        <time>2020-09-05T08:37:26Z</time>
      </trkpt>
      <trkpt lat="45.08162" lon="6.10909">
        <ele>1763.6</ele>
        <time>2020-09-05T08:37:27Z</time>
      </trkpt>
      <trkpt lat="45.08165" lon="6.10908">
        <ele>1764</ele>
        <time>2020-09-05T08:37:28Z</time>
      </trkpt>
      <trkpt lat="45.08167" lon="6.10908">
        <ele>1764.2</ele>
        <time>2020-09-05T08:37:29Z</time>
      </trkpt>
      <trkpt lat="45.0817" lon="6.10907">
        <ele>1764.6</ele>
        <time>2020-09-05T08:37:30Z</time>
      </trkpt>
      <trkpt lat="45.08173" lon="6.10907">
        <ele>1764.6</ele>
        <time>2020-09-05T08:37:31Z</time>
      </trkpt>
      <trkpt lat="45.08176" lon="6.10906">
        <ele>1764.8</ele>
        <time>2020-09-05T08:37:32Z</time>
      </trkpt>
      <trkpt lat="45.08178" lon="6.10905">
        <ele>1765</ele>
        <time>2020-09-05T08:37:33Z</time>
      </trkpt>
      <trkpt lat="45.08181" lon="6.10903">
        <ele>1765.4</ele>
        <time>2020-09-05T08:37:34Z</time>
      </trkpt>
      <trkpt lat="45.08184" lon="6.10902">
        <ele>1765.4</ele>
        <time>2020-09-05T08:37:35Z</time>
      </trkpt>
      <trkpt lat="45.08186" lon="6.109">
        <ele>1765.6</ele>
        <time>2020-09-05T08:37:36Z</time>
      </trkpt>
      <trkpt lat="45.08189" lon="6.10898">
        <ele>1765.8</ele>
        <time>2020-09-05T08:37:37Z</time>
      </trkpt>
      <trkpt lat="45.08191" lon="6.10896">
        <ele>1766</ele>
        <time>2020-09-05T08:37:38Z</time>
      </trkpt>
      <trkpt lat="45.08194" lon="6.10894">
        <ele>1766</ele>
        <time>2020-09-05T08:37:39Z</time>
      </trkpt>
      <trkpt lat="45.08196" lon="6.10892">
        <ele>1766.2</ele>
        <time>2020-09-05T08:37:40Z</time>
      </trkpt>
      <trkpt lat="45.08199" lon="6.10891">
        <ele>1766.6</ele>
        <time>2020-09-05T08:37:41Z</time>
      </trkpt>
      <trkpt lat="45.08202" lon="6.10889">
        <ele>1766.6</ele>
        <time>2020-09-05T08:37:42Z</time>
      </trkpt>
      <trkpt lat="45.08204" lon="6.10887">
        <ele>1766.8</ele>
        <time>2020-09-05T08:37:43Z</time>
      </trkpt>
      <trkpt lat="45.08207" lon="6.10885">
        <ele>1767.2</ele>
        <time>2020-09-05T08:37:44Z</time>
      </trkpt>
      <trkpt lat="45.08209" lon="6.10883">
        <ele>1767.6</ele>
        <time>2020-09-05T08:37:45Z</time>
      </trkpt>
      <trkpt lat="45.08212" lon="6.10881">
        <ele>1767.6</ele>
        <time>2020-09-05T08:37:46Z</time>
      </trkpt>
      <trkpt lat="45.08214" lon="6.10879">
        <ele>1767.8</ele>
        <time>2020-09-05T08:37:47Z</time>
      </trkpt>
      <trkpt lat="45.08216" lon="6.10877">
        <ele>1767.8</ele>
        <time>2020-09-05T08:37:48Z</time>
      </trkpt>
      <trkpt lat="45.08218" lon="6.10874">
        <ele>1768.2</ele>
        <time>2020-09-05T08:37:49Z</time>
      </trkpt>
      <trkpt lat="45.0822" lon="6.10872">
        <ele>1768.4</ele>
        <time>2020-09-05T08:37:50Z</time>
      </trkpt>
      <trkpt lat="45.08221" lon="6.10869">
        <ele>1768.6</ele>
        <time>2020-09-05T08:37:51Z</time>
      </trkpt>
      <trkpt lat="45.08223" lon="6.10867">
        <ele>1768.8</ele>
        <time>2020-09-05T08:37:52Z</time>
      </trkpt>
      <trkpt lat="45.08225" lon="6.10864">
        <ele>1769.2</ele>
        <time>2020-09-05T08:37:53Z</time>
      </trkpt>
      <trkpt lat="45.08226" lon="6.10862">
        <ele>1769.4</ele>
        <time>2020-09-05T08:37:54Z</time>
      </trkpt>
      <trkpt lat="45.08228" lon="6.1086">
        <ele>1769.6</ele>
        <time>2020-09-05T08:37:55Z</time>
      </trkpt>
      <trkpt lat="45.0823" lon="6.10857">
        <ele>1770</ele>
        <time>2020-09-05T08:37:56Z</time>
      </trkpt>
      <trkpt lat="45.08232" lon="6.10855">
        <ele>1770.4</ele>
        <time>2020-09-05T08:37:57Z</time>
      </trkpt>
      <trkpt lat="45.08234" lon="6.10852">
        <ele>1770.6</ele>
        <time>2020-09-05T08:37:58Z</time>
      </trkpt>
      <trkpt lat="45.08236" lon="6.1085">
        <ele>1770.8</ele>
        <time>2020-09-05T08:37:59Z</time>
      </trkpt>
      <trkpt lat="45.08239" lon="6.10848">
        <ele>1771.4</ele>
        <time>2020-09-05T08:38:00Z</time>
      </trkpt>
      <trkpt lat="45.08241" lon="6.10845">
        <ele>1771.6</ele>
        <time>2020-09-05T08:38:01Z</time>
      </trkpt>
      <trkpt lat="45.08243" lon="6.10843">
        <ele>1771.8</ele>
        <time>2020-09-05T08:38:02Z</time>
      </trkpt>
      <trkpt lat="45.08246" lon="6.10841">
        <ele>1772</ele>
        <time>2020-09-05T08:38:03Z</time>
      </trkpt>
      <trkpt lat="45.08248" lon="6.10839">
        <ele>1772.2</ele>
        <time>2020-09-05T08:38:04Z</time>
      </trkpt>
      <trkpt lat="45.08251" lon="6.10836">
        <ele>1772.4</ele>
        <time>2020-09-05T08:38:05Z</time>
      </trkpt>
      <trkpt lat="45.08253" lon="6.10834">
        <ele>1772.4</ele>
        <time>2020-09-05T08:38:06Z</time>
      </trkpt>
      <trkpt lat="45.08256" lon="6.10831">
        <ele>1772.6</ele>
        <time>2020-09-05T08:38:07Z</time>
      </trkpt>
      <trkpt lat="45.08258" lon="6.10829">
        <ele>1773</ele>
        <time>2020-09-05T08:38:08Z</time>
      </trkpt>
      <trkpt lat="45.0826" lon="6.10826">
        <ele>1773.4</ele>
        <time>2020-09-05T08:38:09Z</time>
      </trkpt>
      <trkpt lat="45.08261" lon="6.10824">
        <ele>1773.4</ele>
        <time>2020-09-05T08:38:10Z</time>
      </trkpt>
      <trkpt lat="45.08263" lon="6.10822">
        <ele>1773.4</ele>
        <time>2020-09-05T08:38:11Z</time>
      </trkpt>
      <trkpt lat="45.08265" lon="6.10819">
        <ele>1773.6</ele>
        <time>2020-09-05T08:38:12Z</time>
      </trkpt>
      <trkpt lat="45.08267" lon="6.10817">
        <ele>1773.8</ele>
        <time>2020-09-05T08:38:13Z</time>
      </trkpt>
      <trkpt lat="45.08268" lon="6.10814">
        <ele>1774.2</ele>
        <time>2020-09-05T08:38:14Z</time>
      </trkpt>
      <trkpt lat="45.0827" lon="6.10812">
        <ele>1774.2</ele>
        <time>2020-09-05T08:38:15Z</time>
      </trkpt>
      <trkpt lat="45.08272" lon="6.1081">
        <ele>1774.6</ele>
        <time>2020-09-05T08:38:16Z</time>
      </trkpt>
      <trkpt lat="45.08273" lon="6.10808">
        <ele>1774.8</ele>
        <time>2020-09-05T08:38:17Z</time>
      </trkpt>
      <trkpt lat="45.08275" lon="6.10806">
        <ele>1775</ele>
        <time>2020-09-05T08:38:18Z</time>
      </trkpt>
      <trkpt lat="45.08277" lon="6.10804">
        <ele>1775</ele>
        <time>2020-09-05T08:38:19Z</time>
      </trkpt>
      <trkpt lat="45.08279" lon="6.10802">
        <ele>1775.4</ele>
        <time>2020-09-05T08:38:20Z</time>
      </trkpt>
      <trkpt lat="45.0828" lon="6.108">
        <ele>1775.4</ele>
        <time>2020-09-05T08:38:21Z</time>
      </trkpt>
      <trkpt lat="45.08282" lon="6.10798">
        <ele>1775.6</ele>
        <time>2020-09-05T08:38:22Z</time>
      </trkpt>
      <trkpt lat="45.08284" lon="6.10796">
        <ele>1775.6</ele>
        <time>2020-09-05T08:38:23Z</time>
      </trkpt>
      <trkpt lat="45.08286" lon="6.10794">
        <ele>1776</ele>
        <time>2020-09-05T08:38:24Z</time>
      </trkpt>
      <trkpt lat="45.08288" lon="6.10792">
        <ele>1776.2</ele>
        <time>2020-09-05T08:38:25Z</time>
      </trkpt>
      <trkpt lat="45.0829" lon="6.1079">
        <ele>1776.4</ele>
        <time>2020-09-05T08:38:26Z</time>
      </trkpt>
      <trkpt lat="45.08292" lon="6.10788">
        <ele>1776.8</ele>
        <time>2020-09-05T08:38:27Z</time>
      </trkpt>
      <trkpt lat="45.08294" lon="6.10786">
        <ele>1777</ele>
        <time>2020-09-05T08:38:28Z</time>
      </trkpt>
      <trkpt lat="45.08296" lon="6.10784">
        <ele>1777.2</ele>
        <time>2020-09-05T08:38:29Z</time>
      </trkpt>
      <trkpt lat="45.08297" lon="6.10782">
        <ele>1777.6</ele>
        <time>2020-09-05T08:38:30Z</time>
      </trkpt>
      <trkpt lat="45.08299" lon="6.1078">
        <ele>1778</ele>
        <time>2020-09-05T08:38:31Z</time>
      </trkpt>
      <trkpt lat="45.08301" lon="6.10779">
        <ele>1778.2</ele>
        <time>2020-09-05T08:38:32Z</time>
      </trkpt>
      <trkpt lat="45.08303" lon="6.10777">
        <ele>1778.6</ele>
        <time>2020-09-05T08:38:33Z</time>
      </trkpt>
      <trkpt lat="45.08305" lon="6.10775">
        <ele>1778.6</ele>
        <time>2020-09-05T08:38:34Z</time>
      </trkpt>
      <trkpt lat="45.08307" lon="6.10774">
        <ele>1779</ele>
        <time>2020-09-05T08:38:35Z</time>
      </trkpt>
      <trkpt lat="45.0831" lon="6.10772">
        <ele>1779</ele>
        <time>2020-09-05T08:38:36Z</time>
      </trkpt>
      <trkpt lat="45.08312" lon="6.1077">
        <ele>1779</ele>
        <time>2020-09-05T08:38:37Z</time>
      </trkpt>
      <trkpt lat="45.08314" lon="6.10768">
        <ele>1779.2</ele>
        <time>2020-09-05T08:38:38Z</time>
      </trkpt>
      <trkpt lat="45.08316" lon="6.10767">
        <ele>1779.4</ele>
        <time>2020-09-05T08:38:39Z</time>
      </trkpt>
      <trkpt lat="45.08318" lon="6.10765">
        <ele>1779.6</ele>
        <time>2020-09-05T08:38:40Z</time>
      </trkpt>
      <trkpt lat="45.0832" lon="6.10763">
        <ele>1780</ele>
        <time>2020-09-05T08:38:41Z</time>
      </trkpt>
      <trkpt lat="45.08322" lon="6.10761">
        <ele>1780</ele>
        <time>2020-09-05T08:38:42Z</time>
      </trkpt>
      <trkpt lat="45.08324" lon="6.10759">
        <ele>1780.2</ele>
        <time>2020-09-05T08:38:43Z</time>
      </trkpt>
      <trkpt lat="45.08327" lon="6.10758">
        <ele>1780.4</ele>
        <time>2020-09-05T08:38:44Z</time>
      </trkpt>
      <trkpt lat="45.08329" lon="6.10756">
        <ele>1780.4</ele>
        <time>2020-09-05T08:38:45Z</time>
      </trkpt>
      <trkpt lat="45.08331" lon="6.10754">
        <ele>1780.8</ele>
        <time>2020-09-05T08:38:46Z</time>
      </trkpt>
      <trkpt lat="45.08333" lon="6.10752">
        <ele>1781</ele>
        <time>2020-09-05T08:38:47Z</time>
      </trkpt>
      <trkpt lat="45.08335" lon="6.10751">
        <ele>1781.2</ele>
        <time>2020-09-05T08:38:48Z</time>
      </trkpt>
      <trkpt lat="45.08337" lon="6.10749">
        <ele>1781.4</ele>
        <time>2020-09-05T08:38:49Z</time>
      </trkpt>
      <trkpt lat="45.0834" lon="6.10748">
        <ele>1781.6</ele>
        <time>2020-09-05T08:38:50Z</time>
      </trkpt>
      <trkpt lat="45.08342" lon="6.10746">
        <ele>1781.8</ele>
        <time>2020-09-05T08:38:51Z</time>
      </trkpt>
      <trkpt lat="45.08344" lon="6.10744">
        <ele>1782</ele>
        <time>2020-09-05T08:38:52Z</time>
      </trkpt>
      <trkpt lat="45.08347" lon="6.10743">
        <ele>1782</ele>
        <time>2020-09-05T08:38:53Z</time>
      </trkpt>
      <trkpt lat="45.08349" lon="6.10741">
        <ele>1782.2</ele>
        <time>2020-09-05T08:38:54Z</time>
      </trkpt>
      <trkpt lat="45.08351" lon="6.1074">
        <ele>1782.4</ele>
        <time>2020-09-05T08:38:55Z</time>
      </trkpt>
      <trkpt lat="45.08354" lon="6.10739">
        <ele>1782.6</ele>
        <time>2020-09-05T08:38:56Z</time>
      </trkpt>
      <trkpt lat="45.08356" lon="6.10738">
        <ele>1782.8</ele>
        <time>2020-09-05T08:38:57Z</time>
      </trkpt>
      <trkpt lat="45.08358" lon="6.10737">
        <ele>1783.2</ele>
        <time>2020-09-05T08:38:58Z</time>
      </trkpt>
      <trkpt lat="45.08361" lon="6.10736">
        <ele>1783.4</ele>
        <time>2020-09-05T08:38:59Z</time>
      </trkpt>
      <trkpt lat="45.08363" lon="6.10735">
        <ele>1783.4</ele>
        <time>2020-09-05T08:39:00Z</time>
      </trkpt>
      <trkpt lat="45.08366" lon="6.10734">
        <ele>1783.4</ele>
        <time>2020-09-05T08:39:01Z</time>
      </trkpt>
      <trkpt lat="45.08368" lon="6.10733">
        <ele>1783.8</ele>
        <time>2020-09-05T08:39:02Z</time>
      </trkpt>
      <trkpt lat="45.08371" lon="6.10732">
        <ele>1784</ele>
        <time>2020-09-05T08:39:03Z</time>
      </trkpt>
      <trkpt lat="45.08373" lon="6.10731">
        <ele>1784.2</ele>
        <time>2020-09-05T08:39:04Z</time>
      </trkpt>
      <trkpt lat="45.08375" lon="6.1073">
        <ele>1784.4</ele>
        <time>2020-09-05T08:39:05Z</time>
      </trkpt>
      <trkpt lat="45.08378" lon="6.10729">
        <ele>1784.6</ele>
        <time>2020-09-05T08:39:06Z</time>
      </trkpt>
      <trkpt lat="45.0838" lon="6.10727">
        <ele>1785</ele>
        <time>2020-09-05T08:39:07Z</time>
      </trkpt>
      <trkpt lat="45.08382" lon="6.10726">
        <ele>1785.2</ele>
        <time>2020-09-05T08:39:08Z</time>
      </trkpt>
      <trkpt lat="45.08384" lon="6.10724">
        <ele>1785.4</ele>
        <time>2020-09-05T08:39:09Z</time>
      </trkpt>
      <trkpt lat="45.08386" lon="6.10723">
        <ele>1785.6</ele>
        <time>2020-09-05T08:39:10Z</time>
      </trkpt>
      <trkpt lat="45.08388" lon="6.10721">
        <ele>1785.6</ele>
        <time>2020-09-05T08:39:11Z</time>
      </trkpt>
      <trkpt lat="45.08389" lon="6.10718">
        <ele>1786</ele>
        <time>2020-09-05T08:39:12Z</time>
      </trkpt>
      <trkpt lat="45.08391" lon="6.10716">
        <ele>1786.4</ele>
        <time>2020-09-05T08:39:13Z</time>
      </trkpt>
      <trkpt lat="45.08392" lon="6.10713">
        <ele>1786.4</ele>
        <time>2020-09-05T08:39:14Z</time>
      </trkpt>
      <trkpt lat="45.08393" lon="6.1071">
        <ele>1786.8</ele>
        <time>2020-09-05T08:39:15Z</time>
      </trkpt>
      <trkpt lat="45.08394" lon="6.10708">
        <ele>1787.2</ele>
        <time>2020-09-05T08:39:16Z</time>
      </trkpt>
      <trkpt lat="45.08396" lon="6.10705">
        <ele>1787.2</ele>
        <time>2020-09-05T08:39:17Z</time>
      </trkpt>
      <trkpt lat="45.08397" lon="6.10703">
        <ele>1787.4</ele>
        <time>2020-09-05T08:39:18Z</time>
      </trkpt>
      <trkpt lat="45.08399" lon="6.10701">
        <ele>1787.8</ele>
        <time>2020-09-05T08:39:19Z</time>
      </trkpt>
      <trkpt lat="45.084" lon="6.10699">
        <ele>1788.2</ele>
        <time>2020-09-05T08:39:20Z</time>
      </trkpt>
      <trkpt lat="45.08402" lon="6.10696">
        <ele>1788.2</ele>
        <time>2020-09-05T08:39:21Z</time>
      </trkpt>
      <trkpt lat="45.08403" lon="6.10694">
        <ele>1788.4</ele>
        <time>2020-09-05T08:39:22Z</time>
      </trkpt>
      <trkpt lat="45.08404" lon="6.10691">
        <ele>1788.6</ele>
        <time>2020-09-05T08:39:23Z</time>
      </trkpt>
      <trkpt lat="45.08406" lon="6.10689">
        <ele>1788.8</ele>
        <time>2020-09-05T08:39:24Z</time>
      </trkpt>
      <trkpt lat="45.08407" lon="6.10686">
        <ele>1789.2</ele>
        <time>2020-09-05T08:39:25Z</time>
      </trkpt>
      <trkpt lat="45.08408" lon="6.10683">
        <ele>1789.6</ele>
        <time>2020-09-05T08:39:26Z</time>
      </trkpt>
      <trkpt lat="45.08409" lon="6.1068">
        <ele>1789.6</ele>
        <time>2020-09-05T08:39:27Z</time>
      </trkpt>
      <trkpt lat="45.0841" lon="6.10677">
        <ele>1789.4</ele>
        <time>2020-09-05T08:39:28Z</time>
      </trkpt>
      <trkpt lat="45.08411" lon="6.10674">
        <ele>1789.6</ele>
        <time>2020-09-05T08:39:29Z</time>
      </trkpt>
      <trkpt lat="45.08412" lon="6.10671">
        <ele>1789.8</ele>
        <time>2020-09-05T08:39:30Z</time>
      </trkpt>
      <trkpt lat="45.08412" lon="6.10667">
        <ele>1790</ele>
        <time>2020-09-05T08:39:31Z</time>
      </trkpt>
      <trkpt lat="45.08413" lon="6.10664">
        <ele>1790</ele>
        <time>2020-09-05T08:39:32Z</time>
      </trkpt>
      <trkpt lat="45.08413" lon="6.1066">
        <ele>1790.2</ele>
        <time>2020-09-05T08:39:33Z</time>
      </trkpt>
      <trkpt lat="45.08414" lon="6.10657">
        <ele>1790.6</ele>
        <time>2020-09-05T08:39:34Z</time>
      </trkpt>
      <trkpt lat="45.08414" lon="6.10653">
        <ele>1791</ele>
        <time>2020-09-05T08:39:35Z</time>
      </trkpt>
      <trkpt lat="45.08415" lon="6.1065">
        <ele>1791</ele>
        <time>2020-09-05T08:39:36Z</time>
      </trkpt>
      <trkpt lat="45.08416" lon="6.10647">
        <ele>1791</ele>
        <time>2020-09-05T08:39:37Z</time>
      </trkpt>
      <trkpt lat="45.08418" lon="6.10644">
        <ele>1791.2</ele>
        <time>2020-09-05T08:39:38Z</time>
      </trkpt>
      <trkpt lat="45.08419" lon="6.10642">
        <ele>1791.6</ele>
        <time>2020-09-05T08:39:39Z</time>
      </trkpt>
      <trkpt lat="45.0842" lon="6.10639">
        <ele>1791.8</ele>
        <time>2020-09-05T08:39:40Z</time>
      </trkpt>
      <trkpt lat="45.08422" lon="6.10636">
        <ele>1792.2</ele>
        <time>2020-09-05T08:39:41Z</time>
      </trkpt>
      <trkpt lat="45.08424" lon="6.10634">
        <ele>1792.4</ele>
        <time>2020-09-05T08:39:42Z</time>
      </trkpt>
      <trkpt lat="45.08425" lon="6.10632">
        <ele>1792.4</ele>
        <time>2020-09-05T08:39:43Z</time>
      </trkpt>
      <trkpt lat="45.08427" lon="6.1063">
        <ele>1792.8</ele>
        <time>2020-09-05T08:39:44Z</time>
      </trkpt>
      <trkpt lat="45.08429" lon="6.10628">
        <ele>1793.4</ele>
        <time>2020-09-05T08:39:45Z</time>
      </trkpt>
      <trkpt lat="45.08431" lon="6.10626">
        <ele>1793.4</ele>
        <time>2020-09-05T08:39:46Z</time>
      </trkpt>
      <trkpt lat="45.08434" lon="6.10624">
        <ele>1793.4</ele>
        <time>2020-09-05T08:39:47Z</time>
      </trkpt>
      <trkpt lat="45.08436" lon="6.10623">
        <ele>1793.6</ele>
        <time>2020-09-05T08:39:48Z</time>
      </trkpt>
      <trkpt lat="45.08438" lon="6.10621">
        <ele>1794</ele>
        <time>2020-09-05T08:39:49Z</time>
      </trkpt>
      <trkpt lat="45.0844" lon="6.10619">
        <ele>1794.2</ele>
        <time>2020-09-05T08:39:50Z</time>
      </trkpt>
      <trkpt lat="45.08442" lon="6.10617">
        <ele>1794.6</ele>
        <time>2020-09-05T08:39:51Z</time>
      </trkpt>
      <trkpt lat="45.08444" lon="6.10615">
        <ele>1794.6</ele>
        <time>2020-09-05T08:39:52Z</time>
      </trkpt>
      <trkpt lat="45.08446" lon="6.10614">
        <ele>1795</ele>
        <time>2020-09-05T08:39:53Z</time>
      </trkpt>
      <trkpt lat="45.08449" lon="6.10612">
        <ele>1795.2</ele>
        <time>2020-09-05T08:39:54Z</time>
      </trkpt>
      <trkpt lat="45.08451" lon="6.10611">
        <ele>1795.6</ele>
        <time>2020-09-05T08:39:55Z</time>
      </trkpt>
      <trkpt lat="45.08453" lon="6.1061">
        <ele>1795.6</ele>
        <time>2020-09-05T08:39:56Z</time>
      </trkpt>
      <trkpt lat="45.08456" lon="6.10609">
        <ele>1796</ele>
        <time>2020-09-05T08:39:57Z</time>
      </trkpt>
      <trkpt lat="45.08458" lon="6.10608">
        <ele>1796.2</ele>
        <time>2020-09-05T08:39:58Z</time>
      </trkpt>
      <trkpt lat="45.08461" lon="6.10608">
        <ele>1796.2</ele>
        <time>2020-09-05T08:39:59Z</time>
      </trkpt>
      <trkpt lat="45.08463" lon="6.10607">
        <ele>1796.4</ele>
        <time>2020-09-05T08:40:00Z</time>
      </trkpt>
      <trkpt lat="45.08466" lon="6.10607">
        <ele>1796.6</ele>
        <time>2020-09-05T08:40:01Z</time>
      </trkpt>
      <trkpt lat="45.08468" lon="6.10606">
        <ele>1797</ele>
        <time>2020-09-05T08:40:02Z</time>
      </trkpt>
      <trkpt lat="45.0847" lon="6.10606">
        <ele>1797.2</ele>
        <time>2020-09-05T08:40:03Z</time>
      </trkpt>
      <trkpt lat="45.08473" lon="6.10605">
        <ele>1797.4</ele>
        <time>2020-09-05T08:40:04Z</time>
      </trkpt>
      <trkpt lat="45.08476" lon="6.10605">
        <ele>1797.4</ele>
        <time>2020-09-05T08:40:05Z</time>
      </trkpt>
      <trkpt lat="45.08478" lon="6.10604">
        <ele>1797.8</ele>
        <time>2020-09-05T08:40:06Z</time>
      </trkpt>
      <trkpt lat="45.08481" lon="6.10603">
        <ele>1798</ele>
        <time>2020-09-05T08:40:07Z</time>
      </trkpt>
      <trkpt lat="45.08483" lon="6.10603">
        <ele>1798</ele>
        <time>2020-09-05T08:40:08Z</time>
      </trkpt>
      <trkpt lat="45.08486" lon="6.10602">
        <ele>1798.2</ele>
        <time>2020-09-05T08:40:09Z</time>
      </trkpt>
      <trkpt lat="45.08489" lon="6.10601">
        <ele>1798.4</ele>
        <time>2020-09-05T08:40:10Z</time>
      </trkpt>
      <trkpt lat="45.08491" lon="6.106">
        <ele>1798.6</ele>
        <time>2020-09-05T08:40:11Z</time>
      </trkpt>
      <trkpt lat="45.08494" lon="6.106">
        <ele>1798.6</ele>
        <time>2020-09-05T08:40:12Z</time>
      </trkpt>
      <trkpt lat="45.08497" lon="6.10599">
        <ele>1798.8</ele>
        <time>2020-09-05T08:40:13Z</time>
      </trkpt>
      <trkpt lat="45.08499" lon="6.10598">
        <ele>1799</ele>
        <time>2020-09-05T08:40:14Z</time>
      </trkpt>
      <trkpt lat="45.08502" lon="6.10598">
        <ele>1799.4</ele>
        <time>2020-09-05T08:40:15Z</time>
      </trkpt>
      <trkpt lat="45.08505" lon="6.10597">
        <ele>1799.6</ele>
        <time>2020-09-05T08:40:16Z</time>
      </trkpt>
      <trkpt lat="45.08508" lon="6.10597">
        <ele>1799.8</ele>
        <time>2020-09-05T08:40:17Z</time>
      </trkpt>
      <trkpt lat="45.0851" lon="6.10596">
        <ele>1799.8</ele>
        <time>2020-09-05T08:40:18Z</time>
      </trkpt>
      <trkpt lat="45.08513" lon="6.10594">
        <ele>1800</ele>
        <time>2020-09-05T08:40:19Z</time>
      </trkpt>
      <trkpt lat="45.08515" lon="6.10592">
        <ele>1800.4</ele>
        <time>2020-09-05T08:40:20Z</time>
      </trkpt>
      <trkpt lat="45.08518" lon="6.1059">
        <ele>1800.6</ele>
        <time>2020-09-05T08:40:21Z</time>
      </trkpt>
      <trkpt lat="45.08519" lon="6.10586">
        <ele>1800.6</ele>
        <time>2020-09-05T08:40:22Z</time>
      </trkpt>
      <trkpt lat="45.08521" lon="6.10582">
        <ele>1801</ele>
        <time>2020-09-05T08:40:23Z</time>
      </trkpt>
      <trkpt lat="45.08521" lon="6.10578">
        <ele>1801.2</ele>
        <time>2020-09-05T08:40:24Z</time>
      </trkpt>
      <trkpt lat="45.08522" lon="6.10573">
        <ele>1801.2</ele>
        <time>2020-09-05T08:40:25Z</time>
      </trkpt>
      <trkpt lat="45.08522" lon="6.10568">
        <ele>1801.2</ele>
        <time>2020-09-05T08:40:26Z</time>
      </trkpt>
      <trkpt lat="45.08521" lon="6.10563">
        <ele>1801.2</ele>
        <time>2020-09-05T08:40:27Z</time>
      </trkpt>
      <trkpt lat="45.0852" lon="6.10557">
        <ele>1801.2</ele>
        <time>2020-09-05T08:40:28Z</time>
      </trkpt>
      <trkpt lat="45.08519" lon="6.10552">
        <ele>1801.4</ele>
        <time>2020-09-05T08:40:29Z</time>
      </trkpt>
      <trkpt lat="45.08517" lon="6.10547">
        <ele>1801.4</ele>
        <time>2020-09-05T08:40:30Z</time>
      </trkpt>
      <trkpt lat="45.08515" lon="6.10542">
        <ele>1801.6</ele>
        <time>2020-09-05T08:40:31Z</time>
      </trkpt>
      <trkpt lat="45.08513" lon="6.10537">
        <ele>1801.8</ele>
        <time>2020-09-05T08:40:32Z</time>
      </trkpt>
      <trkpt lat="45.0851" lon="6.10533">
        <ele>1801.8</ele>
        <time>2020-09-05T08:40:33Z</time>
      </trkpt>
      <trkpt lat="45.08508" lon="6.10528">
        <ele>1801.6</ele>
        <time>2020-09-05T08:40:34Z</time>
      </trkpt>
      <trkpt lat="45.08505" lon="6.10524">
        <ele>1802</ele>
        <time>2020-09-05T08:40:35Z</time>
      </trkpt>
      <trkpt lat="45.08503" lon="6.10519">
        <ele>1802</ele>
        <time>2020-09-05T08:40:36Z</time>
      </trkpt>
      <trkpt lat="45.08501" lon="6.10514">
        <ele>1802.4</ele>
        <time>2020-09-05T08:40:37Z</time>
      </trkpt>
      <trkpt lat="45.08499" lon="6.10509">
        <ele>1802.6</ele>
        <time>2020-09-05T08:40:38Z</time>
      </trkpt>
      <trkpt lat="45.08497" lon="6.10504">
        <ele>1802.8</ele>
        <time>2020-09-05T08:40:39Z</time>
      </trkpt>
      <trkpt lat="45.08495" lon="6.10498">
        <ele>1803</ele>
        <time>2020-09-05T08:40:40Z</time>
      </trkpt>
      <trkpt lat="45.08493" lon="6.10492">
        <ele>1803</ele>
        <time>2020-09-05T08:40:41Z</time>
      </trkpt>
      <trkpt lat="45.08492" lon="6.10486">
        <ele>1803.2</ele>
        <time>2020-09-05T08:40:42Z</time>
      </trkpt>
      <trkpt lat="45.0849" lon="6.10481">
        <ele>1803.2</ele>
        <time>2020-09-05T08:40:43Z</time>
      </trkpt>
      <trkpt lat="45.08487" lon="6.10475">
        <ele>1803.4</ele>
        <time>2020-09-05T08:40:44Z</time>
      </trkpt>
      <trkpt lat="45.08485" lon="6.10469">
        <ele>1803.4</ele>
        <time>2020-09-05T08:40:45Z</time>
      </trkpt>
      <trkpt lat="45.08482" lon="6.10464">
        <ele>1803.4</ele>
        <time>2020-09-05T08:40:46Z</time>
      </trkpt>
      <trkpt lat="45.0848" lon="6.10459">
        <ele>1803.6</ele>
        <time>2020-09-05T08:40:47Z</time>
      </trkpt>
      <trkpt lat="45.08478" lon="6.10454">
        <ele>1804</ele>
        <time>2020-09-05T08:40:48Z</time>
      </trkpt>
      <trkpt lat="45.08477" lon="6.10448">
        <ele>1804.2</ele>
        <time>2020-09-05T08:40:49Z</time>
      </trkpt>
      <trkpt lat="45.08476" lon="6.10442">
        <ele>1804.2</ele>
        <time>2020-09-05T08:40:50Z</time>
      </trkpt>
      <trkpt lat="45.08476" lon="6.10436">
        <ele>1804.2</ele>
        <time>2020-09-05T08:40:51Z</time>
      </trkpt>
      <trkpt lat="45.08477" lon="6.1043">
        <ele>1804.2</ele>
        <time>2020-09-05T08:40:52Z</time>
      </trkpt>
      <trkpt lat="45.08477" lon="6.10424">
        <ele>1804.4</ele>
        <time>2020-09-05T08:40:53Z</time>
      </trkpt>
      <trkpt lat="45.08478" lon="6.10418">
        <ele>1804.4</ele>
        <time>2020-09-05T08:40:54Z</time>
      </trkpt>
      <trkpt lat="45.08479" lon="6.10411">
        <ele>1804.4</ele>
        <time>2020-09-05T08:40:55Z</time>
      </trkpt>
      <trkpt lat="45.0848" lon="6.10405">
        <ele>1804.4</ele>
        <time>2020-09-05T08:40:56Z</time>
      </trkpt>
      <trkpt lat="45.08481" lon="6.10398">
        <ele>1804.6</ele>
        <time>2020-09-05T08:40:57Z</time>
      </trkpt>
      <trkpt lat="45.08481" lon="6.10391">
        <ele>1804.8</ele>
        <time>2020-09-05T08:40:58Z</time>
      </trkpt>
      <trkpt lat="45.08481" lon="6.10384">
        <ele>1804.6</ele>
        <time>2020-09-05T08:40:59Z</time>
      </trkpt>
      <trkpt lat="45.08481" lon="6.10377">
        <ele>1805</ele>
        <time>2020-09-05T08:41:00Z</time>
      </trkpt>
      <trkpt lat="45.08482" lon="6.10369">
        <ele>1805.2</ele>
        <time>2020-09-05T08:41:01Z</time>
      </trkpt>
      <trkpt lat="45.08482" lon="6.10362">
        <ele>1805.4</ele>
        <time>2020-09-05T08:41:02Z</time>
      </trkpt>
      <trkpt lat="45.08482" lon="6.10355">
        <ele>1805.4</ele>
        <time>2020-09-05T08:41:03Z</time>
      </trkpt>
      <trkpt lat="45.08482" lon="6.10348">
        <ele>1805.4</ele>
        <time>2020-09-05T08:41:04Z</time>
      </trkpt>
      <trkpt lat="45.08482" lon="6.10341">
        <ele>1805.6</ele>
        <time>2020-09-05T08:41:05Z</time>
      </trkpt>
      <trkpt lat="45.08482" lon="6.10334">
        <ele>1805.8</ele>
        <time>2020-09-05T08:41:06Z</time>
      </trkpt>
      <trkpt lat="45.08481" lon="6.10327">
        <ele>1805.8</ele>
        <time>2020-09-05T08:41:07Z</time>
      </trkpt>
      <trkpt lat="45.08481" lon="6.1032">
        <ele>1806</ele>
        <time>2020-09-05T08:41:08Z</time>
      </trkpt>
      <trkpt lat="45.0848" lon="6.10314">
        <ele>1806</ele>
        <time>2020-09-05T08:41:09Z</time>
      </trkpt>
      <trkpt lat="45.0848" lon="6.10307">
        <ele>1806.2</ele>
        <time>2020-09-05T08:41:10Z</time>
      </trkpt>
      <trkpt lat="45.0848" lon="6.103">
        <ele>1806.4</ele>
        <time>2020-09-05T08:41:11Z</time>
      </trkpt>
      <trkpt lat="45.08479" lon="6.10294">
        <ele>1806.8</ele>
        <time>2020-09-05T08:41:12Z</time>
      </trkpt>
      <trkpt lat="45.08479" lon="6.10288">
        <ele>1807</ele>
        <time>2020-09-05T08:41:13Z</time>
      </trkpt>
      <trkpt lat="45.08479" lon="6.10281">
        <ele>1807.2</ele>
        <time>2020-09-05T08:41:14Z</time>
      </trkpt>
      <trkpt lat="45.08478" lon="6.10275">
        <ele>1807.4</ele>
        <time>2020-09-05T08:41:15Z</time>
      </trkpt>
      <trkpt lat="45.08478" lon="6.10269">
        <ele>1807.4</ele>
        <time>2020-09-05T08:41:16Z</time>
      </trkpt>
      <trkpt lat="45.08478" lon="6.10263">
        <ele>1807.6</ele>
        <time>2020-09-05T08:41:17Z</time>
      </trkpt>
      <trkpt lat="45.08478" lon="6.10257">
        <ele>1807.8</ele>
        <time>2020-09-05T08:41:18Z</time>
      </trkpt>
      <trkpt lat="45.08478" lon="6.10252">
        <ele>1808.2</ele>
        <time>2020-09-05T08:41:19Z</time>
      </trkpt>
      <trkpt lat="45.08478" lon="6.10246">
        <ele>1808.4</ele>
        <time>2020-09-05T08:41:20Z</time>
      </trkpt>
      <trkpt lat="45.08478" lon="6.10241">
        <ele>1808.6</ele>
        <time>2020-09-05T08:41:21Z</time>
      </trkpt>
      <trkpt lat="45.08478" lon="6.10235">
        <ele>1808.8</ele>
        <time>2020-09-05T08:41:22Z</time>
      </trkpt>
      <trkpt lat="45.08477" lon="6.1023">
        <ele>1809.2</ele>
        <time>2020-09-05T08:41:23Z</time>
      </trkpt>
      <trkpt lat="45.08477" lon="6.10224">
        <ele>1809.4</ele>
        <time>2020-09-05T08:41:24Z</time>
      </trkpt>
      <trkpt lat="45.08477" lon="6.10219">
        <ele>1809.6</ele>
        <time>2020-09-05T08:41:25Z</time>
      </trkpt>
      <trkpt lat="45.08477" lon="6.10213">
        <ele>1809.8</ele>
        <time>2020-09-05T08:41:26Z</time>
      </trkpt>
      <trkpt lat="45.08477" lon="6.10207">
        <ele>1810</ele>
        <time>2020-09-05T08:41:27Z</time>
      </trkpt>
      <trkpt lat="45.08477" lon="6.10201">
        <ele>1810.4</ele>
        <time>2020-09-05T08:41:28Z</time>
      </trkpt>
      <trkpt lat="45.08477" lon="6.10196">
        <ele>1810.4</ele>
        <time>2020-09-05T08:41:29Z</time>
      </trkpt>
      <trkpt lat="45.08477" lon="6.1019">
        <ele>1810.6</ele>
        <time>2020-09-05T08:41:30Z</time>
      </trkpt>
      <trkpt lat="45.08476" lon="6.10185">
        <ele>1810.8</ele>
        <time>2020-09-05T08:41:31Z</time>
      </trkpt>
      <trkpt lat="45.08477" lon="6.10179">
        <ele>1811</ele>
        <time>2020-09-05T08:41:32Z</time>
      </trkpt>
      <trkpt lat="45.08477" lon="6.10174">
        <ele>1811</ele>
        <time>2020-09-05T08:41:33Z</time>
      </trkpt>
      <trkpt lat="45.08477" lon="6.10168">
        <ele>1811</ele>
        <time>2020-09-05T08:41:34Z</time>
      </trkpt>
      <trkpt lat="45.08477" lon="6.10162">
        <ele>1811.2</ele>
        <time>2020-09-05T08:41:35Z</time>
      </trkpt>
      <trkpt lat="45.08477" lon="6.10157">
        <ele>1811.2</ele>
        <time>2020-09-05T08:41:36Z</time>
      </trkpt>
      <trkpt lat="45.08477" lon="6.10151">
        <ele>1811.4</ele>
        <time>2020-09-05T08:41:37Z</time>
      </trkpt>
      <trkpt lat="45.08477" lon="6.10146">
        <ele>1811.8</ele>
        <time>2020-09-05T08:41:38Z</time>
      </trkpt>
      <trkpt lat="45.08477" lon="6.10141">
        <ele>1811.8</ele>
        <time>2020-09-05T08:41:39Z</time>
      </trkpt>
      <trkpt lat="45.08477" lon="6.10135">
        <ele>1812</ele>
        <time>2020-09-05T08:41:40Z</time>
      </trkpt>
      <trkpt lat="45.08477" lon="6.1013">
        <ele>1812.2</ele>
        <time>2020-09-05T08:41:41Z</time>
      </trkpt>
      <trkpt lat="45.08477" lon="6.10125">
        <ele>1812.2</ele>
        <time>2020-09-05T08:41:42Z</time>
      </trkpt>
      <trkpt lat="45.08477" lon="6.1012">
        <ele>1812.4</ele>
        <time>2020-09-05T08:41:43Z</time>
      </trkpt>
      <trkpt lat="45.08477" lon="6.10115">
        <ele>1812.8</ele>
        <time>2020-09-05T08:41:44Z</time>
      </trkpt>
      <trkpt lat="45.08476" lon="6.1011">
        <ele>1812.8</ele>
        <time>2020-09-05T08:41:45Z</time>
      </trkpt>
      <trkpt lat="45.08476" lon="6.10104">
        <ele>1813</ele>
        <time>2020-09-05T08:41:46Z</time>
      </trkpt>
      <trkpt lat="45.08475" lon="6.10099">
        <ele>1813.4</ele>
        <time>2020-09-05T08:41:47Z</time>
      </trkpt>
      <trkpt lat="45.08475" lon="6.10093">
        <ele>1813.6</ele>
        <time>2020-09-05T08:41:48Z</time>
      </trkpt>
      <trkpt lat="45.08475" lon="6.10088">
        <ele>1813.6</ele>
        <time>2020-09-05T08:41:49Z</time>
      </trkpt>
      <trkpt lat="45.08475" lon="6.10083">
        <ele>1814</ele>
        <time>2020-09-05T08:41:50Z</time>
      </trkpt>
      <trkpt lat="45.08475" lon="6.10077">
        <ele>1814</ele>
        <time>2020-09-05T08:41:51Z</time>
      </trkpt>
      <trkpt lat="45.08475" lon="6.10072">
        <ele>1814.2</ele>
        <time>2020-09-05T08:41:52Z</time>
      </trkpt>
      <trkpt lat="45.08475" lon="6.10067">
        <ele>1814</ele>
        <time>2020-09-05T08:41:53Z</time>
      </trkpt>
      <trkpt lat="45.08475" lon="6.10062">
        <ele>1814</ele>
        <time>2020-09-05T08:41:54Z</time>
      </trkpt>
      <trkpt lat="45.08475" lon="6.10057">
        <ele>1814.2</ele>
        <time>2020-09-05T08:41:55Z</time>
      </trkpt>
      <trkpt lat="45.08475" lon="6.10053">
        <ele>1814.4</ele>
        <time>2020-09-05T08:41:56Z</time>
      </trkpt>
      <trkpt lat="45.08475" lon="6.10048">
        <ele>1814.4</ele>
        <time>2020-09-05T08:41:57Z</time>
      </trkpt>
      <trkpt lat="45.08475" lon="6.10043">
        <ele>1814.6</ele>
        <time>2020-09-05T08:41:58Z</time>
      </trkpt>
      <trkpt lat="45.08475" lon="6.10037">
        <ele>1814.6</ele>
        <time>2020-09-05T08:41:59Z</time>
      </trkpt>
      <trkpt lat="45.08476" lon="6.10032">
        <ele>1814.2</ele>
        <time>2020-09-05T08:42:00Z</time>
      </trkpt>
      <trkpt lat="45.08476" lon="6.10025">
        <ele>1814.2</ele>
        <time>2020-09-05T08:42:01Z</time>
      </trkpt>
      <trkpt lat="45.08476" lon="6.10019">
        <ele>1814</ele>
        <time>2020-09-05T08:42:02Z</time>
      </trkpt>
      <trkpt lat="45.08476" lon="6.10011">
        <ele>1814</ele>
        <time>2020-09-05T08:42:03Z</time>
      </trkpt>
      <trkpt lat="45.08476" lon="6.10003">
        <ele>1814.2</ele>
        <time>2020-09-05T08:42:04Z</time>
      </trkpt>
      <trkpt lat="45.08476" lon="6.09995">
        <ele>1813.6</ele>
        <time>2020-09-05T08:42:05Z</time>
      </trkpt>
      <trkpt lat="45.08476" lon="6.09986">
        <ele>1813.2</ele>
        <time>2020-09-05T08:42:06Z</time>
      </trkpt>
      <trkpt lat="45.08475" lon="6.09976">
        <ele>1812.8</ele>
        <time>2020-09-05T08:42:07Z</time>
      </trkpt>
      <trkpt lat="45.08474" lon="6.09967">
        <ele>1812.4</ele>
        <time>2020-09-05T08:42:08Z</time>
      </trkpt>
      <trkpt lat="45.08472" lon="6.09957">
        <ele>1812</ele>
        <time>2020-09-05T08:42:09Z</time>
      </trkpt>
      <trkpt lat="45.0847" lon="6.09947">
        <ele>1811.6</ele>
        <time>2020-09-05T08:42:10Z</time>
      </trkpt>
      <trkpt lat="45.08468" lon="6.09937">
        <ele>1811.6</ele>
        <time>2020-09-05T08:42:11Z</time>
      </trkpt>
      <trkpt lat="45.08466" lon="6.09927">
        <ele>1811.4</ele>
        <time>2020-09-05T08:42:12Z</time>
      </trkpt>
      <trkpt lat="45.08465" lon="6.09916">
        <ele>1811</ele>
        <time>2020-09-05T08:42:13Z</time>
      </trkpt>
      <trkpt lat="45.08465" lon="6.09905">
        <ele>1810.6</ele>
        <time>2020-09-05T08:42:14Z</time>
      </trkpt>
      <trkpt lat="45.08465" lon="6.09893">
        <ele>1810.2</ele>
        <time>2020-09-05T08:42:15Z</time>
      </trkpt>
      <trkpt lat="45.08466" lon="6.09882">
        <ele>1809.6</ele>
        <time>2020-09-05T08:42:16Z</time>
      </trkpt>
      <trkpt lat="45.08467" lon="6.0987">
        <ele>1809.2</ele>
        <time>2020-09-05T08:42:17Z</time>
      </trkpt>
      <trkpt lat="45.08468" lon="6.09858">
        <ele>1809</ele>
        <time>2020-09-05T08:42:18Z</time>
      </trkpt>
      <trkpt lat="45.08469" lon="6.09846">
        <ele>1809</ele>
        <time>2020-09-05T08:42:19Z</time>
      </trkpt>
      <trkpt lat="45.0847" lon="6.09834">
        <ele>1808.4</ele>
        <time>2020-09-05T08:42:20Z</time>
      </trkpt>
      <trkpt lat="45.08471" lon="6.09822">
        <ele>1808</ele>
        <time>2020-09-05T08:42:21Z</time>
      </trkpt>
      <trkpt lat="45.08472" lon="6.09809">
        <ele>1807.4</ele>
        <time>2020-09-05T08:42:22Z</time>
      </trkpt>
      <trkpt lat="45.08474" lon="6.09798">
        <ele>1807.2</ele>
        <time>2020-09-05T08:42:23Z</time>
      </trkpt>
      <trkpt lat="45.08477" lon="6.09786">
        <ele>1807</ele>
        <time>2020-09-05T08:42:24Z</time>
      </trkpt>
      <trkpt lat="45.0848" lon="6.09775">
        <ele>1806.6</ele>
        <time>2020-09-05T08:42:25Z</time>
      </trkpt>
      <trkpt lat="45.08483" lon="6.09764">
        <ele>1806.4</ele>
        <time>2020-09-05T08:42:26Z</time>
      </trkpt>
      <trkpt lat="45.08487" lon="6.09753">
        <ele>1806</ele>
        <time>2020-09-05T08:42:27Z</time>
      </trkpt>
      <trkpt lat="45.0849" lon="6.09741">
        <ele>1805.8</ele>
        <time>2020-09-05T08:42:28Z</time>
      </trkpt>
      <trkpt lat="45.08493" lon="6.0973">
        <ele>1805.6</ele>
        <time>2020-09-05T08:42:29Z</time>
      </trkpt>
      <trkpt lat="45.08496" lon="6.09719">
        <ele>1805.4</ele>
        <time>2020-09-05T08:42:30Z</time>
      </trkpt>
      <trkpt lat="45.08499" lon="6.09708">
        <ele>1805</ele>
        <time>2020-09-05T08:42:31Z</time>
      </trkpt>
      <trkpt lat="45.08502" lon="6.09697">
        <ele>1804.8</ele>
        <time>2020-09-05T08:42:32Z</time>
      </trkpt>
      <trkpt lat="45.08505" lon="6.09686">
        <ele>1804.6</ele>
        <time>2020-09-05T08:42:33Z</time>
      </trkpt>
      <trkpt lat="45.08508" lon="6.09676">
        <ele>1804.6</ele>
        <time>2020-09-05T08:42:34Z</time>
      </trkpt>
      <trkpt lat="45.08512" lon="6.09665">
        <ele>1804.4</ele>
        <time>2020-09-05T08:42:35Z</time>
      </trkpt>
      <trkpt lat="45.08516" lon="6.09655">
        <ele>1804.4</ele>
        <time>2020-09-05T08:42:36Z</time>
      </trkpt>
      <trkpt lat="45.0852" lon="6.09645">
        <ele>1803.8</ele>
        <time>2020-09-05T08:42:37Z</time>
      </trkpt>
      <trkpt lat="45.08524" lon="6.09634">
        <ele>1803.6</ele>
        <time>2020-09-05T08:42:38Z</time>
      </trkpt>
      <trkpt lat="45.08527" lon="6.09624">
        <ele>1803.4</ele>
        <time>2020-09-05T08:42:39Z</time>
      </trkpt>
      <trkpt lat="45.0853" lon="6.09613">
        <ele>1803</ele>
        <time>2020-09-05T08:42:40Z</time>
      </trkpt>
      <trkpt lat="45.08533" lon="6.09602">
        <ele>1802.6</ele>
        <time>2020-09-05T08:42:41Z</time>
      </trkpt>
      <trkpt lat="45.08534" lon="6.09591">
        <ele>1802.4</ele>
        <time>2020-09-05T08:42:42Z</time>
      </trkpt>
      <trkpt lat="45.08534" lon="6.0958">
        <ele>1802.2</ele>
        <time>2020-09-05T08:42:43Z</time>
      </trkpt>
      <trkpt lat="45.08534" lon="6.09569">
        <ele>1801.6</ele>
        <time>2020-09-05T08:42:44Z</time>
      </trkpt>
      <trkpt lat="45.08534" lon="6.09558">
        <ele>1801.4</ele>
        <time>2020-09-05T08:42:45Z</time>
      </trkpt>
      <trkpt lat="45.08534" lon="6.09547">
        <ele>1801</ele>
        <time>2020-09-05T08:42:46Z</time>
      </trkpt>
      <trkpt lat="45.08535" lon="6.09536">
        <ele>1801</ele>
        <time>2020-09-05T08:42:47Z</time>
      </trkpt>
      <trkpt lat="45.08535" lon="6.09526">
        <ele>1800.8</ele>
        <time>2020-09-05T08:42:48Z</time>
      </trkpt>
      <trkpt lat="45.08536" lon="6.09515">
        <ele>1800.6</ele>
        <time>2020-09-05T08:42:49Z</time>
      </trkpt>
      <trkpt lat="45.08536" lon="6.09505">
        <ele>1800.8</ele>
        <time>2020-09-05T08:42:50Z</time>
      </trkpt>
      <trkpt lat="45.08537" lon="6.09494">
        <ele>1800.6</ele>
        <time>2020-09-05T08:42:51Z</time>
      </trkpt>
      <trkpt lat="45.08538" lon="6.09484">
        <ele>1800.6</ele>
        <time>2020-09-05T08:42:52Z</time>
      </trkpt>
      <trkpt lat="45.08539" lon="6.09473">
        <ele>1800.6</ele>
        <time>2020-09-05T08:42:53Z</time>
      </trkpt>
      <trkpt lat="45.0854" lon="6.09463">
        <ele>1800.2</ele>
        <time>2020-09-05T08:42:54Z</time>
      </trkpt>
      <trkpt lat="45.08542" lon="6.09453">
        <ele>1799.8</ele>
        <time>2020-09-05T08:42:55Z</time>
      </trkpt>
      <trkpt lat="45.08543" lon="6.09442">
        <ele>1800</ele>
        <time>2020-09-05T08:42:56Z</time>
      </trkpt>
      <trkpt lat="45.08545" lon="6.09432">
        <ele>1800.2</ele>
        <time>2020-09-05T08:42:57Z</time>
      </trkpt>
      <trkpt lat="45.08547" lon="6.09422">
        <ele>1800</ele>
        <time>2020-09-05T08:42:58Z</time>
      </trkpt>
      <trkpt lat="45.08549" lon="6.09413">
        <ele>1799.8</ele>
        <time>2020-09-05T08:42:59Z</time>
      </trkpt>
      <trkpt lat="45.0855" lon="6.09404">
        <ele>1800</ele>
        <time>2020-09-05T08:43:00Z</time>
      </trkpt>
      <trkpt lat="45.08552" lon="6.09394">
        <ele>1799.8</ele>
        <time>2020-09-05T08:43:01Z</time>
      </trkpt>
      <trkpt lat="45.08553" lon="6.09385">
        <ele>1799.8</ele>
        <time>2020-09-05T08:43:02Z</time>
      </trkpt>
      <trkpt lat="45.08555" lon="6.09376">
        <ele>1799.8</ele>
        <time>2020-09-05T08:43:03Z</time>
      </trkpt>
      <trkpt lat="45.08556" lon="6.09367">
        <ele>1799.8</ele>
        <time>2020-09-05T08:43:04Z</time>
      </trkpt>
      <trkpt lat="45.08558" lon="6.09358">
        <ele>1799.8</ele>
        <time>2020-09-05T08:43:05Z</time>
      </trkpt>
      <trkpt lat="45.0856" lon="6.0935">
        <ele>1800</ele>
        <time>2020-09-05T08:43:06Z</time>
      </trkpt>
      <trkpt lat="45.08561" lon="6.09342">
        <ele>1800.4</ele>
        <time>2020-09-05T08:43:07Z</time>
      </trkpt>
      <trkpt lat="45.08563" lon="6.09334">
        <ele>1800.8</ele>
        <time>2020-09-05T08:43:08Z</time>
      </trkpt>
      <trkpt lat="45.08565" lon="6.09327">
        <ele>1801</ele>
        <time>2020-09-05T08:43:09Z</time>
      </trkpt>
      <trkpt lat="45.08567" lon="6.0932">
        <ele>1801</ele>
        <time>2020-09-05T08:43:10Z</time>
      </trkpt>
      <trkpt lat="45.08569" lon="6.09313">
        <ele>1801.2</ele>
        <time>2020-09-05T08:43:11Z</time>
      </trkpt>
      <trkpt lat="45.08571" lon="6.09306">
        <ele>1801.2</ele>
        <time>2020-09-05T08:43:12Z</time>
      </trkpt>
      <trkpt lat="45.08573" lon="6.09299">
        <ele>1801.6</ele>
        <time>2020-09-05T08:43:13Z</time>
      </trkpt>
      <trkpt lat="45.08575" lon="6.09293">
        <ele>1801.6</ele>
        <time>2020-09-05T08:43:14Z</time>
      </trkpt>
      <trkpt lat="45.08578" lon="6.09285">
        <ele>1801.6</ele>
        <time>2020-09-05T08:43:15Z</time>
      </trkpt>
      <trkpt lat="45.0858" lon="6.09278">
        <ele>1801.8</ele>
        <time>2020-09-05T08:43:16Z</time>
      </trkpt>
      <trkpt lat="45.08583" lon="6.0927">
        <ele>1802.2</ele>
        <time>2020-09-05T08:43:17Z</time>
      </trkpt>
      <trkpt lat="45.08585" lon="6.09261">
        <ele>1802</ele>
        <time>2020-09-05T08:43:18Z</time>
      </trkpt>
      <trkpt lat="45.08587" lon="6.09253">
        <ele>1801.8</ele>
        <time>2020-09-05T08:43:19Z</time>
      </trkpt>
      <trkpt lat="45.08589" lon="6.09245">
        <ele>1801.4</ele>
        <time>2020-09-05T08:43:20Z</time>
      </trkpt>
      <trkpt lat="45.08591" lon="6.09236">
        <ele>1801.2</ele>
        <time>2020-09-05T08:43:21Z</time>
      </trkpt>
      <trkpt lat="45.08592" lon="6.09227">
        <ele>1801</ele>
        <time>2020-09-05T08:43:22Z</time>
      </trkpt>
      <trkpt lat="45.08594" lon="6.09218">
        <ele>1801.4</ele>
        <time>2020-09-05T08:43:23Z</time>
      </trkpt>
      <trkpt lat="45.08595" lon="6.09209">
        <ele>1801.4</ele>
        <time>2020-09-05T08:43:24Z</time>
      </trkpt>
      <trkpt lat="45.08597" lon="6.09201">
        <ele>1801.2</ele>
        <time>2020-09-05T08:43:25Z</time>
      </trkpt>
      <trkpt lat="45.08598" lon="6.09192">
        <ele>1801.2</ele>
        <time>2020-09-05T08:43:26Z</time>
      </trkpt>
      <trkpt lat="45.08599" lon="6.09183">
        <ele>1801.4</ele>
        <time>2020-09-05T08:43:27Z</time>
      </trkpt>
      <trkpt lat="45.086" lon="6.09174">
        <ele>1801.4</ele>
        <time>2020-09-05T08:43:28Z</time>
      </trkpt>
      <trkpt lat="45.08601" lon="6.09166">
        <ele>1801.6</ele>
        <time>2020-09-05T08:43:29Z</time>
      </trkpt>
      <trkpt lat="45.08602" lon="6.09157">
        <ele>1801.8</ele>
        <time>2020-09-05T08:43:30Z</time>
      </trkpt>
      <trkpt lat="45.08604" lon="6.09149">
        <ele>1802.2</ele>
        <time>2020-09-05T08:43:31Z</time>
      </trkpt>
      <trkpt lat="45.08605" lon="6.0914">
        <ele>1802.2</ele>
        <time>2020-09-05T08:43:32Z</time>
      </trkpt>
      <trkpt lat="45.08606" lon="6.09132">
        <ele>1802.2</ele>
        <time>2020-09-05T08:43:33Z</time>
      </trkpt>
      <trkpt lat="45.08608" lon="6.09123">
        <ele>1802</ele>
        <time>2020-09-05T08:43:34Z</time>
      </trkpt>
      <trkpt lat="45.08609" lon="6.09115">
        <ele>1802.2</ele>
        <time>2020-09-05T08:43:35Z</time>
      </trkpt>
      <trkpt lat="45.0861" lon="6.09106">
        <ele>1802.4</ele>
        <time>2020-09-05T08:43:36Z</time>
      </trkpt>
      <trkpt lat="45.0861" lon="6.09098">
        <ele>1802.6</ele>
        <time>2020-09-05T08:43:37Z</time>
      </trkpt>
      <trkpt lat="45.08611" lon="6.0909">
        <ele>1802.8</ele>
        <time>2020-09-05T08:43:38Z</time>
      </trkpt>
      <trkpt lat="45.08612" lon="6.09082">
        <ele>1802.8</ele>
        <time>2020-09-05T08:43:39Z</time>
      </trkpt>
      <trkpt lat="45.08612" lon="6.09073">
        <ele>1803</ele>
        <time>2020-09-05T08:43:40Z</time>
      </trkpt>
      <trkpt lat="45.08612" lon="6.09065">
        <ele>1803</ele>
        <time>2020-09-05T08:43:41Z</time>
      </trkpt>
      <trkpt lat="45.08611" lon="6.09058">
        <ele>1803</ele>
        <time>2020-09-05T08:43:42Z</time>
      </trkpt>
      <trkpt lat="45.0861" lon="6.0905">
        <ele>1803</ele>
        <time>2020-09-05T08:43:43Z</time>
      </trkpt>
      <trkpt lat="45.08609" lon="6.09042">
        <ele>1803.4</ele>
        <time>2020-09-05T08:43:44Z</time>
      </trkpt>
      <trkpt lat="45.08607" lon="6.09034">
        <ele>1803.2</ele>
        <time>2020-09-05T08:43:45Z</time>
      </trkpt>
      <trkpt lat="45.08605" lon="6.09027">
        <ele>1803.8</ele>
        <time>2020-09-05T08:43:46Z</time>
      </trkpt>
      <trkpt lat="45.08604" lon="6.09019">
        <ele>1804</ele>
        <time>2020-09-05T08:43:47Z</time>
      </trkpt>
      <trkpt lat="45.08602" lon="6.09012">
        <ele>1804.2</ele>
        <time>2020-09-05T08:43:48Z</time>
      </trkpt>
      <trkpt lat="45.08601" lon="6.09005">
        <ele>1804.2</ele>
        <time>2020-09-05T08:43:49Z</time>
      </trkpt>
      <trkpt lat="45.086" lon="6.08998">
        <ele>1804.2</ele>
        <time>2020-09-05T08:43:50Z</time>
      </trkpt>
      <trkpt lat="45.086" lon="6.0899">
        <ele>1804.6</ele>
        <time>2020-09-05T08:43:51Z</time>
      </trkpt>
      <trkpt lat="45.08601" lon="6.08984">
        <ele>1804.6</ele>
        <time>2020-09-05T08:43:52Z</time>
      </trkpt>
      <trkpt lat="45.08605" lon="6.0898">
        <ele>1804.4</ele>
        <time>2020-09-05T08:43:53Z</time>
      </trkpt>
      <trkpt lat="45.08609" lon="6.08978">
        <ele>1804.6</ele>
        <time>2020-09-05T08:43:54Z</time>
      </trkpt>
      <trkpt lat="45.08613" lon="6.08979">
        <ele>1804.8</ele>
        <time>2020-09-05T08:43:55Z</time>
      </trkpt>
      <trkpt lat="45.08618" lon="6.08982">
        <ele>1805.2</ele>
        <time>2020-09-05T08:43:56Z</time>
      </trkpt>
      <trkpt lat="45.08621" lon="6.08986">
        <ele>1805.6</ele>
        <time>2020-09-05T08:43:57Z</time>
      </trkpt>
      <trkpt lat="45.08625" lon="6.08991">
        <ele>1805.6</ele>
        <time>2020-09-05T08:43:58Z</time>
      </trkpt>
      <trkpt lat="45.08627" lon="6.08997">
        <ele>1806</ele>
        <time>2020-09-05T08:43:59Z</time>
      </trkpt>
      <trkpt lat="45.0863" lon="6.09003">
        <ele>1806.2</ele>
        <time>2020-09-05T08:44:00Z</time>
      </trkpt>
      <trkpt lat="45.08631" lon="6.09009">
        <ele>1806.4</ele>
        <time>2020-09-05T08:44:01Z</time>
      </trkpt>
      <trkpt lat="45.08633" lon="6.09016">
        <ele>1806.4</ele>
        <time>2020-09-05T08:44:02Z</time>
      </trkpt>
      <trkpt lat="45.08634" lon="6.09023">
        <ele>1806.8</ele>
        <time>2020-09-05T08:44:03Z</time>
      </trkpt>
      <trkpt lat="45.08635" lon="6.09031">
        <ele>1807</ele>
        <time>2020-09-05T08:44:04Z</time>
      </trkpt>
      <trkpt lat="45.08637" lon="6.09037">
        <ele>1807.2</ele>
        <time>2020-09-05T08:44:05Z</time>
      </trkpt>
      <trkpt lat="45.08639" lon="6.09044">
        <ele>1807.6</ele>
        <time>2020-09-05T08:44:06Z</time>
      </trkpt>
      <trkpt lat="45.08641" lon="6.09051">
        <ele>1807.8</ele>
        <time>2020-09-05T08:44:07Z</time>
      </trkpt>
      <trkpt lat="45.08644" lon="6.09057">
        <ele>1808.4</ele>
        <time>2020-09-05T08:44:08Z</time>
      </trkpt>
      <trkpt lat="45.08647" lon="6.09063">
        <ele>1808.4</ele>
        <time>2020-09-05T08:44:09Z</time>
      </trkpt>
      <trkpt lat="45.0865" lon="6.09068">
        <ele>1808.8</ele>
        <time>2020-09-05T08:44:10Z</time>
      </trkpt>
      <trkpt lat="45.08654" lon="6.09074">
        <ele>1809</ele>
        <time>2020-09-05T08:44:11Z</time>
      </trkpt>
      <trkpt lat="45.08658" lon="6.09079">
        <ele>1809.2</ele>
        <time>2020-09-05T08:44:12Z</time>
      </trkpt>
      <trkpt lat="45.08662" lon="6.09084">
        <ele>1809.4</ele>
        <time>2020-09-05T08:44:13Z</time>
      </trkpt>
      <trkpt lat="45.08665" lon="6.09089">
        <ele>1809.8</ele>
        <time>2020-09-05T08:44:14Z</time>
      </trkpt>
      <trkpt lat="45.08669" lon="6.09095">
        <ele>1810</ele>
        <time>2020-09-05T08:44:15Z</time>
      </trkpt>
      <trkpt lat="45.08672" lon="6.091">
        <ele>1810.2</ele>
        <time>2020-09-05T08:44:16Z</time>
      </trkpt>
      <trkpt lat="45.08674" lon="6.09106">
        <ele>1810.2</ele>
        <time>2020-09-05T08:44:17Z</time>
      </trkpt>
      <trkpt lat="45.08677" lon="6.09112">
        <ele>1810.4</ele>
        <time>2020-09-05T08:44:18Z</time>
      </trkpt>
      <trkpt lat="45.0868" lon="6.09118">
        <ele>1811</ele>
        <time>2020-09-05T08:44:19Z</time>
      </trkpt>
      <trkpt lat="45.08682" lon="6.09125">
        <ele>1811.2</ele>
        <time>2020-09-05T08:44:20Z</time>
      </trkpt>
      <trkpt lat="45.08684" lon="6.09131">
        <ele>1811.4</ele>
        <time>2020-09-05T08:44:21Z</time>
      </trkpt>
      <trkpt lat="45.08686" lon="6.09138">
        <ele>1811.8</ele>
        <time>2020-09-05T08:44:22Z</time>
      </trkpt>
      <trkpt lat="45.08688" lon="6.09144">
        <ele>1812.2</ele>
        <time>2020-09-05T08:44:23Z</time>
      </trkpt>
      <trkpt lat="45.0869" lon="6.0915">
        <ele>1812.2</ele>
        <time>2020-09-05T08:44:24Z</time>
      </trkpt>
      <trkpt lat="45.08691" lon="6.09157">
        <ele>1812.6</ele>
        <time>2020-09-05T08:44:25Z</time>
      </trkpt>
      <trkpt lat="45.08693" lon="6.09163">
        <ele>1812.8</ele>
        <time>2020-09-05T08:44:26Z</time>
      </trkpt>
      <trkpt lat="45.08694" lon="6.0917">
        <ele>1813</ele>
        <time>2020-09-05T08:44:27Z</time>
      </trkpt>
      <trkpt lat="45.08695" lon="6.09177">
        <ele>1813</ele>
        <time>2020-09-05T08:44:28Z</time>
      </trkpt>
      <trkpt lat="45.08696" lon="6.09183">
        <ele>1813.4</ele>
        <time>2020-09-05T08:44:29Z</time>
      </trkpt>
      <trkpt lat="45.08696" lon="6.0919">
        <ele>1813.6</ele>
        <time>2020-09-05T08:44:30Z</time>
      </trkpt>
      <trkpt lat="45.08697" lon="6.09197">
        <ele>1814</ele>
        <time>2020-09-05T08:44:31Z</time>
      </trkpt>
      <trkpt lat="45.08697" lon="6.09203">
        <ele>1814.2</ele>
        <time>2020-09-05T08:44:32Z</time>
      </trkpt>
      <trkpt lat="45.08697" lon="6.0921">
        <ele>1814.2</ele>
        <time>2020-09-05T08:44:33Z</time>
      </trkpt>
      <trkpt lat="45.08698" lon="6.09217">
        <ele>1814.4</ele>
        <time>2020-09-05T08:44:34Z</time>
      </trkpt>
      <trkpt lat="45.08699" lon="6.09223">
        <ele>1814.8</ele>
        <time>2020-09-05T08:44:35Z</time>
      </trkpt>
      <trkpt lat="45.08701" lon="6.09229">
        <ele>1815</ele>
        <time>2020-09-05T08:44:36Z</time>
      </trkpt>
      <trkpt lat="45.08705" lon="6.09233">
        <ele>1815.4</ele>
        <time>2020-09-05T08:44:37Z</time>
      </trkpt>
      <trkpt lat="45.08709" lon="6.09236">
        <ele>1816</ele>
        <time>2020-09-05T08:44:38Z</time>
      </trkpt>
      <trkpt lat="45.08714" lon="6.09236">
        <ele>1816.4</ele>
        <time>2020-09-05T08:44:39Z</time>
      </trkpt>
      <trkpt lat="45.08718" lon="6.09236">
        <ele>1817</ele>
        <time>2020-09-05T08:44:40Z</time>
      </trkpt>
      <trkpt lat="45.08723" lon="6.09235">
        <ele>1817</ele>
        <time>2020-09-05T08:44:41Z</time>
      </trkpt>
      <trkpt lat="45.08727" lon="6.09232">
        <ele>1817.2</ele>
        <time>2020-09-05T08:44:42Z</time>
      </trkpt>
      <trkpt lat="45.0873" lon="6.09227">
        <ele>1817.6</ele>
        <time>2020-09-05T08:44:43Z</time>
      </trkpt>
      <trkpt lat="45.08731" lon="6.0922">
        <ele>1818</ele>
        <time>2020-09-05T08:44:44Z</time>
      </trkpt>
      <trkpt lat="45.08731" lon="6.09213">
        <ele>1818.4</ele>
        <time>2020-09-05T08:44:45Z</time>
      </trkpt>
      <trkpt lat="45.08731" lon="6.09205">
        <ele>1818.8</ele>
        <time>2020-09-05T08:44:46Z</time>
      </trkpt>
      <trkpt lat="45.08731" lon="6.09198">
        <ele>1818.8</ele>
        <time>2020-09-05T08:44:47Z</time>
      </trkpt>
      <trkpt lat="45.08731" lon="6.0919">
        <ele>1819.4</ele>
        <time>2020-09-05T08:44:48Z</time>
      </trkpt>
      <trkpt lat="45.08731" lon="6.09183">
        <ele>1819.6</ele>
        <time>2020-09-05T08:44:49Z</time>
      </trkpt>
      <trkpt lat="45.08731" lon="6.09175">
        <ele>1819.8</ele>
        <time>2020-09-05T08:44:50Z</time>
      </trkpt>
      <trkpt lat="45.08731" lon="6.09168">
        <ele>1820.4</ele>
        <time>2020-09-05T08:44:51Z</time>
      </trkpt>
      <trkpt lat="45.08732" lon="6.0916">
        <ele>1820.8</ele>
        <time>2020-09-05T08:44:52Z</time>
      </trkpt>
      <trkpt lat="45.08733" lon="6.09153">
        <ele>1821.2</ele>
        <time>2020-09-05T08:44:53Z</time>
      </trkpt>
      <trkpt lat="45.08735" lon="6.09146">
        <ele>1821.8</ele>
        <time>2020-09-05T08:44:54Z</time>
      </trkpt>
      <trkpt lat="45.08736" lon="6.0914">
        <ele>1821.8</ele>
        <time>2020-09-05T08:44:55Z</time>
      </trkpt>
      <trkpt lat="45.08737" lon="6.09134">
        <ele>1822</ele>
        <time>2020-09-05T08:44:56Z</time>
      </trkpt>
      <trkpt lat="45.08738" lon="6.09127">
        <ele>1822.2</ele>
        <time>2020-09-05T08:44:57Z</time>
      </trkpt>
      <trkpt lat="45.0874" lon="6.09121">
        <ele>1822.6</ele>
        <time>2020-09-05T08:44:58Z</time>
      </trkpt>
      <trkpt lat="45.08741" lon="6.09116">
        <ele>1822.6</ele>
        <time>2020-09-05T08:44:59Z</time>
      </trkpt>
      <trkpt lat="45.08742" lon="6.0911">
        <ele>1822.6</ele>
        <time>2020-09-05T08:45:00Z</time>
      </trkpt>
      <trkpt lat="45.08744" lon="6.09105">
        <ele>1822.8</ele>
        <time>2020-09-05T08:45:01Z</time>
      </trkpt>
      <trkpt lat="45.08745" lon="6.09099">
        <ele>1823.2</ele>
        <time>2020-09-05T08:45:02Z</time>
      </trkpt>
      <trkpt lat="45.08747" lon="6.09094">
        <ele>1823.6</ele>
        <time>2020-09-05T08:45:03Z</time>
      </trkpt>
      <trkpt lat="45.08748" lon="6.09088">
        <ele>1823.8</ele>
        <time>2020-09-05T08:45:04Z</time>
      </trkpt>
      <trkpt lat="45.0875" lon="6.09083">
        <ele>1824</ele>
        <time>2020-09-05T08:45:05Z</time>
      </trkpt>
      <trkpt lat="45.08751" lon="6.09078">
        <ele>1824</ele>
        <time>2020-09-05T08:45:06Z</time>
      </trkpt>
      <trkpt lat="45.08753" lon="6.09073">
        <ele>1824</ele>
        <time>2020-09-05T08:45:07Z</time>
      </trkpt>
      <trkpt lat="45.08754" lon="6.09068">
        <ele>1824</ele>
        <time>2020-09-05T08:45:08Z</time>
      </trkpt>
      <trkpt lat="45.08756" lon="6.09063">
        <ele>1824.4</ele>
        <time>2020-09-05T08:45:09Z</time>
      </trkpt>
      <trkpt lat="45.08758" lon="6.09058">
        <ele>1824.8</ele>
        <time>2020-09-05T08:45:10Z</time>
      </trkpt>
      <trkpt lat="45.0876" lon="6.09053">
        <ele>1825.2</ele>
        <time>2020-09-05T08:45:11Z</time>
      </trkpt>
      <trkpt lat="45.08762" lon="6.09048">
        <ele>1825.6</ele>
        <time>2020-09-05T08:45:12Z</time>
      </trkpt>
      <trkpt lat="45.08764" lon="6.09043">
        <ele>1826</ele>
        <time>2020-09-05T08:45:13Z</time>
      </trkpt>
      <trkpt lat="45.08766" lon="6.09038">
        <ele>1826.2</ele>
        <time>2020-09-05T08:45:14Z</time>
      </trkpt>
      <trkpt lat="45.08768" lon="6.09033">
        <ele>1826.6</ele>
        <time>2020-09-05T08:45:15Z</time>
      </trkpt>
      <trkpt lat="45.0877" lon="6.09029">
        <ele>1826.6</ele>
        <time>2020-09-05T08:45:16Z</time>
      </trkpt>
      <trkpt lat="45.08772" lon="6.09024">
        <ele>1826.8</ele>
        <time>2020-09-05T08:45:17Z</time>
      </trkpt>
      <trkpt lat="45.08774" lon="6.0902">
        <ele>1827</ele>
        <time>2020-09-05T08:45:18Z</time>
      </trkpt>
      <trkpt lat="45.08776" lon="6.09015">
        <ele>1827.2</ele>
        <time>2020-09-05T08:45:19Z</time>
      </trkpt>
      <trkpt lat="45.08779" lon="6.09011">
        <ele>1827.4</ele>
        <time>2020-09-05T08:45:20Z</time>
      </trkpt>
      <trkpt lat="45.08781" lon="6.09006">
        <ele>1827.4</ele>
        <time>2020-09-05T08:45:21Z</time>
      </trkpt>
      <trkpt lat="45.08783" lon="6.09001">
        <ele>1827.6</ele>
        <time>2020-09-05T08:45:22Z</time>
      </trkpt>
      <trkpt lat="45.08786" lon="6.08997">
        <ele>1827.8</ele>
        <time>2020-09-05T08:45:23Z</time>
      </trkpt>
      <trkpt lat="45.08788" lon="6.08992">
        <ele>1828.2</ele>
        <time>2020-09-05T08:45:24Z</time>
      </trkpt>
      <trkpt lat="45.0879" lon="6.08988">
        <ele>1828</ele>
        <time>2020-09-05T08:45:25Z</time>
      </trkpt>
      <trkpt lat="45.08793" lon="6.08983">
        <ele>1828.2</ele>
        <time>2020-09-05T08:45:26Z</time>
      </trkpt>
      <trkpt lat="45.08796" lon="6.08978">
        <ele>1828.6</ele>
        <time>2020-09-05T08:45:27Z</time>
      </trkpt>
      <trkpt lat="45.08799" lon="6.08973">
        <ele>1829.4</ele>
        <time>2020-09-05T08:45:28Z</time>
      </trkpt>
      <trkpt lat="45.08803" lon="6.08967">
        <ele>1830</ele>
        <time>2020-09-05T08:45:29Z</time>
      </trkpt>
      <trkpt lat="45.08806" lon="6.0896">
        <ele>1830.4</ele>
        <time>2020-09-05T08:45:30Z</time>
      </trkpt>
      <trkpt lat="45.0881" lon="6.08954">
        <ele>1831</ele>
        <time>2020-09-05T08:45:31Z</time>
      </trkpt>
      <trkpt lat="45.08814" lon="6.08947">
        <ele>1831.2</ele>
        <time>2020-09-05T08:45:32Z</time>
      </trkpt>
      <trkpt lat="45.08818" lon="6.0894">
        <ele>1831.6</ele>
        <time>2020-09-05T08:45:33Z</time>
      </trkpt>
      <trkpt lat="45.08822" lon="6.08933">
        <ele>1832.4</ele>
        <time>2020-09-05T08:45:34Z</time>
      </trkpt>
      <trkpt lat="45.08826" lon="6.08926">
        <ele>1832.8</ele>
        <time>2020-09-05T08:45:35Z</time>
      </trkpt>
      <trkpt lat="45.0883" lon="6.0892">
        <ele>1833.4</ele>
        <time>2020-09-05T08:45:36Z</time>
      </trkpt>
      <trkpt lat="45.08834" lon="6.08913">
        <ele>1834</ele>
        <time>2020-09-05T08:45:37Z</time>
      </trkpt>
      <trkpt lat="45.08838" lon="6.08907">
        <ele>1834.4</ele>
        <time>2020-09-05T08:45:38Z</time>
      </trkpt>
      <trkpt lat="45.08841" lon="6.089">
        <ele>1834.4</ele>
        <time>2020-09-05T08:45:39Z</time>
      </trkpt>
      <trkpt lat="45.08845" lon="6.08894">
        <ele>1834.6</ele>
        <time>2020-09-05T08:45:40Z</time>
      </trkpt>
      <trkpt lat="45.08848" lon="6.08888">
        <ele>1834.8</ele>
        <time>2020-09-05T08:45:41Z</time>
      </trkpt>
      <trkpt lat="45.08851" lon="6.08882">
        <ele>1834.8</ele>
        <time>2020-09-05T08:45:42Z</time>
      </trkpt>
      <trkpt lat="45.08854" lon="6.08875">
        <ele>1835</ele>
        <time>2020-09-05T08:45:43Z</time>
      </trkpt>
      <trkpt lat="45.08857" lon="6.08869">
        <ele>1835</ele>
        <time>2020-09-05T08:45:44Z</time>
      </trkpt>
      <trkpt lat="45.0886" lon="6.08863">
        <ele>1835.4</ele>
        <time>2020-09-05T08:45:45Z</time>
      </trkpt>
      <trkpt lat="45.08863" lon="6.08856">
        <ele>1836</ele>
        <time>2020-09-05T08:45:46Z</time>
      </trkpt>
      <trkpt lat="45.08866" lon="6.0885">
        <ele>1836.2</ele>
        <time>2020-09-05T08:45:47Z</time>
      </trkpt>
      <trkpt lat="45.08869" lon="6.08845">
        <ele>1836.6</ele>
        <time>2020-09-05T08:45:48Z</time>
      </trkpt>
      <trkpt lat="45.08872" lon="6.08839">
        <ele>1836.8</ele>
        <time>2020-09-05T08:45:49Z</time>
      </trkpt>
      <trkpt lat="45.08875" lon="6.08834">
        <ele>1836.6</ele>
        <time>2020-09-05T08:45:50Z</time>
      </trkpt>
      <trkpt lat="45.08877" lon="6.08829">
        <ele>1837</ele>
        <time>2020-09-05T08:45:51Z</time>
      </trkpt>
      <trkpt lat="45.0888" lon="6.08824">
        <ele>1837</ele>
        <time>2020-09-05T08:45:52Z</time>
      </trkpt>
      <trkpt lat="45.08883" lon="6.08819">
        <ele>1837</ele>
        <time>2020-09-05T08:45:53Z</time>
      </trkpt>
      <trkpt lat="45.08886" lon="6.08814">
        <ele>1837.2</ele>
        <time>2020-09-05T08:45:54Z</time>
      </trkpt>
      <trkpt lat="45.08889" lon="6.08809">
        <ele>1837.2</ele>
        <time>2020-09-05T08:45:55Z</time>
      </trkpt>
      <trkpt lat="45.08892" lon="6.08804">
        <ele>1837.2</ele>
        <time>2020-09-05T08:45:56Z</time>
      </trkpt>
      <trkpt lat="45.08894" lon="6.08799">
        <ele>1837.4</ele>
        <time>2020-09-05T08:45:57Z</time>
      </trkpt>
      <trkpt lat="45.08897" lon="6.08793">
        <ele>1837.2</ele>
        <time>2020-09-05T08:45:58Z</time>
      </trkpt>
      <trkpt lat="45.089" lon="6.08788">
        <ele>1837.2</ele>
        <time>2020-09-05T08:45:59Z</time>
      </trkpt>
      <trkpt lat="45.08902" lon="6.08783">
        <ele>1837.4</ele>
        <time>2020-09-05T08:46:00Z</time>
      </trkpt>
      <trkpt lat="45.08904" lon="6.08777">
        <ele>1837.6</ele>
        <time>2020-09-05T08:46:01Z</time>
      </trkpt>
      <trkpt lat="45.08906" lon="6.08771">
        <ele>1837.6</ele>
        <time>2020-09-05T08:46:02Z</time>
      </trkpt>
      <trkpt lat="45.08908" lon="6.08765">
        <ele>1837.6</ele>
        <time>2020-09-05T08:46:03Z</time>
      </trkpt>
      <trkpt lat="45.08909" lon="6.08759">
        <ele>1837.6</ele>
        <time>2020-09-05T08:46:04Z</time>
      </trkpt>
      <trkpt lat="45.08911" lon="6.08752">
        <ele>1837.2</ele>
        <time>2020-09-05T08:46:05Z</time>
      </trkpt>
      <trkpt lat="45.08912" lon="6.08745">
        <ele>1837</ele>
        <time>2020-09-05T08:46:06Z</time>
      </trkpt>
      <trkpt lat="45.08914" lon="6.08739">
        <ele>1836.8</ele>
        <time>2020-09-05T08:46:07Z</time>
      </trkpt>
      <trkpt lat="45.08915" lon="6.08731">
        <ele>1836.8</ele>
        <time>2020-09-05T08:46:08Z</time>
      </trkpt>
      <trkpt lat="45.08916" lon="6.08724">
        <ele>1836.4</ele>
        <time>2020-09-05T08:46:09Z</time>
      </trkpt>
      <trkpt lat="45.08917" lon="6.08716">
        <ele>1836.6</ele>
        <time>2020-09-05T08:46:10Z</time>
      </trkpt>
      <trkpt lat="45.08917" lon="6.08708">
        <ele>1836.4</ele>
        <time>2020-09-05T08:46:11Z</time>
      </trkpt>
      <trkpt lat="45.08918" lon="6.08699">
        <ele>1836.2</ele>
        <time>2020-09-05T08:46:12Z</time>
      </trkpt>
      <trkpt lat="45.08919" lon="6.08691">
        <ele>1836</ele>
        <time>2020-09-05T08:46:13Z</time>
      </trkpt>
      <trkpt lat="45.08919" lon="6.08682">
        <ele>1835.8</ele>
        <time>2020-09-05T08:46:14Z</time>
      </trkpt>
      <trkpt lat="45.0892" lon="6.08672">
        <ele>1835.6</ele>
        <time>2020-09-05T08:46:15Z</time>
      </trkpt>
      <trkpt lat="45.08921" lon="6.08663">
        <ele>1835.4</ele>
        <time>2020-09-05T08:46:16Z</time>
      </trkpt>
      <trkpt lat="45.08922" lon="6.08653">
        <ele>1835</ele>
        <time>2020-09-05T08:46:17Z</time>
      </trkpt>
      <trkpt lat="45.08923" lon="6.08643">
        <ele>1834.8</ele>
        <time>2020-09-05T08:46:18Z</time>
      </trkpt>
      <trkpt lat="45.08924" lon="6.08633">
        <ele>1834.6</ele>
        <time>2020-09-05T08:46:19Z</time>
      </trkpt>
      <trkpt lat="45.08925" lon="6.08623">
        <ele>1834.2</ele>
        <time>2020-09-05T08:46:20Z</time>
      </trkpt>
      <trkpt lat="45.08927" lon="6.08613">
        <ele>1834</ele>
        <time>2020-09-05T08:46:21Z</time>
      </trkpt>
      <trkpt lat="45.08929" lon="6.08603">
        <ele>1834</ele>
        <time>2020-09-05T08:46:22Z</time>
      </trkpt>
      <trkpt lat="45.08932" lon="6.08593">
        <ele>1833.8</ele>
        <time>2020-09-05T08:46:23Z</time>
      </trkpt>
      <trkpt lat="45.08935" lon="6.08584">
        <ele>1833.6</ele>
        <time>2020-09-05T08:46:24Z</time>
      </trkpt>
      <trkpt lat="45.08938" lon="6.08574">
        <ele>1833.2</ele>
        <time>2020-09-05T08:46:25Z</time>
      </trkpt>
      <trkpt lat="45.08942" lon="6.08565">
        <ele>1832.8</ele>
        <time>2020-09-05T08:46:26Z</time>
      </trkpt>
      <trkpt lat="45.08946" lon="6.08557">
        <ele>1832.2</ele>
        <time>2020-09-05T08:46:27Z</time>
      </trkpt>
      <trkpt lat="45.0895" lon="6.08548">
        <ele>1832.2</ele>
        <time>2020-09-05T08:46:28Z</time>
      </trkpt>
      <trkpt lat="45.08954" lon="6.0854">
        <ele>1832</ele>
        <time>2020-09-05T08:46:29Z</time>
      </trkpt>
      <trkpt lat="45.08958" lon="6.08531">
        <ele>1831.8</ele>
        <time>2020-09-05T08:46:30Z</time>
      </trkpt>
      <trkpt lat="45.08963" lon="6.08524">
        <ele>1831.8</ele>
        <time>2020-09-05T08:46:31Z</time>
      </trkpt>
      <trkpt lat="45.08967" lon="6.08516">
        <ele>1831.6</ele>
        <time>2020-09-05T08:46:32Z</time>
      </trkpt>
      <trkpt lat="45.08972" lon="6.08508">
        <ele>1830.8</ele>
        <time>2020-09-05T08:46:33Z</time>
      </trkpt>
      <trkpt lat="45.08977" lon="6.08501">
        <ele>1830.8</ele>
        <time>2020-09-05T08:46:34Z</time>
      </trkpt>
      <trkpt lat="45.08982" lon="6.08493">
        <ele>1830.6</ele>
        <time>2020-09-05T08:46:35Z</time>
      </trkpt>
      <trkpt lat="45.08986" lon="6.08485">
        <ele>1830.2</ele>
        <time>2020-09-05T08:46:36Z</time>
      </trkpt>
      <trkpt lat="45.0899" lon="6.08477">
        <ele>1830</ele>
        <time>2020-09-05T08:46:37Z</time>
      </trkpt>
      <trkpt lat="45.08993" lon="6.08468">
        <ele>1829.8</ele>
        <time>2020-09-05T08:46:38Z</time>
      </trkpt>
      <trkpt lat="45.08994" lon="6.0846">
        <ele>1829.6</ele>
        <time>2020-09-05T08:46:39Z</time>
      </trkpt>
      <trkpt lat="45.08995" lon="6.08452">
        <ele>1829.4</ele>
        <time>2020-09-05T08:46:40Z</time>
      </trkpt>
      <trkpt lat="45.08995" lon="6.08445">
        <ele>1829.2</ele>
        <time>2020-09-05T08:46:41Z</time>
      </trkpt>
      <trkpt lat="45.08995" lon="6.08439">
        <ele>1829</ele>
        <time>2020-09-05T08:46:42Z</time>
      </trkpt>
      <trkpt lat="45.08995" lon="6.08436">
        <ele>1828.6</ele>
        <time>2020-09-05T08:46:43Z</time>
      </trkpt>
      <trkpt lat="45.08994" lon="6.08433">
        <ele>1828.4</ele>
        <time>2020-09-05T08:47:22Z</time>
      </trkpt>
      <trkpt lat="45.08993" lon="6.08429">
        <ele>1828.4</ele>
        <time>2020-09-05T08:47:24Z</time>
      </trkpt>
      <trkpt lat="45.08993" lon="6.08426">
        <ele>1828.4</ele>
        <time>2020-09-05T08:47:25Z</time>
      </trkpt>
      <trkpt lat="45.08992" lon="6.08423">
        <ele>1828.4</ele>
        <time>2020-09-05T08:47:26Z</time>
      </trkpt>
      <trkpt lat="45.08992" lon="6.0842">
        <ele>1828.4</ele>
        <time>2020-09-05T08:47:27Z</time>
      </trkpt>
      <trkpt lat="45.08992" lon="6.08416">
        <ele>1828.2</ele>
        <time>2020-09-05T08:47:28Z</time>
      </trkpt>
      <trkpt lat="45.08992" lon="6.08412">
        <ele>1828</ele>
        <time>2020-09-05T08:47:29Z</time>
      </trkpt>
      <trkpt lat="45.08992" lon="6.08408">
        <ele>1828</ele>
        <time>2020-09-05T08:47:30Z</time>
      </trkpt>
      <trkpt lat="45.08991" lon="6.08403">
        <ele>1828</ele>
        <time>2020-09-05T08:47:31Z</time>
      </trkpt>
      <trkpt lat="45.0899" lon="6.08398">
        <ele>1827.8</ele>
        <time>2020-09-05T08:47:32Z</time>
      </trkpt>
      <trkpt lat="45.08989" lon="6.08392">
        <ele>1827.8</ele>
        <time>2020-09-05T08:47:33Z</time>
      </trkpt>
      <trkpt lat="45.08988" lon="6.08386">
        <ele>1827.8</ele>
        <time>2020-09-05T08:47:34Z</time>
      </trkpt>
      <trkpt lat="45.08986" lon="6.0838">
        <ele>1827.4</ele>
        <time>2020-09-05T08:47:35Z</time>
      </trkpt>
      <trkpt lat="45.08985" lon="6.08373">
        <ele>1827</ele>
        <time>2020-09-05T08:47:36Z</time>
      </trkpt>
      <trkpt lat="45.08984" lon="6.08365">
        <ele>1827</ele>
        <time>2020-09-05T08:47:37Z</time>
      </trkpt>
      <trkpt lat="45.08983" lon="6.08357">
        <ele>1827</ele>
        <time>2020-09-05T08:47:38Z</time>
      </trkpt>
      <trkpt lat="45.08981" lon="6.08349">
        <ele>1826.4</ele>
        <time>2020-09-05T08:47:39Z</time>
      </trkpt>
      <trkpt lat="45.0898" lon="6.0834">
        <ele>1826.6</ele>
        <time>2020-09-05T08:47:40Z</time>
      </trkpt>
      <trkpt lat="45.08978" lon="6.08331">
        <ele>1826.8</ele>
        <time>2020-09-05T08:47:41Z</time>
      </trkpt>
      <trkpt lat="45.08975" lon="6.08321">
        <ele>1826.4</ele>
        <time>2020-09-05T08:47:42Z</time>
      </trkpt>
      <trkpt lat="45.08973" lon="6.08311">
        <ele>1825.6</ele>
        <time>2020-09-05T08:47:43Z</time>
      </trkpt>
      <trkpt lat="45.0897" lon="6.083">
        <ele>1825.2</ele>
        <time>2020-09-05T08:47:44Z</time>
      </trkpt>
      <trkpt lat="45.08967" lon="6.0829">
        <ele>1824.4</ele>
        <time>2020-09-05T08:47:45Z</time>
      </trkpt>
      <trkpt lat="45.08964" lon="6.0828">
        <ele>1824.4</ele>
        <time>2020-09-05T08:47:46Z</time>
      </trkpt>
      <trkpt lat="45.08962" lon="6.08269">
        <ele>1823.8</ele>
        <time>2020-09-05T08:47:47Z</time>
      </trkpt>
      <trkpt lat="45.08959" lon="6.08258">
        <ele>1823.2</ele>
        <time>2020-09-05T08:47:48Z</time>
      </trkpt>
      <trkpt lat="45.08955" lon="6.08246">
        <ele>1823</ele>
        <time>2020-09-05T08:47:49Z</time>
      </trkpt>
      <trkpt lat="45.08952" lon="6.08233">
        <ele>1823</ele>
        <time>2020-09-05T08:47:50Z</time>
      </trkpt>
      <trkpt lat="45.08949" lon="6.0822">
        <ele>1822.4</ele>
        <time>2020-09-05T08:47:51Z</time>
      </trkpt>
      <trkpt lat="45.08946" lon="6.08206">
        <ele>1821.6</ele>
        <time>2020-09-05T08:47:52Z</time>
      </trkpt>
      <trkpt lat="45.08945" lon="6.08193">
        <ele>1821</ele>
        <time>2020-09-05T08:47:53Z</time>
      </trkpt>
      <trkpt lat="45.08944" lon="6.0818">
        <ele>1820.2</ele>
        <time>2020-09-05T08:47:54Z</time>
      </trkpt>
      <trkpt lat="45.08945" lon="6.08169">
        <ele>1819.4</ele>
        <time>2020-09-05T08:47:55Z</time>
      </trkpt>
      <trkpt lat="45.08949" lon="6.08158">
        <ele>1819</ele>
        <time>2020-09-05T08:47:56Z</time>
      </trkpt>
      <trkpt lat="45.08954" lon="6.08148">
        <ele>1818.6</ele>
        <time>2020-09-05T08:47:57Z</time>
      </trkpt>
      <trkpt lat="45.08961" lon="6.0814">
        <ele>1818.2</ele>
        <time>2020-09-05T08:47:58Z</time>
      </trkpt>
      <trkpt lat="45.08969" lon="6.08133">
        <ele>1817.4</ele>
        <time>2020-09-05T08:47:59Z</time>
      </trkpt>
      <trkpt lat="45.08976" lon="6.08126">
        <ele>1816.6</ele>
        <time>2020-09-05T08:48:00Z</time>
      </trkpt>
      <trkpt lat="45.08984" lon="6.08118">
        <ele>1815.2</ele>
        <time>2020-09-05T08:48:01Z</time>
      </trkpt>
      <trkpt lat="45.08991" lon="6.0811">
        <ele>1814.8</ele>
        <time>2020-09-05T08:48:02Z</time>
      </trkpt>
      <trkpt lat="45.08997" lon="6.08101">
        <ele>1814.4</ele>
        <time>2020-09-05T08:48:03Z</time>
      </trkpt>
      <trkpt lat="45.09002" lon="6.08091">
        <ele>1813.8</ele>
        <time>2020-09-05T08:48:04Z</time>
      </trkpt>
      <trkpt lat="45.09007" lon="6.08079">
        <ele>1813.6</ele>
        <time>2020-09-05T08:48:05Z</time>
      </trkpt>
      <trkpt lat="45.0901" lon="6.08067">
        <ele>1813.4</ele>
        <time>2020-09-05T08:48:06Z</time>
      </trkpt>
      <trkpt lat="45.09011" lon="6.08053">
        <ele>1813.6</ele>
        <time>2020-09-05T08:48:07Z</time>
      </trkpt>
      <trkpt lat="45.09011" lon="6.08039">
        <ele>1813.4</ele>
        <time>2020-09-05T08:48:08Z</time>
      </trkpt>
      <trkpt lat="45.09013" lon="6.08025">
        <ele>1813</ele>
        <time>2020-09-05T08:48:09Z</time>
      </trkpt>
      <trkpt lat="45.09015" lon="6.08011">
        <ele>1812</ele>
        <time>2020-09-05T08:48:10Z</time>
      </trkpt>
      <trkpt lat="45.0902" lon="6.07998">
        <ele>1811.2</ele>
        <time>2020-09-05T08:48:11Z</time>
      </trkpt>
      <trkpt lat="45.09026" lon="6.07985">
        <ele>1811</ele>
        <time>2020-09-05T08:48:12Z</time>
      </trkpt>
      <trkpt lat="45.09034" lon="6.07974">
        <ele>1837</ele>
        <time>2020-09-05T08:48:13Z</time>
      </trkpt>
      <trkpt lat="45.09042" lon="6.07965">
        <ele>1809</ele>
        <time>2020-09-05T08:48:14Z</time>
      </trkpt>
      <trkpt lat="45.0905" lon="6.07956">
        <ele>1807.8</ele>
        <time>2020-09-05T08:48:15Z</time>
      </trkpt>
      <trkpt lat="45.09057" lon="6.07946">
        <ele>1806.6</ele>
        <time>2020-09-05T08:48:16Z</time>
      </trkpt>
      <trkpt lat="45.09061" lon="6.07935">
        <ele>1805.4</ele>
        <time>2020-09-05T08:48:17Z</time>
      </trkpt>
      <trkpt lat="45.09061" lon="6.07923">
        <ele>1804.2</ele>
        <time>2020-09-05T08:48:18Z</time>
      </trkpt>
      <trkpt lat="45.09057" lon="6.07913">
        <ele>1803</ele>
        <time>2020-09-05T08:48:19Z</time>
      </trkpt>
      <trkpt lat="45.09051" lon="6.07904">
        <ele>1802.2</ele>
        <time>2020-09-05T08:48:20Z</time>
      </trkpt>
      <trkpt lat="45.09043" lon="6.079">
        <ele>1801.2</ele>
        <time>2020-09-05T08:48:21Z</time>
      </trkpt>
      <trkpt lat="45.09034" lon="6.079">
        <ele>1800.4</ele>
        <time>2020-09-05T08:48:22Z</time>
      </trkpt>
      <trkpt lat="45.09026" lon="6.07903">
        <ele>1799.8</ele>
        <time>2020-09-05T08:48:23Z</time>
      </trkpt>
      <trkpt lat="45.09017" lon="6.07908">
        <ele>1799.2</ele>
        <time>2020-09-05T08:48:24Z</time>
      </trkpt>
      <trkpt lat="45.09008" lon="6.07913">
        <ele>1798.6</ele>
        <time>2020-09-05T08:48:25Z</time>
      </trkpt>
      <trkpt lat="45.08999" lon="6.07918">
        <ele>1797.8</ele>
        <time>2020-09-05T08:48:26Z</time>
      </trkpt>
      <trkpt lat="45.08989" lon="6.07923">
        <ele>1797.4</ele>
        <time>2020-09-05T08:48:27Z</time>
      </trkpt>
      <trkpt lat="45.0898" lon="6.07931">
        <ele>1796.8</ele>
        <time>2020-09-05T08:48:28Z</time>
      </trkpt>
      <trkpt lat="45.08972" lon="6.0794">
        <ele>1796.2</ele>
        <time>2020-09-05T08:48:29Z</time>
      </trkpt>
      <trkpt lat="45.08964" lon="6.07951">
        <ele>1796</ele>
        <time>2020-09-05T08:48:30Z</time>
      </trkpt>
      <trkpt lat="45.08955" lon="6.07961">
        <ele>1795.6</ele>
        <time>2020-09-05T08:48:31Z</time>
      </trkpt>
      <trkpt lat="45.08946" lon="6.07972">
        <ele>1794.8</ele>
        <time>2020-09-05T08:48:32Z</time>
      </trkpt>
      <trkpt lat="45.08937" lon="6.07981">
        <ele>1794</ele>
        <time>2020-09-05T08:48:33Z</time>
      </trkpt>
      <trkpt lat="45.08926" lon="6.07989">
        <ele>1793.2</ele>
        <time>2020-09-05T08:48:34Z</time>
      </trkpt>
      <trkpt lat="45.08916" lon="6.07996">
        <ele>1792.2</ele>
        <time>2020-09-05T08:48:35Z</time>
      </trkpt>
      <trkpt lat="45.08906" lon="6.08">
        <ele>1791.4</ele>
        <time>2020-09-05T08:48:36Z</time>
      </trkpt>
      <trkpt lat="45.08897" lon="6.08001">
        <ele>1790.6</ele>
        <time>2020-09-05T08:48:37Z</time>
      </trkpt>
      <trkpt lat="45.0889" lon="6.07997">
        <ele>1789.8</ele>
        <time>2020-09-05T08:48:38Z</time>
      </trkpt>
      <trkpt lat="45.08884" lon="6.07989">
        <ele>1789.4</ele>
        <time>2020-09-05T08:48:39Z</time>
      </trkpt>
      <trkpt lat="45.0888" lon="6.07978">
        <ele>1788.8</ele>
        <time>2020-09-05T08:48:40Z</time>
      </trkpt>
      <trkpt lat="45.08878" lon="6.07965">
        <ele>1788.4</ele>
        <time>2020-09-05T08:48:41Z</time>
      </trkpt>
      <trkpt lat="45.08878" lon="6.07952">
        <ele>1787.6</ele>
        <time>2020-09-05T08:48:42Z</time>
      </trkpt>
      <trkpt lat="45.0888" lon="6.07939">
        <ele>1787</ele>
        <time>2020-09-05T08:48:43Z</time>
      </trkpt>
      <trkpt lat="45.08882" lon="6.07926">
        <ele>1786.2</ele>
        <time>2020-09-05T08:48:44Z</time>
      </trkpt>
      <trkpt lat="45.08885" lon="6.07913">
        <ele>1786</ele>
        <time>2020-09-05T08:48:45Z</time>
      </trkpt>
      <trkpt lat="45.08888" lon="6.079">
        <ele>1785.6</ele>
        <time>2020-09-05T08:48:46Z</time>
      </trkpt>
      <trkpt lat="45.08892" lon="6.07887">
        <ele>1785</ele>
        <time>2020-09-05T08:48:47Z</time>
      </trkpt>
      <trkpt lat="45.08897" lon="6.07876">
        <ele>1784.4</ele>
        <time>2020-09-05T08:48:48Z</time>
      </trkpt>
      <trkpt lat="45.08902" lon="6.07865">
        <ele>1784.4</ele>
        <time>2020-09-05T08:48:49Z</time>
      </trkpt>
      <trkpt lat="45.08909" lon="6.07854">
        <ele>1783.6</ele>
        <time>2020-09-05T08:48:50Z</time>
      </trkpt>
      <trkpt lat="45.08916" lon="6.07845">
        <ele>1783.2</ele>
        <time>2020-09-05T08:48:51Z</time>
      </trkpt>
      <trkpt lat="45.08924" lon="6.07835">
        <ele>1782.8</ele>
        <time>2020-09-05T08:48:52Z</time>
      </trkpt>
      <trkpt lat="45.0893" lon="6.07824">
        <ele>1782.2</ele>
        <time>2020-09-05T08:48:53Z</time>
      </trkpt>
      <trkpt lat="45.08935" lon="6.07812">
        <ele>1781.2</ele>
        <time>2020-09-05T08:48:54Z</time>
      </trkpt>
      <trkpt lat="45.08937" lon="6.078">
        <ele>1780.4</ele>
        <time>2020-09-05T08:48:55Z</time>
      </trkpt>
      <trkpt lat="45.08936" lon="6.07788">
        <ele>1779.4</ele>
        <time>2020-09-05T08:48:56Z</time>
      </trkpt>
      <trkpt lat="45.08932" lon="6.07777">
        <ele>1778.6</ele>
        <time>2020-09-05T08:48:57Z</time>
      </trkpt>
      <trkpt lat="45.08926" lon="6.0777">
        <ele>1777.6</ele>
        <time>2020-09-05T08:48:58Z</time>
      </trkpt>
      <trkpt lat="45.08917" lon="6.07767">
        <ele>1776.8</ele>
        <time>2020-09-05T08:48:59Z</time>
      </trkpt>
      <trkpt lat="45.08909" lon="6.07768">
        <ele>1776.2</ele>
        <time>2020-09-05T08:49:00Z</time>
      </trkpt>
      <trkpt lat="45.08901" lon="6.07772">
        <ele>1775.2</ele>
        <time>2020-09-05T08:49:01Z</time>
      </trkpt>
      <trkpt lat="45.08893" lon="6.07777">
        <ele>1774.8</ele>
        <time>2020-09-05T08:49:02Z</time>
      </trkpt>
      <trkpt lat="45.08885" lon="6.07782">
        <ele>1774.4</ele>
        <time>2020-09-05T08:49:03Z</time>
      </trkpt>
      <trkpt lat="45.08876" lon="6.07786">
        <ele>1773.8</ele>
        <time>2020-09-05T08:49:04Z</time>
      </trkpt>
      <trkpt lat="45.08868" lon="6.07786">
        <ele>1773.2</ele>
        <time>2020-09-05T08:49:05Z</time>
      </trkpt>
      <trkpt lat="45.08861" lon="6.0778">
        <ele>1772.8</ele>
        <time>2020-09-05T08:49:06Z</time>
      </trkpt>
      <trkpt lat="45.08857" lon="6.07771">
        <ele>1772.4</ele>
        <time>2020-09-05T08:49:07Z</time>
      </trkpt>
      <trkpt lat="45.08854" lon="6.0776">
        <ele>1772.2</ele>
        <time>2020-09-05T08:49:08Z</time>
      </trkpt>
      <trkpt lat="45.08852" lon="6.07751">
        <ele>1772</ele>
        <time>2020-09-05T08:49:09Z</time>
      </trkpt>
      <trkpt lat="45.08851" lon="6.07742">
        <ele>1771.6</ele>
        <time>2020-09-05T08:49:10Z</time>
      </trkpt>
      <trkpt lat="45.0885" lon="6.07735">
        <ele>1771.2</ele>
        <time>2020-09-05T08:49:11Z</time>
      </trkpt>
      <trkpt lat="45.0885" lon="6.07729">
        <ele>1770.8</ele>
        <time>2020-09-05T08:49:12Z</time>
      </trkpt>
      <trkpt lat="45.0885" lon="6.07724">
        <ele>1770.8</ele>
        <time>2020-09-05T08:49:13Z</time>
      </trkpt>
      <trkpt lat="45.0885" lon="6.0772">
        <ele>1770.2</ele>
        <time>2020-09-05T08:49:14Z</time>
      </trkpt>
      <trkpt lat="45.0885" lon="6.07718">
        <ele>1770</ele>
        <time>2020-09-05T08:49:15Z</time>
      </trkpt>
      <trkpt lat="45.08849" lon="6.07714">
        <ele>1769.6</ele>
        <time>2020-09-05T08:49:26Z</time>
      </trkpt>
      <trkpt lat="45.08851" lon="6.07711">
        <ele>1769.6</ele>
        <time>2020-09-05T08:49:28Z</time>
      </trkpt>
      <trkpt lat="45.08853" lon="6.0771">
        <ele>1769.6</ele>
        <time>2020-09-05T08:49:29Z</time>
      </trkpt>
      <trkpt lat="45.08855" lon="6.07709">
        <ele>1769.8</ele>
        <time>2020-09-05T08:49:30Z</time>
      </trkpt>
      <trkpt lat="45.08857" lon="6.07709">
        <ele>1769.8</ele>
        <time>2020-09-05T08:49:31Z</time>
      </trkpt>
      <trkpt lat="45.0886" lon="6.07707">
        <ele>1769.6</ele>
        <time>2020-09-05T08:49:32Z</time>
      </trkpt>
      <trkpt lat="45.08863" lon="6.07706">
        <ele>1769.8</ele>
        <time>2020-09-05T08:49:33Z</time>
      </trkpt>
      <trkpt lat="45.08867" lon="6.07705">
        <ele>1770</ele>
        <time>2020-09-05T08:49:34Z</time>
      </trkpt>
      <trkpt lat="45.08871" lon="6.07704">
        <ele>1770</ele>
        <time>2020-09-05T08:49:35Z</time>
      </trkpt>
      <trkpt lat="45.08875" lon="6.07702">
        <ele>1770</ele>
        <time>2020-09-05T08:49:36Z</time>
      </trkpt>
      <trkpt lat="45.08879" lon="6.07699">
        <ele>1769.8</ele>
        <time>2020-09-05T08:49:37Z</time>
      </trkpt>
      <trkpt lat="45.08884" lon="6.07696">
        <ele>1770</ele>
        <time>2020-09-05T08:49:38Z</time>
      </trkpt>
      <trkpt lat="45.08889" lon="6.07694">
        <ele>1770.2</ele>
        <time>2020-09-05T08:49:39Z</time>
      </trkpt>
      <trkpt lat="45.08894" lon="6.07692">
        <ele>1770</ele>
        <time>2020-09-05T08:49:40Z</time>
      </trkpt>
      <trkpt lat="45.08899" lon="6.07689">
        <ele>1770</ele>
        <time>2020-09-05T08:49:41Z</time>
      </trkpt>
      <trkpt lat="45.08905" lon="6.07687">
        <ele>1770</ele>
        <time>2020-09-05T08:49:42Z</time>
      </trkpt>
      <trkpt lat="45.0891" lon="6.07684">
        <ele>1769.8</ele>
        <time>2020-09-05T08:49:43Z</time>
      </trkpt>
      <trkpt lat="45.08916" lon="6.0768">
        <ele>1769.8</ele>
        <time>2020-09-05T08:49:44Z</time>
      </trkpt>
      <trkpt lat="45.08921" lon="6.07676">
        <ele>1770</ele>
        <time>2020-09-05T08:49:45Z</time>
      </trkpt>
      <trkpt lat="45.08926" lon="6.07671">
        <ele>1770.2</ele>
        <time>2020-09-05T08:49:46Z</time>
      </trkpt>
      <trkpt lat="45.08931" lon="6.07665">
        <ele>1770.2</ele>
        <time>2020-09-05T08:49:47Z</time>
      </trkpt>
      <trkpt lat="45.08936" lon="6.07659">
        <ele>1770.4</ele>
        <time>2020-09-05T08:49:48Z</time>
      </trkpt>
      <trkpt lat="45.08941" lon="6.07652">
        <ele>1770.4</ele>
        <time>2020-09-05T08:49:49Z</time>
      </trkpt>
      <trkpt lat="45.08945" lon="6.07645">
        <ele>1770.4</ele>
        <time>2020-09-05T08:49:50Z</time>
      </trkpt>
      <trkpt lat="45.08949" lon="6.07638">
        <ele>1770.4</ele>
        <time>2020-09-05T08:49:51Z</time>
      </trkpt>
      <trkpt lat="45.08954" lon="6.07631">
        <ele>1770.6</ele>
        <time>2020-09-05T08:49:52Z</time>
      </trkpt>
      <trkpt lat="45.08958" lon="6.07624">
        <ele>1770.8</ele>
        <time>2020-09-05T08:49:53Z</time>
      </trkpt>
      <trkpt lat="45.08962" lon="6.07617">
        <ele>1770.8</ele>
        <time>2020-09-05T08:49:54Z</time>
      </trkpt>
      <trkpt lat="45.08965" lon="6.0761">
        <ele>1770.8</ele>
        <time>2020-09-05T08:49:55Z</time>
      </trkpt>
      <trkpt lat="45.08969" lon="6.07602">
        <ele>1770.8</ele>
        <time>2020-09-05T08:49:56Z</time>
      </trkpt>
      <trkpt lat="45.08972" lon="6.07593">
        <ele>1771</ele>
        <time>2020-09-05T08:49:57Z</time>
      </trkpt>
      <trkpt lat="45.08974" lon="6.07584">
        <ele>1771</ele>
        <time>2020-09-05T08:49:58Z</time>
      </trkpt>
      <trkpt lat="45.08976" lon="6.07575">
        <ele>1771.2</ele>
        <time>2020-09-05T08:49:59Z</time>
      </trkpt>
      <trkpt lat="45.08978" lon="6.07567">
        <ele>1771</ele>
        <time>2020-09-05T08:50:00Z</time>
      </trkpt>
      <trkpt lat="45.0898" lon="6.07558">
        <ele>1771.2</ele>
        <time>2020-09-05T08:50:01Z</time>
      </trkpt>
      <trkpt lat="45.08981" lon="6.07549">
        <ele>1771.6</ele>
        <time>2020-09-05T08:50:02Z</time>
      </trkpt>
      <trkpt lat="45.08983" lon="6.0754">
        <ele>1771.6</ele>
        <time>2020-09-05T08:50:03Z</time>
      </trkpt>
      <trkpt lat="45.08985" lon="6.07531">
        <ele>1771.2</ele>
        <time>2020-09-05T08:50:04Z</time>
      </trkpt>
      <trkpt lat="45.08988" lon="6.07523">
        <ele>1771.2</ele>
        <time>2020-09-05T08:50:05Z</time>
      </trkpt>
      <trkpt lat="45.0899" lon="6.07514">
        <ele>1771</ele>
        <time>2020-09-05T08:50:06Z</time>
      </trkpt>
      <trkpt lat="45.08993" lon="6.07506">
        <ele>1771</ele>
        <time>2020-09-05T08:50:07Z</time>
      </trkpt>
      <trkpt lat="45.08996" lon="6.07498">
        <ele>1771</ele>
        <time>2020-09-05T08:50:08Z</time>
      </trkpt>
      <trkpt lat="45.08999" lon="6.0749">
        <ele>1771</ele>
        <time>2020-09-05T08:50:09Z</time>
      </trkpt>
      <trkpt lat="45.09003" lon="6.07482">
        <ele>1771.2</ele>
        <time>2020-09-05T08:50:10Z</time>
      </trkpt>
      <trkpt lat="45.09007" lon="6.07474">
        <ele>1771</ele>
        <time>2020-09-05T08:50:11Z</time>
      </trkpt>
      <trkpt lat="45.0901" lon="6.07467">
        <ele>1771.2</ele>
        <time>2020-09-05T08:50:12Z</time>
      </trkpt>
      <trkpt lat="45.09014" lon="6.0746">
        <ele>1771.2</ele>
        <time>2020-09-05T08:50:13Z</time>
      </trkpt>
      <trkpt lat="45.09017" lon="6.07453">
        <ele>1771.2</ele>
        <time>2020-09-05T08:50:14Z</time>
      </trkpt>
      <trkpt lat="45.09021" lon="6.07447">
        <ele>1771.2</ele>
        <time>2020-09-05T08:50:15Z</time>
      </trkpt>
      <trkpt lat="45.09025" lon="6.07441">
        <ele>1771.2</ele>
        <time>2020-09-05T08:50:16Z</time>
      </trkpt>
      <trkpt lat="45.0903" lon="6.07434">
        <ele>1771.2</ele>
        <time>2020-09-05T08:50:17Z</time>
      </trkpt>
      <trkpt lat="45.09034" lon="6.07428">
        <ele>1771.2</ele>
        <time>2020-09-05T08:50:18Z</time>
      </trkpt>
      <trkpt lat="45.09038" lon="6.07421">
        <ele>1771.6</ele>
        <time>2020-09-05T08:50:19Z</time>
      </trkpt>
      <trkpt lat="45.09042" lon="6.07413">
        <ele>1772.2</ele>
        <time>2020-09-05T08:50:20Z</time>
      </trkpt>
      <trkpt lat="45.09043" lon="6.07405">
        <ele>1772.6</ele>
        <time>2020-09-05T08:50:21Z</time>
      </trkpt>
      <trkpt lat="45.09044" lon="6.07396">
        <ele>1772.8</ele>
        <time>2020-09-05T08:50:22Z</time>
      </trkpt>
      <trkpt lat="45.09044" lon="6.07387">
        <ele>1772.6</ele>
        <time>2020-09-05T08:50:23Z</time>
      </trkpt>
      <trkpt lat="45.09043" lon="6.07378">
        <ele>1772.8</ele>
        <time>2020-09-05T08:50:24Z</time>
      </trkpt>
      <trkpt lat="45.09041" lon="6.07369">
        <ele>1772.6</ele>
        <time>2020-09-05T08:50:25Z</time>
      </trkpt>
      <trkpt lat="45.0904" lon="6.07361">
        <ele>1773.4</ele>
        <time>2020-09-05T08:50:26Z</time>
      </trkpt>
      <trkpt lat="45.0904" lon="6.07353">
        <ele>1774</ele>
        <time>2020-09-05T08:50:27Z</time>
      </trkpt>
      <trkpt lat="45.0904" lon="6.07344">
        <ele>1774.6</ele>
        <time>2020-09-05T08:50:28Z</time>
      </trkpt>
      <trkpt lat="45.0904" lon="6.07336">
        <ele>1775.2</ele>
        <time>2020-09-05T08:50:29Z</time>
      </trkpt>
      <trkpt lat="45.09041" lon="6.07328">
        <ele>1774.8</ele>
        <time>2020-09-05T08:50:30Z</time>
      </trkpt>
      <trkpt lat="45.09043" lon="6.0732">
        <ele>1775.2</ele>
        <time>2020-09-05T08:50:31Z</time>
      </trkpt>
      <trkpt lat="45.09044" lon="6.07312">
        <ele>1775.4</ele>
        <time>2020-09-05T08:50:32Z</time>
      </trkpt>
      <trkpt lat="45.09045" lon="6.07304">
        <ele>1775.6</ele>
        <time>2020-09-05T08:50:33Z</time>
      </trkpt>
      <trkpt lat="45.09046" lon="6.07297">
        <ele>1775.8</ele>
        <time>2020-09-05T08:50:34Z</time>
      </trkpt>
      <trkpt lat="45.09047" lon="6.07289">
        <ele>1775.8</ele>
        <time>2020-09-05T08:50:35Z</time>
      </trkpt>
      <trkpt lat="45.09048" lon="6.07281">
        <ele>1775.8</ele>
        <time>2020-09-05T08:50:36Z</time>
      </trkpt>
      <trkpt lat="45.09048" lon="6.07273">
        <ele>1775.8</ele>
        <time>2020-09-05T08:50:37Z</time>
      </trkpt>
      <trkpt lat="45.09049" lon="6.07264">
        <ele>1775.8</ele>
        <time>2020-09-05T08:50:38Z</time>
      </trkpt>
      <trkpt lat="45.09049" lon="6.07256">
        <ele>1776</ele>
        <time>2020-09-05T08:50:39Z</time>
      </trkpt>
      <trkpt lat="45.09049" lon="6.07248">
        <ele>1775.8</ele>
        <time>2020-09-05T08:50:40Z</time>
      </trkpt>
      <trkpt lat="45.09049" lon="6.0724">
        <ele>1775.8</ele>
        <time>2020-09-05T08:50:41Z</time>
      </trkpt>
      <trkpt lat="45.09049" lon="6.07231">
        <ele>1775.8</ele>
        <time>2020-09-05T08:50:42Z</time>
      </trkpt>
      <trkpt lat="45.0905" lon="6.07223">
        <ele>1775.8</ele>
        <time>2020-09-05T08:50:43Z</time>
      </trkpt>
      <trkpt lat="45.0905" lon="6.07216">
        <ele>1775.8</ele>
        <time>2020-09-05T08:50:44Z</time>
      </trkpt>
      <trkpt lat="45.0905" lon="6.07208">
        <ele>1775.8</ele>
        <time>2020-09-05T08:50:45Z</time>
      </trkpt>
      <trkpt lat="45.0905" lon="6.072">
        <ele>1775.8</ele>
        <time>2020-09-05T08:50:46Z</time>
      </trkpt>
      <trkpt lat="45.09051" lon="6.07192">
        <ele>1775.6</ele>
        <time>2020-09-05T08:50:47Z</time>
      </trkpt>
      <trkpt lat="45.09051" lon="6.07184">
        <ele>1775.6</ele>
        <time>2020-09-05T08:50:48Z</time>
      </trkpt>
      <trkpt lat="45.09051" lon="6.07176">
        <ele>1776</ele>
        <time>2020-09-05T08:50:49Z</time>
      </trkpt>
      <trkpt lat="45.0905" lon="6.07168">
        <ele>1776.2</ele>
        <time>2020-09-05T08:50:50Z</time>
      </trkpt>
      <trkpt lat="45.09049" lon="6.0716">
        <ele>1776</ele>
        <time>2020-09-05T08:50:51Z</time>
      </trkpt>
      <trkpt lat="45.09048" lon="6.07152">
        <ele>1776</ele>
        <time>2020-09-05T08:50:52Z</time>
      </trkpt>
      <trkpt lat="45.09047" lon="6.07144">
        <ele>1775.8</ele>
        <time>2020-09-05T08:50:53Z</time>
      </trkpt>
      <trkpt lat="45.09046" lon="6.07136">
        <ele>1776</ele>
        <time>2020-09-05T08:50:54Z</time>
      </trkpt>
      <trkpt lat="45.09045" lon="6.07127">
        <ele>1776.2</ele>
        <time>2020-09-05T08:50:55Z</time>
      </trkpt>
      <trkpt lat="45.09045" lon="6.07119">
        <ele>1776.2</ele>
        <time>2020-09-05T08:50:56Z</time>
      </trkpt>
      <trkpt lat="45.09044" lon="6.07111">
        <ele>1776.4</ele>
        <time>2020-09-05T08:50:57Z</time>
      </trkpt>
      <trkpt lat="45.09044" lon="6.07102">
        <ele>1776.4</ele>
        <time>2020-09-05T08:50:58Z</time>
      </trkpt>
      <trkpt lat="45.09043" lon="6.07094">
        <ele>1776.6</ele>
        <time>2020-09-05T08:50:59Z</time>
      </trkpt>
      <trkpt lat="45.09042" lon="6.07085">
        <ele>1776.8</ele>
        <time>2020-09-05T08:51:00Z</time>
      </trkpt>
      <trkpt lat="45.09041" lon="6.07076">
        <ele>1776.8</ele>
        <time>2020-09-05T08:51:01Z</time>
      </trkpt>
      <trkpt lat="45.0904" lon="6.07068">
        <ele>1776.8</ele>
        <time>2020-09-05T08:51:02Z</time>
      </trkpt>
      <trkpt lat="45.09039" lon="6.07059">
        <ele>1776.8</ele>
        <time>2020-09-05T08:51:03Z</time>
      </trkpt>
      <trkpt lat="45.09039" lon="6.0705">
        <ele>1777</ele>
        <time>2020-09-05T08:51:04Z</time>
      </trkpt>
      <trkpt lat="45.09038" lon="6.07041">
        <ele>1777</ele>
        <time>2020-09-05T08:51:05Z</time>
      </trkpt>
      <trkpt lat="45.09037" lon="6.07032">
        <ele>1776.6</ele>
        <time>2020-09-05T08:51:06Z</time>
      </trkpt>
      <trkpt lat="45.09036" lon="6.07023">
        <ele>1776.6</ele>
        <time>2020-09-05T08:51:07Z</time>
      </trkpt>
      <trkpt lat="45.09035" lon="6.07014">
        <ele>1776.8</ele>
        <time>2020-09-05T08:51:08Z</time>
      </trkpt>
      <trkpt lat="45.09034" lon="6.07005">
        <ele>1776.8</ele>
        <time>2020-09-05T08:51:09Z</time>
      </trkpt>
      <trkpt lat="45.09033" lon="6.06995">
        <ele>1776.8</ele>
        <time>2020-09-05T08:51:10Z</time>
      </trkpt>
      <trkpt lat="45.09032" lon="6.06986">
        <ele>1776.8</ele>
        <time>2020-09-05T08:51:11Z</time>
      </trkpt>
      <trkpt lat="45.09031" lon="6.06977">
        <ele>1776.8</ele>
        <time>2020-09-05T08:51:12Z</time>
      </trkpt>
      <trkpt lat="45.0903" lon="6.06968">
        <ele>1777</ele>
        <time>2020-09-05T08:51:13Z</time>
      </trkpt>
      <trkpt lat="45.0903" lon="6.06959">
        <ele>1776.8</ele>
        <time>2020-09-05T08:51:14Z</time>
      </trkpt>
      <trkpt lat="45.0903" lon="6.06951">
        <ele>1776.8</ele>
        <time>2020-09-05T08:51:15Z</time>
      </trkpt>
      <trkpt lat="45.09029" lon="6.06942">
        <ele>1776.6</ele>
        <time>2020-09-05T08:51:16Z</time>
      </trkpt>
      <trkpt lat="45.09028" lon="6.06933">
        <ele>1776.2</ele>
        <time>2020-09-05T08:51:17Z</time>
      </trkpt>
      <trkpt lat="45.09026" lon="6.06925">
        <ele>1776.6</ele>
        <time>2020-09-05T08:51:18Z</time>
      </trkpt>
      <trkpt lat="45.09023" lon="6.06917">
        <ele>1776.4</ele>
        <time>2020-09-05T08:51:19Z</time>
      </trkpt>
      <trkpt lat="45.09021" lon="6.06909">
        <ele>1776.8</ele>
        <time>2020-09-05T08:51:20Z</time>
      </trkpt>
      <trkpt lat="45.09019" lon="6.06901">
        <ele>1776.6</ele>
        <time>2020-09-05T08:51:21Z</time>
      </trkpt>
      <trkpt lat="45.09018" lon="6.06893">
        <ele>1776.4</ele>
        <time>2020-09-05T08:51:22Z</time>
      </trkpt>
      <trkpt lat="45.09017" lon="6.06885">
        <ele>1776.6</ele>
        <time>2020-09-05T08:51:23Z</time>
      </trkpt>
      <trkpt lat="45.09016" lon="6.06877">
        <ele>1777.2</ele>
        <time>2020-09-05T08:51:24Z</time>
      </trkpt>
      <trkpt lat="45.09015" lon="6.06868">
        <ele>1777.8</ele>
        <time>2020-09-05T08:51:25Z</time>
      </trkpt>
      <trkpt lat="45.09014" lon="6.0686">
        <ele>1778.2</ele>
        <time>2020-09-05T08:51:26Z</time>
      </trkpt>
      <trkpt lat="45.09014" lon="6.06853">
        <ele>1778.4</ele>
        <time>2020-09-05T08:51:27Z</time>
      </trkpt>
      <trkpt lat="45.09014" lon="6.06845">
        <ele>1778.6</ele>
        <time>2020-09-05T08:51:28Z</time>
      </trkpt>
      <trkpt lat="45.09015" lon="6.06838">
        <ele>1778.8</ele>
        <time>2020-09-05T08:51:29Z</time>
      </trkpt>
      <trkpt lat="45.09017" lon="6.06833">
        <ele>1779</ele>
        <time>2020-09-05T08:51:30Z</time>
      </trkpt>
      <trkpt lat="45.09019" lon="6.06828">
        <ele>1779.2</ele>
        <time>2020-09-05T08:51:31Z</time>
      </trkpt>
      <trkpt lat="45.0902" lon="6.06824">
        <ele>1779.6</ele>
        <time>2020-09-05T08:51:32Z</time>
      </trkpt>
      <trkpt lat="45.09021" lon="6.0682">
        <ele>1779.4</ele>
        <time>2020-09-05T08:51:33Z</time>
      </trkpt>
      <trkpt lat="45.0902" lon="6.06817">
        <ele>1779.6</ele>
        <time>2020-09-05T08:51:34Z</time>
      </trkpt>
      <trkpt lat="45.0902" lon="6.06813">
        <ele>1779.4</ele>
        <time>2020-09-05T08:51:35Z</time>
      </trkpt>
      <trkpt lat="45.0902" lon="6.06808">
        <ele>1779.6</ele>
        <time>2020-09-05T08:51:36Z</time>
      </trkpt>
      <trkpt lat="45.09021" lon="6.06803">
        <ele>1779.6</ele>
        <time>2020-09-05T08:51:37Z</time>
      </trkpt>
      <trkpt lat="45.09023" lon="6.06797">
        <ele>1779.4</ele>
        <time>2020-09-05T08:51:38Z</time>
      </trkpt>
      <trkpt lat="45.09025" lon="6.06792">
        <ele>1779.4</ele>
        <time>2020-09-05T08:51:39Z</time>
      </trkpt>
      <trkpt lat="45.09027" lon="6.06786">
        <ele>1779.4</ele>
        <time>2020-09-05T08:51:40Z</time>
      </trkpt>
      <trkpt lat="45.0903" lon="6.0678">
        <ele>1779.4</ele>
        <time>2020-09-05T08:51:41Z</time>
      </trkpt>
      <trkpt lat="45.09032" lon="6.06773">
        <ele>1779.4</ele>
        <time>2020-09-05T08:51:42Z</time>
      </trkpt>
      <trkpt lat="45.09034" lon="6.06766">
        <ele>1779.2</ele>
        <time>2020-09-05T08:51:43Z</time>
      </trkpt>
      <trkpt lat="45.09036" lon="6.06759">
        <ele>1779</ele>
        <time>2020-09-05T08:51:44Z</time>
      </trkpt>
      <trkpt lat="45.09039" lon="6.06752">
        <ele>1778.8</ele>
        <time>2020-09-05T08:51:45Z</time>
      </trkpt>
      <trkpt lat="45.09041" lon="6.06744">
        <ele>1778.6</ele>
        <time>2020-09-05T08:51:46Z</time>
      </trkpt>
      <trkpt lat="45.09044" lon="6.06737">
        <ele>1778.4</ele>
        <time>2020-09-05T08:51:47Z</time>
      </trkpt>
      <trkpt lat="45.09046" lon="6.06729">
        <ele>1778.2</ele>
        <time>2020-09-05T08:51:48Z</time>
      </trkpt>
      <trkpt lat="45.09049" lon="6.06721">
        <ele>1777.6</ele>
        <time>2020-09-05T08:51:49Z</time>
      </trkpt>
      <trkpt lat="45.09052" lon="6.06713">
        <ele>1777.2</ele>
        <time>2020-09-05T08:51:50Z</time>
      </trkpt>
      <trkpt lat="45.09055" lon="6.06704">
        <ele>1777.2</ele>
        <time>2020-09-05T08:51:51Z</time>
      </trkpt>
      <trkpt lat="45.09059" lon="6.06696">
        <ele>1776.8</ele>
        <time>2020-09-05T08:51:52Z</time>
      </trkpt>
      <trkpt lat="45.09063" lon="6.06689">
        <ele>1776.6</ele>
        <time>2020-09-05T08:51:53Z</time>
      </trkpt>
      <trkpt lat="45.09068" lon="6.06682">
        <ele>1776.6</ele>
        <time>2020-09-05T08:51:54Z</time>
      </trkpt>
      <trkpt lat="45.09073" lon="6.06676">
        <ele>1776.2</ele>
        <time>2020-09-05T08:51:55Z</time>
      </trkpt>
      <trkpt lat="45.09079" lon="6.06671">
        <ele>1776</ele>
        <time>2020-09-05T08:51:56Z</time>
      </trkpt>
      <trkpt lat="45.09084" lon="6.06666">
        <ele>1775.8</ele>
        <time>2020-09-05T08:51:57Z</time>
      </trkpt>
      <trkpt lat="45.0909" lon="6.06661">
        <ele>1776</ele>
        <time>2020-09-05T08:51:58Z</time>
      </trkpt>
      <trkpt lat="45.09095" lon="6.06656">
        <ele>1775.8</ele>
        <time>2020-09-05T08:51:59Z</time>
      </trkpt>
      <trkpt lat="45.09102" lon="6.06653">
        <ele>1775.8</ele>
        <time>2020-09-05T08:52:00Z</time>
      </trkpt>
      <trkpt lat="45.09108" lon="6.0665">
        <ele>1776</ele>
        <time>2020-09-05T08:52:01Z</time>
      </trkpt>
      <trkpt lat="45.09114" lon="6.0665">
        <ele>1775.8</ele>
        <time>2020-09-05T08:52:02Z</time>
      </trkpt>
      <trkpt lat="45.09121" lon="6.0665">
        <ele>1776</ele>
        <time>2020-09-05T08:52:03Z</time>
      </trkpt>
      <trkpt lat="45.09127" lon="6.06651">
        <ele>1775.8</ele>
        <time>2020-09-05T08:52:04Z</time>
      </trkpt>
      <trkpt lat="45.09134" lon="6.06652">
        <ele>1775.6</ele>
        <time>2020-09-05T08:52:05Z</time>
      </trkpt>
      <trkpt lat="45.09141" lon="6.06653">
        <ele>1775.2</ele>
        <time>2020-09-05T08:52:06Z</time>
      </trkpt>
      <trkpt lat="45.09148" lon="6.06653">
        <ele>1774.6</ele>
        <time>2020-09-05T08:52:07Z</time>
      </trkpt>
      <trkpt lat="45.09155" lon="6.06654">
        <ele>1774.6</ele>
        <time>2020-09-05T08:52:08Z</time>
      </trkpt>
      <trkpt lat="45.09162" lon="6.06655">
        <ele>1774.6</ele>
        <time>2020-09-05T08:52:09Z</time>
      </trkpt>
      <trkpt lat="45.09169" lon="6.06655">
        <ele>1774.2</ele>
        <time>2020-09-05T08:52:10Z</time>
      </trkpt>
      <trkpt lat="45.09176" lon="6.06655">
        <ele>1774.6</ele>
        <time>2020-09-05T08:52:11Z</time>
      </trkpt>
      <trkpt lat="45.09183" lon="6.06656">
        <ele>1774.8</ele>
        <time>2020-09-05T08:52:12Z</time>
      </trkpt>
      <trkpt lat="45.0919" lon="6.06656">
        <ele>1774.6</ele>
        <time>2020-09-05T08:52:13Z</time>
      </trkpt>
      <trkpt lat="45.09196" lon="6.06656">
        <ele>1774.4</ele>
        <time>2020-09-05T08:52:14Z</time>
      </trkpt>
      <trkpt lat="45.09203" lon="6.06655">
        <ele>1774.4</ele>
        <time>2020-09-05T08:52:15Z</time>
      </trkpt>
      <trkpt lat="45.09208" lon="6.06652">
        <ele>1774.4</ele>
        <time>2020-09-05T08:52:16Z</time>
      </trkpt>
      <trkpt lat="45.09213" lon="6.06648">
        <ele>1774.2</ele>
        <time>2020-09-05T08:52:17Z</time>
      </trkpt>
      <trkpt lat="45.09218" lon="6.06642">
        <ele>1774</ele>
        <time>2020-09-05T08:52:18Z</time>
      </trkpt>
      <trkpt lat="45.09221" lon="6.06636">
        <ele>1774</ele>
        <time>2020-09-05T08:52:19Z</time>
      </trkpt>
      <trkpt lat="45.09224" lon="6.06629">
        <ele>1773.8</ele>
        <time>2020-09-05T08:52:20Z</time>
      </trkpt>
      <trkpt lat="45.09224" lon="6.0662">
        <ele>1773.6</ele>
        <time>2020-09-05T08:52:21Z</time>
      </trkpt>
      <trkpt lat="45.09222" lon="6.0661">
        <ele>1773.6</ele>
        <time>2020-09-05T08:52:22Z</time>
      </trkpt>
      <trkpt lat="45.09219" lon="6.06602">
        <ele>1773.8</ele>
        <time>2020-09-05T08:52:23Z</time>
      </trkpt>
      <trkpt lat="45.09216" lon="6.06593">
        <ele>1773.6</ele>
        <time>2020-09-05T08:52:24Z</time>
      </trkpt>
      <trkpt lat="45.09209" lon="6.06575">
        <ele>1773.4</ele>
        <time>2020-09-05T08:52:26Z</time>
      </trkpt>
      <trkpt lat="45.09206" lon="6.06567">
        <ele>1773.2</ele>
        <time>2020-09-05T08:52:27Z</time>
      </trkpt>
      <trkpt lat="45.09203" lon="6.06558">
        <ele>1773.2</ele>
        <time>2020-09-05T08:52:28Z</time>
      </trkpt>
      <trkpt lat="45.092" lon="6.06548">
        <ele>1773.2</ele>
        <time>2020-09-05T08:52:29Z</time>
      </trkpt>
      <trkpt lat="45.09198" lon="6.06539">
        <ele>1772.8</ele>
        <time>2020-09-05T08:52:30Z</time>
      </trkpt>
      <trkpt lat="45.09196" lon="6.06529">
        <ele>1772.4</ele>
        <time>2020-09-05T08:52:31Z</time>
      </trkpt>
      <trkpt lat="45.09195" lon="6.06519">
        <ele>1772.2</ele>
        <time>2020-09-05T08:52:32Z</time>
      </trkpt>
      <trkpt lat="45.09193" lon="6.06508">
        <ele>1772</ele>
        <time>2020-09-05T08:52:33Z</time>
      </trkpt>
      <trkpt lat="45.09192" lon="6.06497">
        <ele>1771.8</ele>
        <time>2020-09-05T08:52:34Z</time>
      </trkpt>
      <trkpt lat="45.0919" lon="6.06486">
        <ele>1771.2</ele>
        <time>2020-09-05T08:52:35Z</time>
      </trkpt>
      <trkpt lat="45.0919" lon="6.06475">
        <ele>1770.4</ele>
        <time>2020-09-05T08:52:36Z</time>
      </trkpt>
      <trkpt lat="45.0919" lon="6.06463">
        <ele>1770.6</ele>
        <time>2020-09-05T08:52:37Z</time>
      </trkpt>
      <trkpt lat="45.09189" lon="6.06451">
        <ele>1770.2</ele>
        <time>2020-09-05T08:52:38Z</time>
      </trkpt>
      <trkpt lat="45.09189" lon="6.06439">
        <ele>1770.4</ele>
        <time>2020-09-05T08:52:39Z</time>
      </trkpt>
      <trkpt lat="45.09188" lon="6.06427">
        <ele>1770</ele>
        <time>2020-09-05T08:52:40Z</time>
      </trkpt>
      <trkpt lat="45.09188" lon="6.06415">
        <ele>1769.6</ele>
        <time>2020-09-05T08:52:41Z</time>
      </trkpt>
      <trkpt lat="45.09188" lon="6.06402">
        <ele>1769.2</ele>
        <time>2020-09-05T08:52:42Z</time>
      </trkpt>
      <trkpt lat="45.09188" lon="6.06389">
        <ele>1768.8</ele>
        <time>2020-09-05T08:52:43Z</time>
      </trkpt>
      <trkpt lat="45.09189" lon="6.06376">
        <ele>1768.8</ele>
        <time>2020-09-05T08:52:44Z</time>
      </trkpt>
      <trkpt lat="45.09189" lon="6.06363">
        <ele>1768.4</ele>
        <time>2020-09-05T08:52:45Z</time>
      </trkpt>
      <trkpt lat="45.09189" lon="6.06349">
        <ele>1768.2</ele>
        <time>2020-09-05T08:52:46Z</time>
      </trkpt>
      <trkpt lat="45.0919" lon="6.06336">
        <ele>1767.6</ele>
        <time>2020-09-05T08:52:47Z</time>
      </trkpt>
      <trkpt lat="45.09191" lon="6.06325">
        <ele>1766.6</ele>
        <time>2020-09-05T08:52:48Z</time>
      </trkpt>
      <trkpt lat="45.09191" lon="6.06316">
        <ele>1765.6</ele>
        <time>2020-09-05T08:52:49Z</time>
      </trkpt>
      <trkpt lat="45.09189" lon="6.06309">
        <ele>1764.8</ele>
        <time>2020-09-05T08:52:50Z</time>
      </trkpt>
      <trkpt lat="45.09186" lon="6.06304">
        <ele>1764</ele>
        <time>2020-09-05T08:52:51Z</time>
      </trkpt>
      <trkpt lat="45.09183" lon="6.06303">
        <ele>1763.6</ele>
        <time>2020-09-05T08:52:52Z</time>
      </trkpt>
      <trkpt lat="45.0918" lon="6.06305">
        <ele>1762.8</ele>
        <time>2020-09-05T08:52:53Z</time>
      </trkpt>
      <trkpt lat="45.09177" lon="6.06309">
        <ele>1762.4</ele>
        <time>2020-09-05T08:52:54Z</time>
      </trkpt>
      <trkpt lat="45.09174" lon="6.06315">
        <ele>1762.2</ele>
        <time>2020-09-05T08:52:55Z</time>
      </trkpt>
      <trkpt lat="45.0917" lon="6.0632">
        <ele>1762.2</ele>
        <time>2020-09-05T08:52:56Z</time>
      </trkpt>
      <trkpt lat="45.09167" lon="6.06327">
        <ele>1761.8</ele>
        <time>2020-09-05T08:52:57Z</time>
      </trkpt>
      <trkpt lat="45.09163" lon="6.06334">
        <ele>1761.8</ele>
        <time>2020-09-05T08:52:58Z</time>
      </trkpt>
      <trkpt lat="45.09159" lon="6.06342">
        <ele>1761.6</ele>
        <time>2020-09-05T08:52:59Z</time>
      </trkpt>
      <trkpt lat="45.09154" lon="6.06349">
        <ele>1761</ele>
        <time>2020-09-05T08:53:00Z</time>
      </trkpt>
      <trkpt lat="45.09149" lon="6.06357">
        <ele>1760.8</ele>
        <time>2020-09-05T08:53:01Z</time>
      </trkpt>
      <trkpt lat="45.09144" lon="6.06365">
        <ele>1760.6</ele>
        <time>2020-09-05T08:53:02Z</time>
      </trkpt>
      <trkpt lat="45.09138" lon="6.06374">
        <ele>1760.4</ele>
        <time>2020-09-05T08:53:03Z</time>
      </trkpt>
      <trkpt lat="45.09132" lon="6.06383">
        <ele>1759.8</ele>
        <time>2020-09-05T08:53:04Z</time>
      </trkpt>
      <trkpt lat="45.09127" lon="6.06392">
        <ele>1759</ele>
        <time>2020-09-05T08:53:05Z</time>
      </trkpt>
      <trkpt lat="45.09122" lon="6.064">
        <ele>1758.2</ele>
        <time>2020-09-05T08:53:06Z</time>
      </trkpt>
      <trkpt lat="45.09119" lon="6.06408">
        <ele>1757.6</ele>
        <time>2020-09-05T08:53:07Z</time>
      </trkpt>
      <trkpt lat="45.09116" lon="6.06416">
        <ele>1757</ele>
        <time>2020-09-05T08:53:08Z</time>
      </trkpt>
      <trkpt lat="45.09114" lon="6.06423">
        <ele>1756.2</ele>
        <time>2020-09-05T08:53:09Z</time>
      </trkpt>
      <trkpt lat="45.09111" lon="6.06431">
        <ele>1756</ele>
        <time>2020-09-05T08:53:10Z</time>
      </trkpt>
      <trkpt lat="45.09109" lon="6.06439">
        <ele>1755.8</ele>
        <time>2020-09-05T08:53:11Z</time>
      </trkpt>
      <trkpt lat="45.09107" lon="6.06448">
        <ele>1755.6</ele>
        <time>2020-09-05T08:53:12Z</time>
      </trkpt>
      <trkpt lat="45.09105" lon="6.06457">
        <ele>1755.6</ele>
        <time>2020-09-05T08:53:13Z</time>
      </trkpt>
      <trkpt lat="45.09103" lon="6.06466">
        <ele>1755.2</ele>
        <time>2020-09-05T08:53:14Z</time>
      </trkpt>
      <trkpt lat="45.09102" lon="6.06476">
        <ele>1755</ele>
        <time>2020-09-05T08:53:15Z</time>
      </trkpt>
      <trkpt lat="45.09101" lon="6.06486">
        <ele>1755</ele>
        <time>2020-09-05T08:53:16Z</time>
      </trkpt>
      <trkpt lat="45.09101" lon="6.06496">
        <ele>1755</ele>
        <time>2020-09-05T08:53:17Z</time>
      </trkpt>
      <trkpt lat="45.09101" lon="6.06507">
        <ele>1754.6</ele>
        <time>2020-09-05T08:53:18Z</time>
      </trkpt>
      <trkpt lat="45.09101" lon="6.06517">
        <ele>1754</ele>
        <time>2020-09-05T08:53:19Z</time>
      </trkpt>
      <trkpt lat="45.091" lon="6.06527">
        <ele>1753.4</ele>
        <time>2020-09-05T08:53:20Z</time>
      </trkpt>
      <trkpt lat="45.09098" lon="6.06536">
        <ele>1752.8</ele>
        <time>2020-09-05T08:53:21Z</time>
      </trkpt>
      <trkpt lat="45.09095" lon="6.06543">
        <ele>1752</ele>
        <time>2020-09-05T08:53:22Z</time>
      </trkpt>
      <trkpt lat="45.09092" lon="6.06549">
        <ele>1751.6</ele>
        <time>2020-09-05T08:53:23Z</time>
      </trkpt>
      <trkpt lat="45.09088" lon="6.06554">
        <ele>1751</ele>
        <time>2020-09-05T08:53:24Z</time>
      </trkpt>
      <trkpt lat="45.0908" lon="6.06561">
        <ele>1749.8</ele>
        <time>2020-09-05T08:53:26Z</time>
      </trkpt>
      <trkpt lat="45.09068" lon="6.06564">
        <ele>1749.4</ele>
        <time>2020-09-05T08:53:27Z</time>
      </trkpt>
      <trkpt lat="45.09054" lon="6.06565">
        <ele>1748.2</ele>
        <time>2020-09-05T08:53:29Z</time>
      </trkpt>
      <trkpt lat="45.0905" lon="6.06552">
        <ele>1747.2</ele>
        <time>2020-09-05T08:53:30Z</time>
      </trkpt>
      <trkpt lat="45.09044" lon="6.06538">
        <ele>1746.6</ele>
        <time>2020-09-05T08:53:31Z</time>
      </trkpt>
      <trkpt lat="45.09044" lon="6.06524">
        <ele>1746</ele>
        <time>2020-09-05T08:53:32Z</time>
      </trkpt>
      <trkpt lat="45.09045" lon="6.06504">
        <ele>1745</ele>
        <time>2020-09-05T08:53:34Z</time>
      </trkpt>
      <trkpt lat="45.09046" lon="6.06484">
        <ele>1744.4</ele>
        <time>2020-09-05T08:53:36Z</time>
      </trkpt>
      <trkpt lat="45.09047" lon="6.06475">
        <ele>1744.2</ele>
        <time>2020-09-05T08:53:37Z</time>
      </trkpt>
      <trkpt lat="45.09049" lon="6.06466">
        <ele>1743.8</ele>
        <time>2020-09-05T08:53:38Z</time>
      </trkpt>
      <trkpt lat="45.0905" lon="6.06457">
        <ele>1743.8</ele>
        <time>2020-09-05T08:53:39Z</time>
      </trkpt>
      <trkpt lat="45.09051" lon="6.06448">
        <ele>1744</ele>
        <time>2020-09-05T08:53:40Z</time>
      </trkpt>
      <trkpt lat="45.09053" lon="6.06439">
        <ele>1743.8</ele>
        <time>2020-09-05T08:53:41Z</time>
      </trkpt>
      <trkpt lat="45.09054" lon="6.06431">
        <ele>1743.6</ele>
        <time>2020-09-05T08:53:42Z</time>
      </trkpt>
      <trkpt lat="45.09055" lon="6.06422">
        <ele>1743.6</ele>
        <time>2020-09-05T08:53:43Z</time>
      </trkpt>
      <trkpt lat="45.09057" lon="6.06414">
        <ele>1743.6</ele>
        <time>2020-09-05T08:53:44Z</time>
      </trkpt>
      <trkpt lat="45.09059" lon="6.06407">
        <ele>1743.6</ele>
        <time>2020-09-05T08:53:45Z</time>
      </trkpt>
      <trkpt lat="45.09062" lon="6.06401">
        <ele>1743.8</ele>
        <time>2020-09-05T08:53:46Z</time>
      </trkpt>
      <trkpt lat="45.09064" lon="6.06396">
        <ele>1743.6</ele>
        <time>2020-09-05T08:53:47Z</time>
      </trkpt>
      <trkpt lat="45.09066" lon="6.06392">
        <ele>1743.4</ele>
        <time>2020-09-05T08:53:48Z</time>
      </trkpt>
      <trkpt lat="45.09068" lon="6.06388">
        <ele>1743.6</ele>
        <time>2020-09-05T08:53:49Z</time>
      </trkpt>
      <trkpt lat="45.09071" lon="6.06385">
        <ele>1743.4</ele>
        <time>2020-09-05T08:53:50Z</time>
      </trkpt>
      <trkpt lat="45.09072" lon="6.0638">
        <ele>1743.2</ele>
        <time>2020-09-05T08:53:51Z</time>
      </trkpt>
      <trkpt lat="45.09074" lon="6.06375">
        <ele>1743.2</ele>
        <time>2020-09-05T08:53:52Z</time>
      </trkpt>
      <trkpt lat="45.09074" lon="6.06371">
        <ele>1743</ele>
        <time>2020-09-05T08:53:53Z</time>
      </trkpt>
      <trkpt lat="45.09075" lon="6.06367">
        <ele>1743</ele>
        <time>2020-09-05T08:53:54Z</time>
      </trkpt>
      <trkpt lat="45.09074" lon="6.06365">
        <ele>1742.8</ele>
        <time>2020-09-05T08:54:02Z</time>
      </trkpt>
      <trkpt lat="45.09074" lon="6.06361">
        <ele>1742.8</ele>
        <time>2020-09-05T08:54:04Z</time>
      </trkpt>
      <trkpt lat="45.09074" lon="6.06358">
        <ele>1742.8</ele>
        <time>2020-09-05T08:54:05Z</time>
      </trkpt>
      <trkpt lat="45.09074" lon="6.06355">
        <ele>1742.6</ele>
        <time>2020-09-05T08:54:06Z</time>
      </trkpt>
      <trkpt lat="45.09074" lon="6.06351">
        <ele>1742.4</ele>
        <time>2020-09-05T08:54:07Z</time>
      </trkpt>
      <trkpt lat="45.09074" lon="6.06347">
        <ele>1742.4</ele>
        <time>2020-09-05T08:54:08Z</time>
      </trkpt>
      <trkpt lat="45.09074" lon="6.06343">
        <ele>1742.4</ele>
        <time>2020-09-05T08:54:09Z</time>
      </trkpt>
      <trkpt lat="45.09074" lon="6.06337">
        <ele>1742.4</ele>
        <time>2020-09-05T08:54:10Z</time>
      </trkpt>
      <trkpt lat="45.09074" lon="6.06331">
        <ele>1742</ele>
        <time>2020-09-05T08:54:11Z</time>
      </trkpt>
      <trkpt lat="45.09075" lon="6.06324">
        <ele>1742</ele>
        <time>2020-09-05T08:54:12Z</time>
      </trkpt>
      <trkpt lat="45.09076" lon="6.06316">
        <ele>1742</ele>
        <time>2020-09-05T08:54:13Z</time>
      </trkpt>
      <trkpt lat="45.09077" lon="6.06307">
        <ele>1741.8</ele>
        <time>2020-09-05T08:54:14Z</time>
      </trkpt>
      <trkpt lat="45.09078" lon="6.06298">
        <ele>1741.8</ele>
        <time>2020-09-05T08:54:15Z</time>
      </trkpt>
      <trkpt lat="45.09079" lon="6.06287">
        <ele>1741.6</ele>
        <time>2020-09-05T08:54:16Z</time>
      </trkpt>
      <trkpt lat="45.09081" lon="6.06275">
        <ele>1741.2</ele>
        <time>2020-09-05T08:54:17Z</time>
      </trkpt>
      <trkpt lat="45.09084" lon="6.06263">
        <ele>1740.8</ele>
        <time>2020-09-05T08:54:18Z</time>
      </trkpt>
      <trkpt lat="45.09087" lon="6.0625">
        <ele>1740.2</ele>
        <time>2020-09-05T08:54:19Z</time>
      </trkpt>
      <trkpt lat="45.0909" lon="6.06237">
        <ele>1740</ele>
        <time>2020-09-05T08:54:20Z</time>
      </trkpt>
      <trkpt lat="45.09094" lon="6.06223">
        <ele>1739.2</ele>
        <time>2020-09-05T08:54:21Z</time>
      </trkpt>
      <trkpt lat="45.09097" lon="6.06209">
        <ele>1738.6</ele>
        <time>2020-09-05T08:54:22Z</time>
      </trkpt>
      <trkpt lat="45.09101" lon="6.06194">
        <ele>1737.8</ele>
        <time>2020-09-05T08:54:23Z</time>
      </trkpt>
      <trkpt lat="45.09106" lon="6.06179">
        <ele>1737</ele>
        <time>2020-09-05T08:54:24Z</time>
      </trkpt>
      <trkpt lat="45.09111" lon="6.06164">
        <ele>1735.6</ele>
        <time>2020-09-05T08:54:25Z</time>
      </trkpt>
      <trkpt lat="45.09116" lon="6.0615">
        <ele>1734.4</ele>
        <time>2020-09-05T08:54:26Z</time>
      </trkpt>
      <trkpt lat="45.09121" lon="6.06137">
        <ele>1732.6</ele>
        <time>2020-09-05T08:54:27Z</time>
      </trkpt>
      <trkpt lat="45.09124" lon="6.06125">
        <ele>1731.4</ele>
        <time>2020-09-05T08:54:28Z</time>
      </trkpt>
      <trkpt lat="45.09126" lon="6.06115">
        <ele>1730.4</ele>
        <time>2020-09-05T08:54:29Z</time>
      </trkpt>
      <trkpt lat="45.09129" lon="6.06103">
        <ele>1729.2</ele>
        <time>2020-09-05T08:54:30Z</time>
      </trkpt>
      <trkpt lat="45.09132" lon="6.06091">
        <ele>1728.4</ele>
        <time>2020-09-05T08:54:31Z</time>
      </trkpt>
      <trkpt lat="45.09135" lon="6.06078">
        <ele>1728</ele>
        <time>2020-09-05T08:54:32Z</time>
      </trkpt>
      <trkpt lat="45.09139" lon="6.06064">
        <ele>1727.6</ele>
        <time>2020-09-05T08:54:33Z</time>
      </trkpt>
      <trkpt lat="45.09142" lon="6.0605">
        <ele>1727.8</ele>
        <time>2020-09-05T08:54:34Z</time>
      </trkpt>
      <trkpt lat="45.09145" lon="6.06035">
        <ele>1727</ele>
        <time>2020-09-05T08:54:35Z</time>
      </trkpt>
      <trkpt lat="45.09148" lon="6.06019">
        <ele>1726.2</ele>
        <time>2020-09-05T08:54:36Z</time>
      </trkpt>
      <trkpt lat="45.09151" lon="6.06003">
        <ele>1725.2</ele>
        <time>2020-09-05T08:54:37Z</time>
      </trkpt>
      <trkpt lat="45.09154" lon="6.05986">
        <ele>1724.4</ele>
        <time>2020-09-05T08:54:38Z</time>
      </trkpt>
      <trkpt lat="45.09157" lon="6.05969">
        <ele>1723.4</ele>
        <time>2020-09-05T08:54:39Z</time>
      </trkpt>
      <trkpt lat="45.09161" lon="6.05952">
        <ele>1722.4</ele>
        <time>2020-09-05T08:54:40Z</time>
      </trkpt>
      <trkpt lat="45.09164" lon="6.05935">
        <ele>1721.2</ele>
        <time>2020-09-05T08:54:41Z</time>
      </trkpt>
      <trkpt lat="45.09168" lon="6.05917">
        <ele>1720.8</ele>
        <time>2020-09-05T08:54:42Z</time>
      </trkpt>
      <trkpt lat="45.09171" lon="6.05899">
        <ele>1719.8</ele>
        <time>2020-09-05T08:54:43Z</time>
      </trkpt>
      <trkpt lat="45.09173" lon="6.0588">
        <ele>1718.4</ele>
        <time>2020-09-05T08:54:44Z</time>
      </trkpt>
      <trkpt lat="45.09175" lon="6.05861">
        <ele>1717.6</ele>
        <time>2020-09-05T08:54:45Z</time>
      </trkpt>
      <trkpt lat="45.09177" lon="6.05842">
        <ele>1716.6</ele>
        <time>2020-09-05T08:54:46Z</time>
      </trkpt>
      <trkpt lat="45.09178" lon="6.05822">
        <ele>1715.4</ele>
        <time>2020-09-05T08:54:47Z</time>
      </trkpt>
      <trkpt lat="45.09179" lon="6.05802">
        <ele>1714.8</ele>
        <time>2020-09-05T08:54:48Z</time>
      </trkpt>
      <trkpt lat="45.0918" lon="6.05782">
        <ele>1713.4</ele>
        <time>2020-09-05T08:54:49Z</time>
      </trkpt>
      <trkpt lat="45.09182" lon="6.05762">
        <ele>1712.2</ele>
        <time>2020-09-05T08:54:50Z</time>
      </trkpt>
      <trkpt lat="45.09183" lon="6.05742">
        <ele>1710.8</ele>
        <time>2020-09-05T08:54:51Z</time>
      </trkpt>
      <trkpt lat="45.09183" lon="6.05722">
        <ele>1709.6</ele>
        <time>2020-09-05T08:54:52Z</time>
      </trkpt>
      <trkpt lat="45.09181" lon="6.05702">
        <ele>1708.8</ele>
        <time>2020-09-05T08:54:53Z</time>
      </trkpt>
      <trkpt lat="45.09178" lon="6.05683">
        <ele>1708.2</ele>
        <time>2020-09-05T08:54:54Z</time>
      </trkpt>
      <trkpt lat="45.09174" lon="6.05664">
        <ele>1707.2</ele>
        <time>2020-09-05T08:54:55Z</time>
      </trkpt>
      <trkpt lat="45.0917" lon="6.05645">
        <ele>1705.4</ele>
        <time>2020-09-05T08:54:56Z</time>
      </trkpt>
      <trkpt lat="45.09166" lon="6.05626">
        <ele>1704.8</ele>
        <time>2020-09-05T08:54:57Z</time>
      </trkpt>
      <trkpt lat="45.09162" lon="6.05607">
        <ele>1703.4</ele>
        <time>2020-09-05T08:54:58Z</time>
      </trkpt>
      <trkpt lat="45.09159" lon="6.05589">
        <ele>1701.6</ele>
        <time>2020-09-05T08:54:59Z</time>
      </trkpt>
      <trkpt lat="45.09157" lon="6.05572">
        <ele>1699.8</ele>
        <time>2020-09-05T08:55:00Z</time>
      </trkpt>
      <trkpt lat="45.09156" lon="6.05558">
        <ele>1697.4</ele>
        <time>2020-09-05T08:55:01Z</time>
      </trkpt>
      <trkpt lat="45.09156" lon="6.05545">
        <ele>1695.4</ele>
        <time>2020-09-05T08:55:02Z</time>
      </trkpt>
      <trkpt lat="45.09153" lon="6.05535">
        <ele>1693.8</ele>
        <time>2020-09-05T08:55:03Z</time>
      </trkpt>
      <trkpt lat="45.09148" lon="6.05531">
        <ele>1692.4</ele>
        <time>2020-09-05T08:55:04Z</time>
      </trkpt>
      <trkpt lat="45.09142" lon="6.05533">
        <ele>1691.2</ele>
        <time>2020-09-05T08:55:05Z</time>
      </trkpt>
      <trkpt lat="45.09137" lon="6.0554">
        <ele>1690</ele>
        <time>2020-09-05T08:55:06Z</time>
      </trkpt>
      <trkpt lat="45.09135" lon="6.0555">
        <ele>1689.2</ele>
        <time>2020-09-05T08:55:07Z</time>
      </trkpt>
      <trkpt lat="45.09135" lon="6.05561">
        <ele>1688.6</ele>
        <time>2020-09-05T08:55:08Z</time>
      </trkpt>
      <trkpt lat="45.09136" lon="6.05573">
        <ele>1688.2</ele>
        <time>2020-09-05T08:55:09Z</time>
      </trkpt>
      <trkpt lat="45.09138" lon="6.05585">
        <ele>1687.6</ele>
        <time>2020-09-05T08:55:10Z</time>
      </trkpt>
      <trkpt lat="45.09139" lon="6.05597">
        <ele>1687.2</ele>
        <time>2020-09-05T08:55:11Z</time>
      </trkpt>
      <trkpt lat="45.09139" lon="6.0561">
        <ele>1686.8</ele>
        <time>2020-09-05T08:55:12Z</time>
      </trkpt>
      <trkpt lat="45.09139" lon="6.05624">
        <ele>1686.4</ele>
        <time>2020-09-05T08:55:13Z</time>
      </trkpt>
      <trkpt lat="45.09138" lon="6.05638">
        <ele>1685.8</ele>
        <time>2020-09-05T08:55:14Z</time>
      </trkpt>
      <trkpt lat="45.09136" lon="6.05653">
        <ele>1685.4</ele>
        <time>2020-09-05T08:55:15Z</time>
      </trkpt>
      <trkpt lat="45.09133" lon="6.05667">
        <ele>1685</ele>
        <time>2020-09-05T08:55:16Z</time>
      </trkpt>
      <trkpt lat="45.09129" lon="6.05682">
        <ele>1684.2</ele>
        <time>2020-09-05T08:55:17Z</time>
      </trkpt>
      <trkpt lat="45.09124" lon="6.05697">
        <ele>1683.8</ele>
        <time>2020-09-05T08:55:18Z</time>
      </trkpt>
      <trkpt lat="45.09119" lon="6.05712">
        <ele>1683.4</ele>
        <time>2020-09-05T08:55:19Z</time>
      </trkpt>
      <trkpt lat="45.09112" lon="6.05727">
        <ele>1682.2</ele>
        <time>2020-09-05T08:55:20Z</time>
      </trkpt>
      <trkpt lat="45.09105" lon="6.05741">
        <ele>1681.4</ele>
        <time>2020-09-05T08:55:21Z</time>
      </trkpt>
      <trkpt lat="45.09097" lon="6.05755">
        <ele>1680</ele>
        <time>2020-09-05T08:55:22Z</time>
      </trkpt>
      <trkpt lat="45.09088" lon="6.0577">
        <ele>1678.8</ele>
        <time>2020-09-05T08:55:23Z</time>
      </trkpt>
      <trkpt lat="45.0908" lon="6.05785">
        <ele>1678.8</ele>
        <time>2020-09-05T08:55:24Z</time>
      </trkpt>
      <trkpt lat="45.09072" lon="6.058">
        <ele>1678</ele>
        <time>2020-09-05T08:55:25Z</time>
      </trkpt>
      <trkpt lat="45.09063" lon="6.05815">
        <ele>1677.2</ele>
        <time>2020-09-05T08:55:26Z</time>
      </trkpt>
      <trkpt lat="45.09054" lon="6.0583">
        <ele>1676.2</ele>
        <time>2020-09-05T08:55:27Z</time>
      </trkpt>
      <trkpt lat="45.09045" lon="6.05844">
        <ele>1674.6</ele>
        <time>2020-09-05T08:55:28Z</time>
      </trkpt>
      <trkpt lat="45.09035" lon="6.05858">
        <ele>1673.6</ele>
        <time>2020-09-05T08:55:29Z</time>
      </trkpt>
      <trkpt lat="45.09026" lon="6.05872">
        <ele>1672.6</ele>
        <time>2020-09-05T08:55:30Z</time>
      </trkpt>
      <trkpt lat="45.09016" lon="6.05886">
        <ele>1671.4</ele>
        <time>2020-09-05T08:55:31Z</time>
      </trkpt>
      <trkpt lat="45.09006" lon="6.059">
        <ele>1670</ele>
        <time>2020-09-05T08:55:32Z</time>
      </trkpt>
      <trkpt lat="45.08996" lon="6.05914">
        <ele>1668.2</ele>
        <time>2020-09-05T08:55:33Z</time>
      </trkpt>
      <trkpt lat="45.08986" lon="6.05928">
        <ele>1666.8</ele>
        <time>2020-09-05T08:55:34Z</time>
      </trkpt>
      <trkpt lat="45.08976" lon="6.05942">
        <ele>1665.2</ele>
        <time>2020-09-05T08:55:35Z</time>
      </trkpt>
      <trkpt lat="45.08966" lon="6.05954">
        <ele>1663.2</ele>
        <time>2020-09-05T08:55:36Z</time>
      </trkpt>
      <trkpt lat="45.08956" lon="6.05965">
        <ele>1662</ele>
        <time>2020-09-05T08:55:37Z</time>
      </trkpt>
      <trkpt lat="45.08945" lon="6.05976">
        <ele>1660.2</ele>
        <time>2020-09-05T08:55:38Z</time>
      </trkpt>
      <trkpt lat="45.08935" lon="6.05986">
        <ele>1659</ele>
        <time>2020-09-05T08:55:39Z</time>
      </trkpt>
      <trkpt lat="45.08923" lon="6.05996">
        <ele>1657.4</ele>
        <time>2020-09-05T08:55:40Z</time>
      </trkpt>
      <trkpt lat="45.08912" lon="6.06006">
        <ele>1656.2</ele>
        <time>2020-09-05T08:55:41Z</time>
      </trkpt>
      <trkpt lat="45.08901" lon="6.06016">
        <ele>1654.4</ele>
        <time>2020-09-05T08:55:42Z</time>
      </trkpt>
      <trkpt lat="45.08891" lon="6.06025">
        <ele>1652.4</ele>
        <time>2020-09-05T08:55:43Z</time>
      </trkpt>
      <trkpt lat="45.08883" lon="6.06034">
        <ele>1650.6</ele>
        <time>2020-09-05T08:55:44Z</time>
      </trkpt>
      <trkpt lat="45.08878" lon="6.06043">
        <ele>1649.2</ele>
        <time>2020-09-05T08:55:45Z</time>
      </trkpt>
      <trkpt lat="45.08873" lon="6.06049">
        <ele>1647.4</ele>
        <time>2020-09-05T08:55:46Z</time>
      </trkpt>
      <trkpt lat="45.08869" lon="6.06049">
        <ele>1646</ele>
        <time>2020-09-05T08:55:47Z</time>
      </trkpt>
      <trkpt lat="45.08867" lon="6.06043">
        <ele>1645</ele>
        <time>2020-09-05T08:55:48Z</time>
      </trkpt>
      <trkpt lat="45.08868" lon="6.06035">
        <ele>1644</ele>
        <time>2020-09-05T08:55:49Z</time>
      </trkpt>
      <trkpt lat="45.08871" lon="6.06027">
        <ele>1643</ele>
        <time>2020-09-05T08:55:50Z</time>
      </trkpt>
      <trkpt lat="45.08875" lon="6.06019">
        <ele>1642.2</ele>
        <time>2020-09-05T08:55:51Z</time>
      </trkpt>
      <trkpt lat="45.0888" lon="6.0601">
        <ele>1642</ele>
        <time>2020-09-05T08:55:52Z</time>
      </trkpt>
      <trkpt lat="45.08883" lon="6.06">
        <ele>1641.2</ele>
        <time>2020-09-05T08:55:53Z</time>
      </trkpt>
      <trkpt lat="45.08886" lon="6.05989">
        <ele>1640.8</ele>
        <time>2020-09-05T08:55:54Z</time>
      </trkpt>
      <trkpt lat="45.08889" lon="6.05977">
        <ele>1640.4</ele>
        <time>2020-09-05T08:55:55Z</time>
      </trkpt>
      <trkpt lat="45.08891" lon="6.05964">
        <ele>1640</ele>
        <time>2020-09-05T08:55:56Z</time>
      </trkpt>
      <trkpt lat="45.08893" lon="6.0595">
        <ele>1639.4</ele>
        <time>2020-09-05T08:55:57Z</time>
      </trkpt>
      <trkpt lat="45.08896" lon="6.05936">
        <ele>1638.6</ele>
        <time>2020-09-05T08:55:58Z</time>
      </trkpt>
      <trkpt lat="45.08899" lon="6.05921">
        <ele>1638.2</ele>
        <time>2020-09-05T08:55:59Z</time>
      </trkpt>
      <trkpt lat="45.08902" lon="6.05906">
        <ele>1637.4</ele>
        <time>2020-09-05T08:56:00Z</time>
      </trkpt>
      <trkpt lat="45.08905" lon="6.0589">
        <ele>1636.4</ele>
        <time>2020-09-05T08:56:01Z</time>
      </trkpt>
      <trkpt lat="45.08908" lon="6.05874">
        <ele>1636.2</ele>
        <time>2020-09-05T08:56:02Z</time>
      </trkpt>
      <trkpt lat="45.0891" lon="6.05857">
        <ele>1635.6</ele>
        <time>2020-09-05T08:56:03Z</time>
      </trkpt>
      <trkpt lat="45.08913" lon="6.0584">
        <ele>1634.6</ele>
        <time>2020-09-05T08:56:04Z</time>
      </trkpt>
      <trkpt lat="45.08916" lon="6.05822">
        <ele>1634</ele>
        <time>2020-09-05T08:56:05Z</time>
      </trkpt>
      <trkpt lat="45.08917" lon="6.05804">
        <ele>1633.4</ele>
        <time>2020-09-05T08:56:06Z</time>
      </trkpt>
      <trkpt lat="45.08917" lon="6.05785">
        <ele>1632.4</ele>
        <time>2020-09-05T08:56:07Z</time>
      </trkpt>
      <trkpt lat="45.08916" lon="6.05766">
        <ele>1630.8</ele>
        <time>2020-09-05T08:56:08Z</time>
      </trkpt>
      <trkpt lat="45.08915" lon="6.05747">
        <ele>1629.8</ele>
        <time>2020-09-05T08:56:09Z</time>
      </trkpt>
      <trkpt lat="45.08914" lon="6.05727">
        <ele>1628.4</ele>
        <time>2020-09-05T08:56:10Z</time>
      </trkpt>
      <trkpt lat="45.08912" lon="6.05707">
        <ele>1627</ele>
        <time>2020-09-05T08:56:11Z</time>
      </trkpt>
      <trkpt lat="45.0891" lon="6.05688">
        <ele>1625.2</ele>
        <time>2020-09-05T08:56:12Z</time>
      </trkpt>
      <trkpt lat="45.08907" lon="6.05671">
        <ele>1623.6</ele>
        <time>2020-09-05T08:56:13Z</time>
      </trkpt>
      <trkpt lat="45.08903" lon="6.05656">
        <ele>1622.2</ele>
        <time>2020-09-05T08:56:14Z</time>
      </trkpt>
      <trkpt lat="45.08897" lon="6.05642">
        <ele>1620.6</ele>
        <time>2020-09-05T08:56:15Z</time>
      </trkpt>
      <trkpt lat="45.08889" lon="6.05632">
        <ele>1619.2</ele>
        <time>2020-09-05T08:56:16Z</time>
      </trkpt>
      <trkpt lat="45.08879" lon="6.05625">
        <ele>1618.2</ele>
        <time>2020-09-05T08:56:17Z</time>
      </trkpt>
      <trkpt lat="45.08867" lon="6.05618">
        <ele>1617.4</ele>
        <time>2020-09-05T08:56:18Z</time>
      </trkpt>
      <trkpt lat="45.08856" lon="6.05611">
        <ele>1616.8</ele>
        <time>2020-09-05T08:56:19Z</time>
      </trkpt>
      <trkpt lat="45.08845" lon="6.05603">
        <ele>1615</ele>
        <time>2020-09-05T08:56:20Z</time>
      </trkpt>
      <trkpt lat="45.08835" lon="6.05595">
        <ele>1613.4</ele>
        <time>2020-09-05T08:56:21Z</time>
      </trkpt>
      <trkpt lat="45.08826" lon="6.05587">
        <ele>1611.4</ele>
        <time>2020-09-05T08:56:22Z</time>
      </trkpt>
      <trkpt lat="45.08819" lon="6.05581">
        <ele>1609.4</ele>
        <time>2020-09-05T08:56:23Z</time>
      </trkpt>
      <trkpt lat="45.08813" lon="6.0558">
        <ele>1608.2</ele>
        <time>2020-09-05T08:56:24Z</time>
      </trkpt>
      <trkpt lat="45.0881" lon="6.05586">
        <ele>1607.2</ele>
        <time>2020-09-05T08:56:25Z</time>
      </trkpt>
      <trkpt lat="45.08811" lon="6.05596">
        <ele>1606.4</ele>
        <time>2020-09-05T08:56:26Z</time>
      </trkpt>
      <trkpt lat="45.08815" lon="6.05605">
        <ele>1605.6</ele>
        <time>2020-09-05T08:56:27Z</time>
      </trkpt>
      <trkpt lat="45.08821" lon="6.05614">
        <ele>1605</ele>
        <time>2020-09-05T08:56:28Z</time>
      </trkpt>
      <trkpt lat="45.08827" lon="6.05623">
        <ele>1604.4</ele>
        <time>2020-09-05T08:56:29Z</time>
      </trkpt>
      <trkpt lat="45.08832" lon="6.05634">
        <ele>1604</ele>
        <time>2020-09-05T08:56:30Z</time>
      </trkpt>
      <trkpt lat="45.08835" lon="6.05647">
        <ele>1603.2</ele>
        <time>2020-09-05T08:56:31Z</time>
      </trkpt>
      <trkpt lat="45.08834" lon="6.05661">
        <ele>1602.6</ele>
        <time>2020-09-05T08:56:32Z</time>
      </trkpt>
      <trkpt lat="45.08831" lon="6.05676">
        <ele>1602</ele>
        <time>2020-09-05T08:56:33Z</time>
      </trkpt>
      <trkpt lat="45.08825" lon="6.05689">
        <ele>1601.8</ele>
        <time>2020-09-05T08:56:34Z</time>
      </trkpt>
      <trkpt lat="45.08818" lon="6.05702">
        <ele>1601.2</ele>
        <time>2020-09-05T08:56:35Z</time>
      </trkpt>
      <trkpt lat="45.0881" lon="6.05714">
        <ele>1600.2</ele>
        <time>2020-09-05T08:56:36Z</time>
      </trkpt>
      <trkpt lat="45.08803" lon="6.05728">
        <ele>1599.8</ele>
        <time>2020-09-05T08:56:37Z</time>
      </trkpt>
      <trkpt lat="45.08795" lon="6.05741">
        <ele>1599.4</ele>
        <time>2020-09-05T08:56:38Z</time>
      </trkpt>
      <trkpt lat="45.08787" lon="6.05754">
        <ele>1598.6</ele>
        <time>2020-09-05T08:56:39Z</time>
      </trkpt>
      <trkpt lat="45.08779" lon="6.05768">
        <ele>1597.4</ele>
        <time>2020-09-05T08:56:40Z</time>
      </trkpt>
      <trkpt lat="45.0877" lon="6.05781">
        <ele>1596.4</ele>
        <time>2020-09-05T08:56:41Z</time>
      </trkpt>
      <trkpt lat="45.0876" lon="6.05792">
        <ele>1595.6</ele>
        <time>2020-09-05T08:56:42Z</time>
      </trkpt>
      <trkpt lat="45.08749" lon="6.05803">
        <ele>1595.2</ele>
        <time>2020-09-05T08:56:43Z</time>
      </trkpt>
      <trkpt lat="45.08737" lon="6.05811">
        <ele>1594.6</ele>
        <time>2020-09-05T08:56:44Z</time>
      </trkpt>
      <trkpt lat="45.08725" lon="6.05819">
        <ele>1593.6</ele>
        <time>2020-09-05T08:56:45Z</time>
      </trkpt>
      <trkpt lat="45.08713" lon="6.05826">
        <ele>1592.6</ele>
        <time>2020-09-05T08:56:46Z</time>
      </trkpt>
      <trkpt lat="45.08701" lon="6.05834">
        <ele>1591.8</ele>
        <time>2020-09-05T08:56:47Z</time>
      </trkpt>
      <trkpt lat="45.08689" lon="6.05842">
        <ele>1590.2</ele>
        <time>2020-09-05T08:56:48Z</time>
      </trkpt>
      <trkpt lat="45.08676" lon="6.05851">
        <ele>1589</ele>
        <time>2020-09-05T08:56:49Z</time>
      </trkpt>
      <trkpt lat="45.08664" lon="6.05861">
        <ele>1587.4</ele>
        <time>2020-09-05T08:56:50Z</time>
      </trkpt>
      <trkpt lat="45.08652" lon="6.05871">
        <ele>1585.6</ele>
        <time>2020-09-05T08:56:51Z</time>
      </trkpt>
      <trkpt lat="45.08641" lon="6.05882">
        <ele>1584.2</ele>
        <time>2020-09-05T08:56:52Z</time>
      </trkpt>
      <trkpt lat="45.08629" lon="6.05894">
        <ele>1582.8</ele>
        <time>2020-09-05T08:56:53Z</time>
      </trkpt>
      <trkpt lat="45.08617" lon="6.05906">
        <ele>1581.6</ele>
        <time>2020-09-05T08:56:54Z</time>
      </trkpt>
      <trkpt lat="45.08606" lon="6.05918">
        <ele>1580.2</ele>
        <time>2020-09-05T08:56:55Z</time>
      </trkpt>
      <trkpt lat="45.08594" lon="6.0593">
        <ele>1579</ele>
        <time>2020-09-05T08:56:56Z</time>
      </trkpt>
      <trkpt lat="45.08582" lon="6.05942">
        <ele>1577.8</ele>
        <time>2020-09-05T08:56:57Z</time>
      </trkpt>
      <trkpt lat="45.08571" lon="6.05954">
        <ele>1576.2</ele>
        <time>2020-09-05T08:56:58Z</time>
      </trkpt>
      <trkpt lat="45.08558" lon="6.05965">
        <ele>1574.8</ele>
        <time>2020-09-05T08:56:59Z</time>
      </trkpt>
      <trkpt lat="45.08545" lon="6.05975">
        <ele>1573.8</ele>
        <time>2020-09-05T08:57:00Z</time>
      </trkpt>
      <trkpt lat="45.08532" lon="6.05985">
        <ele>1572.6</ele>
        <time>2020-09-05T08:57:01Z</time>
      </trkpt>
      <trkpt lat="45.08518" lon="6.05993">
        <ele>1570.6</ele>
        <time>2020-09-05T08:57:02Z</time>
      </trkpt>
      <trkpt lat="45.08505" lon="6.06">
        <ele>1569.2</ele>
        <time>2020-09-05T08:57:03Z</time>
      </trkpt>
      <trkpt lat="45.08492" lon="6.06007">
        <ele>1567.4</ele>
        <time>2020-09-05T08:57:04Z</time>
      </trkpt>
      <trkpt lat="45.08479" lon="6.06012">
        <ele>1565.8</ele>
        <time>2020-09-05T08:57:05Z</time>
      </trkpt>
      <trkpt lat="45.08466" lon="6.06017">
        <ele>1564.4</ele>
        <time>2020-09-05T08:57:06Z</time>
      </trkpt>
      <trkpt lat="45.08452" lon="6.06021">
        <ele>1563.6</ele>
        <time>2020-09-05T08:57:07Z</time>
      </trkpt>
      <trkpt lat="45.08438" lon="6.06025">
        <ele>1562.6</ele>
        <time>2020-09-05T08:57:08Z</time>
      </trkpt>
      <trkpt lat="45.08425" lon="6.06031">
        <ele>1561.2</ele>
        <time>2020-09-05T08:57:09Z</time>
      </trkpt>
      <trkpt lat="45.08413" lon="6.0604">
        <ele>1560</ele>
        <time>2020-09-05T08:57:10Z</time>
      </trkpt>
      <trkpt lat="45.08402" lon="6.06053">
        <ele>1558.8</ele>
        <time>2020-09-05T08:57:11Z</time>
      </trkpt>
      <trkpt lat="45.08392" lon="6.06068">
        <ele>1557.6</ele>
        <time>2020-09-05T08:57:12Z</time>
      </trkpt>
      <trkpt lat="45.08384" lon="6.06085">
        <ele>1556.2</ele>
        <time>2020-09-05T08:57:13Z</time>
      </trkpt>
      <trkpt lat="45.08377" lon="6.06102">
        <ele>1554.6</ele>
        <time>2020-09-05T08:57:14Z</time>
      </trkpt>
      <trkpt lat="45.08369" lon="6.0612">
        <ele>1553</ele>
        <time>2020-09-05T08:57:15Z</time>
      </trkpt>
      <trkpt lat="45.08363" lon="6.06137">
        <ele>1551.4</ele>
        <time>2020-09-05T08:57:16Z</time>
      </trkpt>
      <trkpt lat="45.08359" lon="6.06154">
        <ele>1550.4</ele>
        <time>2020-09-05T08:57:17Z</time>
      </trkpt>
      <trkpt lat="45.08357" lon="6.06172">
        <ele>1548.6</ele>
        <time>2020-09-05T08:57:18Z</time>
      </trkpt>
      <trkpt lat="45.08357" lon="6.06191">
        <ele>1547</ele>
        <time>2020-09-05T08:57:19Z</time>
      </trkpt>
      <trkpt lat="45.08358" lon="6.06209">
        <ele>1545.6</ele>
        <time>2020-09-05T08:57:20Z</time>
      </trkpt>
      <trkpt lat="45.0836" lon="6.06226">
        <ele>1543.6</ele>
        <time>2020-09-05T08:57:21Z</time>
      </trkpt>
      <trkpt lat="45.08362" lon="6.06242">
        <ele>1541.4</ele>
        <time>2020-09-05T08:57:22Z</time>
      </trkpt>
      <trkpt lat="45.08364" lon="6.06254">
        <ele>1539.6</ele>
        <time>2020-09-05T08:57:23Z</time>
      </trkpt>
      <trkpt lat="45.08362" lon="6.06262">
        <ele>1538</ele>
        <time>2020-09-05T08:57:24Z</time>
      </trkpt>
      <trkpt lat="45.08356" lon="6.06263">
        <ele>1536.6</ele>
        <time>2020-09-05T08:57:25Z</time>
      </trkpt>
      <trkpt lat="45.08351" lon="6.06256">
        <ele>1535.6</ele>
        <time>2020-09-05T08:57:26Z</time>
      </trkpt>
      <trkpt lat="45.0835" lon="6.06245">
        <ele>1535.2</ele>
        <time>2020-09-05T08:57:27Z</time>
      </trkpt>
      <trkpt lat="45.0835" lon="6.06234">
        <ele>1534.6</ele>
        <time>2020-09-05T08:57:28Z</time>
      </trkpt>
      <trkpt lat="45.0835" lon="6.06222">
        <ele>1534.2</ele>
        <time>2020-09-05T08:57:29Z</time>
      </trkpt>
      <trkpt lat="45.08349" lon="6.06209">
        <ele>1533.6</ele>
        <time>2020-09-05T08:57:30Z</time>
      </trkpt>
      <trkpt lat="45.08347" lon="6.06196">
        <ele>1533.2</ele>
        <time>2020-09-05T08:57:31Z</time>
      </trkpt>
      <trkpt lat="45.08345" lon="6.06183">
        <ele>1532.6</ele>
        <time>2020-09-05T08:57:32Z</time>
      </trkpt>
      <trkpt lat="45.08342" lon="6.06169">
        <ele>1532.2</ele>
        <time>2020-09-05T08:57:33Z</time>
      </trkpt>
      <trkpt lat="45.08339" lon="6.06155">
        <ele>1531.6</ele>
        <time>2020-09-05T08:57:34Z</time>
      </trkpt>
      <trkpt lat="45.08336" lon="6.0614">
        <ele>1531.4</ele>
        <time>2020-09-05T08:57:35Z</time>
      </trkpt>
      <trkpt lat="45.08332" lon="6.06125">
        <ele>1530.4</ele>
        <time>2020-09-05T08:57:36Z</time>
      </trkpt>
      <trkpt lat="45.08329" lon="6.06109">
        <ele>1529.6</ele>
        <time>2020-09-05T08:57:37Z</time>
      </trkpt>
      <trkpt lat="45.08326" lon="6.06093">
        <ele>1528.6</ele>
        <time>2020-09-05T08:57:38Z</time>
      </trkpt>
      <trkpt lat="45.08322" lon="6.06077">
        <ele>1528</ele>
        <time>2020-09-05T08:57:39Z</time>
      </trkpt>
      <trkpt lat="45.08319" lon="6.0606">
        <ele>1527.6</ele>
        <time>2020-09-05T08:57:40Z</time>
      </trkpt>
      <trkpt lat="45.08316" lon="6.06043">
        <ele>1526.6</ele>
        <time>2020-09-05T08:57:41Z</time>
      </trkpt>
      <trkpt lat="45.08312" lon="6.06025">
        <ele>1526.2</ele>
        <time>2020-09-05T08:57:42Z</time>
      </trkpt>
      <trkpt lat="45.08309" lon="6.06008">
        <ele>1525.2</ele>
        <time>2020-09-05T08:57:43Z</time>
      </trkpt>
      <trkpt lat="45.08306" lon="6.05989">
        <ele>1524</ele>
        <time>2020-09-05T08:57:44Z</time>
      </trkpt>
      <trkpt lat="45.08304" lon="6.0597">
        <ele>1522.4</ele>
        <time>2020-09-05T08:57:45Z</time>
      </trkpt>
      <trkpt lat="45.08302" lon="6.05951">
        <ele>1521.8</ele>
        <time>2020-09-05T08:57:46Z</time>
      </trkpt>
      <trkpt lat="45.08301" lon="6.05931">
        <ele>1520.6</ele>
        <time>2020-09-05T08:57:47Z</time>
      </trkpt>
      <trkpt lat="45.08301" lon="6.05912">
        <ele>1519.2</ele>
        <time>2020-09-05T08:57:48Z</time>
      </trkpt>
      <trkpt lat="45.08301" lon="6.05893">
        <ele>1517.6</ele>
        <time>2020-09-05T08:57:49Z</time>
      </trkpt>
      <trkpt lat="45.08302" lon="6.05875">
        <ele>1516</ele>
        <time>2020-09-05T08:57:50Z</time>
      </trkpt>
      <trkpt lat="45.08305" lon="6.05858">
        <ele>1514.2</ele>
        <time>2020-09-05T08:57:51Z</time>
      </trkpt>
      <trkpt lat="45.0831" lon="6.05841">
        <ele>1512.8</ele>
        <time>2020-09-05T08:57:52Z</time>
      </trkpt>
      <trkpt lat="45.08316" lon="6.05825">
        <ele>1511</ele>
        <time>2020-09-05T08:57:53Z</time>
      </trkpt>
      <trkpt lat="45.08323" lon="6.05811">
        <ele>1509.2</ele>
        <time>2020-09-05T08:57:54Z</time>
      </trkpt>
      <trkpt lat="45.08332" lon="6.05799">
        <ele>1508</ele>
        <time>2020-09-05T08:57:55Z</time>
      </trkpt>
      <trkpt lat="45.08342" lon="6.05788">
        <ele>1506.6</ele>
        <time>2020-09-05T08:57:56Z</time>
      </trkpt>
      <trkpt lat="45.08352" lon="6.05781">
        <ele>1504.8</ele>
        <time>2020-09-05T08:57:57Z</time>
      </trkpt>
      <trkpt lat="45.0836" lon="6.05774">
        <ele>1502.8</ele>
        <time>2020-09-05T08:57:58Z</time>
      </trkpt>
      <trkpt lat="45.08366" lon="6.05767">
        <ele>1501.4</ele>
        <time>2020-09-05T08:57:59Z</time>
      </trkpt>
      <trkpt lat="45.08368" lon="6.05758">
        <ele>1500.2</ele>
        <time>2020-09-05T08:58:00Z</time>
      </trkpt>
      <trkpt lat="45.08363" lon="6.05751">
        <ele>1499.4</ele>
        <time>2020-09-05T08:58:01Z</time>
      </trkpt>
      <trkpt lat="45.08357" lon="6.05747">
        <ele>1498.6</ele>
        <time>2020-09-05T08:58:02Z</time>
      </trkpt>
      <trkpt lat="45.08349" lon="6.05747">
        <ele>1498.4</ele>
        <time>2020-09-05T08:58:03Z</time>
      </trkpt>
      <trkpt lat="45.08342" lon="6.05748">
        <ele>1497.8</ele>
        <time>2020-09-05T08:58:04Z</time>
      </trkpt>
      <trkpt lat="45.08333" lon="6.0575">
        <ele>1497.4</ele>
        <time>2020-09-05T08:58:05Z</time>
      </trkpt>
      <trkpt lat="45.08324" lon="6.05752">
        <ele>1497</ele>
        <time>2020-09-05T08:58:06Z</time>
      </trkpt>
      <trkpt lat="45.08315" lon="6.05754">
        <ele>1496.6</ele>
        <time>2020-09-05T08:58:07Z</time>
      </trkpt>
      <trkpt lat="45.08305" lon="6.05756">
        <ele>1496.2</ele>
        <time>2020-09-05T08:58:08Z</time>
      </trkpt>
      <trkpt lat="45.08294" lon="6.05757">
        <ele>1495.4</ele>
        <time>2020-09-05T08:58:09Z</time>
      </trkpt>
      <trkpt lat="45.08284" lon="6.05757">
        <ele>1494.8</ele>
        <time>2020-09-05T08:58:10Z</time>
      </trkpt>
      <trkpt lat="45.08273" lon="6.05757">
        <ele>1494.4</ele>
        <time>2020-09-05T08:58:11Z</time>
      </trkpt>
      <trkpt lat="45.08262" lon="6.05759">
        <ele>1493.6</ele>
        <time>2020-09-05T08:58:12Z</time>
      </trkpt>
      <trkpt lat="45.0825" lon="6.05762">
        <ele>1492.8</ele>
        <time>2020-09-05T08:58:13Z</time>
      </trkpt>
      <trkpt lat="45.0824" lon="6.05769">
        <ele>1491.6</ele>
        <time>2020-09-05T08:58:14Z</time>
      </trkpt>
      <trkpt lat="45.08233" lon="6.0578">
        <ele>1490.4</ele>
        <time>2020-09-05T08:58:15Z</time>
      </trkpt>
      <trkpt lat="45.08227" lon="6.05792">
        <ele>1489.4</ele>
        <time>2020-09-05T08:58:16Z</time>
      </trkpt>
      <trkpt lat="45.08224" lon="6.05805">
        <ele>1488.4</ele>
        <time>2020-09-05T08:58:17Z</time>
      </trkpt>
      <trkpt lat="45.08223" lon="6.05819">
        <ele>1487.6</ele>
        <time>2020-09-05T08:58:18Z</time>
      </trkpt>
      <trkpt lat="45.08222" lon="6.05833">
        <ele>1487</ele>
        <time>2020-09-05T08:58:19Z</time>
      </trkpt>
      <trkpt lat="45.08221" lon="6.05847">
        <ele>1486.6</ele>
        <time>2020-09-05T08:58:20Z</time>
      </trkpt>
      <trkpt lat="45.08221" lon="6.0586">
        <ele>1485.8</ele>
        <time>2020-09-05T08:58:21Z</time>
      </trkpt>
      <trkpt lat="45.08221" lon="6.05874">
        <ele>1485.2</ele>
        <time>2020-09-05T08:58:22Z</time>
      </trkpt>
      <trkpt lat="45.0822" lon="6.05888">
        <ele>1484.8</ele>
        <time>2020-09-05T08:58:23Z</time>
      </trkpt>
      <trkpt lat="45.08219" lon="6.05902">
        <ele>1484.4</ele>
        <time>2020-09-05T08:58:24Z</time>
      </trkpt>
      <trkpt lat="45.08218" lon="6.05916">
        <ele>1483.6</ele>
        <time>2020-09-05T08:58:25Z</time>
      </trkpt>
      <trkpt lat="45.08218" lon="6.0593">
        <ele>1482.8</ele>
        <time>2020-09-05T08:58:26Z</time>
      </trkpt>
      <trkpt lat="45.08217" lon="6.05944">
        <ele>1482</ele>
        <time>2020-09-05T08:58:27Z</time>
      </trkpt>
      <trkpt lat="45.08217" lon="6.05958">
        <ele>1481.6</ele>
        <time>2020-09-05T08:58:28Z</time>
      </trkpt>
      <trkpt lat="45.08216" lon="6.05972">
        <ele>1481</ele>
        <time>2020-09-05T08:58:29Z</time>
      </trkpt>
      <trkpt lat="45.08216" lon="6.05987">
        <ele>1480.4</ele>
        <time>2020-09-05T08:58:30Z</time>
      </trkpt>
      <trkpt lat="45.08215" lon="6.06002">
        <ele>1480</ele>
        <time>2020-09-05T08:58:31Z</time>
      </trkpt>
      <trkpt lat="45.08214" lon="6.06017">
        <ele>1478.8</ele>
        <time>2020-09-05T08:58:32Z</time>
      </trkpt>
      <trkpt lat="45.08214" lon="6.06032">
        <ele>1477.8</ele>
        <time>2020-09-05T08:58:33Z</time>
      </trkpt>
      <trkpt lat="45.08213" lon="6.06048">
        <ele>1477.4</ele>
        <time>2020-09-05T08:58:34Z</time>
      </trkpt>
      <trkpt lat="45.08212" lon="6.06064">
        <ele>1476.8</ele>
        <time>2020-09-05T08:58:35Z</time>
      </trkpt>
      <trkpt lat="45.0821" lon="6.0608">
        <ele>1476.4</ele>
        <time>2020-09-05T08:58:36Z</time>
      </trkpt>
      <trkpt lat="45.08209" lon="6.06097">
        <ele>1475.4</ele>
        <time>2020-09-05T08:58:37Z</time>
      </trkpt>
      <trkpt lat="45.08207" lon="6.06114">
        <ele>1475</ele>
        <time>2020-09-05T08:58:38Z</time>
      </trkpt>
      <trkpt lat="45.08206" lon="6.06132">
        <ele>1474.4</ele>
        <time>2020-09-05T08:58:39Z</time>
      </trkpt>
      <trkpt lat="45.08206" lon="6.06149">
        <ele>1473.6</ele>
        <time>2020-09-05T08:58:40Z</time>
      </trkpt>
      <trkpt lat="45.08208" lon="6.06166">
        <ele>1472.4</ele>
        <time>2020-09-05T08:58:41Z</time>
      </trkpt>
      <trkpt lat="45.08213" lon="6.06181">
        <ele>1470.8</ele>
        <time>2020-09-05T08:58:42Z</time>
      </trkpt>
      <trkpt lat="45.08219" lon="6.06193">
        <ele>1469.8</ele>
        <time>2020-09-05T08:58:43Z</time>
      </trkpt>
      <trkpt lat="45.08225" lon="6.06204">
        <ele>1468.4</ele>
        <time>2020-09-05T08:58:44Z</time>
      </trkpt>
      <trkpt lat="45.0823" lon="6.06213">
        <ele>1467</ele>
        <time>2020-09-05T08:58:45Z</time>
      </trkpt>
      <trkpt lat="45.08232" lon="6.06222">
        <ele>1465.8</ele>
        <time>2020-09-05T08:58:46Z</time>
      </trkpt>
      <trkpt lat="45.08229" lon="6.06228">
        <ele>1465</ele>
        <time>2020-09-05T08:58:47Z</time>
      </trkpt>
      <trkpt lat="45.08223" lon="6.06228">
        <ele>1464.2</ele>
        <time>2020-09-05T08:58:48Z</time>
      </trkpt>
      <trkpt lat="45.08218" lon="6.06222">
        <ele>1463.6</ele>
        <time>2020-09-05T08:58:49Z</time>
      </trkpt>
      <trkpt lat="45.08214" lon="6.06214">
        <ele>1463.2</ele>
        <time>2020-09-05T08:58:50Z</time>
      </trkpt>
      <trkpt lat="45.0821" lon="6.06204">
        <ele>1463</ele>
        <time>2020-09-05T08:58:51Z</time>
      </trkpt>
      <trkpt lat="45.08207" lon="6.06194">
        <ele>1463</ele>
        <time>2020-09-05T08:58:52Z</time>
      </trkpt>
      <trkpt lat="45.08203" lon="6.06183">
        <ele>1462.8</ele>
        <time>2020-09-05T08:58:53Z</time>
      </trkpt>
      <trkpt lat="45.08199" lon="6.06171">
        <ele>1462.6</ele>
        <time>2020-09-05T08:58:54Z</time>
      </trkpt>
      <trkpt lat="45.08195" lon="6.06159">
        <ele>1462.2</ele>
        <time>2020-09-05T08:58:55Z</time>
      </trkpt>
      <trkpt lat="45.08191" lon="6.06147">
        <ele>1461.8</ele>
        <time>2020-09-05T08:58:56Z</time>
      </trkpt>
      <trkpt lat="45.08188" lon="6.06134">
        <ele>1461</ele>
        <time>2020-09-05T08:58:57Z</time>
      </trkpt>
      <trkpt lat="45.08184" lon="6.0612">
        <ele>1460.8</ele>
        <time>2020-09-05T08:58:58Z</time>
      </trkpt>
      <trkpt lat="45.0818" lon="6.06106">
        <ele>1460.4</ele>
        <time>2020-09-05T08:58:59Z</time>
      </trkpt>
      <trkpt lat="45.08175" lon="6.06091">
        <ele>1460.2</ele>
        <time>2020-09-05T08:59:00Z</time>
      </trkpt>
      <trkpt lat="45.08171" lon="6.06075">
        <ele>1459.4</ele>
        <time>2020-09-05T08:59:01Z</time>
      </trkpt>
      <trkpt lat="45.08166" lon="6.0606">
        <ele>1458.2</ele>
        <time>2020-09-05T08:59:02Z</time>
      </trkpt>
      <trkpt lat="45.08161" lon="6.06043">
        <ele>1457</ele>
        <time>2020-09-05T08:59:03Z</time>
      </trkpt>
      <trkpt lat="45.08156" lon="6.06027">
        <ele>1456</ele>
        <time>2020-09-05T08:59:04Z</time>
      </trkpt>
      <trkpt lat="45.08151" lon="6.06011">
        <ele>1454.6</ele>
        <time>2020-09-05T08:59:05Z</time>
      </trkpt>
      <trkpt lat="45.08146" lon="6.05996">
        <ele>1453</ele>
        <time>2020-09-05T08:59:06Z</time>
      </trkpt>
      <trkpt lat="45.0814" lon="6.05983">
        <ele>1451.6</ele>
        <time>2020-09-05T08:59:07Z</time>
      </trkpt>
      <trkpt lat="45.08133" lon="6.0597">
        <ele>1450.8</ele>
        <time>2020-09-05T08:59:08Z</time>
      </trkpt>
      <trkpt lat="45.08126" lon="6.05957">
        <ele>1449.6</ele>
        <time>2020-09-05T08:59:09Z</time>
      </trkpt>
      <trkpt lat="45.0812" lon="6.05942">
        <ele>1449.4</ele>
        <time>2020-09-05T08:59:10Z</time>
      </trkpt>
      <trkpt lat="45.08115" lon="6.05927">
        <ele>1448.6</ele>
        <time>2020-09-05T08:59:11Z</time>
      </trkpt>
      <trkpt lat="45.08109" lon="6.05911">
        <ele>1447.6</ele>
        <time>2020-09-05T08:59:12Z</time>
      </trkpt>
      <trkpt lat="45.08102" lon="6.05897">
        <ele>1446.4</ele>
        <time>2020-09-05T08:59:13Z</time>
      </trkpt>
      <trkpt lat="45.08094" lon="6.05883">
        <ele>1445</ele>
        <time>2020-09-05T08:59:14Z</time>
      </trkpt>
      <trkpt lat="45.08086" lon="6.0587">
        <ele>1443.8</ele>
        <time>2020-09-05T08:59:15Z</time>
      </trkpt>
      <trkpt lat="45.08077" lon="6.05856">
        <ele>1442.4</ele>
        <time>2020-09-05T08:59:16Z</time>
      </trkpt>
      <trkpt lat="45.08069" lon="6.05841">
        <ele>1441</ele>
        <time>2020-09-05T08:59:17Z</time>
      </trkpt>
      <trkpt lat="45.08062" lon="6.05826">
        <ele>1439.8</ele>
        <time>2020-09-05T08:59:18Z</time>
      </trkpt>
      <trkpt lat="45.08055" lon="6.05809">
        <ele>1438.6</ele>
        <time>2020-09-05T08:59:19Z</time>
      </trkpt>
      <trkpt lat="45.08049" lon="6.05792">
        <ele>1437.2</ele>
        <time>2020-09-05T08:59:20Z</time>
      </trkpt>
      <trkpt lat="45.08042" lon="6.05775">
        <ele>1436.2</ele>
        <time>2020-09-05T08:59:21Z</time>
      </trkpt>
      <trkpt lat="45.08036" lon="6.05758">
        <ele>1435.2</ele>
        <time>2020-09-05T08:59:22Z</time>
      </trkpt>
      <trkpt lat="45.08029" lon="6.05741">
        <ele>1434.4</ele>
        <time>2020-09-05T08:59:23Z</time>
      </trkpt>
      <trkpt lat="45.08022" lon="6.05725">
        <ele>1433.2</ele>
        <time>2020-09-05T08:59:24Z</time>
      </trkpt>
      <trkpt lat="45.08015" lon="6.0571">
        <ele>1432</ele>
        <time>2020-09-05T08:59:25Z</time>
      </trkpt>
      <trkpt lat="45.08009" lon="6.05694">
        <ele>1431.2</ele>
        <time>2020-09-05T08:59:26Z</time>
      </trkpt>
      <trkpt lat="45.08005" lon="6.05679">
        <ele>1430.2</ele>
        <time>2020-09-05T08:59:27Z</time>
      </trkpt>
      <trkpt lat="45.08003" lon="6.05662">
        <ele>1429.4</ele>
        <time>2020-09-05T08:59:28Z</time>
      </trkpt>
      <trkpt lat="45.08004" lon="6.05646">
        <ele>1428.2</ele>
        <time>2020-09-05T08:59:29Z</time>
      </trkpt>
      <trkpt lat="45.08006" lon="6.05629">
        <ele>1427.6</ele>
        <time>2020-09-05T08:59:30Z</time>
      </trkpt>
      <trkpt lat="45.08009" lon="6.05614">
        <ele>1426.8</ele>
        <time>2020-09-05T08:59:31Z</time>
      </trkpt>
      <trkpt lat="45.08012" lon="6.05598">
        <ele>1425.4</ele>
        <time>2020-09-05T08:59:32Z</time>
      </trkpt>
      <trkpt lat="45.08017" lon="6.05584">
        <ele>1424</ele>
        <time>2020-09-05T08:59:33Z</time>
      </trkpt>
      <trkpt lat="45.08025" lon="6.05573">
        <ele>1422.8</ele>
        <time>2020-09-05T08:59:34Z</time>
      </trkpt>
      <trkpt lat="45.08035" lon="6.05566">
        <ele>1421.6</ele>
        <time>2020-09-05T08:59:35Z</time>
      </trkpt>
      <trkpt lat="45.08046" lon="6.05561">
        <ele>1421</ele>
        <time>2020-09-05T08:59:36Z</time>
      </trkpt>
      <trkpt lat="45.08057" lon="6.05557">
        <ele>1419.6</ele>
        <time>2020-09-05T08:59:37Z</time>
      </trkpt>
      <trkpt lat="45.08068" lon="6.05552">
        <ele>1418</ele>
        <time>2020-09-05T08:59:38Z</time>
      </trkpt>
      <trkpt lat="45.08076" lon="6.05544">
        <ele>1416.4</ele>
        <time>2020-09-05T08:59:39Z</time>
      </trkpt>
      <trkpt lat="45.0808" lon="6.05533">
        <ele>1415.2</ele>
        <time>2020-09-05T08:59:40Z</time>
      </trkpt>
      <trkpt lat="45.08082" lon="6.0552">
        <ele>1414.6</ele>
        <time>2020-09-05T08:59:41Z</time>
      </trkpt>
      <trkpt lat="45.08079" lon="6.05507">
        <ele>1414</ele>
        <time>2020-09-05T08:59:42Z</time>
      </trkpt>
      <trkpt lat="45.08073" lon="6.05494">
        <ele>1413.2</ele>
        <time>2020-09-05T08:59:43Z</time>
      </trkpt>
      <trkpt lat="45.08064" lon="6.05485">
        <ele>1412.8</ele>
        <time>2020-09-05T08:59:44Z</time>
      </trkpt>
      <trkpt lat="45.08054" lon="6.05479">
        <ele>1412.2</ele>
        <time>2020-09-05T08:59:45Z</time>
      </trkpt>
      <trkpt lat="45.08043" lon="6.05474">
        <ele>1411.6</ele>
        <time>2020-09-05T08:59:46Z</time>
      </trkpt>
      <trkpt lat="45.08032" lon="6.0547">
        <ele>1411</ele>
        <time>2020-09-05T08:59:47Z</time>
      </trkpt>
      <trkpt lat="45.0802" lon="6.05467">
        <ele>1410.2</ele>
        <time>2020-09-05T08:59:48Z</time>
      </trkpt>
      <trkpt lat="45.08008" lon="6.05464">
        <ele>1409.6</ele>
        <time>2020-09-05T08:59:49Z</time>
      </trkpt>
      <trkpt lat="45.07995" lon="6.05461">
        <ele>1408.4</ele>
        <time>2020-09-05T08:59:50Z</time>
      </trkpt>
      <trkpt lat="45.07983" lon="6.05458">
        <ele>1407.8</ele>
        <time>2020-09-05T08:59:51Z</time>
      </trkpt>
      <trkpt lat="45.07971" lon="6.05456">
        <ele>1406.6</ele>
        <time>2020-09-05T08:59:52Z</time>
      </trkpt>
      <trkpt lat="45.07958" lon="6.05456">
        <ele>1405.8</ele>
        <time>2020-09-05T08:59:53Z</time>
      </trkpt>
      <trkpt lat="45.07946" lon="6.05459">
        <ele>1405</ele>
        <time>2020-09-05T08:59:54Z</time>
      </trkpt>
      <trkpt lat="45.07933" lon="6.0546">
        <ele>1404</ele>
        <time>2020-09-05T08:59:55Z</time>
      </trkpt>
      <trkpt lat="45.0792" lon="6.05459">
        <ele>1403.4</ele>
        <time>2020-09-05T08:59:56Z</time>
      </trkpt>
      <trkpt lat="45.07908" lon="6.05456">
        <ele>1402.8</ele>
        <time>2020-09-05T08:59:57Z</time>
      </trkpt>
      <trkpt lat="45.07896" lon="6.0545">
        <ele>1402</ele>
        <time>2020-09-05T08:59:58Z</time>
      </trkpt>
      <trkpt lat="45.07884" lon="6.05444">
        <ele>1400.6</ele>
        <time>2020-09-05T08:59:59Z</time>
      </trkpt>
      <trkpt lat="45.07871" lon="6.05438">
        <ele>1399</ele>
        <time>2020-09-05T09:00:00Z</time>
      </trkpt>
      <trkpt lat="45.07858" lon="6.05431">
        <ele>1398</ele>
        <time>2020-09-05T09:00:01Z</time>
      </trkpt>
      <trkpt lat="45.07846" lon="6.05423">
        <ele>1397</ele>
        <time>2020-09-05T09:00:02Z</time>
      </trkpt>
      <trkpt lat="45.07833" lon="6.05416">
        <ele>1395.6</ele>
        <time>2020-09-05T09:00:03Z</time>
      </trkpt>
      <trkpt lat="45.0782" lon="6.05408">
        <ele>1394.4</ele>
        <time>2020-09-05T09:00:04Z</time>
      </trkpt>
      <trkpt lat="45.07807" lon="6.05399">
        <ele>1393.6</ele>
        <time>2020-09-05T09:00:05Z</time>
      </trkpt>
      <trkpt lat="45.07795" lon="6.05389">
        <ele>1391.6</ele>
        <time>2020-09-05T09:00:06Z</time>
      </trkpt>
      <trkpt lat="45.07783" lon="6.0538">
        <ele>1390.6</ele>
        <time>2020-09-05T09:00:07Z</time>
      </trkpt>
      <trkpt lat="45.07771" lon="6.0537">
        <ele>1389.2</ele>
        <time>2020-09-05T09:00:08Z</time>
      </trkpt>
      <trkpt lat="45.07759" lon="6.05362">
        <ele>1387.4</ele>
        <time>2020-09-05T09:00:09Z</time>
      </trkpt>
      <trkpt lat="45.07746" lon="6.05357">
        <ele>1386</ele>
        <time>2020-09-05T09:00:10Z</time>
      </trkpt>
      <trkpt lat="45.07734" lon="6.05354">
        <ele>1383.6</ele>
        <time>2020-09-05T09:00:11Z</time>
      </trkpt>
      <trkpt lat="45.07723" lon="6.05352">
        <ele>1381.2</ele>
        <time>2020-09-05T09:00:12Z</time>
      </trkpt>
      <trkpt lat="45.07715" lon="6.05348">
        <ele>1379.6</ele>
        <time>2020-09-05T09:00:13Z</time>
      </trkpt>
      <trkpt lat="45.07709" lon="6.05339">
        <ele>1378.2</ele>
        <time>2020-09-05T09:00:14Z</time>
      </trkpt>
      <trkpt lat="45.07709" lon="6.05326">
        <ele>1377.2</ele>
        <time>2020-09-05T09:00:15Z</time>
      </trkpt>
      <trkpt lat="45.07712" lon="6.05315">
        <ele>1376</ele>
        <time>2020-09-05T09:00:16Z</time>
      </trkpt>
      <trkpt lat="45.07719" lon="6.05306">
        <ele>1375</ele>
        <time>2020-09-05T09:00:17Z</time>
      </trkpt>
      <trkpt lat="45.07727" lon="6.05299">
        <ele>1374.4</ele>
        <time>2020-09-05T09:00:18Z</time>
      </trkpt>
      <trkpt lat="45.07735" lon="6.05291">
        <ele>1373.6</ele>
        <time>2020-09-05T09:00:19Z</time>
      </trkpt>
      <trkpt lat="45.07742" lon="6.05282">
        <ele>1372.8</ele>
        <time>2020-09-05T09:00:20Z</time>
      </trkpt>
      <trkpt lat="45.07749" lon="6.05272">
        <ele>1371.8</ele>
        <time>2020-09-05T09:00:21Z</time>
      </trkpt>
      <trkpt lat="45.07755" lon="6.05261">
        <ele>1371.6</ele>
        <time>2020-09-05T09:00:22Z</time>
      </trkpt>
      <trkpt lat="45.07761" lon="6.05249">
        <ele>1371.6</ele>
        <time>2020-09-05T09:00:23Z</time>
      </trkpt>
      <trkpt lat="45.07767" lon="6.05237">
        <ele>1371.2</ele>
        <time>2020-09-05T09:00:24Z</time>
      </trkpt>
      <trkpt lat="45.07772" lon="6.05223">
        <ele>1370.2</ele>
        <time>2020-09-05T09:00:25Z</time>
      </trkpt>
      <trkpt lat="45.07777" lon="6.05209">
        <ele>1369.6</ele>
        <time>2020-09-05T09:00:26Z</time>
      </trkpt>
      <trkpt lat="45.0778" lon="6.05193">
        <ele>1368.8</ele>
        <time>2020-09-05T09:00:27Z</time>
      </trkpt>
      <trkpt lat="45.07784" lon="6.05177">
        <ele>1368.4</ele>
        <time>2020-09-05T09:00:28Z</time>
      </trkpt>
      <trkpt lat="45.07788" lon="6.05161">
        <ele>1368.2</ele>
        <time>2020-09-05T09:00:29Z</time>
      </trkpt>
      <trkpt lat="45.07793" lon="6.05144">
        <ele>1367.2</ele>
        <time>2020-09-05T09:00:30Z</time>
      </trkpt>
      <trkpt lat="45.07798" lon="6.05127">
        <ele>1366.6</ele>
        <time>2020-09-05T09:00:31Z</time>
      </trkpt>
      <trkpt lat="45.07804" lon="6.0511">
        <ele>1365.8</ele>
        <time>2020-09-05T09:00:32Z</time>
      </trkpt>
      <trkpt lat="45.0781" lon="6.05093">
        <ele>1364.8</ele>
        <time>2020-09-05T09:00:33Z</time>
      </trkpt>
      <trkpt lat="45.07815" lon="6.05076">
        <ele>1363.2</ele>
        <time>2020-09-05T09:00:34Z</time>
      </trkpt>
      <trkpt lat="45.07821" lon="6.05058">
        <ele>1362</ele>
        <time>2020-09-05T09:00:35Z</time>
      </trkpt>
      <trkpt lat="45.07828" lon="6.0504">
        <ele>1361.2</ele>
        <time>2020-09-05T09:00:36Z</time>
      </trkpt>
      <trkpt lat="45.07834" lon="6.05023">
        <ele>1360</ele>
        <time>2020-09-05T09:00:37Z</time>
      </trkpt>
      <trkpt lat="45.07838" lon="6.05004">
        <ele>1358.6</ele>
        <time>2020-09-05T09:00:38Z</time>
      </trkpt>
      <trkpt lat="45.07841" lon="6.04984">
        <ele>1357.2</ele>
        <time>2020-09-05T09:00:39Z</time>
      </trkpt>
      <trkpt lat="45.07842" lon="6.04965">
        <ele>1355.4</ele>
        <time>2020-09-05T09:00:40Z</time>
      </trkpt>
      <trkpt lat="45.07842" lon="6.04947">
        <ele>1353.4</ele>
        <time>2020-09-05T09:00:41Z</time>
      </trkpt>
      <trkpt lat="45.07842" lon="6.0493">
        <ele>1351.8</ele>
        <time>2020-09-05T09:00:42Z</time>
      </trkpt>
      <trkpt lat="45.07839" lon="6.04913">
        <ele>1350.4</ele>
        <time>2020-09-05T09:00:43Z</time>
      </trkpt>
      <trkpt lat="45.07834" lon="6.04897">
        <ele>1349.2</ele>
        <time>2020-09-05T09:00:44Z</time>
      </trkpt>
      <trkpt lat="45.07827" lon="6.04882">
        <ele>1348.2</ele>
        <time>2020-09-05T09:00:45Z</time>
      </trkpt>
      <trkpt lat="45.0782" lon="6.04866">
        <ele>1346.8</ele>
        <time>2020-09-05T09:00:46Z</time>
      </trkpt>
      <trkpt lat="45.07813" lon="6.0485">
        <ele>1345.2</ele>
        <time>2020-09-05T09:00:47Z</time>
      </trkpt>
      <trkpt lat="45.07806" lon="6.04832">
        <ele>1344.4</ele>
        <time>2020-09-05T09:00:48Z</time>
      </trkpt>
      <trkpt lat="45.07802" lon="6.04815">
        <ele>1342.4</ele>
        <time>2020-09-05T09:00:49Z</time>
      </trkpt>
      <trkpt lat="45.07799" lon="6.04798">
        <ele>1340.4</ele>
        <time>2020-09-05T09:00:50Z</time>
      </trkpt>
      <trkpt lat="45.07796" lon="6.04786">
        <ele>1338.6</ele>
        <time>2020-09-05T09:00:51Z</time>
      </trkpt>
      <trkpt lat="45.07792" lon="6.04777">
        <ele>1336.8</ele>
        <time>2020-09-05T09:00:52Z</time>
      </trkpt>
      <trkpt lat="45.07786" lon="6.04776">
        <ele>1335.4</ele>
        <time>2020-09-05T09:00:53Z</time>
      </trkpt>
      <trkpt lat="45.07781" lon="6.04782">
        <ele>1334.4</ele>
        <time>2020-09-05T09:00:54Z</time>
      </trkpt>
      <trkpt lat="45.07778" lon="6.04791">
        <ele>1333.8</ele>
        <time>2020-09-05T09:00:55Z</time>
      </trkpt>
      <trkpt lat="45.0778" lon="6.04801">
        <ele>1333.4</ele>
        <time>2020-09-05T09:00:56Z</time>
      </trkpt>
      <trkpt lat="45.07784" lon="6.04812">
        <ele>1333</ele>
        <time>2020-09-05T09:00:57Z</time>
      </trkpt>
      <trkpt lat="45.07788" lon="6.04825">
        <ele>1332.4</ele>
        <time>2020-09-05T09:00:58Z</time>
      </trkpt>
      <trkpt lat="45.0779" lon="6.04838">
        <ele>1332</ele>
        <time>2020-09-05T09:00:59Z</time>
      </trkpt>
      <trkpt lat="45.07792" lon="6.04852">
        <ele>1332</ele>
        <time>2020-09-05T09:01:00Z</time>
      </trkpt>
      <trkpt lat="45.07792" lon="6.04866">
        <ele>1331.4</ele>
        <time>2020-09-05T09:01:01Z</time>
      </trkpt>
      <trkpt lat="45.07792" lon="6.04881">
        <ele>1330.8</ele>
        <time>2020-09-05T09:01:02Z</time>
      </trkpt>
      <trkpt lat="45.07794" lon="6.04896">
        <ele>1330</ele>
        <time>2020-09-05T09:01:03Z</time>
      </trkpt>
      <trkpt lat="45.07797" lon="6.0491">
        <ele>1328.8</ele>
        <time>2020-09-05T09:01:04Z</time>
      </trkpt>
      <trkpt lat="45.078" lon="6.04924">
        <ele>1327.4</ele>
        <time>2020-09-05T09:01:05Z</time>
      </trkpt>
      <trkpt lat="45.07802" lon="6.04937">
        <ele>1325.6</ele>
        <time>2020-09-05T09:01:06Z</time>
      </trkpt>
      <trkpt lat="45.07801" lon="6.0495">
        <ele>1324.6</ele>
        <time>2020-09-05T09:01:07Z</time>
      </trkpt>
      <trkpt lat="45.07797" lon="6.04963">
        <ele>1323.6</ele>
        <time>2020-09-05T09:01:08Z</time>
      </trkpt>
      <trkpt lat="45.07791" lon="6.04976">
        <ele>1323</ele>
        <time>2020-09-05T09:01:09Z</time>
      </trkpt>
      <trkpt lat="45.07784" lon="6.0499">
        <ele>1323</ele>
        <time>2020-09-05T09:01:10Z</time>
      </trkpt>
      <trkpt lat="45.07776" lon="6.05004">
        <ele>1322.6</ele>
        <time>2020-09-05T09:01:11Z</time>
      </trkpt>
      <trkpt lat="45.07768" lon="6.05018">
        <ele>1321.8</ele>
        <time>2020-09-05T09:01:12Z</time>
      </trkpt>
      <trkpt lat="45.07759" lon="6.05032">
        <ele>1320.8</ele>
        <time>2020-09-05T09:01:13Z</time>
      </trkpt>
      <trkpt lat="45.07751" lon="6.05045">
        <ele>1319.6</ele>
        <time>2020-09-05T09:01:14Z</time>
      </trkpt>
      <trkpt lat="45.07742" lon="6.05059">
        <ele>1318.6</ele>
        <time>2020-09-05T09:01:15Z</time>
      </trkpt>
      <trkpt lat="45.07732" lon="6.05073">
        <ele>1317.4</ele>
        <time>2020-09-05T09:01:16Z</time>
      </trkpt>
      <trkpt lat="45.07723" lon="6.05087">
        <ele>1316.2</ele>
        <time>2020-09-05T09:01:17Z</time>
      </trkpt>
      <trkpt lat="45.07715" lon="6.05103">
        <ele>1315.4</ele>
        <time>2020-09-05T09:01:18Z</time>
      </trkpt>
      <trkpt lat="45.07707" lon="6.05119">
        <ele>1313.6</ele>
        <time>2020-09-05T09:01:19Z</time>
      </trkpt>
      <trkpt lat="45.07699" lon="6.05134">
        <ele>1312.6</ele>
        <time>2020-09-05T09:01:20Z</time>
      </trkpt>
      <trkpt lat="45.07689" lon="6.05149">
        <ele>1311</ele>
        <time>2020-09-05T09:01:21Z</time>
      </trkpt>
      <trkpt lat="45.07679" lon="6.05162">
        <ele>1309.6</ele>
        <time>2020-09-05T09:01:22Z</time>
      </trkpt>
      <trkpt lat="45.07667" lon="6.05172">
        <ele>1308.6</ele>
        <time>2020-09-05T09:01:23Z</time>
      </trkpt>
      <trkpt lat="45.07654" lon="6.05178">
        <ele>1307.8</ele>
        <time>2020-09-05T09:01:24Z</time>
      </trkpt>
      <trkpt lat="45.0764" lon="6.05183">
        <ele>1306.6</ele>
        <time>2020-09-05T09:01:25Z</time>
      </trkpt>
      <trkpt lat="45.07625" lon="6.05187">
        <ele>1304.6</ele>
        <time>2020-09-05T09:01:26Z</time>
      </trkpt>
      <trkpt lat="45.07611" lon="6.0519">
        <ele>1302.8</ele>
        <time>2020-09-05T09:01:27Z</time>
      </trkpt>
      <trkpt lat="45.07597" lon="6.05193">
        <ele>1301.6</ele>
        <time>2020-09-05T09:01:28Z</time>
      </trkpt>
      <trkpt lat="45.07582" lon="6.05197">
        <ele>1300.2</ele>
        <time>2020-09-05T09:01:29Z</time>
      </trkpt>
      <trkpt lat="45.07568" lon="6.05201">
        <ele>1298.8</ele>
        <time>2020-09-05T09:01:30Z</time>
      </trkpt>
      <trkpt lat="45.07554" lon="6.05207">
        <ele>1296.8</ele>
        <time>2020-09-05T09:01:31Z</time>
      </trkpt>
      <trkpt lat="45.07539" lon="6.05213">
        <ele>1295.2</ele>
        <time>2020-09-05T09:01:32Z</time>
      </trkpt>
      <trkpt lat="45.07526" lon="6.05219">
        <ele>1293</ele>
        <time>2020-09-05T09:01:33Z</time>
      </trkpt>
      <trkpt lat="45.07513" lon="6.05224">
        <ele>1290.8</ele>
        <time>2020-09-05T09:01:34Z</time>
      </trkpt>
      <trkpt lat="45.07502" lon="6.05231">
        <ele>1288.2</ele>
        <time>2020-09-05T09:01:35Z</time>
      </trkpt>
      <trkpt lat="45.07493" lon="6.05239">
        <ele>1285.8</ele>
        <time>2020-09-05T09:01:36Z</time>
      </trkpt>
      <trkpt lat="45.07486" lon="6.05245">
        <ele>1283.8</ele>
        <time>2020-09-05T09:01:37Z</time>
      </trkpt>
      <trkpt lat="45.07479" lon="6.05248">
        <ele>1282.2</ele>
        <time>2020-09-05T09:01:38Z</time>
      </trkpt>
      <trkpt lat="45.07475" lon="6.05244">
        <ele>1280.8</ele>
        <time>2020-09-05T09:01:39Z</time>
      </trkpt>
      <trkpt lat="45.07474" lon="6.05236">
        <ele>1279.8</ele>
        <time>2020-09-05T09:01:40Z</time>
      </trkpt>
      <trkpt lat="45.07478" lon="6.05229">
        <ele>1278.8</ele>
        <time>2020-09-05T09:01:41Z</time>
      </trkpt>
      <trkpt lat="45.07484" lon="6.05224">
        <ele>1278.6</ele>
        <time>2020-09-05T09:01:42Z</time>
      </trkpt>
      <trkpt lat="45.07492" lon="6.05222">
        <ele>1277.6</ele>
        <time>2020-09-05T09:01:43Z</time>
      </trkpt>
      <trkpt lat="45.075" lon="6.0522">
        <ele>1277.4</ele>
        <time>2020-09-05T09:01:44Z</time>
      </trkpt>
      <trkpt lat="45.07509" lon="6.05217">
        <ele>1276.8</ele>
        <time>2020-09-05T09:01:45Z</time>
      </trkpt>
      <trkpt lat="45.07517" lon="6.05212">
        <ele>1276.2</ele>
        <time>2020-09-05T09:01:46Z</time>
      </trkpt>
      <trkpt lat="45.07526" lon="6.05206">
        <ele>1275.8</ele>
        <time>2020-09-05T09:01:47Z</time>
      </trkpt>
      <trkpt lat="45.07536" lon="6.052">
        <ele>1275.4</ele>
        <time>2020-09-05T09:01:48Z</time>
      </trkpt>
      <trkpt lat="45.07546" lon="6.05193">
        <ele>1274.8</ele>
        <time>2020-09-05T09:01:49Z</time>
      </trkpt>
      <trkpt lat="45.07556" lon="6.05186">
        <ele>1274</ele>
        <time>2020-09-05T09:01:50Z</time>
      </trkpt>
      <trkpt lat="45.07566" lon="6.05178">
        <ele>1273</ele>
        <time>2020-09-05T09:01:51Z</time>
      </trkpt>
      <trkpt lat="45.07577" lon="6.0517">
        <ele>1272.2</ele>
        <time>2020-09-05T09:01:52Z</time>
      </trkpt>
      <trkpt lat="45.07588" lon="6.05162">
        <ele>1271.4</ele>
        <time>2020-09-05T09:01:53Z</time>
      </trkpt>
      <trkpt lat="45.07599" lon="6.05151">
        <ele>1270.6</ele>
        <time>2020-09-05T09:01:54Z</time>
      </trkpt>
      <trkpt lat="45.07609" lon="6.05139">
        <ele>1270.2</ele>
        <time>2020-09-05T09:01:55Z</time>
      </trkpt>
      <trkpt lat="45.07618" lon="6.05125">
        <ele>1268.6</ele>
        <time>2020-09-05T09:01:56Z</time>
      </trkpt>
      <trkpt lat="45.07627" lon="6.0511">
        <ele>1267.6</ele>
        <time>2020-09-05T09:01:57Z</time>
      </trkpt>
      <trkpt lat="45.07635" lon="6.05094">
        <ele>1266.6</ele>
        <time>2020-09-05T09:01:58Z</time>
      </trkpt>
      <trkpt lat="45.07641" lon="6.05075">
        <ele>1265.6</ele>
        <time>2020-09-05T09:01:59Z</time>
      </trkpt>
      <trkpt lat="45.07645" lon="6.05056">
        <ele>1264</ele>
        <time>2020-09-05T09:02:00Z</time>
      </trkpt>
      <trkpt lat="45.07647" lon="6.05035">
        <ele>1262.8</ele>
        <time>2020-09-05T09:02:01Z</time>
      </trkpt>
      <trkpt lat="45.07649" lon="6.05015">
        <ele>1261.6</ele>
        <time>2020-09-05T09:02:02Z</time>
      </trkpt>
      <trkpt lat="45.07653" lon="6.04995">
        <ele>1260</ele>
        <time>2020-09-05T09:02:03Z</time>
      </trkpt>
      <trkpt lat="45.07657" lon="6.04975">
        <ele>1259</ele>
        <time>2020-09-05T09:02:04Z</time>
      </trkpt>
      <trkpt lat="45.07663" lon="6.04955">
        <ele>1257.8</ele>
        <time>2020-09-05T09:02:05Z</time>
      </trkpt>
      <trkpt lat="45.07665" lon="6.04933">
        <ele>1256.2</ele>
        <time>2020-09-05T09:02:06Z</time>
      </trkpt>
      <trkpt lat="45.07666" lon="6.04911">
        <ele>1254.6</ele>
        <time>2020-09-05T09:02:07Z</time>
      </trkpt>
      <trkpt lat="45.07666" lon="6.04891">
        <ele>1252.6</ele>
        <time>2020-09-05T09:02:08Z</time>
      </trkpt>
      <trkpt lat="45.07665" lon="6.04872">
        <ele>1252.4</ele>
        <time>2020-09-05T09:02:09Z</time>
      </trkpt>
      <trkpt lat="45.07661" lon="6.04854">
        <ele>1251.2</ele>
        <time>2020-09-05T09:02:10Z</time>
      </trkpt>
      <trkpt lat="45.07655" lon="6.04837">
        <ele>1249.6</ele>
        <time>2020-09-05T09:02:11Z</time>
      </trkpt>
      <trkpt lat="45.0765" lon="6.04822">
        <ele>1247.4</ele>
        <time>2020-09-05T09:02:12Z</time>
      </trkpt>
      <trkpt lat="45.07647" lon="6.04807">
        <ele>1245</ele>
        <time>2020-09-05T09:02:13Z</time>
      </trkpt>
      <trkpt lat="45.07646" lon="6.04793">
        <ele>1242.4</ele>
        <time>2020-09-05T09:02:14Z</time>
      </trkpt>
      <trkpt lat="45.07647" lon="6.04778">
        <ele>1240.4</ele>
        <time>2020-09-05T09:02:15Z</time>
      </trkpt>
      <trkpt lat="45.07652" lon="6.04765">
        <ele>1238.8</ele>
        <time>2020-09-05T09:02:16Z</time>
      </trkpt>
      <trkpt lat="45.07658" lon="6.04753">
        <ele>1237.2</ele>
        <time>2020-09-05T09:02:17Z</time>
      </trkpt>
      <trkpt lat="45.07662" lon="6.04743">
        <ele>1235.6</ele>
        <time>2020-09-05T09:02:18Z</time>
      </trkpt>
      <trkpt lat="45.07663" lon="6.04733">
        <ele>1234.4</ele>
        <time>2020-09-05T09:02:19Z</time>
      </trkpt>
      <trkpt lat="45.07659" lon="6.04727">
        <ele>1233.4</ele>
        <time>2020-09-05T09:02:20Z</time>
      </trkpt>
      <trkpt lat="45.07653" lon="6.04727">
        <ele>1232.4</ele>
        <time>2020-09-05T09:02:21Z</time>
      </trkpt>
      <trkpt lat="45.07647" lon="6.04733">
        <ele>1231.8</ele>
        <time>2020-09-05T09:02:22Z</time>
      </trkpt>
      <trkpt lat="45.07643" lon="6.04741">
        <ele>1231.8</ele>
        <time>2020-09-05T09:02:23Z</time>
      </trkpt>
      <trkpt lat="45.0764" lon="6.04751">
        <ele>1231.6</ele>
        <time>2020-09-05T09:02:24Z</time>
      </trkpt>
      <trkpt lat="45.07637" lon="6.04761">
        <ele>1231.4</ele>
        <time>2020-09-05T09:02:25Z</time>
      </trkpt>
      <trkpt lat="45.07634" lon="6.04772">
        <ele>1231.2</ele>
        <time>2020-09-05T09:02:26Z</time>
      </trkpt>
      <trkpt lat="45.0763" lon="6.04783">
        <ele>1230.4</ele>
        <time>2020-09-05T09:02:27Z</time>
      </trkpt>
      <trkpt lat="45.07626" lon="6.04794">
        <ele>1229.8</ele>
        <time>2020-09-05T09:02:28Z</time>
      </trkpt>
      <trkpt lat="45.07624" lon="6.04806">
        <ele>1229.4</ele>
        <time>2020-09-05T09:02:29Z</time>
      </trkpt>
      <trkpt lat="45.07624" lon="6.04819">
        <ele>1229</ele>
        <time>2020-09-05T09:02:30Z</time>
      </trkpt>
      <trkpt lat="45.07626" lon="6.04832">
        <ele>1228.4</ele>
        <time>2020-09-05T09:02:31Z</time>
      </trkpt>
      <trkpt lat="45.07629" lon="6.04847">
        <ele>1227.6</ele>
        <time>2020-09-05T09:02:32Z</time>
      </trkpt>
      <trkpt lat="45.07631" lon="6.04862">
        <ele>1227</ele>
        <time>2020-09-05T09:02:33Z</time>
      </trkpt>
      <trkpt lat="45.07632" lon="6.04877">
        <ele>1226.4</ele>
        <time>2020-09-05T09:02:34Z</time>
      </trkpt>
      <trkpt lat="45.0763" lon="6.04893">
        <ele>1225.4</ele>
        <time>2020-09-05T09:02:35Z</time>
      </trkpt>
      <trkpt lat="45.07624" lon="6.04908">
        <ele>1224.8</ele>
        <time>2020-09-05T09:02:36Z</time>
      </trkpt>
      <trkpt lat="45.07618" lon="6.04923">
        <ele>1224.4</ele>
        <time>2020-09-05T09:02:37Z</time>
      </trkpt>
      <trkpt lat="45.07612" lon="6.04938">
        <ele>1223.6</ele>
        <time>2020-09-05T09:02:38Z</time>
      </trkpt>
      <trkpt lat="45.07606" lon="6.04953">
        <ele>1222.8</ele>
        <time>2020-09-05T09:02:39Z</time>
      </trkpt>
      <trkpt lat="45.076" lon="6.04968">
        <ele>1221.6</ele>
        <time>2020-09-05T09:02:40Z</time>
      </trkpt>
      <trkpt lat="45.07595" lon="6.04985">
        <ele>1220.4</ele>
        <time>2020-09-05T09:02:41Z</time>
      </trkpt>
      <trkpt lat="45.07591" lon="6.05">
        <ele>1219.2</ele>
        <time>2020-09-05T09:02:42Z</time>
      </trkpt>
      <trkpt lat="45.07586" lon="6.05015">
        <ele>1218.2</ele>
        <time>2020-09-05T09:02:43Z</time>
      </trkpt>
      <trkpt lat="45.07579" lon="6.05027">
        <ele>1217.6</ele>
        <time>2020-09-05T09:02:44Z</time>
      </trkpt>
      <trkpt lat="45.07571" lon="6.05037">
        <ele>1216.4</ele>
        <time>2020-09-05T09:02:45Z</time>
      </trkpt>
      <trkpt lat="45.07561" lon="6.05045">
        <ele>1215.4</ele>
        <time>2020-09-05T09:02:46Z</time>
      </trkpt>
      <trkpt lat="45.0755" lon="6.05053">
        <ele>1214.4</ele>
        <time>2020-09-05T09:02:47Z</time>
      </trkpt>
      <trkpt lat="45.0754" lon="6.05061">
        <ele>1213.6</ele>
        <time>2020-09-05T09:02:48Z</time>
      </trkpt>
      <trkpt lat="45.07528" lon="6.05067">
        <ele>1212.4</ele>
        <time>2020-09-05T09:02:49Z</time>
      </trkpt>
      <trkpt lat="45.07515" lon="6.05071">
        <ele>1211.2</ele>
        <time>2020-09-05T09:02:50Z</time>
      </trkpt>
      <trkpt lat="45.07502" lon="6.05074">
        <ele>1210.2</ele>
        <time>2020-09-05T09:02:51Z</time>
      </trkpt>
      <trkpt lat="45.07489" lon="6.05078">
        <ele>1209.4</ele>
        <time>2020-09-05T09:02:52Z</time>
      </trkpt>
      <trkpt lat="45.07476" lon="6.05082">
        <ele>1208.6</ele>
        <time>2020-09-05T09:02:53Z</time>
      </trkpt>
      <trkpt lat="45.07464" lon="6.05087">
        <ele>1207.4</ele>
        <time>2020-09-05T09:02:54Z</time>
      </trkpt>
      <trkpt lat="45.07451" lon="6.05093">
        <ele>1206.6</ele>
        <time>2020-09-05T09:02:55Z</time>
      </trkpt>
      <trkpt lat="45.07439" lon="6.051">
        <ele>1205.8</ele>
        <time>2020-09-05T09:02:56Z</time>
      </trkpt>
      <trkpt lat="45.07427" lon="6.05109">
        <ele>1204.8</ele>
        <time>2020-09-05T09:02:57Z</time>
      </trkpt>
      <trkpt lat="45.07416" lon="6.05119">
        <ele>1203.6</ele>
        <time>2020-09-05T09:02:58Z</time>
      </trkpt>
      <trkpt lat="45.07405" lon="6.0513">
        <ele>1202</ele>
        <time>2020-09-05T09:02:59Z</time>
      </trkpt>
      <trkpt lat="45.07394" lon="6.0514">
        <ele>1200.8</ele>
        <time>2020-09-05T09:03:00Z</time>
      </trkpt>
      <trkpt lat="45.07383" lon="6.05151">
        <ele>1199.6</ele>
        <time>2020-09-05T09:03:01Z</time>
      </trkpt>
      <trkpt lat="45.07372" lon="6.05162">
        <ele>1198.2</ele>
        <time>2020-09-05T09:03:02Z</time>
      </trkpt>
      <trkpt lat="45.07361" lon="6.05173">
        <ele>1197</ele>
        <time>2020-09-05T09:03:03Z</time>
      </trkpt>
      <trkpt lat="45.0735" lon="6.05185">
        <ele>1195.6</ele>
        <time>2020-09-05T09:03:04Z</time>
      </trkpt>
      <trkpt lat="45.0734" lon="6.05195">
        <ele>1194.2</ele>
        <time>2020-09-05T09:03:05Z</time>
      </trkpt>
      <trkpt lat="45.07333" lon="6.05205">
        <ele>1192.2</ele>
        <time>2020-09-05T09:03:06Z</time>
      </trkpt>
      <trkpt lat="45.07326" lon="6.05213">
        <ele>1190.8</ele>
        <time>2020-09-05T09:03:07Z</time>
      </trkpt>
      <trkpt lat="45.0732" lon="6.05215">
        <ele>1189.6</ele>
        <time>2020-09-05T09:03:08Z</time>
      </trkpt>
      <trkpt lat="45.07316" lon="6.05209">
        <ele>1188.4</ele>
        <time>2020-09-05T09:03:09Z</time>
      </trkpt>
      <trkpt lat="45.07316" lon="6.052">
        <ele>1187.4</ele>
        <time>2020-09-05T09:03:10Z</time>
      </trkpt>
      <trkpt lat="45.0732" lon="6.05194">
        <ele>1186.8</ele>
        <time>2020-09-05T09:03:11Z</time>
      </trkpt>
      <trkpt lat="45.07325" lon="6.05189">
        <ele>1186.6</ele>
        <time>2020-09-05T09:03:12Z</time>
      </trkpt>
      <trkpt lat="45.07332" lon="6.05184">
        <ele>1186.4</ele>
        <time>2020-09-05T09:03:13Z</time>
      </trkpt>
      <trkpt lat="45.07338" lon="6.05179">
        <ele>1186</ele>
        <time>2020-09-05T09:03:14Z</time>
      </trkpt>
      <trkpt lat="45.07345" lon="6.05173">
        <ele>1185.8</ele>
        <time>2020-09-05T09:03:15Z</time>
      </trkpt>
      <trkpt lat="45.07351" lon="6.05166">
        <ele>1185.6</ele>
        <time>2020-09-05T09:03:16Z</time>
      </trkpt>
      <trkpt lat="45.07358" lon="6.05158">
        <ele>1185.2</ele>
        <time>2020-09-05T09:03:17Z</time>
      </trkpt>
      <trkpt lat="45.07364" lon="6.05148">
        <ele>1185</ele>
        <time>2020-09-05T09:03:18Z</time>
      </trkpt>
      <trkpt lat="45.07371" lon="6.05138">
        <ele>1184.6</ele>
        <time>2020-09-05T09:03:19Z</time>
      </trkpt>
      <trkpt lat="45.07378" lon="6.05128">
        <ele>1184</ele>
        <time>2020-09-05T09:03:20Z</time>
      </trkpt>
      <trkpt lat="45.07385" lon="6.05117">
        <ele>1183.4</ele>
        <time>2020-09-05T09:03:21Z</time>
      </trkpt>
      <trkpt lat="45.07392" lon="6.05106">
        <ele>1182.8</ele>
        <time>2020-09-05T09:03:22Z</time>
      </trkpt>
      <trkpt lat="45.074" lon="6.05095">
        <ele>1182</ele>
        <time>2020-09-05T09:03:23Z</time>
      </trkpt>
      <trkpt lat="45.07408" lon="6.05084">
        <ele>1181.4</ele>
        <time>2020-09-05T09:03:24Z</time>
      </trkpt>
      <trkpt lat="45.07415" lon="6.05072">
        <ele>1180.6</ele>
        <time>2020-09-05T09:03:25Z</time>
      </trkpt>
      <trkpt lat="45.07423" lon="6.05059">
        <ele>1179.8</ele>
        <time>2020-09-05T09:03:26Z</time>
      </trkpt>
      <trkpt lat="45.07429" lon="6.05045">
        <ele>1179</ele>
        <time>2020-09-05T09:03:27Z</time>
      </trkpt>
      <trkpt lat="45.07436" lon="6.05031">
        <ele>1177.8</ele>
        <time>2020-09-05T09:03:28Z</time>
      </trkpt>
      <trkpt lat="45.07445" lon="6.05019">
        <ele>1176.6</ele>
        <time>2020-09-05T09:03:29Z</time>
      </trkpt>
      <trkpt lat="45.07456" lon="6.05011">
        <ele>1175.8</ele>
        <time>2020-09-05T09:03:30Z</time>
      </trkpt>
      <trkpt lat="45.07468" lon="6.05006">
        <ele>1174.8</ele>
        <time>2020-09-05T09:03:31Z</time>
      </trkpt>
      <trkpt lat="45.0748" lon="6.05001">
        <ele>1173.6</ele>
        <time>2020-09-05T09:03:32Z</time>
      </trkpt>
      <trkpt lat="45.07492" lon="6.04995">
        <ele>1172.6</ele>
        <time>2020-09-05T09:03:33Z</time>
      </trkpt>
      <trkpt lat="45.07501" lon="6.04986">
        <ele>1171.2</ele>
        <time>2020-09-05T09:03:34Z</time>
      </trkpt>
      <trkpt lat="45.07508" lon="6.04973">
        <ele>1170.2</ele>
        <time>2020-09-05T09:03:35Z</time>
      </trkpt>
      <trkpt lat="45.07513" lon="6.04957">
        <ele>1169</ele>
        <time>2020-09-05T09:03:36Z</time>
      </trkpt>
      <trkpt lat="45.07516" lon="6.0494">
        <ele>1168.6</ele>
        <time>2020-09-05T09:03:37Z</time>
      </trkpt>
      <trkpt lat="45.07517" lon="6.04921">
        <ele>1167.2</ele>
        <time>2020-09-05T09:03:38Z</time>
      </trkpt>
      <trkpt lat="45.07517" lon="6.04903">
        <ele>1166.2</ele>
        <time>2020-09-05T09:03:39Z</time>
      </trkpt>
      <trkpt lat="45.07517" lon="6.04885">
        <ele>1164.8</ele>
        <time>2020-09-05T09:03:40Z</time>
      </trkpt>
      <trkpt lat="45.07516" lon="6.04866">
        <ele>1164</ele>
        <time>2020-09-05T09:03:41Z</time>
      </trkpt>
      <trkpt lat="45.07513" lon="6.04849">
        <ele>1163</ele>
        <time>2020-09-05T09:03:42Z</time>
      </trkpt>
      <trkpt lat="45.07508" lon="6.04832">
        <ele>1161.6</ele>
        <time>2020-09-05T09:03:43Z</time>
      </trkpt>
      <trkpt lat="45.07501" lon="6.04816">
        <ele>1160.4</ele>
        <time>2020-09-05T09:03:44Z</time>
      </trkpt>
      <trkpt lat="45.07495" lon="6.048">
        <ele>1158.6</ele>
        <time>2020-09-05T09:03:45Z</time>
      </trkpt>
      <trkpt lat="45.07491" lon="6.04782">
        <ele>1157.2</ele>
        <time>2020-09-05T09:03:46Z</time>
      </trkpt>
      <trkpt lat="45.07488" lon="6.04767">
        <ele>1155.6</ele>
        <time>2020-09-05T09:03:47Z</time>
      </trkpt>
      <trkpt lat="45.07486" lon="6.04754">
        <ele>1154.2</ele>
        <time>2020-09-05T09:03:48Z</time>
      </trkpt>
      <trkpt lat="45.07481" lon="6.04746">
        <ele>1153.4</ele>
        <time>2020-09-05T09:03:49Z</time>
      </trkpt>
      <trkpt lat="45.07476" lon="6.04747">
        <ele>1152.6</ele>
        <time>2020-09-05T09:03:50Z</time>
      </trkpt>
      <trkpt lat="45.07472" lon="6.04756">
        <ele>1151.6</ele>
        <time>2020-09-05T09:03:51Z</time>
      </trkpt>
      <trkpt lat="45.07471" lon="6.04767">
        <ele>1150.8</ele>
        <time>2020-09-05T09:03:52Z</time>
      </trkpt>
      <trkpt lat="45.07473" lon="6.04778">
        <ele>1150.6</ele>
        <time>2020-09-05T09:03:53Z</time>
      </trkpt>
      <trkpt lat="45.07477" lon="6.04789">
        <ele>1150.2</ele>
        <time>2020-09-05T09:03:54Z</time>
      </trkpt>
      <trkpt lat="45.07482" lon="6.048">
        <ele>1150</ele>
        <time>2020-09-05T09:03:55Z</time>
      </trkpt>
      <trkpt lat="45.07487" lon="6.04811">
        <ele>1149.4</ele>
        <time>2020-09-05T09:03:56Z</time>
      </trkpt>
      <trkpt lat="45.07491" lon="6.04824">
        <ele>1148.8</ele>
        <time>2020-09-05T09:03:57Z</time>
      </trkpt>
      <trkpt lat="45.07496" lon="6.04838">
        <ele>1148.4</ele>
        <time>2020-09-05T09:03:58Z</time>
      </trkpt>
      <trkpt lat="45.07498" lon="6.04853">
        <ele>1148</ele>
        <time>2020-09-05T09:03:59Z</time>
      </trkpt>
      <trkpt lat="45.07497" lon="6.04868">
        <ele>1147.4</ele>
        <time>2020-09-05T09:04:00Z</time>
      </trkpt>
      <trkpt lat="45.07493" lon="6.04884">
        <ele>1147</ele>
        <time>2020-09-05T09:04:01Z</time>
      </trkpt>
      <trkpt lat="45.07489" lon="6.04899">
        <ele>1145.8</ele>
        <time>2020-09-05T09:04:02Z</time>
      </trkpt>
      <trkpt lat="45.07483" lon="6.04914">
        <ele>1144.8</ele>
        <time>2020-09-05T09:04:03Z</time>
      </trkpt>
      <trkpt lat="45.07476" lon="6.04928">
        <ele>1144</ele>
        <time>2020-09-05T09:04:04Z</time>
      </trkpt>
      <trkpt lat="45.07468" lon="6.04939">
        <ele>1143</ele>
        <time>2020-09-05T09:04:05Z</time>
      </trkpt>
      <trkpt lat="45.07458" lon="6.04948">
        <ele>1141.8</ele>
        <time>2020-09-05T09:04:06Z</time>
      </trkpt>
      <trkpt lat="45.07446" lon="6.04953">
        <ele>1141</ele>
        <time>2020-09-05T09:04:07Z</time>
      </trkpt>
      <trkpt lat="45.07432" lon="6.04954">
        <ele>1140</ele>
        <time>2020-09-05T09:04:08Z</time>
      </trkpt>
      <trkpt lat="45.07419" lon="6.04956">
        <ele>1139</ele>
        <time>2020-09-05T09:04:09Z</time>
      </trkpt>
      <trkpt lat="45.07406" lon="6.04961">
        <ele>1138.2</ele>
        <time>2020-09-05T09:04:10Z</time>
      </trkpt>
      <trkpt lat="45.07394" lon="6.04968">
        <ele>1137</ele>
        <time>2020-09-05T09:04:11Z</time>
      </trkpt>
      <trkpt lat="45.07383" lon="6.04979">
        <ele>1135.6</ele>
        <time>2020-09-05T09:04:12Z</time>
      </trkpt>
      <trkpt lat="45.07373" lon="6.04992">
        <ele>1134.4</ele>
        <time>2020-09-05T09:04:13Z</time>
      </trkpt>
      <trkpt lat="45.07363" lon="6.05006">
        <ele>1133.6</ele>
        <time>2020-09-05T09:04:14Z</time>
      </trkpt>
      <trkpt lat="45.07351" lon="6.05018">
        <ele>1132.2</ele>
        <time>2020-09-05T09:04:15Z</time>
      </trkpt>
      <trkpt lat="45.07339" lon="6.05029">
        <ele>1130.4</ele>
        <time>2020-09-05T09:04:16Z</time>
      </trkpt>
      <trkpt lat="45.07327" lon="6.05039">
        <ele>1129</ele>
        <time>2020-09-05T09:04:17Z</time>
      </trkpt>
      <trkpt lat="45.07314" lon="6.05049">
        <ele>1128</ele>
        <time>2020-09-05T09:04:18Z</time>
      </trkpt>
      <trkpt lat="45.07301" lon="6.05059">
        <ele>1126.4</ele>
        <time>2020-09-05T09:04:19Z</time>
      </trkpt>
      <trkpt lat="45.07288" lon="6.05069">
        <ele>1124.8</ele>
        <time>2020-09-05T09:04:20Z</time>
      </trkpt>
      <trkpt lat="45.07276" lon="6.0508">
        <ele>1122.8</ele>
        <time>2020-09-05T09:04:21Z</time>
      </trkpt>
      <trkpt lat="45.07267" lon="6.05092">
        <ele>1120.4</ele>
        <time>2020-09-05T09:04:22Z</time>
      </trkpt>
      <trkpt lat="45.07259" lon="6.05105">
        <ele>1118.4</ele>
        <time>2020-09-05T09:04:23Z</time>
      </trkpt>
      <trkpt lat="45.07254" lon="6.05116">
        <ele>1116.4</ele>
        <time>2020-09-05T09:04:24Z</time>
      </trkpt>
      <trkpt lat="45.07248" lon="6.05122">
        <ele>1114.8</ele>
        <time>2020-09-05T09:04:25Z</time>
      </trkpt>
      <trkpt lat="45.07243" lon="6.05119">
        <ele>1113</ele>
        <time>2020-09-05T09:04:26Z</time>
      </trkpt>
      <trkpt lat="45.07241" lon="6.0511">
        <ele>1112</ele>
        <time>2020-09-05T09:04:27Z</time>
      </trkpt>
      <trkpt lat="45.07244" lon="6.05101">
        <ele>1110.8</ele>
        <time>2020-09-05T09:04:28Z</time>
      </trkpt>
      <trkpt lat="45.07249" lon="6.05093">
        <ele>1110</ele>
        <time>2020-09-05T09:04:29Z</time>
      </trkpt>
      <trkpt lat="45.07255" lon="6.05084">
        <ele>1109.2</ele>
        <time>2020-09-05T09:04:30Z</time>
      </trkpt>
      <trkpt lat="45.07261" lon="6.05074">
        <ele>1108.8</ele>
        <time>2020-09-05T09:04:31Z</time>
      </trkpt>
      <trkpt lat="45.07267" lon="6.05064">
        <ele>1108.2</ele>
        <time>2020-09-05T09:04:32Z</time>
      </trkpt>
      <trkpt lat="45.07273" lon="6.05053">
        <ele>1107.6</ele>
        <time>2020-09-05T09:04:33Z</time>
      </trkpt>
      <trkpt lat="45.0728" lon="6.05041">
        <ele>1106.6</ele>
        <time>2020-09-05T09:04:34Z</time>
      </trkpt>
      <trkpt lat="45.07287" lon="6.05029">
        <ele>1105.8</ele>
        <time>2020-09-05T09:04:35Z</time>
      </trkpt>
      <trkpt lat="45.07294" lon="6.05016">
        <ele>1104.6</ele>
        <time>2020-09-05T09:04:36Z</time>
      </trkpt>
      <trkpt lat="45.07302" lon="6.05003">
        <ele>1104.2</ele>
        <time>2020-09-05T09:04:37Z</time>
      </trkpt>
      <trkpt lat="45.0731" lon="6.04989">
        <ele>1103.2</ele>
        <time>2020-09-05T09:04:38Z</time>
      </trkpt>
      <trkpt lat="45.07317" lon="6.04974">
        <ele>1102.4</ele>
        <time>2020-09-05T09:04:39Z</time>
      </trkpt>
      <trkpt lat="45.07322" lon="6.04957">
        <ele>1101.8</ele>
        <time>2020-09-05T09:04:40Z</time>
      </trkpt>
      <trkpt lat="45.07327" lon="6.0494">
        <ele>1100.6</ele>
        <time>2020-09-05T09:04:41Z</time>
      </trkpt>
      <trkpt lat="45.07331" lon="6.04923">
        <ele>1099.2</ele>
        <time>2020-09-05T09:04:42Z</time>
      </trkpt>
      <trkpt lat="45.07338" lon="6.04907">
        <ele>1098</ele>
        <time>2020-09-05T09:04:43Z</time>
      </trkpt>
      <trkpt lat="45.07346" lon="6.04893">
        <ele>1096.8</ele>
        <time>2020-09-05T09:04:44Z</time>
      </trkpt>
      <trkpt lat="45.07354" lon="6.04881">
        <ele>1095.6</ele>
        <time>2020-09-05T09:04:45Z</time>
      </trkpt>
      <trkpt lat="45.0736" lon="6.04868">
        <ele>1094.2</ele>
        <time>2020-09-05T09:04:46Z</time>
      </trkpt>
      <trkpt lat="45.07363" lon="6.04853">
        <ele>1092.6</ele>
        <time>2020-09-05T09:04:47Z</time>
      </trkpt>
      <trkpt lat="45.07362" lon="6.04836">
        <ele>1091.4</ele>
        <time>2020-09-05T09:04:48Z</time>
      </trkpt>
      <trkpt lat="45.07359" lon="6.0482">
        <ele>1090.4</ele>
        <time>2020-09-05T09:04:49Z</time>
      </trkpt>
      <trkpt lat="45.07355" lon="6.04803">
        <ele>1089.4</ele>
        <time>2020-09-05T09:04:50Z</time>
      </trkpt>
      <trkpt lat="45.07351" lon="6.04788">
        <ele>1088.4</ele>
        <time>2020-09-05T09:04:51Z</time>
      </trkpt>
      <trkpt lat="45.07345" lon="6.04775">
        <ele>1087.2</ele>
        <time>2020-09-05T09:04:52Z</time>
      </trkpt>
      <trkpt lat="45.07336" lon="6.04764">
        <ele>1086.2</ele>
        <time>2020-09-05T09:04:53Z</time>
      </trkpt>
      <trkpt lat="45.07325" lon="6.04759">
        <ele>1085</ele>
        <time>2020-09-05T09:04:54Z</time>
      </trkpt>
      <trkpt lat="45.07313" lon="6.04758">
        <ele>1084</ele>
        <time>2020-09-05T09:04:55Z</time>
      </trkpt>
      <trkpt lat="45.07301" lon="6.04756">
        <ele>1083.8</ele>
        <time>2020-09-05T09:04:56Z</time>
      </trkpt>
      <trkpt lat="45.07289" lon="6.04753">
        <ele>1083.2</ele>
        <time>2020-09-05T09:04:57Z</time>
      </trkpt>
      <trkpt lat="45.07278" lon="6.04748">
        <ele>1082.4</ele>
        <time>2020-09-05T09:04:58Z</time>
      </trkpt>
      <trkpt lat="45.07266" lon="6.04741">
        <ele>1081.6</ele>
        <time>2020-09-05T09:04:59Z</time>
      </trkpt>
      <trkpt lat="45.07255" lon="6.04733">
        <ele>1080.6</ele>
        <time>2020-09-05T09:05:00Z</time>
      </trkpt>
      <trkpt lat="45.07244" lon="6.04725">
        <ele>1079.6</ele>
        <time>2020-09-05T09:05:01Z</time>
      </trkpt>
      <trkpt lat="45.07233" lon="6.04717">
        <ele>1078.4</ele>
        <time>2020-09-05T09:05:02Z</time>
      </trkpt>
      <trkpt lat="45.07222" lon="6.04709">
        <ele>1077</ele>
        <time>2020-09-05T09:05:03Z</time>
      </trkpt>
      <trkpt lat="45.07211" lon="6.047">
        <ele>1076</ele>
        <time>2020-09-05T09:05:04Z</time>
      </trkpt>
      <trkpt lat="45.072" lon="6.04691">
        <ele>1075</ele>
        <time>2020-09-05T09:05:05Z</time>
      </trkpt>
      <trkpt lat="45.07189" lon="6.04681">
        <ele>1073.6</ele>
        <time>2020-09-05T09:05:06Z</time>
      </trkpt>
      <trkpt lat="45.07179" lon="6.04668">
        <ele>1072.4</ele>
        <time>2020-09-05T09:05:07Z</time>
      </trkpt>
      <trkpt lat="45.0717" lon="6.04655">
        <ele>1071.4</ele>
        <time>2020-09-05T09:05:08Z</time>
      </trkpt>
      <trkpt lat="45.07161" lon="6.04639">
        <ele>1070.4</ele>
        <time>2020-09-05T09:05:09Z</time>
      </trkpt>
      <trkpt lat="45.07154" lon="6.04622">
        <ele>1069.2</ele>
        <time>2020-09-05T09:05:10Z</time>
      </trkpt>
      <trkpt lat="45.07149" lon="6.04603">
        <ele>1068.2</ele>
        <time>2020-09-05T09:05:11Z</time>
      </trkpt>
      <trkpt lat="45.07146" lon="6.04583">
        <ele>1067.2</ele>
        <time>2020-09-05T09:05:12Z</time>
      </trkpt>
      <trkpt lat="45.07143" lon="6.04564">
        <ele>1065.6</ele>
        <time>2020-09-05T09:05:13Z</time>
      </trkpt>
      <trkpt lat="45.0714" lon="6.04545">
        <ele>1064.4</ele>
        <time>2020-09-05T09:05:14Z</time>
      </trkpt>
      <trkpt lat="45.07137" lon="6.04526">
        <ele>1062.6</ele>
        <time>2020-09-05T09:05:15Z</time>
      </trkpt>
      <trkpt lat="45.07133" lon="6.04507">
        <ele>1061.4</ele>
        <time>2020-09-05T09:05:16Z</time>
      </trkpt>
      <trkpt lat="45.07129" lon="6.04489">
        <ele>1060</ele>
        <time>2020-09-05T09:05:17Z</time>
      </trkpt>
      <trkpt lat="45.07124" lon="6.04472">
        <ele>1058.4</ele>
        <time>2020-09-05T09:05:18Z</time>
      </trkpt>
      <trkpt lat="45.07118" lon="6.04456">
        <ele>1056.8</ele>
        <time>2020-09-05T09:05:19Z</time>
      </trkpt>
      <trkpt lat="45.07112" lon="6.04441">
        <ele>1054.8</ele>
        <time>2020-09-05T09:05:20Z</time>
      </trkpt>
      <trkpt lat="45.07107" lon="6.0443">
        <ele>1053</ele>
        <time>2020-09-05T09:05:21Z</time>
      </trkpt>
      <trkpt lat="45.07101" lon="6.04421">
        <ele>1051.6</ele>
        <time>2020-09-05T09:05:22Z</time>
      </trkpt>
      <trkpt lat="45.07094" lon="6.04418">
        <ele>1050.4</ele>
        <time>2020-09-05T09:05:23Z</time>
      </trkpt>
      <trkpt lat="45.07089" lon="6.04424">
        <ele>1049.2</ele>
        <time>2020-09-05T09:05:24Z</time>
      </trkpt>
      <trkpt lat="45.07089" lon="6.04436">
        <ele>1048.2</ele>
        <time>2020-09-05T09:05:25Z</time>
      </trkpt>
      <trkpt lat="45.07092" lon="6.04449">
        <ele>1047.8</ele>
        <time>2020-09-05T09:05:26Z</time>
      </trkpt>
      <trkpt lat="45.07096" lon="6.04461">
        <ele>1047.4</ele>
        <time>2020-09-05T09:05:27Z</time>
      </trkpt>
      <trkpt lat="45.07102" lon="6.04473">
        <ele>1047</ele>
        <time>2020-09-05T09:05:28Z</time>
      </trkpt>
      <trkpt lat="45.07107" lon="6.04486">
        <ele>1046.4</ele>
        <time>2020-09-05T09:05:29Z</time>
      </trkpt>
      <trkpt lat="45.0711" lon="6.04499">
        <ele>1046</ele>
        <time>2020-09-05T09:05:30Z</time>
      </trkpt>
      <trkpt lat="45.07112" lon="6.04514">
        <ele>1045.8</ele>
        <time>2020-09-05T09:05:31Z</time>
      </trkpt>
      <trkpt lat="45.07111" lon="6.04529">
        <ele>1045.6</ele>
        <time>2020-09-05T09:05:32Z</time>
      </trkpt>
      <trkpt lat="45.0711" lon="6.04545">
        <ele>1044.8</ele>
        <time>2020-09-05T09:05:33Z</time>
      </trkpt>
      <trkpt lat="45.07109" lon="6.04561">
        <ele>1043.8</ele>
        <time>2020-09-05T09:05:34Z</time>
      </trkpt>
      <trkpt lat="45.07108" lon="6.04577">
        <ele>1043.6</ele>
        <time>2020-09-05T09:05:35Z</time>
      </trkpt>
      <trkpt lat="45.07107" lon="6.04593">
        <ele>1043.2</ele>
        <time>2020-09-05T09:05:36Z</time>
      </trkpt>
      <trkpt lat="45.07106" lon="6.04609">
        <ele>1043.2</ele>
        <time>2020-09-05T09:05:37Z</time>
      </trkpt>
      <trkpt lat="45.07106" lon="6.04626">
        <ele>1042.6</ele>
        <time>2020-09-05T09:05:38Z</time>
      </trkpt>
      <trkpt lat="45.07106" lon="6.04642">
        <ele>1042</ele>
        <time>2020-09-05T09:05:39Z</time>
      </trkpt>
      <trkpt lat="45.07107" lon="6.04659">
        <ele>1041</ele>
        <time>2020-09-05T09:05:40Z</time>
      </trkpt>
      <trkpt lat="45.07109" lon="6.04675">
        <ele>1039.8</ele>
        <time>2020-09-05T09:05:41Z</time>
      </trkpt>
      <trkpt lat="45.07114" lon="6.04691">
        <ele>1038.4</ele>
        <time>2020-09-05T09:05:42Z</time>
      </trkpt>
      <trkpt lat="45.07121" lon="6.04704">
        <ele>1037.8</ele>
        <time>2020-09-05T09:05:43Z</time>
      </trkpt>
      <trkpt lat="45.07129" lon="6.04717">
        <ele>1036.2</ele>
        <time>2020-09-05T09:05:44Z</time>
      </trkpt>
      <trkpt lat="45.07137" lon="6.0473">
        <ele>1035.2</ele>
        <time>2020-09-05T09:05:45Z</time>
      </trkpt>
      <trkpt lat="45.07145" lon="6.04743">
        <ele>1033.6</ele>
        <time>2020-09-05T09:05:46Z</time>
      </trkpt>
      <trkpt lat="45.07154" lon="6.04756">
        <ele>1032.4</ele>
        <time>2020-09-05T09:05:47Z</time>
      </trkpt>
      <trkpt lat="45.07164" lon="6.04768">
        <ele>1030.6</ele>
        <time>2020-09-05T09:05:48Z</time>
      </trkpt>
      <trkpt lat="45.07173" lon="6.04779">
        <ele>1029.2</ele>
        <time>2020-09-05T09:05:49Z</time>
      </trkpt>
      <trkpt lat="45.07183" lon="6.04788">
        <ele>1027.4</ele>
        <time>2020-09-05T09:05:50Z</time>
      </trkpt>
      <trkpt lat="45.07191" lon="6.04795">
        <ele>1025.6</ele>
        <time>2020-09-05T09:05:51Z</time>
      </trkpt>
      <trkpt lat="45.07195" lon="6.04803">
        <ele>1024.4</ele>
        <time>2020-09-05T09:05:52Z</time>
      </trkpt>
      <trkpt lat="45.07197" lon="6.0481">
        <ele>1023.4</ele>
        <time>2020-09-05T09:05:53Z</time>
      </trkpt>
      <trkpt lat="45.07182" lon="6.04812">
        <ele>1021.8</ele>
        <time>2020-09-05T09:05:55Z</time>
      </trkpt>
      <trkpt lat="45.0717" lon="6.04796">
        <ele>1021</ele>
        <time>2020-09-05T09:05:57Z</time>
      </trkpt>
      <trkpt lat="45.07157" lon="6.04779">
        <ele>1019.6</ele>
        <time>2020-09-05T09:05:59Z</time>
      </trkpt>
      <trkpt lat="45.07149" lon="6.04771">
        <ele>1018.6</ele>
        <time>2020-09-05T09:06:00Z</time>
      </trkpt>
      <trkpt lat="45.07141" lon="6.04763">
        <ele>1017.6</ele>
        <time>2020-09-05T09:06:01Z</time>
      </trkpt>
      <trkpt lat="45.07132" lon="6.04755">
        <ele>1017</ele>
        <time>2020-09-05T09:06:02Z</time>
      </trkpt>
      <trkpt lat="45.07124" lon="6.04747">
        <ele>1017</ele>
        <time>2020-09-05T09:06:03Z</time>
      </trkpt>
      <trkpt lat="45.07115" lon="6.04739">
        <ele>1016.6</ele>
        <time>2020-09-05T09:06:04Z</time>
      </trkpt>
      <trkpt lat="45.07105" lon="6.04731">
        <ele>1015.8</ele>
        <time>2020-09-05T09:06:05Z</time>
      </trkpt>
      <trkpt lat="45.07096" lon="6.04722">
        <ele>1015.4</ele>
        <time>2020-09-05T09:06:06Z</time>
      </trkpt>
      <trkpt lat="45.07086" lon="6.04713">
        <ele>1014.4</ele>
        <time>2020-09-05T09:06:07Z</time>
      </trkpt>
      <trkpt lat="45.07076" lon="6.04704">
        <ele>1013.6</ele>
        <time>2020-09-05T09:06:08Z</time>
      </trkpt>
      <trkpt lat="45.07066" lon="6.04693">
        <ele>1012.8</ele>
        <time>2020-09-05T09:06:09Z</time>
      </trkpt>
      <trkpt lat="45.07056" lon="6.04681">
        <ele>1012</ele>
        <time>2020-09-05T09:06:10Z</time>
      </trkpt>
      <trkpt lat="45.07048" lon="6.04667">
        <ele>1011.4</ele>
        <time>2020-09-05T09:06:11Z</time>
      </trkpt>
      <trkpt lat="45.07039" lon="6.04652">
        <ele>1010.6</ele>
        <time>2020-09-05T09:06:12Z</time>
      </trkpt>
      <trkpt lat="45.07031" lon="6.04637">
        <ele>1009.6</ele>
        <time>2020-09-05T09:06:13Z</time>
      </trkpt>
      <trkpt lat="45.07023" lon="6.04621">
        <ele>1009</ele>
        <time>2020-09-05T09:06:14Z</time>
      </trkpt>
      <trkpt lat="45.07014" lon="6.04606">
        <ele>1008</ele>
        <time>2020-09-05T09:06:15Z</time>
      </trkpt>
      <trkpt lat="45.07005" lon="6.04592">
        <ele>1006.8</ele>
        <time>2020-09-05T09:06:16Z</time>
      </trkpt>
      <trkpt lat="45.06994" lon="6.04582">
        <ele>1006.2</ele>
        <time>2020-09-05T09:06:17Z</time>
      </trkpt>
      <trkpt lat="45.06982" lon="6.04575">
        <ele>1005.2</ele>
        <time>2020-09-05T09:06:18Z</time>
      </trkpt>
      <trkpt lat="45.06969" lon="6.0457">
        <ele>1004.2</ele>
        <time>2020-09-05T09:06:19Z</time>
      </trkpt>
      <trkpt lat="45.06956" lon="6.04564">
        <ele>1002.4</ele>
        <time>2020-09-05T09:06:20Z</time>
      </trkpt>
      <trkpt lat="45.06945" lon="6.04558">
        <ele>1000.6</ele>
        <time>2020-09-05T09:06:21Z</time>
      </trkpt>
      <trkpt lat="45.06935" lon="6.04551">
        <ele>998.4</ele>
        <time>2020-09-05T09:06:22Z</time>
      </trkpt>
      <trkpt lat="45.06926" lon="6.04544">
        <ele>996.8</ele>
        <time>2020-09-05T09:06:23Z</time>
      </trkpt>
      <trkpt lat="45.06918" lon="6.04537">
        <ele>995.2</ele>
        <time>2020-09-05T09:06:24Z</time>
      </trkpt>
      <trkpt lat="45.06909" lon="6.04528">
        <ele>994.2</ele>
        <time>2020-09-05T09:06:25Z</time>
      </trkpt>
      <trkpt lat="45.06902" lon="6.04518">
        <ele>993.2</ele>
        <time>2020-09-05T09:06:26Z</time>
      </trkpt>
      <trkpt lat="45.06895" lon="6.04507">
        <ele>992.6</ele>
        <time>2020-09-05T09:06:27Z</time>
      </trkpt>
      <trkpt lat="45.06887" lon="6.04497">
        <ele>991.8</ele>
        <time>2020-09-05T09:06:28Z</time>
      </trkpt>
      <trkpt lat="45.06878" lon="6.04489">
        <ele>991</ele>
        <time>2020-09-05T09:06:29Z</time>
      </trkpt>
      <trkpt lat="45.06869" lon="6.04483">
        <ele>990.4</ele>
        <time>2020-09-05T09:06:30Z</time>
      </trkpt>
      <trkpt lat="45.06859" lon="6.04479">
        <ele>989.8</ele>
        <time>2020-09-05T09:06:31Z</time>
      </trkpt>
      <trkpt lat="45.06848" lon="6.04476">
        <ele>989.4</ele>
        <time>2020-09-05T09:06:32Z</time>
      </trkpt>
      <trkpt lat="45.06837" lon="6.04473">
        <ele>988.4</ele>
        <time>2020-09-05T09:06:33Z</time>
      </trkpt>
      <trkpt lat="45.06825" lon="6.04471">
        <ele>987.8</ele>
        <time>2020-09-05T09:06:34Z</time>
      </trkpt>
      <trkpt lat="45.06814" lon="6.04467">
        <ele>986.6</ele>
        <time>2020-09-05T09:06:35Z</time>
      </trkpt>
      <trkpt lat="45.06802" lon="6.04464">
        <ele>986</ele>
        <time>2020-09-05T09:06:36Z</time>
      </trkpt>
      <trkpt lat="45.06791" lon="6.04459">
        <ele>985.2</ele>
        <time>2020-09-05T09:06:37Z</time>
      </trkpt>
      <trkpt lat="45.0678" lon="6.04454">
        <ele>984.2</ele>
        <time>2020-09-05T09:06:38Z</time>
      </trkpt>
      <trkpt lat="45.0677" lon="6.04448">
        <ele>982.6</ele>
        <time>2020-09-05T09:06:39Z</time>
      </trkpt>
      <trkpt lat="45.06762" lon="6.04442">
        <ele>981.8</ele>
        <time>2020-09-05T09:06:40Z</time>
      </trkpt>
      <trkpt lat="45.06754" lon="6.04435">
        <ele>980.8</ele>
        <time>2020-09-05T09:06:41Z</time>
      </trkpt>
      <trkpt lat="45.06747" lon="6.04429">
        <ele>979.4</ele>
        <time>2020-09-05T09:06:42Z</time>
      </trkpt>
      <trkpt lat="45.06741" lon="6.04425">
        <ele>978.4</ele>
        <time>2020-09-05T09:06:43Z</time>
      </trkpt>
      <trkpt lat="45.06735" lon="6.04423">
        <ele>977.2</ele>
        <time>2020-09-05T09:06:44Z</time>
      </trkpt>
      <trkpt lat="45.0673" lon="6.04421">
        <ele>976.2</ele>
        <time>2020-09-05T09:06:45Z</time>
      </trkpt>
      <trkpt lat="45.06727" lon="6.04418">
        <ele>975.2</ele>
        <time>2020-09-05T09:06:46Z</time>
      </trkpt>
      <trkpt lat="45.06724" lon="6.04415">
        <ele>974.4</ele>
        <time>2020-09-05T09:06:47Z</time>
      </trkpt>
      <trkpt lat="45.06723" lon="6.04412">
        <ele>973.8</ele>
        <time>2020-09-05T09:06:48Z</time>
      </trkpt>
      <trkpt lat="45.06724" lon="6.04407">
        <ele>971.8</ele>
        <time>2020-09-05T09:07:25Z</time>
      </trkpt>
      <trkpt lat="45.06723" lon="6.04403">
        <ele>971.8</ele>
        <time>2020-09-05T09:07:26Z</time>
      </trkpt>
      <trkpt lat="45.06722" lon="6.04399">
        <ele>971.8</ele>
        <time>2020-09-05T09:07:27Z</time>
      </trkpt>
      <trkpt lat="45.06721" lon="6.04395">
        <ele>971.8</ele>
        <time>2020-09-05T09:07:28Z</time>
      </trkpt>
      <trkpt lat="45.06719" lon="6.0439">
        <ele>971.8</ele>
        <time>2020-09-05T09:07:29Z</time>
      </trkpt>
      <trkpt lat="45.06719" lon="6.04384">
        <ele>971.6</ele>
        <time>2020-09-05T09:07:30Z</time>
      </trkpt>
      <trkpt lat="45.06719" lon="6.04377">
        <ele>971.6</ele>
        <time>2020-09-05T09:07:31Z</time>
      </trkpt>
      <trkpt lat="45.06721" lon="6.04371">
        <ele>971.6</ele>
        <time>2020-09-05T09:07:32Z</time>
      </trkpt>
      <trkpt lat="45.06724" lon="6.04365">
        <ele>971.6</ele>
        <time>2020-09-05T09:07:33Z</time>
      </trkpt>
      <trkpt lat="45.06729" lon="6.0436">
        <ele>971.2</ele>
        <time>2020-09-05T09:07:34Z</time>
      </trkpt>
      <trkpt lat="45.06735" lon="6.04356">
        <ele>970.8</ele>
        <time>2020-09-05T09:07:35Z</time>
      </trkpt>
      <trkpt lat="45.06741" lon="6.0435">
        <ele>970.6</ele>
        <time>2020-09-05T09:07:36Z</time>
      </trkpt>
      <trkpt lat="45.06748" lon="6.04345">
        <ele>970.4</ele>
        <time>2020-09-05T09:07:37Z</time>
      </trkpt>
      <trkpt lat="45.06754" lon="6.04339">
        <ele>970.2</ele>
        <time>2020-09-05T09:07:38Z</time>
      </trkpt>
      <trkpt lat="45.06762" lon="6.04332">
        <ele>969.8</ele>
        <time>2020-09-05T09:07:39Z</time>
      </trkpt>
      <trkpt lat="45.0677" lon="6.04325">
        <ele>969.6</ele>
        <time>2020-09-05T09:07:40Z</time>
      </trkpt>
      <trkpt lat="45.06778" lon="6.04317">
        <ele>969.2</ele>
        <time>2020-09-05T09:07:41Z</time>
      </trkpt>
      <trkpt lat="45.06787" lon="6.04309">
        <ele>968.4</ele>
        <time>2020-09-05T09:07:42Z</time>
      </trkpt>
      <trkpt lat="45.06795" lon="6.043">
        <ele>967.4</ele>
        <time>2020-09-05T09:07:43Z</time>
      </trkpt>
      <trkpt lat="45.06805" lon="6.0429">
        <ele>966.4</ele>
        <time>2020-09-05T09:07:44Z</time>
      </trkpt>
      <trkpt lat="45.06816" lon="6.04282">
        <ele>965.6</ele>
        <time>2020-09-05T09:07:45Z</time>
      </trkpt>
      <trkpt lat="45.06827" lon="6.04277">
        <ele>964.4</ele>
        <time>2020-09-05T09:07:46Z</time>
      </trkpt>
      <trkpt lat="45.06839" lon="6.04275">
        <ele>963.4</ele>
        <time>2020-09-05T09:07:47Z</time>
      </trkpt>
      <trkpt lat="45.0685" lon="6.04277">
        <ele>962.2</ele>
        <time>2020-09-05T09:07:48Z</time>
      </trkpt>
      <trkpt lat="45.06862" lon="6.0428">
        <ele>960.6</ele>
        <time>2020-09-05T09:07:49Z</time>
      </trkpt>
      <trkpt lat="45.06873" lon="6.04282">
        <ele>959</ele>
        <time>2020-09-05T09:07:50Z</time>
      </trkpt>
      <trkpt lat="45.06879" lon="6.04282">
        <ele>958.2</ele>
        <time>2020-09-05T09:07:51Z</time>
      </trkpt>
      <trkpt lat="45.06883" lon="6.04266">
        <ele>956.2</ele>
        <time>2020-09-05T09:07:53Z</time>
      </trkpt>
      <trkpt lat="45.06878" lon="6.0426">
        <ele>955.6</ele>
        <time>2020-09-05T09:07:54Z</time>
      </trkpt>
      <trkpt lat="45.06872" lon="6.04258">
        <ele>955.2</ele>
        <time>2020-09-05T09:07:55Z</time>
      </trkpt>
      <trkpt lat="45.06856" lon="6.04256">
        <ele>954.4</ele>
        <time>2020-09-05T09:07:57Z</time>
      </trkpt>
      <trkpt lat="45.06847" lon="6.04255">
        <ele>953.6</ele>
        <time>2020-09-05T09:07:58Z</time>
      </trkpt>
      <trkpt lat="45.06837" lon="6.04255">
        <ele>952.8</ele>
        <time>2020-09-05T09:07:59Z</time>
      </trkpt>
      <trkpt lat="45.06827" lon="6.04255">
        <ele>952</ele>
        <time>2020-09-05T09:08:00Z</time>
      </trkpt>
      <trkpt lat="45.06816" lon="6.04255">
        <ele>951.2</ele>
        <time>2020-09-05T09:08:01Z</time>
      </trkpt>
      <trkpt lat="45.06804" lon="6.04255">
        <ele>950.8</ele>
        <time>2020-09-05T09:08:02Z</time>
      </trkpt>
      <trkpt lat="45.06792" lon="6.04258">
        <ele>950</ele>
        <time>2020-09-05T09:08:03Z</time>
      </trkpt>
      <trkpt lat="45.06779" lon="6.04262">
        <ele>948.4</ele>
        <time>2020-09-05T09:08:04Z</time>
      </trkpt>
      <trkpt lat="45.06766" lon="6.04267">
        <ele>947.2</ele>
        <time>2020-09-05T09:08:05Z</time>
      </trkpt>
      <trkpt lat="45.06754" lon="6.04272">
        <ele>946</ele>
        <time>2020-09-05T09:08:06Z</time>
      </trkpt>
      <trkpt lat="45.06742" lon="6.04274">
        <ele>944.6</ele>
        <time>2020-09-05T09:08:07Z</time>
      </trkpt>
      <trkpt lat="45.0673" lon="6.04274">
        <ele>943.2</ele>
        <time>2020-09-05T09:08:08Z</time>
      </trkpt>
      <trkpt lat="45.06718" lon="6.04275">
        <ele>942</ele>
        <time>2020-09-05T09:08:09Z</time>
      </trkpt>
      <trkpt lat="45.06706" lon="6.04279">
        <ele>940.8</ele>
        <time>2020-09-05T09:08:10Z</time>
      </trkpt>
      <trkpt lat="45.06694" lon="6.04287">
        <ele>939.8</ele>
        <time>2020-09-05T09:08:11Z</time>
      </trkpt>
      <trkpt lat="45.06682" lon="6.04295">
        <ele>938.6</ele>
        <time>2020-09-05T09:08:12Z</time>
      </trkpt>
      <trkpt lat="45.06669" lon="6.04302">
        <ele>937</ele>
        <time>2020-09-05T09:08:13Z</time>
      </trkpt>
      <trkpt lat="45.06656" lon="6.04307">
        <ele>935.6</ele>
        <time>2020-09-05T09:08:14Z</time>
      </trkpt>
      <trkpt lat="45.06642" lon="6.04311">
        <ele>933.6</ele>
        <time>2020-09-05T09:08:15Z</time>
      </trkpt>
      <trkpt lat="45.06629" lon="6.04314">
        <ele>931.4</ele>
        <time>2020-09-05T09:08:16Z</time>
      </trkpt>
      <trkpt lat="45.06617" lon="6.04317">
        <ele>929.8</ele>
        <time>2020-09-05T09:08:17Z</time>
      </trkpt>
      <trkpt lat="45.06607" lon="6.04321">
        <ele>927.6</ele>
        <time>2020-09-05T09:08:18Z</time>
      </trkpt>
      <trkpt lat="45.06599" lon="6.04325">
        <ele>925.4</ele>
        <time>2020-09-05T09:08:19Z</time>
      </trkpt>
      <trkpt lat="45.06592" lon="6.04326">
        <ele>923.4</ele>
        <time>2020-09-05T09:08:20Z</time>
      </trkpt>
      <trkpt lat="45.06589" lon="6.04321">
        <ele>921.8</ele>
        <time>2020-09-05T09:08:21Z</time>
      </trkpt>
      <trkpt lat="45.06591" lon="6.04312">
        <ele>920.8</ele>
        <time>2020-09-05T09:08:22Z</time>
      </trkpt>
      <trkpt lat="45.06596" lon="6.04306">
        <ele>920</ele>
        <time>2020-09-05T09:08:23Z</time>
      </trkpt>
      <trkpt lat="45.06603" lon="6.04302">
        <ele>919.4</ele>
        <time>2020-09-05T09:08:24Z</time>
      </trkpt>
      <trkpt lat="45.06612" lon="6.04298">
        <ele>918.4</ele>
        <time>2020-09-05T09:08:25Z</time>
      </trkpt>
      <trkpt lat="45.0662" lon="6.04294">
        <ele>918</ele>
        <time>2020-09-05T09:08:26Z</time>
      </trkpt>
      <trkpt lat="45.0663" lon="6.04289">
        <ele>917.2</ele>
        <time>2020-09-05T09:08:27Z</time>
      </trkpt>
      <trkpt lat="45.0664" lon="6.04285">
        <ele>916.4</ele>
        <time>2020-09-05T09:08:28Z</time>
      </trkpt>
      <trkpt lat="45.0665" lon="6.04279">
        <ele>915.6</ele>
        <time>2020-09-05T09:08:29Z</time>
      </trkpt>
      <trkpt lat="45.0666" lon="6.04272">
        <ele>914.6</ele>
        <time>2020-09-05T09:08:30Z</time>
      </trkpt>
      <trkpt lat="45.06671" lon="6.04265">
        <ele>913.6</ele>
        <time>2020-09-05T09:08:31Z</time>
      </trkpt>
      <trkpt lat="45.06681" lon="6.04256">
        <ele>913</ele>
        <time>2020-09-05T09:08:32Z</time>
      </trkpt>
      <trkpt lat="45.06691" lon="6.04245">
        <ele>912.4</ele>
        <time>2020-09-05T09:08:33Z</time>
      </trkpt>
      <trkpt lat="45.06701" lon="6.04232">
        <ele>911.6</ele>
        <time>2020-09-05T09:08:34Z</time>
      </trkpt>
      <trkpt lat="45.06711" lon="6.04219">
        <ele>910.2</ele>
        <time>2020-09-05T09:08:35Z</time>
      </trkpt>
      <trkpt lat="45.06721" lon="6.04207">
        <ele>908.8</ele>
        <time>2020-09-05T09:08:36Z</time>
      </trkpt>
      <trkpt lat="45.06731" lon="6.04197">
        <ele>907</ele>
        <time>2020-09-05T09:08:37Z</time>
      </trkpt>
      <trkpt lat="45.06742" lon="6.0419">
        <ele>904.6</ele>
        <time>2020-09-05T09:08:38Z</time>
      </trkpt>
      <trkpt lat="45.06754" lon="6.04188">
        <ele>902.8</ele>
        <time>2020-09-05T09:08:39Z</time>
      </trkpt>
      <trkpt lat="45.06764" lon="6.04192">
        <ele>901.6</ele>
        <time>2020-09-05T09:08:40Z</time>
      </trkpt>
      <trkpt lat="45.06773" lon="6.04199">
        <ele>899.6</ele>
        <time>2020-09-05T09:08:41Z</time>
      </trkpt>
      <trkpt lat="45.06781" lon="6.04204">
        <ele>897.8</ele>
        <time>2020-09-05T09:08:42Z</time>
      </trkpt>
      <trkpt lat="45.06788" lon="6.04205">
        <ele>896.6</ele>
        <time>2020-09-05T09:08:43Z</time>
      </trkpt>
      <trkpt lat="45.06794" lon="6.04201">
        <ele>895.6</ele>
        <time>2020-09-05T09:08:44Z</time>
      </trkpt>
      <trkpt lat="45.06794" lon="6.04185">
        <ele>894.2</ele>
        <time>2020-09-05T09:08:46Z</time>
      </trkpt>
      <trkpt lat="45.0678" lon="6.04178">
        <ele>893.6</ele>
        <time>2020-09-05T09:08:48Z</time>
      </trkpt>
      <trkpt lat="45.06764" lon="6.04171">
        <ele>892.6</ele>
        <time>2020-09-05T09:08:50Z</time>
      </trkpt>
      <trkpt lat="45.06746" lon="6.04171">
        <ele>891.6</ele>
        <time>2020-09-05T09:08:52Z</time>
      </trkpt>
      <trkpt lat="45.06735" lon="6.04175">
        <ele>890.8</ele>
        <time>2020-09-05T09:08:53Z</time>
      </trkpt>
      <trkpt lat="45.06724" lon="6.0418">
        <ele>890.6</ele>
        <time>2020-09-05T09:08:54Z</time>
      </trkpt>
      <trkpt lat="45.06713" lon="6.04185">
        <ele>889.4</ele>
        <time>2020-09-05T09:08:55Z</time>
      </trkpt>
      <trkpt lat="45.06702" lon="6.04191">
        <ele>888.6</ele>
        <time>2020-09-05T09:08:56Z</time>
      </trkpt>
      <trkpt lat="45.06691" lon="6.04197">
        <ele>887.4</ele>
        <time>2020-09-05T09:08:57Z</time>
      </trkpt>
      <trkpt lat="45.0668" lon="6.04203">
        <ele>885.8</ele>
        <time>2020-09-05T09:08:58Z</time>
      </trkpt>
      <trkpt lat="45.06669" lon="6.04208">
        <ele>884.4</ele>
        <time>2020-09-05T09:08:59Z</time>
      </trkpt>
      <trkpt lat="45.06659" lon="6.04214">
        <ele>882.8</ele>
        <time>2020-09-05T09:09:00Z</time>
      </trkpt>
      <trkpt lat="45.0665" lon="6.0422">
        <ele>881.2</ele>
        <time>2020-09-05T09:09:01Z</time>
      </trkpt>
      <trkpt lat="45.06643" lon="6.04222">
        <ele>879.6</ele>
        <time>2020-09-05T09:09:02Z</time>
      </trkpt>
      <trkpt lat="45.06639" lon="6.04218">
        <ele>878.6</ele>
        <time>2020-09-05T09:09:03Z</time>
      </trkpt>
      <trkpt lat="45.0664" lon="6.0421">
        <ele>877.6</ele>
        <time>2020-09-05T09:09:04Z</time>
      </trkpt>
      <trkpt lat="45.06644" lon="6.04204">
        <ele>876.8</ele>
        <time>2020-09-05T09:09:05Z</time>
      </trkpt>
      <trkpt lat="45.06651" lon="6.04201">
        <ele>876.2</ele>
        <time>2020-09-05T09:09:06Z</time>
      </trkpt>
      <trkpt lat="45.06658" lon="6.04198">
        <ele>875.8</ele>
        <time>2020-09-05T09:09:07Z</time>
      </trkpt>
      <trkpt lat="45.06673" lon="6.0419">
        <ele>874.4</ele>
        <time>2020-09-05T09:09:09Z</time>
      </trkpt>
      <trkpt lat="45.06682" lon="6.04186">
        <ele>874.2</ele>
        <time>2020-09-05T09:09:10Z</time>
      </trkpt>
      <trkpt lat="45.0669" lon="6.0418">
        <ele>873.8</ele>
        <time>2020-09-05T09:09:11Z</time>
      </trkpt>
      <trkpt lat="45.067" lon="6.04174">
        <ele>873.4</ele>
        <time>2020-09-05T09:09:12Z</time>
      </trkpt>
      <trkpt lat="45.06709" lon="6.04167">
        <ele>872.8</ele>
        <time>2020-09-05T09:09:13Z</time>
      </trkpt>
      <trkpt lat="45.0672" lon="6.04161">
        <ele>872</ele>
        <time>2020-09-05T09:09:14Z</time>
      </trkpt>
      <trkpt lat="45.0673" lon="6.04154">
        <ele>871.4</ele>
        <time>2020-09-05T09:09:15Z</time>
      </trkpt>
      <trkpt lat="45.06741" lon="6.04147">
        <ele>870.2</ele>
        <time>2020-09-05T09:09:16Z</time>
      </trkpt>
      <trkpt lat="45.06752" lon="6.0414">
        <ele>868</ele>
        <time>2020-09-05T09:09:17Z</time>
      </trkpt>
      <trkpt lat="45.06762" lon="6.04133">
        <ele>866.2</ele>
        <time>2020-09-05T09:09:18Z</time>
      </trkpt>
      <trkpt lat="45.06772" lon="6.04127">
        <ele>864.6</ele>
        <time>2020-09-05T09:09:19Z</time>
      </trkpt>
      <trkpt lat="45.06783" lon="6.0412">
        <ele>863.6</ele>
        <time>2020-09-05T09:09:20Z</time>
      </trkpt>
      <trkpt lat="45.06795" lon="6.04114">
        <ele>862.8</ele>
        <time>2020-09-05T09:09:21Z</time>
      </trkpt>
      <trkpt lat="45.06807" lon="6.04108">
        <ele>861.4</ele>
        <time>2020-09-05T09:09:22Z</time>
      </trkpt>
      <trkpt lat="45.06819" lon="6.04103">
        <ele>860.4</ele>
        <time>2020-09-05T09:09:23Z</time>
      </trkpt>
      <trkpt lat="45.06832" lon="6.04098">
        <ele>859.2</ele>
        <time>2020-09-05T09:09:24Z</time>
      </trkpt>
      <trkpt lat="45.06846" lon="6.04094">
        <ele>857.8</ele>
        <time>2020-09-05T09:09:25Z</time>
      </trkpt>
      <trkpt lat="45.0686" lon="6.04091">
        <ele>856.6</ele>
        <time>2020-09-05T09:09:26Z</time>
      </trkpt>
      <trkpt lat="45.06875" lon="6.04087">
        <ele>855</ele>
        <time>2020-09-05T09:09:27Z</time>
      </trkpt>
      <trkpt lat="45.06889" lon="6.04084">
        <ele>853.2</ele>
        <time>2020-09-05T09:09:28Z</time>
      </trkpt>
      <trkpt lat="45.06902" lon="6.04081">
        <ele>850.8</ele>
        <time>2020-09-05T09:09:29Z</time>
      </trkpt>
      <trkpt lat="45.06913" lon="6.04078">
        <ele>848.2</ele>
        <time>2020-09-05T09:09:30Z</time>
      </trkpt>
      <trkpt lat="45.06923" lon="6.04071">
        <ele>846.2</ele>
        <time>2020-09-05T09:09:31Z</time>
      </trkpt>
      <trkpt lat="45.06931" lon="6.0406">
        <ele>845.4</ele>
        <time>2020-09-05T09:09:32Z</time>
      </trkpt>
      <trkpt lat="45.06938" lon="6.04047">
        <ele>844.6</ele>
        <time>2020-09-05T09:09:33Z</time>
      </trkpt>
      <trkpt lat="45.06946" lon="6.04033">
        <ele>842.8</ele>
        <time>2020-09-05T09:09:34Z</time>
      </trkpt>
      <trkpt lat="45.06955" lon="6.0402">
        <ele>841.4</ele>
        <time>2020-09-05T09:09:35Z</time>
      </trkpt>
      <trkpt lat="45.06965" lon="6.04008">
        <ele>839.8</ele>
        <time>2020-09-05T09:09:36Z</time>
      </trkpt>
      <trkpt lat="45.06975" lon="6.03996">
        <ele>838.8</ele>
        <time>2020-09-05T09:09:37Z</time>
      </trkpt>
      <trkpt lat="45.06984" lon="6.03984">
        <ele>837.6</ele>
        <time>2020-09-05T09:09:38Z</time>
      </trkpt>
      <trkpt lat="45.06993" lon="6.03971">
        <ele>836.2</ele>
        <time>2020-09-05T09:09:39Z</time>
      </trkpt>
      <trkpt lat="45.07002" lon="6.03958">
        <ele>834.8</ele>
        <time>2020-09-05T09:09:40Z</time>
      </trkpt>
      <trkpt lat="45.07013" lon="6.03946">
        <ele>833.6</ele>
        <time>2020-09-05T09:09:41Z</time>
      </trkpt>
      <trkpt lat="45.07024" lon="6.03934">
        <ele>832.4</ele>
        <time>2020-09-05T09:09:42Z</time>
      </trkpt>
      <trkpt lat="45.07037" lon="6.03924">
        <ele>830.4</ele>
        <time>2020-09-05T09:09:43Z</time>
      </trkpt>
      <trkpt lat="45.0705" lon="6.03916">
        <ele>828.8</ele>
        <time>2020-09-05T09:09:44Z</time>
      </trkpt>
      <trkpt lat="45.07063" lon="6.03909">
        <ele>827.2</ele>
        <time>2020-09-05T09:09:45Z</time>
      </trkpt>
      <trkpt lat="45.07077" lon="6.03903">
        <ele>825.2</ele>
        <time>2020-09-05T09:09:46Z</time>
      </trkpt>
      <trkpt lat="45.07089" lon="6.03899">
        <ele>823</ele>
        <time>2020-09-05T09:09:47Z</time>
      </trkpt>
      <trkpt lat="45.07102" lon="6.03898">
        <ele>821.4</ele>
        <time>2020-09-05T09:09:48Z</time>
      </trkpt>
      <trkpt lat="45.07115" lon="6.039">
        <ele>819.6</ele>
        <time>2020-09-05T09:09:49Z</time>
      </trkpt>
      <trkpt lat="45.0713" lon="6.03905">
        <ele>817.8</ele>
        <time>2020-09-05T09:09:50Z</time>
      </trkpt>
      <trkpt lat="45.07142" lon="6.03909">
        <ele>815.8</ele>
        <time>2020-09-05T09:09:51Z</time>
      </trkpt>
      <trkpt lat="45.07155" lon="6.03913">
        <ele>813.6</ele>
        <time>2020-09-05T09:09:52Z</time>
      </trkpt>
      <trkpt lat="45.07166" lon="6.03918">
        <ele>811.6</ele>
        <time>2020-09-05T09:09:53Z</time>
      </trkpt>
      <trkpt lat="45.07175" lon="6.03919">
        <ele>810</ele>
        <time>2020-09-05T09:09:54Z</time>
      </trkpt>
      <trkpt lat="45.07181" lon="6.03916">
        <ele>808.8</ele>
        <time>2020-09-05T09:09:55Z</time>
      </trkpt>
      <trkpt lat="45.07181" lon="6.03899">
        <ele>807.6</ele>
        <time>2020-09-05T09:09:57Z</time>
      </trkpt>
      <trkpt lat="45.07169" lon="6.0389">
        <ele>806.2</ele>
        <time>2020-09-05T09:09:59Z</time>
      </trkpt>
      <trkpt lat="45.07153" lon="6.03889">
        <ele>805.2</ele>
        <time>2020-09-05T09:10:01Z</time>
      </trkpt>
      <trkpt lat="45.07144" lon="6.03889">
        <ele>804.4</ele>
        <time>2020-09-05T09:10:02Z</time>
      </trkpt>
      <trkpt lat="45.07135" lon="6.03888">
        <ele>804</ele>
        <time>2020-09-05T09:10:03Z</time>
      </trkpt>
      <trkpt lat="45.07126" lon="6.03886">
        <ele>803.4</ele>
        <time>2020-09-05T09:10:04Z</time>
      </trkpt>
      <trkpt lat="45.07115" lon="6.03883">
        <ele>802.6</ele>
        <time>2020-09-05T09:10:05Z</time>
      </trkpt>
      <trkpt lat="45.07104" lon="6.0388">
        <ele>802</ele>
        <time>2020-09-05T09:10:06Z</time>
      </trkpt>
      <trkpt lat="45.07093" lon="6.03876">
        <ele>801.6</ele>
        <time>2020-09-05T09:10:07Z</time>
      </trkpt>
      <trkpt lat="45.07081" lon="6.03872">
        <ele>800.6</ele>
        <time>2020-09-05T09:10:08Z</time>
      </trkpt>
      <trkpt lat="45.07069" lon="6.03869">
        <ele>799.8</ele>
        <time>2020-09-05T09:10:09Z</time>
      </trkpt>
      <trkpt lat="45.07056" lon="6.03866">
        <ele>798.8</ele>
        <time>2020-09-05T09:10:10Z</time>
      </trkpt>
      <trkpt lat="45.07042" lon="6.03863">
        <ele>797.8</ele>
        <time>2020-09-05T09:10:11Z</time>
      </trkpt>
      <trkpt lat="45.07028" lon="6.03862">
        <ele>796.6</ele>
        <time>2020-09-05T09:10:12Z</time>
      </trkpt>
      <trkpt lat="45.07014" lon="6.03862">
        <ele>795.4</ele>
        <time>2020-09-05T09:10:13Z</time>
      </trkpt>
      <trkpt lat="45.07" lon="6.03865">
        <ele>794</ele>
        <time>2020-09-05T09:10:14Z</time>
      </trkpt>
      <trkpt lat="45.06985" lon="6.0387">
        <ele>792.6</ele>
        <time>2020-09-05T09:10:15Z</time>
      </trkpt>
      <trkpt lat="45.0697" lon="6.03875">
        <ele>791.4</ele>
        <time>2020-09-05T09:10:16Z</time>
      </trkpt>
      <trkpt lat="45.06956" lon="6.03882">
        <ele>789.6</ele>
        <time>2020-09-05T09:10:17Z</time>
      </trkpt>
      <trkpt lat="45.06942" lon="6.0389">
        <ele>788.6</ele>
        <time>2020-09-05T09:10:18Z</time>
      </trkpt>
      <trkpt lat="45.06927" lon="6.03898">
        <ele>787.2</ele>
        <time>2020-09-05T09:10:19Z</time>
      </trkpt>
      <trkpt lat="45.06912" lon="6.03905">
        <ele>785.2</ele>
        <time>2020-09-05T09:10:20Z</time>
      </trkpt>
      <trkpt lat="45.06897" lon="6.0391">
        <ele>783.2</ele>
        <time>2020-09-05T09:10:21Z</time>
      </trkpt>
      <trkpt lat="45.06883" lon="6.03915">
        <ele>780.8</ele>
        <time>2020-09-05T09:10:22Z</time>
      </trkpt>
      <trkpt lat="45.06869" lon="6.03919">
        <ele>778.6</ele>
        <time>2020-09-05T09:10:23Z</time>
      </trkpt>
      <trkpt lat="45.06855" lon="6.0392">
        <ele>776.8</ele>
        <time>2020-09-05T09:10:24Z</time>
      </trkpt>
      <trkpt lat="45.0684" lon="6.03919">
        <ele>774.4</ele>
        <time>2020-09-05T09:10:25Z</time>
      </trkpt>
      <trkpt lat="45.06827" lon="6.03917">
        <ele>773.2</ele>
        <time>2020-09-05T09:10:26Z</time>
      </trkpt>
      <trkpt lat="45.06812" lon="6.03918">
        <ele>771.4</ele>
        <time>2020-09-05T09:10:27Z</time>
      </trkpt>
      <trkpt lat="45.06798" lon="6.03922">
        <ele>769.8</ele>
        <time>2020-09-05T09:10:28Z</time>
      </trkpt>
      <trkpt lat="45.06783" lon="6.03928">
        <ele>768</ele>
        <time>2020-09-05T09:10:29Z</time>
      </trkpt>
      <trkpt lat="45.06768" lon="6.03933">
        <ele>766.6</ele>
        <time>2020-09-05T09:10:30Z</time>
      </trkpt>
      <trkpt lat="45.06753" lon="6.03937">
        <ele>764.8</ele>
        <time>2020-09-05T09:10:31Z</time>
      </trkpt>
      <trkpt lat="45.06738" lon="6.0394">
        <ele>763.4</ele>
        <time>2020-09-05T09:10:32Z</time>
      </trkpt>
      <trkpt lat="45.06722" lon="6.03943">
        <ele>761.4</ele>
        <time>2020-09-05T09:10:33Z</time>
      </trkpt>
      <trkpt lat="45.06706" lon="6.03946">
        <ele>760</ele>
        <time>2020-09-05T09:10:34Z</time>
      </trkpt>
      <trkpt lat="45.0669" lon="6.03948">
        <ele>758.8</ele>
        <time>2020-09-05T09:10:35Z</time>
      </trkpt>
      <trkpt lat="45.06674" lon="6.03951">
        <ele>756.8</ele>
        <time>2020-09-05T09:10:36Z</time>
      </trkpt>
      <trkpt lat="45.06658" lon="6.03955">
        <ele>755.6</ele>
        <time>2020-09-05T09:10:37Z</time>
      </trkpt>
      <trkpt lat="45.06642" lon="6.0396">
        <ele>753.4</ele>
        <time>2020-09-05T09:10:38Z</time>
      </trkpt>
      <trkpt lat="45.06626" lon="6.03966">
        <ele>751.4</ele>
        <time>2020-09-05T09:10:39Z</time>
      </trkpt>
      <trkpt lat="45.0661" lon="6.03973">
        <ele>749.4</ele>
        <time>2020-09-05T09:10:40Z</time>
      </trkpt>
      <trkpt lat="45.06594" lon="6.03979">
        <ele>747</ele>
        <time>2020-09-05T09:10:41Z</time>
      </trkpt>
      <trkpt lat="45.06579" lon="6.03986">
        <ele>744.4</ele>
        <time>2020-09-05T09:10:42Z</time>
      </trkpt>
      <trkpt lat="45.06565" lon="6.03992">
        <ele>742.4</ele>
        <time>2020-09-05T09:10:43Z</time>
      </trkpt>
      <trkpt lat="45.06551" lon="6.03998">
        <ele>739.8</ele>
        <time>2020-09-05T09:10:44Z</time>
      </trkpt>
      <trkpt lat="45.06539" lon="6.04004">
        <ele>737.8</ele>
        <time>2020-09-05T09:10:45Z</time>
      </trkpt>
      <trkpt lat="45.06527" lon="6.04008">
        <ele>735.4</ele>
        <time>2020-09-05T09:10:46Z</time>
      </trkpt>
      <trkpt lat="45.06515" lon="6.0401">
        <ele>733.4</ele>
        <time>2020-09-05T09:10:47Z</time>
      </trkpt>
      <trkpt lat="45.06503" lon="6.04005">
        <ele>731.8</ele>
        <time>2020-09-05T09:10:48Z</time>
      </trkpt>
      <trkpt lat="45.06493" lon="6.03996">
        <ele>730.6</ele>
        <time>2020-09-05T09:10:49Z</time>
      </trkpt>
      <trkpt lat="45.06485" lon="6.03985">
        <ele>730</ele>
        <time>2020-09-05T09:10:50Z</time>
      </trkpt>
      <trkpt lat="45.06476" lon="6.03973">
        <ele>729.2</ele>
        <time>2020-09-05T09:10:51Z</time>
      </trkpt>
      <trkpt lat="45.06469" lon="6.03962">
        <ele>728.4</ele>
        <time>2020-09-05T09:10:52Z</time>
      </trkpt>
      <trkpt lat="45.06461" lon="6.03952">
        <ele>728</ele>
        <time>2020-09-05T09:10:53Z</time>
      </trkpt>
      <trkpt lat="45.06454" lon="6.03941">
        <ele>727.8</ele>
        <time>2020-09-05T09:10:54Z</time>
      </trkpt>
      <trkpt lat="45.06447" lon="6.03931">
        <ele>727.4</ele>
        <time>2020-09-05T09:10:55Z</time>
      </trkpt>
      <trkpt lat="45.0644" lon="6.03922">
        <ele>727</ele>
        <time>2020-09-05T09:10:56Z</time>
      </trkpt>
      <trkpt lat="45.06433" lon="6.03912">
        <ele>726.8</ele>
        <time>2020-09-05T09:10:57Z</time>
      </trkpt>
      <trkpt lat="45.06427" lon="6.03903">
        <ele>726.4</ele>
        <time>2020-09-05T09:10:58Z</time>
      </trkpt>
      <trkpt lat="45.0642" lon="6.03894">
        <ele>726.2</ele>
        <time>2020-09-05T09:10:59Z</time>
      </trkpt>
      <trkpt lat="45.06413" lon="6.03885">
        <ele>726.2</ele>
        <time>2020-09-05T09:11:00Z</time>
      </trkpt>
      <trkpt lat="45.06406" lon="6.03875">
        <ele>726</ele>
        <time>2020-09-05T09:11:01Z</time>
      </trkpt>
      <trkpt lat="45.06399" lon="6.03865">
        <ele>725.6</ele>
        <time>2020-09-05T09:11:02Z</time>
      </trkpt>
      <trkpt lat="45.06392" lon="6.03855">
        <ele>725</ele>
        <time>2020-09-05T09:11:03Z</time>
      </trkpt>
      <trkpt lat="45.06385" lon="6.03844">
        <ele>724.6</ele>
        <time>2020-09-05T09:11:04Z</time>
      </trkpt>
      <trkpt lat="45.06378" lon="6.03834">
        <ele>724.2</ele>
        <time>2020-09-05T09:11:05Z</time>
      </trkpt>
      <trkpt lat="45.06371" lon="6.03823">
        <ele>723.8</ele>
        <time>2020-09-05T09:11:06Z</time>
      </trkpt>
      <trkpt lat="45.06364" lon="6.03813">
        <ele>723.4</ele>
        <time>2020-09-05T09:11:07Z</time>
      </trkpt>
      <trkpt lat="45.06357" lon="6.03802">
        <ele>723.4</ele>
        <time>2020-09-05T09:11:08Z</time>
      </trkpt>
      <trkpt lat="45.0635" lon="6.03792">
        <ele>723.2</ele>
        <time>2020-09-05T09:11:09Z</time>
      </trkpt>
      <trkpt lat="45.06343" lon="6.03782">
        <ele>723</ele>
        <time>2020-09-05T09:11:10Z</time>
      </trkpt>
      <trkpt lat="45.06335" lon="6.03772">
        <ele>723.2</ele>
        <time>2020-09-05T09:11:11Z</time>
      </trkpt>
      <trkpt lat="45.06328" lon="6.03761">
        <ele>723.2</ele>
        <time>2020-09-05T09:11:12Z</time>
      </trkpt>
      <trkpt lat="45.06321" lon="6.03751">
        <ele>722.8</ele>
        <time>2020-09-05T09:11:13Z</time>
      </trkpt>
      <trkpt lat="45.06314" lon="6.03741">
        <ele>722.4</ele>
        <time>2020-09-05T09:11:14Z</time>
      </trkpt>
      <trkpt lat="45.06307" lon="6.03732">
        <ele>722.6</ele>
        <time>2020-09-05T09:11:15Z</time>
      </trkpt>
      <trkpt lat="45.06299" lon="6.03722">
        <ele>722.2</ele>
        <time>2020-09-05T09:11:16Z</time>
      </trkpt>
      <trkpt lat="45.06292" lon="6.03713">
        <ele>721.8</ele>
        <time>2020-09-05T09:11:17Z</time>
      </trkpt>
      <trkpt lat="45.06284" lon="6.03705">
        <ele>721.8</ele>
        <time>2020-09-05T09:11:18Z</time>
      </trkpt>
      <trkpt lat="45.06276" lon="6.03699">
        <ele>721.6</ele>
        <time>2020-09-05T09:11:19Z</time>
      </trkpt>
      <trkpt lat="45.06267" lon="6.03695">
        <ele>721.4</ele>
        <time>2020-09-05T09:11:20Z</time>
      </trkpt>
      <trkpt lat="45.06258" lon="6.03693">
        <ele>721.2</ele>
        <time>2020-09-05T09:11:21Z</time>
      </trkpt>
      <trkpt lat="45.06248" lon="6.03691">
        <ele>721.2</ele>
        <time>2020-09-05T09:11:22Z</time>
      </trkpt>
      <trkpt lat="45.06239" lon="6.03692">
        <ele>721.2</ele>
        <time>2020-09-05T09:11:23Z</time>
      </trkpt>
      <trkpt lat="45.0623" lon="6.03693">
        <ele>721.2</ele>
        <time>2020-09-05T09:11:24Z</time>
      </trkpt>
      <trkpt lat="45.06221" lon="6.03696">
        <ele>721.4</ele>
        <time>2020-09-05T09:11:25Z</time>
      </trkpt>
      <trkpt lat="45.06212" lon="6.03701">
        <ele>721</ele>
        <time>2020-09-05T09:11:26Z</time>
      </trkpt>
      <trkpt lat="45.06204" lon="6.03706">
        <ele>721</ele>
        <time>2020-09-05T09:11:27Z</time>
      </trkpt>
      <trkpt lat="45.06196" lon="6.03711">
        <ele>720.6</ele>
        <time>2020-09-05T09:11:28Z</time>
      </trkpt>
      <trkpt lat="45.06188" lon="6.03717">
        <ele>720</ele>
        <time>2020-09-05T09:11:29Z</time>
      </trkpt>
      <trkpt lat="45.06179" lon="6.03722">
        <ele>720.2</ele>
        <time>2020-09-05T09:11:30Z</time>
      </trkpt>
      <trkpt lat="45.06171" lon="6.03726">
        <ele>720.4</ele>
        <time>2020-09-05T09:11:31Z</time>
      </trkpt>
      <trkpt lat="45.06163" lon="6.03731">
        <ele>720.2</ele>
        <time>2020-09-05T09:11:32Z</time>
      </trkpt>
      <trkpt lat="45.06154" lon="6.03735">
        <ele>720</ele>
        <time>2020-09-05T09:11:33Z</time>
      </trkpt>
      <trkpt lat="45.06146" lon="6.03739">
        <ele>719.6</ele>
        <time>2020-09-05T09:11:34Z</time>
      </trkpt>
      <trkpt lat="45.06137" lon="6.03742">
        <ele>719.4</ele>
        <time>2020-09-05T09:11:35Z</time>
      </trkpt>
      <trkpt lat="45.06129" lon="6.03745">
        <ele>719.8</ele>
        <time>2020-09-05T09:11:36Z</time>
      </trkpt>
      <trkpt lat="45.06121" lon="6.03747">
        <ele>720.2</ele>
        <time>2020-09-05T09:11:37Z</time>
      </trkpt>
      <trkpt lat="45.06113" lon="6.0375">
        <ele>720.2</ele>
        <time>2020-09-05T09:11:38Z</time>
      </trkpt>
      <trkpt lat="45.06106" lon="6.03752">
        <ele>720.2</ele>
        <time>2020-09-05T09:11:39Z</time>
      </trkpt>
      <trkpt lat="45.06098" lon="6.03754">
        <ele>720.2</ele>
        <time>2020-09-05T09:11:40Z</time>
      </trkpt>
      <trkpt lat="45.06091" lon="6.03755">
        <ele>720</ele>
        <time>2020-09-05T09:11:41Z</time>
      </trkpt>
      <trkpt lat="45.06085" lon="6.03757">
        <ele>720</ele>
        <time>2020-09-05T09:11:42Z</time>
      </trkpt>
      <trkpt lat="45.06078" lon="6.03758">
        <ele>720.2</ele>
        <time>2020-09-05T09:11:43Z</time>
      </trkpt>
      <trkpt lat="45.06072" lon="6.0376">
        <ele>719.8</ele>
        <time>2020-09-05T09:11:44Z</time>
      </trkpt>
      <trkpt lat="45.06066" lon="6.03761">
        <ele>719.8</ele>
        <time>2020-09-05T09:11:45Z</time>
      </trkpt>
      <trkpt lat="45.0606" lon="6.03762">
        <ele>719.8</ele>
        <time>2020-09-05T09:11:46Z</time>
      </trkpt>
      <trkpt lat="45.06055" lon="6.03763">
        <ele>719.6</ele>
        <time>2020-09-05T09:11:47Z</time>
      </trkpt>
      <trkpt lat="45.0605" lon="6.03764">
        <ele>719.4</ele>
        <time>2020-09-05T09:11:48Z</time>
      </trkpt>
      <trkpt lat="45.06045" lon="6.03765">
        <ele>719.4</ele>
        <time>2020-09-05T09:11:49Z</time>
      </trkpt>
      <trkpt lat="45.0604" lon="6.03766">
        <ele>719.4</ele>
        <time>2020-09-05T09:11:50Z</time>
      </trkpt>
      <trkpt lat="45.06035" lon="6.03767">
        <ele>719.2</ele>
        <time>2020-09-05T09:11:51Z</time>
      </trkpt>
      <trkpt lat="45.06031" lon="6.03768">
        <ele>719.2</ele>
        <time>2020-09-05T09:11:52Z</time>
      </trkpt>
      <trkpt lat="45.06026" lon="6.03769">
        <ele>719.2</ele>
        <time>2020-09-05T09:11:53Z</time>
      </trkpt>
      <trkpt lat="45.06021" lon="6.0377">
        <ele>719.8</ele>
        <time>2020-09-05T09:11:54Z</time>
      </trkpt>
      <trkpt lat="45.06016" lon="6.03771">
        <ele>719.8</ele>
        <time>2020-09-05T09:11:55Z</time>
      </trkpt>
      <trkpt lat="45.06011" lon="6.03772">
        <ele>720</ele>
        <time>2020-09-05T09:11:56Z</time>
      </trkpt>
      <trkpt lat="45.06006" lon="6.03773">
        <ele>720</ele>
        <time>2020-09-05T09:11:57Z</time>
      </trkpt>
      <trkpt lat="45.06001" lon="6.03774">
        <ele>720</ele>
        <time>2020-09-05T09:11:58Z</time>
      </trkpt>
      <trkpt lat="45.05996" lon="6.03775">
        <ele>720.2</ele>
        <time>2020-09-05T09:11:59Z</time>
      </trkpt>
      <trkpt lat="45.05992" lon="6.03776">
        <ele>720</ele>
        <time>2020-09-05T09:12:00Z</time>
      </trkpt>
      <trkpt lat="45.05987" lon="6.03777">
        <ele>720</ele>
        <time>2020-09-05T09:12:01Z</time>
      </trkpt>
      <trkpt lat="45.05982" lon="6.03776">
        <ele>720.4</ele>
        <time>2020-09-05T09:12:02Z</time>
      </trkpt>
      <trkpt lat="45.05977" lon="6.03776">
        <ele>720.6</ele>
        <time>2020-09-05T09:12:03Z</time>
      </trkpt>
      <trkpt lat="45.05972" lon="6.03776">
        <ele>720.8</ele>
        <time>2020-09-05T09:12:04Z</time>
      </trkpt>
      <trkpt lat="45.05967" lon="6.03776">
        <ele>721</ele>
        <time>2020-09-05T09:12:05Z</time>
      </trkpt>
      <trkpt lat="45.05963" lon="6.03776">
        <ele>721.2</ele>
        <time>2020-09-05T09:12:06Z</time>
      </trkpt>
      <trkpt lat="45.05958" lon="6.03776">
        <ele>721.8</ele>
        <time>2020-09-05T09:12:07Z</time>
      </trkpt>
      <trkpt lat="45.05953" lon="6.03775">
        <ele>721.6</ele>
        <time>2020-09-05T09:12:08Z</time>
      </trkpt>
      <trkpt lat="45.05948" lon="6.03773">
        <ele>721.6</ele>
        <time>2020-09-05T09:12:09Z</time>
      </trkpt>
      <trkpt lat="45.05944" lon="6.03771">
        <ele>722</ele>
        <time>2020-09-05T09:12:10Z</time>
      </trkpt>
      <trkpt lat="45.05939" lon="6.03769">
        <ele>722</ele>
        <time>2020-09-05T09:12:11Z</time>
      </trkpt>
      <trkpt lat="45.05934" lon="6.03766">
        <ele>722.4</ele>
        <time>2020-09-05T09:12:12Z</time>
      </trkpt>
      <trkpt lat="45.05929" lon="6.03763">
        <ele>722.4</ele>
        <time>2020-09-05T09:12:13Z</time>
      </trkpt>
      <trkpt lat="45.05924" lon="6.0376">
        <ele>723</ele>
        <time>2020-09-05T09:12:14Z</time>
      </trkpt>
      <trkpt lat="45.05919" lon="6.03757">
        <ele>723.2</ele>
        <time>2020-09-05T09:12:15Z</time>
      </trkpt>
      <trkpt lat="45.05914" lon="6.03755">
        <ele>723.4</ele>
        <time>2020-09-05T09:12:16Z</time>
      </trkpt>
      <trkpt lat="45.05909" lon="6.03752">
        <ele>723.2</ele>
        <time>2020-09-05T09:12:17Z</time>
      </trkpt>
      <trkpt lat="45.05904" lon="6.03749">
        <ele>723.2</ele>
        <time>2020-09-05T09:12:18Z</time>
      </trkpt>
      <trkpt lat="45.05899" lon="6.03745">
        <ele>723.4</ele>
        <time>2020-09-05T09:12:19Z</time>
      </trkpt>
      <trkpt lat="45.05894" lon="6.0374">
        <ele>723.6</ele>
        <time>2020-09-05T09:12:20Z</time>
      </trkpt>
      <trkpt lat="45.0589" lon="6.03734">
        <ele>724.2</ele>
        <time>2020-09-05T09:12:21Z</time>
      </trkpt>
      <trkpt lat="45.05886" lon="6.03729">
        <ele>724.4</ele>
        <time>2020-09-05T09:12:22Z</time>
      </trkpt>
      <trkpt lat="45.05881" lon="6.03723">
        <ele>724.8</ele>
        <time>2020-09-05T09:12:23Z</time>
      </trkpt>
      <trkpt lat="45.05877" lon="6.03718">
        <ele>725</ele>
        <time>2020-09-05T09:12:24Z</time>
      </trkpt>
      <trkpt lat="45.05873" lon="6.03712">
        <ele>725</ele>
        <time>2020-09-05T09:12:25Z</time>
      </trkpt>
      <trkpt lat="45.05869" lon="6.03706">
        <ele>725.4</ele>
        <time>2020-09-05T09:12:26Z</time>
      </trkpt>
      <trkpt lat="45.05865" lon="6.037">
        <ele>725.8</ele>
        <time>2020-09-05T09:12:27Z</time>
      </trkpt>
      <trkpt lat="45.05862" lon="6.03694">
        <ele>725.8</ele>
        <time>2020-09-05T09:12:28Z</time>
      </trkpt>
      <trkpt lat="45.05858" lon="6.03687">
        <ele>725.8</ele>
        <time>2020-09-05T09:12:29Z</time>
      </trkpt>
      <trkpt lat="45.05854" lon="6.03681">
        <ele>726</ele>
        <time>2020-09-05T09:12:30Z</time>
      </trkpt>
      <trkpt lat="45.05849" lon="6.03674">
        <ele>725.8</ele>
        <time>2020-09-05T09:12:31Z</time>
      </trkpt>
      <trkpt lat="45.05845" lon="6.03667">
        <ele>726</ele>
        <time>2020-09-05T09:12:32Z</time>
      </trkpt>
      <trkpt lat="45.05841" lon="6.0366">
        <ele>726</ele>
        <time>2020-09-05T09:12:33Z</time>
      </trkpt>
      <trkpt lat="45.05837" lon="6.03654">
        <ele>725.6</ele>
        <time>2020-09-05T09:12:34Z</time>
      </trkpt>
      <trkpt lat="45.05832" lon="6.03647">
        <ele>725.4</ele>
        <time>2020-09-05T09:12:35Z</time>
      </trkpt>
      <trkpt lat="45.05828" lon="6.0364">
        <ele>725.6</ele>
        <time>2020-09-05T09:12:36Z</time>
      </trkpt>
      <trkpt lat="45.05823" lon="6.03633">
        <ele>725.4</ele>
        <time>2020-09-05T09:12:37Z</time>
      </trkpt>
      <trkpt lat="45.05818" lon="6.03627">
        <ele>725.2</ele>
        <time>2020-09-05T09:12:38Z</time>
      </trkpt>
      <trkpt lat="45.05813" lon="6.03621">
        <ele>725.2</ele>
        <time>2020-09-05T09:12:39Z</time>
      </trkpt>
      <trkpt lat="45.05808" lon="6.03614">
        <ele>725.2</ele>
        <time>2020-09-05T09:12:40Z</time>
      </trkpt>
      <trkpt lat="45.05804" lon="6.03607">
        <ele>725.2</ele>
        <time>2020-09-05T09:12:41Z</time>
      </trkpt>
      <trkpt lat="45.05799" lon="6.036">
        <ele>725</ele>
        <time>2020-09-05T09:12:42Z</time>
      </trkpt>
      <trkpt lat="45.05793" lon="6.03594">
        <ele>725</ele>
        <time>2020-09-05T09:12:43Z</time>
      </trkpt>
      <trkpt lat="45.05788" lon="6.03588">
        <ele>724.8</ele>
        <time>2020-09-05T09:12:44Z</time>
      </trkpt>
      <trkpt lat="45.05782" lon="6.03581">
        <ele>724.8</ele>
        <time>2020-09-05T09:12:45Z</time>
      </trkpt>
      <trkpt lat="45.05776" lon="6.03574">
        <ele>724.8</ele>
        <time>2020-09-05T09:12:46Z</time>
      </trkpt>
      <trkpt lat="45.0577" lon="6.03567">
        <ele>724.4</ele>
        <time>2020-09-05T09:12:47Z</time>
      </trkpt>
      <trkpt lat="45.05764" lon="6.03561">
        <ele>724.4</ele>
        <time>2020-09-05T09:12:48Z</time>
      </trkpt>
      <trkpt lat="45.05758" lon="6.03554">
        <ele>724.2</ele>
        <time>2020-09-05T09:12:49Z</time>
      </trkpt>
      <trkpt lat="45.05751" lon="6.03547">
        <ele>723.8</ele>
        <time>2020-09-05T09:12:50Z</time>
      </trkpt>
      <trkpt lat="45.05745" lon="6.0354">
        <ele>723.8</ele>
        <time>2020-09-05T09:12:51Z</time>
      </trkpt>
      <trkpt lat="45.05739" lon="6.03533">
        <ele>723.6</ele>
        <time>2020-09-05T09:12:52Z</time>
      </trkpt>
      <trkpt lat="45.05732" lon="6.03525">
        <ele>723.2</ele>
        <time>2020-09-05T09:12:53Z</time>
      </trkpt>
      <trkpt lat="45.05726" lon="6.03517">
        <ele>723.2</ele>
        <time>2020-09-05T09:12:54Z</time>
      </trkpt>
      <trkpt lat="45.05719" lon="6.03509">
        <ele>723</ele>
        <time>2020-09-05T09:12:55Z</time>
      </trkpt>
      <trkpt lat="45.05713" lon="6.03501">
        <ele>723</ele>
        <time>2020-09-05T09:12:56Z</time>
      </trkpt>
      <trkpt lat="45.05707" lon="6.03493">
        <ele>722.6</ele>
        <time>2020-09-05T09:12:57Z</time>
      </trkpt>
      <trkpt lat="45.057" lon="6.03485">
        <ele>722.4</ele>
        <time>2020-09-05T09:12:58Z</time>
      </trkpt>
      <trkpt lat="45.05693" lon="6.03478">
        <ele>722.2</ele>
        <time>2020-09-05T09:12:59Z</time>
      </trkpt>
      <trkpt lat="45.05687" lon="6.0347">
        <ele>722.2</ele>
        <time>2020-09-05T09:13:00Z</time>
      </trkpt>
      <trkpt lat="45.0568" lon="6.03462">
        <ele>722</ele>
        <time>2020-09-05T09:13:01Z</time>
      </trkpt>
      <trkpt lat="45.05673" lon="6.03455">
        <ele>721.4</ele>
        <time>2020-09-05T09:13:02Z</time>
      </trkpt>
      <trkpt lat="45.05665" lon="6.03448">
        <ele>721.2</ele>
        <time>2020-09-05T09:13:03Z</time>
      </trkpt>
      <trkpt lat="45.05658" lon="6.03441">
        <ele>721.2</ele>
        <time>2020-09-05T09:13:04Z</time>
      </trkpt>
      <trkpt lat="45.05651" lon="6.03434">
        <ele>721</ele>
        <time>2020-09-05T09:13:05Z</time>
      </trkpt>
      <trkpt lat="45.05644" lon="6.03427">
        <ele>721</ele>
        <time>2020-09-05T09:13:06Z</time>
      </trkpt>
      <trkpt lat="45.05637" lon="6.0342">
        <ele>720.8</ele>
        <time>2020-09-05T09:13:07Z</time>
      </trkpt>
      <trkpt lat="45.0563" lon="6.03413">
        <ele>720.8</ele>
        <time>2020-09-05T09:13:08Z</time>
      </trkpt>
      <trkpt lat="45.05623" lon="6.03406">
        <ele>720.8</ele>
        <time>2020-09-05T09:13:09Z</time>
      </trkpt>
      <trkpt lat="45.05617" lon="6.03399">
        <ele>721</ele>
        <time>2020-09-05T09:13:10Z</time>
      </trkpt>
      <trkpt lat="45.0561" lon="6.03392">
        <ele>721</ele>
        <time>2020-09-05T09:13:11Z</time>
      </trkpt>
      <trkpt lat="45.05604" lon="6.03385">
        <ele>720.8</ele>
        <time>2020-09-05T09:13:12Z</time>
      </trkpt>
      <trkpt lat="45.05598" lon="6.03378">
        <ele>720.8</ele>
        <time>2020-09-05T09:13:13Z</time>
      </trkpt>
      <trkpt lat="45.05592" lon="6.03371">
        <ele>721</ele>
        <time>2020-09-05T09:13:14Z</time>
      </trkpt>
      <trkpt lat="45.05586" lon="6.03364">
        <ele>721.4</ele>
        <time>2020-09-05T09:13:15Z</time>
      </trkpt>
      <trkpt lat="45.0558" lon="6.03357">
        <ele>721.6</ele>
        <time>2020-09-05T09:13:16Z</time>
      </trkpt>
      <trkpt lat="45.05574" lon="6.0335">
        <ele>721.2</ele>
        <time>2020-09-05T09:13:17Z</time>
      </trkpt>
      <trkpt lat="45.05568" lon="6.03343">
        <ele>720.8</ele>
        <time>2020-09-05T09:13:18Z</time>
      </trkpt>
      <trkpt lat="45.05562" lon="6.03336">
        <ele>720.6</ele>
        <time>2020-09-05T09:13:19Z</time>
      </trkpt>
      <trkpt lat="45.05557" lon="6.03329">
        <ele>720.8</ele>
        <time>2020-09-05T09:13:20Z</time>
      </trkpt>
      <trkpt lat="45.05551" lon="6.03322">
        <ele>720.4</ele>
        <time>2020-09-05T09:13:21Z</time>
      </trkpt>
      <trkpt lat="45.05545" lon="6.03316">
        <ele>720.6</ele>
        <time>2020-09-05T09:13:22Z</time>
      </trkpt>
      <trkpt lat="45.0554" lon="6.03309">
        <ele>720.6</ele>
        <time>2020-09-05T09:13:23Z</time>
      </trkpt>
      <trkpt lat="45.05534" lon="6.03302">
        <ele>720.6</ele>
        <time>2020-09-05T09:13:24Z</time>
      </trkpt>
      <trkpt lat="45.05529" lon="6.03295">
        <ele>720.8</ele>
        <time>2020-09-05T09:13:25Z</time>
      </trkpt>
      <trkpt lat="45.05523" lon="6.03289">
        <ele>720.4</ele>
        <time>2020-09-05T09:13:26Z</time>
      </trkpt>
      <trkpt lat="45.05518" lon="6.03282">
        <ele>720.6</ele>
        <time>2020-09-05T09:13:27Z</time>
      </trkpt>
      <trkpt lat="45.05512" lon="6.03276">
        <ele>720.2</ele>
        <time>2020-09-05T09:13:28Z</time>
      </trkpt>
      <trkpt lat="45.05507" lon="6.03269">
        <ele>720</ele>
        <time>2020-09-05T09:13:29Z</time>
      </trkpt>
      <trkpt lat="45.05502" lon="6.03262">
        <ele>720</ele>
        <time>2020-09-05T09:13:30Z</time>
      </trkpt>
      <trkpt lat="45.05497" lon="6.03255">
        <ele>719.8</ele>
        <time>2020-09-05T09:13:31Z</time>
      </trkpt>
      <trkpt lat="45.05493" lon="6.03247">
        <ele>719.6</ele>
        <time>2020-09-05T09:13:32Z</time>
      </trkpt>
      <trkpt lat="45.05489" lon="6.03239">
        <ele>719.4</ele>
        <time>2020-09-05T09:13:33Z</time>
      </trkpt>
      <trkpt lat="45.05486" lon="6.03231">
        <ele>719.2</ele>
        <time>2020-09-05T09:13:34Z</time>
      </trkpt>
      <trkpt lat="45.05482" lon="6.03223">
        <ele>719.2</ele>
        <time>2020-09-05T09:13:35Z</time>
      </trkpt>
      <trkpt lat="45.0548" lon="6.03215">
        <ele>719.2</ele>
        <time>2020-09-05T09:13:36Z</time>
      </trkpt>
      <trkpt lat="45.05477" lon="6.03207">
        <ele>719</ele>
        <time>2020-09-05T09:13:37Z</time>
      </trkpt>
      <trkpt lat="45.05475" lon="6.03199">
        <ele>719</ele>
        <time>2020-09-05T09:13:38Z</time>
      </trkpt>
      <trkpt lat="45.05474" lon="6.0319">
        <ele>719</ele>
        <time>2020-09-05T09:13:39Z</time>
      </trkpt>
      <trkpt lat="45.05474" lon="6.03183">
        <ele>719.2</ele>
        <time>2020-09-05T09:13:40Z</time>
      </trkpt>
      <trkpt lat="45.05475" lon="6.03175">
        <ele>719</ele>
        <time>2020-09-05T09:13:41Z</time>
      </trkpt>
      <trkpt lat="45.05476" lon="6.03168">
        <ele>719</ele>
        <time>2020-09-05T09:13:42Z</time>
      </trkpt>
      <trkpt lat="45.05477" lon="6.03161">
        <ele>719.2</ele>
        <time>2020-09-05T09:13:43Z</time>
      </trkpt>
      <trkpt lat="45.05479" lon="6.03154">
        <ele>719.2</ele>
        <time>2020-09-05T09:13:44Z</time>
      </trkpt>
      <trkpt lat="45.0548" lon="6.03147">
        <ele>719.4</ele>
        <time>2020-09-05T09:13:45Z</time>
      </trkpt>
      <trkpt lat="45.05481" lon="6.03141">
        <ele>719.2</ele>
        <time>2020-09-05T09:13:46Z</time>
      </trkpt>
      <trkpt lat="45.05482" lon="6.03134">
        <ele>719.2</ele>
        <time>2020-09-05T09:13:47Z</time>
      </trkpt>
      <trkpt lat="45.05483" lon="6.03128">
        <ele>719.2</ele>
        <time>2020-09-05T09:13:48Z</time>
      </trkpt>
      <trkpt lat="45.05484" lon="6.03122">
        <ele>719</ele>
        <time>2020-09-05T09:13:49Z</time>
      </trkpt>
      <trkpt lat="45.05485" lon="6.03116">
        <ele>719.2</ele>
        <time>2020-09-05T09:13:50Z</time>
      </trkpt>
      <trkpt lat="45.05486" lon="6.0311">
        <ele>719.2</ele>
        <time>2020-09-05T09:13:51Z</time>
      </trkpt>
      <trkpt lat="45.05486" lon="6.03105">
        <ele>719.2</ele>
        <time>2020-09-05T09:13:52Z</time>
      </trkpt>
      <trkpt lat="45.05487" lon="6.03099">
        <ele>719.4</ele>
        <time>2020-09-05T09:13:53Z</time>
      </trkpt>
      <trkpt lat="45.05488" lon="6.03094">
        <ele>719.6</ele>
        <time>2020-09-05T09:13:54Z</time>
      </trkpt>
      <trkpt lat="45.0549" lon="6.03089">
        <ele>719.6</ele>
        <time>2020-09-05T09:13:55Z</time>
      </trkpt>
      <trkpt lat="45.0549" lon="6.03084">
        <ele>719.6</ele>
        <time>2020-09-05T09:13:56Z</time>
      </trkpt>
      <trkpt lat="45.05492" lon="6.0308">
        <ele>719.6</ele>
        <time>2020-09-05T09:13:57Z</time>
      </trkpt>
      <trkpt lat="45.05493" lon="6.03075">
        <ele>719.8</ele>
        <time>2020-09-05T09:13:58Z</time>
      </trkpt>
      <trkpt lat="45.05494" lon="6.03071">
        <ele>719.8</ele>
        <time>2020-09-05T09:13:59Z</time>
      </trkpt>
      <trkpt lat="45.05495" lon="6.03067">
        <ele>719.6</ele>
        <time>2020-09-05T09:14:00Z</time>
      </trkpt>
      <trkpt lat="45.05495" lon="6.03063">
        <ele>719.8</ele>
        <time>2020-09-05T09:14:01Z</time>
      </trkpt>
      <trkpt lat="45.05496" lon="6.0306">
        <ele>719.6</ele>
        <time>2020-09-05T09:14:02Z</time>
      </trkpt>
      <trkpt lat="45.05496" lon="6.03057">
        <ele>719.4</ele>
        <time>2020-09-05T09:14:15Z</time>
      </trkpt>
      <trkpt lat="45.05497" lon="6.03053">
        <ele>719</ele>
        <time>2020-09-05T09:14:17Z</time>
      </trkpt>
      <trkpt lat="45.05498" lon="6.03049">
        <ele>719.2</ele>
        <time>2020-09-05T09:14:19Z</time>
      </trkpt>
      <trkpt lat="45.05499" lon="6.03045">
        <ele>719.2</ele>
        <time>2020-09-05T09:14:21Z</time>
      </trkpt>
      <trkpt lat="45.055" lon="6.03041">
        <ele>719.2</ele>
        <time>2020-09-05T09:14:23Z</time>
      </trkpt>
      <trkpt lat="45.055" lon="6.03037">
        <ele>719.2</ele>
        <time>2020-09-05T09:14:25Z</time>
      </trkpt>
      <trkpt lat="45.05502" lon="6.03033">
        <ele>719.2</ele>
        <time>2020-09-05T09:14:27Z</time>
      </trkpt>
      <trkpt lat="45.05503" lon="6.0303">
        <ele>719.4</ele>
        <time>2020-09-05T09:14:29Z</time>
      </trkpt>
      <trkpt lat="45.05503" lon="6.03028">
        <ele>719.2</ele>
        <time>2020-09-05T09:14:33Z</time>
      </trkpt>
      <trkpt lat="45.05504" lon="6.03025">
        <ele>719.6</ele>
        <time>2020-09-05T09:14:37Z</time>
      </trkpt>
      <trkpt lat="45.05505" lon="6.03022">
        <ele>719.6</ele>
        <time>2020-09-05T09:14:41Z</time>
      </trkpt>
      <trkpt lat="45.05507" lon="6.03023">
        <ele>719.8</ele>
        <time>2020-09-05T09:14:49Z</time>
      </trkpt>
      <trkpt lat="45.05505" lon="6.03022">
        <ele>719.6</ele>
        <time>2020-09-05T09:15:04Z</time>
      </trkpt>
      <trkpt lat="45.05503" lon="6.03022">
        <ele>719.8</ele>
        <time>2020-09-05T09:15:07Z</time>
      </trkpt>
      <trkpt lat="45.05502" lon="6.03024">
        <ele>719.6</ele>
        <time>2020-09-05T09:15:10Z</time>
      </trkpt>
      <trkpt lat="45.055" lon="6.03026">
        <ele>719.6</ele>
        <time>2020-09-05T09:16:18Z</time>
      </trkpt>
      <trkpt lat="45.05499" lon="6.0303">
        <ele>719.8</ele>
        <time>2020-09-05T09:16:20Z</time>
      </trkpt>
      <trkpt lat="45.05498" lon="6.03034">
        <ele>719.6</ele>
        <time>2020-09-05T09:16:22Z</time>
      </trkpt>
      <trkpt lat="45.05498" lon="6.03038">
        <ele>719.6</ele>
        <time>2020-09-05T09:16:24Z</time>
      </trkpt>
      <trkpt lat="45.05498" lon="6.03042">
        <ele>719.6</ele>
        <time>2020-09-05T09:16:26Z</time>
      </trkpt>
      <trkpt lat="45.05497" lon="6.03046">
        <ele>719.6</ele>
        <time>2020-09-05T09:16:28Z</time>
      </trkpt>
      <trkpt lat="45.05497" lon="6.0305">
        <ele>719.6</ele>
        <time>2020-09-05T09:16:30Z</time>
      </trkpt>
      <trkpt lat="45.05497" lon="6.03053">
        <ele>720</ele>
        <time>2020-09-05T09:16:32Z</time>
      </trkpt>
      <trkpt lat="45.05499" lon="6.03054">
        <ele>720</ele>
        <time>2020-09-05T09:16:34Z</time>
      </trkpt>
      <trkpt lat="45.055" lon="6.03058">
        <ele>719.8</ele>
        <time>2020-09-05T09:16:37Z</time>
      </trkpt>
      <trkpt lat="45.055" lon="6.03061">
        <ele>719.8</ele>
        <time>2020-09-05T09:16:39Z</time>
      </trkpt>
      <trkpt lat="45.05499" lon="6.03064">
        <ele>719.6</ele>
        <time>2020-09-05T09:16:41Z</time>
      </trkpt>
      <trkpt lat="45.05498" lon="6.03067">
        <ele>719.4</ele>
        <time>2020-09-05T09:16:43Z</time>
      </trkpt>
      <trkpt lat="45.05498" lon="6.0307">
        <ele>719.6</ele>
        <time>2020-09-05T09:16:45Z</time>
      </trkpt>
      <trkpt lat="45.05488" lon="6.03068">
        <ele>719.6</ele>
        <time>2020-09-05T09:28:36Z</time>
      </trkpt>
      <trkpt lat="45.05479" lon="6.03067">
        <ele>719.8</ele>
        <time>2020-09-05T09:40:45Z</time>
      </trkpt>
      <trkpt lat="45.05489" lon="6.0307">
        <ele>720.2</ele>
        <time>2020-09-05T09:46:53Z</time>
      </trkpt>
      <trkpt lat="45.05492" lon="6.03072">
        <ele>720.2</ele>
        <time>2020-09-05T09:49:16Z</time>
      </trkpt>
      <trkpt lat="45.05495" lon="6.03073">
        <ele>720.8</ele>
        <time>2020-09-05T09:51:02Z</time>
      </trkpt>
      <trkpt lat="45.05495" lon="6.03069">
        <ele>720.8</ele>
        <time>2020-09-05T09:54:29Z</time>
      </trkpt>
      <trkpt lat="45.05493" lon="6.0307">
        <ele>721.2</ele>
        <time>2020-09-05T09:54:37Z</time>
      </trkpt>
      <trkpt lat="45.05492" lon="6.03074">
        <ele>721.2</ele>
        <time>2020-09-05T09:54:44Z</time>
      </trkpt>
      <trkpt lat="45.05491" lon="6.03076">
        <ele>721.4</ele>
        <time>2020-09-05T09:54:45Z</time>
      </trkpt>
      <trkpt lat="45.0549" lon="6.03078">
        <ele>721.4</ele>
        <time>2020-09-05T09:54:46Z</time>
      </trkpt>
      <trkpt lat="45.05489" lon="6.03082">
        <ele>721.2</ele>
        <time>2020-09-05T09:54:47Z</time>
      </trkpt>
      <trkpt lat="45.05488" lon="6.03087">
        <ele>721.6</ele>
        <time>2020-09-05T09:54:48Z</time>
      </trkpt>
      <trkpt lat="45.05487" lon="6.03092">
        <ele>721.6</ele>
        <time>2020-09-05T09:54:49Z</time>
      </trkpt>
      <trkpt lat="45.05486" lon="6.03098">
        <ele>721.4</ele>
        <time>2020-09-05T09:54:50Z</time>
      </trkpt>
      <trkpt lat="45.05485" lon="6.03105">
        <ele>721.2</ele>
        <time>2020-09-05T09:54:51Z</time>
      </trkpt>
      <trkpt lat="45.05484" lon="6.03113">
        <ele>721.4</ele>
        <time>2020-09-05T09:54:52Z</time>
      </trkpt>
      <trkpt lat="45.05484" lon="6.0312">
        <ele>721.6</ele>
        <time>2020-09-05T09:54:53Z</time>
      </trkpt>
      <trkpt lat="45.05483" lon="6.03128">
        <ele>721.6</ele>
        <time>2020-09-05T09:54:54Z</time>
      </trkpt>
      <trkpt lat="45.05482" lon="6.03136">
        <ele>721.6</ele>
        <time>2020-09-05T09:54:55Z</time>
      </trkpt>
      <trkpt lat="45.05481" lon="6.03142">
        <ele>721.4</ele>
        <time>2020-09-05T09:54:56Z</time>
      </trkpt>
      <trkpt lat="45.05481" lon="6.03148">
        <ele>721.4</ele>
        <time>2020-09-05T09:54:57Z</time>
      </trkpt>
      <trkpt lat="45.0548" lon="6.03153">
        <ele>721.4</ele>
        <time>2020-09-05T09:54:58Z</time>
      </trkpt>
      <trkpt lat="45.05479" lon="6.03158">
        <ele>721.2</ele>
        <time>2020-09-05T09:54:59Z</time>
      </trkpt>
      <trkpt lat="45.05478" lon="6.03162">
        <ele>721.4</ele>
        <time>2020-09-05T09:55:00Z</time>
      </trkpt>
      <trkpt lat="45.05477" lon="6.03165">
        <ele>721.2</ele>
        <time>2020-09-05T09:55:01Z</time>
      </trkpt>
      <trkpt lat="45.05475" lon="6.03166">
        <ele>721.2</ele>
        <time>2020-09-05T09:55:02Z</time>
      </trkpt>
      <trkpt lat="45.05478" lon="6.03164">
        <ele>722.2</ele>
        <time>2020-09-05T09:56:47Z</time>
      </trkpt>
      <trkpt lat="45.05479" lon="6.03162">
        <ele>722</ele>
        <time>2020-09-05T09:56:48Z</time>
      </trkpt>
      <trkpt lat="45.0548" lon="6.03159">
        <ele>722.2</ele>
        <time>2020-09-05T09:56:49Z</time>
      </trkpt>
      <trkpt lat="45.05482" lon="6.03156">
        <ele>722.2</ele>
        <time>2020-09-05T09:56:50Z</time>
      </trkpt>
      <trkpt lat="45.05483" lon="6.03152">
        <ele>722.4</ele>
        <time>2020-09-05T09:56:51Z</time>
      </trkpt>
      <trkpt lat="45.05484" lon="6.03147">
        <ele>722.2</ele>
        <time>2020-09-05T09:56:52Z</time>
      </trkpt>
      <trkpt lat="45.05485" lon="6.03142">
        <ele>722.2</ele>
        <time>2020-09-05T09:56:53Z</time>
      </trkpt>
      <trkpt lat="45.05487" lon="6.03136">
        <ele>722.4</ele>
        <time>2020-09-05T09:56:54Z</time>
      </trkpt>
      <trkpt lat="45.05487" lon="6.0313">
        <ele>722.4</ele>
        <time>2020-09-05T09:56:55Z</time>
      </trkpt>
      <trkpt lat="45.05488" lon="6.03124">
        <ele>722.4</ele>
        <time>2020-09-05T09:56:56Z</time>
      </trkpt>
      <trkpt lat="45.05488" lon="6.03117">
        <ele>722.4</ele>
        <time>2020-09-05T09:56:57Z</time>
      </trkpt>
      <trkpt lat="45.05489" lon="6.0311">
        <ele>722.4</ele>
        <time>2020-09-05T09:56:58Z</time>
      </trkpt>
      <trkpt lat="45.0549" lon="6.03103">
        <ele>722.4</ele>
        <time>2020-09-05T09:56:59Z</time>
      </trkpt>
      <trkpt lat="45.05491" lon="6.03097">
        <ele>722.4</ele>
        <time>2020-09-05T09:57:00Z</time>
      </trkpt>
      <trkpt lat="45.05492" lon="6.03091">
        <ele>722.4</ele>
        <time>2020-09-05T09:57:01Z</time>
      </trkpt>
      <trkpt lat="45.05493" lon="6.03085">
        <ele>722.6</ele>
        <time>2020-09-05T09:57:02Z</time>
      </trkpt>
      <trkpt lat="45.05493" lon="6.03079">
        <ele>722.6</ele>
        <time>2020-09-05T09:57:03Z</time>
      </trkpt>
      <trkpt lat="45.05494" lon="6.03073">
        <ele>722.6</ele>
        <time>2020-09-05T09:57:04Z</time>
      </trkpt>
      <trkpt lat="45.05495" lon="6.03068">
        <ele>722.6</ele>
        <time>2020-09-05T09:57:05Z</time>
      </trkpt>
      <trkpt lat="45.05496" lon="6.03064">
        <ele>722.8</ele>
        <time>2020-09-05T09:57:06Z</time>
      </trkpt>
      <trkpt lat="45.05496" lon="6.0306">
        <ele>722.8</ele>
        <time>2020-09-05T09:57:07Z</time>
      </trkpt>
      <trkpt lat="45.05497" lon="6.03055">
        <ele>722.8</ele>
        <time>2020-09-05T09:57:08Z</time>
      </trkpt>
      <trkpt lat="45.05498" lon="6.0305">
        <ele>723</ele>
        <time>2020-09-05T09:57:09Z</time>
      </trkpt>
      <trkpt lat="45.05498" lon="6.03044">
        <ele>723</ele>
        <time>2020-09-05T09:57:10Z</time>
      </trkpt>
      <trkpt lat="45.05499" lon="6.03038">
        <ele>722.8</ele>
        <time>2020-09-05T09:57:11Z</time>
      </trkpt>
      <trkpt lat="45.05499" lon="6.03032">
        <ele>723</ele>
        <time>2020-09-05T09:57:12Z</time>
      </trkpt>
      <trkpt lat="45.055" lon="6.03026">
        <ele>723.4</ele>
        <time>2020-09-05T09:57:13Z</time>
      </trkpt>
      <trkpt lat="45.05501" lon="6.0302">
        <ele>723.6</ele>
        <time>2020-09-05T09:57:14Z</time>
      </trkpt>
      <trkpt lat="45.05502" lon="6.03015">
        <ele>723.4</ele>
        <time>2020-09-05T09:57:15Z</time>
      </trkpt>
      <trkpt lat="45.05503" lon="6.0301">
        <ele>723.4</ele>
        <time>2020-09-05T09:57:16Z</time>
      </trkpt>
      <trkpt lat="45.05504" lon="6.03005">
        <ele>723.4</ele>
        <time>2020-09-05T09:57:17Z</time>
      </trkpt>
      <trkpt lat="45.05504" lon="6.03001">
        <ele>723.2</ele>
        <time>2020-09-05T09:57:18Z</time>
      </trkpt>
      <trkpt lat="45.05503" lon="6.02996">
        <ele>723.2</ele>
        <time>2020-09-05T09:57:19Z</time>
      </trkpt>
      <trkpt lat="45.05503" lon="6.02992">
        <ele>723.4</ele>
        <time>2020-09-05T09:57:20Z</time>
      </trkpt>
      <trkpt lat="45.05501" lon="6.02989">
        <ele>723.6</ele>
        <time>2020-09-05T09:57:21Z</time>
      </trkpt>
      <trkpt lat="45.055" lon="6.02987">
        <ele>723.8</ele>
        <time>2020-09-05T09:57:22Z</time>
      </trkpt>
      <trkpt lat="45.05497" lon="6.02986">
        <ele>723.6</ele>
        <time>2020-09-05T09:57:23Z</time>
      </trkpt>
      <trkpt lat="45.05495" lon="6.02986">
        <ele>723.8</ele>
        <time>2020-09-05T09:57:24Z</time>
      </trkpt>
      <trkpt lat="45.05493" lon="6.02986">
        <ele>723.6</ele>
        <time>2020-09-05T09:57:25Z</time>
      </trkpt>
      <trkpt lat="45.0549" lon="6.02986">
        <ele>723.8</ele>
        <time>2020-09-05T09:57:26Z</time>
      </trkpt>
      <trkpt lat="45.05487" lon="6.02987">
        <ele>723.8</ele>
        <time>2020-09-05T09:57:27Z</time>
      </trkpt>
      <trkpt lat="45.05485" lon="6.02987">
        <ele>723.6</ele>
        <time>2020-09-05T09:57:28Z</time>
      </trkpt>
      <trkpt lat="45.05482" lon="6.02988">
        <ele>723.6</ele>
        <time>2020-09-05T09:57:29Z</time>
      </trkpt>
      <trkpt lat="45.0548" lon="6.02988">
        <ele>723.6</ele>
        <time>2020-09-05T09:57:30Z</time>
      </trkpt>
      <trkpt lat="45.05478" lon="6.02989">
        <ele>723.8</ele>
        <time>2020-09-05T09:57:31Z</time>
      </trkpt>
      <trkpt lat="45.05476" lon="6.02989">
        <ele>723.8</ele>
        <time>2020-09-05T09:57:32Z</time>
      </trkpt>
      <trkpt lat="45.05474" lon="6.0299">
        <ele>723.6</ele>
        <time>2020-09-05T09:57:33Z</time>
      </trkpt>
      <trkpt lat="45.05471" lon="6.0299">
        <ele>723.8</ele>
        <time>2020-09-05T09:57:34Z</time>
      </trkpt>
      <trkpt lat="45.05469" lon="6.02991">
        <ele>723.8</ele>
        <time>2020-09-05T09:57:35Z</time>
      </trkpt>
      <trkpt lat="45.05466" lon="6.02991">
        <ele>723.8</ele>
        <time>2020-09-05T09:57:36Z</time>
      </trkpt>
      <trkpt lat="45.05463" lon="6.02992">
        <ele>724</ele>
        <time>2020-09-05T09:57:37Z</time>
      </trkpt>
      <trkpt lat="45.05461" lon="6.02993">
        <ele>724</ele>
        <time>2020-09-05T09:57:38Z</time>
      </trkpt>
      <trkpt lat="45.05458" lon="6.02994">
        <ele>724.2</ele>
        <time>2020-09-05T09:57:39Z</time>
      </trkpt>
      <trkpt lat="45.05456" lon="6.02994">
        <ele>724.2</ele>
        <time>2020-09-05T09:57:40Z</time>
      </trkpt>
      <trkpt lat="45.05453" lon="6.02995">
        <ele>724</ele>
        <time>2020-09-05T09:57:41Z</time>
      </trkpt>
      <trkpt lat="45.05451" lon="6.02995">
        <ele>724</ele>
        <time>2020-09-05T09:57:42Z</time>
      </trkpt>
      <trkpt lat="45.0545" lon="6.02996">
        <ele>724</ele>
        <time>2020-09-05T09:57:43Z</time>
      </trkpt>
      <trkpt lat="45.05446" lon="6.02997">
        <ele>724</ele>
        <time>2020-09-05T09:57:45Z</time>
      </trkpt>
      <trkpt lat="45.05443" lon="6.02998">
        <ele>724.2</ele>
        <time>2020-09-05T09:57:47Z</time>
      </trkpt>
      <trkpt lat="45.05441" lon="6.03001">
        <ele>724</ele>
        <time>2020-09-05T09:57:49Z</time>
      </trkpt>
      <trkpt lat="45.05438" lon="6.03004">
        <ele>724.2</ele>
        <time>2020-09-05T09:57:51Z</time>
      </trkpt>
      <trkpt lat="45.05436" lon="6.03005">
        <ele>724.2</ele>
        <time>2020-09-05T09:57:52Z</time>
      </trkpt>
      <trkpt lat="45.05434" lon="6.03007">
        <ele>724.4</ele>
        <time>2020-09-05T09:57:53Z</time>
      </trkpt>
      <trkpt lat="45.05431" lon="6.03008">
        <ele>724.4</ele>
        <time>2020-09-05T09:57:54Z</time>
      </trkpt>
      <trkpt lat="45.05428" lon="6.03009">
        <ele>724.2</ele>
        <time>2020-09-05T09:57:55Z</time>
      </trkpt>
      <trkpt lat="45.05426" lon="6.0301">
        <ele>724.2</ele>
        <time>2020-09-05T09:57:56Z</time>
      </trkpt>
      <trkpt lat="45.05417" lon="6.03014">
        <ele>724.2</ele>
        <time>2020-09-05T09:58:02Z</time>
      </trkpt>
      <trkpt lat="45.05415" lon="6.03014">
        <ele>724.2</ele>
        <time>2020-09-05T09:58:03Z</time>
      </trkpt>
      <trkpt lat="45.05412" lon="6.03014">
        <ele>724.2</ele>
        <time>2020-09-05T09:58:04Z</time>
      </trkpt>
      <trkpt lat="45.05404" lon="6.03014">
        <ele>724</ele>
        <time>2020-09-05T09:58:08Z</time>
      </trkpt>
      <trkpt lat="45.05395" lon="6.03018">
        <ele>723.8</ele>
        <time>2020-09-05T09:58:12Z</time>
      </trkpt>
      <trkpt lat="45.05391" lon="6.03021">
        <ele>723.8</ele>
        <time>2020-09-05T09:58:14Z</time>
      </trkpt>
      <trkpt lat="45.05388" lon="6.03024">
        <ele>724</ele>
        <time>2020-09-05T09:58:15Z</time>
      </trkpt>
      <trkpt lat="45.05385" lon="6.03026">
        <ele>723.8</ele>
        <time>2020-09-05T09:58:16Z</time>
      </trkpt>
      <trkpt lat="45.05382" lon="6.03028">
        <ele>724</ele>
        <time>2020-09-05T09:58:17Z</time>
      </trkpt>
      <trkpt lat="45.05378" lon="6.0303">
        <ele>724</ele>
        <time>2020-09-05T09:58:18Z</time>
      </trkpt>
      <trkpt lat="45.05374" lon="6.03032">
        <ele>724</ele>
        <time>2020-09-05T09:58:19Z</time>
      </trkpt>
      <trkpt lat="45.0537" lon="6.03034">
        <ele>724</ele>
        <time>2020-09-05T09:58:20Z</time>
      </trkpt>
      <trkpt lat="45.05366" lon="6.03037">
        <ele>724.2</ele>
        <time>2020-09-05T09:58:21Z</time>
      </trkpt>
      <trkpt lat="45.05363" lon="6.0304">
        <ele>724</ele>
        <time>2020-09-05T09:58:22Z</time>
      </trkpt>
      <trkpt lat="45.05356" lon="6.03046">
        <ele>723.8</ele>
        <time>2020-09-05T09:58:24Z</time>
      </trkpt>
      <trkpt lat="45.05352" lon="6.03049">
        <ele>723.6</ele>
        <time>2020-09-05T09:58:25Z</time>
      </trkpt>
      <trkpt lat="45.05349" lon="6.03052">
        <ele>723.4</ele>
        <time>2020-09-05T09:58:26Z</time>
      </trkpt>
      <trkpt lat="45.05345" lon="6.03054">
        <ele>723.4</ele>
        <time>2020-09-05T09:58:27Z</time>
      </trkpt>
      <trkpt lat="45.05341" lon="6.03056">
        <ele>723.6</ele>
        <time>2020-09-05T09:58:28Z</time>
      </trkpt>
      <trkpt lat="45.05336" lon="6.03058">
        <ele>723.4</ele>
        <time>2020-09-05T09:58:29Z</time>
      </trkpt>
      <trkpt lat="45.05332" lon="6.03061">
        <ele>723.4</ele>
        <time>2020-09-05T09:58:30Z</time>
      </trkpt>
      <trkpt lat="45.05328" lon="6.03063">
        <ele>723.6</ele>
        <time>2020-09-05T09:58:31Z</time>
      </trkpt>
      <trkpt lat="45.05323" lon="6.03066">
        <ele>723.4</ele>
        <time>2020-09-05T09:58:32Z</time>
      </trkpt>
      <trkpt lat="45.05319" lon="6.03068">
        <ele>723.4</ele>
        <time>2020-09-05T09:58:33Z</time>
      </trkpt>
      <trkpt lat="45.05314" lon="6.03071">
        <ele>723.4</ele>
        <time>2020-09-05T09:58:34Z</time>
      </trkpt>
      <trkpt lat="45.0531" lon="6.03074">
        <ele>723.4</ele>
        <time>2020-09-05T09:58:35Z</time>
      </trkpt>
      <trkpt lat="45.05305" lon="6.03076">
        <ele>723.4</ele>
        <time>2020-09-05T09:58:36Z</time>
      </trkpt>
      <trkpt lat="45.05301" lon="6.03079">
        <ele>723.2</ele>
        <time>2020-09-05T09:58:37Z</time>
      </trkpt>
      <trkpt lat="45.05296" lon="6.03081">
        <ele>723.2</ele>
        <time>2020-09-05T09:58:38Z</time>
      </trkpt>
      <trkpt lat="45.05292" lon="6.03084">
        <ele>723.2</ele>
        <time>2020-09-05T09:58:39Z</time>
      </trkpt>
      <trkpt lat="45.05288" lon="6.03086">
        <ele>723.4</ele>
        <time>2020-09-05T09:58:40Z</time>
      </trkpt>
      <trkpt lat="45.05284" lon="6.03088">
        <ele>723.4</ele>
        <time>2020-09-05T09:58:41Z</time>
      </trkpt>
      <trkpt lat="45.0528" lon="6.03091">
        <ele>723.2</ele>
        <time>2020-09-05T09:58:42Z</time>
      </trkpt>
      <trkpt lat="45.05276" lon="6.03094">
        <ele>723.2</ele>
        <time>2020-09-05T09:58:43Z</time>
      </trkpt>
      <trkpt lat="45.05272" lon="6.03096">
        <ele>723.2</ele>
        <time>2020-09-05T09:58:44Z</time>
      </trkpt>
      <trkpt lat="45.05267" lon="6.03097">
        <ele>723.2</ele>
        <time>2020-09-05T09:58:45Z</time>
      </trkpt>
      <trkpt lat="45.05263" lon="6.03097">
        <ele>723.2</ele>
        <time>2020-09-05T09:58:46Z</time>
      </trkpt>
      <trkpt lat="45.05259" lon="6.03094">
        <ele>723.4</ele>
        <time>2020-09-05T09:58:47Z</time>
      </trkpt>
      <trkpt lat="45.05257" lon="6.03089">
        <ele>723.2</ele>
        <time>2020-09-05T09:58:48Z</time>
      </trkpt>
      <trkpt lat="45.05256" lon="6.03083">
        <ele>723.2</ele>
        <time>2020-09-05T09:58:49Z</time>
      </trkpt>
      <trkpt lat="45.05255" lon="6.03076">
        <ele>723.2</ele>
        <time>2020-09-05T09:58:50Z</time>
      </trkpt>
      <trkpt lat="45.05255" lon="6.0307">
        <ele>723.4</ele>
        <time>2020-09-05T09:58:51Z</time>
      </trkpt>
      <trkpt lat="45.05255" lon="6.03063">
        <ele>723.4</ele>
        <time>2020-09-05T09:58:52Z</time>
      </trkpt>
      <trkpt lat="45.05255" lon="6.03057">
        <ele>723.6</ele>
        <time>2020-09-05T09:58:53Z</time>
      </trkpt>
      <trkpt lat="45.05254" lon="6.0305">
        <ele>723.8</ele>
        <time>2020-09-05T09:58:54Z</time>
      </trkpt>
      <trkpt lat="45.05254" lon="6.03044">
        <ele>724</ele>
        <time>2020-09-05T09:58:55Z</time>
      </trkpt>
      <trkpt lat="45.05253" lon="6.03038">
        <ele>724</ele>
        <time>2020-09-05T09:58:56Z</time>
      </trkpt>
      <trkpt lat="45.05253" lon="6.03032">
        <ele>724.2</ele>
        <time>2020-09-05T09:58:57Z</time>
      </trkpt>
      <trkpt lat="45.05253" lon="6.03026">
        <ele>724.4</ele>
        <time>2020-09-05T09:58:58Z</time>
      </trkpt>
      <trkpt lat="45.05253" lon="6.03021">
        <ele>724.6</ele>
        <time>2020-09-05T09:58:59Z</time>
      </trkpt>
      <trkpt lat="45.05253" lon="6.03015">
        <ele>724.6</ele>
        <time>2020-09-05T09:59:00Z</time>
      </trkpt>
      <trkpt lat="45.05253" lon="6.03011">
        <ele>724.6</ele>
        <time>2020-09-05T09:59:01Z</time>
      </trkpt>
      <trkpt lat="45.05252" lon="6.03006">
        <ele>724.6</ele>
        <time>2020-09-05T09:59:02Z</time>
      </trkpt>
      <trkpt lat="45.05253" lon="6.03002">
        <ele>725</ele>
        <time>2020-09-05T09:59:03Z</time>
      </trkpt>
      <trkpt lat="45.05253" lon="6.02999">
        <ele>725.4</ele>
        <time>2020-09-05T09:59:04Z</time>
      </trkpt>
      <trkpt lat="45.05253" lon="6.02995">
        <ele>725.8</ele>
        <time>2020-09-05T09:59:05Z</time>
      </trkpt>
      <trkpt lat="45.05253" lon="6.02992">
        <ele>726.2</ele>
        <time>2020-09-05T09:59:06Z</time>
      </trkpt>
      <trkpt lat="45.05253" lon="6.02988">
        <ele>726.4</ele>
        <time>2020-09-05T09:59:07Z</time>
      </trkpt>
      <trkpt lat="45.05253" lon="6.02984">
        <ele>726.6</ele>
        <time>2020-09-05T09:59:08Z</time>
      </trkpt>
      <trkpt lat="45.05253" lon="6.02981">
        <ele>727</ele>
        <time>2020-09-05T09:59:09Z</time>
      </trkpt>
      <trkpt lat="45.05253" lon="6.02977">
        <ele>727.2</ele>
        <time>2020-09-05T09:59:10Z</time>
      </trkpt>
      <trkpt lat="45.05252" lon="6.02974">
        <ele>727.6</ele>
        <time>2020-09-05T09:59:11Z</time>
      </trkpt>
      <trkpt lat="45.05252" lon="6.0297">
        <ele>727.8</ele>
        <time>2020-09-05T09:59:12Z</time>
      </trkpt>
      <trkpt lat="45.05252" lon="6.02966">
        <ele>728</ele>
        <time>2020-09-05T09:59:13Z</time>
      </trkpt>
      <trkpt lat="45.05251" lon="6.02963">
        <ele>728.2</ele>
        <time>2020-09-05T09:59:14Z</time>
      </trkpt>
      <trkpt lat="45.0525" lon="6.02959">
        <ele>728.4</ele>
        <time>2020-09-05T09:59:15Z</time>
      </trkpt>
      <trkpt lat="45.05248" lon="6.02956">
        <ele>728.6</ele>
        <time>2020-09-05T09:59:16Z</time>
      </trkpt>
      <trkpt lat="45.05245" lon="6.02954">
        <ele>729</ele>
        <time>2020-09-05T09:59:17Z</time>
      </trkpt>
      <trkpt lat="45.05243" lon="6.02953">
        <ele>729</ele>
        <time>2020-09-05T09:59:18Z</time>
      </trkpt>
      <trkpt lat="45.0524" lon="6.02953">
        <ele>729.2</ele>
        <time>2020-09-05T09:59:19Z</time>
      </trkpt>
      <trkpt lat="45.05238" lon="6.02954">
        <ele>729.2</ele>
        <time>2020-09-05T09:59:20Z</time>
      </trkpt>
      <trkpt lat="45.05236" lon="6.02954">
        <ele>729.2</ele>
        <time>2020-09-05T09:59:21Z</time>
      </trkpt>
      <trkpt lat="45.05233" lon="6.02955">
        <ele>729</ele>
        <time>2020-09-05T09:59:22Z</time>
      </trkpt>
      <trkpt lat="45.0523" lon="6.02955">
        <ele>729.2</ele>
        <time>2020-09-05T09:59:23Z</time>
      </trkpt>
      <trkpt lat="45.05227" lon="6.02956">
        <ele>729.2</ele>
        <time>2020-09-05T09:59:24Z</time>
      </trkpt>
      <trkpt lat="45.05224" lon="6.02956">
        <ele>729.2</ele>
        <time>2020-09-05T09:59:25Z</time>
      </trkpt>
      <trkpt lat="45.0522" lon="6.02957">
        <ele>729</ele>
        <time>2020-09-05T09:59:26Z</time>
      </trkpt>
      <trkpt lat="45.05217" lon="6.02958">
        <ele>729</ele>
        <time>2020-09-05T09:59:27Z</time>
      </trkpt>
      <trkpt lat="45.05213" lon="6.02958">
        <ele>729</ele>
        <time>2020-09-05T09:59:28Z</time>
      </trkpt>
      <trkpt lat="45.05209" lon="6.02958">
        <ele>729</ele>
        <time>2020-09-05T09:59:29Z</time>
      </trkpt>
      <trkpt lat="45.05204" lon="6.02958">
        <ele>729</ele>
        <time>2020-09-05T09:59:30Z</time>
      </trkpt>
      <trkpt lat="45.052" lon="6.02958">
        <ele>729</ele>
        <time>2020-09-05T09:59:31Z</time>
      </trkpt>
      <trkpt lat="45.05196" lon="6.02957">
        <ele>729</ele>
        <time>2020-09-05T09:59:32Z</time>
      </trkpt>
      <trkpt lat="45.05192" lon="6.02957">
        <ele>728.8</ele>
        <time>2020-09-05T09:59:33Z</time>
      </trkpt>
      <trkpt lat="45.05187" lon="6.02956">
        <ele>728.6</ele>
        <time>2020-09-05T09:59:34Z</time>
      </trkpt>
      <trkpt lat="45.05182" lon="6.02955">
        <ele>728.6</ele>
        <time>2020-09-05T09:59:35Z</time>
      </trkpt>
      <trkpt lat="45.05177" lon="6.02954">
        <ele>728.4</ele>
        <time>2020-09-05T09:59:36Z</time>
      </trkpt>
      <trkpt lat="45.05172" lon="6.02953">
        <ele>728.4</ele>
        <time>2020-09-05T09:59:37Z</time>
      </trkpt>
      <trkpt lat="45.05166" lon="6.02951">
        <ele>728.4</ele>
        <time>2020-09-05T09:59:38Z</time>
      </trkpt>
      <trkpt lat="45.05161" lon="6.0295">
        <ele>728.6</ele>
        <time>2020-09-05T09:59:39Z</time>
      </trkpt>
      <trkpt lat="45.05157" lon="6.02948">
        <ele>728.4</ele>
        <time>2020-09-05T09:59:40Z</time>
      </trkpt>
      <trkpt lat="45.05152" lon="6.02948">
        <ele>728.4</ele>
        <time>2020-09-05T09:59:41Z</time>
      </trkpt>
      <trkpt lat="45.05147" lon="6.02947">
        <ele>728.2</ele>
        <time>2020-09-05T09:59:42Z</time>
      </trkpt>
      <trkpt lat="45.05143" lon="6.02946">
        <ele>728.2</ele>
        <time>2020-09-05T09:59:43Z</time>
      </trkpt>
      <trkpt lat="45.05139" lon="6.02944">
        <ele>728.4</ele>
        <time>2020-09-05T09:59:44Z</time>
      </trkpt>
      <trkpt lat="45.05134" lon="6.02943">
        <ele>728.4</ele>
        <time>2020-09-05T09:59:45Z</time>
      </trkpt>
      <trkpt lat="45.0513" lon="6.02942">
        <ele>728.2</ele>
        <time>2020-09-05T09:59:46Z</time>
      </trkpt>
      <trkpt lat="45.05126" lon="6.02941">
        <ele>728.4</ele>
        <time>2020-09-05T09:59:47Z</time>
      </trkpt>
      <trkpt lat="45.05122" lon="6.02939">
        <ele>728.4</ele>
        <time>2020-09-05T09:59:48Z</time>
      </trkpt>
      <trkpt lat="45.05118" lon="6.02938">
        <ele>728.2</ele>
        <time>2020-09-05T09:59:49Z</time>
      </trkpt>
      <trkpt lat="45.05114" lon="6.02936">
        <ele>728</ele>
        <time>2020-09-05T09:59:50Z</time>
      </trkpt>
      <trkpt lat="45.0511" lon="6.02935">
        <ele>728</ele>
        <time>2020-09-05T09:59:51Z</time>
      </trkpt>
      <trkpt lat="45.05106" lon="6.02933">
        <ele>728.2</ele>
        <time>2020-09-05T09:59:52Z</time>
      </trkpt>
      <trkpt lat="45.05102" lon="6.02931">
        <ele>728.2</ele>
        <time>2020-09-05T09:59:53Z</time>
      </trkpt>
      <trkpt lat="45.05098" lon="6.02929">
        <ele>728.2</ele>
        <time>2020-09-05T09:59:54Z</time>
      </trkpt>
      <trkpt lat="45.05094" lon="6.02927">
        <ele>728.4</ele>
        <time>2020-09-05T09:59:55Z</time>
      </trkpt>
      <trkpt lat="45.0509" lon="6.02925">
        <ele>728.4</ele>
        <time>2020-09-05T09:59:56Z</time>
      </trkpt>
      <trkpt lat="45.05086" lon="6.02922">
        <ele>728.4</ele>
        <time>2020-09-05T09:59:57Z</time>
      </trkpt>
      <trkpt lat="45.05082" lon="6.0292">
        <ele>728.4</ele>
        <time>2020-09-05T09:59:58Z</time>
      </trkpt>
      <trkpt lat="45.05078" lon="6.02918">
        <ele>728.4</ele>
        <time>2020-09-05T09:59:59Z</time>
      </trkpt>
      <trkpt lat="45.05073" lon="6.02916">
        <ele>728.6</ele>
        <time>2020-09-05T10:00:00Z</time>
      </trkpt>
      <trkpt lat="45.05069" lon="6.02914">
        <ele>728.6</ele>
        <time>2020-09-05T10:00:01Z</time>
      </trkpt>
      <trkpt lat="45.05064" lon="6.02912">
        <ele>728.6</ele>
        <time>2020-09-05T10:00:02Z</time>
      </trkpt>
      <trkpt lat="45.0506" lon="6.02909">
        <ele>728.4</ele>
        <time>2020-09-05T10:00:03Z</time>
      </trkpt>
      <trkpt lat="45.05056" lon="6.02907">
        <ele>728.4</ele>
        <time>2020-09-05T10:00:04Z</time>
      </trkpt>
      <trkpt lat="45.05052" lon="6.02904">
        <ele>728.6</ele>
        <time>2020-09-05T10:00:05Z</time>
      </trkpt>
      <trkpt lat="45.05048" lon="6.029">
        <ele>728.6</ele>
        <time>2020-09-05T10:00:06Z</time>
      </trkpt>
      <trkpt lat="45.05044" lon="6.02897">
        <ele>728.8</ele>
        <time>2020-09-05T10:00:07Z</time>
      </trkpt>
      <trkpt lat="45.05039" lon="6.02894">
        <ele>729</ele>
        <time>2020-09-05T10:00:08Z</time>
      </trkpt>
      <trkpt lat="45.05035" lon="6.02891">
        <ele>729</ele>
        <time>2020-09-05T10:00:09Z</time>
      </trkpt>
      <trkpt lat="45.05031" lon="6.02888">
        <ele>728.8</ele>
        <time>2020-09-05T10:00:10Z</time>
      </trkpt>
      <trkpt lat="45.05027" lon="6.02885">
        <ele>728.6</ele>
        <time>2020-09-05T10:00:11Z</time>
      </trkpt>
      <trkpt lat="45.05022" lon="6.02881">
        <ele>728.8</ele>
        <time>2020-09-05T10:00:12Z</time>
      </trkpt>
      <trkpt lat="45.05018" lon="6.02877">
        <ele>729</ele>
        <time>2020-09-05T10:00:13Z</time>
      </trkpt>
      <trkpt lat="45.05014" lon="6.02873">
        <ele>729.2</ele>
        <time>2020-09-05T10:00:14Z</time>
      </trkpt>
      <trkpt lat="45.0501" lon="6.02869">
        <ele>729.2</ele>
        <time>2020-09-05T10:00:15Z</time>
      </trkpt>
      <trkpt lat="45.05005" lon="6.02866">
        <ele>729.2</ele>
        <time>2020-09-05T10:00:16Z</time>
      </trkpt>
      <trkpt lat="45.05001" lon="6.02862">
        <ele>729.2</ele>
        <time>2020-09-05T10:00:17Z</time>
      </trkpt>
      <trkpt lat="45.04997" lon="6.02858">
        <ele>729.2</ele>
        <time>2020-09-05T10:00:18Z</time>
      </trkpt>
      <trkpt lat="45.04994" lon="6.02853">
        <ele>729.4</ele>
        <time>2020-09-05T10:00:19Z</time>
      </trkpt>
      <trkpt lat="45.0499" lon="6.02849">
        <ele>729.4</ele>
        <time>2020-09-05T10:00:20Z</time>
      </trkpt>
      <trkpt lat="45.04986" lon="6.02845">
        <ele>729.6</ele>
        <time>2020-09-05T10:00:21Z</time>
      </trkpt>
      <trkpt lat="45.04983" lon="6.02841">
        <ele>729.6</ele>
        <time>2020-09-05T10:00:22Z</time>
      </trkpt>
      <trkpt lat="45.04979" lon="6.02837">
        <ele>729.6</ele>
        <time>2020-09-05T10:00:23Z</time>
      </trkpt>
      <trkpt lat="45.04976" lon="6.02832">
        <ele>729.6</ele>
        <time>2020-09-05T10:00:24Z</time>
      </trkpt>
      <trkpt lat="45.04972" lon="6.02828">
        <ele>729.8</ele>
        <time>2020-09-05T10:00:25Z</time>
      </trkpt>
      <trkpt lat="45.04969" lon="6.02824">
        <ele>730</ele>
        <time>2020-09-05T10:00:26Z</time>
      </trkpt>
      <trkpt lat="45.04966" lon="6.02821">
        <ele>730.2</ele>
        <time>2020-09-05T10:00:27Z</time>
      </trkpt>
      <trkpt lat="45.04963" lon="6.02817">
        <ele>730.4</ele>
        <time>2020-09-05T10:00:28Z</time>
      </trkpt>
      <trkpt lat="45.0496" lon="6.02813">
        <ele>730.4</ele>
        <time>2020-09-05T10:00:29Z</time>
      </trkpt>
      <trkpt lat="45.04957" lon="6.0281">
        <ele>730.8</ele>
        <time>2020-09-05T10:00:30Z</time>
      </trkpt>
      <trkpt lat="45.04955" lon="6.02807">
        <ele>731.4</ele>
        <time>2020-09-05T10:00:31Z</time>
      </trkpt>
      <trkpt lat="45.04954" lon="6.02804">
        <ele>731.6</ele>
        <time>2020-09-05T10:00:32Z</time>
      </trkpt>
      <trkpt lat="45.04952" lon="6.02801">
        <ele>732.2</ele>
        <time>2020-09-05T10:00:33Z</time>
      </trkpt>
      <trkpt lat="45.0495" lon="6.02798">
        <ele>732.2</ele>
        <time>2020-09-05T10:00:34Z</time>
      </trkpt>
      <trkpt lat="45.04948" lon="6.02796">
        <ele>732.4</ele>
        <time>2020-09-05T10:00:35Z</time>
      </trkpt>
      <trkpt lat="45.04946" lon="6.02793">
        <ele>732.6</ele>
        <time>2020-09-05T10:00:36Z</time>
      </trkpt>
      <trkpt lat="45.04945" lon="6.0279">
        <ele>732.8</ele>
        <time>2020-09-05T10:00:37Z</time>
      </trkpt>
      <trkpt lat="45.04943" lon="6.02787">
        <ele>732.8</ele>
        <time>2020-09-05T10:00:38Z</time>
      </trkpt>
      <trkpt lat="45.04941" lon="6.02784">
        <ele>733</ele>
        <time>2020-09-05T10:00:39Z</time>
      </trkpt>
      <trkpt lat="45.04939" lon="6.02781">
        <ele>733.2</ele>
        <time>2020-09-05T10:00:40Z</time>
      </trkpt>
      <trkpt lat="45.04938" lon="6.02779">
        <ele>733.4</ele>
        <time>2020-09-05T10:00:41Z</time>
      </trkpt>
      <trkpt lat="45.04936" lon="6.02776">
        <ele>733.6</ele>
        <time>2020-09-05T10:00:42Z</time>
      </trkpt>
      <trkpt lat="45.04935" lon="6.02773">
        <ele>733.8</ele>
        <time>2020-09-05T10:00:43Z</time>
      </trkpt>
      <trkpt lat="45.04933" lon="6.0277">
        <ele>734.2</ele>
        <time>2020-09-05T10:00:44Z</time>
      </trkpt>
      <trkpt lat="45.04931" lon="6.02767">
        <ele>734.6</ele>
        <time>2020-09-05T10:00:45Z</time>
      </trkpt>
      <trkpt lat="45.0493" lon="6.02764">
        <ele>734.8</ele>
        <time>2020-09-05T10:00:46Z</time>
      </trkpt>
      <trkpt lat="45.04928" lon="6.02762">
        <ele>735</ele>
        <time>2020-09-05T10:00:47Z</time>
      </trkpt>
      <trkpt lat="45.04926" lon="6.02759">
        <ele>735</ele>
        <time>2020-09-05T10:00:48Z</time>
      </trkpt>
      <trkpt lat="45.04925" lon="6.02757">
        <ele>735.2</ele>
        <time>2020-09-05T10:00:49Z</time>
      </trkpt>
      <trkpt lat="45.04923" lon="6.02755">
        <ele>735.4</ele>
        <time>2020-09-05T10:00:50Z</time>
      </trkpt>
      <trkpt lat="45.04922" lon="6.02752">
        <ele>735.4</ele>
        <time>2020-09-05T10:00:52Z</time>
      </trkpt>
      <trkpt lat="45.04921" lon="6.0275">
        <ele>736.2</ele>
        <time>2020-09-05T10:01:03Z</time>
      </trkpt>
      <trkpt lat="45.04919" lon="6.02747">
        <ele>736.8</ele>
        <time>2020-09-05T10:01:26Z</time>
      </trkpt>
      <trkpt lat="45.04917" lon="6.02744">
        <ele>736.8</ele>
        <time>2020-09-05T10:01:28Z</time>
      </trkpt>
      <trkpt lat="45.04915" lon="6.02742">
        <ele>737</ele>
        <time>2020-09-05T10:01:30Z</time>
      </trkpt>
      <trkpt lat="45.04913" lon="6.02739">
        <ele>737.2</ele>
        <time>2020-09-05T10:01:32Z</time>
      </trkpt>
      <trkpt lat="45.04911" lon="6.02735">
        <ele>737.6</ele>
        <time>2020-09-05T10:01:34Z</time>
      </trkpt>
      <trkpt lat="45.04908" lon="6.02732">
        <ele>738</ele>
        <time>2020-09-05T10:01:36Z</time>
      </trkpt>
      <trkpt lat="45.04907" lon="6.0273">
        <ele>738.2</ele>
        <time>2020-09-05T10:01:37Z</time>
      </trkpt>
      <trkpt lat="45.04905" lon="6.02728">
        <ele>738.4</ele>
        <time>2020-09-05T10:01:38Z</time>
      </trkpt>
      <trkpt lat="45.04904" lon="6.02726">
        <ele>738.4</ele>
        <time>2020-09-05T10:01:39Z</time>
      </trkpt>
      <trkpt lat="45.04902" lon="6.02724">
        <ele>738.8</ele>
        <time>2020-09-05T10:01:40Z</time>
      </trkpt>
      <trkpt lat="45.049" lon="6.02723">
        <ele>739</ele>
        <time>2020-09-05T10:01:41Z</time>
      </trkpt>
      <trkpt lat="45.04898" lon="6.02722">
        <ele>739.2</ele>
        <time>2020-09-05T10:01:42Z</time>
      </trkpt>
      <trkpt lat="45.04896" lon="6.02721">
        <ele>739.6</ele>
        <time>2020-09-05T10:01:43Z</time>
      </trkpt>
      <trkpt lat="45.04894" lon="6.0272">
        <ele>739.6</ele>
        <time>2020-09-05T10:01:44Z</time>
      </trkpt>
      <trkpt lat="45.04892" lon="6.02719">
        <ele>740</ele>
        <time>2020-09-05T10:01:45Z</time>
      </trkpt>
      <trkpt lat="45.0489" lon="6.02718">
        <ele>740.2</ele>
        <time>2020-09-05T10:01:46Z</time>
      </trkpt>
      <trkpt lat="45.04888" lon="6.02717">
        <ele>740.4</ele>
        <time>2020-09-05T10:01:47Z</time>
      </trkpt>
      <trkpt lat="45.04886" lon="6.02717">
        <ele>740.4</ele>
        <time>2020-09-05T10:01:48Z</time>
      </trkpt>
      <trkpt lat="45.04884" lon="6.02717">
        <ele>740.8</ele>
        <time>2020-09-05T10:01:49Z</time>
      </trkpt>
      <trkpt lat="45.04882" lon="6.02716">
        <ele>741.2</ele>
        <time>2020-09-05T10:01:50Z</time>
      </trkpt>
      <trkpt lat="45.04879" lon="6.02716">
        <ele>741.4</ele>
        <time>2020-09-05T10:01:51Z</time>
      </trkpt>
      <trkpt lat="45.04877" lon="6.02716">
        <ele>741.4</ele>
        <time>2020-09-05T10:01:52Z</time>
      </trkpt>
      <trkpt lat="45.04875" lon="6.02716">
        <ele>741.6</ele>
        <time>2020-09-05T10:01:53Z</time>
      </trkpt>
      <trkpt lat="45.04873" lon="6.02716">
        <ele>741.8</ele>
        <time>2020-09-05T10:01:54Z</time>
      </trkpt>
      <trkpt lat="45.04871" lon="6.02716">
        <ele>742.2</ele>
        <time>2020-09-05T10:01:55Z</time>
      </trkpt>
      <trkpt lat="45.04869" lon="6.02717">
        <ele>742.4</ele>
        <time>2020-09-05T10:01:56Z</time>
      </trkpt>
      <trkpt lat="45.04867" lon="6.02717">
        <ele>742.8</ele>
        <time>2020-09-05T10:01:57Z</time>
      </trkpt>
      <trkpt lat="45.04865" lon="6.02718">
        <ele>743</ele>
        <time>2020-09-05T10:01:58Z</time>
      </trkpt>
      <trkpt lat="45.04862" lon="6.02719">
        <ele>743.2</ele>
        <time>2020-09-05T10:02:00Z</time>
      </trkpt>
      <trkpt lat="45.0486" lon="6.02719">
        <ele>743.4</ele>
        <time>2020-09-05T10:02:01Z</time>
      </trkpt>
      <trkpt lat="45.04858" lon="6.0272">
        <ele>743.8</ele>
        <time>2020-09-05T10:02:02Z</time>
      </trkpt>
      <trkpt lat="45.04856" lon="6.0272">
        <ele>743.8</ele>
        <time>2020-09-05T10:02:03Z</time>
      </trkpt>
      <trkpt lat="45.04853" lon="6.02721">
        <ele>744</ele>
        <time>2020-09-05T10:02:04Z</time>
      </trkpt>
      <trkpt lat="45.04851" lon="6.02721">
        <ele>744</ele>
        <time>2020-09-05T10:02:05Z</time>
      </trkpt>
      <trkpt lat="45.04849" lon="6.02721">
        <ele>744.2</ele>
        <time>2020-09-05T10:02:06Z</time>
      </trkpt>
      <trkpt lat="45.04847" lon="6.02722">
        <ele>744.8</ele>
        <time>2020-09-05T10:02:07Z</time>
      </trkpt>
      <trkpt lat="45.04845" lon="6.02723">
        <ele>745.2</ele>
        <time>2020-09-05T10:02:08Z</time>
      </trkpt>
      <trkpt lat="45.04843" lon="6.02724">
        <ele>745.4</ele>
        <time>2020-09-05T10:02:09Z</time>
      </trkpt>
      <trkpt lat="45.04841" lon="6.02724">
        <ele>745.4</ele>
        <time>2020-09-05T10:02:10Z</time>
      </trkpt>
      <trkpt lat="45.04831" lon="6.02728">
        <ele>746.8</ele>
        <time>2020-09-05T10:02:15Z</time>
      </trkpt>
      <trkpt lat="45.04825" lon="6.02732">
        <ele>747.6</ele>
        <time>2020-09-05T10:02:18Z</time>
      </trkpt>
      <trkpt lat="45.04823" lon="6.02733">
        <ele>747.6</ele>
        <time>2020-09-05T10:02:19Z</time>
      </trkpt>
      <trkpt lat="45.04821" lon="6.02733">
        <ele>747.8</ele>
        <time>2020-09-05T10:02:20Z</time>
      </trkpt>
      <trkpt lat="45.04812" lon="6.02737">
        <ele>749.4</ele>
        <time>2020-09-05T10:02:25Z</time>
      </trkpt>
      <trkpt lat="45.04802" lon="6.02742">
        <ele>751</ele>
        <time>2020-09-05T10:02:31Z</time>
      </trkpt>
      <trkpt lat="45.04794" lon="6.02747">
        <ele>752</ele>
        <time>2020-09-05T10:02:36Z</time>
      </trkpt>
      <trkpt lat="45.04791" lon="6.0275">
        <ele>752.4</ele>
        <time>2020-09-05T10:02:38Z</time>
      </trkpt>
      <trkpt lat="45.04789" lon="6.02751">
        <ele>752.8</ele>
        <time>2020-09-05T10:02:39Z</time>
      </trkpt>
      <trkpt lat="45.04787" lon="6.02752">
        <ele>753</ele>
        <time>2020-09-05T10:02:40Z</time>
      </trkpt>
      <trkpt lat="45.04784" lon="6.02754">
        <ele>753.4</ele>
        <time>2020-09-05T10:02:42Z</time>
      </trkpt>
      <trkpt lat="45.04782" lon="6.02755">
        <ele>753.6</ele>
        <time>2020-09-05T10:02:43Z</time>
      </trkpt>
      <trkpt lat="45.04781" lon="6.02757">
        <ele>753.8</ele>
        <time>2020-09-05T10:02:44Z</time>
      </trkpt>
      <trkpt lat="45.04779" lon="6.02759">
        <ele>754</ele>
        <time>2020-09-05T10:02:45Z</time>
      </trkpt>
      <trkpt lat="45.04777" lon="6.0276">
        <ele>754.4</ele>
        <time>2020-09-05T10:02:46Z</time>
      </trkpt>
      <trkpt lat="45.04775" lon="6.02762">
        <ele>754.8</ele>
        <time>2020-09-05T10:02:47Z</time>
      </trkpt>
      <trkpt lat="45.04773" lon="6.02764">
        <ele>755</ele>
        <time>2020-09-05T10:02:48Z</time>
      </trkpt>
      <trkpt lat="45.04771" lon="6.02766">
        <ele>755.2</ele>
        <time>2020-09-05T10:02:49Z</time>
      </trkpt>
      <trkpt lat="45.04768" lon="6.02768">
        <ele>755.4</ele>
        <time>2020-09-05T10:02:50Z</time>
      </trkpt>
      <trkpt lat="45.04767" lon="6.02769">
        <ele>755.6</ele>
        <time>2020-09-05T10:02:51Z</time>
      </trkpt>
      <trkpt lat="45.04765" lon="6.02771">
        <ele>756</ele>
        <time>2020-09-05T10:02:52Z</time>
      </trkpt>
      <trkpt lat="45.04763" lon="6.02772">
        <ele>756.2</ele>
        <time>2020-09-05T10:02:53Z</time>
      </trkpt>
      <trkpt lat="45.04761" lon="6.02774">
        <ele>756.4</ele>
        <time>2020-09-05T10:02:54Z</time>
      </trkpt>
      <trkpt lat="45.0476" lon="6.02776">
        <ele>756.6</ele>
        <time>2020-09-05T10:02:55Z</time>
      </trkpt>
      <trkpt lat="45.04758" lon="6.02777">
        <ele>756.8</ele>
        <time>2020-09-05T10:02:56Z</time>
      </trkpt>
      <trkpt lat="45.04756" lon="6.02779">
        <ele>756.8</ele>
        <time>2020-09-05T10:02:57Z</time>
      </trkpt>
      <trkpt lat="45.04754" lon="6.0278">
        <ele>757.2</ele>
        <time>2020-09-05T10:02:58Z</time>
      </trkpt>
      <trkpt lat="45.04752" lon="6.02782">
        <ele>757.6</ele>
        <time>2020-09-05T10:02:59Z</time>
      </trkpt>
      <trkpt lat="45.04751" lon="6.02783">
        <ele>757.8</ele>
        <time>2020-09-05T10:03:00Z</time>
      </trkpt>
      <trkpt lat="45.04749" lon="6.02785">
        <ele>758</ele>
        <time>2020-09-05T10:03:01Z</time>
      </trkpt>
      <trkpt lat="45.04747" lon="6.02787">
        <ele>758.2</ele>
        <time>2020-09-05T10:03:02Z</time>
      </trkpt>
      <trkpt lat="45.04745" lon="6.02787">
        <ele>758.4</ele>
        <time>2020-09-05T10:03:03Z</time>
      </trkpt>
      <trkpt lat="45.04743" lon="6.02788">
        <ele>758.6</ele>
        <time>2020-09-05T10:03:04Z</time>
      </trkpt>
      <trkpt lat="45.04741" lon="6.02788">
        <ele>759</ele>
        <time>2020-09-05T10:03:05Z</time>
      </trkpt>
      <trkpt lat="45.04739" lon="6.02789">
        <ele>759.4</ele>
        <time>2020-09-05T10:03:06Z</time>
      </trkpt>
      <trkpt lat="45.04736" lon="6.02789">
        <ele>759.4</ele>
        <time>2020-09-05T10:03:07Z</time>
      </trkpt>
      <trkpt lat="45.04734" lon="6.02788">
        <ele>759.6</ele>
        <time>2020-09-05T10:03:08Z</time>
      </trkpt>
      <trkpt lat="45.04732" lon="6.02788">
        <ele>760</ele>
        <time>2020-09-05T10:03:09Z</time>
      </trkpt>
      <trkpt lat="45.0473" lon="6.02787">
        <ele>760.6</ele>
        <time>2020-09-05T10:03:10Z</time>
      </trkpt>
      <trkpt lat="45.04728" lon="6.02786">
        <ele>761</ele>
        <time>2020-09-05T10:03:11Z</time>
      </trkpt>
      <trkpt lat="45.04726" lon="6.02785">
        <ele>761.4</ele>
        <time>2020-09-05T10:03:12Z</time>
      </trkpt>
      <trkpt lat="45.04724" lon="6.02784">
        <ele>761.8</ele>
        <time>2020-09-05T10:03:13Z</time>
      </trkpt>
      <trkpt lat="45.04722" lon="6.02783">
        <ele>762</ele>
        <time>2020-09-05T10:03:14Z</time>
      </trkpt>
      <trkpt lat="45.04721" lon="6.02781">
        <ele>762.2</ele>
        <time>2020-09-05T10:03:15Z</time>
      </trkpt>
      <trkpt lat="45.04719" lon="6.0278">
        <ele>762.4</ele>
        <time>2020-09-05T10:03:16Z</time>
      </trkpt>
      <trkpt lat="45.04717" lon="6.02778">
        <ele>762.8</ele>
        <time>2020-09-05T10:03:17Z</time>
      </trkpt>
      <trkpt lat="45.04715" lon="6.02776">
        <ele>762.8</ele>
        <time>2020-09-05T10:03:18Z</time>
      </trkpt>
      <trkpt lat="45.04713" lon="6.02775">
        <ele>763</ele>
        <time>2020-09-05T10:03:19Z</time>
      </trkpt>
      <trkpt lat="45.04712" lon="6.02773">
        <ele>763.4</ele>
        <time>2020-09-05T10:03:20Z</time>
      </trkpt>
      <trkpt lat="45.04709" lon="6.02772">
        <ele>763.4</ele>
        <time>2020-09-05T10:03:21Z</time>
      </trkpt>
      <trkpt lat="45.04707" lon="6.02771">
        <ele>763.6</ele>
        <time>2020-09-05T10:03:22Z</time>
      </trkpt>
      <trkpt lat="45.04706" lon="6.02769">
        <ele>764</ele>
        <time>2020-09-05T10:03:23Z</time>
      </trkpt>
      <trkpt lat="45.04704" lon="6.02768">
        <ele>764.2</ele>
        <time>2020-09-05T10:03:24Z</time>
      </trkpt>
      <trkpt lat="45.04694" lon="6.02761">
        <ele>765.4</ele>
        <time>2020-09-05T10:03:29Z</time>
      </trkpt>
      <trkpt lat="45.04685" lon="6.02754">
        <ele>766.2</ele>
        <time>2020-09-05T10:03:34Z</time>
      </trkpt>
      <trkpt lat="45.0468" lon="6.0275">
        <ele>766.8</ele>
        <time>2020-09-05T10:03:37Z</time>
      </trkpt>
      <trkpt lat="45.04678" lon="6.02749">
        <ele>766.8</ele>
        <time>2020-09-05T10:03:38Z</time>
      </trkpt>
      <trkpt lat="45.04676" lon="6.02747">
        <ele>767.2</ele>
        <time>2020-09-05T10:03:39Z</time>
      </trkpt>
      <trkpt lat="45.04674" lon="6.02745">
        <ele>767.4</ele>
        <time>2020-09-05T10:03:40Z</time>
      </trkpt>
      <trkpt lat="45.04671" lon="6.02742">
        <ele>768</ele>
        <time>2020-09-05T10:03:42Z</time>
      </trkpt>
      <trkpt lat="45.04662" lon="6.02735">
        <ele>769</ele>
        <time>2020-09-05T10:03:47Z</time>
      </trkpt>
      <trkpt lat="45.04652" lon="6.0273">
        <ele>770.4</ele>
        <time>2020-09-05T10:03:53Z</time>
      </trkpt>
      <trkpt lat="45.04642" lon="6.02729">
        <ele>771.6</ele>
        <time>2020-09-05T10:03:58Z</time>
      </trkpt>
      <trkpt lat="45.04631" lon="6.02734">
        <ele>772.8</ele>
        <time>2020-09-05T10:04:03Z</time>
      </trkpt>
      <trkpt lat="45.04621" lon="6.02741">
        <ele>773.4</ele>
        <time>2020-09-05T10:04:07Z</time>
      </trkpt>
      <trkpt lat="45.04611" lon="6.02747">
        <ele>774.8</ele>
        <time>2020-09-05T10:04:12Z</time>
      </trkpt>
      <trkpt lat="45.04603" lon="6.02752">
        <ele>775.8</ele>
        <time>2020-09-05T10:04:17Z</time>
      </trkpt>
      <trkpt lat="45.04594" lon="6.02757">
        <ele>777</ele>
        <time>2020-09-05T10:04:22Z</time>
      </trkpt>
      <trkpt lat="45.04584" lon="6.02764">
        <ele>778</ele>
        <time>2020-09-05T10:04:27Z</time>
      </trkpt>
      <trkpt lat="45.04578" lon="6.02765">
        <ele>778.8</ele>
        <time>2020-09-05T10:04:30Z</time>
      </trkpt>
      <trkpt lat="45.04569" lon="6.02766">
        <ele>779.8</ele>
        <time>2020-09-05T10:04:35Z</time>
      </trkpt>
      <trkpt lat="45.04565" lon="6.02767">
        <ele>780.8</ele>
        <time>2020-09-05T10:04:37Z</time>
      </trkpt>
      <trkpt lat="45.04557" lon="6.02774">
        <ele>781.6</ele>
        <time>2020-09-05T10:04:41Z</time>
      </trkpt>
      <trkpt lat="45.04548" lon="6.02782">
        <ele>782.8</ele>
        <time>2020-09-05T10:04:45Z</time>
      </trkpt>
      <trkpt lat="45.04542" lon="6.02787">
        <ele>783.4</ele>
        <time>2020-09-05T10:04:48Z</time>
      </trkpt>
      <trkpt lat="45.0454" lon="6.02789">
        <ele>783.6</ele>
        <time>2020-09-05T10:04:49Z</time>
      </trkpt>
      <trkpt lat="45.04539" lon="6.02791">
        <ele>783.6</ele>
        <time>2020-09-05T10:04:50Z</time>
      </trkpt>
      <trkpt lat="45.04537" lon="6.02794">
        <ele>783.8</ele>
        <time>2020-09-05T10:04:51Z</time>
      </trkpt>
      <trkpt lat="45.04535" lon="6.02796">
        <ele>784.2</ele>
        <time>2020-09-05T10:04:52Z</time>
      </trkpt>
      <trkpt lat="45.04533" lon="6.02797">
        <ele>784.6</ele>
        <time>2020-09-05T10:04:53Z</time>
      </trkpt>
      <trkpt lat="45.04531" lon="6.02799">
        <ele>784.6</ele>
        <time>2020-09-05T10:04:54Z</time>
      </trkpt>
      <trkpt lat="45.04529" lon="6.028">
        <ele>785</ele>
        <time>2020-09-05T10:04:55Z</time>
      </trkpt>
      <trkpt lat="45.04527" lon="6.02801">
        <ele>785</ele>
        <time>2020-09-05T10:04:56Z</time>
      </trkpt>
      <trkpt lat="45.04525" lon="6.02802">
        <ele>785.4</ele>
        <time>2020-09-05T10:04:57Z</time>
      </trkpt>
      <trkpt lat="45.04523" lon="6.02804">
        <ele>785.6</ele>
        <time>2020-09-05T10:04:58Z</time>
      </trkpt>
      <trkpt lat="45.04521" lon="6.02805">
        <ele>786</ele>
        <time>2020-09-05T10:04:59Z</time>
      </trkpt>
      <trkpt lat="45.04511" lon="6.02806">
        <ele>787</ele>
        <time>2020-09-05T10:05:04Z</time>
      </trkpt>
      <trkpt lat="45.04501" lon="6.02805">
        <ele>788.4</ele>
        <time>2020-09-05T10:05:08Z</time>
      </trkpt>
      <trkpt lat="45.04491" lon="6.02805">
        <ele>789.6</ele>
        <time>2020-09-05T10:05:12Z</time>
      </trkpt>
      <trkpt lat="45.04481" lon="6.02805">
        <ele>790.6</ele>
        <time>2020-09-05T10:05:16Z</time>
      </trkpt>
      <trkpt lat="45.0447" lon="6.02808">
        <ele>791.6</ele>
        <time>2020-09-05T10:05:20Z</time>
      </trkpt>
      <trkpt lat="45.0446" lon="6.02812">
        <ele>792.8</ele>
        <time>2020-09-05T10:05:25Z</time>
      </trkpt>
      <trkpt lat="45.04456" lon="6.02815">
        <ele>793.2</ele>
        <time>2020-09-05T10:05:27Z</time>
      </trkpt>
      <trkpt lat="45.04454" lon="6.02817">
        <ele>793.6</ele>
        <time>2020-09-05T10:05:28Z</time>
      </trkpt>
      <trkpt lat="45.04452" lon="6.02819">
        <ele>793.8</ele>
        <time>2020-09-05T10:05:29Z</time>
      </trkpt>
      <trkpt lat="45.0445" lon="6.0282">
        <ele>793.8</ele>
        <time>2020-09-05T10:05:30Z</time>
      </trkpt>
      <trkpt lat="45.04441" lon="6.02824">
        <ele>794.8</ele>
        <time>2020-09-05T10:05:34Z</time>
      </trkpt>
      <trkpt lat="45.04439" lon="6.02825">
        <ele>795.2</ele>
        <time>2020-09-05T10:05:35Z</time>
      </trkpt>
      <trkpt lat="45.04437" lon="6.02826">
        <ele>795.4</ele>
        <time>2020-09-05T10:05:36Z</time>
      </trkpt>
      <trkpt lat="45.04435" lon="6.02827">
        <ele>795.6</ele>
        <time>2020-09-05T10:05:37Z</time>
      </trkpt>
      <trkpt lat="45.04434" lon="6.02828">
        <ele>796</ele>
        <time>2020-09-05T10:05:38Z</time>
      </trkpt>
      <trkpt lat="45.04432" lon="6.02829">
        <ele>796.2</ele>
        <time>2020-09-05T10:05:39Z</time>
      </trkpt>
      <trkpt lat="45.04429" lon="6.02829">
        <ele>796.4</ele>
        <time>2020-09-05T10:05:40Z</time>
      </trkpt>
      <trkpt lat="45.04427" lon="6.0283">
        <ele>796.8</ele>
        <time>2020-09-05T10:05:41Z</time>
      </trkpt>
      <trkpt lat="45.04425" lon="6.0283">
        <ele>796.8</ele>
        <time>2020-09-05T10:05:42Z</time>
      </trkpt>
      <trkpt lat="45.04423" lon="6.0283">
        <ele>796.8</ele>
        <time>2020-09-05T10:05:43Z</time>
      </trkpt>
      <trkpt lat="45.04421" lon="6.0283">
        <ele>797.2</ele>
        <time>2020-09-05T10:05:44Z</time>
      </trkpt>
      <trkpt lat="45.04419" lon="6.0283">
        <ele>797.4</ele>
        <time>2020-09-05T10:05:45Z</time>
      </trkpt>
      <trkpt lat="45.04416" lon="6.02831">
        <ele>797.6</ele>
        <time>2020-09-05T10:05:46Z</time>
      </trkpt>
      <trkpt lat="45.04414" lon="6.02831">
        <ele>798.2</ele>
        <time>2020-09-05T10:05:47Z</time>
      </trkpt>
      <trkpt lat="45.04412" lon="6.02831">
        <ele>798.4</ele>
        <time>2020-09-05T10:05:48Z</time>
      </trkpt>
      <trkpt lat="45.0441" lon="6.02832">
        <ele>798.4</ele>
        <time>2020-09-05T10:05:49Z</time>
      </trkpt>
      <trkpt lat="45.04408" lon="6.02832">
        <ele>799</ele>
        <time>2020-09-05T10:05:50Z</time>
      </trkpt>
      <trkpt lat="45.04407" lon="6.02833">
        <ele>799</ele>
        <time>2020-09-05T10:05:51Z</time>
      </trkpt>
      <trkpt lat="45.04405" lon="6.02834">
        <ele>799.2</ele>
        <time>2020-09-05T10:05:52Z</time>
      </trkpt>
      <trkpt lat="45.04401" lon="6.02835">
        <ele>799.6</ele>
        <time>2020-09-05T10:05:54Z</time>
      </trkpt>
      <trkpt lat="45.04396" lon="6.02837">
        <ele>800</ele>
        <time>2020-09-05T10:05:56Z</time>
      </trkpt>
      <trkpt lat="45.04387" lon="6.02841">
        <ele>801.4</ele>
        <time>2020-09-05T10:06:01Z</time>
      </trkpt>
      <trkpt lat="45.04385" lon="6.02842">
        <ele>801.6</ele>
        <time>2020-09-05T10:06:02Z</time>
      </trkpt>
      <trkpt lat="45.04383" lon="6.02844">
        <ele>801.6</ele>
        <time>2020-09-05T10:06:03Z</time>
      </trkpt>
      <trkpt lat="45.04381" lon="6.02845">
        <ele>801.8</ele>
        <time>2020-09-05T10:06:04Z</time>
      </trkpt>
      <trkpt lat="45.04379" lon="6.02846">
        <ele>802.2</ele>
        <time>2020-09-05T10:06:05Z</time>
      </trkpt>
      <trkpt lat="45.04377" lon="6.02847">
        <ele>802.4</ele>
        <time>2020-09-05T10:06:06Z</time>
      </trkpt>
      <trkpt lat="45.04375" lon="6.02848">
        <ele>802.4</ele>
        <time>2020-09-05T10:06:07Z</time>
      </trkpt>
      <trkpt lat="45.04373" lon="6.0285">
        <ele>802.6</ele>
        <time>2020-09-05T10:06:08Z</time>
      </trkpt>
      <trkpt lat="45.04371" lon="6.02851">
        <ele>803</ele>
        <time>2020-09-05T10:06:09Z</time>
      </trkpt>
      <trkpt lat="45.04369" lon="6.02852">
        <ele>803.4</ele>
        <time>2020-09-05T10:06:10Z</time>
      </trkpt>
      <trkpt lat="45.04367" lon="6.02854">
        <ele>803.6</ele>
        <time>2020-09-05T10:06:11Z</time>
      </trkpt>
      <trkpt lat="45.04365" lon="6.02856">
        <ele>803.8</ele>
        <time>2020-09-05T10:06:12Z</time>
      </trkpt>
      <trkpt lat="45.04363" lon="6.02858">
        <ele>804</ele>
        <time>2020-09-05T10:06:13Z</time>
      </trkpt>
      <trkpt lat="45.04361" lon="6.0286">
        <ele>804.4</ele>
        <time>2020-09-05T10:06:14Z</time>
      </trkpt>
      <trkpt lat="45.04359" lon="6.02861">
        <ele>804.6</ele>
        <time>2020-09-05T10:06:15Z</time>
      </trkpt>
      <trkpt lat="45.04357" lon="6.02862">
        <ele>804.8</ele>
        <time>2020-09-05T10:06:16Z</time>
      </trkpt>
      <trkpt lat="45.04355" lon="6.02863">
        <ele>805.2</ele>
        <time>2020-09-05T10:06:17Z</time>
      </trkpt>
      <trkpt lat="45.04353" lon="6.02865">
        <ele>805.4</ele>
        <time>2020-09-05T10:06:18Z</time>
      </trkpt>
      <trkpt lat="45.04351" lon="6.02866">
        <ele>805.6</ele>
        <time>2020-09-05T10:06:19Z</time>
      </trkpt>
      <trkpt lat="45.04348" lon="6.02868">
        <ele>805.8</ele>
        <time>2020-09-05T10:06:20Z</time>
      </trkpt>
      <trkpt lat="45.04346" lon="6.0287">
        <ele>806</ele>
        <time>2020-09-05T10:06:21Z</time>
      </trkpt>
      <trkpt lat="45.04344" lon="6.02871">
        <ele>806.2</ele>
        <time>2020-09-05T10:06:22Z</time>
      </trkpt>
      <trkpt lat="45.04343" lon="6.02873">
        <ele>806.4</ele>
        <time>2020-09-05T10:06:23Z</time>
      </trkpt>
      <trkpt lat="45.04341" lon="6.02875">
        <ele>806.6</ele>
        <time>2020-09-05T10:06:24Z</time>
      </trkpt>
      <trkpt lat="45.04339" lon="6.02877">
        <ele>806.8</ele>
        <time>2020-09-05T10:06:25Z</time>
      </trkpt>
      <trkpt lat="45.0433" lon="6.02883">
        <ele>807.4</ele>
        <time>2020-09-05T10:06:29Z</time>
      </trkpt>
      <trkpt lat="45.04323" lon="6.02887">
        <ele>808.6</ele>
        <time>2020-09-05T10:06:32Z</time>
      </trkpt>
      <trkpt lat="45.04321" lon="6.02887">
        <ele>809</ele>
        <time>2020-09-05T10:06:33Z</time>
      </trkpt>
      <trkpt lat="45.04318" lon="6.02888">
        <ele>809.4</ele>
        <time>2020-09-05T10:06:34Z</time>
      </trkpt>
      <trkpt lat="45.04316" lon="6.0289">
        <ele>809.6</ele>
        <time>2020-09-05T10:06:35Z</time>
      </trkpt>
      <trkpt lat="45.04313" lon="6.02891">
        <ele>809.8</ele>
        <time>2020-09-05T10:06:36Z</time>
      </trkpt>
      <trkpt lat="45.04311" lon="6.02892">
        <ele>810</ele>
        <time>2020-09-05T10:06:37Z</time>
      </trkpt>
      <trkpt lat="45.04309" lon="6.02893">
        <ele>810.2</ele>
        <time>2020-09-05T10:06:38Z</time>
      </trkpt>
      <trkpt lat="45.04306" lon="6.02894">
        <ele>810.4</ele>
        <time>2020-09-05T10:06:39Z</time>
      </trkpt>
      <trkpt lat="45.04304" lon="6.02895">
        <ele>810.8</ele>
        <time>2020-09-05T10:06:40Z</time>
      </trkpt>
      <trkpt lat="45.04301" lon="6.02896">
        <ele>811</ele>
        <time>2020-09-05T10:06:41Z</time>
      </trkpt>
      <trkpt lat="45.04299" lon="6.02896">
        <ele>811.2</ele>
        <time>2020-09-05T10:06:42Z</time>
      </trkpt>
      <trkpt lat="45.04298" lon="6.02897">
        <ele>811.6</ele>
        <time>2020-09-05T10:06:43Z</time>
      </trkpt>
      <trkpt lat="45.04294" lon="6.02899">
        <ele>812</ele>
        <time>2020-09-05T10:06:45Z</time>
      </trkpt>
      <trkpt lat="45.04292" lon="6.029">
        <ele>812</ele>
        <time>2020-09-05T10:06:46Z</time>
      </trkpt>
      <trkpt lat="45.04291" lon="6.02901">
        <ele>812.2</ele>
        <time>2020-09-05T10:06:47Z</time>
      </trkpt>
      <trkpt lat="45.04289" lon="6.02903">
        <ele>812.4</ele>
        <time>2020-09-05T10:06:48Z</time>
      </trkpt>
      <trkpt lat="45.04287" lon="6.02905">
        <ele>812.8</ele>
        <time>2020-09-05T10:06:49Z</time>
      </trkpt>
      <trkpt lat="45.04285" lon="6.02906">
        <ele>813.2</ele>
        <time>2020-09-05T10:06:50Z</time>
      </trkpt>
      <trkpt lat="45.04283" lon="6.02908">
        <ele>813.4</ele>
        <time>2020-09-05T10:06:51Z</time>
      </trkpt>
      <trkpt lat="45.04281" lon="6.02909">
        <ele>813.6</ele>
        <time>2020-09-05T10:06:52Z</time>
      </trkpt>
      <trkpt lat="45.04279" lon="6.02911">
        <ele>813.8</ele>
        <time>2020-09-05T10:06:53Z</time>
      </trkpt>
      <trkpt lat="45.04277" lon="6.02912">
        <ele>814</ele>
        <time>2020-09-05T10:06:54Z</time>
      </trkpt>
      <trkpt lat="45.04275" lon="6.02913">
        <ele>814.2</ele>
        <time>2020-09-05T10:06:55Z</time>
      </trkpt>
      <trkpt lat="45.04273" lon="6.02914">
        <ele>814.2</ele>
        <time>2020-09-05T10:06:56Z</time>
      </trkpt>
      <trkpt lat="45.04271" lon="6.02916">
        <ele>814.6</ele>
        <time>2020-09-05T10:06:57Z</time>
      </trkpt>
      <trkpt lat="45.04269" lon="6.02917">
        <ele>814.6</ele>
        <time>2020-09-05T10:06:58Z</time>
      </trkpt>
      <trkpt lat="45.04267" lon="6.02918">
        <ele>815</ele>
        <time>2020-09-05T10:06:59Z</time>
      </trkpt>
      <trkpt lat="45.04265" lon="6.02919">
        <ele>815.2</ele>
        <time>2020-09-05T10:07:00Z</time>
      </trkpt>
      <trkpt lat="45.04263" lon="6.0292">
        <ele>815.4</ele>
        <time>2020-09-05T10:07:01Z</time>
      </trkpt>
      <trkpt lat="45.0426" lon="6.02921">
        <ele>815.6</ele>
        <time>2020-09-05T10:07:02Z</time>
      </trkpt>
      <trkpt lat="45.04258" lon="6.02921">
        <ele>816.2</ele>
        <time>2020-09-05T10:07:03Z</time>
      </trkpt>
      <trkpt lat="45.04256" lon="6.02921">
        <ele>816.4</ele>
        <time>2020-09-05T10:07:04Z</time>
      </trkpt>
      <trkpt lat="45.04254" lon="6.02921">
        <ele>816.4</ele>
        <time>2020-09-05T10:07:05Z</time>
      </trkpt>
      <trkpt lat="45.04252" lon="6.02921">
        <ele>816.8</ele>
        <time>2020-09-05T10:07:06Z</time>
      </trkpt>
      <trkpt lat="45.0425" lon="6.02922">
        <ele>817.2</ele>
        <time>2020-09-05T10:07:07Z</time>
      </trkpt>
      <trkpt lat="45.04248" lon="6.02922">
        <ele>817.4</ele>
        <time>2020-09-05T10:07:08Z</time>
      </trkpt>
      <trkpt lat="45.04245" lon="6.02922">
        <ele>817.4</ele>
        <time>2020-09-05T10:07:09Z</time>
      </trkpt>
      <trkpt lat="45.04243" lon="6.02922">
        <ele>817.8</ele>
        <time>2020-09-05T10:07:10Z</time>
      </trkpt>
      <trkpt lat="45.04241" lon="6.02922">
        <ele>818</ele>
        <time>2020-09-05T10:07:11Z</time>
      </trkpt>
      <trkpt lat="45.04239" lon="6.02922">
        <ele>818.4</ele>
        <time>2020-09-05T10:07:12Z</time>
      </trkpt>
      <trkpt lat="45.04236" lon="6.02922">
        <ele>818.4</ele>
        <time>2020-09-05T10:07:13Z</time>
      </trkpt>
      <trkpt lat="45.04234" lon="6.02921">
        <ele>818.6</ele>
        <time>2020-09-05T10:07:14Z</time>
      </trkpt>
      <trkpt lat="45.04232" lon="6.02922">
        <ele>818.8</ele>
        <time>2020-09-05T10:07:15Z</time>
      </trkpt>
      <trkpt lat="45.04229" lon="6.02922">
        <ele>819.2</ele>
        <time>2020-09-05T10:07:16Z</time>
      </trkpt>
      <trkpt lat="45.04227" lon="6.02922">
        <ele>819.4</ele>
        <time>2020-09-05T10:07:17Z</time>
      </trkpt>
      <trkpt lat="45.04224" lon="6.02923">
        <ele>819.6</ele>
        <time>2020-09-05T10:07:18Z</time>
      </trkpt>
      <trkpt lat="45.04222" lon="6.02923">
        <ele>819.6</ele>
        <time>2020-09-05T10:07:19Z</time>
      </trkpt>
      <trkpt lat="45.0422" lon="6.02923">
        <ele>819.8</ele>
        <time>2020-09-05T10:07:20Z</time>
      </trkpt>
      <trkpt lat="45.04217" lon="6.02923">
        <ele>820</ele>
        <time>2020-09-05T10:07:21Z</time>
      </trkpt>
      <trkpt lat="45.04215" lon="6.02924">
        <ele>820.2</ele>
        <time>2020-09-05T10:07:22Z</time>
      </trkpt>
      <trkpt lat="45.04212" lon="6.02925">
        <ele>820.4</ele>
        <time>2020-09-05T10:07:23Z</time>
      </trkpt>
      <trkpt lat="45.0421" lon="6.02925">
        <ele>820.8</ele>
        <time>2020-09-05T10:07:24Z</time>
      </trkpt>
      <trkpt lat="45.04207" lon="6.02926">
        <ele>821.2</ele>
        <time>2020-09-05T10:07:25Z</time>
      </trkpt>
      <trkpt lat="45.04205" lon="6.02926">
        <ele>821.4</ele>
        <time>2020-09-05T10:07:26Z</time>
      </trkpt>
      <trkpt lat="45.04203" lon="6.02927">
        <ele>821.8</ele>
        <time>2020-09-05T10:07:27Z</time>
      </trkpt>
      <trkpt lat="45.04201" lon="6.02927">
        <ele>821.8</ele>
        <time>2020-09-05T10:07:28Z</time>
      </trkpt>
      <trkpt lat="45.04198" lon="6.02928">
        <ele>822.2</ele>
        <time>2020-09-05T10:07:29Z</time>
      </trkpt>
      <trkpt lat="45.04196" lon="6.02928">
        <ele>822.6</ele>
        <time>2020-09-05T10:07:30Z</time>
      </trkpt>
      <trkpt lat="45.04194" lon="6.02929">
        <ele>822.8</ele>
        <time>2020-09-05T10:07:31Z</time>
      </trkpt>
      <trkpt lat="45.04192" lon="6.0293">
        <ele>823</ele>
        <time>2020-09-05T10:07:32Z</time>
      </trkpt>
      <trkpt lat="45.04189" lon="6.02931">
        <ele>823.2</ele>
        <time>2020-09-05T10:07:33Z</time>
      </trkpt>
      <trkpt lat="45.04187" lon="6.02932">
        <ele>823.4</ele>
        <time>2020-09-05T10:07:34Z</time>
      </trkpt>
      <trkpt lat="45.04185" lon="6.02933">
        <ele>823.8</ele>
        <time>2020-09-05T10:07:35Z</time>
      </trkpt>
      <trkpt lat="45.04183" lon="6.02934">
        <ele>824</ele>
        <time>2020-09-05T10:07:36Z</time>
      </trkpt>
      <trkpt lat="45.04181" lon="6.02935">
        <ele>824.2</ele>
        <time>2020-09-05T10:07:37Z</time>
      </trkpt>
      <trkpt lat="45.04178" lon="6.02936">
        <ele>824.4</ele>
        <time>2020-09-05T10:07:38Z</time>
      </trkpt>
      <trkpt lat="45.04176" lon="6.02937">
        <ele>824.4</ele>
        <time>2020-09-05T10:07:39Z</time>
      </trkpt>
      <trkpt lat="45.04173" lon="6.02938">
        <ele>824.2</ele>
        <time>2020-09-05T10:07:40Z</time>
      </trkpt>
      <trkpt lat="45.04171" lon="6.02939">
        <ele>824.4</ele>
        <time>2020-09-05T10:07:41Z</time>
      </trkpt>
      <trkpt lat="45.04168" lon="6.0294">
        <ele>824.6</ele>
        <time>2020-09-05T10:07:42Z</time>
      </trkpt>
      <trkpt lat="45.04165" lon="6.02942">
        <ele>824.6</ele>
        <time>2020-09-05T10:07:43Z</time>
      </trkpt>
      <trkpt lat="45.04162" lon="6.02943">
        <ele>824.8</ele>
        <time>2020-09-05T10:07:44Z</time>
      </trkpt>
      <trkpt lat="45.0416" lon="6.02945">
        <ele>825</ele>
        <time>2020-09-05T10:07:45Z</time>
      </trkpt>
      <trkpt lat="45.04158" lon="6.02947">
        <ele>825.2</ele>
        <time>2020-09-05T10:07:46Z</time>
      </trkpt>
      <trkpt lat="45.04156" lon="6.02949">
        <ele>825.2</ele>
        <time>2020-09-05T10:07:47Z</time>
      </trkpt>
      <trkpt lat="45.04153" lon="6.02951">
        <ele>825</ele>
        <time>2020-09-05T10:07:48Z</time>
      </trkpt>
      <trkpt lat="45.04151" lon="6.02953">
        <ele>825.4</ele>
        <time>2020-09-05T10:07:49Z</time>
      </trkpt>
      <trkpt lat="45.04148" lon="6.02954">
        <ele>825.6</ele>
        <time>2020-09-05T10:07:50Z</time>
      </trkpt>
      <trkpt lat="45.04145" lon="6.02956">
        <ele>825.8</ele>
        <time>2020-09-05T10:07:51Z</time>
      </trkpt>
      <trkpt lat="45.04142" lon="6.02958">
        <ele>825.6</ele>
        <time>2020-09-05T10:07:52Z</time>
      </trkpt>
      <trkpt lat="45.04138" lon="6.02959">
        <ele>825.6</ele>
        <time>2020-09-05T10:07:53Z</time>
      </trkpt>
      <trkpt lat="45.04135" lon="6.0296">
        <ele>826</ele>
        <time>2020-09-05T10:07:54Z</time>
      </trkpt>
      <trkpt lat="45.04132" lon="6.02961">
        <ele>826</ele>
        <time>2020-09-05T10:07:55Z</time>
      </trkpt>
      <trkpt lat="45.04128" lon="6.02962">
        <ele>826.2</ele>
        <time>2020-09-05T10:07:56Z</time>
      </trkpt>
      <trkpt lat="45.04125" lon="6.02962">
        <ele>826.2</ele>
        <time>2020-09-05T10:07:57Z</time>
      </trkpt>
      <trkpt lat="45.04121" lon="6.02963">
        <ele>826.6</ele>
        <time>2020-09-05T10:07:58Z</time>
      </trkpt>
      <trkpt lat="45.04117" lon="6.02963">
        <ele>826.6</ele>
        <time>2020-09-05T10:07:59Z</time>
      </trkpt>
      <trkpt lat="45.04114" lon="6.02963">
        <ele>827</ele>
        <time>2020-09-05T10:08:00Z</time>
      </trkpt>
      <trkpt lat="45.0411" lon="6.02963">
        <ele>827.2</ele>
        <time>2020-09-05T10:08:01Z</time>
      </trkpt>
      <trkpt lat="45.04107" lon="6.02963">
        <ele>827.4</ele>
        <time>2020-09-05T10:08:02Z</time>
      </trkpt>
      <trkpt lat="45.04104" lon="6.02965">
        <ele>827.6</ele>
        <time>2020-09-05T10:08:03Z</time>
      </trkpt>
      <trkpt lat="45.04102" lon="6.02966">
        <ele>827.6</ele>
        <time>2020-09-05T10:08:04Z</time>
      </trkpt>
      <trkpt lat="45.04099" lon="6.02967">
        <ele>827.6</ele>
        <time>2020-09-05T10:08:05Z</time>
      </trkpt>
      <trkpt lat="45.04097" lon="6.02969">
        <ele>828</ele>
        <time>2020-09-05T10:08:06Z</time>
      </trkpt>
      <trkpt lat="45.04094" lon="6.02971">
        <ele>828.2</ele>
        <time>2020-09-05T10:08:07Z</time>
      </trkpt>
      <trkpt lat="45.04092" lon="6.02973">
        <ele>828.6</ele>
        <time>2020-09-05T10:08:08Z</time>
      </trkpt>
      <trkpt lat="45.04091" lon="6.02975">
        <ele>828.6</ele>
        <time>2020-09-05T10:08:09Z</time>
      </trkpt>
      <trkpt lat="45.0409" lon="6.02977">
        <ele>829</ele>
        <time>2020-09-05T10:08:10Z</time>
      </trkpt>
      <trkpt lat="45.04088" lon="6.0298">
        <ele>829.2</ele>
        <time>2020-09-05T10:08:11Z</time>
      </trkpt>
      <trkpt lat="45.04087" lon="6.02983">
        <ele>829.4</ele>
        <time>2020-09-05T10:08:12Z</time>
      </trkpt>
      <trkpt lat="45.04086" lon="6.02986">
        <ele>830</ele>
        <time>2020-09-05T10:08:13Z</time>
      </trkpt>
      <trkpt lat="45.04085" lon="6.02989">
        <ele>830</ele>
        <time>2020-09-05T10:08:14Z</time>
      </trkpt>
      <trkpt lat="45.04082" lon="6.03003">
        <ele>831</ele>
        <time>2020-09-05T10:08:18Z</time>
      </trkpt>
      <trkpt lat="45.04078" lon="6.03017">
        <ele>832.2</ele>
        <time>2020-09-05T10:08:23Z</time>
      </trkpt>
      <trkpt lat="45.04074" lon="6.0303">
        <ele>833.2</ele>
        <time>2020-09-05T10:08:28Z</time>
      </trkpt>
      <trkpt lat="45.04062" lon="6.03064">
        <ele>836</ele>
        <time>2020-09-05T10:08:39Z</time>
      </trkpt>
      <trkpt lat="45.04057" lon="6.03081">
        <ele>837.4</ele>
        <time>2020-09-05T10:08:45Z</time>
      </trkpt>
      <trkpt lat="45.04049" lon="6.03092">
        <ele>838.4</ele>
        <time>2020-09-05T10:08:49Z</time>
      </trkpt>
      <trkpt lat="45.04044" lon="6.03103">
        <ele>839.6</ele>
        <time>2020-09-05T10:08:53Z</time>
      </trkpt>
      <trkpt lat="45.04037" lon="6.03116">
        <ele>840.6</ele>
        <time>2020-09-05T10:08:57Z</time>
      </trkpt>
      <trkpt lat="45.04033" lon="6.03128">
        <ele>841.6</ele>
        <time>2020-09-05T10:09:00Z</time>
      </trkpt>
      <trkpt lat="45.04027" lon="6.03138">
        <ele>842.4</ele>
        <time>2020-09-05T10:09:04Z</time>
      </trkpt>
      <trkpt lat="45.04024" lon="6.03143">
        <ele>843.2</ele>
        <time>2020-09-05T10:09:06Z</time>
      </trkpt>
      <trkpt lat="45.04023" lon="6.03146">
        <ele>843.4</ele>
        <time>2020-09-05T10:09:07Z</time>
      </trkpt>
      <trkpt lat="45.04018" lon="6.03158">
        <ele>844.6</ele>
        <time>2020-09-05T10:09:12Z</time>
      </trkpt>
      <trkpt lat="45.04012" lon="6.03169">
        <ele>845.6</ele>
        <time>2020-09-05T10:09:17Z</time>
      </trkpt>
      <trkpt lat="45.04007" lon="6.03182">
        <ele>846.8</ele>
        <time>2020-09-05T10:09:22Z</time>
      </trkpt>
      <trkpt lat="45.04003" lon="6.03196">
        <ele>848</ele>
        <time>2020-09-05T10:09:27Z</time>
      </trkpt>
      <trkpt lat="45.04" lon="6.03209">
        <ele>849.2</ele>
        <time>2020-09-05T10:09:32Z</time>
      </trkpt>
      <trkpt lat="45.03991" lon="6.03217">
        <ele>850.4</ele>
        <time>2020-09-05T10:09:37Z</time>
      </trkpt>
      <trkpt lat="45.03986" lon="6.0323">
        <ele>851.4</ele>
        <time>2020-09-05T10:09:42Z</time>
      </trkpt>
      <trkpt lat="45.03981" lon="6.03239">
        <ele>852.4</ele>
        <time>2020-09-05T10:09:46Z</time>
      </trkpt>
      <trkpt lat="45.03979" lon="6.03242">
        <ele>852.6</ele>
        <time>2020-09-05T10:09:47Z</time>
      </trkpt>
      <trkpt lat="45.03978" lon="6.03244">
        <ele>853</ele>
        <time>2020-09-05T10:09:48Z</time>
      </trkpt>
      <trkpt lat="45.03974" lon="6.03259">
        <ele>854.4</ele>
        <time>2020-09-05T10:09:53Z</time>
      </trkpt>
      <trkpt lat="45.03972" lon="6.03268">
        <ele>855.2</ele>
        <time>2020-09-05T10:09:56Z</time>
      </trkpt>
      <trkpt lat="45.03971" lon="6.03271">
        <ele>855.4</ele>
        <time>2020-09-05T10:09:57Z</time>
      </trkpt>
      <trkpt lat="45.0397" lon="6.03274">
        <ele>855.6</ele>
        <time>2020-09-05T10:09:58Z</time>
      </trkpt>
      <trkpt lat="45.03969" lon="6.03277">
        <ele>855.8</ele>
        <time>2020-09-05T10:09:59Z</time>
      </trkpt>
      <trkpt lat="45.03968" lon="6.0328">
        <ele>856</ele>
        <time>2020-09-05T10:10:00Z</time>
      </trkpt>
      <trkpt lat="45.03967" lon="6.03282">
        <ele>856.4</ele>
        <time>2020-09-05T10:10:01Z</time>
      </trkpt>
      <trkpt lat="45.03965" lon="6.03285">
        <ele>856.6</ele>
        <time>2020-09-05T10:10:02Z</time>
      </trkpt>
      <trkpt lat="45.03963" lon="6.03287">
        <ele>857</ele>
        <time>2020-09-05T10:10:03Z</time>
      </trkpt>
      <trkpt lat="45.03962" lon="6.0329">
        <ele>857</ele>
        <time>2020-09-05T10:10:04Z</time>
      </trkpt>
      <trkpt lat="45.0396" lon="6.03292">
        <ele>857.2</ele>
        <time>2020-09-05T10:10:05Z</time>
      </trkpt>
      <trkpt lat="45.03959" lon="6.03294">
        <ele>857.4</ele>
        <time>2020-09-05T10:10:06Z</time>
      </trkpt>
      <trkpt lat="45.03957" lon="6.03295">
        <ele>857.6</ele>
        <time>2020-09-05T10:10:07Z</time>
      </trkpt>
      <trkpt lat="45.0378" lon="6.03649">
        <ele>891.6</ele>
        <time>2020-09-05T10:12:28Z</time>
      </trkpt>
      <trkpt lat="45.03775" lon="6.03661">
        <ele>892.6</ele>
        <time>2020-09-05T10:12:33Z</time>
      </trkpt>
      <trkpt lat="45.0377" lon="6.03673">
        <ele>893.6</ele>
        <time>2020-09-05T10:12:38Z</time>
      </trkpt>
      <trkpt lat="45.03765" lon="6.03684">
        <ele>894.4</ele>
        <time>2020-09-05T10:12:42Z</time>
      </trkpt>
      <trkpt lat="45.03763" lon="6.03686">
        <ele>894.6</ele>
        <time>2020-09-05T10:12:43Z</time>
      </trkpt>
      <trkpt lat="45.03761" lon="6.03688">
        <ele>894.8</ele>
        <time>2020-09-05T10:12:44Z</time>
      </trkpt>
      <trkpt lat="45.03759" lon="6.03689">
        <ele>895.2</ele>
        <time>2020-09-05T10:12:45Z</time>
      </trkpt>
      <trkpt lat="45.03757" lon="6.03691">
        <ele>895.4</ele>
        <time>2020-09-05T10:12:46Z</time>
      </trkpt>
      <trkpt lat="45.03755" lon="6.03693">
        <ele>895.8</ele>
        <time>2020-09-05T10:12:47Z</time>
      </trkpt>
      <trkpt lat="45.03753" lon="6.03695">
        <ele>896</ele>
        <time>2020-09-05T10:12:48Z</time>
      </trkpt>
      <trkpt lat="45.03752" lon="6.03697">
        <ele>896.4</ele>
        <time>2020-09-05T10:12:49Z</time>
      </trkpt>
      <trkpt lat="45.0375" lon="6.03698">
        <ele>896.4</ele>
        <time>2020-09-05T10:12:50Z</time>
      </trkpt>
      <trkpt lat="45.03749" lon="6.037">
        <ele>896.8</ele>
        <time>2020-09-05T10:12:51Z</time>
      </trkpt>
      <trkpt lat="45.03747" lon="6.03701">
        <ele>897</ele>
        <time>2020-09-05T10:12:52Z</time>
      </trkpt>
      <trkpt lat="45.03745" lon="6.03704">
        <ele>897</ele>
        <time>2020-09-05T10:12:53Z</time>
      </trkpt>
      <trkpt lat="45.03743" lon="6.03706">
        <ele>897</ele>
        <time>2020-09-05T10:12:54Z</time>
      </trkpt>
      <trkpt lat="45.03741" lon="6.03709">
        <ele>897.4</ele>
        <time>2020-09-05T10:12:55Z</time>
      </trkpt>
      <trkpt lat="45.03739" lon="6.03711">
        <ele>897.4</ele>
        <time>2020-09-05T10:12:56Z</time>
      </trkpt>
      <trkpt lat="45.03737" lon="6.03714">
        <ele>897.6</ele>
        <time>2020-09-05T10:12:57Z</time>
      </trkpt>
      <trkpt lat="45.03736" lon="6.03717">
        <ele>898.2</ele>
        <time>2020-09-05T10:12:58Z</time>
      </trkpt>
      <trkpt lat="45.03735" lon="6.0372">
        <ele>898.6</ele>
        <time>2020-09-05T10:12:59Z</time>
      </trkpt>
      <trkpt lat="45.03734" lon="6.03724">
        <ele>899</ele>
        <time>2020-09-05T10:13:00Z</time>
      </trkpt>
      <trkpt lat="45.03732" lon="6.03727">
        <ele>899.2</ele>
        <time>2020-09-05T10:13:01Z</time>
      </trkpt>
      <trkpt lat="45.0373" lon="6.0373">
        <ele>899.4</ele>
        <time>2020-09-05T10:13:02Z</time>
      </trkpt>
      <trkpt lat="45.03729" lon="6.03732">
        <ele>899.6</ele>
        <time>2020-09-05T10:13:03Z</time>
      </trkpt>
      <trkpt lat="45.03727" lon="6.03734">
        <ele>900</ele>
        <time>2020-09-05T10:13:04Z</time>
      </trkpt>
      <trkpt lat="45.03724" lon="6.03735">
        <ele>900.4</ele>
        <time>2020-09-05T10:13:05Z</time>
      </trkpt>
      <trkpt lat="45.03722" lon="6.03737">
        <ele>900.8</ele>
        <time>2020-09-05T10:13:06Z</time>
      </trkpt>
      <trkpt lat="45.0372" lon="6.03739">
        <ele>901</ele>
        <time>2020-09-05T10:13:07Z</time>
      </trkpt>
      <trkpt lat="45.03718" lon="6.03741">
        <ele>901.4</ele>
        <time>2020-09-05T10:13:08Z</time>
      </trkpt>
      <trkpt lat="45.03716" lon="6.03743">
        <ele>901.6</ele>
        <time>2020-09-05T10:13:09Z</time>
      </trkpt>
      <trkpt lat="45.03715" lon="6.03746">
        <ele>901.8</ele>
        <time>2020-09-05T10:13:10Z</time>
      </trkpt>
      <trkpt lat="45.03715" lon="6.03749">
        <ele>902</ele>
        <time>2020-09-05T10:13:11Z</time>
      </trkpt>
      <trkpt lat="45.03714" lon="6.03752">
        <ele>902.4</ele>
        <time>2020-09-05T10:13:12Z</time>
      </trkpt>
      <trkpt lat="45.03714" lon="6.03756">
        <ele>902.6</ele>
        <time>2020-09-05T10:13:13Z</time>
      </trkpt>
      <trkpt lat="45.03714" lon="6.03759">
        <ele>902.6</ele>
        <time>2020-09-05T10:13:14Z</time>
      </trkpt>
      <trkpt lat="45.03713" lon="6.03762">
        <ele>902.6</ele>
        <time>2020-09-05T10:13:15Z</time>
      </trkpt>
      <trkpt lat="45.03713" lon="6.03765">
        <ele>902.8</ele>
        <time>2020-09-05T10:13:16Z</time>
      </trkpt>
      <trkpt lat="45.03712" lon="6.03768">
        <ele>903</ele>
        <time>2020-09-05T10:13:17Z</time>
      </trkpt>
      <trkpt lat="45.03711" lon="6.03771">
        <ele>903.2</ele>
        <time>2020-09-05T10:13:18Z</time>
      </trkpt>
      <trkpt lat="45.03709" lon="6.03774">
        <ele>903.4</ele>
        <time>2020-09-05T10:13:19Z</time>
      </trkpt>
      <trkpt lat="45.03707" lon="6.03776">
        <ele>903.6</ele>
        <time>2020-09-05T10:13:20Z</time>
      </trkpt>
      <trkpt lat="45.03705" lon="6.03777">
        <ele>903.8</ele>
        <time>2020-09-05T10:13:21Z</time>
      </trkpt>
      <trkpt lat="45.03703" lon="6.03778">
        <ele>904</ele>
        <time>2020-09-05T10:13:22Z</time>
      </trkpt>
      <trkpt lat="45.03701" lon="6.03779">
        <ele>904.4</ele>
        <time>2020-09-05T10:13:23Z</time>
      </trkpt>
      <trkpt lat="45.03699" lon="6.0378">
        <ele>904.6</ele>
        <time>2020-09-05T10:13:24Z</time>
      </trkpt>
      <trkpt lat="45.03697" lon="6.0378">
        <ele>905.2</ele>
        <time>2020-09-05T10:13:25Z</time>
      </trkpt>
      <trkpt lat="45.03695" lon="6.03781">
        <ele>905.2</ele>
        <time>2020-09-05T10:13:26Z</time>
      </trkpt>
      <trkpt lat="45.03693" lon="6.03781">
        <ele>905.2</ele>
        <time>2020-09-05T10:13:27Z</time>
      </trkpt>
      <trkpt lat="45.03691" lon="6.03782">
        <ele>905.4</ele>
        <time>2020-09-05T10:13:28Z</time>
      </trkpt>
      <trkpt lat="45.03689" lon="6.03783">
        <ele>905.8</ele>
        <time>2020-09-05T10:13:29Z</time>
      </trkpt>
      <trkpt lat="45.03687" lon="6.03784">
        <ele>906</ele>
        <time>2020-09-05T10:13:30Z</time>
      </trkpt>
      <trkpt lat="45.03685" lon="6.03786">
        <ele>906.2</ele>
        <time>2020-09-05T10:13:31Z</time>
      </trkpt>
      <trkpt lat="45.03683" lon="6.03788">
        <ele>906.4</ele>
        <time>2020-09-05T10:13:32Z</time>
      </trkpt>
      <trkpt lat="45.03681" lon="6.03789">
        <ele>906.8</ele>
        <time>2020-09-05T10:13:33Z</time>
      </trkpt>
      <trkpt lat="45.03678" lon="6.03789">
        <ele>907.2</ele>
        <time>2020-09-05T10:13:34Z</time>
      </trkpt>
      <trkpt lat="45.03676" lon="6.0379">
        <ele>907.6</ele>
        <time>2020-09-05T10:13:35Z</time>
      </trkpt>
      <trkpt lat="45.03674" lon="6.0379">
        <ele>907.8</ele>
        <time>2020-09-05T10:13:36Z</time>
      </trkpt>
      <trkpt lat="45.03672" lon="6.0379">
        <ele>908</ele>
        <time>2020-09-05T10:13:37Z</time>
      </trkpt>
      <trkpt lat="45.03669" lon="6.03789">
        <ele>908.2</ele>
        <time>2020-09-05T10:13:38Z</time>
      </trkpt>
      <trkpt lat="45.03667" lon="6.03788">
        <ele>908.4</ele>
        <time>2020-09-05T10:13:39Z</time>
      </trkpt>
      <trkpt lat="45.03665" lon="6.03787">
        <ele>908.4</ele>
        <time>2020-09-05T10:13:40Z</time>
      </trkpt>
      <trkpt lat="45.03663" lon="6.03786">
        <ele>908.8</ele>
        <time>2020-09-05T10:13:41Z</time>
      </trkpt>
      <trkpt lat="45.03661" lon="6.03786">
        <ele>909</ele>
        <time>2020-09-05T10:13:42Z</time>
      </trkpt>
      <trkpt lat="45.03659" lon="6.03786">
        <ele>909.4</ele>
        <time>2020-09-05T10:13:43Z</time>
      </trkpt>
      <trkpt lat="45.03657" lon="6.03787">
        <ele>909.8</ele>
        <time>2020-09-05T10:13:44Z</time>
      </trkpt>
      <trkpt lat="45.03655" lon="6.03787">
        <ele>910</ele>
        <time>2020-09-05T10:13:45Z</time>
      </trkpt>
      <trkpt lat="45.03647" lon="6.03795">
        <ele>910.6</ele>
        <time>2020-09-05T10:13:50Z</time>
      </trkpt>
      <trkpt lat="45.03639" lon="6.03802">
        <ele>912.2</ele>
        <time>2020-09-05T10:13:55Z</time>
      </trkpt>
      <trkpt lat="45.03632" lon="6.03805">
        <ele>913</ele>
        <time>2020-09-05T10:13:58Z</time>
      </trkpt>
      <trkpt lat="45.0363" lon="6.03806">
        <ele>913.2</ele>
        <time>2020-09-05T10:13:59Z</time>
      </trkpt>
      <trkpt lat="45.03622" lon="6.03812">
        <ele>914</ele>
        <time>2020-09-05T10:14:04Z</time>
      </trkpt>
      <trkpt lat="45.03617" lon="6.03828">
        <ele>914.6</ele>
        <time>2020-09-05T10:14:07Z</time>
      </trkpt>
      <trkpt lat="45.03612" lon="6.03842">
        <ele>915.6</ele>
        <time>2020-09-05T10:14:11Z</time>
      </trkpt>
      <trkpt lat="45.03606" lon="6.03856">
        <ele>916.6</ele>
        <time>2020-09-05T10:14:16Z</time>
      </trkpt>
      <trkpt lat="45.03601" lon="6.03869">
        <ele>918.4</ele>
        <time>2020-09-05T10:14:21Z</time>
      </trkpt>
      <trkpt lat="45.03595" lon="6.03879">
        <ele>919</ele>
        <time>2020-09-05T10:14:25Z</time>
      </trkpt>
      <trkpt lat="45.03594" lon="6.03881">
        <ele>919.2</ele>
        <time>2020-09-05T10:14:26Z</time>
      </trkpt>
      <trkpt lat="45.03593" lon="6.03884">
        <ele>919.4</ele>
        <time>2020-09-05T10:14:27Z</time>
      </trkpt>
      <trkpt lat="45.03591" lon="6.03886">
        <ele>919.8</ele>
        <time>2020-09-05T10:14:28Z</time>
      </trkpt>
      <trkpt lat="45.0359" lon="6.03889">
        <ele>920</ele>
        <time>2020-09-05T10:14:29Z</time>
      </trkpt>
      <trkpt lat="45.03588" lon="6.03891">
        <ele>920</ele>
        <time>2020-09-05T10:14:30Z</time>
      </trkpt>
      <trkpt lat="45.03587" lon="6.03893">
        <ele>920.2</ele>
        <time>2020-09-05T10:14:31Z</time>
      </trkpt>
      <trkpt lat="45.03586" lon="6.03896">
        <ele>920.8</ele>
        <time>2020-09-05T10:14:32Z</time>
      </trkpt>
      <trkpt lat="45.03585" lon="6.03898">
        <ele>920.8</ele>
        <time>2020-09-05T10:14:33Z</time>
      </trkpt>
      <trkpt lat="45.03584" lon="6.03902">
        <ele>921</ele>
        <time>2020-09-05T10:14:34Z</time>
      </trkpt>
      <trkpt lat="45.03583" lon="6.03904">
        <ele>921.4</ele>
        <time>2020-09-05T10:14:35Z</time>
      </trkpt>
      <trkpt lat="45.03583" lon="6.03907">
        <ele>921.8</ele>
        <time>2020-09-05T10:14:36Z</time>
      </trkpt>
      <trkpt lat="45.03582" lon="6.0391">
        <ele>921.8</ele>
        <time>2020-09-05T10:14:37Z</time>
      </trkpt>
      <trkpt lat="45.03581" lon="6.03912">
        <ele>922.2</ele>
        <time>2020-09-05T10:14:38Z</time>
      </trkpt>
      <trkpt lat="45.03579" lon="6.03914">
        <ele>922.6</ele>
        <time>2020-09-05T10:14:39Z</time>
      </trkpt>
      <trkpt lat="45.03578" lon="6.03916">
        <ele>922.6</ele>
        <time>2020-09-05T10:14:40Z</time>
      </trkpt>
      <trkpt lat="45.03576" lon="6.03917">
        <ele>922.8</ele>
        <time>2020-09-05T10:14:41Z</time>
      </trkpt>
      <trkpt lat="45.03574" lon="6.0392">
        <ele>922.8</ele>
        <time>2020-09-05T10:14:42Z</time>
      </trkpt>
      <trkpt lat="45.03572" lon="6.03922">
        <ele>923.2</ele>
        <time>2020-09-05T10:14:43Z</time>
      </trkpt>
      <trkpt lat="45.03571" lon="6.03925">
        <ele>923.4</ele>
        <time>2020-09-05T10:14:44Z</time>
      </trkpt>
      <trkpt lat="45.0357" lon="6.03928">
        <ele>923.8</ele>
        <time>2020-09-05T10:14:45Z</time>
      </trkpt>
      <trkpt lat="45.03568" lon="6.03931">
        <ele>924.2</ele>
        <time>2020-09-05T10:14:46Z</time>
      </trkpt>
      <trkpt lat="45.03566" lon="6.03934">
        <ele>924.4</ele>
        <time>2020-09-05T10:14:47Z</time>
      </trkpt>
      <trkpt lat="45.03565" lon="6.03937">
        <ele>924.8</ele>
        <time>2020-09-05T10:14:48Z</time>
      </trkpt>
      <trkpt lat="45.03564" lon="6.03941">
        <ele>925</ele>
        <time>2020-09-05T10:14:49Z</time>
      </trkpt>
      <trkpt lat="45.03562" lon="6.03944">
        <ele>925.2</ele>
        <time>2020-09-05T10:14:50Z</time>
      </trkpt>
      <trkpt lat="45.03561" lon="6.03947">
        <ele>925.4</ele>
        <time>2020-09-05T10:14:51Z</time>
      </trkpt>
      <trkpt lat="45.03554" lon="6.03958">
        <ele>926</ele>
        <time>2020-09-05T10:14:55Z</time>
      </trkpt>
      <trkpt lat="45.03546" lon="6.03966">
        <ele>927.6</ele>
        <time>2020-09-05T10:15:00Z</time>
      </trkpt>
      <trkpt lat="45.03545" lon="6.03968">
        <ele>927.8</ele>
        <time>2020-09-05T10:15:01Z</time>
      </trkpt>
      <trkpt lat="45.03543" lon="6.0397">
        <ele>927.8</ele>
        <time>2020-09-05T10:15:02Z</time>
      </trkpt>
      <trkpt lat="45.03541" lon="6.03974">
        <ele>928</ele>
        <time>2020-09-05T10:15:04Z</time>
      </trkpt>
      <trkpt lat="45.0354" lon="6.03976">
        <ele>928.2</ele>
        <time>2020-09-05T10:15:05Z</time>
      </trkpt>
      <trkpt lat="45.03538" lon="6.03978">
        <ele>928.6</ele>
        <time>2020-09-05T10:15:06Z</time>
      </trkpt>
      <trkpt lat="45.03535" lon="6.03982">
        <ele>929.2</ele>
        <time>2020-09-05T10:15:08Z</time>
      </trkpt>
      <trkpt lat="45.03533" lon="6.03984">
        <ele>929.8</ele>
        <time>2020-09-05T10:15:10Z</time>
      </trkpt>
      <trkpt lat="45.03529" lon="6.03986">
        <ele>930.4</ele>
        <time>2020-09-05T10:15:12Z</time>
      </trkpt>
      <trkpt lat="45.03528" lon="6.03987">
        <ele>930.6</ele>
        <time>2020-09-05T10:15:13Z</time>
      </trkpt>
      <trkpt lat="45.03526" lon="6.03988">
        <ele>930.8</ele>
        <time>2020-09-05T10:15:14Z</time>
      </trkpt>
      <trkpt lat="45.03524" lon="6.03989">
        <ele>931.2</ele>
        <time>2020-09-05T10:15:15Z</time>
      </trkpt>
      <trkpt lat="45.03522" lon="6.03989">
        <ele>931.4</ele>
        <time>2020-09-05T10:15:16Z</time>
      </trkpt>
      <trkpt lat="45.03519" lon="6.03989">
        <ele>931.6</ele>
        <time>2020-09-05T10:15:17Z</time>
      </trkpt>
      <trkpt lat="45.03517" lon="6.03989">
        <ele>931.8</ele>
        <time>2020-09-05T10:15:18Z</time>
      </trkpt>
      <trkpt lat="45.03515" lon="6.03988">
        <ele>932</ele>
        <time>2020-09-05T10:15:19Z</time>
      </trkpt>
      <trkpt lat="45.03513" lon="6.03988">
        <ele>932.2</ele>
        <time>2020-09-05T10:15:20Z</time>
      </trkpt>
      <trkpt lat="45.03511" lon="6.03987">
        <ele>932.4</ele>
        <time>2020-09-05T10:15:21Z</time>
      </trkpt>
      <trkpt lat="45.03509" lon="6.03987">
        <ele>932.8</ele>
        <time>2020-09-05T10:15:22Z</time>
      </trkpt>
      <trkpt lat="45.03507" lon="6.03987">
        <ele>933</ele>
        <time>2020-09-05T10:15:23Z</time>
      </trkpt>
      <trkpt lat="45.03504" lon="6.03986">
        <ele>933.4</ele>
        <time>2020-09-05T10:15:24Z</time>
      </trkpt>
      <trkpt lat="45.03494" lon="6.03982">
        <ele>934.2</ele>
        <time>2020-09-05T10:15:28Z</time>
      </trkpt>
      <trkpt lat="45.03488" lon="6.03969">
        <ele>935</ele>
        <time>2020-09-05T10:15:32Z</time>
      </trkpt>
      <trkpt lat="45.03442" lon="6.04173">
        <ele>951.2</ele>
        <time>2020-09-05T10:16:36Z</time>
      </trkpt>
      <trkpt lat="45.03437" lon="6.0419">
        <ele>951.8</ele>
        <time>2020-09-05T10:16:38Z</time>
      </trkpt>
      <trkpt lat="45.03428" lon="6.04199">
        <ele>953.2</ele>
        <time>2020-09-05T10:16:42Z</time>
      </trkpt>
      <trkpt lat="45.03418" lon="6.04201">
        <ele>954.2</ele>
        <time>2020-09-05T10:16:46Z</time>
      </trkpt>
      <trkpt lat="45.03408" lon="6.04203">
        <ele>955.2</ele>
        <time>2020-09-05T10:16:50Z</time>
      </trkpt>
      <trkpt lat="45.03397" lon="6.04204">
        <ele>956.6</ele>
        <time>2020-09-05T10:16:54Z</time>
      </trkpt>
      <trkpt lat="45.03395" lon="6.04204">
        <ele>956.6</ele>
        <time>2020-09-05T10:16:55Z</time>
      </trkpt>
      <trkpt lat="45.03392" lon="6.04204">
        <ele>957</ele>
        <time>2020-09-05T10:16:56Z</time>
      </trkpt>
      <trkpt lat="45.0339" lon="6.04203">
        <ele>957.2</ele>
        <time>2020-09-05T10:16:57Z</time>
      </trkpt>
      <trkpt lat="45.03387" lon="6.04203">
        <ele>957.4</ele>
        <time>2020-09-05T10:16:58Z</time>
      </trkpt>
      <trkpt lat="45.03382" lon="6.04201">
        <ele>958</ele>
        <time>2020-09-05T10:17:00Z</time>
      </trkpt>
      <trkpt lat="45.03377" lon="6.04199">
        <ele>958.4</ele>
        <time>2020-09-05T10:17:02Z</time>
      </trkpt>
      <trkpt lat="45.03374" lon="6.04198">
        <ele>958.6</ele>
        <time>2020-09-05T10:17:03Z</time>
      </trkpt>
      <trkpt lat="45.03372" lon="6.04197">
        <ele>959.2</ele>
        <time>2020-09-05T10:17:04Z</time>
      </trkpt>
      <trkpt lat="45.03369" lon="6.04196">
        <ele>959.4</ele>
        <time>2020-09-05T10:17:05Z</time>
      </trkpt>
      <trkpt lat="45.03362" lon="6.04196">
        <ele>960.2</ele>
        <time>2020-09-05T10:17:08Z</time>
      </trkpt>
      <trkpt lat="45.03359" lon="6.04196">
        <ele>960.4</ele>
        <time>2020-09-05T10:17:09Z</time>
      </trkpt>
      <trkpt lat="45.03357" lon="6.04197">
        <ele>960.8</ele>
        <time>2020-09-05T10:17:10Z</time>
      </trkpt>
      <trkpt lat="45.03354" lon="6.04197">
        <ele>961.2</ele>
        <time>2020-09-05T10:17:11Z</time>
      </trkpt>
      <trkpt lat="45.03352" lon="6.04198">
        <ele>961.6</ele>
        <time>2020-09-05T10:17:12Z</time>
      </trkpt>
      <trkpt lat="45.03349" lon="6.04198">
        <ele>961.8</ele>
        <time>2020-09-05T10:17:13Z</time>
      </trkpt>
      <trkpt lat="45.03347" lon="6.04198">
        <ele>962</ele>
        <time>2020-09-05T10:17:14Z</time>
      </trkpt>
      <trkpt lat="45.03337" lon="6.04199">
        <ele>963</ele>
        <time>2020-09-05T10:17:18Z</time>
      </trkpt>
      <trkpt lat="45.03331" lon="6.04198">
        <ele>963.8</ele>
        <time>2020-09-05T10:17:20Z</time>
      </trkpt>
      <trkpt lat="45.03329" lon="6.04198">
        <ele>964</ele>
        <time>2020-09-05T10:17:21Z</time>
      </trkpt>
      <trkpt lat="45.03326" lon="6.04197">
        <ele>964.2</ele>
        <time>2020-09-05T10:17:22Z</time>
      </trkpt>
      <trkpt lat="45.03324" lon="6.04196">
        <ele>964.6</ele>
        <time>2020-09-05T10:17:23Z</time>
      </trkpt>
      <trkpt lat="45.03321" lon="6.04194">
        <ele>965.2</ele>
        <time>2020-09-05T10:17:24Z</time>
      </trkpt>
      <trkpt lat="45.03319" lon="6.04193">
        <ele>965.2</ele>
        <time>2020-09-05T10:17:25Z</time>
      </trkpt>
      <trkpt lat="45.03316" lon="6.04192">
        <ele>965.6</ele>
        <time>2020-09-05T10:17:26Z</time>
      </trkpt>
      <trkpt lat="45.03314" lon="6.04191">
        <ele>966</ele>
        <time>2020-09-05T10:17:27Z</time>
      </trkpt>
      <trkpt lat="45.03303" lon="6.04187">
        <ele>966.6</ele>
        <time>2020-09-05T10:17:31Z</time>
      </trkpt>
      <trkpt lat="45.03292" lon="6.04183">
        <ele>967.8</ele>
        <time>2020-09-05T10:17:35Z</time>
      </trkpt>
      <trkpt lat="45.03287" lon="6.04181">
        <ele>968.8</ele>
        <time>2020-09-05T10:17:37Z</time>
      </trkpt>
      <trkpt lat="45.03285" lon="6.0418">
        <ele>969.2</ele>
        <time>2020-09-05T10:17:38Z</time>
      </trkpt>
      <trkpt lat="45.03282" lon="6.04179">
        <ele>969.4</ele>
        <time>2020-09-05T10:17:39Z</time>
      </trkpt>
      <trkpt lat="45.0328" lon="6.04178">
        <ele>969.6</ele>
        <time>2020-09-05T10:17:40Z</time>
      </trkpt>
      <trkpt lat="45.03277" lon="6.04177">
        <ele>969.8</ele>
        <time>2020-09-05T10:17:41Z</time>
      </trkpt>
      <trkpt lat="45.03275" lon="6.04176">
        <ele>970</ele>
        <time>2020-09-05T10:17:42Z</time>
      </trkpt>
      <trkpt lat="45.03273" lon="6.04175">
        <ele>970.2</ele>
        <time>2020-09-05T10:17:43Z</time>
      </trkpt>
      <trkpt lat="45.0327" lon="6.04174">
        <ele>970.8</ele>
        <time>2020-09-05T10:17:44Z</time>
      </trkpt>
      <trkpt lat="45.03268" lon="6.04173">
        <ele>971.2</ele>
        <time>2020-09-05T10:17:45Z</time>
      </trkpt>
      <trkpt lat="45.03265" lon="6.04171">
        <ele>971.4</ele>
        <time>2020-09-05T10:17:46Z</time>
      </trkpt>
      <trkpt lat="45.03263" lon="6.0417">
        <ele>971.6</ele>
        <time>2020-09-05T10:17:47Z</time>
      </trkpt>
      <trkpt lat="45.03261" lon="6.04168">
        <ele>971.8</ele>
        <time>2020-09-05T10:17:48Z</time>
      </trkpt>
      <trkpt lat="45.03177" lon="6.04229">
        <ele>982.4</ele>
        <time>2020-09-05T10:18:35Z</time>
      </trkpt>
      <trkpt lat="45.03176" lon="6.04244">
        <ele>983</ele>
        <time>2020-09-05T10:18:37Z</time>
      </trkpt>
      <trkpt lat="45.03173" lon="6.04259">
        <ele>983.8</ele>
        <time>2020-09-05T10:18:40Z</time>
      </trkpt>
      <trkpt lat="45.03171" lon="6.04273">
        <ele>984.8</ele>
        <time>2020-09-05T10:18:43Z</time>
      </trkpt>
      <trkpt lat="45.03166" lon="6.04288">
        <ele>986</ele>
        <time>2020-09-05T10:18:47Z</time>
      </trkpt>
      <trkpt lat="45.03163" lon="6.04301">
        <ele>986.8</ele>
        <time>2020-09-05T10:18:50Z</time>
      </trkpt>
      <trkpt lat="45.03159" lon="6.04315">
        <ele>988</ele>
        <time>2020-09-05T10:18:54Z</time>
      </trkpt>
      <trkpt lat="45.03155" lon="6.04328">
        <ele>989.4</ele>
        <time>2020-09-05T10:19:00Z</time>
      </trkpt>
      <trkpt lat="45.03151" lon="6.04343">
        <ele>991</ele>
        <time>2020-09-05T10:19:04Z</time>
      </trkpt>
      <trkpt lat="45.03148" lon="6.04355">
        <ele>991.6</ele>
        <time>2020-09-05T10:19:07Z</time>
      </trkpt>
      <trkpt lat="45.03143" lon="6.04368">
        <ele>992.8</ele>
        <time>2020-09-05T10:19:10Z</time>
      </trkpt>
      <trkpt lat="45.03142" lon="6.04371">
        <ele>993</ele>
        <time>2020-09-05T10:19:11Z</time>
      </trkpt>
      <trkpt lat="45.03139" lon="6.04374">
        <ele>993.2</ele>
        <time>2020-09-05T10:19:12Z</time>
      </trkpt>
      <trkpt lat="45.03137" lon="6.04377">
        <ele>993.6</ele>
        <time>2020-09-05T10:19:13Z</time>
      </trkpt>
      <trkpt lat="45.03135" lon="6.0438">
        <ele>994.2</ele>
        <time>2020-09-05T10:19:14Z</time>
      </trkpt>
      <trkpt lat="45.03133" lon="6.04382">
        <ele>994.6</ele>
        <time>2020-09-05T10:19:15Z</time>
      </trkpt>
      <trkpt lat="45.03131" lon="6.04385">
        <ele>995</ele>
        <time>2020-09-05T10:19:16Z</time>
      </trkpt>
      <trkpt lat="45.03129" lon="6.04388">
        <ele>995.4</ele>
        <time>2020-09-05T10:19:17Z</time>
      </trkpt>
      <trkpt lat="45.03127" lon="6.0439">
        <ele>995.6</ele>
        <time>2020-09-05T10:19:18Z</time>
      </trkpt>
      <trkpt lat="45.03124" lon="6.04391">
        <ele>996</ele>
        <time>2020-09-05T10:19:19Z</time>
      </trkpt>
      <trkpt lat="45.03122" lon="6.04392">
        <ele>996.2</ele>
        <time>2020-09-05T10:19:20Z</time>
      </trkpt>
      <trkpt lat="45.0312" lon="6.04393">
        <ele>996.6</ele>
        <time>2020-09-05T10:19:21Z</time>
      </trkpt>
      <trkpt lat="45.03117" lon="6.04394">
        <ele>997</ele>
        <time>2020-09-05T10:19:22Z</time>
      </trkpt>
      <trkpt lat="45.03109" lon="6.04396">
        <ele>997.8</ele>
        <time>2020-09-05T10:19:25Z</time>
      </trkpt>
      <trkpt lat="45.03107" lon="6.04397">
        <ele>998.2</ele>
        <time>2020-09-05T10:19:26Z</time>
      </trkpt>
      <trkpt lat="45.03104" lon="6.04397">
        <ele>998.4</ele>
        <time>2020-09-05T10:19:27Z</time>
      </trkpt>
      <trkpt lat="45.03101" lon="6.04397">
        <ele>998.8</ele>
        <time>2020-09-05T10:19:28Z</time>
      </trkpt>
      <trkpt lat="45.03098" lon="6.04397">
        <ele>999</ele>
        <time>2020-09-05T10:19:29Z</time>
      </trkpt>
      <trkpt lat="45.03096" lon="6.04397">
        <ele>999.4</ele>
        <time>2020-09-05T10:19:30Z</time>
      </trkpt>
      <trkpt lat="45.03093" lon="6.04396">
        <ele>999.8</ele>
        <time>2020-09-05T10:19:31Z</time>
      </trkpt>
      <trkpt lat="45.03081" lon="6.04395">
        <ele>1001.2</ele>
        <time>2020-09-05T10:19:35Z</time>
      </trkpt>
      <trkpt lat="45.03076" lon="6.04394">
        <ele>1001.6</ele>
        <time>2020-09-05T10:19:37Z</time>
      </trkpt>
      <trkpt lat="45.03073" lon="6.04394">
        <ele>1002.2</ele>
        <time>2020-09-05T10:19:38Z</time>
      </trkpt>
      <trkpt lat="45.0307" lon="6.04394">
        <ele>1002.6</ele>
        <time>2020-09-05T10:19:39Z</time>
      </trkpt>
      <trkpt lat="45.03065" lon="6.04394">
        <ele>1003.2</ele>
        <time>2020-09-05T10:19:41Z</time>
      </trkpt>
      <trkpt lat="45.03062" lon="6.04395">
        <ele>1003.6</ele>
        <time>2020-09-05T10:19:42Z</time>
      </trkpt>
      <trkpt lat="45.0306" lon="6.04395">
        <ele>1003.6</ele>
        <time>2020-09-05T10:19:43Z</time>
      </trkpt>
      <trkpt lat="45.03057" lon="6.04395">
        <ele>1004</ele>
        <time>2020-09-05T10:19:44Z</time>
      </trkpt>
      <trkpt lat="45.03055" lon="6.04396">
        <ele>1004.4</ele>
        <time>2020-09-05T10:19:45Z</time>
      </trkpt>
      <trkpt lat="45.03052" lon="6.04396">
        <ele>1004.8</ele>
        <time>2020-09-05T10:19:46Z</time>
      </trkpt>
      <trkpt lat="45.0305" lon="6.04397">
        <ele>1005.2</ele>
        <time>2020-09-05T10:19:47Z</time>
      </trkpt>
      <trkpt lat="45.03045" lon="6.04401">
        <ele>1005.6</ele>
        <time>2020-09-05T10:19:49Z</time>
      </trkpt>
      <trkpt lat="45.03043" lon="6.04404">
        <ele>1005.8</ele>
        <time>2020-09-05T10:19:50Z</time>
      </trkpt>
      <trkpt lat="45.0304" lon="6.04407">
        <ele>1006</ele>
        <time>2020-09-05T10:19:51Z</time>
      </trkpt>
      <trkpt lat="45.03038" lon="6.0441">
        <ele>1006.6</ele>
        <time>2020-09-05T10:19:52Z</time>
      </trkpt>
      <trkpt lat="45.03037" lon="6.04413">
        <ele>1006.8</ele>
        <time>2020-09-05T10:19:53Z</time>
      </trkpt>
      <trkpt lat="45.03035" lon="6.04417">
        <ele>1007.2</ele>
        <time>2020-09-05T10:19:54Z</time>
      </trkpt>
      <trkpt lat="45.03034" lon="6.04421">
        <ele>1007.4</ele>
        <time>2020-09-05T10:19:55Z</time>
      </trkpt>
      <trkpt lat="45.03032" lon="6.04425">
        <ele>1007.6</ele>
        <time>2020-09-05T10:19:56Z</time>
      </trkpt>
      <trkpt lat="45.03031" lon="6.04429">
        <ele>1007.8</ele>
        <time>2020-09-05T10:19:57Z</time>
      </trkpt>
      <trkpt lat="45.03029" lon="6.04442">
        <ele>1009.2</ele>
        <time>2020-09-05T10:20:01Z</time>
      </trkpt>
      <trkpt lat="45.03022" lon="6.04448">
        <ele>1010</ele>
        <time>2020-09-05T10:20:04Z</time>
      </trkpt>
      <trkpt lat="45.03019" lon="6.0445">
        <ele>1010.2</ele>
        <time>2020-09-05T10:20:05Z</time>
      </trkpt>
      <trkpt lat="45.03016" lon="6.0445">
        <ele>1010.6</ele>
        <time>2020-09-05T10:20:06Z</time>
      </trkpt>
      <trkpt lat="45.03013" lon="6.0445">
        <ele>1010.8</ele>
        <time>2020-09-05T10:20:07Z</time>
      </trkpt>
      <trkpt lat="45.0301" lon="6.04448">
        <ele>1011</ele>
        <time>2020-09-05T10:20:08Z</time>
      </trkpt>
      <trkpt lat="45.03008" lon="6.04447">
        <ele>1011.2</ele>
        <time>2020-09-05T10:20:09Z</time>
      </trkpt>
      <trkpt lat="45.03005" lon="6.04445">
        <ele>1011.4</ele>
        <time>2020-09-05T10:20:10Z</time>
      </trkpt>
      <trkpt lat="45.03002" lon="6.04445">
        <ele>1011.8</ele>
        <time>2020-09-05T10:20:11Z</time>
      </trkpt>
      <trkpt lat="45.02999" lon="6.04445">
        <ele>1012</ele>
        <time>2020-09-05T10:20:12Z</time>
      </trkpt>
      <trkpt lat="45.02997" lon="6.04446">
        <ele>1012.4</ele>
        <time>2020-09-05T10:20:13Z</time>
      </trkpt>
      <trkpt lat="45.02994" lon="6.04448">
        <ele>1012.8</ele>
        <time>2020-09-05T10:20:14Z</time>
      </trkpt>
      <trkpt lat="45.02992" lon="6.0445">
        <ele>1013.2</ele>
        <time>2020-09-05T10:20:15Z</time>
      </trkpt>
      <trkpt lat="45.0299" lon="6.04453">
        <ele>1013.4</ele>
        <time>2020-09-05T10:20:16Z</time>
      </trkpt>
      <trkpt lat="45.02989" lon="6.04457">
        <ele>1013.8</ele>
        <time>2020-09-05T10:20:17Z</time>
      </trkpt>
      <trkpt lat="45.02988" lon="6.0446">
        <ele>1014.2</ele>
        <time>2020-09-05T10:20:18Z</time>
      </trkpt>
      <trkpt lat="45.02987" lon="6.04464">
        <ele>1014.6</ele>
        <time>2020-09-05T10:20:19Z</time>
      </trkpt>
      <trkpt lat="45.02986" lon="6.04467">
        <ele>1014.8</ele>
        <time>2020-09-05T10:20:20Z</time>
      </trkpt>
      <trkpt lat="45.02985" lon="6.04471">
        <ele>1015</ele>
        <time>2020-09-05T10:20:21Z</time>
      </trkpt>
      <trkpt lat="45.02983" lon="6.04474">
        <ele>1015.8</ele>
        <time>2020-09-05T10:20:22Z</time>
      </trkpt>
      <trkpt lat="45.02981" lon="6.04477">
        <ele>1015.8</ele>
        <time>2020-09-05T10:20:23Z</time>
      </trkpt>
      <trkpt lat="45.02979" lon="6.04479">
        <ele>1016.2</ele>
        <time>2020-09-05T10:20:24Z</time>
      </trkpt>
      <trkpt lat="45.02977" lon="6.04482">
        <ele>1016.6</ele>
        <time>2020-09-05T10:20:25Z</time>
      </trkpt>
      <trkpt lat="45.02975" lon="6.04485">
        <ele>1016.8</ele>
        <time>2020-09-05T10:20:26Z</time>
      </trkpt>
      <trkpt lat="45.02973" lon="6.04488">
        <ele>1017.2</ele>
        <time>2020-09-05T10:20:27Z</time>
      </trkpt>
      <trkpt lat="45.02971" lon="6.0449">
        <ele>1017.4</ele>
        <time>2020-09-05T10:20:28Z</time>
      </trkpt>
      <trkpt lat="45.02969" lon="6.04493">
        <ele>1017.6</ele>
        <time>2020-09-05T10:20:29Z</time>
      </trkpt>
      <trkpt lat="45.02967" lon="6.04496">
        <ele>1017.8</ele>
        <time>2020-09-05T10:20:30Z</time>
      </trkpt>
      <trkpt lat="45.02966" lon="6.04499">
        <ele>1018.4</ele>
        <time>2020-09-05T10:20:31Z</time>
      </trkpt>
      <trkpt lat="45.02964" lon="6.04502">
        <ele>1018.8</ele>
        <time>2020-09-05T10:20:32Z</time>
      </trkpt>
      <trkpt lat="45.02957" lon="6.04511">
        <ele>1019.4</ele>
        <time>2020-09-05T10:20:35Z</time>
      </trkpt>
      <trkpt lat="45.02951" lon="6.04526">
        <ele>1020.4</ele>
        <time>2020-09-05T10:20:38Z</time>
      </trkpt>
      <trkpt lat="45.02949" lon="6.04541">
        <ele>1021.2</ele>
        <time>2020-09-05T10:20:41Z</time>
      </trkpt>
      <trkpt lat="45.02948" lon="6.04555">
        <ele>1022.2</ele>
        <time>2020-09-05T10:20:44Z</time>
      </trkpt>
      <trkpt lat="45.02948" lon="6.04572">
        <ele>1023.2</ele>
        <time>2020-09-05T10:20:47Z</time>
      </trkpt>
      <trkpt lat="45.02943" lon="6.04586">
        <ele>1024</ele>
        <time>2020-09-05T10:20:50Z</time>
      </trkpt>
      <trkpt lat="45.02936" lon="6.04598">
        <ele>1025</ele>
        <time>2020-09-05T10:20:53Z</time>
      </trkpt>
      <trkpt lat="45.02928" lon="6.04609">
        <ele>1025.6</ele>
        <time>2020-09-05T10:20:56Z</time>
      </trkpt>
      <trkpt lat="45.02923" lon="6.04621">
        <ele>1026.8</ele>
        <time>2020-09-05T10:20:59Z</time>
      </trkpt>
      <trkpt lat="45.02922" lon="6.04626">
        <ele>1027</ele>
        <time>2020-09-05T10:21:00Z</time>
      </trkpt>
      <trkpt lat="45.02918" lon="6.0464">
        <ele>1027.6</ele>
        <time>2020-09-05T10:21:03Z</time>
      </trkpt>
      <trkpt lat="45.02913" lon="6.04652">
        <ele>1028.6</ele>
        <time>2020-09-05T10:21:06Z</time>
      </trkpt>
      <trkpt lat="45.02911" lon="6.04653">
        <ele>1028.8</ele>
        <time>2020-09-05T10:21:07Z</time>
      </trkpt>
      <trkpt lat="45.02908" lon="6.04653">
        <ele>1029.6</ele>
        <time>2020-09-05T10:21:08Z</time>
      </trkpt>
      <trkpt lat="45.02905" lon="6.04653">
        <ele>1029.8</ele>
        <time>2020-09-05T10:21:09Z</time>
      </trkpt>
      <trkpt lat="45.02902" lon="6.04653">
        <ele>1030.4</ele>
        <time>2020-09-05T10:21:10Z</time>
      </trkpt>
      <trkpt lat="45.02899" lon="6.04653">
        <ele>1030.6</ele>
        <time>2020-09-05T10:21:11Z</time>
      </trkpt>
      <trkpt lat="45.02896" lon="6.04653">
        <ele>1031</ele>
        <time>2020-09-05T10:21:12Z</time>
      </trkpt>
      <trkpt lat="45.02893" lon="6.04654">
        <ele>1031.4</ele>
        <time>2020-09-05T10:21:13Z</time>
      </trkpt>
      <trkpt lat="45.02891" lon="6.04655">
        <ele>1031.8</ele>
        <time>2020-09-05T10:21:14Z</time>
      </trkpt>
      <trkpt lat="45.02888" lon="6.04655">
        <ele>1032.2</ele>
        <time>2020-09-05T10:21:15Z</time>
      </trkpt>
      <trkpt lat="45.02886" lon="6.04656">
        <ele>1032.6</ele>
        <time>2020-09-05T10:21:16Z</time>
      </trkpt>
      <trkpt lat="45.02883" lon="6.04657">
        <ele>1032.8</ele>
        <time>2020-09-05T10:21:17Z</time>
      </trkpt>
      <trkpt lat="45.0288" lon="6.04658">
        <ele>1033</ele>
        <time>2020-09-05T10:21:18Z</time>
      </trkpt>
      <trkpt lat="45.02878" lon="6.04658">
        <ele>1033.4</ele>
        <time>2020-09-05T10:21:19Z</time>
      </trkpt>
      <trkpt lat="45.02875" lon="6.04659">
        <ele>1033.6</ele>
        <time>2020-09-05T10:21:20Z</time>
      </trkpt>
      <trkpt lat="45.02872" lon="6.04659">
        <ele>1034.2</ele>
        <time>2020-09-05T10:21:21Z</time>
      </trkpt>
      <trkpt lat="45.0287" lon="6.0466">
        <ele>1034.4</ele>
        <time>2020-09-05T10:21:22Z</time>
      </trkpt>
      <trkpt lat="45.02867" lon="6.04661">
        <ele>1034.8</ele>
        <time>2020-09-05T10:21:23Z</time>
      </trkpt>
      <trkpt lat="45.02864" lon="6.04662">
        <ele>1035.4</ele>
        <time>2020-09-05T10:21:24Z</time>
      </trkpt>
      <trkpt lat="45.02862" lon="6.04664">
        <ele>1035.6</ele>
        <time>2020-09-05T10:21:25Z</time>
      </trkpt>
      <trkpt lat="45.02859" lon="6.04665">
        <ele>1036</ele>
        <time>2020-09-05T10:21:26Z</time>
      </trkpt>
      <trkpt lat="45.02857" lon="6.04667">
        <ele>1036.4</ele>
        <time>2020-09-05T10:21:27Z</time>
      </trkpt>
      <trkpt lat="45.02854" lon="6.04669">
        <ele>1036.8</ele>
        <time>2020-09-05T10:21:28Z</time>
      </trkpt>
      <trkpt lat="45.02852" lon="6.04672">
        <ele>1037.2</ele>
        <time>2020-09-05T10:21:29Z</time>
      </trkpt>
      <trkpt lat="45.0285" lon="6.04675">
        <ele>1037.4</ele>
        <time>2020-09-05T10:21:30Z</time>
      </trkpt>
      <trkpt lat="45.02848" lon="6.04677">
        <ele>1038</ele>
        <time>2020-09-05T10:21:31Z</time>
      </trkpt>
      <trkpt lat="45.02845" lon="6.04679">
        <ele>1038.6</ele>
        <time>2020-09-05T10:21:32Z</time>
      </trkpt>
      <trkpt lat="45.02843" lon="6.0468">
        <ele>1038.8</ele>
        <time>2020-09-05T10:21:33Z</time>
      </trkpt>
      <trkpt lat="45.0284" lon="6.04682">
        <ele>1039.2</ele>
        <time>2020-09-05T10:21:34Z</time>
      </trkpt>
      <trkpt lat="45.02837" lon="6.04683">
        <ele>1039.4</ele>
        <time>2020-09-05T10:21:35Z</time>
      </trkpt>
      <trkpt lat="45.02834" lon="6.04684">
        <ele>1039.8</ele>
        <time>2020-09-05T10:21:36Z</time>
      </trkpt>
      <trkpt lat="45.02831" lon="6.04685">
        <ele>1040.2</ele>
        <time>2020-09-05T10:21:37Z</time>
      </trkpt>
      <trkpt lat="45.02828" lon="6.04687">
        <ele>1040.6</ele>
        <time>2020-09-05T10:21:38Z</time>
      </trkpt>
      <trkpt lat="45.02825" lon="6.04688">
        <ele>1041</ele>
        <time>2020-09-05T10:21:39Z</time>
      </trkpt>
      <trkpt lat="45.02823" lon="6.0469">
        <ele>1041.6</ele>
        <time>2020-09-05T10:21:40Z</time>
      </trkpt>
      <trkpt lat="45.0282" lon="6.04692">
        <ele>1042</ele>
        <time>2020-09-05T10:21:41Z</time>
      </trkpt>
      <trkpt lat="45.02817" lon="6.04692">
        <ele>1042.6</ele>
        <time>2020-09-05T10:21:42Z</time>
      </trkpt>
      <trkpt lat="45.02814" lon="6.04693">
        <ele>1043</ele>
        <time>2020-09-05T10:21:43Z</time>
      </trkpt>
      <trkpt lat="45.02811" lon="6.04692">
        <ele>1043.6</ele>
        <time>2020-09-05T10:21:44Z</time>
      </trkpt>
      <trkpt lat="45.02809" lon="6.04692">
        <ele>1043.8</ele>
        <time>2020-09-05T10:21:45Z</time>
      </trkpt>
      <trkpt lat="45.02806" lon="6.04692">
        <ele>1044.2</ele>
        <time>2020-09-05T10:21:46Z</time>
      </trkpt>
      <trkpt lat="45.02803" lon="6.04692">
        <ele>1044.6</ele>
        <time>2020-09-05T10:21:47Z</time>
      </trkpt>
      <trkpt lat="45.028" lon="6.04694">
        <ele>1045</ele>
        <time>2020-09-05T10:21:48Z</time>
      </trkpt>
      <trkpt lat="45.02798" lon="6.04696">
        <ele>1045.4</ele>
        <time>2020-09-05T10:21:49Z</time>
      </trkpt>
      <trkpt lat="45.02796" lon="6.04698">
        <ele>1045.6</ele>
        <time>2020-09-05T10:21:50Z</time>
      </trkpt>
      <trkpt lat="45.02794" lon="6.047">
        <ele>1045.8</ele>
        <time>2020-09-05T10:21:51Z</time>
      </trkpt>
      <trkpt lat="45.02792" lon="6.04702">
        <ele>1046.2</ele>
        <time>2020-09-05T10:21:52Z</time>
      </trkpt>
      <trkpt lat="45.0279" lon="6.04704">
        <ele>1046.6</ele>
        <time>2020-09-05T10:21:53Z</time>
      </trkpt>
      <trkpt lat="45.02787" lon="6.04707">
        <ele>1046.6</ele>
        <time>2020-09-05T10:21:54Z</time>
      </trkpt>
      <trkpt lat="45.02785" lon="6.04708">
        <ele>1047</ele>
        <time>2020-09-05T10:21:55Z</time>
      </trkpt>
      <trkpt lat="45.02783" lon="6.04711">
        <ele>1047.4</ele>
        <time>2020-09-05T10:21:56Z</time>
      </trkpt>
      <trkpt lat="45.02781" lon="6.04712">
        <ele>1047.8</ele>
        <time>2020-09-05T10:21:57Z</time>
      </trkpt>
      <trkpt lat="45.02778" lon="6.04713">
        <ele>1048.2</ele>
        <time>2020-09-05T10:21:58Z</time>
      </trkpt>
      <trkpt lat="45.02775" lon="6.04713">
        <ele>1048.8</ele>
        <time>2020-09-05T10:21:59Z</time>
      </trkpt>
      <trkpt lat="45.02772" lon="6.04713">
        <ele>1049</ele>
        <time>2020-09-05T10:22:00Z</time>
      </trkpt>
      <trkpt lat="45.0277" lon="6.04713">
        <ele>1049.2</ele>
        <time>2020-09-05T10:22:01Z</time>
      </trkpt>
      <trkpt lat="45.02767" lon="6.04713">
        <ele>1049.6</ele>
        <time>2020-09-05T10:22:02Z</time>
      </trkpt>
      <trkpt lat="45.02764" lon="6.04714">
        <ele>1049.8</ele>
        <time>2020-09-05T10:22:03Z</time>
      </trkpt>
      <trkpt lat="45.02762" lon="6.04715">
        <ele>1050</ele>
        <time>2020-09-05T10:22:04Z</time>
      </trkpt>
      <trkpt lat="45.0276" lon="6.04716">
        <ele>1050.4</ele>
        <time>2020-09-05T10:22:05Z</time>
      </trkpt>
      <trkpt lat="45.02758" lon="6.04718">
        <ele>1050.6</ele>
        <time>2020-09-05T10:22:06Z</time>
      </trkpt>
      <trkpt lat="45.02757" lon="6.0472">
        <ele>1050.8</ele>
        <time>2020-09-05T10:22:07Z</time>
      </trkpt>
      <trkpt lat="45.02755" lon="6.04723">
        <ele>1051.2</ele>
        <time>2020-09-05T10:22:08Z</time>
      </trkpt>
      <trkpt lat="45.02754" lon="6.04727">
        <ele>1051.6</ele>
        <time>2020-09-05T10:22:09Z</time>
      </trkpt>
      <trkpt lat="45.02753" lon="6.0473">
        <ele>1052</ele>
        <time>2020-09-05T10:22:10Z</time>
      </trkpt>
      <trkpt lat="45.02752" lon="6.04734">
        <ele>1052.4</ele>
        <time>2020-09-05T10:22:11Z</time>
      </trkpt>
      <trkpt lat="45.0275" lon="6.04737">
        <ele>1052.6</ele>
        <time>2020-09-05T10:22:12Z</time>
      </trkpt>
      <trkpt lat="45.02749" lon="6.0474">
        <ele>1052.8</ele>
        <time>2020-09-05T10:22:13Z</time>
      </trkpt>
      <trkpt lat="45.02747" lon="6.04744">
        <ele>1053.2</ele>
        <time>2020-09-05T10:22:14Z</time>
      </trkpt>
      <trkpt lat="45.02746" lon="6.04748">
        <ele>1053.4</ele>
        <time>2020-09-05T10:22:15Z</time>
      </trkpt>
      <trkpt lat="45.02745" lon="6.04751">
        <ele>1053.8</ele>
        <time>2020-09-05T10:22:16Z</time>
      </trkpt>
      <trkpt lat="45.02744" lon="6.04755">
        <ele>1054</ele>
        <time>2020-09-05T10:22:17Z</time>
      </trkpt>
      <trkpt lat="45.02743" lon="6.04758">
        <ele>1054.4</ele>
        <time>2020-09-05T10:22:18Z</time>
      </trkpt>
      <trkpt lat="45.02742" lon="6.04761">
        <ele>1054.6</ele>
        <time>2020-09-05T10:22:19Z</time>
      </trkpt>
      <trkpt lat="45.0274" lon="6.04764">
        <ele>1055</ele>
        <time>2020-09-05T10:22:20Z</time>
      </trkpt>
      <trkpt lat="45.02738" lon="6.04766">
        <ele>1055.2</ele>
        <time>2020-09-05T10:22:21Z</time>
      </trkpt>
      <trkpt lat="45.02736" lon="6.04768">
        <ele>1055.6</ele>
        <time>2020-09-05T10:22:22Z</time>
      </trkpt>
      <trkpt lat="45.02733" lon="6.0477">
        <ele>1055.8</ele>
        <time>2020-09-05T10:22:23Z</time>
      </trkpt>
      <trkpt lat="45.02731" lon="6.04772">
        <ele>1056.2</ele>
        <time>2020-09-05T10:22:24Z</time>
      </trkpt>
      <trkpt lat="45.02729" lon="6.04773">
        <ele>1056.4</ele>
        <time>2020-09-05T10:22:25Z</time>
      </trkpt>
      <trkpt lat="45.02726" lon="6.04774">
        <ele>1056.8</ele>
        <time>2020-09-05T10:22:26Z</time>
      </trkpt>
      <trkpt lat="45.02725" lon="6.04776">
        <ele>1057.4</ele>
        <time>2020-09-05T10:22:27Z</time>
      </trkpt>
      <trkpt lat="45.02722" lon="6.04777">
        <ele>1057.6</ele>
        <time>2020-09-05T10:22:28Z</time>
      </trkpt>
      <trkpt lat="45.0272" lon="6.04778">
        <ele>1058</ele>
        <time>2020-09-05T10:22:29Z</time>
      </trkpt>
      <trkpt lat="45.02718" lon="6.04779">
        <ele>1058.2</ele>
        <time>2020-09-05T10:22:30Z</time>
      </trkpt>
      <trkpt lat="45.02716" lon="6.0478">
        <ele>1058.4</ele>
        <time>2020-09-05T10:22:31Z</time>
      </trkpt>
      <trkpt lat="45.02714" lon="6.04781">
        <ele>1058.6</ele>
        <time>2020-09-05T10:22:32Z</time>
      </trkpt>
      <trkpt lat="45.02712" lon="6.04781">
        <ele>1058.8</ele>
        <time>2020-09-05T10:22:33Z</time>
      </trkpt>
      <trkpt lat="45.0271" lon="6.04781">
        <ele>1059</ele>
        <time>2020-09-05T10:22:34Z</time>
      </trkpt>
      <trkpt lat="45.02707" lon="6.04781">
        <ele>1059.4</ele>
        <time>2020-09-05T10:22:35Z</time>
      </trkpt>
      <trkpt lat="45.02705" lon="6.04781">
        <ele>1060</ele>
        <time>2020-09-05T10:22:36Z</time>
      </trkpt>
      <trkpt lat="45.02702" lon="6.04781">
        <ele>1060.4</ele>
        <time>2020-09-05T10:22:37Z</time>
      </trkpt>
      <trkpt lat="45.027" lon="6.04781">
        <ele>1060.6</ele>
        <time>2020-09-05T10:22:38Z</time>
      </trkpt>
      <trkpt lat="45.02697" lon="6.04781">
        <ele>1061</ele>
        <time>2020-09-05T10:22:39Z</time>
      </trkpt>
      <trkpt lat="45.02695" lon="6.04782">
        <ele>1061.2</ele>
        <time>2020-09-05T10:22:40Z</time>
      </trkpt>
      <trkpt lat="45.02692" lon="6.04782">
        <ele>1061.6</ele>
        <time>2020-09-05T10:22:41Z</time>
      </trkpt>
      <trkpt lat="45.02689" lon="6.04782">
        <ele>1061.6</ele>
        <time>2020-09-05T10:22:42Z</time>
      </trkpt>
      <trkpt lat="45.02687" lon="6.04781">
        <ele>1062</ele>
        <time>2020-09-05T10:22:43Z</time>
      </trkpt>
      <trkpt lat="45.02684" lon="6.04781">
        <ele>1062.4</ele>
        <time>2020-09-05T10:22:44Z</time>
      </trkpt>
      <trkpt lat="45.02681" lon="6.04782">
        <ele>1062.6</ele>
        <time>2020-09-05T10:22:45Z</time>
      </trkpt>
      <trkpt lat="45.02679" lon="6.04782">
        <ele>1063</ele>
        <time>2020-09-05T10:22:46Z</time>
      </trkpt>
      <trkpt lat="45.02676" lon="6.04782">
        <ele>1063.4</ele>
        <time>2020-09-05T10:22:47Z</time>
      </trkpt>
      <trkpt lat="45.02673" lon="6.04782">
        <ele>1063.8</ele>
        <time>2020-09-05T10:22:48Z</time>
      </trkpt>
      <trkpt lat="45.0267" lon="6.04783">
        <ele>1064</ele>
        <time>2020-09-05T10:22:49Z</time>
      </trkpt>
      <trkpt lat="45.02667" lon="6.04783">
        <ele>1064.4</ele>
        <time>2020-09-05T10:22:50Z</time>
      </trkpt>
      <trkpt lat="45.02664" lon="6.04784">
        <ele>1064.6</ele>
        <time>2020-09-05T10:22:51Z</time>
      </trkpt>
      <trkpt lat="45.02662" lon="6.04785">
        <ele>1065</ele>
        <time>2020-09-05T10:22:52Z</time>
      </trkpt>
      <trkpt lat="45.0266" lon="6.04786">
        <ele>1065.2</ele>
        <time>2020-09-05T10:22:53Z</time>
      </trkpt>
      <trkpt lat="45.02657" lon="6.04787">
        <ele>1065.6</ele>
        <time>2020-09-05T10:22:54Z</time>
      </trkpt>
      <trkpt lat="45.02655" lon="6.04789">
        <ele>1065.8</ele>
        <time>2020-09-05T10:22:55Z</time>
      </trkpt>
      <trkpt lat="45.02653" lon="6.0479">
        <ele>1065.8</ele>
        <time>2020-09-05T10:22:56Z</time>
      </trkpt>
      <trkpt lat="45.02651" lon="6.04792">
        <ele>1066.4</ele>
        <time>2020-09-05T10:22:57Z</time>
      </trkpt>
      <trkpt lat="45.02649" lon="6.04794">
        <ele>1066.8</ele>
        <time>2020-09-05T10:22:58Z</time>
      </trkpt>
      <trkpt lat="45.02647" lon="6.04796">
        <ele>1067</ele>
        <time>2020-09-05T10:22:59Z</time>
      </trkpt>
      <trkpt lat="45.02645" lon="6.04798">
        <ele>1067.4</ele>
        <time>2020-09-05T10:23:00Z</time>
      </trkpt>
      <trkpt lat="45.02643" lon="6.048">
        <ele>1067.8</ele>
        <time>2020-09-05T10:23:01Z</time>
      </trkpt>
      <trkpt lat="45.02642" lon="6.04803">
        <ele>1068</ele>
        <time>2020-09-05T10:23:02Z</time>
      </trkpt>
      <trkpt lat="45.0264" lon="6.04805">
        <ele>1068.2</ele>
        <time>2020-09-05T10:23:03Z</time>
      </trkpt>
      <trkpt lat="45.02638" lon="6.04807">
        <ele>1068.6</ele>
        <time>2020-09-05T10:23:04Z</time>
      </trkpt>
      <trkpt lat="45.02636" lon="6.0481">
        <ele>1069</ele>
        <time>2020-09-05T10:23:05Z</time>
      </trkpt>
      <trkpt lat="45.02634" lon="6.04813">
        <ele>1069.2</ele>
        <time>2020-09-05T10:23:06Z</time>
      </trkpt>
      <trkpt lat="45.02633" lon="6.04815">
        <ele>1069.4</ele>
        <time>2020-09-05T10:23:07Z</time>
      </trkpt>
      <trkpt lat="45.02632" lon="6.04818">
        <ele>1069.6</ele>
        <time>2020-09-05T10:23:08Z</time>
      </trkpt>
      <trkpt lat="45.0263" lon="6.04821">
        <ele>1070</ele>
        <time>2020-09-05T10:23:09Z</time>
      </trkpt>
      <trkpt lat="45.02628" lon="6.04825">
        <ele>1070.2</ele>
        <time>2020-09-05T10:23:10Z</time>
      </trkpt>
      <trkpt lat="45.02627" lon="6.04828">
        <ele>1070.2</ele>
        <time>2020-09-05T10:23:11Z</time>
      </trkpt>
      <trkpt lat="45.02625" lon="6.04832">
        <ele>1070.8</ele>
        <time>2020-09-05T10:23:12Z</time>
      </trkpt>
      <trkpt lat="45.02624" lon="6.04835">
        <ele>1071.4</ele>
        <time>2020-09-05T10:23:13Z</time>
      </trkpt>
      <trkpt lat="45.02622" lon="6.04838">
        <ele>1071.8</ele>
        <time>2020-09-05T10:23:14Z</time>
      </trkpt>
      <trkpt lat="45.0262" lon="6.0484">
        <ele>1072.2</ele>
        <time>2020-09-05T10:23:15Z</time>
      </trkpt>
      <trkpt lat="45.02618" lon="6.04842">
        <ele>1072.4</ele>
        <time>2020-09-05T10:23:16Z</time>
      </trkpt>
      <trkpt lat="45.02616" lon="6.04844">
        <ele>1072.4</ele>
        <time>2020-09-05T10:23:17Z</time>
      </trkpt>
      <trkpt lat="45.02613" lon="6.04845">
        <ele>1072.8</ele>
        <time>2020-09-05T10:23:18Z</time>
      </trkpt>
      <trkpt lat="45.02611" lon="6.04846">
        <ele>1073.2</ele>
        <time>2020-09-05T10:23:19Z</time>
      </trkpt>
      <trkpt lat="45.02608" lon="6.04847">
        <ele>1073.4</ele>
        <time>2020-09-05T10:23:20Z</time>
      </trkpt>
      <trkpt lat="45.02606" lon="6.04847">
        <ele>1073.8</ele>
        <time>2020-09-05T10:23:21Z</time>
      </trkpt>
      <trkpt lat="45.02604" lon="6.04848">
        <ele>1074</ele>
        <time>2020-09-05T10:23:22Z</time>
      </trkpt>
      <trkpt lat="45.02601" lon="6.04848">
        <ele>1074.4</ele>
        <time>2020-09-05T10:23:23Z</time>
      </trkpt>
      <trkpt lat="45.02599" lon="6.04849">
        <ele>1074.6</ele>
        <time>2020-09-05T10:23:24Z</time>
      </trkpt>
      <trkpt lat="45.02596" lon="6.04849">
        <ele>1074.6</ele>
        <time>2020-09-05T10:23:25Z</time>
      </trkpt>
      <trkpt lat="45.02594" lon="6.0485">
        <ele>1075.2</ele>
        <time>2020-09-05T10:23:26Z</time>
      </trkpt>
      <trkpt lat="45.02591" lon="6.04851">
        <ele>1075.6</ele>
        <time>2020-09-05T10:23:27Z</time>
      </trkpt>
      <trkpt lat="45.02589" lon="6.04851">
        <ele>1075.6</ele>
        <time>2020-09-05T10:23:28Z</time>
      </trkpt>
      <trkpt lat="45.02586" lon="6.04852">
        <ele>1076.2</ele>
        <time>2020-09-05T10:23:29Z</time>
      </trkpt>
      <trkpt lat="45.02583" lon="6.04852">
        <ele>1076.4</ele>
        <time>2020-09-05T10:23:30Z</time>
      </trkpt>
      <trkpt lat="45.02581" lon="6.04853">
        <ele>1076.8</ele>
        <time>2020-09-05T10:23:31Z</time>
      </trkpt>
      <trkpt lat="45.02578" lon="6.04853">
        <ele>1077</ele>
        <time>2020-09-05T10:23:32Z</time>
      </trkpt>
      <trkpt lat="45.02575" lon="6.04853">
        <ele>1077.4</ele>
        <time>2020-09-05T10:23:33Z</time>
      </trkpt>
      <trkpt lat="45.02572" lon="6.04852">
        <ele>1077.8</ele>
        <time>2020-09-05T10:23:34Z</time>
      </trkpt>
      <trkpt lat="45.0257" lon="6.04851">
        <ele>1078</ele>
        <time>2020-09-05T10:23:35Z</time>
      </trkpt>
      <trkpt lat="45.02568" lon="6.04848">
        <ele>1078.2</ele>
        <time>2020-09-05T10:23:36Z</time>
      </trkpt>
      <trkpt lat="45.02568" lon="6.04844">
        <ele>1078.8</ele>
        <time>2020-09-05T10:23:37Z</time>
      </trkpt>
      <trkpt lat="45.02569" lon="6.04841">
        <ele>1079</ele>
        <time>2020-09-05T10:23:38Z</time>
      </trkpt>
      <trkpt lat="45.02571" lon="6.0484">
        <ele>1079.2</ele>
        <time>2020-09-05T10:23:39Z</time>
      </trkpt>
      <trkpt lat="45.02573" lon="6.0484">
        <ele>1079.4</ele>
        <time>2020-09-05T10:23:40Z</time>
      </trkpt>
      <trkpt lat="45.02576" lon="6.0484">
        <ele>1079.8</ele>
        <time>2020-09-05T10:23:41Z</time>
      </trkpt>
      <trkpt lat="45.02578" lon="6.04841">
        <ele>1080</ele>
        <time>2020-09-05T10:23:42Z</time>
      </trkpt>
      <trkpt lat="45.02581" lon="6.04841">
        <ele>1080.2</ele>
        <time>2020-09-05T10:23:43Z</time>
      </trkpt>
      <trkpt lat="45.02583" lon="6.0484">
        <ele>1080.4</ele>
        <time>2020-09-05T10:23:44Z</time>
      </trkpt>
      <trkpt lat="45.02586" lon="6.0484">
        <ele>1080.6</ele>
        <time>2020-09-05T10:23:45Z</time>
      </trkpt>
      <trkpt lat="45.02588" lon="6.04839">
        <ele>1081</ele>
        <time>2020-09-05T10:23:46Z</time>
      </trkpt>
      <trkpt lat="45.02591" lon="6.04838">
        <ele>1081.4</ele>
        <time>2020-09-05T10:23:47Z</time>
      </trkpt>
      <trkpt lat="45.02594" lon="6.04836">
        <ele>1081.8</ele>
        <time>2020-09-05T10:23:48Z</time>
      </trkpt>
      <trkpt lat="45.02596" lon="6.04834">
        <ele>1082</ele>
        <time>2020-09-05T10:23:49Z</time>
      </trkpt>
      <trkpt lat="45.02598" lon="6.04833">
        <ele>1082.2</ele>
        <time>2020-09-05T10:23:50Z</time>
      </trkpt>
      <trkpt lat="45.02601" lon="6.0483">
        <ele>1082.8</ele>
        <time>2020-09-05T10:23:51Z</time>
      </trkpt>
      <trkpt lat="45.02603" lon="6.04828">
        <ele>1083</ele>
        <time>2020-09-05T10:23:52Z</time>
      </trkpt>
      <trkpt lat="45.02605" lon="6.04825">
        <ele>1083.4</ele>
        <time>2020-09-05T10:23:53Z</time>
      </trkpt>
      <trkpt lat="45.02607" lon="6.04823">
        <ele>1083.8</ele>
        <time>2020-09-05T10:23:54Z</time>
      </trkpt>
      <trkpt lat="45.02608" lon="6.0482">
        <ele>1084.2</ele>
        <time>2020-09-05T10:23:55Z</time>
      </trkpt>
      <trkpt lat="45.0261" lon="6.04817">
        <ele>1084.4</ele>
        <time>2020-09-05T10:23:56Z</time>
      </trkpt>
      <trkpt lat="45.02612" lon="6.04815">
        <ele>1084.8</ele>
        <time>2020-09-05T10:23:57Z</time>
      </trkpt>
      <trkpt lat="45.02613" lon="6.04812">
        <ele>1085</ele>
        <time>2020-09-05T10:23:58Z</time>
      </trkpt>
      <trkpt lat="45.02615" lon="6.04809">
        <ele>1085.6</ele>
        <time>2020-09-05T10:23:59Z</time>
      </trkpt>
      <trkpt lat="45.02616" lon="6.04806">
        <ele>1085.8</ele>
        <time>2020-09-05T10:24:00Z</time>
      </trkpt>
      <trkpt lat="45.02617" lon="6.04802">
        <ele>1086.2</ele>
        <time>2020-09-05T10:24:01Z</time>
      </trkpt>
      <trkpt lat="45.02618" lon="6.04798">
        <ele>1086.6</ele>
        <time>2020-09-05T10:24:02Z</time>
      </trkpt>
      <trkpt lat="45.02619" lon="6.04795">
        <ele>1087</ele>
        <time>2020-09-05T10:24:03Z</time>
      </trkpt>
      <trkpt lat="45.0262" lon="6.04792">
        <ele>1087.4</ele>
        <time>2020-09-05T10:24:04Z</time>
      </trkpt>
      <trkpt lat="45.02621" lon="6.04789">
        <ele>1087.8</ele>
        <time>2020-09-05T10:24:05Z</time>
      </trkpt>
      <trkpt lat="45.02622" lon="6.04785">
        <ele>1087.8</ele>
        <time>2020-09-05T10:24:06Z</time>
      </trkpt>
      <trkpt lat="45.02623" lon="6.04782">
        <ele>1088.2</ele>
        <time>2020-09-05T10:24:07Z</time>
      </trkpt>
      <trkpt lat="45.02623" lon="6.04779">
        <ele>1088.4</ele>
        <time>2020-09-05T10:24:08Z</time>
      </trkpt>
      <trkpt lat="45.02624" lon="6.04776">
        <ele>1089</ele>
        <time>2020-09-05T10:24:09Z</time>
      </trkpt>
      <trkpt lat="45.02625" lon="6.04773">
        <ele>1089.2</ele>
        <time>2020-09-05T10:24:10Z</time>
      </trkpt>
      <trkpt lat="45.02626" lon="6.04771">
        <ele>1089.4</ele>
        <time>2020-09-05T10:24:11Z</time>
      </trkpt>
      <trkpt lat="45.02628" lon="6.04768">
        <ele>1089.6</ele>
        <time>2020-09-05T10:24:12Z</time>
      </trkpt>
      <trkpt lat="45.02629" lon="6.04766">
        <ele>1089.8</ele>
        <time>2020-09-05T10:24:13Z</time>
      </trkpt>
      <trkpt lat="45.02631" lon="6.04763">
        <ele>1090.2</ele>
        <time>2020-09-05T10:24:14Z</time>
      </trkpt>
      <trkpt lat="45.02633" lon="6.04761">
        <ele>1090.4</ele>
        <time>2020-09-05T10:24:15Z</time>
      </trkpt>
      <trkpt lat="45.02636" lon="6.0476">
        <ele>1090.8</ele>
        <time>2020-09-05T10:24:16Z</time>
      </trkpt>
      <trkpt lat="45.02638" lon="6.04758">
        <ele>1091.2</ele>
        <time>2020-09-05T10:24:17Z</time>
      </trkpt>
      <trkpt lat="45.0264" lon="6.04756">
        <ele>1091.6</ele>
        <time>2020-09-05T10:24:18Z</time>
      </trkpt>
      <trkpt lat="45.02643" lon="6.04754">
        <ele>1092</ele>
        <time>2020-09-05T10:24:19Z</time>
      </trkpt>
      <trkpt lat="45.02645" lon="6.04753">
        <ele>1092.4</ele>
        <time>2020-09-05T10:24:20Z</time>
      </trkpt>
      <trkpt lat="45.02648" lon="6.04751">
        <ele>1092.6</ele>
        <time>2020-09-05T10:24:21Z</time>
      </trkpt>
      <trkpt lat="45.02651" lon="6.04751">
        <ele>1092.8</ele>
        <time>2020-09-05T10:24:22Z</time>
      </trkpt>
      <trkpt lat="45.02653" lon="6.0475">
        <ele>1093.2</ele>
        <time>2020-09-05T10:24:23Z</time>
      </trkpt>
      <trkpt lat="45.02656" lon="6.0475">
        <ele>1093.4</ele>
        <time>2020-09-05T10:24:24Z</time>
      </trkpt>
      <trkpt lat="45.02658" lon="6.0475">
        <ele>1094</ele>
        <time>2020-09-05T10:24:25Z</time>
      </trkpt>
      <trkpt lat="45.02661" lon="6.04751">
        <ele>1094.2</ele>
        <time>2020-09-05T10:24:26Z</time>
      </trkpt>
      <trkpt lat="45.02663" lon="6.04751">
        <ele>1094.2</ele>
        <time>2020-09-05T10:24:27Z</time>
      </trkpt>
      <trkpt lat="45.02665" lon="6.04751">
        <ele>1094.6</ele>
        <time>2020-09-05T10:24:28Z</time>
      </trkpt>
      <trkpt lat="45.02668" lon="6.04751">
        <ele>1095</ele>
        <time>2020-09-05T10:24:29Z</time>
      </trkpt>
      <trkpt lat="45.0267" lon="6.0475">
        <ele>1095.2</ele>
        <time>2020-09-05T10:24:30Z</time>
      </trkpt>
      <trkpt lat="45.02673" lon="6.04748">
        <ele>1095.4</ele>
        <time>2020-09-05T10:24:31Z</time>
      </trkpt>
      <trkpt lat="45.02675" lon="6.04747">
        <ele>1095.4</ele>
        <time>2020-09-05T10:24:32Z</time>
      </trkpt>
      <trkpt lat="45.02677" lon="6.04746">
        <ele>1095.6</ele>
        <time>2020-09-05T10:24:33Z</time>
      </trkpt>
      <trkpt lat="45.0268" lon="6.04744">
        <ele>1095.8</ele>
        <time>2020-09-05T10:24:34Z</time>
      </trkpt>
      <trkpt lat="45.02682" lon="6.04742">
        <ele>1096</ele>
        <time>2020-09-05T10:24:35Z</time>
      </trkpt>
      <trkpt lat="45.02684" lon="6.04739">
        <ele>1096.2</ele>
        <time>2020-09-05T10:24:36Z</time>
      </trkpt>
      <trkpt lat="45.02685" lon="6.04737">
        <ele>1096.2</ele>
        <time>2020-09-05T10:24:37Z</time>
      </trkpt>
      <trkpt lat="45.02687" lon="6.04734">
        <ele>1096.6</ele>
        <time>2020-09-05T10:24:38Z</time>
      </trkpt>
      <trkpt lat="45.02688" lon="6.04731">
        <ele>1096.8</ele>
        <time>2020-09-05T10:24:39Z</time>
      </trkpt>
      <trkpt lat="45.02689" lon="6.04728">
        <ele>1097</ele>
        <time>2020-09-05T10:24:40Z</time>
      </trkpt>
      <trkpt lat="45.0269" lon="6.04724">
        <ele>1097.4</ele>
        <time>2020-09-05T10:24:41Z</time>
      </trkpt>
      <trkpt lat="45.02691" lon="6.04721">
        <ele>1097.6</ele>
        <time>2020-09-05T10:24:42Z</time>
      </trkpt>
      <trkpt lat="45.02692" lon="6.04718">
        <ele>1098.2</ele>
        <time>2020-09-05T10:24:43Z</time>
      </trkpt>
      <trkpt lat="45.02693" lon="6.04715">
        <ele>1098.4</ele>
        <time>2020-09-05T10:24:44Z</time>
      </trkpt>
      <trkpt lat="45.02693" lon="6.04712">
        <ele>1098.6</ele>
        <time>2020-09-05T10:24:45Z</time>
      </trkpt>
      <trkpt lat="45.02694" lon="6.04709">
        <ele>1098.8</ele>
        <time>2020-09-05T10:24:46Z</time>
      </trkpt>
      <trkpt lat="45.02696" lon="6.04706">
        <ele>1098.8</ele>
        <time>2020-09-05T10:24:47Z</time>
      </trkpt>
      <trkpt lat="45.02697" lon="6.04702">
        <ele>1099.2</ele>
        <time>2020-09-05T10:24:48Z</time>
      </trkpt>
      <trkpt lat="45.02698" lon="6.04699">
        <ele>1099.6</ele>
        <time>2020-09-05T10:24:49Z</time>
      </trkpt>
      <trkpt lat="45.02699" lon="6.04696">
        <ele>1099.8</ele>
        <time>2020-09-05T10:24:50Z</time>
      </trkpt>
      <trkpt lat="45.02699" lon="6.04693">
        <ele>1100.2</ele>
        <time>2020-09-05T10:24:51Z</time>
      </trkpt>
      <trkpt lat="45.027" lon="6.04689">
        <ele>1100.6</ele>
        <time>2020-09-05T10:24:52Z</time>
      </trkpt>
      <trkpt lat="45.027" lon="6.04686">
        <ele>1101</ele>
        <time>2020-09-05T10:24:53Z</time>
      </trkpt>
      <trkpt lat="45.02699" lon="6.04681">
        <ele>1101.6</ele>
        <time>2020-09-05T10:24:55Z</time>
      </trkpt>
      <trkpt lat="45.02698" lon="6.04678">
        <ele>1102</ele>
        <time>2020-09-05T10:24:56Z</time>
      </trkpt>
      <trkpt lat="45.02696" lon="6.04675">
        <ele>1102.2</ele>
        <time>2020-09-05T10:24:57Z</time>
      </trkpt>
      <trkpt lat="45.02695" lon="6.04672">
        <ele>1102.6</ele>
        <time>2020-09-05T10:24:58Z</time>
      </trkpt>
      <trkpt lat="45.02694" lon="6.04669">
        <ele>1102.8</ele>
        <time>2020-09-05T10:24:59Z</time>
      </trkpt>
      <trkpt lat="45.02693" lon="6.04666">
        <ele>1103</ele>
        <time>2020-09-05T10:25:00Z</time>
      </trkpt>
      <trkpt lat="45.02692" lon="6.04663">
        <ele>1103.4</ele>
        <time>2020-09-05T10:25:01Z</time>
      </trkpt>
      <trkpt lat="45.02691" lon="6.0466">
        <ele>1103.6</ele>
        <time>2020-09-05T10:25:02Z</time>
      </trkpt>
      <trkpt lat="45.02691" lon="6.04652">
        <ele>1104.6</ele>
        <time>2020-09-05T10:25:04Z</time>
      </trkpt>
      <trkpt lat="45.0269" lon="6.04647">
        <ele>1104.8</ele>
        <time>2020-09-05T10:25:05Z</time>
      </trkpt>
      <trkpt lat="45.02691" lon="6.04632">
        <ele>1105.8</ele>
        <time>2020-09-05T10:25:09Z</time>
      </trkpt>
      <trkpt lat="45.02692" lon="6.04628">
        <ele>1105.8</ele>
        <time>2020-09-05T10:25:10Z</time>
      </trkpt>
      <trkpt lat="45.02692" lon="6.04624">
        <ele>1106.2</ele>
        <time>2020-09-05T10:25:11Z</time>
      </trkpt>
      <trkpt lat="45.02693" lon="6.04621">
        <ele>1106.6</ele>
        <time>2020-09-05T10:25:12Z</time>
      </trkpt>
      <trkpt lat="45.02694" lon="6.04617">
        <ele>1107</ele>
        <time>2020-09-05T10:25:13Z</time>
      </trkpt>
      <trkpt lat="45.02696" lon="6.04615">
        <ele>1107.2</ele>
        <time>2020-09-05T10:25:14Z</time>
      </trkpt>
      <trkpt lat="45.02698" lon="6.04612">
        <ele>1107.6</ele>
        <time>2020-09-05T10:25:15Z</time>
      </trkpt>
      <trkpt lat="45.02702" lon="6.04611">
        <ele>1107.8</ele>
        <time>2020-09-05T10:25:16Z</time>
      </trkpt>
      <trkpt lat="45.02707" lon="6.04609">
        <ele>1108</ele>
        <time>2020-09-05T10:25:17Z</time>
      </trkpt>
      <trkpt lat="45.02711" lon="6.04609">
        <ele>1108</ele>
        <time>2020-09-05T10:25:18Z</time>
      </trkpt>
      <trkpt lat="45.02715" lon="6.04608">
        <ele>1108.6</ele>
        <time>2020-09-05T10:25:19Z</time>
      </trkpt>
      <trkpt lat="45.02726" lon="6.04604">
        <ele>1109.2</ele>
        <time>2020-09-05T10:25:22Z</time>
      </trkpt>
      <trkpt lat="45.02729" lon="6.04601">
        <ele>1109.4</ele>
        <time>2020-09-05T10:25:23Z</time>
      </trkpt>
      <trkpt lat="45.02731" lon="6.04597">
        <ele>1109.6</ele>
        <time>2020-09-05T10:25:24Z</time>
      </trkpt>
      <trkpt lat="45.02733" lon="6.04593">
        <ele>1110.2</ele>
        <time>2020-09-05T10:25:25Z</time>
      </trkpt>
      <trkpt lat="45.02735" lon="6.0459">
        <ele>1110.2</ele>
        <time>2020-09-05T10:25:26Z</time>
      </trkpt>
      <trkpt lat="45.02738" lon="6.04587">
        <ele>1110.4</ele>
        <time>2020-09-05T10:25:27Z</time>
      </trkpt>
      <trkpt lat="45.0274" lon="6.04584">
        <ele>1110.8</ele>
        <time>2020-09-05T10:25:28Z</time>
      </trkpt>
      <trkpt lat="45.02742" lon="6.04582">
        <ele>1111.2</ele>
        <time>2020-09-05T10:25:29Z</time>
      </trkpt>
      <trkpt lat="45.02745" lon="6.04578">
        <ele>1111.4</ele>
        <time>2020-09-05T10:25:30Z</time>
      </trkpt>
      <trkpt lat="45.02747" lon="6.04575">
        <ele>1111.6</ele>
        <time>2020-09-05T10:25:31Z</time>
      </trkpt>
      <trkpt lat="45.02749" lon="6.04571">
        <ele>1112</ele>
        <time>2020-09-05T10:25:32Z</time>
      </trkpt>
      <trkpt lat="45.02751" lon="6.04568">
        <ele>1112.2</ele>
        <time>2020-09-05T10:25:33Z</time>
      </trkpt>
      <trkpt lat="45.02754" lon="6.04566">
        <ele>1112.6</ele>
        <time>2020-09-05T10:25:34Z</time>
      </trkpt>
      <trkpt lat="45.02756" lon="6.04564">
        <ele>1112.6</ele>
        <time>2020-09-05T10:25:35Z</time>
      </trkpt>
      <trkpt lat="45.02759" lon="6.04563">
        <ele>1113</ele>
        <time>2020-09-05T10:25:36Z</time>
      </trkpt>
      <trkpt lat="45.02762" lon="6.04562">
        <ele>1113.2</ele>
        <time>2020-09-05T10:25:37Z</time>
      </trkpt>
      <trkpt lat="45.02764" lon="6.04562">
        <ele>1113.6</ele>
        <time>2020-09-05T10:25:38Z</time>
      </trkpt>
      <trkpt lat="45.02767" lon="6.04562">
        <ele>1114</ele>
        <time>2020-09-05T10:25:39Z</time>
      </trkpt>
      <trkpt lat="45.0277" lon="6.04561">
        <ele>1114.4</ele>
        <time>2020-09-05T10:25:40Z</time>
      </trkpt>
      <trkpt lat="45.02773" lon="6.04561">
        <ele>1114.6</ele>
        <time>2020-09-05T10:25:41Z</time>
      </trkpt>
      <trkpt lat="45.02776" lon="6.0456">
        <ele>1114.8</ele>
        <time>2020-09-05T10:25:42Z</time>
      </trkpt>
      <trkpt lat="45.02779" lon="6.04559">
        <ele>1115.4</ele>
        <time>2020-09-05T10:25:43Z</time>
      </trkpt>
      <trkpt lat="45.02781" lon="6.04558">
        <ele>1115.6</ele>
        <time>2020-09-05T10:25:44Z</time>
      </trkpt>
      <trkpt lat="45.02784" lon="6.04557">
        <ele>1116</ele>
        <time>2020-09-05T10:25:45Z</time>
      </trkpt>
      <trkpt lat="45.02787" lon="6.04555">
        <ele>1116</ele>
        <time>2020-09-05T10:25:46Z</time>
      </trkpt>
      <trkpt lat="45.02789" lon="6.04554">
        <ele>1116.4</ele>
        <time>2020-09-05T10:25:47Z</time>
      </trkpt>
      <trkpt lat="45.02792" lon="6.04553">
        <ele>1116.6</ele>
        <time>2020-09-05T10:25:48Z</time>
      </trkpt>
      <trkpt lat="45.02795" lon="6.04551">
        <ele>1117</ele>
        <time>2020-09-05T10:25:49Z</time>
      </trkpt>
      <trkpt lat="45.02797" lon="6.0455">
        <ele>1117.4</ele>
        <time>2020-09-05T10:25:50Z</time>
      </trkpt>
      <trkpt lat="45.028" lon="6.04548">
        <ele>1117.6</ele>
        <time>2020-09-05T10:25:51Z</time>
      </trkpt>
      <trkpt lat="45.02802" lon="6.04547">
        <ele>1117.8</ele>
        <time>2020-09-05T10:25:52Z</time>
      </trkpt>
      <trkpt lat="45.02805" lon="6.04545">
        <ele>1117.8</ele>
        <time>2020-09-05T10:25:53Z</time>
      </trkpt>
      <trkpt lat="45.02808" lon="6.04543">
        <ele>1118.2</ele>
        <time>2020-09-05T10:25:54Z</time>
      </trkpt>
      <trkpt lat="45.0281" lon="6.0454">
        <ele>1118.6</ele>
        <time>2020-09-05T10:25:55Z</time>
      </trkpt>
      <trkpt lat="45.02813" lon="6.04538">
        <ele>1118.6</ele>
        <time>2020-09-05T10:25:56Z</time>
      </trkpt>
      <trkpt lat="45.02815" lon="6.04536">
        <ele>1119.2</ele>
        <time>2020-09-05T10:25:57Z</time>
      </trkpt>
      <trkpt lat="45.02817" lon="6.04533">
        <ele>1119.6</ele>
        <time>2020-09-05T10:25:58Z</time>
      </trkpt>
      <trkpt lat="45.0282" lon="6.04531">
        <ele>1120.2</ele>
        <time>2020-09-05T10:25:59Z</time>
      </trkpt>
      <trkpt lat="45.02821" lon="6.04528">
        <ele>1120.8</ele>
        <time>2020-09-05T10:26:00Z</time>
      </trkpt>
      <trkpt lat="45.02822" lon="6.04525">
        <ele>1121</ele>
        <time>2020-09-05T10:26:01Z</time>
      </trkpt>
      <trkpt lat="45.02823" lon="6.04521">
        <ele>1121.2</ele>
        <time>2020-09-05T10:26:02Z</time>
      </trkpt>
      <trkpt lat="45.02825" lon="6.04518">
        <ele>1121.6</ele>
        <time>2020-09-05T10:26:03Z</time>
      </trkpt>
      <trkpt lat="45.02826" lon="6.04515">
        <ele>1121.6</ele>
        <time>2020-09-05T10:26:04Z</time>
      </trkpt>
      <trkpt lat="45.02827" lon="6.04511">
        <ele>1121.8</ele>
        <time>2020-09-05T10:26:05Z</time>
      </trkpt>
      <trkpt lat="45.02828" lon="6.04508">
        <ele>1122.4</ele>
        <time>2020-09-05T10:26:06Z</time>
      </trkpt>
      <trkpt lat="45.0283" lon="6.04504">
        <ele>1122.6</ele>
        <time>2020-09-05T10:26:07Z</time>
      </trkpt>
      <trkpt lat="45.02832" lon="6.04501">
        <ele>1123</ele>
        <time>2020-09-05T10:26:08Z</time>
      </trkpt>
      <trkpt lat="45.02833" lon="6.04498">
        <ele>1123.4</ele>
        <time>2020-09-05T10:26:09Z</time>
      </trkpt>
      <trkpt lat="45.02835" lon="6.04496">
        <ele>1123.6</ele>
        <time>2020-09-05T10:26:10Z</time>
      </trkpt>
      <trkpt lat="45.02836" lon="6.04493">
        <ele>1124</ele>
        <time>2020-09-05T10:26:11Z</time>
      </trkpt>
      <trkpt lat="45.02838" lon="6.04491">
        <ele>1124</ele>
        <time>2020-09-05T10:26:12Z</time>
      </trkpt>
      <trkpt lat="45.0284" lon="6.04488">
        <ele>1124.2</ele>
        <time>2020-09-05T10:26:13Z</time>
      </trkpt>
      <trkpt lat="45.02842" lon="6.04486">
        <ele>1124.6</ele>
        <time>2020-09-05T10:26:14Z</time>
      </trkpt>
      <trkpt lat="45.02844" lon="6.04483">
        <ele>1125</ele>
        <time>2020-09-05T10:26:15Z</time>
      </trkpt>
      <trkpt lat="45.02846" lon="6.04481">
        <ele>1125.2</ele>
        <time>2020-09-05T10:26:16Z</time>
      </trkpt>
      <trkpt lat="45.02848" lon="6.04478">
        <ele>1125.6</ele>
        <time>2020-09-05T10:26:17Z</time>
      </trkpt>
      <trkpt lat="45.0285" lon="6.04476">
        <ele>1125.6</ele>
        <time>2020-09-05T10:26:18Z</time>
      </trkpt>
      <trkpt lat="45.02852" lon="6.04474">
        <ele>1125.8</ele>
        <time>2020-09-05T10:26:19Z</time>
      </trkpt>
      <trkpt lat="45.02854" lon="6.04472">
        <ele>1126.2</ele>
        <time>2020-09-05T10:26:20Z</time>
      </trkpt>
      <trkpt lat="45.02857" lon="6.04469">
        <ele>1126.6</ele>
        <time>2020-09-05T10:26:21Z</time>
      </trkpt>
      <trkpt lat="45.02859" lon="6.04467">
        <ele>1127.2</ele>
        <time>2020-09-05T10:26:22Z</time>
      </trkpt>
      <trkpt lat="45.02862" lon="6.04465">
        <ele>1127.4</ele>
        <time>2020-09-05T10:26:23Z</time>
      </trkpt>
      <trkpt lat="45.02864" lon="6.04462">
        <ele>1127.6</ele>
        <time>2020-09-05T10:26:24Z</time>
      </trkpt>
      <trkpt lat="45.02866" lon="6.04459">
        <ele>1127.8</ele>
        <time>2020-09-05T10:26:25Z</time>
      </trkpt>
      <trkpt lat="45.02868" lon="6.04456">
        <ele>1128</ele>
        <time>2020-09-05T10:26:26Z</time>
      </trkpt>
      <trkpt lat="45.02871" lon="6.04453">
        <ele>1128.2</ele>
        <time>2020-09-05T10:26:27Z</time>
      </trkpt>
      <trkpt lat="45.02873" lon="6.0445">
        <ele>1128.4</ele>
        <time>2020-09-05T10:26:28Z</time>
      </trkpt>
      <trkpt lat="45.02875" lon="6.04447">
        <ele>1128.6</ele>
        <time>2020-09-05T10:26:29Z</time>
      </trkpt>
      <trkpt lat="45.02877" lon="6.04444">
        <ele>1128.8</ele>
        <time>2020-09-05T10:26:30Z</time>
      </trkpt>
      <trkpt lat="45.0288" lon="6.0444">
        <ele>1129</ele>
        <time>2020-09-05T10:26:31Z</time>
      </trkpt>
      <trkpt lat="45.02882" lon="6.04437">
        <ele>1129.4</ele>
        <time>2020-09-05T10:26:32Z</time>
      </trkpt>
      <trkpt lat="45.02884" lon="6.04433">
        <ele>1129.6</ele>
        <time>2020-09-05T10:26:33Z</time>
      </trkpt>
      <trkpt lat="45.02886" lon="6.0443">
        <ele>1130</ele>
        <time>2020-09-05T10:26:34Z</time>
      </trkpt>
      <trkpt lat="45.02888" lon="6.04426">
        <ele>1130.4</ele>
        <time>2020-09-05T10:26:35Z</time>
      </trkpt>
      <trkpt lat="45.0289" lon="6.04423">
        <ele>1130.6</ele>
        <time>2020-09-05T10:26:36Z</time>
      </trkpt>
      <trkpt lat="45.02892" lon="6.0442">
        <ele>1131</ele>
        <time>2020-09-05T10:26:37Z</time>
      </trkpt>
      <trkpt lat="45.02895" lon="6.04418">
        <ele>1131</ele>
        <time>2020-09-05T10:26:38Z</time>
      </trkpt>
      <trkpt lat="45.02898" lon="6.04416">
        <ele>1131.4</ele>
        <time>2020-09-05T10:26:39Z</time>
      </trkpt>
      <trkpt lat="45.02899" lon="6.04412">
        <ele>1131.6</ele>
        <time>2020-09-05T10:26:40Z</time>
      </trkpt>
      <trkpt lat="45.029" lon="6.04408">
        <ele>1131.8</ele>
        <time>2020-09-05T10:26:41Z</time>
      </trkpt>
      <trkpt lat="45.02898" lon="6.04405">
        <ele>1132</ele>
        <time>2020-09-05T10:26:42Z</time>
      </trkpt>
      <trkpt lat="45.02896" lon="6.04404">
        <ele>1132</ele>
        <time>2020-09-05T10:26:43Z</time>
      </trkpt>
      <trkpt lat="45.02893" lon="6.04404">
        <ele>1132.4</ele>
        <time>2020-09-05T10:26:44Z</time>
      </trkpt>
      <trkpt lat="45.0289" lon="6.04406">
        <ele>1132.4</ele>
        <time>2020-09-05T10:26:45Z</time>
      </trkpt>
      <trkpt lat="45.02887" lon="6.0441">
        <ele>1132.4</ele>
        <time>2020-09-05T10:26:46Z</time>
      </trkpt>
      <trkpt lat="45.02885" lon="6.04414">
        <ele>1132.8</ele>
        <time>2020-09-05T10:26:47Z</time>
      </trkpt>
      <trkpt lat="45.02882" lon="6.04418">
        <ele>1133</ele>
        <time>2020-09-05T10:26:48Z</time>
      </trkpt>
      <trkpt lat="45.0288" lon="6.04423">
        <ele>1133.2</ele>
        <time>2020-09-05T10:26:49Z</time>
      </trkpt>
      <trkpt lat="45.02878" lon="6.04426">
        <ele>1133.6</ele>
        <time>2020-09-05T10:26:50Z</time>
      </trkpt>
      <trkpt lat="45.02875" lon="6.0443">
        <ele>1133.8</ele>
        <time>2020-09-05T10:26:51Z</time>
      </trkpt>
      <trkpt lat="45.02872" lon="6.04433">
        <ele>1134</ele>
        <time>2020-09-05T10:26:52Z</time>
      </trkpt>
      <trkpt lat="45.02869" lon="6.04437">
        <ele>1134.4</ele>
        <time>2020-09-05T10:26:53Z</time>
      </trkpt>
      <trkpt lat="45.02867" lon="6.0444">
        <ele>1134.6</ele>
        <time>2020-09-05T10:26:54Z</time>
      </trkpt>
      <trkpt lat="45.02864" lon="6.04442">
        <ele>1135</ele>
        <time>2020-09-05T10:26:55Z</time>
      </trkpt>
      <trkpt lat="45.02861" lon="6.04445">
        <ele>1135.4</ele>
        <time>2020-09-05T10:26:56Z</time>
      </trkpt>
      <trkpt lat="45.02857" lon="6.04447">
        <ele>1135.8</ele>
        <time>2020-09-05T10:26:57Z</time>
      </trkpt>
      <trkpt lat="45.02854" lon="6.04449">
        <ele>1136</ele>
        <time>2020-09-05T10:26:58Z</time>
      </trkpt>
      <trkpt lat="45.02851" lon="6.04451">
        <ele>1136.2</ele>
        <time>2020-09-05T10:26:59Z</time>
      </trkpt>
      <trkpt lat="45.02848" lon="6.04454">
        <ele>1136.4</ele>
        <time>2020-09-05T10:27:00Z</time>
      </trkpt>
      <trkpt lat="45.02845" lon="6.04455">
        <ele>1136.8</ele>
        <time>2020-09-05T10:27:01Z</time>
      </trkpt>
      <trkpt lat="45.02842" lon="6.04457">
        <ele>1137</ele>
        <time>2020-09-05T10:27:02Z</time>
      </trkpt>
      <trkpt lat="45.02839" lon="6.04459">
        <ele>1137.6</ele>
        <time>2020-09-05T10:27:03Z</time>
      </trkpt>
      <trkpt lat="45.02836" lon="6.04461">
        <ele>1138.2</ele>
        <time>2020-09-05T10:27:04Z</time>
      </trkpt>
      <trkpt lat="45.02833" lon="6.04463">
        <ele>1138.4</ele>
        <time>2020-09-05T10:27:05Z</time>
      </trkpt>
      <trkpt lat="45.02829" lon="6.04465">
        <ele>1138.6</ele>
        <time>2020-09-05T10:27:06Z</time>
      </trkpt>
      <trkpt lat="45.02826" lon="6.04468">
        <ele>1139</ele>
        <time>2020-09-05T10:27:07Z</time>
      </trkpt>
      <trkpt lat="45.02823" lon="6.0447">
        <ele>1139.2</ele>
        <time>2020-09-05T10:27:08Z</time>
      </trkpt>
      <trkpt lat="45.02821" lon="6.04472">
        <ele>1139.6</ele>
        <time>2020-09-05T10:27:09Z</time>
      </trkpt>
      <trkpt lat="45.02819" lon="6.04474">
        <ele>1140</ele>
        <time>2020-09-05T10:27:10Z</time>
      </trkpt>
      <trkpt lat="45.02815" lon="6.04477">
        <ele>1139.8</ele>
        <time>2020-09-05T10:27:11Z</time>
      </trkpt>
      <trkpt lat="45.02812" lon="6.04479">
        <ele>1140.2</ele>
        <time>2020-09-05T10:27:12Z</time>
      </trkpt>
      <trkpt lat="45.02809" lon="6.0448">
        <ele>1140.4</ele>
        <time>2020-09-05T10:27:13Z</time>
      </trkpt>
      <trkpt lat="45.02806" lon="6.04482">
        <ele>1140.8</ele>
        <time>2020-09-05T10:27:14Z</time>
      </trkpt>
      <trkpt lat="45.02803" lon="6.04483">
        <ele>1141</ele>
        <time>2020-09-05T10:27:15Z</time>
      </trkpt>
      <trkpt lat="45.02796" lon="6.04485">
        <ele>1141.8</ele>
        <time>2020-09-05T10:27:17Z</time>
      </trkpt>
      <trkpt lat="45.02793" lon="6.04485">
        <ele>1142</ele>
        <time>2020-09-05T10:27:18Z</time>
      </trkpt>
      <trkpt lat="45.0279" lon="6.04485">
        <ele>1142.4</ele>
        <time>2020-09-05T10:27:19Z</time>
      </trkpt>
      <trkpt lat="45.02787" lon="6.04486">
        <ele>1143</ele>
        <time>2020-09-05T10:27:20Z</time>
      </trkpt>
      <trkpt lat="45.02784" lon="6.04486">
        <ele>1143.2</ele>
        <time>2020-09-05T10:27:21Z</time>
      </trkpt>
      <trkpt lat="45.02781" lon="6.04486">
        <ele>1143.8</ele>
        <time>2020-09-05T10:27:22Z</time>
      </trkpt>
      <trkpt lat="45.02778" lon="6.04487">
        <ele>1144.2</ele>
        <time>2020-09-05T10:27:23Z</time>
      </trkpt>
      <trkpt lat="45.02776" lon="6.04487">
        <ele>1144.6</ele>
        <time>2020-09-05T10:27:24Z</time>
      </trkpt>
      <trkpt lat="45.02773" lon="6.04488">
        <ele>1144.8</ele>
        <time>2020-09-05T10:27:25Z</time>
      </trkpt>
      <trkpt lat="45.0277" lon="6.04488">
        <ele>1145.2</ele>
        <time>2020-09-05T10:27:26Z</time>
      </trkpt>
      <trkpt lat="45.02767" lon="6.04489">
        <ele>1145.4</ele>
        <time>2020-09-05T10:27:27Z</time>
      </trkpt>
      <trkpt lat="45.02765" lon="6.0449">
        <ele>1145.6</ele>
        <time>2020-09-05T10:27:28Z</time>
      </trkpt>
      <trkpt lat="45.02762" lon="6.0449">
        <ele>1146</ele>
        <time>2020-09-05T10:27:29Z</time>
      </trkpt>
      <trkpt lat="45.0276" lon="6.0449">
        <ele>1146.4</ele>
        <time>2020-09-05T10:27:30Z</time>
      </trkpt>
      <trkpt lat="45.02758" lon="6.04491">
        <ele>1146.4</ele>
        <time>2020-09-05T10:27:31Z</time>
      </trkpt>
      <trkpt lat="45.02755" lon="6.04491">
        <ele>1146.8</ele>
        <time>2020-09-05T10:27:32Z</time>
      </trkpt>
      <trkpt lat="45.0275" lon="6.04491">
        <ele>1147.4</ele>
        <time>2020-09-05T10:27:34Z</time>
      </trkpt>
      <trkpt lat="45.02748" lon="6.04491">
        <ele>1147.8</ele>
        <time>2020-09-05T10:27:35Z</time>
      </trkpt>
      <trkpt lat="45.02738" lon="6.04489">
        <ele>1148.8</ele>
        <time>2020-09-05T10:27:38Z</time>
      </trkpt>
      <trkpt lat="45.02732" lon="6.0449">
        <ele>1149.6</ele>
        <time>2020-09-05T10:27:40Z</time>
      </trkpt>
      <trkpt lat="45.0273" lon="6.0449">
        <ele>1150</ele>
        <time>2020-09-05T10:27:41Z</time>
      </trkpt>
      <trkpt lat="45.02727" lon="6.04491">
        <ele>1150.2</ele>
        <time>2020-09-05T10:27:42Z</time>
      </trkpt>
      <trkpt lat="45.02724" lon="6.04491">
        <ele>1150.2</ele>
        <time>2020-09-05T10:27:43Z</time>
      </trkpt>
      <trkpt lat="45.02721" lon="6.04492">
        <ele>1150.4</ele>
        <time>2020-09-05T10:27:44Z</time>
      </trkpt>
      <trkpt lat="45.02719" lon="6.04493">
        <ele>1150.8</ele>
        <time>2020-09-05T10:27:45Z</time>
      </trkpt>
      <trkpt lat="45.02716" lon="6.04495">
        <ele>1151</ele>
        <time>2020-09-05T10:27:46Z</time>
      </trkpt>
      <trkpt lat="45.02714" lon="6.04497">
        <ele>1151.4</ele>
        <time>2020-09-05T10:27:47Z</time>
      </trkpt>
      <trkpt lat="45.02711" lon="6.045">
        <ele>1151.8</ele>
        <time>2020-09-05T10:27:48Z</time>
      </trkpt>
      <trkpt lat="45.02709" lon="6.04503">
        <ele>1152</ele>
        <time>2020-09-05T10:27:49Z</time>
      </trkpt>
      <trkpt lat="45.02707" lon="6.04506">
        <ele>1152.2</ele>
        <time>2020-09-05T10:27:50Z</time>
      </trkpt>
      <trkpt lat="45.02705" lon="6.04509">
        <ele>1152.6</ele>
        <time>2020-09-05T10:27:51Z</time>
      </trkpt>
      <trkpt lat="45.02703" lon="6.04512">
        <ele>1152.8</ele>
        <time>2020-09-05T10:27:52Z</time>
      </trkpt>
      <trkpt lat="45.02701" lon="6.04514">
        <ele>1153</ele>
        <time>2020-09-05T10:27:53Z</time>
      </trkpt>
      <trkpt lat="45.02699" lon="6.04516">
        <ele>1153.4</ele>
        <time>2020-09-05T10:27:54Z</time>
      </trkpt>
      <trkpt lat="45.02696" lon="6.04517">
        <ele>1153.6</ele>
        <time>2020-09-05T10:27:55Z</time>
      </trkpt>
      <trkpt lat="45.02694" lon="6.04519">
        <ele>1154</ele>
        <time>2020-09-05T10:27:56Z</time>
      </trkpt>
      <trkpt lat="45.02691" lon="6.04521">
        <ele>1154.2</ele>
        <time>2020-09-05T10:27:57Z</time>
      </trkpt>
      <trkpt lat="45.02688" lon="6.04522">
        <ele>1154.6</ele>
        <time>2020-09-05T10:27:58Z</time>
      </trkpt>
      <trkpt lat="45.02686" lon="6.04524">
        <ele>1155</ele>
        <time>2020-09-05T10:27:59Z</time>
      </trkpt>
      <trkpt lat="45.02683" lon="6.04526">
        <ele>1155.2</ele>
        <time>2020-09-05T10:28:00Z</time>
      </trkpt>
      <trkpt lat="45.0268" lon="6.04527">
        <ele>1155.6</ele>
        <time>2020-09-05T10:28:01Z</time>
      </trkpt>
      <trkpt lat="45.02677" lon="6.04528">
        <ele>1155.8</ele>
        <time>2020-09-05T10:28:02Z</time>
      </trkpt>
      <trkpt lat="45.02674" lon="6.04529">
        <ele>1155.8</ele>
        <time>2020-09-05T10:28:03Z</time>
      </trkpt>
      <trkpt lat="45.02671" lon="6.04531">
        <ele>1156.2</ele>
        <time>2020-09-05T10:28:04Z</time>
      </trkpt>
      <trkpt lat="45.02669" lon="6.04533">
        <ele>1156.6</ele>
        <time>2020-09-05T10:28:05Z</time>
      </trkpt>
      <trkpt lat="45.02666" lon="6.04535">
        <ele>1156.8</ele>
        <time>2020-09-05T10:28:06Z</time>
      </trkpt>
      <trkpt lat="45.02664" lon="6.04537">
        <ele>1157.2</ele>
        <time>2020-09-05T10:28:07Z</time>
      </trkpt>
      <trkpt lat="45.02661" lon="6.04539">
        <ele>1157.8</ele>
        <time>2020-09-05T10:28:08Z</time>
      </trkpt>
      <trkpt lat="45.02659" lon="6.04541">
        <ele>1158</ele>
        <time>2020-09-05T10:28:09Z</time>
      </trkpt>
      <trkpt lat="45.02657" lon="6.04544">
        <ele>1158.4</ele>
        <time>2020-09-05T10:28:10Z</time>
      </trkpt>
      <trkpt lat="45.02655" lon="6.04547">
        <ele>1158.6</ele>
        <time>2020-09-05T10:28:11Z</time>
      </trkpt>
      <trkpt lat="45.02652" lon="6.04549">
        <ele>1159</ele>
        <time>2020-09-05T10:28:12Z</time>
      </trkpt>
      <trkpt lat="45.02649" lon="6.04551">
        <ele>1159</ele>
        <time>2020-09-05T10:28:13Z</time>
      </trkpt>
      <trkpt lat="45.02646" lon="6.04552">
        <ele>1159.2</ele>
        <time>2020-09-05T10:28:14Z</time>
      </trkpt>
      <trkpt lat="45.02643" lon="6.04554">
        <ele>1159.6</ele>
        <time>2020-09-05T10:28:15Z</time>
      </trkpt>
      <trkpt lat="45.0264" lon="6.04555">
        <ele>1159.8</ele>
        <time>2020-09-05T10:28:16Z</time>
      </trkpt>
      <trkpt lat="45.02637" lon="6.04557">
        <ele>1159.8</ele>
        <time>2020-09-05T10:28:17Z</time>
      </trkpt>
      <trkpt lat="45.02634" lon="6.04558">
        <ele>1160</ele>
        <time>2020-09-05T10:28:18Z</time>
      </trkpt>
      <trkpt lat="45.02631" lon="6.0456">
        <ele>1160.6</ele>
        <time>2020-09-05T10:28:19Z</time>
      </trkpt>
      <trkpt lat="45.02629" lon="6.04562">
        <ele>1160.8</ele>
        <time>2020-09-05T10:28:20Z</time>
      </trkpt>
      <trkpt lat="45.02626" lon="6.04564">
        <ele>1161.4</ele>
        <time>2020-09-05T10:28:21Z</time>
      </trkpt>
      <trkpt lat="45.02623" lon="6.04567">
        <ele>1161.4</ele>
        <time>2020-09-05T10:28:22Z</time>
      </trkpt>
      <trkpt lat="45.02621" lon="6.04569">
        <ele>1161.8</ele>
        <time>2020-09-05T10:28:23Z</time>
      </trkpt>
      <trkpt lat="45.02619" lon="6.04571">
        <ele>1162</ele>
        <time>2020-09-05T10:28:24Z</time>
      </trkpt>
      <trkpt lat="45.02615" lon="6.04578">
        <ele>1162.8</ele>
        <time>2020-09-05T10:28:26Z</time>
      </trkpt>
      <trkpt lat="45.0261" lon="6.04592">
        <ele>1164</ele>
        <time>2020-09-05T10:28:30Z</time>
      </trkpt>
      <trkpt lat="45.02604" lon="6.04603">
        <ele>1165</ele>
        <time>2020-09-05T10:28:33Z</time>
      </trkpt>
      <trkpt lat="45.02596" lon="6.04617">
        <ele>1166.2</ele>
        <time>2020-09-05T10:28:37Z</time>
      </trkpt>
      <trkpt lat="45.0259" lon="6.04629">
        <ele>1167.2</ele>
        <time>2020-09-05T10:28:40Z</time>
      </trkpt>
      <trkpt lat="45.02585" lon="6.04644">
        <ele>1168</ele>
        <time>2020-09-05T10:28:44Z</time>
      </trkpt>
      <trkpt lat="45.02584" lon="6.04648">
        <ele>1168.4</ele>
        <time>2020-09-05T10:28:45Z</time>
      </trkpt>
      <trkpt lat="45.02583" lon="6.04652">
        <ele>1168.6</ele>
        <time>2020-09-05T10:28:46Z</time>
      </trkpt>
      <trkpt lat="45.0258" lon="6.0466">
        <ele>1169.2</ele>
        <time>2020-09-05T10:28:48Z</time>
      </trkpt>
      <trkpt lat="45.02578" lon="6.04664">
        <ele>1169.6</ele>
        <time>2020-09-05T10:28:49Z</time>
      </trkpt>
      <trkpt lat="45.02573" lon="6.04674">
        <ele>1170.8</ele>
        <time>2020-09-05T10:28:52Z</time>
      </trkpt>
      <trkpt lat="45.02571" lon="6.04678">
        <ele>1171</ele>
        <time>2020-09-05T10:28:53Z</time>
      </trkpt>
      <trkpt lat="45.02569" lon="6.04681">
        <ele>1171.6</ele>
        <time>2020-09-05T10:28:54Z</time>
      </trkpt>
      <trkpt lat="45.02566" lon="6.04684">
        <ele>1172</ele>
        <time>2020-09-05T10:28:55Z</time>
      </trkpt>
      <trkpt lat="45.02564" lon="6.04686">
        <ele>1172.4</ele>
        <time>2020-09-05T10:28:56Z</time>
      </trkpt>
      <trkpt lat="45.02561" lon="6.04689">
        <ele>1172.6</ele>
        <time>2020-09-05T10:28:57Z</time>
      </trkpt>
      <trkpt lat="45.02559" lon="6.04692">
        <ele>1173.2</ele>
        <time>2020-09-05T10:28:58Z</time>
      </trkpt>
      <trkpt lat="45.02557" lon="6.04695">
        <ele>1173.6</ele>
        <time>2020-09-05T10:28:59Z</time>
      </trkpt>
      <trkpt lat="45.02555" lon="6.04698">
        <ele>1173.8</ele>
        <time>2020-09-05T10:29:00Z</time>
      </trkpt>
      <trkpt lat="45.02552" lon="6.04699">
        <ele>1174</ele>
        <time>2020-09-05T10:29:01Z</time>
      </trkpt>
      <trkpt lat="45.02551" lon="6.04702">
        <ele>1174</ele>
        <time>2020-09-05T10:29:02Z</time>
      </trkpt>
      <trkpt lat="45.02546" lon="6.04712">
        <ele>1174.8</ele>
        <time>2020-09-05T10:29:05Z</time>
      </trkpt>
      <trkpt lat="45.0254" lon="6.04719">
        <ele>1175.8</ele>
        <time>2020-09-05T10:29:08Z</time>
      </trkpt>
      <trkpt lat="45.02532" lon="6.04726">
        <ele>1177.2</ele>
        <time>2020-09-05T10:29:12Z</time>
      </trkpt>
      <trkpt lat="45.02524" lon="6.04734">
        <ele>1178.6</ele>
        <time>2020-09-05T10:29:17Z</time>
      </trkpt>
      <trkpt lat="45.02515" lon="6.0474">
        <ele>1179.8</ele>
        <time>2020-09-05T10:29:21Z</time>
      </trkpt>
      <trkpt lat="45.0251" lon="6.04751">
        <ele>1181</ele>
        <time>2020-09-05T10:29:25Z</time>
      </trkpt>
      <trkpt lat="45.02504" lon="6.04764">
        <ele>1182.2</ele>
        <time>2020-09-05T10:29:29Z</time>
      </trkpt>
      <trkpt lat="45.02501" lon="6.04778">
        <ele>1183.6</ele>
        <time>2020-09-05T10:29:33Z</time>
      </trkpt>
      <trkpt lat="45.02499" lon="6.04785">
        <ele>1184.4</ele>
        <time>2020-09-05T10:29:35Z</time>
      </trkpt>
      <trkpt lat="45.02493" lon="6.04797">
        <ele>1185.4</ele>
        <time>2020-09-05T10:29:39Z</time>
      </trkpt>
      <trkpt lat="45.02491" lon="6.04801">
        <ele>1185.8</ele>
        <time>2020-09-05T10:29:40Z</time>
      </trkpt>
      <trkpt lat="45.02487" lon="6.04807">
        <ele>1186.6</ele>
        <time>2020-09-05T10:29:42Z</time>
      </trkpt>
      <trkpt lat="45.02485" lon="6.0481">
        <ele>1187</ele>
        <time>2020-09-05T10:29:43Z</time>
      </trkpt>
      <trkpt lat="45.02484" lon="6.04813">
        <ele>1187.4</ele>
        <time>2020-09-05T10:29:44Z</time>
      </trkpt>
      <trkpt lat="45.0248" lon="6.04822">
        <ele>1188</ele>
        <time>2020-09-05T10:29:47Z</time>
      </trkpt>
      <trkpt lat="45.02478" lon="6.04825">
        <ele>1188.4</ele>
        <time>2020-09-05T10:29:48Z</time>
      </trkpt>
      <trkpt lat="45.02476" lon="6.04828">
        <ele>1188.6</ele>
        <time>2020-09-05T10:29:49Z</time>
      </trkpt>
      <trkpt lat="45.02475" lon="6.0483">
        <ele>1188.8</ele>
        <time>2020-09-05T10:29:50Z</time>
      </trkpt>
      <trkpt lat="45.02473" lon="6.04833">
        <ele>1189.2</ele>
        <time>2020-09-05T10:29:51Z</time>
      </trkpt>
      <trkpt lat="45.02471" lon="6.04835">
        <ele>1189.6</ele>
        <time>2020-09-05T10:29:52Z</time>
      </trkpt>
      <trkpt lat="45.02469" lon="6.04838">
        <ele>1190</ele>
        <time>2020-09-05T10:29:53Z</time>
      </trkpt>
      <trkpt lat="45.02467" lon="6.04841">
        <ele>1190.4</ele>
        <time>2020-09-05T10:29:54Z</time>
      </trkpt>
      <trkpt lat="45.02465" lon="6.04844">
        <ele>1190.8</ele>
        <time>2020-09-05T10:29:55Z</time>
      </trkpt>
      <trkpt lat="45.02462" lon="6.04847">
        <ele>1190.8</ele>
        <time>2020-09-05T10:29:56Z</time>
      </trkpt>
      <trkpt lat="45.0246" lon="6.04848">
        <ele>1191.2</ele>
        <time>2020-09-05T10:29:57Z</time>
      </trkpt>
      <trkpt lat="45.02458" lon="6.0485">
        <ele>1191.4</ele>
        <time>2020-09-05T10:29:58Z</time>
      </trkpt>
      <trkpt lat="45.02455" lon="6.04851">
        <ele>1191.6</ele>
        <time>2020-09-05T10:29:59Z</time>
      </trkpt>
      <trkpt lat="45.02452" lon="6.04852">
        <ele>1191.8</ele>
        <time>2020-09-05T10:30:00Z</time>
      </trkpt>
      <trkpt lat="45.02449" lon="6.04853">
        <ele>1192.2</ele>
        <time>2020-09-05T10:30:01Z</time>
      </trkpt>
      <trkpt lat="45.02447" lon="6.04854">
        <ele>1192.6</ele>
        <time>2020-09-05T10:30:02Z</time>
      </trkpt>
      <trkpt lat="45.02444" lon="6.04855">
        <ele>1193</ele>
        <time>2020-09-05T10:30:03Z</time>
      </trkpt>
      <trkpt lat="45.02441" lon="6.04855">
        <ele>1193.4</ele>
        <time>2020-09-05T10:30:04Z</time>
      </trkpt>
      <trkpt lat="45.02438" lon="6.04855">
        <ele>1194</ele>
        <time>2020-09-05T10:30:05Z</time>
      </trkpt>
      <trkpt lat="45.02435" lon="6.04855">
        <ele>1194.4</ele>
        <time>2020-09-05T10:30:06Z</time>
      </trkpt>
      <trkpt lat="45.02433" lon="6.04855">
        <ele>1194.8</ele>
        <time>2020-09-05T10:30:07Z</time>
      </trkpt>
      <trkpt lat="45.0243" lon="6.04856">
        <ele>1195</ele>
        <time>2020-09-05T10:30:08Z</time>
      </trkpt>
      <trkpt lat="45.02427" lon="6.04856">
        <ele>1195.2</ele>
        <time>2020-09-05T10:30:09Z</time>
      </trkpt>
      <trkpt lat="45.02424" lon="6.04857">
        <ele>1195.4</ele>
        <time>2020-09-05T10:30:10Z</time>
      </trkpt>
      <trkpt lat="45.02422" lon="6.04857">
        <ele>1195.8</ele>
        <time>2020-09-05T10:30:11Z</time>
      </trkpt>
      <trkpt lat="45.0242" lon="6.04858">
        <ele>1196</ele>
        <time>2020-09-05T10:30:12Z</time>
      </trkpt>
      <trkpt lat="45.02417" lon="6.04859">
        <ele>1196.2</ele>
        <time>2020-09-05T10:30:13Z</time>
      </trkpt>
      <trkpt lat="45.02415" lon="6.0486">
        <ele>1196.6</ele>
        <time>2020-09-05T10:30:14Z</time>
      </trkpt>
      <trkpt lat="45.02413" lon="6.04861">
        <ele>1197</ele>
        <time>2020-09-05T10:30:15Z</time>
      </trkpt>
      <trkpt lat="45.02411" lon="6.04861">
        <ele>1197.4</ele>
        <time>2020-09-05T10:30:16Z</time>
      </trkpt>
      <trkpt lat="45.02409" lon="6.04862">
        <ele>1197.8</ele>
        <time>2020-09-05T10:30:17Z</time>
      </trkpt>
      <trkpt lat="45.02406" lon="6.04863">
        <ele>1198.2</ele>
        <time>2020-09-05T10:30:18Z</time>
      </trkpt>
      <trkpt lat="45.02404" lon="6.04864">
        <ele>1198.6</ele>
        <time>2020-09-05T10:30:19Z</time>
      </trkpt>
      <trkpt lat="45.02402" lon="6.04864">
        <ele>1199</ele>
        <time>2020-09-05T10:30:20Z</time>
      </trkpt>
      <trkpt lat="45.02399" lon="6.04865">
        <ele>1199.2</ele>
        <time>2020-09-05T10:30:21Z</time>
      </trkpt>
      <trkpt lat="45.02397" lon="6.04865">
        <ele>1199.4</ele>
        <time>2020-09-05T10:30:22Z</time>
      </trkpt>
      <trkpt lat="45.02394" lon="6.04866">
        <ele>1199.8</ele>
        <time>2020-09-05T10:30:23Z</time>
      </trkpt>
      <trkpt lat="45.02391" lon="6.04867">
        <ele>1199.8</ele>
        <time>2020-09-05T10:30:24Z</time>
      </trkpt>
      <trkpt lat="45.02389" lon="6.04868">
        <ele>1200.2</ele>
        <time>2020-09-05T10:30:25Z</time>
      </trkpt>
      <trkpt lat="45.02386" lon="6.04869">
        <ele>1200.2</ele>
        <time>2020-09-05T10:30:26Z</time>
      </trkpt>
      <trkpt lat="45.02383" lon="6.0487">
        <ele>1200.6</ele>
        <time>2020-09-05T10:30:27Z</time>
      </trkpt>
      <trkpt lat="45.02381" lon="6.04872">
        <ele>1200.8</ele>
        <time>2020-09-05T10:30:28Z</time>
      </trkpt>
      <trkpt lat="45.02378" lon="6.04873">
        <ele>1201</ele>
        <time>2020-09-05T10:30:29Z</time>
      </trkpt>
      <trkpt lat="45.02376" lon="6.04875">
        <ele>1201.2</ele>
        <time>2020-09-05T10:30:30Z</time>
      </trkpt>
      <trkpt lat="45.02373" lon="6.04876">
        <ele>1201.6</ele>
        <time>2020-09-05T10:30:31Z</time>
      </trkpt>
      <trkpt lat="45.02371" lon="6.04878">
        <ele>1201.8</ele>
        <time>2020-09-05T10:30:32Z</time>
      </trkpt>
      <trkpt lat="45.02369" lon="6.04881">
        <ele>1202.2</ele>
        <time>2020-09-05T10:30:33Z</time>
      </trkpt>
      <trkpt lat="45.02366" lon="6.04884">
        <ele>1202.6</ele>
        <time>2020-09-05T10:30:34Z</time>
      </trkpt>
      <trkpt lat="45.02365" lon="6.04888">
        <ele>1202.8</ele>
        <time>2020-09-05T10:30:35Z</time>
      </trkpt>
      <trkpt lat="45.02363" lon="6.04892">
        <ele>1203.2</ele>
        <time>2020-09-05T10:30:36Z</time>
      </trkpt>
      <trkpt lat="45.02362" lon="6.04896">
        <ele>1203.2</ele>
        <time>2020-09-05T10:30:37Z</time>
      </trkpt>
      <trkpt lat="45.02362" lon="6.04901">
        <ele>1203.6</ele>
        <time>2020-09-05T10:30:38Z</time>
      </trkpt>
      <trkpt lat="45.02361" lon="6.04905">
        <ele>1203.6</ele>
        <time>2020-09-05T10:30:39Z</time>
      </trkpt>
      <trkpt lat="45.02361" lon="6.04909">
        <ele>1204</ele>
        <time>2020-09-05T10:30:40Z</time>
      </trkpt>
      <trkpt lat="45.02361" lon="6.04913">
        <ele>1204.2</ele>
        <time>2020-09-05T10:30:41Z</time>
      </trkpt>
      <trkpt lat="45.02358" lon="6.04921">
        <ele>1204.8</ele>
        <time>2020-09-05T10:30:43Z</time>
      </trkpt>
      <trkpt lat="45.02356" lon="6.04925">
        <ele>1204.8</ele>
        <time>2020-09-05T10:30:44Z</time>
      </trkpt>
      <trkpt lat="45.02354" lon="6.04928">
        <ele>1205.2</ele>
        <time>2020-09-05T10:30:45Z</time>
      </trkpt>
      <trkpt lat="45.02346" lon="6.0494">
        <ele>1206</ele>
        <time>2020-09-05T10:30:48Z</time>
      </trkpt>
      <trkpt lat="45.02344" lon="6.04945">
        <ele>1206.2</ele>
        <time>2020-09-05T10:30:49Z</time>
      </trkpt>
      <trkpt lat="45.02342" lon="6.04949">
        <ele>1206.4</ele>
        <time>2020-09-05T10:30:50Z</time>
      </trkpt>
      <trkpt lat="45.02339" lon="6.04953">
        <ele>1206.4</ele>
        <time>2020-09-05T10:30:51Z</time>
      </trkpt>
      <trkpt lat="45.02336" lon="6.04957">
        <ele>1206.8</ele>
        <time>2020-09-05T10:30:52Z</time>
      </trkpt>
      <trkpt lat="45.02332" lon="6.04961">
        <ele>1206.8</ele>
        <time>2020-09-05T10:30:53Z</time>
      </trkpt>
      <trkpt lat="45.02328" lon="6.04965">
        <ele>1207</ele>
        <time>2020-09-05T10:30:54Z</time>
      </trkpt>
      <trkpt lat="45.02325" lon="6.0497">
        <ele>1207.2</ele>
        <time>2020-09-05T10:30:55Z</time>
      </trkpt>
      <trkpt lat="45.02322" lon="6.04974">
        <ele>1207.4</ele>
        <time>2020-09-05T10:30:56Z</time>
      </trkpt>
      <trkpt lat="45.0232" lon="6.0498">
        <ele>1207.6</ele>
        <time>2020-09-05T10:30:57Z</time>
      </trkpt>
      <trkpt lat="45.02317" lon="6.04985">
        <ele>1207.8</ele>
        <time>2020-09-05T10:30:58Z</time>
      </trkpt>
      <trkpt lat="45.02314" lon="6.04988">
        <ele>1208.2</ele>
        <time>2020-09-05T10:30:59Z</time>
      </trkpt>
      <trkpt lat="45.0231" lon="6.04989">
        <ele>1208.4</ele>
        <time>2020-09-05T10:31:00Z</time>
      </trkpt>
      <trkpt lat="45.02308" lon="6.04987">
        <ele>1208.2</ele>
        <time>2020-09-05T10:31:01Z</time>
      </trkpt>
      <trkpt lat="45.02308" lon="6.04982">
        <ele>1208.4</ele>
        <time>2020-09-05T10:31:02Z</time>
      </trkpt>
      <trkpt lat="45.0231" lon="6.04978">
        <ele>1208.4</ele>
        <time>2020-09-05T10:31:03Z</time>
      </trkpt>
      <trkpt lat="45.02312" lon="6.04974">
        <ele>1208.6</ele>
        <time>2020-09-05T10:31:04Z</time>
      </trkpt>
      <trkpt lat="45.02315" lon="6.04971">
        <ele>1208.8</ele>
        <time>2020-09-05T10:31:05Z</time>
      </trkpt>
      <trkpt lat="45.02317" lon="6.04967">
        <ele>1209.2</ele>
        <time>2020-09-05T10:31:06Z</time>
      </trkpt>
      <trkpt lat="45.0232" lon="6.04963">
        <ele>1209.6</ele>
        <time>2020-09-05T10:31:07Z</time>
      </trkpt>
      <trkpt lat="45.02323" lon="6.0496">
        <ele>1210</ele>
        <time>2020-09-05T10:31:08Z</time>
      </trkpt>
      <trkpt lat="45.02326" lon="6.04956">
        <ele>1210.4</ele>
        <time>2020-09-05T10:31:09Z</time>
      </trkpt>
      <trkpt lat="45.02332" lon="6.04945">
        <ele>1211.4</ele>
        <time>2020-09-05T10:31:12Z</time>
      </trkpt>
      <trkpt lat="45.02332" lon="6.0493">
        <ele>1212.6</ele>
        <time>2020-09-05T10:31:15Z</time>
      </trkpt>
      <trkpt lat="45.02331" lon="6.04917">
        <ele>1213.2</ele>
        <time>2020-09-05T10:31:18Z</time>
      </trkpt>
      <trkpt lat="45.02331" lon="6.049">
        <ele>1214.2</ele>
        <time>2020-09-05T10:31:21Z</time>
      </trkpt>
      <trkpt lat="45.02332" lon="6.04895">
        <ele>1214.4</ele>
        <time>2020-09-05T10:31:22Z</time>
      </trkpt>
      <trkpt lat="45.02333" lon="6.04891">
        <ele>1214.6</ele>
        <time>2020-09-05T10:31:23Z</time>
      </trkpt>
      <trkpt lat="45.02337" lon="6.04883">
        <ele>1215.2</ele>
        <time>2020-09-05T10:31:25Z</time>
      </trkpt>
      <trkpt lat="45.02346" lon="6.04877">
        <ele>1216.6</ele>
        <time>2020-09-05T10:31:29Z</time>
      </trkpt>
      <trkpt lat="45.02355" lon="6.04872">
        <ele>1217.8</ele>
        <time>2020-09-05T10:31:32Z</time>
      </trkpt>
      <trkpt lat="45.02361" lon="6.04862">
        <ele>1219.2</ele>
        <time>2020-09-05T10:31:35Z</time>
      </trkpt>
      <trkpt lat="45.02365" lon="6.04855">
        <ele>1219.4</ele>
        <time>2020-09-05T10:31:37Z</time>
      </trkpt>
      <trkpt lat="45.02366" lon="6.04851">
        <ele>1219.8</ele>
        <time>2020-09-05T10:31:38Z</time>
      </trkpt>
      <trkpt lat="45.02367" lon="6.04847">
        <ele>1220</ele>
        <time>2020-09-05T10:31:39Z</time>
      </trkpt>
      <trkpt lat="45.02368" lon="6.04843">
        <ele>1220.4</ele>
        <time>2020-09-05T10:31:40Z</time>
      </trkpt>
      <trkpt lat="45.02369" lon="6.04839">
        <ele>1220.6</ele>
        <time>2020-09-05T10:31:41Z</time>
      </trkpt>
      <trkpt lat="45.0237" lon="6.04834">
        <ele>1221</ele>
        <time>2020-09-05T10:31:42Z</time>
      </trkpt>
      <trkpt lat="45.02371" lon="6.04831">
        <ele>1221.4</ele>
        <time>2020-09-05T10:31:43Z</time>
      </trkpt>
      <trkpt lat="45.02375" lon="6.04818">
        <ele>1222.6</ele>
        <time>2020-09-05T10:31:47Z</time>
      </trkpt>
      <trkpt lat="45.02378" lon="6.04805">
        <ele>1223.6</ele>
        <time>2020-09-05T10:31:51Z</time>
      </trkpt>
      <trkpt lat="45.02383" lon="6.04793">
        <ele>1225</ele>
        <time>2020-09-05T10:31:55Z</time>
      </trkpt>
      <trkpt lat="45.02388" lon="6.04781">
        <ele>1226.2</ele>
        <time>2020-09-05T10:31:59Z</time>
      </trkpt>
      <trkpt lat="45.02393" lon="6.04768">
        <ele>1227.8</ele>
        <time>2020-09-05T10:32:03Z</time>
      </trkpt>
      <trkpt lat="45.02397" lon="6.04754">
        <ele>1229</ele>
        <time>2020-09-05T10:32:07Z</time>
      </trkpt>
      <trkpt lat="45.02401" lon="6.0474">
        <ele>1230.2</ele>
        <time>2020-09-05T10:32:11Z</time>
      </trkpt>
      <trkpt lat="45.02404" lon="6.04725">
        <ele>1231.2</ele>
        <time>2020-09-05T10:32:15Z</time>
      </trkpt>
      <trkpt lat="45.02405" lon="6.04718">
        <ele>1231.8</ele>
        <time>2020-09-05T10:32:17Z</time>
      </trkpt>
      <trkpt lat="45.02406" lon="6.04711">
        <ele>1232.4</ele>
        <time>2020-09-05T10:32:19Z</time>
      </trkpt>
      <trkpt lat="45.02407" lon="6.04696">
        <ele>1234</ele>
        <time>2020-09-05T10:32:23Z</time>
      </trkpt>
      <trkpt lat="45.02412" lon="6.04684">
        <ele>1235.4</ele>
        <time>2020-09-05T10:32:27Z</time>
      </trkpt>
      <trkpt lat="45.02416" lon="6.04669">
        <ele>1236.6</ele>
        <time>2020-09-05T10:32:31Z</time>
      </trkpt>
      <trkpt lat="45.0242" lon="6.04655">
        <ele>1238</ele>
        <time>2020-09-05T10:32:35Z</time>
      </trkpt>
      <trkpt lat="45.02423" lon="6.04648">
        <ele>1238.4</ele>
        <time>2020-09-05T10:32:37Z</time>
      </trkpt>
      <trkpt lat="45.02424" lon="6.04645">
        <ele>1238.8</ele>
        <time>2020-09-05T10:32:38Z</time>
      </trkpt>
      <trkpt lat="45.02426" lon="6.04641">
        <ele>1239</ele>
        <time>2020-09-05T10:32:39Z</time>
      </trkpt>
      <trkpt lat="45.02427" lon="6.04637">
        <ele>1239.2</ele>
        <time>2020-09-05T10:32:40Z</time>
      </trkpt>
      <trkpt lat="45.02429" lon="6.0463">
        <ele>1239.8</ele>
        <time>2020-09-05T10:32:42Z</time>
      </trkpt>
      <trkpt lat="45.02433" lon="6.04615">
        <ele>1240.4</ele>
        <time>2020-09-05T10:32:46Z</time>
      </trkpt>
      <trkpt lat="45.02434" lon="6.04606">
        <ele>1241.4</ele>
        <time>2020-09-05T10:32:48Z</time>
      </trkpt>
      <trkpt lat="45.02435" lon="6.04594">
        <ele>1242.6</ele>
        <time>2020-09-05T10:32:51Z</time>
      </trkpt>
      <trkpt lat="45.02436" lon="6.0459">
        <ele>1243</ele>
        <time>2020-09-05T10:32:52Z</time>
      </trkpt>
      <trkpt lat="45.02436" lon="6.04586">
        <ele>1243.4</ele>
        <time>2020-09-05T10:32:53Z</time>
      </trkpt>
      <trkpt lat="45.02437" lon="6.04582">
        <ele>1243.6</ele>
        <time>2020-09-05T10:32:54Z</time>
      </trkpt>
      <trkpt lat="45.02438" lon="6.04578">
        <ele>1244</ele>
        <time>2020-09-05T10:32:55Z</time>
      </trkpt>
      <trkpt lat="45.0244" lon="6.04573">
        <ele>1244.2</ele>
        <time>2020-09-05T10:32:56Z</time>
      </trkpt>
      <trkpt lat="45.0244" lon="6.04569">
        <ele>1244.6</ele>
        <time>2020-09-05T10:32:57Z</time>
      </trkpt>
      <trkpt lat="45.02441" lon="6.04565">
        <ele>1244.8</ele>
        <time>2020-09-05T10:32:58Z</time>
      </trkpt>
      <trkpt lat="45.02441" lon="6.04562">
        <ele>1245.2</ele>
        <time>2020-09-05T10:32:59Z</time>
      </trkpt>
      <trkpt lat="45.02443" lon="6.04548">
        <ele>1246.4</ele>
        <time>2020-09-05T10:33:03Z</time>
      </trkpt>
      <trkpt lat="45.02448" lon="6.04536">
        <ele>1247.6</ele>
        <time>2020-09-05T10:33:07Z</time>
      </trkpt>
      <trkpt lat="45.02454" lon="6.04526">
        <ele>1248.6</ele>
        <time>2020-09-05T10:33:11Z</time>
      </trkpt>
      <trkpt lat="45.02464" lon="6.04515">
        <ele>1249.8</ele>
        <time>2020-09-05T10:33:15Z</time>
      </trkpt>
      <trkpt lat="45.02471" lon="6.04506">
        <ele>1251</ele>
        <time>2020-09-05T10:33:19Z</time>
      </trkpt>
      <trkpt lat="45.02478" lon="6.04495">
        <ele>1252.2</ele>
        <time>2020-09-05T10:33:23Z</time>
      </trkpt>
      <trkpt lat="45.02484" lon="6.04484">
        <ele>1253.2</ele>
        <time>2020-09-05T10:33:27Z</time>
      </trkpt>
      <trkpt lat="45.02489" lon="6.04471">
        <ele>1254.4</ele>
        <time>2020-09-05T10:33:31Z</time>
      </trkpt>
      <trkpt lat="45.02496" lon="6.04461">
        <ele>1255.4</ele>
        <time>2020-09-05T10:33:34Z</time>
      </trkpt>
      <trkpt lat="45.02504" lon="6.04451">
        <ele>1256.6</ele>
        <time>2020-09-05T10:33:38Z</time>
      </trkpt>
      <trkpt lat="45.02511" lon="6.04443">
        <ele>1257.4</ele>
        <time>2020-09-05T10:33:41Z</time>
      </trkpt>
      <trkpt lat="45.02518" lon="6.04432">
        <ele>1258.6</ele>
        <time>2020-09-05T10:33:45Z</time>
      </trkpt>
      <trkpt lat="45.02525" lon="6.04421">
        <ele>1260.2</ele>
        <time>2020-09-05T10:33:49Z</time>
      </trkpt>
      <trkpt lat="45.02531" lon="6.04414">
        <ele>1261.2</ele>
        <time>2020-09-05T10:33:52Z</time>
      </trkpt>
      <trkpt lat="45.02533" lon="6.04412">
        <ele>1261.4</ele>
        <time>2020-09-05T10:33:53Z</time>
      </trkpt>
      <trkpt lat="45.02535" lon="6.0441">
        <ele>1261.8</ele>
        <time>2020-09-05T10:33:54Z</time>
      </trkpt>
      <trkpt lat="45.02538" lon="6.04408">
        <ele>1262</ele>
        <time>2020-09-05T10:33:55Z</time>
      </trkpt>
      <trkpt lat="45.02541" lon="6.04406">
        <ele>1262.2</ele>
        <time>2020-09-05T10:33:56Z</time>
      </trkpt>
      <trkpt lat="45.02544" lon="6.04404">
        <ele>1262.6</ele>
        <time>2020-09-05T10:33:57Z</time>
      </trkpt>
      <trkpt lat="45.02548" lon="6.04403">
        <ele>1262.8</ele>
        <time>2020-09-05T10:33:58Z</time>
      </trkpt>
      <trkpt lat="45.02551" lon="6.04402">
        <ele>1263.2</ele>
        <time>2020-09-05T10:33:59Z</time>
      </trkpt>
      <trkpt lat="45.02555" lon="6.04401">
        <ele>1263.4</ele>
        <time>2020-09-05T10:34:00Z</time>
      </trkpt>
      <trkpt lat="45.02559" lon="6.044">
        <ele>1263.4</ele>
        <time>2020-09-05T10:34:01Z</time>
      </trkpt>
      <trkpt lat="45.02563" lon="6.044">
        <ele>1263.2</ele>
        <time>2020-09-05T10:34:02Z</time>
      </trkpt>
      <trkpt lat="45.02567" lon="6.04398">
        <ele>1263.4</ele>
        <time>2020-09-05T10:34:03Z</time>
      </trkpt>
      <trkpt lat="45.0257" lon="6.04395">
        <ele>1263.4</ele>
        <time>2020-09-05T10:34:04Z</time>
      </trkpt>
      <trkpt lat="45.02571" lon="6.0439">
        <ele>1263.6</ele>
        <time>2020-09-05T10:34:05Z</time>
      </trkpt>
      <trkpt lat="45.0257" lon="6.04385">
        <ele>1263.6</ele>
        <time>2020-09-05T10:34:06Z</time>
      </trkpt>
      <trkpt lat="45.02566" lon="6.04382">
        <ele>1264</ele>
        <time>2020-09-05T10:34:07Z</time>
      </trkpt>
      <trkpt lat="45.02563" lon="6.04382">
        <ele>1264.4</ele>
        <time>2020-09-05T10:34:08Z</time>
      </trkpt>
      <trkpt lat="45.02559" lon="6.04384">
        <ele>1264.6</ele>
        <time>2020-09-05T10:34:09Z</time>
      </trkpt>
      <trkpt lat="45.02556" lon="6.04387">
        <ele>1264.8</ele>
        <time>2020-09-05T10:34:10Z</time>
      </trkpt>
      <trkpt lat="45.02552" lon="6.0439">
        <ele>1265</ele>
        <time>2020-09-05T10:34:11Z</time>
      </trkpt>
      <trkpt lat="45.02548" lon="6.04393">
        <ele>1265.4</ele>
        <time>2020-09-05T10:34:12Z</time>
      </trkpt>
      <trkpt lat="45.02544" lon="6.04396">
        <ele>1265.6</ele>
        <time>2020-09-05T10:34:13Z</time>
      </trkpt>
      <trkpt lat="45.0254" lon="6.04399">
        <ele>1265.8</ele>
        <time>2020-09-05T10:34:14Z</time>
      </trkpt>
      <trkpt lat="45.02537" lon="6.04401">
        <ele>1266</ele>
        <time>2020-09-05T10:34:15Z</time>
      </trkpt>
      <trkpt lat="45.02533" lon="6.04404">
        <ele>1266</ele>
        <time>2020-09-05T10:34:16Z</time>
      </trkpt>
      <trkpt lat="45.02529" lon="6.04406">
        <ele>1266.2</ele>
        <time>2020-09-05T10:34:17Z</time>
      </trkpt>
      <trkpt lat="45.02525" lon="6.04408">
        <ele>1266.6</ele>
        <time>2020-09-05T10:34:18Z</time>
      </trkpt>
      <trkpt lat="45.02522" lon="6.0441">
        <ele>1266.8</ele>
        <time>2020-09-05T10:34:19Z</time>
      </trkpt>
      <trkpt lat="45.02518" lon="6.04412">
        <ele>1267.2</ele>
        <time>2020-09-05T10:34:20Z</time>
      </trkpt>
      <trkpt lat="45.02515" lon="6.04414">
        <ele>1267.6</ele>
        <time>2020-09-05T10:34:21Z</time>
      </trkpt>
      <trkpt lat="45.02512" lon="6.04416">
        <ele>1267.8</ele>
        <time>2020-09-05T10:34:22Z</time>
      </trkpt>
      <trkpt lat="45.02509" lon="6.04418">
        <ele>1268.2</ele>
        <time>2020-09-05T10:34:23Z</time>
      </trkpt>
      <trkpt lat="45.02507" lon="6.04419">
        <ele>1268.8</ele>
        <time>2020-09-05T10:34:24Z</time>
      </trkpt>
      <trkpt lat="45.02504" lon="6.04421">
        <ele>1269</ele>
        <time>2020-09-05T10:34:25Z</time>
      </trkpt>
      <trkpt lat="45.02502" lon="6.04423">
        <ele>1269.4</ele>
        <time>2020-09-05T10:34:26Z</time>
      </trkpt>
      <trkpt lat="45.02499" lon="6.04425">
        <ele>1269.6</ele>
        <time>2020-09-05T10:34:27Z</time>
      </trkpt>
      <trkpt lat="45.02496" lon="6.04427">
        <ele>1270</ele>
        <time>2020-09-05T10:34:28Z</time>
      </trkpt>
      <trkpt lat="45.02494" lon="6.04428">
        <ele>1270.2</ele>
        <time>2020-09-05T10:34:29Z</time>
      </trkpt>
      <trkpt lat="45.02491" lon="6.0443">
        <ele>1270.4</ele>
        <time>2020-09-05T10:34:30Z</time>
      </trkpt>
      <trkpt lat="45.02488" lon="6.04432">
        <ele>1270.8</ele>
        <time>2020-09-05T10:34:31Z</time>
      </trkpt>
      <trkpt lat="45.02485" lon="6.04434">
        <ele>1271.2</ele>
        <time>2020-09-05T10:34:32Z</time>
      </trkpt>
      <trkpt lat="45.02483" lon="6.04436">
        <ele>1271.6</ele>
        <time>2020-09-05T10:34:33Z</time>
      </trkpt>
      <trkpt lat="45.0248" lon="6.04438">
        <ele>1271.6</ele>
        <time>2020-09-05T10:34:34Z</time>
      </trkpt>
      <trkpt lat="45.02477" lon="6.0444">
        <ele>1272</ele>
        <time>2020-09-05T10:34:35Z</time>
      </trkpt>
      <trkpt lat="45.02475" lon="6.04442">
        <ele>1272.4</ele>
        <time>2020-09-05T10:34:36Z</time>
      </trkpt>
      <trkpt lat="45.02473" lon="6.04445">
        <ele>1273.2</ele>
        <time>2020-09-05T10:34:37Z</time>
      </trkpt>
      <trkpt lat="45.0247" lon="6.04448">
        <ele>1273.4</ele>
        <time>2020-09-05T10:34:38Z</time>
      </trkpt>
      <trkpt lat="45.02469" lon="6.04451">
        <ele>1273.6</ele>
        <time>2020-09-05T10:34:39Z</time>
      </trkpt>
      <trkpt lat="45.02466" lon="6.04454">
        <ele>1274</ele>
        <time>2020-09-05T10:34:40Z</time>
      </trkpt>
      <trkpt lat="45.02464" lon="6.04457">
        <ele>1274.2</ele>
        <time>2020-09-05T10:34:41Z</time>
      </trkpt>
      <trkpt lat="45.02461" lon="6.04459">
        <ele>1274.6</ele>
        <time>2020-09-05T10:34:42Z</time>
      </trkpt>
      <trkpt lat="45.02459" lon="6.04462">
        <ele>1274.8</ele>
        <time>2020-09-05T10:34:43Z</time>
      </trkpt>
      <trkpt lat="45.02456" lon="6.04464">
        <ele>1275</ele>
        <time>2020-09-05T10:34:44Z</time>
      </trkpt>
      <trkpt lat="45.02454" lon="6.04465">
        <ele>1275.4</ele>
        <time>2020-09-05T10:34:45Z</time>
      </trkpt>
      <trkpt lat="45.02451" lon="6.04467">
        <ele>1275.6</ele>
        <time>2020-09-05T10:34:46Z</time>
      </trkpt>
      <trkpt lat="45.02449" lon="6.04469">
        <ele>1275.8</ele>
        <time>2020-09-05T10:34:47Z</time>
      </trkpt>
      <trkpt lat="45.02446" lon="6.0447">
        <ele>1276.2</ele>
        <time>2020-09-05T10:34:48Z</time>
      </trkpt>
      <trkpt lat="45.02444" lon="6.04472">
        <ele>1276.4</ele>
        <time>2020-09-05T10:34:49Z</time>
      </trkpt>
      <trkpt lat="45.02441" lon="6.04474">
        <ele>1276.6</ele>
        <time>2020-09-05T10:34:50Z</time>
      </trkpt>
      <trkpt lat="45.02439" lon="6.04476">
        <ele>1277</ele>
        <time>2020-09-05T10:34:51Z</time>
      </trkpt>
      <trkpt lat="45.02436" lon="6.04478">
        <ele>1277.4</ele>
        <time>2020-09-05T10:34:52Z</time>
      </trkpt>
      <trkpt lat="45.02434" lon="6.04481">
        <ele>1277.8</ele>
        <time>2020-09-05T10:34:53Z</time>
      </trkpt>
      <trkpt lat="45.02432" lon="6.04482">
        <ele>1278</ele>
        <time>2020-09-05T10:34:54Z</time>
      </trkpt>
      <trkpt lat="45.0243" lon="6.04484">
        <ele>1278.4</ele>
        <time>2020-09-05T10:34:55Z</time>
      </trkpt>
      <trkpt lat="45.02428" lon="6.04487">
        <ele>1278.6</ele>
        <time>2020-09-05T10:34:56Z</time>
      </trkpt>
      <trkpt lat="45.02425" lon="6.04489">
        <ele>1279</ele>
        <time>2020-09-05T10:34:57Z</time>
      </trkpt>
      <trkpt lat="45.02423" lon="6.0449">
        <ele>1279.2</ele>
        <time>2020-09-05T10:34:58Z</time>
      </trkpt>
      <trkpt lat="45.0242" lon="6.04492">
        <ele>1279.6</ele>
        <time>2020-09-05T10:34:59Z</time>
      </trkpt>
      <trkpt lat="45.02418" lon="6.04494">
        <ele>1280</ele>
        <time>2020-09-05T10:35:00Z</time>
      </trkpt>
      <trkpt lat="45.02415" lon="6.04496">
        <ele>1280.4</ele>
        <time>2020-09-05T10:35:01Z</time>
      </trkpt>
      <trkpt lat="45.02413" lon="6.04498">
        <ele>1280.6</ele>
        <time>2020-09-05T10:35:02Z</time>
      </trkpt>
      <trkpt lat="45.0241" lon="6.045">
        <ele>1280.8</ele>
        <time>2020-09-05T10:35:03Z</time>
      </trkpt>
      <trkpt lat="45.02407" lon="6.04502">
        <ele>1281</ele>
        <time>2020-09-05T10:35:04Z</time>
      </trkpt>
      <trkpt lat="45.02405" lon="6.04504">
        <ele>1281.2</ele>
        <time>2020-09-05T10:35:05Z</time>
      </trkpt>
      <trkpt lat="45.02402" lon="6.04506">
        <ele>1281.4</ele>
        <time>2020-09-05T10:35:06Z</time>
      </trkpt>
      <trkpt lat="45.02399" lon="6.04508">
        <ele>1281.8</ele>
        <time>2020-09-05T10:35:07Z</time>
      </trkpt>
      <trkpt lat="45.02396" lon="6.0451">
        <ele>1282.4</ele>
        <time>2020-09-05T10:35:08Z</time>
      </trkpt>
      <trkpt lat="45.02394" lon="6.04512">
        <ele>1282.8</ele>
        <time>2020-09-05T10:35:09Z</time>
      </trkpt>
      <trkpt lat="45.02392" lon="6.04515">
        <ele>1283</ele>
        <time>2020-09-05T10:35:10Z</time>
      </trkpt>
      <trkpt lat="45.02389" lon="6.04517">
        <ele>1283.2</ele>
        <time>2020-09-05T10:35:11Z</time>
      </trkpt>
      <trkpt lat="45.02387" lon="6.0452">
        <ele>1283.4</ele>
        <time>2020-09-05T10:35:12Z</time>
      </trkpt>
      <trkpt lat="45.02384" lon="6.04522">
        <ele>1283.8</ele>
        <time>2020-09-05T10:35:13Z</time>
      </trkpt>
      <trkpt lat="45.02382" lon="6.04524">
        <ele>1284.2</ele>
        <time>2020-09-05T10:35:14Z</time>
      </trkpt>
      <trkpt lat="45.02379" lon="6.04527">
        <ele>1284.4</ele>
        <time>2020-09-05T10:35:15Z</time>
      </trkpt>
      <trkpt lat="45.02377" lon="6.04529">
        <ele>1284.6</ele>
        <time>2020-09-05T10:35:16Z</time>
      </trkpt>
      <trkpt lat="45.02374" lon="6.04532">
        <ele>1285.2</ele>
        <time>2020-09-05T10:35:17Z</time>
      </trkpt>
      <trkpt lat="45.02372" lon="6.04536">
        <ele>1285.4</ele>
        <time>2020-09-05T10:35:18Z</time>
      </trkpt>
      <trkpt lat="45.0237" lon="6.04539">
        <ele>1285.8</ele>
        <time>2020-09-05T10:35:19Z</time>
      </trkpt>
      <trkpt lat="45.02368" lon="6.04543">
        <ele>1286</ele>
        <time>2020-09-05T10:35:20Z</time>
      </trkpt>
      <trkpt lat="45.02367" lon="6.04547">
        <ele>1286.2</ele>
        <time>2020-09-05T10:35:21Z</time>
      </trkpt>
      <trkpt lat="45.02365" lon="6.04551">
        <ele>1286.4</ele>
        <time>2020-09-05T10:35:22Z</time>
      </trkpt>
      <trkpt lat="45.02363" lon="6.04554">
        <ele>1286.8</ele>
        <time>2020-09-05T10:35:23Z</time>
      </trkpt>
      <trkpt lat="45.02361" lon="6.04557">
        <ele>1287.2</ele>
        <time>2020-09-05T10:35:24Z</time>
      </trkpt>
      <trkpt lat="45.02359" lon="6.0456">
        <ele>1287.6</ele>
        <time>2020-09-05T10:35:25Z</time>
      </trkpt>
      <trkpt lat="45.02357" lon="6.04563">
        <ele>1288</ele>
        <time>2020-09-05T10:35:26Z</time>
      </trkpt>
      <trkpt lat="45.02356" lon="6.04566">
        <ele>1288.2</ele>
        <time>2020-09-05T10:35:27Z</time>
      </trkpt>
      <trkpt lat="45.02353" lon="6.0457">
        <ele>1288.6</ele>
        <time>2020-09-05T10:35:28Z</time>
      </trkpt>
      <trkpt lat="45.02351" lon="6.04575">
        <ele>1288.6</ele>
        <time>2020-09-05T10:35:29Z</time>
      </trkpt>
      <trkpt lat="45.02349" lon="6.04579">
        <ele>1288.8</ele>
        <time>2020-09-05T10:35:30Z</time>
      </trkpt>
      <trkpt lat="45.02346" lon="6.04583">
        <ele>1289.2</ele>
        <time>2020-09-05T10:35:31Z</time>
      </trkpt>
      <trkpt lat="45.02339" lon="6.04592">
        <ele>1290</ele>
        <time>2020-09-05T10:35:34Z</time>
      </trkpt>
      <trkpt lat="45.02331" lon="6.04598">
        <ele>1291.4</ele>
        <time>2020-09-05T10:35:37Z</time>
      </trkpt>
      <trkpt lat="45.02321" lon="6.046">
        <ele>1292.6</ele>
        <time>2020-09-05T10:35:41Z</time>
      </trkpt>
      <trkpt lat="45.02318" lon="6.04601">
        <ele>1293</ele>
        <time>2020-09-05T10:35:42Z</time>
      </trkpt>
      <trkpt lat="45.02315" lon="6.04602">
        <ele>1293.2</ele>
        <time>2020-09-05T10:35:43Z</time>
      </trkpt>
      <trkpt lat="45.02312" lon="6.04603">
        <ele>1293.6</ele>
        <time>2020-09-05T10:35:44Z</time>
      </trkpt>
      <trkpt lat="45.02309" lon="6.04603">
        <ele>1293.8</ele>
        <time>2020-09-05T10:35:45Z</time>
      </trkpt>
      <trkpt lat="45.02306" lon="6.04604">
        <ele>1294</ele>
        <time>2020-09-05T10:35:46Z</time>
      </trkpt>
      <trkpt lat="45.02304" lon="6.04606">
        <ele>1294.4</ele>
        <time>2020-09-05T10:35:47Z</time>
      </trkpt>
      <trkpt lat="45.02301" lon="6.04607">
        <ele>1294.8</ele>
        <time>2020-09-05T10:35:48Z</time>
      </trkpt>
      <trkpt lat="45.02298" lon="6.04609">
        <ele>1295</ele>
        <time>2020-09-05T10:35:49Z</time>
      </trkpt>
      <trkpt lat="45.02296" lon="6.0461">
        <ele>1295.4</ele>
        <time>2020-09-05T10:35:50Z</time>
      </trkpt>
      <trkpt lat="45.02294" lon="6.04612">
        <ele>1295.8</ele>
        <time>2020-09-05T10:35:51Z</time>
      </trkpt>
      <trkpt lat="45.02291" lon="6.04614">
        <ele>1296.2</ele>
        <time>2020-09-05T10:35:52Z</time>
      </trkpt>
      <trkpt lat="45.02288" lon="6.04615">
        <ele>1296.4</ele>
        <time>2020-09-05T10:35:53Z</time>
      </trkpt>
      <trkpt lat="45.02285" lon="6.04616">
        <ele>1296.8</ele>
        <time>2020-09-05T10:35:54Z</time>
      </trkpt>
      <trkpt lat="45.02283" lon="6.04618">
        <ele>1297</ele>
        <time>2020-09-05T10:35:55Z</time>
      </trkpt>
      <trkpt lat="45.02281" lon="6.0462">
        <ele>1297</ele>
        <time>2020-09-05T10:35:56Z</time>
      </trkpt>
      <trkpt lat="45.02279" lon="6.04622">
        <ele>1297.6</ele>
        <time>2020-09-05T10:35:57Z</time>
      </trkpt>
      <trkpt lat="45.02276" lon="6.04624">
        <ele>1297.8</ele>
        <time>2020-09-05T10:35:58Z</time>
      </trkpt>
      <trkpt lat="45.02274" lon="6.04626">
        <ele>1298</ele>
        <time>2020-09-05T10:35:59Z</time>
      </trkpt>
      <trkpt lat="45.02271" lon="6.04628">
        <ele>1298.4</ele>
        <time>2020-09-05T10:36:00Z</time>
      </trkpt>
      <trkpt lat="45.02269" lon="6.0463">
        <ele>1298.6</ele>
        <time>2020-09-05T10:36:01Z</time>
      </trkpt>
      <trkpt lat="45.02267" lon="6.04632">
        <ele>1299</ele>
        <time>2020-09-05T10:36:02Z</time>
      </trkpt>
      <trkpt lat="45.02264" lon="6.04634">
        <ele>1299.2</ele>
        <time>2020-09-05T10:36:03Z</time>
      </trkpt>
      <trkpt lat="45.02262" lon="6.04635">
        <ele>1299.6</ele>
        <time>2020-09-05T10:36:04Z</time>
      </trkpt>
      <trkpt lat="45.02259" lon="6.04637">
        <ele>1299.8</ele>
        <time>2020-09-05T10:36:05Z</time>
      </trkpt>
      <trkpt lat="45.02257" lon="6.04639">
        <ele>1300</ele>
        <time>2020-09-05T10:36:06Z</time>
      </trkpt>
      <trkpt lat="45.02254" lon="6.0464">
        <ele>1300.4</ele>
        <time>2020-09-05T10:36:07Z</time>
      </trkpt>
      <trkpt lat="45.02251" lon="6.04642">
        <ele>1300.8</ele>
        <time>2020-09-05T10:36:08Z</time>
      </trkpt>
      <trkpt lat="45.02249" lon="6.04644">
        <ele>1301.2</ele>
        <time>2020-09-05T10:36:09Z</time>
      </trkpt>
      <trkpt lat="45.02246" lon="6.04645">
        <ele>1301.8</ele>
        <time>2020-09-05T10:36:10Z</time>
      </trkpt>
      <trkpt lat="45.02243" lon="6.04646">
        <ele>1302</ele>
        <time>2020-09-05T10:36:11Z</time>
      </trkpt>
      <trkpt lat="45.0224" lon="6.04646">
        <ele>1302.2</ele>
        <time>2020-09-05T10:36:12Z</time>
      </trkpt>
      <trkpt lat="45.02237" lon="6.04647">
        <ele>1302.6</ele>
        <time>2020-09-05T10:36:13Z</time>
      </trkpt>
      <trkpt lat="45.02234" lon="6.04648">
        <ele>1302.8</ele>
        <time>2020-09-05T10:36:14Z</time>
      </trkpt>
      <trkpt lat="45.02232" lon="6.0465">
        <ele>1303.2</ele>
        <time>2020-09-05T10:36:15Z</time>
      </trkpt>
      <trkpt lat="45.02229" lon="6.0465">
        <ele>1303.8</ele>
        <time>2020-09-05T10:36:16Z</time>
      </trkpt>
      <trkpt lat="45.02226" lon="6.04651">
        <ele>1303.8</ele>
        <time>2020-09-05T10:36:17Z</time>
      </trkpt>
      <trkpt lat="45.02223" lon="6.04652">
        <ele>1304.2</ele>
        <time>2020-09-05T10:36:18Z</time>
      </trkpt>
      <trkpt lat="45.0222" lon="6.04652">
        <ele>1304.6</ele>
        <time>2020-09-05T10:36:19Z</time>
      </trkpt>
      <trkpt lat="45.02217" lon="6.04652">
        <ele>1304.8</ele>
        <time>2020-09-05T10:36:20Z</time>
      </trkpt>
      <trkpt lat="45.02215" lon="6.04652">
        <ele>1305.2</ele>
        <time>2020-09-05T10:36:21Z</time>
      </trkpt>
      <trkpt lat="45.02212" lon="6.04652">
        <ele>1305.4</ele>
        <time>2020-09-05T10:36:22Z</time>
      </trkpt>
      <trkpt lat="45.02209" lon="6.04652">
        <ele>1305.8</ele>
        <time>2020-09-05T10:36:23Z</time>
      </trkpt>
      <trkpt lat="45.02207" lon="6.04653">
        <ele>1306</ele>
        <time>2020-09-05T10:36:24Z</time>
      </trkpt>
      <trkpt lat="45.02204" lon="6.04654">
        <ele>1306.2</ele>
        <time>2020-09-05T10:36:25Z</time>
      </trkpt>
      <trkpt lat="45.02201" lon="6.04656">
        <ele>1306.4</ele>
        <time>2020-09-05T10:36:26Z</time>
      </trkpt>
      <trkpt lat="45.02199" lon="6.04657">
        <ele>1306.8</ele>
        <time>2020-09-05T10:36:27Z</time>
      </trkpt>
      <trkpt lat="45.02196" lon="6.04659">
        <ele>1307.2</ele>
        <time>2020-09-05T10:36:28Z</time>
      </trkpt>
      <trkpt lat="45.02193" lon="6.0466">
        <ele>1307.6</ele>
        <time>2020-09-05T10:36:29Z</time>
      </trkpt>
      <trkpt lat="45.02191" lon="6.04662">
        <ele>1307.8</ele>
        <time>2020-09-05T10:36:30Z</time>
      </trkpt>
      <trkpt lat="45.02188" lon="6.04664">
        <ele>1308.2</ele>
        <time>2020-09-05T10:36:31Z</time>
      </trkpt>
      <trkpt lat="45.02185" lon="6.04666">
        <ele>1308.6</ele>
        <time>2020-09-05T10:36:32Z</time>
      </trkpt>
      <trkpt lat="45.02183" lon="6.04668">
        <ele>1308.8</ele>
        <time>2020-09-05T10:36:33Z</time>
      </trkpt>
      <trkpt lat="45.0218" lon="6.04671">
        <ele>1309.2</ele>
        <time>2020-09-05T10:36:34Z</time>
      </trkpt>
      <trkpt lat="45.02178" lon="6.04674">
        <ele>1309.4</ele>
        <time>2020-09-05T10:36:35Z</time>
      </trkpt>
      <trkpt lat="45.02176" lon="6.04677">
        <ele>1309.6</ele>
        <time>2020-09-05T10:36:36Z</time>
      </trkpt>
      <trkpt lat="45.02173" lon="6.04679">
        <ele>1309.8</ele>
        <time>2020-09-05T10:36:37Z</time>
      </trkpt>
      <trkpt lat="45.02171" lon="6.04682">
        <ele>1310.4</ele>
        <time>2020-09-05T10:36:38Z</time>
      </trkpt>
      <trkpt lat="45.02168" lon="6.04684">
        <ele>1310.4</ele>
        <time>2020-09-05T10:36:39Z</time>
      </trkpt>
      <trkpt lat="45.02165" lon="6.04686">
        <ele>1310.6</ele>
        <time>2020-09-05T10:36:40Z</time>
      </trkpt>
      <trkpt lat="45.02163" lon="6.04688">
        <ele>1310.8</ele>
        <time>2020-09-05T10:36:41Z</time>
      </trkpt>
      <trkpt lat="45.0216" lon="6.0469">
        <ele>1311.4</ele>
        <time>2020-09-05T10:36:42Z</time>
      </trkpt>
      <trkpt lat="45.02157" lon="6.04692">
        <ele>1311.6</ele>
        <time>2020-09-05T10:36:43Z</time>
      </trkpt>
      <trkpt lat="45.02155" lon="6.04695">
        <ele>1311.8</ele>
        <time>2020-09-05T10:36:44Z</time>
      </trkpt>
      <trkpt lat="45.02152" lon="6.04698">
        <ele>1312</ele>
        <time>2020-09-05T10:36:45Z</time>
      </trkpt>
      <trkpt lat="45.02149" lon="6.047">
        <ele>1312</ele>
        <time>2020-09-05T10:36:46Z</time>
      </trkpt>
      <trkpt lat="45.02146" lon="6.04701">
        <ele>1312.4</ele>
        <time>2020-09-05T10:36:47Z</time>
      </trkpt>
      <trkpt lat="45.02143" lon="6.04703">
        <ele>1313</ele>
        <time>2020-09-05T10:36:48Z</time>
      </trkpt>
      <trkpt lat="45.0214" lon="6.04704">
        <ele>1313.2</ele>
        <time>2020-09-05T10:36:49Z</time>
      </trkpt>
      <trkpt lat="45.02138" lon="6.04706">
        <ele>1313.4</ele>
        <time>2020-09-05T10:36:50Z</time>
      </trkpt>
      <trkpt lat="45.02135" lon="6.04707">
        <ele>1313.8</ele>
        <time>2020-09-05T10:36:51Z</time>
      </trkpt>
      <trkpt lat="45.02132" lon="6.04709">
        <ele>1314</ele>
        <time>2020-09-05T10:36:52Z</time>
      </trkpt>
      <trkpt lat="45.02129" lon="6.04711">
        <ele>1314.2</ele>
        <time>2020-09-05T10:36:53Z</time>
      </trkpt>
      <trkpt lat="45.02126" lon="6.04715">
        <ele>1314.6</ele>
        <time>2020-09-05T10:36:54Z</time>
      </trkpt>
      <trkpt lat="45.02123" lon="6.04718">
        <ele>1314.6</ele>
        <time>2020-09-05T10:36:55Z</time>
      </trkpt>
      <trkpt lat="45.0212" lon="6.04722">
        <ele>1314.8</ele>
        <time>2020-09-05T10:36:56Z</time>
      </trkpt>
      <trkpt lat="45.02118" lon="6.04725">
        <ele>1315.2</ele>
        <time>2020-09-05T10:36:57Z</time>
      </trkpt>
      <trkpt lat="45.02116" lon="6.04729">
        <ele>1315.4</ele>
        <time>2020-09-05T10:36:58Z</time>
      </trkpt>
      <trkpt lat="45.02113" lon="6.04733">
        <ele>1315.6</ele>
        <time>2020-09-05T10:36:59Z</time>
      </trkpt>
      <trkpt lat="45.02111" lon="6.04738">
        <ele>1315.8</ele>
        <time>2020-09-05T10:37:00Z</time>
      </trkpt>
      <trkpt lat="45.02109" lon="6.04743">
        <ele>1316.2</ele>
        <time>2020-09-05T10:37:01Z</time>
      </trkpt>
      <trkpt lat="45.02107" lon="6.04748">
        <ele>1316.6</ele>
        <time>2020-09-05T10:37:02Z</time>
      </trkpt>
      <trkpt lat="45.02105" lon="6.04754">
        <ele>1316.8</ele>
        <time>2020-09-05T10:37:03Z</time>
      </trkpt>
      <trkpt lat="45.02104" lon="6.0476">
        <ele>1317</ele>
        <time>2020-09-05T10:37:04Z</time>
      </trkpt>
      <trkpt lat="45.02104" lon="6.04766">
        <ele>1317.2</ele>
        <time>2020-09-05T10:37:05Z</time>
      </trkpt>
      <trkpt lat="45.02104" lon="6.04773">
        <ele>1317.2</ele>
        <time>2020-09-05T10:37:06Z</time>
      </trkpt>
      <trkpt lat="45.02106" lon="6.0478">
        <ele>1317.2</ele>
        <time>2020-09-05T10:37:07Z</time>
      </trkpt>
      <trkpt lat="45.02109" lon="6.04785">
        <ele>1317.4</ele>
        <time>2020-09-05T10:37:08Z</time>
      </trkpt>
      <trkpt lat="45.02112" lon="6.04791">
        <ele>1317.6</ele>
        <time>2020-09-05T10:37:09Z</time>
      </trkpt>
      <trkpt lat="45.02115" lon="6.04795">
        <ele>1317.6</ele>
        <time>2020-09-05T10:37:10Z</time>
      </trkpt>
      <trkpt lat="45.02118" lon="6.048">
        <ele>1318</ele>
        <time>2020-09-05T10:37:11Z</time>
      </trkpt>
      <trkpt lat="45.0212" lon="6.04805">
        <ele>1318.4</ele>
        <time>2020-09-05T10:37:12Z</time>
      </trkpt>
      <trkpt lat="45.0212" lon="6.0481">
        <ele>1318.4</ele>
        <time>2020-09-05T10:37:13Z</time>
      </trkpt>
      <trkpt lat="45.02119" lon="6.04815">
        <ele>1319</ele>
        <time>2020-09-05T10:37:14Z</time>
      </trkpt>
      <trkpt lat="45.02117" lon="6.0482">
        <ele>1319</ele>
        <time>2020-09-05T10:37:15Z</time>
      </trkpt>
      <trkpt lat="45.02115" lon="6.04824">
        <ele>1319.2</ele>
        <time>2020-09-05T10:37:16Z</time>
      </trkpt>
      <trkpt lat="45.02114" lon="6.04827">
        <ele>1319.8</ele>
        <time>2020-09-05T10:37:17Z</time>
      </trkpt>
      <trkpt lat="45.02112" lon="6.04831">
        <ele>1320</ele>
        <time>2020-09-05T10:37:18Z</time>
      </trkpt>
      <trkpt lat="45.0211" lon="6.04834">
        <ele>1320.4</ele>
        <time>2020-09-05T10:37:19Z</time>
      </trkpt>
      <trkpt lat="45.02108" lon="6.04838">
        <ele>1320.8</ele>
        <time>2020-09-05T10:37:20Z</time>
      </trkpt>
      <trkpt lat="45.02107" lon="6.04842">
        <ele>1321</ele>
        <time>2020-09-05T10:37:21Z</time>
      </trkpt>
      <trkpt lat="45.02106" lon="6.04845">
        <ele>1321.4</ele>
        <time>2020-09-05T10:37:22Z</time>
      </trkpt>
      <trkpt lat="45.02105" lon="6.04849">
        <ele>1321.4</ele>
        <time>2020-09-05T10:37:23Z</time>
      </trkpt>
      <trkpt lat="45.02103" lon="6.04853">
        <ele>1321.6</ele>
        <time>2020-09-05T10:37:24Z</time>
      </trkpt>
      <trkpt lat="45.02103" lon="6.04857">
        <ele>1322</ele>
        <time>2020-09-05T10:37:25Z</time>
      </trkpt>
      <trkpt lat="45.02102" lon="6.0486">
        <ele>1322</ele>
        <time>2020-09-05T10:37:26Z</time>
      </trkpt>
      <trkpt lat="45.02102" lon="6.04864">
        <ele>1322.6</ele>
        <time>2020-09-05T10:37:27Z</time>
      </trkpt>
      <trkpt lat="45.02101" lon="6.04868">
        <ele>1322.8</ele>
        <time>2020-09-05T10:37:28Z</time>
      </trkpt>
      <trkpt lat="45.02101" lon="6.04872">
        <ele>1323.2</ele>
        <time>2020-09-05T10:37:29Z</time>
      </trkpt>
      <trkpt lat="45.02101" lon="6.04876">
        <ele>1323.4</ele>
        <time>2020-09-05T10:37:30Z</time>
      </trkpt>
      <trkpt lat="45.02101" lon="6.0488">
        <ele>1323.6</ele>
        <time>2020-09-05T10:37:31Z</time>
      </trkpt>
      <trkpt lat="45.02101" lon="6.04883">
        <ele>1323.8</ele>
        <time>2020-09-05T10:37:32Z</time>
      </trkpt>
      <trkpt lat="45.02101" lon="6.04887">
        <ele>1324.2</ele>
        <time>2020-09-05T10:37:33Z</time>
      </trkpt>
      <trkpt lat="45.021" lon="6.04891">
        <ele>1324.4</ele>
        <time>2020-09-05T10:37:34Z</time>
      </trkpt>
      <trkpt lat="45.02099" lon="6.04895">
        <ele>1324.6</ele>
        <time>2020-09-05T10:37:35Z</time>
      </trkpt>
      <trkpt lat="45.02098" lon="6.04899">
        <ele>1325.2</ele>
        <time>2020-09-05T10:37:36Z</time>
      </trkpt>
      <trkpt lat="45.02096" lon="6.04902">
        <ele>1325.4</ele>
        <time>2020-09-05T10:37:37Z</time>
      </trkpt>
      <trkpt lat="45.02094" lon="6.04904">
        <ele>1325.8</ele>
        <time>2020-09-05T10:37:38Z</time>
      </trkpt>
      <trkpt lat="45.02092" lon="6.04907">
        <ele>1326.4</ele>
        <time>2020-09-05T10:37:39Z</time>
      </trkpt>
      <trkpt lat="45.02091" lon="6.0491">
        <ele>1326.8</ele>
        <time>2020-09-05T10:37:40Z</time>
      </trkpt>
      <trkpt lat="45.02089" lon="6.04914">
        <ele>1327</ele>
        <time>2020-09-05T10:37:41Z</time>
      </trkpt>
      <trkpt lat="45.02087" lon="6.04917">
        <ele>1327.4</ele>
        <time>2020-09-05T10:37:42Z</time>
      </trkpt>
      <trkpt lat="45.02086" lon="6.04921">
        <ele>1327.8</ele>
        <time>2020-09-05T10:37:43Z</time>
      </trkpt>
      <trkpt lat="45.02084" lon="6.04924">
        <ele>1328.2</ele>
        <time>2020-09-05T10:37:44Z</time>
      </trkpt>
      <trkpt lat="45.02082" lon="6.04928">
        <ele>1328.4</ele>
        <time>2020-09-05T10:37:45Z</time>
      </trkpt>
      <trkpt lat="45.02081" lon="6.04931">
        <ele>1328.6</ele>
        <time>2020-09-05T10:37:46Z</time>
      </trkpt>
      <trkpt lat="45.02079" lon="6.04935">
        <ele>1329</ele>
        <time>2020-09-05T10:37:47Z</time>
      </trkpt>
      <trkpt lat="45.02077" lon="6.04938">
        <ele>1329.4</ele>
        <time>2020-09-05T10:37:48Z</time>
      </trkpt>
      <trkpt lat="45.02076" lon="6.04942">
        <ele>1329.6</ele>
        <time>2020-09-05T10:37:49Z</time>
      </trkpt>
      <trkpt lat="45.02074" lon="6.04945">
        <ele>1330</ele>
        <time>2020-09-05T10:37:50Z</time>
      </trkpt>
      <trkpt lat="45.02073" lon="6.04948">
        <ele>1330.2</ele>
        <time>2020-09-05T10:37:51Z</time>
      </trkpt>
      <trkpt lat="45.02071" lon="6.0495">
        <ele>1330.6</ele>
        <time>2020-09-05T10:37:52Z</time>
      </trkpt>
      <trkpt lat="45.02069" lon="6.04953">
        <ele>1330.8</ele>
        <time>2020-09-05T10:37:53Z</time>
      </trkpt>
      <trkpt lat="45.02068" lon="6.04956">
        <ele>1331.2</ele>
        <time>2020-09-05T10:37:54Z</time>
      </trkpt>
      <trkpt lat="45.02066" lon="6.04959">
        <ele>1331.4</ele>
        <time>2020-09-05T10:37:55Z</time>
      </trkpt>
      <trkpt lat="45.02064" lon="6.04962">
        <ele>1331.6</ele>
        <time>2020-09-05T10:37:56Z</time>
      </trkpt>
      <trkpt lat="45.02061" lon="6.04965">
        <ele>1331.8</ele>
        <time>2020-09-05T10:37:57Z</time>
      </trkpt>
      <trkpt lat="45.02059" lon="6.04968">
        <ele>1332.2</ele>
        <time>2020-09-05T10:37:58Z</time>
      </trkpt>
      <trkpt lat="45.02056" lon="6.0497">
        <ele>1332.4</ele>
        <time>2020-09-05T10:37:59Z</time>
      </trkpt>
      <trkpt lat="45.02054" lon="6.04973">
        <ele>1332.8</ele>
        <time>2020-09-05T10:38:00Z</time>
      </trkpt>
      <trkpt lat="45.02052" lon="6.04975">
        <ele>1333</ele>
        <time>2020-09-05T10:38:01Z</time>
      </trkpt>
      <trkpt lat="45.0205" lon="6.04977">
        <ele>1333.4</ele>
        <time>2020-09-05T10:38:02Z</time>
      </trkpt>
      <trkpt lat="45.02048" lon="6.04979">
        <ele>1333.8</ele>
        <time>2020-09-05T10:38:03Z</time>
      </trkpt>
      <trkpt lat="45.02046" lon="6.04981">
        <ele>1334.2</ele>
        <time>2020-09-05T10:38:04Z</time>
      </trkpt>
      <trkpt lat="45.02044" lon="6.04984">
        <ele>1334.8</ele>
        <time>2020-09-05T10:38:05Z</time>
      </trkpt>
      <trkpt lat="45.02041" lon="6.04986">
        <ele>1335</ele>
        <time>2020-09-05T10:38:06Z</time>
      </trkpt>
      <trkpt lat="45.02039" lon="6.04989">
        <ele>1335.4</ele>
        <time>2020-09-05T10:38:07Z</time>
      </trkpt>
      <trkpt lat="45.02033" lon="6.04997">
        <ele>1336.4</ele>
        <time>2020-09-05T10:38:10Z</time>
      </trkpt>
      <trkpt lat="45.0203" lon="6.04999">
        <ele>1336.6</ele>
        <time>2020-09-05T10:38:11Z</time>
      </trkpt>
      <trkpt lat="45.02028" lon="6.05002">
        <ele>1336.8</ele>
        <time>2020-09-05T10:38:12Z</time>
      </trkpt>
      <trkpt lat="45.02026" lon="6.05004">
        <ele>1337.2</ele>
        <time>2020-09-05T10:38:13Z</time>
      </trkpt>
      <trkpt lat="45.02024" lon="6.05005">
        <ele>1337.6</ele>
        <time>2020-09-05T10:38:14Z</time>
      </trkpt>
      <trkpt lat="45.02022" lon="6.05006">
        <ele>1337.6</ele>
        <time>2020-09-05T10:38:15Z</time>
      </trkpt>
      <trkpt lat="45.0202" lon="6.05008">
        <ele>1338.2</ele>
        <time>2020-09-05T10:38:16Z</time>
      </trkpt>
      <trkpt lat="45.02018" lon="6.05009">
        <ele>1338.4</ele>
        <time>2020-09-05T10:38:17Z</time>
      </trkpt>
      <trkpt lat="45.02016" lon="6.05011">
        <ele>1338.8</ele>
        <time>2020-09-05T10:38:18Z</time>
      </trkpt>
      <trkpt lat="45.02014" lon="6.05012">
        <ele>1339.2</ele>
        <time>2020-09-05T10:38:19Z</time>
      </trkpt>
      <trkpt lat="45.02012" lon="6.05014">
        <ele>1339.6</ele>
        <time>2020-09-05T10:38:20Z</time>
      </trkpt>
      <trkpt lat="45.0201" lon="6.05016">
        <ele>1339.8</ele>
        <time>2020-09-05T10:38:21Z</time>
      </trkpt>
      <trkpt lat="45.02008" lon="6.05018">
        <ele>1340</ele>
        <time>2020-09-05T10:38:22Z</time>
      </trkpt>
      <trkpt lat="45.02005" lon="6.05019">
        <ele>1340.2</ele>
        <time>2020-09-05T10:38:23Z</time>
      </trkpt>
      <trkpt lat="45.02003" lon="6.05022">
        <ele>1340.6</ele>
        <time>2020-09-05T10:38:24Z</time>
      </trkpt>
      <trkpt lat="45.02002" lon="6.05024">
        <ele>1341</ele>
        <time>2020-09-05T10:38:25Z</time>
      </trkpt>
      <trkpt lat="45.02" lon="6.05028">
        <ele>1341.2</ele>
        <time>2020-09-05T10:38:26Z</time>
      </trkpt>
      <trkpt lat="45.01999" lon="6.05031">
        <ele>1341.4</ele>
        <time>2020-09-05T10:38:27Z</time>
      </trkpt>
      <trkpt lat="45.01997" lon="6.05034">
        <ele>1341.6</ele>
        <time>2020-09-05T10:38:28Z</time>
      </trkpt>
      <trkpt lat="45.01995" lon="6.05036">
        <ele>1341.8</ele>
        <time>2020-09-05T10:38:29Z</time>
      </trkpt>
      <trkpt lat="45.01993" lon="6.05038">
        <ele>1342.4</ele>
        <time>2020-09-05T10:38:30Z</time>
      </trkpt>
      <trkpt lat="45.01992" lon="6.0504">
        <ele>1342.8</ele>
        <time>2020-09-05T10:38:31Z</time>
      </trkpt>
      <trkpt lat="45.01989" lon="6.05042">
        <ele>1343.2</ele>
        <time>2020-09-05T10:38:32Z</time>
      </trkpt>
      <trkpt lat="45.01987" lon="6.05043">
        <ele>1343.2</ele>
        <time>2020-09-05T10:38:33Z</time>
      </trkpt>
      <trkpt lat="45.01985" lon="6.05043">
        <ele>1343.8</ele>
        <time>2020-09-05T10:38:34Z</time>
      </trkpt>
      <trkpt lat="45.01982" lon="6.05043">
        <ele>1344.2</ele>
        <time>2020-09-05T10:38:35Z</time>
      </trkpt>
      <trkpt lat="45.0198" lon="6.05041">
        <ele>1344.4</ele>
        <time>2020-09-05T10:38:36Z</time>
      </trkpt>
      <trkpt lat="45.01978" lon="6.05039">
        <ele>1345</ele>
        <time>2020-09-05T10:38:37Z</time>
      </trkpt>
      <trkpt lat="45.01976" lon="6.05036">
        <ele>1345.4</ele>
        <time>2020-09-05T10:38:38Z</time>
      </trkpt>
      <trkpt lat="45.01975" lon="6.05033">
        <ele>1345.6</ele>
        <time>2020-09-05T10:38:39Z</time>
      </trkpt>
      <trkpt lat="45.01973" lon="6.0503">
        <ele>1345.8</ele>
        <time>2020-09-05T10:38:40Z</time>
      </trkpt>
      <trkpt lat="45.01972" lon="6.05027">
        <ele>1346</ele>
        <time>2020-09-05T10:38:41Z</time>
      </trkpt>
      <trkpt lat="45.0197" lon="6.05024">
        <ele>1346</ele>
        <time>2020-09-05T10:38:42Z</time>
      </trkpt>
      <trkpt lat="45.01968" lon="6.05022">
        <ele>1346.4</ele>
        <time>2020-09-05T10:38:43Z</time>
      </trkpt>
      <trkpt lat="45.01965" lon="6.05019">
        <ele>1346.6</ele>
        <time>2020-09-05T10:38:44Z</time>
      </trkpt>
      <trkpt lat="45.01962" lon="6.05018">
        <ele>1347</ele>
        <time>2020-09-05T10:38:45Z</time>
      </trkpt>
      <trkpt lat="45.0196" lon="6.05017">
        <ele>1347.2</ele>
        <time>2020-09-05T10:38:46Z</time>
      </trkpt>
      <trkpt lat="45.01957" lon="6.05017">
        <ele>1347.6</ele>
        <time>2020-09-05T10:38:47Z</time>
      </trkpt>
      <trkpt lat="45.01954" lon="6.05018">
        <ele>1348</ele>
        <time>2020-09-05T10:38:48Z</time>
      </trkpt>
      <trkpt lat="45.01951" lon="6.05019">
        <ele>1348.2</ele>
        <time>2020-09-05T10:38:49Z</time>
      </trkpt>
      <trkpt lat="45.01948" lon="6.0502">
        <ele>1348.4</ele>
        <time>2020-09-05T10:38:50Z</time>
      </trkpt>
      <trkpt lat="45.01944" lon="6.05021">
        <ele>1348.8</ele>
        <time>2020-09-05T10:38:51Z</time>
      </trkpt>
      <trkpt lat="45.01941" lon="6.0502">
        <ele>1349.2</ele>
        <time>2020-09-05T10:38:52Z</time>
      </trkpt>
      <trkpt lat="45.01939" lon="6.05021">
        <ele>1349.6</ele>
        <time>2020-09-05T10:38:53Z</time>
      </trkpt>
      <trkpt lat="45.01936" lon="6.05021">
        <ele>1349.8</ele>
        <time>2020-09-05T10:38:54Z</time>
      </trkpt>
      <trkpt lat="45.01934" lon="6.05022">
        <ele>1350</ele>
        <time>2020-09-05T10:38:55Z</time>
      </trkpt>
      <trkpt lat="45.01931" lon="6.05022">
        <ele>1350.4</ele>
        <time>2020-09-05T10:38:56Z</time>
      </trkpt>
      <trkpt lat="45.01929" lon="6.05023">
        <ele>1350.4</ele>
        <time>2020-09-05T10:38:57Z</time>
      </trkpt>
      <trkpt lat="45.01926" lon="6.05025">
        <ele>1350.8</ele>
        <time>2020-09-05T10:38:58Z</time>
      </trkpt>
      <trkpt lat="45.01924" lon="6.05026">
        <ele>1351</ele>
        <time>2020-09-05T10:38:59Z</time>
      </trkpt>
      <trkpt lat="45.01921" lon="6.05027">
        <ele>1351.4</ele>
        <time>2020-09-05T10:39:00Z</time>
      </trkpt>
      <trkpt lat="45.01919" lon="6.05028">
        <ele>1351.8</ele>
        <time>2020-09-05T10:39:01Z</time>
      </trkpt>
      <trkpt lat="45.01916" lon="6.05028">
        <ele>1352.2</ele>
        <time>2020-09-05T10:39:02Z</time>
      </trkpt>
      <trkpt lat="45.01914" lon="6.05029">
        <ele>1352.4</ele>
        <time>2020-09-05T10:39:03Z</time>
      </trkpt>
      <trkpt lat="45.01911" lon="6.05029">
        <ele>1352.8</ele>
        <time>2020-09-05T10:39:04Z</time>
      </trkpt>
      <trkpt lat="45.01909" lon="6.0503">
        <ele>1353.4</ele>
        <time>2020-09-05T10:39:05Z</time>
      </trkpt>
      <trkpt lat="45.01906" lon="6.0503">
        <ele>1353.6</ele>
        <time>2020-09-05T10:39:06Z</time>
      </trkpt>
      <trkpt lat="45.01904" lon="6.05031">
        <ele>1353.8</ele>
        <time>2020-09-05T10:39:07Z</time>
      </trkpt>
      <trkpt lat="45.01902" lon="6.05031">
        <ele>1354</ele>
        <time>2020-09-05T10:39:08Z</time>
      </trkpt>
      <trkpt lat="45.01899" lon="6.05031">
        <ele>1354.2</ele>
        <time>2020-09-05T10:39:09Z</time>
      </trkpt>
      <trkpt lat="45.01897" lon="6.05031">
        <ele>1354.6</ele>
        <time>2020-09-05T10:39:10Z</time>
      </trkpt>
      <trkpt lat="45.01894" lon="6.05029">
        <ele>1354.8</ele>
        <time>2020-09-05T10:39:11Z</time>
      </trkpt>
      <trkpt lat="45.01892" lon="6.05028">
        <ele>1355.2</ele>
        <time>2020-09-05T10:39:12Z</time>
      </trkpt>
      <trkpt lat="45.01889" lon="6.05027">
        <ele>1355.6</ele>
        <time>2020-09-05T10:39:13Z</time>
      </trkpt>
      <trkpt lat="45.01887" lon="6.05026">
        <ele>1356</ele>
        <time>2020-09-05T10:39:14Z</time>
      </trkpt>
      <trkpt lat="45.01884" lon="6.05025">
        <ele>1356.4</ele>
        <time>2020-09-05T10:39:15Z</time>
      </trkpt>
      <trkpt lat="45.01881" lon="6.05025">
        <ele>1356.6</ele>
        <time>2020-09-05T10:39:16Z</time>
      </trkpt>
      <trkpt lat="45.01879" lon="6.05024">
        <ele>1356.8</ele>
        <time>2020-09-05T10:39:17Z</time>
      </trkpt>
      <trkpt lat="45.01877" lon="6.05023">
        <ele>1357</ele>
        <time>2020-09-05T10:39:18Z</time>
      </trkpt>
      <trkpt lat="45.01874" lon="6.05023">
        <ele>1357.4</ele>
        <time>2020-09-05T10:39:19Z</time>
      </trkpt>
      <trkpt lat="45.01871" lon="6.05022">
        <ele>1357.8</ele>
        <time>2020-09-05T10:39:20Z</time>
      </trkpt>
      <trkpt lat="45.01866" lon="6.05021">
        <ele>1358.4</ele>
        <time>2020-09-05T10:39:22Z</time>
      </trkpt>
      <trkpt lat="45.01863" lon="6.0502">
        <ele>1358.8</ele>
        <time>2020-09-05T10:39:23Z</time>
      </trkpt>
      <trkpt lat="45.01861" lon="6.0502">
        <ele>1359</ele>
        <time>2020-09-05T10:39:24Z</time>
      </trkpt>
      <trkpt lat="45.01859" lon="6.05019">
        <ele>1359.6</ele>
        <time>2020-09-05T10:39:25Z</time>
      </trkpt>
      <trkpt lat="45.01856" lon="6.05018">
        <ele>1359.6</ele>
        <time>2020-09-05T10:39:26Z</time>
      </trkpt>
      <trkpt lat="45.01854" lon="6.05017">
        <ele>1360</ele>
        <time>2020-09-05T10:39:27Z</time>
      </trkpt>
      <trkpt lat="45.01851" lon="6.05016">
        <ele>1360.2</ele>
        <time>2020-09-05T10:39:28Z</time>
      </trkpt>
      <trkpt lat="45.01849" lon="6.05015">
        <ele>1360.4</ele>
        <time>2020-09-05T10:39:29Z</time>
      </trkpt>
      <trkpt lat="45.01846" lon="6.05014">
        <ele>1360.6</ele>
        <time>2020-09-05T10:39:30Z</time>
      </trkpt>
      <trkpt lat="45.01844" lon="6.05014">
        <ele>1360.6</ele>
        <time>2020-09-05T10:39:31Z</time>
      </trkpt>
      <trkpt lat="45.01841" lon="6.05013">
        <ele>1361.2</ele>
        <time>2020-09-05T10:39:32Z</time>
      </trkpt>
      <trkpt lat="45.01839" lon="6.05012">
        <ele>1361.4</ele>
        <time>2020-09-05T10:39:33Z</time>
      </trkpt>
      <trkpt lat="45.01836" lon="6.05011">
        <ele>1361.4</ele>
        <time>2020-09-05T10:39:34Z</time>
      </trkpt>
      <trkpt lat="45.01834" lon="6.0501">
        <ele>1362</ele>
        <time>2020-09-05T10:39:35Z</time>
      </trkpt>
      <trkpt lat="45.01832" lon="6.05009">
        <ele>1362.4</ele>
        <time>2020-09-05T10:39:36Z</time>
      </trkpt>
      <trkpt lat="45.01829" lon="6.05009">
        <ele>1362.6</ele>
        <time>2020-09-05T10:39:37Z</time>
      </trkpt>
      <trkpt lat="45.01826" lon="6.05008">
        <ele>1362.8</ele>
        <time>2020-09-05T10:39:38Z</time>
      </trkpt>
      <trkpt lat="45.01824" lon="6.05007">
        <ele>1363</ele>
        <time>2020-09-05T10:39:39Z</time>
      </trkpt>
      <trkpt lat="45.01821" lon="6.05007">
        <ele>1363.2</ele>
        <time>2020-09-05T10:39:40Z</time>
      </trkpt>
      <trkpt lat="45.01819" lon="6.05007">
        <ele>1363.6</ele>
        <time>2020-09-05T10:39:41Z</time>
      </trkpt>
      <trkpt lat="45.01816" lon="6.05007">
        <ele>1363.8</ele>
        <time>2020-09-05T10:39:42Z</time>
      </trkpt>
      <trkpt lat="45.01814" lon="6.05008">
        <ele>1364.2</ele>
        <time>2020-09-05T10:39:43Z</time>
      </trkpt>
      <trkpt lat="45.01811" lon="6.05009">
        <ele>1364.8</ele>
        <time>2020-09-05T10:39:44Z</time>
      </trkpt>
      <trkpt lat="45.01809" lon="6.0501">
        <ele>1365.2</ele>
        <time>2020-09-05T10:39:45Z</time>
      </trkpt>
      <trkpt lat="45.01807" lon="6.05011">
        <ele>1365.4</ele>
        <time>2020-09-05T10:39:46Z</time>
      </trkpt>
      <trkpt lat="45.01804" lon="6.05013">
        <ele>1365.6</ele>
        <time>2020-09-05T10:39:47Z</time>
      </trkpt>
      <trkpt lat="45.01802" lon="6.05016">
        <ele>1365.6</ele>
        <time>2020-09-05T10:39:48Z</time>
      </trkpt>
      <trkpt lat="45.018" lon="6.05018">
        <ele>1365.8</ele>
        <time>2020-09-05T10:39:49Z</time>
      </trkpt>
      <trkpt lat="45.01798" lon="6.05021">
        <ele>1366</ele>
        <time>2020-09-05T10:39:50Z</time>
      </trkpt>
      <trkpt lat="45.01795" lon="6.05023">
        <ele>1366.2</ele>
        <time>2020-09-05T10:39:51Z</time>
      </trkpt>
      <trkpt lat="45.01792" lon="6.05025">
        <ele>1366.4</ele>
        <time>2020-09-05T10:39:52Z</time>
      </trkpt>
      <trkpt lat="45.01789" lon="6.05026">
        <ele>1366.4</ele>
        <time>2020-09-05T10:39:53Z</time>
      </trkpt>
      <trkpt lat="45.01786" lon="6.05024">
        <ele>1366.6</ele>
        <time>2020-09-05T10:39:54Z</time>
      </trkpt>
      <trkpt lat="45.01783" lon="6.05022">
        <ele>1366.8</ele>
        <time>2020-09-05T10:39:55Z</time>
      </trkpt>
      <trkpt lat="45.01783" lon="6.05017">
        <ele>1367.2</ele>
        <time>2020-09-05T10:39:56Z</time>
      </trkpt>
      <trkpt lat="45.01785" lon="6.05014">
        <ele>1367.4</ele>
        <time>2020-09-05T10:39:57Z</time>
      </trkpt>
      <trkpt lat="45.01788" lon="6.05011">
        <ele>1367.6</ele>
        <time>2020-09-05T10:39:58Z</time>
      </trkpt>
      <trkpt lat="45.01791" lon="6.05009">
        <ele>1368</ele>
        <time>2020-09-05T10:39:59Z</time>
      </trkpt>
      <trkpt lat="45.01795" lon="6.05008">
        <ele>1368.2</ele>
        <time>2020-09-05T10:40:00Z</time>
      </trkpt>
      <trkpt lat="45.01799" lon="6.05006">
        <ele>1368.4</ele>
        <time>2020-09-05T10:40:01Z</time>
      </trkpt>
      <trkpt lat="45.01802" lon="6.05004">
        <ele>1368.4</ele>
        <time>2020-09-05T10:40:02Z</time>
      </trkpt>
      <trkpt lat="45.01806" lon="6.05002">
        <ele>1368.8</ele>
        <time>2020-09-05T10:40:03Z</time>
      </trkpt>
      <trkpt lat="45.0181" lon="6.05">
        <ele>1369</ele>
        <time>2020-09-05T10:40:04Z</time>
      </trkpt>
      <trkpt lat="45.01813" lon="6.04997">
        <ele>1369</ele>
        <time>2020-09-05T10:40:05Z</time>
      </trkpt>
      <trkpt lat="45.01816" lon="6.04995">
        <ele>1369.4</ele>
        <time>2020-09-05T10:40:06Z</time>
      </trkpt>
      <trkpt lat="45.01819" lon="6.04992">
        <ele>1369.6</ele>
        <time>2020-09-05T10:40:07Z</time>
      </trkpt>
      <trkpt lat="45.01823" lon="6.0499">
        <ele>1369.8</ele>
        <time>2020-09-05T10:40:08Z</time>
      </trkpt>
      <trkpt lat="45.01826" lon="6.04988">
        <ele>1370.2</ele>
        <time>2020-09-05T10:40:09Z</time>
      </trkpt>
      <trkpt lat="45.01829" lon="6.04987">
        <ele>1370.6</ele>
        <time>2020-09-05T10:40:10Z</time>
      </trkpt>
      <trkpt lat="45.01832" lon="6.04986">
        <ele>1370.8</ele>
        <time>2020-09-05T10:40:11Z</time>
      </trkpt>
      <trkpt lat="45.01835" lon="6.04984">
        <ele>1371.4</ele>
        <time>2020-09-05T10:40:12Z</time>
      </trkpt>
      <trkpt lat="45.01837" lon="6.04983">
        <ele>1371.6</ele>
        <time>2020-09-05T10:40:13Z</time>
      </trkpt>
      <trkpt lat="45.0184" lon="6.04981">
        <ele>1371.8</ele>
        <time>2020-09-05T10:40:14Z</time>
      </trkpt>
      <trkpt lat="45.01843" lon="6.0498">
        <ele>1372.2</ele>
        <time>2020-09-05T10:40:15Z</time>
      </trkpt>
      <trkpt lat="45.01846" lon="6.04978">
        <ele>1372.4</ele>
        <time>2020-09-05T10:40:16Z</time>
      </trkpt>
      <trkpt lat="45.0185" lon="6.04977">
        <ele>1372.8</ele>
        <time>2020-09-05T10:40:17Z</time>
      </trkpt>
      <trkpt lat="45.01852" lon="6.04975">
        <ele>1372.8</ele>
        <time>2020-09-05T10:40:18Z</time>
      </trkpt>
      <trkpt lat="45.01855" lon="6.04974">
        <ele>1373.2</ele>
        <time>2020-09-05T10:40:19Z</time>
      </trkpt>
      <trkpt lat="45.01857" lon="6.04971">
        <ele>1373.4</ele>
        <time>2020-09-05T10:40:20Z</time>
      </trkpt>
      <trkpt lat="45.01859" lon="6.04969">
        <ele>1373.8</ele>
        <time>2020-09-05T10:40:21Z</time>
      </trkpt>
      <trkpt lat="45.01861" lon="6.04966">
        <ele>1374</ele>
        <time>2020-09-05T10:40:22Z</time>
      </trkpt>
      <trkpt lat="45.01862" lon="6.04962">
        <ele>1374.2</ele>
        <time>2020-09-05T10:40:23Z</time>
      </trkpt>
      <trkpt lat="45.01864" lon="6.04958">
        <ele>1374.4</ele>
        <time>2020-09-05T10:40:24Z</time>
      </trkpt>
      <trkpt lat="45.01865" lon="6.04955">
        <ele>1374.8</ele>
        <time>2020-09-05T10:40:25Z</time>
      </trkpt>
      <trkpt lat="45.01867" lon="6.04951">
        <ele>1375</ele>
        <time>2020-09-05T10:40:26Z</time>
      </trkpt>
      <trkpt lat="45.01868" lon="6.04948">
        <ele>1375.4</ele>
        <time>2020-09-05T10:40:27Z</time>
      </trkpt>
      <trkpt lat="45.01869" lon="6.04944">
        <ele>1375.4</ele>
        <time>2020-09-05T10:40:28Z</time>
      </trkpt>
      <trkpt lat="45.01871" lon="6.0494">
        <ele>1376</ele>
        <time>2020-09-05T10:40:29Z</time>
      </trkpt>
      <trkpt lat="45.01872" lon="6.04936">
        <ele>1376.4</ele>
        <time>2020-09-05T10:40:30Z</time>
      </trkpt>
      <trkpt lat="45.01873" lon="6.04932">
        <ele>1376.8</ele>
        <time>2020-09-05T10:40:31Z</time>
      </trkpt>
      <trkpt lat="45.01874" lon="6.04928">
        <ele>1377.2</ele>
        <time>2020-09-05T10:40:32Z</time>
      </trkpt>
      <trkpt lat="45.01875" lon="6.04925">
        <ele>1377.6</ele>
        <time>2020-09-05T10:40:33Z</time>
      </trkpt>
      <trkpt lat="45.01877" lon="6.04921">
        <ele>1377.8</ele>
        <time>2020-09-05T10:40:34Z</time>
      </trkpt>
      <trkpt lat="45.01878" lon="6.04917">
        <ele>1378.2</ele>
        <time>2020-09-05T10:40:35Z</time>
      </trkpt>
      <trkpt lat="45.01879" lon="6.04913">
        <ele>1378.6</ele>
        <time>2020-09-05T10:40:36Z</time>
      </trkpt>
      <trkpt lat="45.01881" lon="6.04909">
        <ele>1378.8</ele>
        <time>2020-09-05T10:40:37Z</time>
      </trkpt>
      <trkpt lat="45.01882" lon="6.04905">
        <ele>1379.2</ele>
        <time>2020-09-05T10:40:38Z</time>
      </trkpt>
      <trkpt lat="45.01884" lon="6.04901">
        <ele>1379.4</ele>
        <time>2020-09-05T10:40:39Z</time>
      </trkpt>
      <trkpt lat="45.01886" lon="6.04897">
        <ele>1379.6</ele>
        <time>2020-09-05T10:40:40Z</time>
      </trkpt>
      <trkpt lat="45.01889" lon="6.04894">
        <ele>1379.8</ele>
        <time>2020-09-05T10:40:41Z</time>
      </trkpt>
      <trkpt lat="45.01892" lon="6.0489">
        <ele>1379.8</ele>
        <time>2020-09-05T10:40:42Z</time>
      </trkpt>
      <trkpt lat="45.01895" lon="6.04887">
        <ele>1380</ele>
        <time>2020-09-05T10:40:43Z</time>
      </trkpt>
      <trkpt lat="45.01898" lon="6.04882">
        <ele>1380</ele>
        <time>2020-09-05T10:40:44Z</time>
      </trkpt>
      <trkpt lat="45.01901" lon="6.04877">
        <ele>1380.2</ele>
        <time>2020-09-05T10:40:45Z</time>
      </trkpt>
      <trkpt lat="45.01904" lon="6.04871">
        <ele>1380.2</ele>
        <time>2020-09-05T10:40:46Z</time>
      </trkpt>
      <trkpt lat="45.01905" lon="6.04865">
        <ele>1380.6</ele>
        <time>2020-09-05T10:40:47Z</time>
      </trkpt>
      <trkpt lat="45.01906" lon="6.04858">
        <ele>1380.4</ele>
        <time>2020-09-05T10:40:48Z</time>
      </trkpt>
      <trkpt lat="45.01906" lon="6.0485">
        <ele>1380.8</ele>
        <time>2020-09-05T10:40:49Z</time>
      </trkpt>
      <trkpt lat="45.01906" lon="6.04843">
        <ele>1380.8</ele>
        <time>2020-09-05T10:40:50Z</time>
      </trkpt>
      <trkpt lat="45.01903" lon="6.04836">
        <ele>1380.8</ele>
        <time>2020-09-05T10:40:51Z</time>
      </trkpt>
      <trkpt lat="45.019" lon="6.04829">
        <ele>1381</ele>
        <time>2020-09-05T10:40:52Z</time>
      </trkpt>
      <trkpt lat="45.01897" lon="6.04823">
        <ele>1381.2</ele>
        <time>2020-09-05T10:40:53Z</time>
      </trkpt>
      <trkpt lat="45.01893" lon="6.04818">
        <ele>1381.2</ele>
        <time>2020-09-05T10:40:54Z</time>
      </trkpt>
      <trkpt lat="45.01888" lon="6.04815">
        <ele>1381.6</ele>
        <time>2020-09-05T10:40:55Z</time>
      </trkpt>
      <trkpt lat="45.01884" lon="6.04813">
        <ele>1381.6</ele>
        <time>2020-09-05T10:40:56Z</time>
      </trkpt>
      <trkpt lat="45.01879" lon="6.04813">
        <ele>1381.8</ele>
        <time>2020-09-05T10:40:57Z</time>
      </trkpt>
      <trkpt lat="45.01874" lon="6.04814">
        <ele>1382.2</ele>
        <time>2020-09-05T10:40:58Z</time>
      </trkpt>
      <trkpt lat="45.01869" lon="6.04815">
        <ele>1382.4</ele>
        <time>2020-09-05T10:40:59Z</time>
      </trkpt>
      <trkpt lat="45.01865" lon="6.04816">
        <ele>1382.6</ele>
        <time>2020-09-05T10:41:00Z</time>
      </trkpt>
      <trkpt lat="45.0186" lon="6.04817">
        <ele>1383</ele>
        <time>2020-09-05T10:41:01Z</time>
      </trkpt>
      <trkpt lat="45.01856" lon="6.04817">
        <ele>1383</ele>
        <time>2020-09-05T10:41:02Z</time>
      </trkpt>
      <trkpt lat="45.01852" lon="6.04816">
        <ele>1383.2</ele>
        <time>2020-09-05T10:41:03Z</time>
      </trkpt>
      <trkpt lat="45.01849" lon="6.04815">
        <ele>1383.6</ele>
        <time>2020-09-05T10:41:04Z</time>
      </trkpt>
      <trkpt lat="45.01843" lon="6.04813">
        <ele>1384.2</ele>
        <time>2020-09-05T10:41:06Z</time>
      </trkpt>
      <trkpt lat="45.01839" lon="6.04811">
        <ele>1384.6</ele>
        <time>2020-09-05T10:41:07Z</time>
      </trkpt>
      <trkpt lat="45.01836" lon="6.0481">
        <ele>1385</ele>
        <time>2020-09-05T10:41:08Z</time>
      </trkpt>
      <trkpt lat="45.01833" lon="6.04808">
        <ele>1385.2</ele>
        <time>2020-09-05T10:41:09Z</time>
      </trkpt>
      <trkpt lat="45.0183" lon="6.04807">
        <ele>1385.4</ele>
        <time>2020-09-05T10:41:10Z</time>
      </trkpt>
      <trkpt lat="45.01827" lon="6.04807">
        <ele>1385.8</ele>
        <time>2020-09-05T10:41:11Z</time>
      </trkpt>
      <trkpt lat="45.01824" lon="6.04806">
        <ele>1386.4</ele>
        <time>2020-09-05T10:41:12Z</time>
      </trkpt>
      <trkpt lat="45.01821" lon="6.04805">
        <ele>1386.6</ele>
        <time>2020-09-05T10:41:13Z</time>
      </trkpt>
      <trkpt lat="45.01818" lon="6.04804">
        <ele>1387</ele>
        <time>2020-09-05T10:41:14Z</time>
      </trkpt>
      <trkpt lat="45.01815" lon="6.04803">
        <ele>1387.4</ele>
        <time>2020-09-05T10:41:15Z</time>
      </trkpt>
      <trkpt lat="45.01812" lon="6.04801">
        <ele>1387.4</ele>
        <time>2020-09-05T10:41:16Z</time>
      </trkpt>
      <trkpt lat="45.01809" lon="6.048">
        <ele>1387.8</ele>
        <time>2020-09-05T10:41:17Z</time>
      </trkpt>
      <trkpt lat="45.01807" lon="6.04799">
        <ele>1388</ele>
        <time>2020-09-05T10:41:18Z</time>
      </trkpt>
      <trkpt lat="45.01804" lon="6.04797">
        <ele>1388.4</ele>
        <time>2020-09-05T10:41:19Z</time>
      </trkpt>
      <trkpt lat="45.01798" lon="6.04795">
        <ele>1389</ele>
        <time>2020-09-05T10:41:21Z</time>
      </trkpt>
      <trkpt lat="45.01795" lon="6.04793">
        <ele>1389.4</ele>
        <time>2020-09-05T10:41:22Z</time>
      </trkpt>
      <trkpt lat="45.01792" lon="6.04792">
        <ele>1389.8</ele>
        <time>2020-09-05T10:41:23Z</time>
      </trkpt>
      <trkpt lat="45.01789" lon="6.0479">
        <ele>1390.2</ele>
        <time>2020-09-05T10:41:24Z</time>
      </trkpt>
      <trkpt lat="45.01787" lon="6.04788">
        <ele>1390.6</ele>
        <time>2020-09-05T10:41:25Z</time>
      </trkpt>
      <trkpt lat="45.01785" lon="6.04786">
        <ele>1390.8</ele>
        <time>2020-09-05T10:41:26Z</time>
      </trkpt>
      <trkpt lat="45.01782" lon="6.04785">
        <ele>1391.2</ele>
        <time>2020-09-05T10:41:27Z</time>
      </trkpt>
      <trkpt lat="45.0178" lon="6.04784">
        <ele>1391.6</ele>
        <time>2020-09-05T10:41:28Z</time>
      </trkpt>
      <trkpt lat="45.01778" lon="6.04782">
        <ele>1392</ele>
        <time>2020-09-05T10:41:29Z</time>
      </trkpt>
      <trkpt lat="45.01775" lon="6.0478">
        <ele>1392.4</ele>
        <time>2020-09-05T10:41:30Z</time>
      </trkpt>
      <trkpt lat="45.01773" lon="6.04779">
        <ele>1392.6</ele>
        <time>2020-09-05T10:41:31Z</time>
      </trkpt>
      <trkpt lat="45.01771" lon="6.04777">
        <ele>1393.2</ele>
        <time>2020-09-05T10:41:32Z</time>
      </trkpt>
      <trkpt lat="45.01768" lon="6.04775">
        <ele>1393.4</ele>
        <time>2020-09-05T10:41:33Z</time>
      </trkpt>
      <trkpt lat="45.01766" lon="6.04772">
        <ele>1393.8</ele>
        <time>2020-09-05T10:41:34Z</time>
      </trkpt>
      <trkpt lat="45.01764" lon="6.0477">
        <ele>1394</ele>
        <time>2020-09-05T10:41:35Z</time>
      </trkpt>
      <trkpt lat="45.01761" lon="6.04767">
        <ele>1394.4</ele>
        <time>2020-09-05T10:41:36Z</time>
      </trkpt>
      <trkpt lat="45.01759" lon="6.04764">
        <ele>1394.6</ele>
        <time>2020-09-05T10:41:37Z</time>
      </trkpt>
      <trkpt lat="45.01757" lon="6.04762">
        <ele>1394.8</ele>
        <time>2020-09-05T10:41:38Z</time>
      </trkpt>
      <trkpt lat="45.01755" lon="6.04759">
        <ele>1395.2</ele>
        <time>2020-09-05T10:41:39Z</time>
      </trkpt>
      <trkpt lat="45.01753" lon="6.04757">
        <ele>1395.6</ele>
        <time>2020-09-05T10:41:40Z</time>
      </trkpt>
      <trkpt lat="45.01751" lon="6.04754">
        <ele>1395.8</ele>
        <time>2020-09-05T10:41:41Z</time>
      </trkpt>
      <trkpt lat="45.01748" lon="6.04752">
        <ele>1396.2</ele>
        <time>2020-09-05T10:41:42Z</time>
      </trkpt>
      <trkpt lat="45.01745" lon="6.04751">
        <ele>1396.2</ele>
        <time>2020-09-05T10:41:43Z</time>
      </trkpt>
      <trkpt lat="45.01743" lon="6.04749">
        <ele>1396.8</ele>
        <time>2020-09-05T10:41:44Z</time>
      </trkpt>
      <trkpt lat="45.0174" lon="6.04748">
        <ele>1396.8</ele>
        <time>2020-09-05T10:41:45Z</time>
      </trkpt>
      <trkpt lat="45.01737" lon="6.04746">
        <ele>1397.2</ele>
        <time>2020-09-05T10:41:46Z</time>
      </trkpt>
      <trkpt lat="45.01735" lon="6.04745">
        <ele>1397.6</ele>
        <time>2020-09-05T10:41:47Z</time>
      </trkpt>
      <trkpt lat="45.01732" lon="6.04743">
        <ele>1397.8</ele>
        <time>2020-09-05T10:41:48Z</time>
      </trkpt>
      <trkpt lat="45.0173" lon="6.04742">
        <ele>1398</ele>
        <time>2020-09-05T10:41:49Z</time>
      </trkpt>
      <trkpt lat="45.01727" lon="6.0474">
        <ele>1398.4</ele>
        <time>2020-09-05T10:41:50Z</time>
      </trkpt>
      <trkpt lat="45.01725" lon="6.04738">
        <ele>1398.8</ele>
        <time>2020-09-05T10:41:51Z</time>
      </trkpt>
      <trkpt lat="45.01723" lon="6.04735">
        <ele>1399.2</ele>
        <time>2020-09-05T10:41:52Z</time>
      </trkpt>
      <trkpt lat="45.01721" lon="6.04732">
        <ele>1399.4</ele>
        <time>2020-09-05T10:41:53Z</time>
      </trkpt>
      <trkpt lat="45.01718" lon="6.0473">
        <ele>1399.8</ele>
        <time>2020-09-05T10:41:54Z</time>
      </trkpt>
      <trkpt lat="45.01716" lon="6.04727">
        <ele>1399.8</ele>
        <time>2020-09-05T10:41:55Z</time>
      </trkpt>
      <trkpt lat="45.01714" lon="6.04724">
        <ele>1400.4</ele>
        <time>2020-09-05T10:41:56Z</time>
      </trkpt>
      <trkpt lat="45.01712" lon="6.0472">
        <ele>1400.6</ele>
        <time>2020-09-05T10:41:57Z</time>
      </trkpt>
      <trkpt lat="45.0171" lon="6.04717">
        <ele>1400.8</ele>
        <time>2020-09-05T10:41:58Z</time>
      </trkpt>
      <trkpt lat="45.01708" lon="6.04715">
        <ele>1401</ele>
        <time>2020-09-05T10:41:59Z</time>
      </trkpt>
      <trkpt lat="45.01706" lon="6.04712">
        <ele>1401.4</ele>
        <time>2020-09-05T10:42:00Z</time>
      </trkpt>
      <trkpt lat="45.01704" lon="6.04709">
        <ele>1401.8</ele>
        <time>2020-09-05T10:42:01Z</time>
      </trkpt>
      <trkpt lat="45.01701" lon="6.04706">
        <ele>1402</ele>
        <time>2020-09-05T10:42:02Z</time>
      </trkpt>
      <trkpt lat="45.01699" lon="6.04704">
        <ele>1402.4</ele>
        <time>2020-09-05T10:42:03Z</time>
      </trkpt>
      <trkpt lat="45.01696" lon="6.04701">
        <ele>1402.6</ele>
        <time>2020-09-05T10:42:04Z</time>
      </trkpt>
      <trkpt lat="45.01694" lon="6.04698">
        <ele>1402.6</ele>
        <time>2020-09-05T10:42:05Z</time>
      </trkpt>
      <trkpt lat="45.01693" lon="6.04694">
        <ele>1402.8</ele>
        <time>2020-09-05T10:42:06Z</time>
      </trkpt>
      <trkpt lat="45.01693" lon="6.04689">
        <ele>1403</ele>
        <time>2020-09-05T10:42:07Z</time>
      </trkpt>
      <trkpt lat="45.01694" lon="6.04685">
        <ele>1403.6</ele>
        <time>2020-09-05T10:42:08Z</time>
      </trkpt>
      <trkpt lat="45.01697" lon="6.04684">
        <ele>1403.8</ele>
        <time>2020-09-05T10:42:09Z</time>
      </trkpt>
      <trkpt lat="45.017" lon="6.04686">
        <ele>1404.2</ele>
        <time>2020-09-05T10:42:10Z</time>
      </trkpt>
      <trkpt lat="45.01703" lon="6.04689">
        <ele>1404.4</ele>
        <time>2020-09-05T10:42:11Z</time>
      </trkpt>
      <trkpt lat="45.01705" lon="6.04693">
        <ele>1404.6</ele>
        <time>2020-09-05T10:42:12Z</time>
      </trkpt>
      <trkpt lat="45.01707" lon="6.04697">
        <ele>1404.8</ele>
        <time>2020-09-05T10:42:13Z</time>
      </trkpt>
      <trkpt lat="45.01709" lon="6.04701">
        <ele>1405</ele>
        <time>2020-09-05T10:42:14Z</time>
      </trkpt>
      <trkpt lat="45.01711" lon="6.04705">
        <ele>1405.2</ele>
        <time>2020-09-05T10:42:15Z</time>
      </trkpt>
      <trkpt lat="45.01714" lon="6.04708">
        <ele>1405.6</ele>
        <time>2020-09-05T10:42:16Z</time>
      </trkpt>
      <trkpt lat="45.01717" lon="6.04712">
        <ele>1406</ele>
        <time>2020-09-05T10:42:17Z</time>
      </trkpt>
      <trkpt lat="45.01719" lon="6.04715">
        <ele>1406.2</ele>
        <time>2020-09-05T10:42:18Z</time>
      </trkpt>
      <trkpt lat="45.01722" lon="6.04718">
        <ele>1406.6</ele>
        <time>2020-09-05T10:42:19Z</time>
      </trkpt>
      <trkpt lat="45.01724" lon="6.04721">
        <ele>1406.8</ele>
        <time>2020-09-05T10:42:20Z</time>
      </trkpt>
      <trkpt lat="45.01727" lon="6.04723">
        <ele>1407</ele>
        <time>2020-09-05T10:42:21Z</time>
      </trkpt>
      <trkpt lat="45.0173" lon="6.04725">
        <ele>1407.2</ele>
        <time>2020-09-05T10:42:22Z</time>
      </trkpt>
      <trkpt lat="45.01734" lon="6.04726">
        <ele>1407.4</ele>
        <time>2020-09-05T10:42:23Z</time>
      </trkpt>
      <trkpt lat="45.01737" lon="6.04728">
        <ele>1407.8</ele>
        <time>2020-09-05T10:42:24Z</time>
      </trkpt>
      <trkpt lat="45.0174" lon="6.04729">
        <ele>1408</ele>
        <time>2020-09-05T10:42:25Z</time>
      </trkpt>
      <trkpt lat="45.01744" lon="6.04729">
        <ele>1408.2</ele>
        <time>2020-09-05T10:42:26Z</time>
      </trkpt>
      <trkpt lat="45.01747" lon="6.0473">
        <ele>1408.4</ele>
        <time>2020-09-05T10:42:27Z</time>
      </trkpt>
      <trkpt lat="45.0175" lon="6.0473">
        <ele>1408.6</ele>
        <time>2020-09-05T10:42:28Z</time>
      </trkpt>
      <trkpt lat="45.01753" lon="6.04731">
        <ele>1409</ele>
        <time>2020-09-05T10:42:29Z</time>
      </trkpt>
      <trkpt lat="45.01756" lon="6.04731">
        <ele>1409.6</ele>
        <time>2020-09-05T10:42:30Z</time>
      </trkpt>
      <trkpt lat="45.01759" lon="6.04732">
        <ele>1409.8</ele>
        <time>2020-09-05T10:42:31Z</time>
      </trkpt>
      <trkpt lat="45.01763" lon="6.04732">
        <ele>1410.2</ele>
        <time>2020-09-05T10:42:32Z</time>
      </trkpt>
      <trkpt lat="45.01766" lon="6.04732">
        <ele>1410.6</ele>
        <time>2020-09-05T10:42:33Z</time>
      </trkpt>
      <trkpt lat="45.01769" lon="6.04731">
        <ele>1411.4</ele>
        <time>2020-09-05T10:42:34Z</time>
      </trkpt>
      <trkpt lat="45.01772" lon="6.04731">
        <ele>1411.6</ele>
        <time>2020-09-05T10:42:35Z</time>
      </trkpt>
      <trkpt lat="45.01776" lon="6.04731">
        <ele>1412</ele>
        <time>2020-09-05T10:42:36Z</time>
      </trkpt>
      <trkpt lat="45.01779" lon="6.0473">
        <ele>1412</ele>
        <time>2020-09-05T10:42:37Z</time>
      </trkpt>
      <trkpt lat="45.01782" lon="6.0473">
        <ele>1412.6</ele>
        <time>2020-09-05T10:42:38Z</time>
      </trkpt>
      <trkpt lat="45.01785" lon="6.0473">
        <ele>1413</ele>
        <time>2020-09-05T10:42:39Z</time>
      </trkpt>
      <trkpt lat="45.01788" lon="6.04729">
        <ele>1413.4</ele>
        <time>2020-09-05T10:42:40Z</time>
      </trkpt>
      <trkpt lat="45.0179" lon="6.04729">
        <ele>1413.8</ele>
        <time>2020-09-05T10:42:41Z</time>
      </trkpt>
      <trkpt lat="45.01793" lon="6.04729">
        <ele>1414.2</ele>
        <time>2020-09-05T10:42:42Z</time>
      </trkpt>
      <trkpt lat="45.01797" lon="6.04729">
        <ele>1414.4</ele>
        <time>2020-09-05T10:42:43Z</time>
      </trkpt>
      <trkpt lat="45.018" lon="6.04729">
        <ele>1414.8</ele>
        <time>2020-09-05T10:42:44Z</time>
      </trkpt>
      <trkpt lat="45.01802" lon="6.04728">
        <ele>1415</ele>
        <time>2020-09-05T10:42:45Z</time>
      </trkpt>
      <trkpt lat="45.01806" lon="6.04728">
        <ele>1415.2</ele>
        <time>2020-09-05T10:42:46Z</time>
      </trkpt>
      <trkpt lat="45.01809" lon="6.04727">
        <ele>1415.4</ele>
        <time>2020-09-05T10:42:47Z</time>
      </trkpt>
      <trkpt lat="45.01812" lon="6.04727">
        <ele>1416</ele>
        <time>2020-09-05T10:42:48Z</time>
      </trkpt>
      <trkpt lat="45.01814" lon="6.04727">
        <ele>1416.4</ele>
        <time>2020-09-05T10:42:49Z</time>
      </trkpt>
      <trkpt lat="45.01817" lon="6.04726">
        <ele>1416.8</ele>
        <time>2020-09-05T10:42:50Z</time>
      </trkpt>
      <trkpt lat="45.0182" lon="6.04726">
        <ele>1417</ele>
        <time>2020-09-05T10:42:51Z</time>
      </trkpt>
      <trkpt lat="45.01823" lon="6.04725">
        <ele>1417.4</ele>
        <time>2020-09-05T10:42:52Z</time>
      </trkpt>
      <trkpt lat="45.01825" lon="6.04724">
        <ele>1417.6</ele>
        <time>2020-09-05T10:42:53Z</time>
      </trkpt>
      <trkpt lat="45.01828" lon="6.04723">
        <ele>1418.4</ele>
        <time>2020-09-05T10:42:57Z</time>
      </trkpt>
      <trkpt lat="45.01832" lon="6.04722">
        <ele>1418.8</ele>
        <time>2020-09-05T10:42:58Z</time>
      </trkpt>
      <trkpt lat="45.01836" lon="6.04722">
        <ele>1419</ele>
        <time>2020-09-05T10:42:59Z</time>
      </trkpt>
      <trkpt lat="45.01839" lon="6.04721">
        <ele>1419.2</ele>
        <time>2020-09-05T10:43:00Z</time>
      </trkpt>
      <trkpt lat="45.01843" lon="6.04721">
        <ele>1419.6</ele>
        <time>2020-09-05T10:43:01Z</time>
      </trkpt>
      <trkpt lat="45.01848" lon="6.0472">
        <ele>1419.8</ele>
        <time>2020-09-05T10:43:02Z</time>
      </trkpt>
      <trkpt lat="45.01852" lon="6.0472">
        <ele>1420</ele>
        <time>2020-09-05T10:43:03Z</time>
      </trkpt>
      <trkpt lat="45.01857" lon="6.04721">
        <ele>1420.2</ele>
        <time>2020-09-05T10:43:04Z</time>
      </trkpt>
      <trkpt lat="45.01861" lon="6.04722">
        <ele>1420.4</ele>
        <time>2020-09-05T10:43:05Z</time>
      </trkpt>
      <trkpt lat="45.01865" lon="6.04724">
        <ele>1420.6</ele>
        <time>2020-09-05T10:43:06Z</time>
      </trkpt>
      <trkpt lat="45.0187" lon="6.04726">
        <ele>1420.6</ele>
        <time>2020-09-05T10:43:07Z</time>
      </trkpt>
      <trkpt lat="45.01874" lon="6.04726">
        <ele>1420.8</ele>
        <time>2020-09-05T10:43:08Z</time>
      </trkpt>
      <trkpt lat="45.01878" lon="6.04723">
        <ele>1421</ele>
        <time>2020-09-05T10:43:09Z</time>
      </trkpt>
      <trkpt lat="45.0188" lon="6.04717">
        <ele>1421</ele>
        <time>2020-09-05T10:43:10Z</time>
      </trkpt>
      <trkpt lat="45.01877" lon="6.04713">
        <ele>1421</ele>
        <time>2020-09-05T10:43:11Z</time>
      </trkpt>
      <trkpt lat="45.01874" lon="6.0471">
        <ele>1421.2</ele>
        <time>2020-09-05T10:43:12Z</time>
      </trkpt>
      <trkpt lat="45.0187" lon="6.04709">
        <ele>1421.4</ele>
        <time>2020-09-05T10:43:13Z</time>
      </trkpt>
      <trkpt lat="45.01866" lon="6.04709">
        <ele>1421.8</ele>
        <time>2020-09-05T10:43:14Z</time>
      </trkpt>
      <trkpt lat="45.01862" lon="6.04709">
        <ele>1422</ele>
        <time>2020-09-05T10:43:15Z</time>
      </trkpt>
      <trkpt lat="45.01858" lon="6.04709">
        <ele>1422</ele>
        <time>2020-09-05T10:43:16Z</time>
      </trkpt>
      <trkpt lat="45.01854" lon="6.04709">
        <ele>1422.6</ele>
        <time>2020-09-05T10:43:17Z</time>
      </trkpt>
      <trkpt lat="45.0185" lon="6.04708">
        <ele>1423</ele>
        <time>2020-09-05T10:43:18Z</time>
      </trkpt>
      <trkpt lat="45.01846" lon="6.04708">
        <ele>1423.2</ele>
        <time>2020-09-05T10:43:19Z</time>
      </trkpt>
      <trkpt lat="45.01843" lon="6.04708">
        <ele>1423.2</ele>
        <time>2020-09-05T10:43:20Z</time>
      </trkpt>
      <trkpt lat="45.01839" lon="6.04707">
        <ele>1423.4</ele>
        <time>2020-09-05T10:43:21Z</time>
      </trkpt>
      <trkpt lat="45.01836" lon="6.04706">
        <ele>1423.8</ele>
        <time>2020-09-05T10:43:22Z</time>
      </trkpt>
      <trkpt lat="45.01833" lon="6.04705">
        <ele>1424.2</ele>
        <time>2020-09-05T10:43:23Z</time>
      </trkpt>
      <trkpt lat="45.01831" lon="6.04704">
        <ele>1424.8</ele>
        <time>2020-09-05T10:43:24Z</time>
      </trkpt>
      <trkpt lat="45.01828" lon="6.04704">
        <ele>1425.2</ele>
        <time>2020-09-05T10:43:25Z</time>
      </trkpt>
      <trkpt lat="45.01825" lon="6.04703">
        <ele>1425.6</ele>
        <time>2020-09-05T10:43:26Z</time>
      </trkpt>
      <trkpt lat="45.01822" lon="6.04703">
        <ele>1426</ele>
        <time>2020-09-05T10:43:27Z</time>
      </trkpt>
      <trkpt lat="45.01819" lon="6.04702">
        <ele>1426.2</ele>
        <time>2020-09-05T10:43:28Z</time>
      </trkpt>
      <trkpt lat="45.01816" lon="6.04701">
        <ele>1426.6</ele>
        <time>2020-09-05T10:43:29Z</time>
      </trkpt>
      <trkpt lat="45.01813" lon="6.047">
        <ele>1426.6</ele>
        <time>2020-09-05T10:43:30Z</time>
      </trkpt>
      <trkpt lat="45.0181" lon="6.04699">
        <ele>1426.8</ele>
        <time>2020-09-05T10:43:31Z</time>
      </trkpt>
      <trkpt lat="45.01807" lon="6.04699">
        <ele>1427.4</ele>
        <time>2020-09-05T10:43:32Z</time>
      </trkpt>
      <trkpt lat="45.01803" lon="6.04698">
        <ele>1427.8</ele>
        <time>2020-09-05T10:43:33Z</time>
      </trkpt>
      <trkpt lat="45.01801" lon="6.04696">
        <ele>1428.2</ele>
        <time>2020-09-05T10:43:34Z</time>
      </trkpt>
      <trkpt lat="45.01798" lon="6.04695">
        <ele>1428.4</ele>
        <time>2020-09-05T10:43:35Z</time>
      </trkpt>
      <trkpt lat="45.01795" lon="6.04694">
        <ele>1428.8</ele>
        <time>2020-09-05T10:43:36Z</time>
      </trkpt>
      <trkpt lat="45.01793" lon="6.04693">
        <ele>1429.2</ele>
        <time>2020-09-05T10:43:37Z</time>
      </trkpt>
      <trkpt lat="45.01791" lon="6.04692">
        <ele>1429.4</ele>
        <time>2020-09-05T10:43:38Z</time>
      </trkpt>
      <trkpt lat="45.01788" lon="6.04692">
        <ele>1429.8</ele>
        <time>2020-09-05T10:43:39Z</time>
      </trkpt>
      <trkpt lat="45.01786" lon="6.04691">
        <ele>1430.2</ele>
        <time>2020-09-05T10:43:40Z</time>
      </trkpt>
      <trkpt lat="45.01783" lon="6.0469">
        <ele>1430.4</ele>
        <time>2020-09-05T10:43:41Z</time>
      </trkpt>
      <trkpt lat="45.01781" lon="6.04688">
        <ele>1430.8</ele>
        <time>2020-09-05T10:43:42Z</time>
      </trkpt>
      <trkpt lat="45.01779" lon="6.04686">
        <ele>1431.2</ele>
        <time>2020-09-05T10:43:43Z</time>
      </trkpt>
      <trkpt lat="45.01777" lon="6.04683">
        <ele>1431.4</ele>
        <time>2020-09-05T10:43:44Z</time>
      </trkpt>
      <trkpt lat="45.01774" lon="6.04681">
        <ele>1431.8</ele>
        <time>2020-09-05T10:43:45Z</time>
      </trkpt>
      <trkpt lat="45.01772" lon="6.04678">
        <ele>1432.2</ele>
        <time>2020-09-05T10:43:46Z</time>
      </trkpt>
      <trkpt lat="45.0177" lon="6.04675">
        <ele>1432.4</ele>
        <time>2020-09-05T10:43:47Z</time>
      </trkpt>
      <trkpt lat="45.01768" lon="6.04672">
        <ele>1432.8</ele>
        <time>2020-09-05T10:43:48Z</time>
      </trkpt>
      <trkpt lat="45.01766" lon="6.04669">
        <ele>1433</ele>
        <time>2020-09-05T10:43:49Z</time>
      </trkpt>
      <trkpt lat="45.01765" lon="6.04665">
        <ele>1433.2</ele>
        <time>2020-09-05T10:43:50Z</time>
      </trkpt>
      <trkpt lat="45.01765" lon="6.04661">
        <ele>1433.6</ele>
        <time>2020-09-05T10:43:51Z</time>
      </trkpt>
      <trkpt lat="45.01764" lon="6.04657">
        <ele>1434</ele>
        <time>2020-09-05T10:43:52Z</time>
      </trkpt>
      <trkpt lat="45.01765" lon="6.04652">
        <ele>1434.2</ele>
        <time>2020-09-05T10:43:53Z</time>
      </trkpt>
      <trkpt lat="45.01766" lon="6.04648">
        <ele>1434.4</ele>
        <time>2020-09-05T10:43:54Z</time>
      </trkpt>
      <trkpt lat="45.01768" lon="6.04645">
        <ele>1434.6</ele>
        <time>2020-09-05T10:43:55Z</time>
      </trkpt>
      <trkpt lat="45.0177" lon="6.04641">
        <ele>1434.8</ele>
        <time>2020-09-05T10:43:56Z</time>
      </trkpt>
      <trkpt lat="45.01772" lon="6.04637">
        <ele>1435</ele>
        <time>2020-09-05T10:43:57Z</time>
      </trkpt>
      <trkpt lat="45.01774" lon="6.04633">
        <ele>1435.4</ele>
        <time>2020-09-05T10:43:58Z</time>
      </trkpt>
      <trkpt lat="45.01776" lon="6.04629">
        <ele>1435.6</ele>
        <time>2020-09-05T10:43:59Z</time>
      </trkpt>
      <trkpt lat="45.01778" lon="6.04624">
        <ele>1436</ele>
        <time>2020-09-05T10:44:00Z</time>
      </trkpt>
      <trkpt lat="45.0178" lon="6.0462">
        <ele>1436</ele>
        <time>2020-09-05T10:44:01Z</time>
      </trkpt>
      <trkpt lat="45.01782" lon="6.04615">
        <ele>1436</ele>
        <time>2020-09-05T10:44:02Z</time>
      </trkpt>
      <trkpt lat="45.01784" lon="6.0461">
        <ele>1436.4</ele>
        <time>2020-09-05T10:44:03Z</time>
      </trkpt>
      <trkpt lat="45.01786" lon="6.04605">
        <ele>1436.6</ele>
        <time>2020-09-05T10:44:04Z</time>
      </trkpt>
      <trkpt lat="45.01789" lon="6.046">
        <ele>1436.8</ele>
        <time>2020-09-05T10:44:05Z</time>
      </trkpt>
      <trkpt lat="45.01791" lon="6.04595">
        <ele>1437</ele>
        <time>2020-09-05T10:44:06Z</time>
      </trkpt>
      <trkpt lat="45.01794" lon="6.0459">
        <ele>1437.2</ele>
        <time>2020-09-05T10:44:07Z</time>
      </trkpt>
      <trkpt lat="45.01797" lon="6.04585">
        <ele>1437.6</ele>
        <time>2020-09-05T10:44:08Z</time>
      </trkpt>
      <trkpt lat="45.01799" lon="6.04581">
        <ele>1437.8</ele>
        <time>2020-09-05T10:44:09Z</time>
      </trkpt>
      <trkpt lat="45.01802" lon="6.04576">
        <ele>1438.2</ele>
        <time>2020-09-05T10:44:10Z</time>
      </trkpt>
      <trkpt lat="45.01805" lon="6.04572">
        <ele>1438.4</ele>
        <time>2020-09-05T10:44:11Z</time>
      </trkpt>
      <trkpt lat="45.01808" lon="6.04568">
        <ele>1438.8</ele>
        <time>2020-09-05T10:44:12Z</time>
      </trkpt>
      <trkpt lat="45.0181" lon="6.04564">
        <ele>1439</ele>
        <time>2020-09-05T10:44:13Z</time>
      </trkpt>
      <trkpt lat="45.01812" lon="6.04561">
        <ele>1439.2</ele>
        <time>2020-09-05T10:44:14Z</time>
      </trkpt>
      <trkpt lat="45.01814" lon="6.04557">
        <ele>1439.6</ele>
        <time>2020-09-05T10:44:15Z</time>
      </trkpt>
      <trkpt lat="45.01816" lon="6.04553">
        <ele>1440</ele>
        <time>2020-09-05T10:44:16Z</time>
      </trkpt>
      <trkpt lat="45.01817" lon="6.04548">
        <ele>1440.6</ele>
        <time>2020-09-05T10:44:17Z</time>
      </trkpt>
      <trkpt lat="45.01818" lon="6.04544">
        <ele>1441.2</ele>
        <time>2020-09-05T10:44:18Z</time>
      </trkpt>
      <trkpt lat="45.01819" lon="6.04539">
        <ele>1441.6</ele>
        <time>2020-09-05T10:44:19Z</time>
      </trkpt>
      <trkpt lat="45.0182" lon="6.04534">
        <ele>1441.8</ele>
        <time>2020-09-05T10:44:20Z</time>
      </trkpt>
      <trkpt lat="45.01821" lon="6.0453">
        <ele>1441.8</ele>
        <time>2020-09-05T10:44:21Z</time>
      </trkpt>
      <trkpt lat="45.01822" lon="6.04525">
        <ele>1442</ele>
        <time>2020-09-05T10:44:22Z</time>
      </trkpt>
      <trkpt lat="45.01823" lon="6.04521">
        <ele>1442.4</ele>
        <time>2020-09-05T10:44:23Z</time>
      </trkpt>
      <trkpt lat="45.01823" lon="6.04517">
        <ele>1442.6</ele>
        <time>2020-09-05T10:44:24Z</time>
      </trkpt>
      <trkpt lat="45.01824" lon="6.04512">
        <ele>1443.2</ele>
        <time>2020-09-05T10:44:25Z</time>
      </trkpt>
      <trkpt lat="45.01824" lon="6.04508">
        <ele>1443.8</ele>
        <time>2020-09-05T10:44:26Z</time>
      </trkpt>
      <trkpt lat="45.01825" lon="6.04504">
        <ele>1444</ele>
        <time>2020-09-05T10:44:27Z</time>
      </trkpt>
      <trkpt lat="45.01825" lon="6.04499">
        <ele>1444.4</ele>
        <time>2020-09-05T10:44:28Z</time>
      </trkpt>
      <trkpt lat="45.01826" lon="6.04495">
        <ele>1445</ele>
        <time>2020-09-05T10:44:29Z</time>
      </trkpt>
      <trkpt lat="45.01826" lon="6.04492">
        <ele>1445</ele>
        <time>2020-09-05T10:44:30Z</time>
      </trkpt>
      <trkpt lat="45.01826" lon="6.04488">
        <ele>1445.6</ele>
        <time>2020-09-05T10:44:31Z</time>
      </trkpt>
      <trkpt lat="45.01826" lon="6.04484">
        <ele>1445.8</ele>
        <time>2020-09-05T10:44:32Z</time>
      </trkpt>
      <trkpt lat="45.01826" lon="6.0448">
        <ele>1446.4</ele>
        <time>2020-09-05T10:44:33Z</time>
      </trkpt>
      <trkpt lat="45.01827" lon="6.04477">
        <ele>1446.8</ele>
        <time>2020-09-05T10:44:34Z</time>
      </trkpt>
      <trkpt lat="45.01826" lon="6.04473">
        <ele>1447</ele>
        <time>2020-09-05T10:44:35Z</time>
      </trkpt>
      <trkpt lat="45.01826" lon="6.04468">
        <ele>1447.2</ele>
        <time>2020-09-05T10:44:36Z</time>
      </trkpt>
      <trkpt lat="45.01826" lon="6.04464">
        <ele>1447.4</ele>
        <time>2020-09-05T10:44:37Z</time>
      </trkpt>
      <trkpt lat="45.01826" lon="6.0446">
        <ele>1447.6</ele>
        <time>2020-09-05T10:44:38Z</time>
      </trkpt>
      <trkpt lat="45.01826" lon="6.04456">
        <ele>1448</ele>
        <time>2020-09-05T10:44:39Z</time>
      </trkpt>
      <trkpt lat="45.01826" lon="6.04452">
        <ele>1448.4</ele>
        <time>2020-09-05T10:44:40Z</time>
      </trkpt>
      <trkpt lat="45.01826" lon="6.04448">
        <ele>1448.8</ele>
        <time>2020-09-05T10:44:41Z</time>
      </trkpt>
      <trkpt lat="45.01826" lon="6.04443">
        <ele>1449.2</ele>
        <time>2020-09-05T10:44:42Z</time>
      </trkpt>
      <trkpt lat="45.01826" lon="6.04439">
        <ele>1449.6</ele>
        <time>2020-09-05T10:44:43Z</time>
      </trkpt>
      <trkpt lat="45.01826" lon="6.04435">
        <ele>1450</ele>
        <time>2020-09-05T10:44:44Z</time>
      </trkpt>
      <trkpt lat="45.01826" lon="6.0443">
        <ele>1450.4</ele>
        <time>2020-09-05T10:44:45Z</time>
      </trkpt>
      <trkpt lat="45.01826" lon="6.04426">
        <ele>1450.8</ele>
        <time>2020-09-05T10:44:46Z</time>
      </trkpt>
      <trkpt lat="45.01825" lon="6.04422">
        <ele>1450.8</ele>
        <time>2020-09-05T10:44:47Z</time>
      </trkpt>
      <trkpt lat="45.01825" lon="6.04417">
        <ele>1451</ele>
        <time>2020-09-05T10:44:48Z</time>
      </trkpt>
      <trkpt lat="45.01825" lon="6.04413">
        <ele>1451.2</ele>
        <time>2020-09-05T10:44:49Z</time>
      </trkpt>
      <trkpt lat="45.01824" lon="6.04408">
        <ele>1451.6</ele>
        <time>2020-09-05T10:44:50Z</time>
      </trkpt>
      <trkpt lat="45.01823" lon="6.04404">
        <ele>1451.8</ele>
        <time>2020-09-05T10:44:51Z</time>
      </trkpt>
      <trkpt lat="45.01822" lon="6.04399">
        <ele>1452</ele>
        <time>2020-09-05T10:44:52Z</time>
      </trkpt>
      <trkpt lat="45.01821" lon="6.04394">
        <ele>1452.6</ele>
        <time>2020-09-05T10:44:53Z</time>
      </trkpt>
      <trkpt lat="45.0182" lon="6.0439">
        <ele>1453</ele>
        <time>2020-09-05T10:44:54Z</time>
      </trkpt>
      <trkpt lat="45.01819" lon="6.04386">
        <ele>1453.4</ele>
        <time>2020-09-05T10:44:55Z</time>
      </trkpt>
      <trkpt lat="45.01817" lon="6.04382">
        <ele>1453.6</ele>
        <time>2020-09-05T10:44:56Z</time>
      </trkpt>
      <trkpt lat="45.01816" lon="6.04378">
        <ele>1454</ele>
        <time>2020-09-05T10:44:57Z</time>
      </trkpt>
      <trkpt lat="45.01814" lon="6.04374">
        <ele>1454.2</ele>
        <time>2020-09-05T10:44:58Z</time>
      </trkpt>
      <trkpt lat="45.01813" lon="6.0437">
        <ele>1454.8</ele>
        <time>2020-09-05T10:44:59Z</time>
      </trkpt>
      <trkpt lat="45.01812" lon="6.04365">
        <ele>1455.2</ele>
        <time>2020-09-05T10:45:00Z</time>
      </trkpt>
      <trkpt lat="45.01811" lon="6.04361">
        <ele>1455.6</ele>
        <time>2020-09-05T10:45:01Z</time>
      </trkpt>
      <trkpt lat="45.01809" lon="6.04357">
        <ele>1455.6</ele>
        <time>2020-09-05T10:45:02Z</time>
      </trkpt>
      <trkpt lat="45.01808" lon="6.04352">
        <ele>1456</ele>
        <time>2020-09-05T10:45:03Z</time>
      </trkpt>
      <trkpt lat="45.01806" lon="6.04348">
        <ele>1456.4</ele>
        <time>2020-09-05T10:45:04Z</time>
      </trkpt>
      <trkpt lat="45.01804" lon="6.04343">
        <ele>1457</ele>
        <time>2020-09-05T10:45:05Z</time>
      </trkpt>
      <trkpt lat="45.01803" lon="6.04339">
        <ele>1457.4</ele>
        <time>2020-09-05T10:45:06Z</time>
      </trkpt>
      <trkpt lat="45.01801" lon="6.04334">
        <ele>1457.8</ele>
        <time>2020-09-05T10:45:07Z</time>
      </trkpt>
      <trkpt lat="45.018" lon="6.0433">
        <ele>1458.2</ele>
        <time>2020-09-05T10:45:08Z</time>
      </trkpt>
      <trkpt lat="45.01799" lon="6.04326">
        <ele>1458.4</ele>
        <time>2020-09-05T10:45:09Z</time>
      </trkpt>
      <trkpt lat="45.01797" lon="6.04323">
        <ele>1458.8</ele>
        <time>2020-09-05T10:45:10Z</time>
      </trkpt>
      <trkpt lat="45.01796" lon="6.04319">
        <ele>1459.2</ele>
        <time>2020-09-05T10:45:11Z</time>
      </trkpt>
      <trkpt lat="45.01794" lon="6.04316">
        <ele>1459.4</ele>
        <time>2020-09-05T10:45:12Z</time>
      </trkpt>
      <trkpt lat="45.01792" lon="6.04312">
        <ele>1460</ele>
        <time>2020-09-05T10:45:13Z</time>
      </trkpt>
      <trkpt lat="45.01791" lon="6.04308">
        <ele>1460.4</ele>
        <time>2020-09-05T10:45:14Z</time>
      </trkpt>
      <trkpt lat="45.0179" lon="6.04304">
        <ele>1460.8</ele>
        <time>2020-09-05T10:45:15Z</time>
      </trkpt>
      <trkpt lat="45.01789" lon="6.04301">
        <ele>1461.2</ele>
        <time>2020-09-05T10:45:16Z</time>
      </trkpt>
      <trkpt lat="45.01788" lon="6.04297">
        <ele>1461.4</ele>
        <time>2020-09-05T10:45:17Z</time>
      </trkpt>
      <trkpt lat="45.01786" lon="6.04293">
        <ele>1461.6</ele>
        <time>2020-09-05T10:45:18Z</time>
      </trkpt>
      <trkpt lat="45.01785" lon="6.04289">
        <ele>1462</ele>
        <time>2020-09-05T10:45:19Z</time>
      </trkpt>
      <trkpt lat="45.01785" lon="6.04285">
        <ele>1462.4</ele>
        <time>2020-09-05T10:45:20Z</time>
      </trkpt>
      <trkpt lat="45.01784" lon="6.04281">
        <ele>1462.8</ele>
        <time>2020-09-05T10:45:21Z</time>
      </trkpt>
      <trkpt lat="45.01784" lon="6.04277">
        <ele>1462.8</ele>
        <time>2020-09-05T10:45:22Z</time>
      </trkpt>
      <trkpt lat="45.01784" lon="6.04273">
        <ele>1463.2</ele>
        <time>2020-09-05T10:45:23Z</time>
      </trkpt>
      <trkpt lat="45.01784" lon="6.04268">
        <ele>1463.6</ele>
        <time>2020-09-05T10:45:24Z</time>
      </trkpt>
      <trkpt lat="45.01784" lon="6.04264">
        <ele>1463.8</ele>
        <time>2020-09-05T10:45:25Z</time>
      </trkpt>
      <trkpt lat="45.01784" lon="6.0426">
        <ele>1464.2</ele>
        <time>2020-09-05T10:45:26Z</time>
      </trkpt>
      <trkpt lat="45.01783" lon="6.04256">
        <ele>1464.6</ele>
        <time>2020-09-05T10:45:27Z</time>
      </trkpt>
      <trkpt lat="45.01783" lon="6.04252">
        <ele>1465</ele>
        <time>2020-09-05T10:45:28Z</time>
      </trkpt>
      <trkpt lat="45.01783" lon="6.04248">
        <ele>1465.2</ele>
        <time>2020-09-05T10:45:29Z</time>
      </trkpt>
      <trkpt lat="45.01782" lon="6.04244">
        <ele>1465.6</ele>
        <time>2020-09-05T10:45:30Z</time>
      </trkpt>
      <trkpt lat="45.01782" lon="6.0424">
        <ele>1466</ele>
        <time>2020-09-05T10:45:31Z</time>
      </trkpt>
      <trkpt lat="45.01781" lon="6.04236">
        <ele>1466</ele>
        <time>2020-09-05T10:45:32Z</time>
      </trkpt>
      <trkpt lat="45.01781" lon="6.04232">
        <ele>1466.4</ele>
        <time>2020-09-05T10:45:33Z</time>
      </trkpt>
      <trkpt lat="45.01781" lon="6.04228">
        <ele>1466.6</ele>
        <time>2020-09-05T10:45:34Z</time>
      </trkpt>
      <trkpt lat="45.0178" lon="6.04224">
        <ele>1467.2</ele>
        <time>2020-09-05T10:45:35Z</time>
      </trkpt>
      <trkpt lat="45.0178" lon="6.0422">
        <ele>1467.6</ele>
        <time>2020-09-05T10:45:36Z</time>
      </trkpt>
      <trkpt lat="45.0178" lon="6.04215">
        <ele>1468</ele>
        <time>2020-09-05T10:45:37Z</time>
      </trkpt>
      <trkpt lat="45.01781" lon="6.04211">
        <ele>1468.2</ele>
        <time>2020-09-05T10:45:38Z</time>
      </trkpt>
      <trkpt lat="45.01781" lon="6.04207">
        <ele>1468.4</ele>
        <time>2020-09-05T10:45:39Z</time>
      </trkpt>
      <trkpt lat="45.01782" lon="6.04203">
        <ele>1468.6</ele>
        <time>2020-09-05T10:45:40Z</time>
      </trkpt>
      <trkpt lat="45.01783" lon="6.04198">
        <ele>1469</ele>
        <time>2020-09-05T10:45:41Z</time>
      </trkpt>
      <trkpt lat="45.01783" lon="6.04194">
        <ele>1469.2</ele>
        <time>2020-09-05T10:45:42Z</time>
      </trkpt>
      <trkpt lat="45.01784" lon="6.0419">
        <ele>1469.6</ele>
        <time>2020-09-05T10:45:43Z</time>
      </trkpt>
      <trkpt lat="45.01785" lon="6.04186">
        <ele>1470</ele>
        <time>2020-09-05T10:45:44Z</time>
      </trkpt>
      <trkpt lat="45.01785" lon="6.04182">
        <ele>1470.2</ele>
        <time>2020-09-05T10:45:45Z</time>
      </trkpt>
      <trkpt lat="45.01786" lon="6.04178">
        <ele>1470.4</ele>
        <time>2020-09-05T10:45:46Z</time>
      </trkpt>
      <trkpt lat="45.01786" lon="6.04174">
        <ele>1471</ele>
        <time>2020-09-05T10:45:47Z</time>
      </trkpt>
      <trkpt lat="45.01787" lon="6.0417">
        <ele>1471.4</ele>
        <time>2020-09-05T10:45:48Z</time>
      </trkpt>
      <trkpt lat="45.01787" lon="6.04166">
        <ele>1471.6</ele>
        <time>2020-09-05T10:45:49Z</time>
      </trkpt>
      <trkpt lat="45.01788" lon="6.04162">
        <ele>1471.8</ele>
        <time>2020-09-05T10:45:50Z</time>
      </trkpt>
      <trkpt lat="45.01788" lon="6.04157">
        <ele>1472.2</ele>
        <time>2020-09-05T10:45:51Z</time>
      </trkpt>
      <trkpt lat="45.01789" lon="6.04153">
        <ele>1472.8</ele>
        <time>2020-09-05T10:45:52Z</time>
      </trkpt>
      <trkpt lat="45.0179" lon="6.04148">
        <ele>1473.4</ele>
        <time>2020-09-05T10:45:53Z</time>
      </trkpt>
      <trkpt lat="45.0179" lon="6.04144">
        <ele>1473.6</ele>
        <time>2020-09-05T10:45:54Z</time>
      </trkpt>
      <trkpt lat="45.0179" lon="6.04139">
        <ele>1474</ele>
        <time>2020-09-05T10:45:55Z</time>
      </trkpt>
      <trkpt lat="45.0179" lon="6.04134">
        <ele>1474</ele>
        <time>2020-09-05T10:45:56Z</time>
      </trkpt>
      <trkpt lat="45.0179" lon="6.0413">
        <ele>1474.4</ele>
        <time>2020-09-05T10:45:57Z</time>
      </trkpt>
      <trkpt lat="45.0179" lon="6.04126">
        <ele>1474.8</ele>
        <time>2020-09-05T10:45:58Z</time>
      </trkpt>
      <trkpt lat="45.0179" lon="6.04122">
        <ele>1475</ele>
        <time>2020-09-05T10:45:59Z</time>
      </trkpt>
      <trkpt lat="45.0179" lon="6.04118">
        <ele>1475.4</ele>
        <time>2020-09-05T10:46:00Z</time>
      </trkpt>
      <trkpt lat="45.01789" lon="6.04113">
        <ele>1475.6</ele>
        <time>2020-09-05T10:46:01Z</time>
      </trkpt>
      <trkpt lat="45.01789" lon="6.04108">
        <ele>1475.8</ele>
        <time>2020-09-05T10:46:02Z</time>
      </trkpt>
      <trkpt lat="45.01789" lon="6.04103">
        <ele>1476.2</ele>
        <time>2020-09-05T10:46:03Z</time>
      </trkpt>
      <trkpt lat="45.01788" lon="6.04099">
        <ele>1476</ele>
        <time>2020-09-05T10:46:04Z</time>
      </trkpt>
      <trkpt lat="45.01788" lon="6.04094">
        <ele>1476.4</ele>
        <time>2020-09-05T10:46:05Z</time>
      </trkpt>
      <trkpt lat="45.01788" lon="6.0409">
        <ele>1476.8</ele>
        <time>2020-09-05T10:46:06Z</time>
      </trkpt>
      <trkpt lat="45.01788" lon="6.04086">
        <ele>1477.2</ele>
        <time>2020-09-05T10:46:07Z</time>
      </trkpt>
      <trkpt lat="45.01789" lon="6.04081">
        <ele>1477.2</ele>
        <time>2020-09-05T10:46:08Z</time>
      </trkpt>
      <trkpt lat="45.01791" lon="6.04077">
        <ele>1477.4</ele>
        <time>2020-09-05T10:46:09Z</time>
      </trkpt>
      <trkpt lat="45.01794" lon="6.04076">
        <ele>1477.4</ele>
        <time>2020-09-05T10:46:10Z</time>
      </trkpt>
      <trkpt lat="45.01797" lon="6.04078">
        <ele>1477.8</ele>
        <time>2020-09-05T10:46:11Z</time>
      </trkpt>
      <trkpt lat="45.01798" lon="6.04082">
        <ele>1478.2</ele>
        <time>2020-09-05T10:46:12Z</time>
      </trkpt>
      <trkpt lat="45.01797" lon="6.04087">
        <ele>1478.4</ele>
        <time>2020-09-05T10:46:13Z</time>
      </trkpt>
      <trkpt lat="45.01796" lon="6.04092">
        <ele>1478.6</ele>
        <time>2020-09-05T10:46:14Z</time>
      </trkpt>
      <trkpt lat="45.01796" lon="6.04097">
        <ele>1478.8</ele>
        <time>2020-09-05T10:46:15Z</time>
      </trkpt>
      <trkpt lat="45.01795" lon="6.04102">
        <ele>1479</ele>
        <time>2020-09-05T10:46:16Z</time>
      </trkpt>
      <trkpt lat="45.01795" lon="6.04108">
        <ele>1479.6</ele>
        <time>2020-09-05T10:46:17Z</time>
      </trkpt>
      <trkpt lat="45.01795" lon="6.04113">
        <ele>1479.8</ele>
        <time>2020-09-05T10:46:18Z</time>
      </trkpt>
      <trkpt lat="45.01796" lon="6.04118">
        <ele>1480</ele>
        <time>2020-09-05T10:46:19Z</time>
      </trkpt>
      <trkpt lat="45.01797" lon="6.04123">
        <ele>1480.2</ele>
        <time>2020-09-05T10:46:20Z</time>
      </trkpt>
      <trkpt lat="45.01798" lon="6.04127">
        <ele>1480.6</ele>
        <time>2020-09-05T10:46:21Z</time>
      </trkpt>
      <trkpt lat="45.01799" lon="6.04132">
        <ele>1480.6</ele>
        <time>2020-09-05T10:46:22Z</time>
      </trkpt>
      <trkpt lat="45.018" lon="6.04137">
        <ele>1481</ele>
        <time>2020-09-05T10:46:23Z</time>
      </trkpt>
      <trkpt lat="45.01801" lon="6.04141">
        <ele>1481.4</ele>
        <time>2020-09-05T10:46:24Z</time>
      </trkpt>
      <trkpt lat="45.01802" lon="6.04145">
        <ele>1481.8</ele>
        <time>2020-09-05T10:46:25Z</time>
      </trkpt>
      <trkpt lat="45.01803" lon="6.04149">
        <ele>1482.2</ele>
        <time>2020-09-05T10:46:26Z</time>
      </trkpt>
      <trkpt lat="45.01804" lon="6.04154">
        <ele>1482.4</ele>
        <time>2020-09-05T10:46:27Z</time>
      </trkpt>
      <trkpt lat="45.01804" lon="6.04158">
        <ele>1482.8</ele>
        <time>2020-09-05T10:46:28Z</time>
      </trkpt>
      <trkpt lat="45.01805" lon="6.04162">
        <ele>1483</ele>
        <time>2020-09-05T10:46:29Z</time>
      </trkpt>
      <trkpt lat="45.01806" lon="6.04166">
        <ele>1483.2</ele>
        <time>2020-09-05T10:46:30Z</time>
      </trkpt>
      <trkpt lat="45.01807" lon="6.0417">
        <ele>1483.6</ele>
        <time>2020-09-05T10:46:31Z</time>
      </trkpt>
      <trkpt lat="45.01807" lon="6.04175">
        <ele>1483.8</ele>
        <time>2020-09-05T10:46:32Z</time>
      </trkpt>
      <trkpt lat="45.01808" lon="6.04179">
        <ele>1484.2</ele>
        <time>2020-09-05T10:46:33Z</time>
      </trkpt>
      <trkpt lat="45.01809" lon="6.04183">
        <ele>1484.8</ele>
        <time>2020-09-05T10:46:34Z</time>
      </trkpt>
      <trkpt lat="45.0181" lon="6.04188">
        <ele>1485.2</ele>
        <time>2020-09-05T10:46:35Z</time>
      </trkpt>
      <trkpt lat="45.0181" lon="6.04192">
        <ele>1485.6</ele>
        <time>2020-09-05T10:46:36Z</time>
      </trkpt>
      <trkpt lat="45.01811" lon="6.04196">
        <ele>1486</ele>
        <time>2020-09-05T10:46:37Z</time>
      </trkpt>
      <trkpt lat="45.01812" lon="6.042">
        <ele>1486.4</ele>
        <time>2020-09-05T10:46:38Z</time>
      </trkpt>
      <trkpt lat="45.01812" lon="6.04204">
        <ele>1486.6</ele>
        <time>2020-09-05T10:46:39Z</time>
      </trkpt>
      <trkpt lat="45.01813" lon="6.04208">
        <ele>1487</ele>
        <time>2020-09-05T10:46:40Z</time>
      </trkpt>
      <trkpt lat="45.01813" lon="6.04212">
        <ele>1487.4</ele>
        <time>2020-09-05T10:46:41Z</time>
      </trkpt>
      <trkpt lat="45.01814" lon="6.04216">
        <ele>1487.8</ele>
        <time>2020-09-05T10:46:42Z</time>
      </trkpt>
      <trkpt lat="45.01815" lon="6.0422">
        <ele>1488</ele>
        <time>2020-09-05T10:46:43Z</time>
      </trkpt>
      <trkpt lat="45.01816" lon="6.04224">
        <ele>1488.2</ele>
        <time>2020-09-05T10:46:44Z</time>
      </trkpt>
      <trkpt lat="45.01817" lon="6.04228">
        <ele>1488.4</ele>
        <time>2020-09-05T10:46:45Z</time>
      </trkpt>
      <trkpt lat="45.01817" lon="6.04231">
        <ele>1488.8</ele>
        <time>2020-09-05T10:46:46Z</time>
      </trkpt>
      <trkpt lat="45.01818" lon="6.04235">
        <ele>1489</ele>
        <time>2020-09-05T10:46:47Z</time>
      </trkpt>
      <trkpt lat="45.01819" lon="6.04238">
        <ele>1489.6</ele>
        <time>2020-09-05T10:46:48Z</time>
      </trkpt>
      <trkpt lat="45.0182" lon="6.04242">
        <ele>1490</ele>
        <time>2020-09-05T10:46:49Z</time>
      </trkpt>
      <trkpt lat="45.01821" lon="6.04246">
        <ele>1490.4</ele>
        <time>2020-09-05T10:46:50Z</time>
      </trkpt>
      <trkpt lat="45.01822" lon="6.0425">
        <ele>1490.8</ele>
        <time>2020-09-05T10:46:51Z</time>
      </trkpt>
      <trkpt lat="45.01823" lon="6.04253">
        <ele>1491</ele>
        <time>2020-09-05T10:46:52Z</time>
      </trkpt>
      <trkpt lat="45.01824" lon="6.04257">
        <ele>1491.4</ele>
        <time>2020-09-05T10:46:53Z</time>
      </trkpt>
      <trkpt lat="45.01825" lon="6.04261">
        <ele>1491.6</ele>
        <time>2020-09-05T10:46:54Z</time>
      </trkpt>
      <trkpt lat="45.01826" lon="6.04265">
        <ele>1492</ele>
        <time>2020-09-05T10:46:55Z</time>
      </trkpt>
      <trkpt lat="45.01827" lon="6.04269">
        <ele>1492.2</ele>
        <time>2020-09-05T10:46:56Z</time>
      </trkpt>
      <trkpt lat="45.01828" lon="6.04272">
        <ele>1492.6</ele>
        <time>2020-09-05T10:46:57Z</time>
      </trkpt>
      <trkpt lat="45.01828" lon="6.04276">
        <ele>1493</ele>
        <time>2020-09-05T10:46:58Z</time>
      </trkpt>
      <trkpt lat="45.01829" lon="6.0428">
        <ele>1493.4</ele>
        <time>2020-09-05T10:46:59Z</time>
      </trkpt>
      <trkpt lat="45.0183" lon="6.04284">
        <ele>1493.8</ele>
        <time>2020-09-05T10:47:00Z</time>
      </trkpt>
      <trkpt lat="45.01832" lon="6.04287">
        <ele>1494</ele>
        <time>2020-09-05T10:47:01Z</time>
      </trkpt>
      <trkpt lat="45.01834" lon="6.04291">
        <ele>1494.6</ele>
        <time>2020-09-05T10:47:02Z</time>
      </trkpt>
      <trkpt lat="45.01836" lon="6.04294">
        <ele>1494.8</ele>
        <time>2020-09-05T10:47:03Z</time>
      </trkpt>
      <trkpt lat="45.01838" lon="6.04298">
        <ele>1495</ele>
        <time>2020-09-05T10:47:04Z</time>
      </trkpt>
      <trkpt lat="45.0184" lon="6.04301">
        <ele>1495.4</ele>
        <time>2020-09-05T10:47:05Z</time>
      </trkpt>
      <trkpt lat="45.01843" lon="6.04304">
        <ele>1495.8</ele>
        <time>2020-09-05T10:47:06Z</time>
      </trkpt>
      <trkpt lat="45.01845" lon="6.04307">
        <ele>1496.2</ele>
        <time>2020-09-05T10:47:07Z</time>
      </trkpt>
      <trkpt lat="45.01848" lon="6.0431">
        <ele>1496.6</ele>
        <time>2020-09-05T10:47:08Z</time>
      </trkpt>
      <trkpt lat="45.01851" lon="6.04312">
        <ele>1497</ele>
        <time>2020-09-05T10:47:09Z</time>
      </trkpt>
      <trkpt lat="45.01853" lon="6.04314">
        <ele>1497.2</ele>
        <time>2020-09-05T10:47:10Z</time>
      </trkpt>
      <trkpt lat="45.01856" lon="6.04317">
        <ele>1497.4</ele>
        <time>2020-09-05T10:47:11Z</time>
      </trkpt>
      <trkpt lat="45.01859" lon="6.04319">
        <ele>1497.8</ele>
        <time>2020-09-05T10:47:12Z</time>
      </trkpt>
      <trkpt lat="45.01862" lon="6.04322">
        <ele>1498.4</ele>
        <time>2020-09-05T10:47:13Z</time>
      </trkpt>
      <trkpt lat="45.01865" lon="6.04324">
        <ele>1498.6</ele>
        <time>2020-09-05T10:47:14Z</time>
      </trkpt>
      <trkpt lat="45.01868" lon="6.04327">
        <ele>1498.8</ele>
        <time>2020-09-05T10:47:15Z</time>
      </trkpt>
      <trkpt lat="45.01871" lon="6.0433">
        <ele>1499</ele>
        <time>2020-09-05T10:47:16Z</time>
      </trkpt>
      <trkpt lat="45.01874" lon="6.04332">
        <ele>1499.2</ele>
        <time>2020-09-05T10:47:17Z</time>
      </trkpt>
      <trkpt lat="45.01877" lon="6.04335">
        <ele>1499.4</ele>
        <time>2020-09-05T10:47:18Z</time>
      </trkpt>
      <trkpt lat="45.0188" lon="6.04337">
        <ele>1499.8</ele>
        <time>2020-09-05T10:47:19Z</time>
      </trkpt>
      <trkpt lat="45.01882" lon="6.0434">
        <ele>1500</ele>
        <time>2020-09-05T10:47:20Z</time>
      </trkpt>
      <trkpt lat="45.01884" lon="6.04343">
        <ele>1500.2</ele>
        <time>2020-09-05T10:47:21Z</time>
      </trkpt>
      <trkpt lat="45.01886" lon="6.04347">
        <ele>1500.8</ele>
        <time>2020-09-05T10:47:22Z</time>
      </trkpt>
      <trkpt lat="45.01888" lon="6.0435">
        <ele>1501</ele>
        <time>2020-09-05T10:47:23Z</time>
      </trkpt>
      <trkpt lat="45.01889" lon="6.04353">
        <ele>1501.4</ele>
        <time>2020-09-05T10:47:24Z</time>
      </trkpt>
      <trkpt lat="45.01891" lon="6.04356">
        <ele>1501.6</ele>
        <time>2020-09-05T10:47:25Z</time>
      </trkpt>
      <trkpt lat="45.01892" lon="6.0436">
        <ele>1501.8</ele>
        <time>2020-09-05T10:47:26Z</time>
      </trkpt>
      <trkpt lat="45.01894" lon="6.04364">
        <ele>1502.2</ele>
        <time>2020-09-05T10:47:27Z</time>
      </trkpt>
      <trkpt lat="45.01894" lon="6.04367">
        <ele>1502.6</ele>
        <time>2020-09-05T10:47:28Z</time>
      </trkpt>
      <trkpt lat="45.01895" lon="6.04371">
        <ele>1502.8</ele>
        <time>2020-09-05T10:47:29Z</time>
      </trkpt>
      <trkpt lat="45.01896" lon="6.04375">
        <ele>1503.2</ele>
        <time>2020-09-05T10:47:30Z</time>
      </trkpt>
      <trkpt lat="45.01896" lon="6.04378">
        <ele>1503.8</ele>
        <time>2020-09-05T10:47:31Z</time>
      </trkpt>
      <trkpt lat="45.01897" lon="6.04382">
        <ele>1504.2</ele>
        <time>2020-09-05T10:47:32Z</time>
      </trkpt>
      <trkpt lat="45.01898" lon="6.04386">
        <ele>1504.6</ele>
        <time>2020-09-05T10:47:33Z</time>
      </trkpt>
      <trkpt lat="45.01899" lon="6.04389">
        <ele>1505</ele>
        <time>2020-09-05T10:47:34Z</time>
      </trkpt>
      <trkpt lat="45.019" lon="6.04393">
        <ele>1505.4</ele>
        <time>2020-09-05T10:47:35Z</time>
      </trkpt>
      <trkpt lat="45.019" lon="6.04397">
        <ele>1505.6</ele>
        <time>2020-09-05T10:47:36Z</time>
      </trkpt>
      <trkpt lat="45.01901" lon="6.044">
        <ele>1505.8</ele>
        <time>2020-09-05T10:47:37Z</time>
      </trkpt>
      <trkpt lat="45.01902" lon="6.04403">
        <ele>1506.2</ele>
        <time>2020-09-05T10:47:38Z</time>
      </trkpt>
      <trkpt lat="45.01904" lon="6.04406">
        <ele>1506.4</ele>
        <time>2020-09-05T10:47:39Z</time>
      </trkpt>
      <trkpt lat="45.01907" lon="6.04409">
        <ele>1506.6</ele>
        <time>2020-09-05T10:47:40Z</time>
      </trkpt>
      <trkpt lat="45.01909" lon="6.04412">
        <ele>1507</ele>
        <time>2020-09-05T10:47:41Z</time>
      </trkpt>
      <trkpt lat="45.01911" lon="6.04414">
        <ele>1507.2</ele>
        <time>2020-09-05T10:47:42Z</time>
      </trkpt>
      <trkpt lat="45.01914" lon="6.04416">
        <ele>1507.4</ele>
        <time>2020-09-05T10:47:43Z</time>
      </trkpt>
      <trkpt lat="45.01917" lon="6.04418">
        <ele>1507.8</ele>
        <time>2020-09-05T10:47:44Z</time>
      </trkpt>
      <trkpt lat="45.0192" lon="6.0442">
        <ele>1508</ele>
        <time>2020-09-05T10:47:45Z</time>
      </trkpt>
      <trkpt lat="45.01923" lon="6.04422">
        <ele>1508.4</ele>
        <time>2020-09-05T10:47:46Z</time>
      </trkpt>
      <trkpt lat="45.01926" lon="6.04423">
        <ele>1508.8</ele>
        <time>2020-09-05T10:47:47Z</time>
      </trkpt>
      <trkpt lat="45.01929" lon="6.04424">
        <ele>1509.2</ele>
        <time>2020-09-05T10:47:48Z</time>
      </trkpt>
      <trkpt lat="45.01932" lon="6.04425">
        <ele>1509.6</ele>
        <time>2020-09-05T10:47:49Z</time>
      </trkpt>
      <trkpt lat="45.01935" lon="6.04425">
        <ele>1509.8</ele>
        <time>2020-09-05T10:47:50Z</time>
      </trkpt>
      <trkpt lat="45.01938" lon="6.04426">
        <ele>1510</ele>
        <time>2020-09-05T10:47:51Z</time>
      </trkpt>
      <trkpt lat="45.01941" lon="6.04426">
        <ele>1510.2</ele>
        <time>2020-09-05T10:47:52Z</time>
      </trkpt>
      <trkpt lat="45.01944" lon="6.04425">
        <ele>1510.6</ele>
        <time>2020-09-05T10:47:53Z</time>
      </trkpt>
      <trkpt lat="45.01947" lon="6.04424">
        <ele>1510.8</ele>
        <time>2020-09-05T10:47:54Z</time>
      </trkpt>
      <trkpt lat="45.0195" lon="6.04423">
        <ele>1511</ele>
        <time>2020-09-05T10:47:55Z</time>
      </trkpt>
      <trkpt lat="45.01953" lon="6.04421">
        <ele>1511.4</ele>
        <time>2020-09-05T10:47:56Z</time>
      </trkpt>
      <trkpt lat="45.01955" lon="6.04419">
        <ele>1511.8</ele>
        <time>2020-09-05T10:47:57Z</time>
      </trkpt>
      <trkpt lat="45.01958" lon="6.04417">
        <ele>1512</ele>
        <time>2020-09-05T10:47:58Z</time>
      </trkpt>
      <trkpt lat="45.0196" lon="6.04415">
        <ele>1512.4</ele>
        <time>2020-09-05T10:47:59Z</time>
      </trkpt>
      <trkpt lat="45.01963" lon="6.04412">
        <ele>1512.8</ele>
        <time>2020-09-05T10:48:00Z</time>
      </trkpt>
      <trkpt lat="45.01965" lon="6.0441">
        <ele>1513.4</ele>
        <time>2020-09-05T10:48:01Z</time>
      </trkpt>
      <trkpt lat="45.01968" lon="6.04407">
        <ele>1513.6</ele>
        <time>2020-09-05T10:48:02Z</time>
      </trkpt>
      <trkpt lat="45.01971" lon="6.04405">
        <ele>1513.8</ele>
        <time>2020-09-05T10:48:03Z</time>
      </trkpt>
      <trkpt lat="45.01973" lon="6.04402">
        <ele>1514.4</ele>
        <time>2020-09-05T10:48:04Z</time>
      </trkpt>
      <trkpt lat="45.01975" lon="6.04399">
        <ele>1514.6</ele>
        <time>2020-09-05T10:48:05Z</time>
      </trkpt>
      <trkpt lat="45.01978" lon="6.04396">
        <ele>1514.8</ele>
        <time>2020-09-05T10:48:06Z</time>
      </trkpt>
      <trkpt lat="45.0198" lon="6.04392">
        <ele>1515</ele>
        <time>2020-09-05T10:48:07Z</time>
      </trkpt>
      <trkpt lat="45.01982" lon="6.04389">
        <ele>1515.4</ele>
        <time>2020-09-05T10:48:08Z</time>
      </trkpt>
      <trkpt lat="45.01984" lon="6.04385">
        <ele>1515.6</ele>
        <time>2020-09-05T10:48:09Z</time>
      </trkpt>
      <trkpt lat="45.01987" lon="6.04382">
        <ele>1516</ele>
        <time>2020-09-05T10:48:10Z</time>
      </trkpt>
      <trkpt lat="45.0199" lon="6.04379">
        <ele>1516</ele>
        <time>2020-09-05T10:48:11Z</time>
      </trkpt>
      <trkpt lat="45.01992" lon="6.04375">
        <ele>1516</ele>
        <time>2020-09-05T10:48:12Z</time>
      </trkpt>
      <trkpt lat="45.01994" lon="6.0437">
        <ele>1516.4</ele>
        <time>2020-09-05T10:48:13Z</time>
      </trkpt>
      <trkpt lat="45.01994" lon="6.04365">
        <ele>1516.6</ele>
        <time>2020-09-05T10:48:14Z</time>
      </trkpt>
      <trkpt lat="45.01992" lon="6.04361">
        <ele>1517</ele>
        <time>2020-09-05T10:48:15Z</time>
      </trkpt>
      <trkpt lat="45.01989" lon="6.04358">
        <ele>1517.2</ele>
        <time>2020-09-05T10:48:16Z</time>
      </trkpt>
      <trkpt lat="45.01985" lon="6.04359">
        <ele>1517.4</ele>
        <time>2020-09-05T10:48:17Z</time>
      </trkpt>
      <trkpt lat="45.01982" lon="6.04361">
        <ele>1517.6</ele>
        <time>2020-09-05T10:48:18Z</time>
      </trkpt>
      <trkpt lat="45.01979" lon="6.04364">
        <ele>1517.8</ele>
        <time>2020-09-05T10:48:19Z</time>
      </trkpt>
      <trkpt lat="45.01976" lon="6.04368">
        <ele>1517.8</ele>
        <time>2020-09-05T10:48:20Z</time>
      </trkpt>
      <trkpt lat="45.01972" lon="6.0437">
        <ele>1518.2</ele>
        <time>2020-09-05T10:48:21Z</time>
      </trkpt>
      <trkpt lat="45.01969" lon="6.04372">
        <ele>1518.8</ele>
        <time>2020-09-05T10:48:22Z</time>
      </trkpt>
      <trkpt lat="45.01966" lon="6.04373">
        <ele>1519.4</ele>
        <time>2020-09-05T10:48:23Z</time>
      </trkpt>
      <trkpt lat="45.01962" lon="6.04372">
        <ele>1519.6</ele>
        <time>2020-09-05T10:48:24Z</time>
      </trkpt>
      <trkpt lat="45.01959" lon="6.04372">
        <ele>1520</ele>
        <time>2020-09-05T10:48:25Z</time>
      </trkpt>
      <trkpt lat="45.01956" lon="6.0437">
        <ele>1520.2</ele>
        <time>2020-09-05T10:48:26Z</time>
      </trkpt>
      <trkpt lat="45.01953" lon="6.04368">
        <ele>1520.4</ele>
        <time>2020-09-05T10:48:27Z</time>
      </trkpt>
      <trkpt lat="45.0195" lon="6.04366">
        <ele>1520.6</ele>
        <time>2020-09-05T10:48:28Z</time>
      </trkpt>
      <trkpt lat="45.01948" lon="6.04364">
        <ele>1520.8</ele>
        <time>2020-09-05T10:48:29Z</time>
      </trkpt>
      <trkpt lat="45.01946" lon="6.04362">
        <ele>1521</ele>
        <time>2020-09-05T10:48:30Z</time>
      </trkpt>
      <trkpt lat="45.01944" lon="6.04361">
        <ele>1521</ele>
        <time>2020-09-05T10:48:31Z</time>
      </trkpt>
      <trkpt lat="45.01942" lon="6.04362">
        <ele>1521.2</ele>
        <time>2020-09-05T10:48:32Z</time>
      </trkpt>
      <trkpt lat="45.01941" lon="6.04365">
        <ele>1521.2</ele>
        <time>2020-09-05T10:48:33Z</time>
      </trkpt>
      <trkpt lat="45.01942" lon="6.04367">
        <ele>1521</ele>
        <time>2020-09-05T10:48:34Z</time>
      </trkpt>
      <trkpt lat="45.01943" lon="6.04369">
        <ele>1521.2</ele>
        <time>2020-09-05T10:48:35Z</time>
      </trkpt>
      <trkpt lat="45.01945" lon="6.04371">
        <ele>1521.2</ele>
        <time>2020-09-05T10:48:36Z</time>
      </trkpt>
      <trkpt lat="45.01947" lon="6.04373">
        <ele>1521</ele>
        <time>2020-09-05T10:48:37Z</time>
      </trkpt>
      <trkpt lat="45.01948" lon="6.04374">
        <ele>1521.2</ele>
        <time>2020-09-05T10:48:39Z</time>
      </trkpt>
      <trkpt lat="45.01948" lon="6.04377">
        <ele>1521</ele>
        <time>2020-09-05T10:49:14Z</time>
      </trkpt>
      <trkpt lat="45.01949" lon="6.04379">
        <ele>1521</ele>
        <time>2020-09-05T10:49:17Z</time>
      </trkpt>
      <trkpt lat="45.01949" lon="6.04377">
        <ele>1521.2</ele>
        <time>2020-09-05T10:49:21Z</time>
      </trkpt>
      <trkpt lat="45.01951" lon="6.04376">
        <ele>1521.2</ele>
        <time>2020-09-05T10:49:31Z</time>
      </trkpt>
      <trkpt lat="45.01953" lon="6.04375">
        <ele>1520.8</ele>
        <time>2020-09-05T10:49:33Z</time>
      </trkpt>
      <trkpt lat="45.01955" lon="6.04375">
        <ele>1520.6</ele>
        <time>2020-09-05T10:49:34Z</time>
      </trkpt>
      <trkpt lat="45.01958" lon="6.04375">
        <ele>1520.8</ele>
        <time>2020-09-05T10:49:35Z</time>
      </trkpt>
      <trkpt lat="45.01961" lon="6.04375">
        <ele>1520.8</ele>
        <time>2020-09-05T10:49:36Z</time>
      </trkpt>
      <trkpt lat="45.01964" lon="6.04375">
        <ele>1520.6</ele>
        <time>2020-09-05T10:49:37Z</time>
      </trkpt>
      <trkpt lat="45.01968" lon="6.04373">
        <ele>1520.4</ele>
        <time>2020-09-05T10:49:38Z</time>
      </trkpt>
      <trkpt lat="45.01971" lon="6.04371">
        <ele>1520</ele>
        <time>2020-09-05T10:49:39Z</time>
      </trkpt>
      <trkpt lat="45.01974" lon="6.04368">
        <ele>1519.6</ele>
        <time>2020-09-05T10:49:40Z</time>
      </trkpt>
      <trkpt lat="45.01976" lon="6.04364">
        <ele>1519.4</ele>
        <time>2020-09-05T10:49:41Z</time>
      </trkpt>
      <trkpt lat="45.01979" lon="6.04361">
        <ele>1519.2</ele>
        <time>2020-09-05T10:49:42Z</time>
      </trkpt>
      <trkpt lat="45.01982" lon="6.04359">
        <ele>1519</ele>
        <time>2020-09-05T10:49:43Z</time>
      </trkpt>
      <trkpt lat="45.01986" lon="6.04359">
        <ele>1518.8</ele>
        <time>2020-09-05T10:49:44Z</time>
      </trkpt>
      <trkpt lat="45.01989" lon="6.04364">
        <ele>1518.6</ele>
        <time>2020-09-05T10:49:45Z</time>
      </trkpt>
      <trkpt lat="45.01989" lon="6.0437">
        <ele>1518.4</ele>
        <time>2020-09-05T10:49:46Z</time>
      </trkpt>
      <trkpt lat="45.01987" lon="6.04376">
        <ele>1518.2</ele>
        <time>2020-09-05T10:49:47Z</time>
      </trkpt>
      <trkpt lat="45.01984" lon="6.04381">
        <ele>1518.2</ele>
        <time>2020-09-05T10:49:48Z</time>
      </trkpt>
      <trkpt lat="45.0198" lon="6.04387">
        <ele>1518.2</ele>
        <time>2020-09-05T10:49:49Z</time>
      </trkpt>
      <trkpt lat="45.01976" lon="6.04393">
        <ele>1518</ele>
        <time>2020-09-05T10:49:50Z</time>
      </trkpt>
      <trkpt lat="45.01971" lon="6.04399">
        <ele>1518</ele>
        <time>2020-09-05T10:49:51Z</time>
      </trkpt>
      <trkpt lat="45.01966" lon="6.04405">
        <ele>1517.8</ele>
        <time>2020-09-05T10:49:52Z</time>
      </trkpt>
      <trkpt lat="45.01961" lon="6.04411">
        <ele>1517.4</ele>
        <time>2020-09-05T10:49:53Z</time>
      </trkpt>
      <trkpt lat="45.01955" lon="6.04417">
        <ele>1517</ele>
        <time>2020-09-05T10:49:54Z</time>
      </trkpt>
      <trkpt lat="45.01949" lon="6.04423">
        <ele>1516.4</ele>
        <time>2020-09-05T10:49:55Z</time>
      </trkpt>
      <trkpt lat="45.01943" lon="6.04427">
        <ele>1516</ele>
        <time>2020-09-05T10:49:56Z</time>
      </trkpt>
      <trkpt lat="45.01936" lon="6.04429">
        <ele>1515.2</ele>
        <time>2020-09-05T10:49:57Z</time>
      </trkpt>
      <trkpt lat="45.01929" lon="6.04429">
        <ele>1514.4</ele>
        <time>2020-09-05T10:49:58Z</time>
      </trkpt>
      <trkpt lat="45.01922" lon="6.04426">
        <ele>1513.4</ele>
        <time>2020-09-05T10:49:59Z</time>
      </trkpt>
      <trkpt lat="45.01914" lon="6.04423">
        <ele>1512.6</ele>
        <time>2020-09-05T10:50:00Z</time>
      </trkpt>
      <trkpt lat="45.01908" lon="6.04418">
        <ele>1511.8</ele>
        <time>2020-09-05T10:50:01Z</time>
      </trkpt>
      <trkpt lat="45.01902" lon="6.04413">
        <ele>1510.8</ele>
        <time>2020-09-05T10:50:02Z</time>
      </trkpt>
      <trkpt lat="45.01898" lon="6.04406">
        <ele>1510.2</ele>
        <time>2020-09-05T10:50:03Z</time>
      </trkpt>
      <trkpt lat="45.01895" lon="6.04397">
        <ele>1509.8</ele>
        <time>2020-09-05T10:50:04Z</time>
      </trkpt>
      <trkpt lat="45.01893" lon="6.04387">
        <ele>1509.2</ele>
        <time>2020-09-05T10:50:05Z</time>
      </trkpt>
      <trkpt lat="45.0189" lon="6.04375">
        <ele>1508.8</ele>
        <time>2020-09-05T10:50:06Z</time>
      </trkpt>
      <trkpt lat="45.01885" lon="6.04363">
        <ele>1508.2</ele>
        <time>2020-09-05T10:50:07Z</time>
      </trkpt>
      <trkpt lat="45.0188" lon="6.04352">
        <ele>1507.2</ele>
        <time>2020-09-05T10:50:08Z</time>
      </trkpt>
      <trkpt lat="45.01874" lon="6.04342">
        <ele>1506.2</ele>
        <time>2020-09-05T10:50:09Z</time>
      </trkpt>
      <trkpt lat="45.01866" lon="6.04334">
        <ele>1504.8</ele>
        <time>2020-09-05T10:50:10Z</time>
      </trkpt>
      <trkpt lat="45.01858" lon="6.04326">
        <ele>1503.8</ele>
        <time>2020-09-05T10:50:11Z</time>
      </trkpt>
      <trkpt lat="45.0185" lon="6.04318">
        <ele>1503</ele>
        <time>2020-09-05T10:50:12Z</time>
      </trkpt>
      <trkpt lat="45.01843" lon="6.0431">
        <ele>1502.6</ele>
        <time>2020-09-05T10:50:13Z</time>
      </trkpt>
      <trkpt lat="45.01836" lon="6.04301">
        <ele>1502</ele>
        <time>2020-09-05T10:50:14Z</time>
      </trkpt>
      <trkpt lat="45.0183" lon="6.04292">
        <ele>1501.4</ele>
        <time>2020-09-05T10:50:15Z</time>
      </trkpt>
      <trkpt lat="45.01825" lon="6.04281">
        <ele>1500.8</ele>
        <time>2020-09-05T10:50:16Z</time>
      </trkpt>
      <trkpt lat="45.01821" lon="6.04269">
        <ele>1499.8</ele>
        <time>2020-09-05T10:50:17Z</time>
      </trkpt>
      <trkpt lat="45.01817" lon="6.04256">
        <ele>1498.8</ele>
        <time>2020-09-05T10:50:18Z</time>
      </trkpt>
      <trkpt lat="45.01813" lon="6.04242">
        <ele>1498.2</ele>
        <time>2020-09-05T10:50:19Z</time>
      </trkpt>
      <trkpt lat="45.0181" lon="6.04228">
        <ele>1496.8</ele>
        <time>2020-09-05T10:50:20Z</time>
      </trkpt>
      <trkpt lat="45.01807" lon="6.04212">
        <ele>1496</ele>
        <time>2020-09-05T10:50:21Z</time>
      </trkpt>
      <trkpt lat="45.01804" lon="6.04196">
        <ele>1495</ele>
        <time>2020-09-05T10:50:22Z</time>
      </trkpt>
      <trkpt lat="45.01802" lon="6.0418">
        <ele>1493.6</ele>
        <time>2020-09-05T10:50:23Z</time>
      </trkpt>
      <trkpt lat="45.01799" lon="6.04164">
        <ele>1492.4</ele>
        <time>2020-09-05T10:50:24Z</time>
      </trkpt>
      <trkpt lat="45.01797" lon="6.04149">
        <ele>1491.2</ele>
        <time>2020-09-05T10:50:25Z</time>
      </trkpt>
      <trkpt lat="45.01794" lon="6.04135">
        <ele>1489.4</ele>
        <time>2020-09-05T10:50:26Z</time>
      </trkpt>
      <trkpt lat="45.01792" lon="6.04123">
        <ele>1488</ele>
        <time>2020-09-05T10:50:27Z</time>
      </trkpt>
      <trkpt lat="45.01791" lon="6.04111">
        <ele>1486.6</ele>
        <time>2020-09-05T10:50:28Z</time>
      </trkpt>
      <trkpt lat="45.01791" lon="6.041">
        <ele>1485.6</ele>
        <time>2020-09-05T10:50:29Z</time>
      </trkpt>
      <trkpt lat="45.01793" lon="6.04089">
        <ele>1484.4</ele>
        <time>2020-09-05T10:50:30Z</time>
      </trkpt>
      <trkpt lat="45.01794" lon="6.04079">
        <ele>1483.2</ele>
        <time>2020-09-05T10:50:31Z</time>
      </trkpt>
      <trkpt lat="45.01791" lon="6.04073">
        <ele>1482.2</ele>
        <time>2020-09-05T10:50:32Z</time>
      </trkpt>
      <trkpt lat="45.01787" lon="6.04072">
        <ele>1481.6</ele>
        <time>2020-09-05T10:50:33Z</time>
      </trkpt>
      <trkpt lat="45.01783" lon="6.04077">
        <ele>1480.8</ele>
        <time>2020-09-05T10:50:34Z</time>
      </trkpt>
      <trkpt lat="45.01782" lon="6.04085">
        <ele>1480.4</ele>
        <time>2020-09-05T10:50:35Z</time>
      </trkpt>
      <trkpt lat="45.01781" lon="6.04093">
        <ele>1480.2</ele>
        <time>2020-09-05T10:50:36Z</time>
      </trkpt>
      <trkpt lat="45.01781" lon="6.04101">
        <ele>1480</ele>
        <time>2020-09-05T10:50:37Z</time>
      </trkpt>
      <trkpt lat="45.01782" lon="6.0411">
        <ele>1479.6</ele>
        <time>2020-09-05T10:50:38Z</time>
      </trkpt>
      <trkpt lat="45.01783" lon="6.0412">
        <ele>1479.2</ele>
        <time>2020-09-05T10:50:39Z</time>
      </trkpt>
      <trkpt lat="45.01783" lon="6.04131">
        <ele>1478.8</ele>
        <time>2020-09-05T10:50:40Z</time>
      </trkpt>
      <trkpt lat="45.01783" lon="6.04142">
        <ele>1478.6</ele>
        <time>2020-09-05T10:50:41Z</time>
      </trkpt>
      <trkpt lat="45.01782" lon="6.04154">
        <ele>1478</ele>
        <time>2020-09-05T10:50:42Z</time>
      </trkpt>
      <trkpt lat="45.01781" lon="6.04166">
        <ele>1477.8</ele>
        <time>2020-09-05T10:50:43Z</time>
      </trkpt>
      <trkpt lat="45.01779" lon="6.04179">
        <ele>1477.2</ele>
        <time>2020-09-05T10:50:44Z</time>
      </trkpt>
      <trkpt lat="45.01777" lon="6.04192">
        <ele>1476.4</ele>
        <time>2020-09-05T10:50:45Z</time>
      </trkpt>
      <trkpt lat="45.01775" lon="6.04204">
        <ele>1475.6</ele>
        <time>2020-09-05T10:50:46Z</time>
      </trkpt>
      <trkpt lat="45.01773" lon="6.04216">
        <ele>1474.4</ele>
        <time>2020-09-05T10:50:47Z</time>
      </trkpt>
      <trkpt lat="45.01773" lon="6.04229">
        <ele>1474</ele>
        <time>2020-09-05T10:50:48Z</time>
      </trkpt>
      <trkpt lat="45.01774" lon="6.04242">
        <ele>1473.2</ele>
        <time>2020-09-05T10:50:49Z</time>
      </trkpt>
      <trkpt lat="45.01775" lon="6.04255">
        <ele>1472.2</ele>
        <time>2020-09-05T10:50:50Z</time>
      </trkpt>
      <trkpt lat="45.01776" lon="6.04269">
        <ele>1471</ele>
        <time>2020-09-05T10:50:51Z</time>
      </trkpt>
      <trkpt lat="45.01777" lon="6.04283">
        <ele>1470.2</ele>
        <time>2020-09-05T10:50:52Z</time>
      </trkpt>
      <trkpt lat="45.01779" lon="6.04295">
        <ele>1469.4</ele>
        <time>2020-09-05T10:50:53Z</time>
      </trkpt>
      <trkpt lat="45.01781" lon="6.04308">
        <ele>1468.6</ele>
        <time>2020-09-05T10:50:54Z</time>
      </trkpt>
      <trkpt lat="45.01784" lon="6.04321">
        <ele>1467.6</ele>
        <time>2020-09-05T10:50:55Z</time>
      </trkpt>
      <trkpt lat="45.01788" lon="6.04334">
        <ele>1466.6</ele>
        <time>2020-09-05T10:50:56Z</time>
      </trkpt>
      <trkpt lat="45.01793" lon="6.04348">
        <ele>1465.8</ele>
        <time>2020-09-05T10:50:57Z</time>
      </trkpt>
      <trkpt lat="45.01797" lon="6.04363">
        <ele>1464.8</ele>
        <time>2020-09-05T10:50:58Z</time>
      </trkpt>
      <trkpt lat="45.01802" lon="6.04378">
        <ele>1464</ele>
        <time>2020-09-05T10:50:59Z</time>
      </trkpt>
      <trkpt lat="45.01806" lon="6.04393">
        <ele>1462.6</ele>
        <time>2020-09-05T10:51:00Z</time>
      </trkpt>
      <trkpt lat="45.0181" lon="6.04407">
        <ele>1461.2</ele>
        <time>2020-09-05T10:51:01Z</time>
      </trkpt>
      <trkpt lat="45.01813" lon="6.0442">
        <ele>1459.8</ele>
        <time>2020-09-05T10:51:02Z</time>
      </trkpt>
      <trkpt lat="45.01814" lon="6.04434">
        <ele>1458.8</ele>
        <time>2020-09-05T10:51:03Z</time>
      </trkpt>
      <trkpt lat="45.01815" lon="6.04448">
        <ele>1457.8</ele>
        <time>2020-09-05T10:51:04Z</time>
      </trkpt>
      <trkpt lat="45.01816" lon="6.04463">
        <ele>1456.8</ele>
        <time>2020-09-05T10:51:05Z</time>
      </trkpt>
      <trkpt lat="45.01816" lon="6.04478">
        <ele>1455.4</ele>
        <time>2020-09-05T10:51:06Z</time>
      </trkpt>
      <trkpt lat="45.01817" lon="6.04492">
        <ele>1454.2</ele>
        <time>2020-09-05T10:51:07Z</time>
      </trkpt>
      <trkpt lat="45.01817" lon="6.04505">
        <ele>1452.6</ele>
        <time>2020-09-05T10:51:08Z</time>
      </trkpt>
      <trkpt lat="45.01816" lon="6.04518">
        <ele>1451.6</ele>
        <time>2020-09-05T10:51:09Z</time>
      </trkpt>
      <trkpt lat="45.01814" lon="6.04531">
        <ele>1450.8</ele>
        <time>2020-09-05T10:51:10Z</time>
      </trkpt>
      <trkpt lat="45.01812" lon="6.04544">
        <ele>1449.8</ele>
        <time>2020-09-05T10:51:11Z</time>
      </trkpt>
      <trkpt lat="45.01807" lon="6.04566">
        <ele>1448.2</ele>
        <time>2020-09-05T10:51:13Z</time>
      </trkpt>
      <trkpt lat="45.01802" lon="6.04576">
        <ele>1447.4</ele>
        <time>2020-09-05T10:51:14Z</time>
      </trkpt>
      <trkpt lat="45.01797" lon="6.04587">
        <ele>1446.4</ele>
        <time>2020-09-05T10:51:15Z</time>
      </trkpt>
      <trkpt lat="45.0179" lon="6.04599">
        <ele>1445.4</ele>
        <time>2020-09-05T10:51:16Z</time>
      </trkpt>
      <trkpt lat="45.01784" lon="6.0461">
        <ele>1444.8</ele>
        <time>2020-09-05T10:51:17Z</time>
      </trkpt>
      <trkpt lat="45.01778" lon="6.04622">
        <ele>1443.6</ele>
        <time>2020-09-05T10:51:18Z</time>
      </trkpt>
      <trkpt lat="45.01772" lon="6.04634">
        <ele>1442.4</ele>
        <time>2020-09-05T10:51:19Z</time>
      </trkpt>
      <trkpt lat="45.01766" lon="6.04644">
        <ele>1441.8</ele>
        <time>2020-09-05T10:51:20Z</time>
      </trkpt>
      <trkpt lat="45.01762" lon="6.04653">
        <ele>1440.8</ele>
        <time>2020-09-05T10:51:21Z</time>
      </trkpt>
      <trkpt lat="45.01759" lon="6.04663">
        <ele>1439.8</ele>
        <time>2020-09-05T10:51:22Z</time>
      </trkpt>
      <trkpt lat="45.01759" lon="6.04672">
        <ele>1439.2</ele>
        <time>2020-09-05T10:51:23Z</time>
      </trkpt>
      <trkpt lat="45.01763" lon="6.0468">
        <ele>1438.6</ele>
        <time>2020-09-05T10:51:24Z</time>
      </trkpt>
      <trkpt lat="45.01769" lon="6.04688">
        <ele>1438</ele>
        <time>2020-09-05T10:51:25Z</time>
      </trkpt>
      <trkpt lat="45.01776" lon="6.04695">
        <ele>1437.4</ele>
        <time>2020-09-05T10:51:26Z</time>
      </trkpt>
      <trkpt lat="45.01784" lon="6.047">
        <ele>1437</ele>
        <time>2020-09-05T10:51:27Z</time>
      </trkpt>
      <trkpt lat="45.01793" lon="6.04703">
        <ele>1436.8</ele>
        <time>2020-09-05T10:51:28Z</time>
      </trkpt>
      <trkpt lat="45.01803" lon="6.04705">
        <ele>1436.2</ele>
        <time>2020-09-05T10:51:29Z</time>
      </trkpt>
      <trkpt lat="45.01814" lon="6.04708">
        <ele>1435.2</ele>
        <time>2020-09-05T10:51:30Z</time>
      </trkpt>
      <trkpt lat="45.01825" lon="6.04711">
        <ele>1434.4</ele>
        <time>2020-09-05T10:51:31Z</time>
      </trkpt>
      <trkpt lat="45.01836" lon="6.04714">
        <ele>1433.2</ele>
        <time>2020-09-05T10:51:32Z</time>
      </trkpt>
      <trkpt lat="45.01847" lon="6.04716">
        <ele>1432</ele>
        <time>2020-09-05T10:51:33Z</time>
      </trkpt>
      <trkpt lat="45.01858" lon="6.04717">
        <ele>1430.8</ele>
        <time>2020-09-05T10:51:34Z</time>
      </trkpt>
      <trkpt lat="45.01867" lon="6.04717">
        <ele>1429.6</ele>
        <time>2020-09-05T10:51:35Z</time>
      </trkpt>
      <trkpt lat="45.01875" lon="6.04717">
        <ele>1428.4</ele>
        <time>2020-09-05T10:51:36Z</time>
      </trkpt>
      <trkpt lat="45.01882" lon="6.04717">
        <ele>1427</ele>
        <time>2020-09-05T10:51:37Z</time>
      </trkpt>
      <trkpt lat="45.01886" lon="6.04721">
        <ele>1426</ele>
        <time>2020-09-05T10:51:38Z</time>
      </trkpt>
      <trkpt lat="45.01885" lon="6.04726">
        <ele>1425</ele>
        <time>2020-09-05T10:51:39Z</time>
      </trkpt>
      <trkpt lat="45.01882" lon="6.0473">
        <ele>1424.4</ele>
        <time>2020-09-05T10:51:40Z</time>
      </trkpt>
      <trkpt lat="45.01877" lon="6.04731">
        <ele>1423.8</ele>
        <time>2020-09-05T10:51:41Z</time>
      </trkpt>
      <trkpt lat="45.01872" lon="6.04729">
        <ele>1423.6</ele>
        <time>2020-09-05T10:51:42Z</time>
      </trkpt>
      <trkpt lat="45.01867" lon="6.04727">
        <ele>1423.6</ele>
        <time>2020-09-05T10:51:43Z</time>
      </trkpt>
      <trkpt lat="45.01862" lon="6.04726">
        <ele>1423.4</ele>
        <time>2020-09-05T10:51:44Z</time>
      </trkpt>
      <trkpt lat="45.01856" lon="6.04726">
        <ele>1423.2</ele>
        <time>2020-09-05T10:51:45Z</time>
      </trkpt>
      <trkpt lat="45.0185" lon="6.04727">
        <ele>1423.2</ele>
        <time>2020-09-05T10:51:46Z</time>
      </trkpt>
      <trkpt lat="45.01844" lon="6.04728">
        <ele>1423.2</ele>
        <time>2020-09-05T10:51:47Z</time>
      </trkpt>
      <trkpt lat="45.01837" lon="6.04728">
        <ele>1423</ele>
        <time>2020-09-05T10:51:48Z</time>
      </trkpt>
      <trkpt lat="45.0183" lon="6.04728">
        <ele>1422.6</ele>
        <time>2020-09-05T10:51:49Z</time>
      </trkpt>
      <trkpt lat="45.01823" lon="6.04728">
        <ele>1422.4</ele>
        <time>2020-09-05T10:51:50Z</time>
      </trkpt>
      <trkpt lat="45.01815" lon="6.04729">
        <ele>1422</ele>
        <time>2020-09-05T10:51:51Z</time>
      </trkpt>
      <trkpt lat="45.01806" lon="6.0473">
        <ele>1421.6</ele>
        <time>2020-09-05T10:51:52Z</time>
      </trkpt>
      <trkpt lat="45.01797" lon="6.04732">
        <ele>1420.8</ele>
        <time>2020-09-05T10:51:53Z</time>
      </trkpt>
      <trkpt lat="45.01787" lon="6.04733">
        <ele>1420.4</ele>
        <time>2020-09-05T10:51:54Z</time>
      </trkpt>
      <trkpt lat="45.01777" lon="6.04734">
        <ele>1419.8</ele>
        <time>2020-09-05T10:51:55Z</time>
      </trkpt>
      <trkpt lat="45.01768" lon="6.04735">
        <ele>1419</ele>
        <time>2020-09-05T10:51:56Z</time>
      </trkpt>
      <trkpt lat="45.01758" lon="6.04735">
        <ele>1418.2</ele>
        <time>2020-09-05T10:51:57Z</time>
      </trkpt>
      <trkpt lat="45.01748" lon="6.04734">
        <ele>1417.2</ele>
        <time>2020-09-05T10:51:58Z</time>
      </trkpt>
      <trkpt lat="45.0174" lon="6.04732">
        <ele>1415.8</ele>
        <time>2020-09-05T10:51:59Z</time>
      </trkpt>
      <trkpt lat="45.01732" lon="6.04729">
        <ele>1414.8</ele>
        <time>2020-09-05T10:52:00Z</time>
      </trkpt>
      <trkpt lat="45.01724" lon="6.04725">
        <ele>1414</ele>
        <time>2020-09-05T10:52:01Z</time>
      </trkpt>
      <trkpt lat="45.01718" lon="6.04719">
        <ele>1412.8</ele>
        <time>2020-09-05T10:52:02Z</time>
      </trkpt>
      <trkpt lat="45.01714" lon="6.04711">
        <ele>1412</ele>
        <time>2020-09-05T10:52:03Z</time>
      </trkpt>
      <trkpt lat="45.0171" lon="6.04703">
        <ele>1411.2</ele>
        <time>2020-09-05T10:52:04Z</time>
      </trkpt>
      <trkpt lat="45.01706" lon="6.04695">
        <ele>1410.4</ele>
        <time>2020-09-05T10:52:05Z</time>
      </trkpt>
      <trkpt lat="45.01703" lon="6.04687">
        <ele>1409.6</ele>
        <time>2020-09-05T10:52:06Z</time>
      </trkpt>
      <trkpt lat="45.01699" lon="6.04683">
        <ele>1408.4</ele>
        <time>2020-09-05T10:52:07Z</time>
      </trkpt>
      <trkpt lat="45.01696" lon="6.04682">
        <ele>1407.8</ele>
        <time>2020-09-05T10:52:08Z</time>
      </trkpt>
      <trkpt lat="45.01695" lon="6.04684">
        <ele>1407.4</ele>
        <time>2020-09-05T10:52:09Z</time>
      </trkpt>
      <trkpt lat="45.01696" lon="6.04686">
        <ele>1406.8</ele>
        <time>2020-09-05T10:52:10Z</time>
      </trkpt>
      <trkpt lat="45.01699" lon="6.04688">
        <ele>1406.6</ele>
        <time>2020-09-05T10:52:11Z</time>
      </trkpt>
      <trkpt lat="45.01701" lon="6.0469">
        <ele>1406.6</ele>
        <time>2020-09-05T10:52:12Z</time>
      </trkpt>
      <trkpt lat="45.01702" lon="6.04692">
        <ele>1406.4</ele>
        <time>2020-09-05T10:52:13Z</time>
      </trkpt>
      <trkpt lat="45.01704" lon="6.04694">
        <ele>1406.2</ele>
        <time>2020-09-05T10:52:14Z</time>
      </trkpt>
      <trkpt lat="45.01705" lon="6.04697">
        <ele>1406.4</ele>
        <time>2020-09-05T10:52:15Z</time>
      </trkpt>
      <trkpt lat="45.01707" lon="6.047">
        <ele>1406.4</ele>
        <time>2020-09-05T10:52:16Z</time>
      </trkpt>
      <trkpt lat="45.01708" lon="6.04703">
        <ele>1406.4</ele>
        <time>2020-09-05T10:52:17Z</time>
      </trkpt>
      <trkpt lat="45.0171" lon="6.04705">
        <ele>1406.6</ele>
        <time>2020-09-05T10:52:18Z</time>
      </trkpt>
      <trkpt lat="45.01712" lon="6.04708">
        <ele>1406.8</ele>
        <time>2020-09-05T10:52:19Z</time>
      </trkpt>
      <trkpt lat="45.01714" lon="6.04711">
        <ele>1406.8</ele>
        <time>2020-09-05T10:52:20Z</time>
      </trkpt>
      <trkpt lat="45.01718" lon="6.04715">
        <ele>1406.8</ele>
        <time>2020-09-05T10:52:21Z</time>
      </trkpt>
      <trkpt lat="45.01721" lon="6.04718">
        <ele>1407.2</ele>
        <time>2020-09-05T10:52:22Z</time>
      </trkpt>
      <trkpt lat="45.01723" lon="6.04721">
        <ele>1407.4</ele>
        <time>2020-09-05T10:52:23Z</time>
      </trkpt>
      <trkpt lat="45.01726" lon="6.04723">
        <ele>1407.4</ele>
        <time>2020-09-05T10:52:24Z</time>
      </trkpt>
      <trkpt lat="45.01729" lon="6.04725">
        <ele>1407.8</ele>
        <time>2020-09-05T10:52:25Z</time>
      </trkpt>
      <trkpt lat="45.01733" lon="6.04727">
        <ele>1408</ele>
        <time>2020-09-05T10:52:26Z</time>
      </trkpt>
      <trkpt lat="45.01736" lon="6.04729">
        <ele>1408.4</ele>
        <time>2020-09-05T10:52:27Z</time>
      </trkpt>
      <trkpt lat="45.01739" lon="6.0473">
        <ele>1408.8</ele>
        <time>2020-09-05T10:52:28Z</time>
      </trkpt>
      <trkpt lat="45.01743" lon="6.0473">
        <ele>1409.2</ele>
        <time>2020-09-05T10:52:29Z</time>
      </trkpt>
      <trkpt lat="45.01746" lon="6.04731">
        <ele>1409.4</ele>
        <time>2020-09-05T10:52:30Z</time>
      </trkpt>
      <trkpt lat="45.01749" lon="6.04731">
        <ele>1409.8</ele>
        <time>2020-09-05T10:52:31Z</time>
      </trkpt>
      <trkpt lat="45.01753" lon="6.04731">
        <ele>1410.4</ele>
        <time>2020-09-05T10:52:32Z</time>
      </trkpt>
      <trkpt lat="45.01756" lon="6.04732">
        <ele>1410.8</ele>
        <time>2020-09-05T10:52:33Z</time>
      </trkpt>
      <trkpt lat="45.0176" lon="6.04732">
        <ele>1411.4</ele>
        <time>2020-09-05T10:52:34Z</time>
      </trkpt>
      <trkpt lat="45.01763" lon="6.04732">
        <ele>1411.8</ele>
        <time>2020-09-05T10:52:35Z</time>
      </trkpt>
      <trkpt lat="45.01766" lon="6.04732">
        <ele>1412.2</ele>
        <time>2020-09-05T10:52:36Z</time>
      </trkpt>
      <trkpt lat="45.01769" lon="6.04732">
        <ele>1412.6</ele>
        <time>2020-09-05T10:52:37Z</time>
      </trkpt>
      <trkpt lat="45.01772" lon="6.04732">
        <ele>1413</ele>
        <time>2020-09-05T10:52:38Z</time>
      </trkpt>
      <trkpt lat="45.01775" lon="6.04732">
        <ele>1413.4</ele>
        <time>2020-09-05T10:52:39Z</time>
      </trkpt>
      <trkpt lat="45.01778" lon="6.04731">
        <ele>1413.6</ele>
        <time>2020-09-05T10:52:40Z</time>
      </trkpt>
      <trkpt lat="45.0178" lon="6.04731">
        <ele>1414.2</ele>
        <time>2020-09-05T10:52:41Z</time>
      </trkpt>
      <trkpt lat="45.01783" lon="6.04732">
        <ele>1414.4</ele>
        <time>2020-09-05T10:52:42Z</time>
      </trkpt>
      <trkpt lat="45.01786" lon="6.04731">
        <ele>1414.8</ele>
        <time>2020-09-05T10:52:43Z</time>
      </trkpt>
      <trkpt lat="45.01788" lon="6.04731">
        <ele>1415</ele>
        <time>2020-09-05T10:52:44Z</time>
      </trkpt>
      <trkpt lat="45.01791" lon="6.04731">
        <ele>1415.2</ele>
        <time>2020-09-05T10:52:45Z</time>
      </trkpt>
      <trkpt lat="45.01794" lon="6.04731">
        <ele>1415.4</ele>
        <time>2020-09-05T10:52:46Z</time>
      </trkpt>
      <trkpt lat="45.01796" lon="6.0473">
        <ele>1415.6</ele>
        <time>2020-09-05T10:52:47Z</time>
      </trkpt>
      <trkpt lat="45.01799" lon="6.0473">
        <ele>1416</ele>
        <time>2020-09-05T10:52:48Z</time>
      </trkpt>
      <trkpt lat="45.01801" lon="6.04729">
        <ele>1416.4</ele>
        <time>2020-09-05T10:52:49Z</time>
      </trkpt>
      <trkpt lat="45.01804" lon="6.04729">
        <ele>1416.6</ele>
        <time>2020-09-05T10:52:50Z</time>
      </trkpt>
      <trkpt lat="45.01806" lon="6.04728">
        <ele>1417</ele>
        <time>2020-09-05T10:52:51Z</time>
      </trkpt>
      <trkpt lat="45.01809" lon="6.04728">
        <ele>1416.8</ele>
        <time>2020-09-05T10:52:52Z</time>
      </trkpt>
      <trkpt lat="45.01811" lon="6.04728">
        <ele>1417.4</ele>
        <time>2020-09-05T10:52:53Z</time>
      </trkpt>
      <trkpt lat="45.01813" lon="6.04728">
        <ele>1417.4</ele>
        <time>2020-09-05T10:52:54Z</time>
      </trkpt>
      <trkpt lat="45.01815" lon="6.04728">
        <ele>1417.6</ele>
        <time>2020-09-05T10:52:55Z</time>
      </trkpt>
      <trkpt lat="45.01818" lon="6.04728">
        <ele>1418</ele>
        <time>2020-09-05T10:52:56Z</time>
      </trkpt>
      <trkpt lat="45.0182" lon="6.04727">
        <ele>1418.4</ele>
        <time>2020-09-05T10:52:57Z</time>
      </trkpt>
      <trkpt lat="45.01822" lon="6.04727">
        <ele>1418.8</ele>
        <time>2020-09-05T10:52:58Z</time>
      </trkpt>
      <trkpt lat="45.01824" lon="6.04727">
        <ele>1419</ele>
        <time>2020-09-05T10:52:59Z</time>
      </trkpt>
      <trkpt lat="45.01826" lon="6.04727">
        <ele>1419.2</ele>
        <time>2020-09-05T10:53:00Z</time>
      </trkpt>
      <trkpt lat="45.01828" lon="6.04727">
        <ele>1419</ele>
        <time>2020-09-05T10:53:01Z</time>
      </trkpt>
      <trkpt lat="45.01831" lon="6.04727">
        <ele>1419.4</ele>
        <time>2020-09-05T10:53:02Z</time>
      </trkpt>
      <trkpt lat="45.01833" lon="6.04727">
        <ele>1419.4</ele>
        <time>2020-09-05T10:53:03Z</time>
      </trkpt>
      <trkpt lat="45.01835" lon="6.04727">
        <ele>1419.8</ele>
        <time>2020-09-05T10:53:04Z</time>
      </trkpt>
      <trkpt lat="45.01838" lon="6.04727">
        <ele>1420</ele>
        <time>2020-09-05T10:53:05Z</time>
      </trkpt>
      <trkpt lat="45.0184" lon="6.04727">
        <ele>1419.8</ele>
        <time>2020-09-05T10:53:06Z</time>
      </trkpt>
      <trkpt lat="45.01842" lon="6.04726">
        <ele>1420.2</ele>
        <time>2020-09-05T10:53:07Z</time>
      </trkpt>
      <trkpt lat="45.01844" lon="6.04726">
        <ele>1420.2</ele>
        <time>2020-09-05T10:53:08Z</time>
      </trkpt>
      <trkpt lat="45.01846" lon="6.04725">
        <ele>1420.4</ele>
        <time>2020-09-05T10:53:09Z</time>
      </trkpt>
      <trkpt lat="45.01848" lon="6.04724">
        <ele>1420.2</ele>
        <time>2020-09-05T10:53:10Z</time>
      </trkpt>
      <trkpt lat="45.0185" lon="6.04723">
        <ele>1420.4</ele>
        <time>2020-09-05T10:53:11Z</time>
      </trkpt>
      <trkpt lat="45.01852" lon="6.04722">
        <ele>1420.8</ele>
        <time>2020-09-05T10:53:12Z</time>
      </trkpt>
      <trkpt lat="45.01855" lon="6.04722">
        <ele>1420.8</ele>
        <time>2020-09-05T10:53:13Z</time>
      </trkpt>
      <trkpt lat="45.01857" lon="6.04722">
        <ele>1421</ele>
        <time>2020-09-05T10:53:14Z</time>
      </trkpt>
      <trkpt lat="45.0186" lon="6.04722">
        <ele>1421.2</ele>
        <time>2020-09-05T10:53:15Z</time>
      </trkpt>
      <trkpt lat="45.01863" lon="6.04722">
        <ele>1421.2</ele>
        <time>2020-09-05T10:53:16Z</time>
      </trkpt>
      <trkpt lat="45.01866" lon="6.04722">
        <ele>1421.2</ele>
        <time>2020-09-05T10:53:17Z</time>
      </trkpt>
      <trkpt lat="45.01869" lon="6.04724">
        <ele>1421.6</ele>
        <time>2020-09-05T10:53:18Z</time>
      </trkpt>
      <trkpt lat="45.01872" lon="6.04725">
        <ele>1421.8</ele>
        <time>2020-09-05T10:53:19Z</time>
      </trkpt>
      <trkpt lat="45.01875" lon="6.04727">
        <ele>1421.8</ele>
        <time>2020-09-05T10:53:20Z</time>
      </trkpt>
      <trkpt lat="45.01878" lon="6.04728">
        <ele>1422</ele>
        <time>2020-09-05T10:53:21Z</time>
      </trkpt>
      <trkpt lat="45.01881" lon="6.04727">
        <ele>1422</ele>
        <time>2020-09-05T10:53:22Z</time>
      </trkpt>
      <trkpt lat="45.01883" lon="6.04723">
        <ele>1421.8</ele>
        <time>2020-09-05T10:53:23Z</time>
      </trkpt>
      <trkpt lat="45.01883" lon="6.04718">
        <ele>1421.8</ele>
        <time>2020-09-05T10:53:24Z</time>
      </trkpt>
      <trkpt lat="45.01881" lon="6.04714">
        <ele>1421.8</ele>
        <time>2020-09-05T10:53:25Z</time>
      </trkpt>
      <trkpt lat="45.01878" lon="6.04712">
        <ele>1422</ele>
        <time>2020-09-05T10:53:26Z</time>
      </trkpt>
      <trkpt lat="45.01875" lon="6.04711">
        <ele>1422.6</ele>
        <time>2020-09-05T10:53:27Z</time>
      </trkpt>
      <trkpt lat="45.01872" lon="6.04712">
        <ele>1422.6</ele>
        <time>2020-09-05T10:53:28Z</time>
      </trkpt>
      <trkpt lat="45.01869" lon="6.04712">
        <ele>1423</ele>
        <time>2020-09-05T10:53:29Z</time>
      </trkpt>
      <trkpt lat="45.01867" lon="6.04713">
        <ele>1423</ele>
        <time>2020-09-05T10:53:30Z</time>
      </trkpt>
      <trkpt lat="45.01864" lon="6.04713">
        <ele>1423</ele>
        <time>2020-09-05T10:53:31Z</time>
      </trkpt>
      <trkpt lat="45.01861" lon="6.04713">
        <ele>1423.2</ele>
        <time>2020-09-05T10:53:32Z</time>
      </trkpt>
      <trkpt lat="45.01859" lon="6.04713">
        <ele>1423.6</ele>
        <time>2020-09-05T10:53:33Z</time>
      </trkpt>
      <trkpt lat="45.01856" lon="6.04713">
        <ele>1423.6</ele>
        <time>2020-09-05T10:53:34Z</time>
      </trkpt>
      <trkpt lat="45.01854" lon="6.04713">
        <ele>1424</ele>
        <time>2020-09-05T10:53:35Z</time>
      </trkpt>
      <trkpt lat="45.01851" lon="6.04713">
        <ele>1424.2</ele>
        <time>2020-09-05T10:53:36Z</time>
      </trkpt>
      <trkpt lat="45.01849" lon="6.04712">
        <ele>1424.4</ele>
        <time>2020-09-05T10:53:37Z</time>
      </trkpt>
      <trkpt lat="45.01847" lon="6.04712">
        <ele>1424.6</ele>
        <time>2020-09-05T10:53:38Z</time>
      </trkpt>
      <trkpt lat="45.01845" lon="6.04712">
        <ele>1424.8</ele>
        <time>2020-09-05T10:53:39Z</time>
      </trkpt>
      <trkpt lat="45.01843" lon="6.04712">
        <ele>1425.2</ele>
        <time>2020-09-05T10:53:40Z</time>
      </trkpt>
      <trkpt lat="45.01841" lon="6.04712">
        <ele>1425.4</ele>
        <time>2020-09-05T10:53:41Z</time>
      </trkpt>
      <trkpt lat="45.01839" lon="6.04711">
        <ele>1425.6</ele>
        <time>2020-09-05T10:53:42Z</time>
      </trkpt>
      <trkpt lat="45.01837" lon="6.0471">
        <ele>1425.8</ele>
        <time>2020-09-05T10:53:43Z</time>
      </trkpt>
      <trkpt lat="45.01835" lon="6.0471">
        <ele>1425.6</ele>
        <time>2020-09-05T10:53:44Z</time>
      </trkpt>
      <trkpt lat="45.01833" lon="6.04709">
        <ele>1425.8</ele>
        <time>2020-09-05T10:53:45Z</time>
      </trkpt>
      <trkpt lat="45.01831" lon="6.04709">
        <ele>1426.2</ele>
        <time>2020-09-05T10:53:46Z</time>
      </trkpt>
      <trkpt lat="45.01829" lon="6.04708">
        <ele>1426.4</ele>
        <time>2020-09-05T10:53:47Z</time>
      </trkpt>
      <trkpt lat="45.01827" lon="6.04707">
        <ele>1426.6</ele>
        <time>2020-09-05T10:53:48Z</time>
      </trkpt>
      <trkpt lat="45.01824" lon="6.04706">
        <ele>1427.2</ele>
        <time>2020-09-05T10:53:49Z</time>
      </trkpt>
      <trkpt lat="45.01822" lon="6.04705">
        <ele>1427.4</ele>
        <time>2020-09-05T10:53:50Z</time>
      </trkpt>
      <trkpt lat="45.0182" lon="6.04704">
        <ele>1427.8</ele>
        <time>2020-09-05T10:53:51Z</time>
      </trkpt>
      <trkpt lat="45.01818" lon="6.04703">
        <ele>1428</ele>
        <time>2020-09-05T10:53:52Z</time>
      </trkpt>
      <trkpt lat="45.01815" lon="6.04702">
        <ele>1428.4</ele>
        <time>2020-09-05T10:53:53Z</time>
      </trkpt>
      <trkpt lat="45.01813" lon="6.04701">
        <ele>1428.8</ele>
        <time>2020-09-05T10:53:54Z</time>
      </trkpt>
      <trkpt lat="45.0181" lon="6.04701">
        <ele>1428.8</ele>
        <time>2020-09-05T10:53:55Z</time>
      </trkpt>
      <trkpt lat="45.01808" lon="6.047">
        <ele>1429</ele>
        <time>2020-09-05T10:53:56Z</time>
      </trkpt>
      <trkpt lat="45.01806" lon="6.04699">
        <ele>1429.2</ele>
        <time>2020-09-05T10:53:57Z</time>
      </trkpt>
      <trkpt lat="45.01804" lon="6.04698">
        <ele>1429.6</ele>
        <time>2020-09-05T10:53:58Z</time>
      </trkpt>
      <trkpt lat="45.01802" lon="6.04697">
        <ele>1429.8</ele>
        <time>2020-09-05T10:53:59Z</time>
      </trkpt>
      <trkpt lat="45.018" lon="6.04696">
        <ele>1430.2</ele>
        <time>2020-09-05T10:54:00Z</time>
      </trkpt>
      <trkpt lat="45.01798" lon="6.04696">
        <ele>1430.4</ele>
        <time>2020-09-05T10:54:01Z</time>
      </trkpt>
      <trkpt lat="45.01797" lon="6.04695">
        <ele>1430.4</ele>
        <time>2020-09-05T10:54:02Z</time>
      </trkpt>
      <trkpt lat="45.01795" lon="6.04695">
        <ele>1430.6</ele>
        <time>2020-09-05T10:54:03Z</time>
      </trkpt>
      <trkpt lat="45.01791" lon="6.04694">
        <ele>1430.8</ele>
        <time>2020-09-05T10:54:05Z</time>
      </trkpt>
      <trkpt lat="45.01788" lon="6.04693">
        <ele>1431.4</ele>
        <time>2020-09-05T10:54:07Z</time>
      </trkpt>
      <trkpt lat="45.01786" lon="6.04692">
        <ele>1431.4</ele>
        <time>2020-09-05T10:54:08Z</time>
      </trkpt>
      <trkpt lat="45.01784" lon="6.04691">
        <ele>1431.8</ele>
        <time>2020-09-05T10:54:09Z</time>
      </trkpt>
      <trkpt lat="45.01782" lon="6.04689">
        <ele>1432</ele>
        <time>2020-09-05T10:54:10Z</time>
      </trkpt>
      <trkpt lat="45.0178" lon="6.04688">
        <ele>1432</ele>
        <time>2020-09-05T10:54:11Z</time>
      </trkpt>
      <trkpt lat="45.01779" lon="6.04686">
        <ele>1432.6</ele>
        <time>2020-09-05T10:54:12Z</time>
      </trkpt>
      <trkpt lat="45.01777" lon="6.04685">
        <ele>1432.8</ele>
        <time>2020-09-05T10:54:13Z</time>
      </trkpt>
      <trkpt lat="45.01775" lon="6.04683">
        <ele>1432.6</ele>
        <time>2020-09-05T10:54:14Z</time>
      </trkpt>
      <trkpt lat="45.01773" lon="6.04681">
        <ele>1432.8</ele>
        <time>2020-09-05T10:54:15Z</time>
      </trkpt>
      <trkpt lat="45.01771" lon="6.04679">
        <ele>1433</ele>
        <time>2020-09-05T10:54:16Z</time>
      </trkpt>
      <trkpt lat="45.0177" lon="6.04677">
        <ele>1433.2</ele>
        <time>2020-09-05T10:54:17Z</time>
      </trkpt>
      <trkpt lat="45.01768" lon="6.04675">
        <ele>1433.4</ele>
        <time>2020-09-05T10:54:18Z</time>
      </trkpt>
      <trkpt lat="45.01767" lon="6.04673">
        <ele>1433.8</ele>
        <time>2020-09-05T10:54:19Z</time>
      </trkpt>
      <trkpt lat="45.01766" lon="6.0467">
        <ele>1434</ele>
        <time>2020-09-05T10:54:20Z</time>
      </trkpt>
      <trkpt lat="45.01765" lon="6.04668">
        <ele>1434.2</ele>
        <time>2020-09-05T10:54:21Z</time>
      </trkpt>
      <trkpt lat="45.01764" lon="6.04665">
        <ele>1434.4</ele>
        <time>2020-09-05T10:54:22Z</time>
      </trkpt>
      <trkpt lat="45.01763" lon="6.04662">
        <ele>1434.8</ele>
        <time>2020-09-05T10:54:23Z</time>
      </trkpt>
      <trkpt lat="45.01763" lon="6.04659">
        <ele>1434.8</ele>
        <time>2020-09-05T10:54:24Z</time>
      </trkpt>
      <trkpt lat="45.01763" lon="6.04656">
        <ele>1435</ele>
        <time>2020-09-05T10:54:25Z</time>
      </trkpt>
      <trkpt lat="45.01763" lon="6.04653">
        <ele>1435.2</ele>
        <time>2020-09-05T10:54:26Z</time>
      </trkpt>
      <trkpt lat="45.01764" lon="6.0465">
        <ele>1435.6</ele>
        <time>2020-09-05T10:54:27Z</time>
      </trkpt>
      <trkpt lat="45.01765" lon="6.04648">
        <ele>1435.6</ele>
        <time>2020-09-05T10:54:28Z</time>
      </trkpt>
      <trkpt lat="45.01766" lon="6.04645">
        <ele>1435.8</ele>
        <time>2020-09-05T10:54:29Z</time>
      </trkpt>
      <trkpt lat="45.01766" lon="6.04642">
        <ele>1436</ele>
        <time>2020-09-05T10:54:30Z</time>
      </trkpt>
      <trkpt lat="45.01767" lon="6.0464">
        <ele>1436</ele>
        <time>2020-09-05T10:54:31Z</time>
      </trkpt>
      <trkpt lat="45.0177" lon="6.04637">
        <ele>1436.2</ele>
        <time>2020-09-05T10:54:33Z</time>
      </trkpt>
      <trkpt lat="45.01773" lon="6.04633">
        <ele>1436.6</ele>
        <time>2020-09-05T10:54:35Z</time>
      </trkpt>
      <trkpt lat="45.01774" lon="6.04631">
        <ele>1436.8</ele>
        <time>2020-09-05T10:54:36Z</time>
      </trkpt>
      <trkpt lat="45.01774" lon="6.04628">
        <ele>1436.8</ele>
        <time>2020-09-05T10:54:37Z</time>
      </trkpt>
      <trkpt lat="45.01775" lon="6.04625">
        <ele>1437</ele>
        <time>2020-09-05T10:54:38Z</time>
      </trkpt>
      <trkpt lat="45.01777" lon="6.04622">
        <ele>1437.2</ele>
        <time>2020-09-05T10:54:39Z</time>
      </trkpt>
      <trkpt lat="45.01778" lon="6.0462">
        <ele>1449.7</ele>
        <time>2020-09-05T10:54:40Z</time>
      </trkpt>
      <trkpt lat="45.01779" lon="6.04617">
        <ele>1449.9</ele>
        <time>2020-09-05T10:54:41Z</time>
      </trkpt>
      <trkpt lat="45.01781" lon="6.04615">
        <ele>1450.6</ele>
        <time>2020-09-05T10:54:42Z</time>
      </trkpt>
      <trkpt lat="45.01782" lon="6.04612">
        <ele>1437.6</ele>
        <time>2020-09-05T10:54:43Z</time>
      </trkpt>
      <trkpt lat="45.01783" lon="6.0461">
        <ele>1437.6</ele>
        <time>2020-09-05T10:54:44Z</time>
      </trkpt>
      <trkpt lat="45.01784" lon="6.04607">
        <ele>1437.6</ele>
        <time>2020-09-05T10:54:45Z</time>
      </trkpt>
      <trkpt lat="45.01786" lon="6.04604">
        <ele>1437.8</ele>
        <time>2020-09-05T10:54:46Z</time>
      </trkpt>
      <trkpt lat="45.01787" lon="6.04601">
        <ele>1437.8</ele>
        <time>2020-09-05T10:54:47Z</time>
      </trkpt>
      <trkpt lat="45.01789" lon="6.04599">
        <ele>1438</ele>
        <time>2020-09-05T10:54:48Z</time>
      </trkpt>
      <trkpt lat="45.0179" lon="6.04596">
        <ele>1438.2</ele>
        <time>2020-09-05T10:54:49Z</time>
      </trkpt>
      <trkpt lat="45.01792" lon="6.04594">
        <ele>1438.6</ele>
        <time>2020-09-05T10:54:50Z</time>
      </trkpt>
      <trkpt lat="45.01793" lon="6.04591">
        <ele>1438.6</ele>
        <time>2020-09-05T10:54:51Z</time>
      </trkpt>
      <trkpt lat="45.01794" lon="6.04589">
        <ele>1438.4</ele>
        <time>2020-09-05T10:54:52Z</time>
      </trkpt>
      <trkpt lat="45.01796" lon="6.04586">
        <ele>1438.6</ele>
        <time>2020-09-05T10:54:53Z</time>
      </trkpt>
      <trkpt lat="45.01797" lon="6.04583">
        <ele>1438.8</ele>
        <time>2020-09-05T10:54:54Z</time>
      </trkpt>
      <trkpt lat="45.01799" lon="6.0458">
        <ele>1439</ele>
        <time>2020-09-05T10:54:55Z</time>
      </trkpt>
      <trkpt lat="45.018" lon="6.04578">
        <ele>1439.2</ele>
        <time>2020-09-05T10:54:56Z</time>
      </trkpt>
      <trkpt lat="45.01802" lon="6.04575">
        <ele>1439.6</ele>
        <time>2020-09-05T10:54:57Z</time>
      </trkpt>
      <trkpt lat="45.01803" lon="6.04573">
        <ele>1439.6</ele>
        <time>2020-09-05T10:54:58Z</time>
      </trkpt>
      <trkpt lat="45.01805" lon="6.04571">
        <ele>1439.6</ele>
        <time>2020-09-05T10:54:59Z</time>
      </trkpt>
      <trkpt lat="45.01806" lon="6.04568">
        <ele>1439.8</ele>
        <time>2020-09-05T10:55:00Z</time>
      </trkpt>
      <trkpt lat="45.01808" lon="6.04566">
        <ele>1440.2</ele>
        <time>2020-09-05T10:55:01Z</time>
      </trkpt>
      <trkpt lat="45.01809" lon="6.04564">
        <ele>1440.4</ele>
        <time>2020-09-05T10:55:02Z</time>
      </trkpt>
      <trkpt lat="45.0181" lon="6.04561">
        <ele>1440.8</ele>
        <time>2020-09-05T10:55:03Z</time>
      </trkpt>
      <trkpt lat="45.01811" lon="6.04558">
        <ele>1441</ele>
        <time>2020-09-05T10:55:04Z</time>
      </trkpt>
      <trkpt lat="45.01813" lon="6.04555">
        <ele>1441.4</ele>
        <time>2020-09-05T10:55:05Z</time>
      </trkpt>
      <trkpt lat="45.01814" lon="6.04552">
        <ele>1441.4</ele>
        <time>2020-09-05T10:55:06Z</time>
      </trkpt>
      <trkpt lat="45.01815" lon="6.04548">
        <ele>1441.6</ele>
        <time>2020-09-05T10:55:07Z</time>
      </trkpt>
      <trkpt lat="45.01816" lon="6.04545">
        <ele>1442.2</ele>
        <time>2020-09-05T10:55:08Z</time>
      </trkpt>
      <trkpt lat="45.01817" lon="6.04542">
        <ele>1442.4</ele>
        <time>2020-09-05T10:55:09Z</time>
      </trkpt>
      <trkpt lat="45.01818" lon="6.04538">
        <ele>1442.4</ele>
        <time>2020-09-05T10:55:10Z</time>
      </trkpt>
      <trkpt lat="45.01819" lon="6.04534">
        <ele>1442.6</ele>
        <time>2020-09-05T10:55:11Z</time>
      </trkpt>
      <trkpt lat="45.01819" lon="6.04531">
        <ele>1443</ele>
        <time>2020-09-05T10:55:12Z</time>
      </trkpt>
      <trkpt lat="45.0182" lon="6.04527">
        <ele>1443.4</ele>
        <time>2020-09-05T10:55:13Z</time>
      </trkpt>
      <trkpt lat="45.01821" lon="6.04524">
        <ele>1443.6</ele>
        <time>2020-09-05T10:55:14Z</time>
      </trkpt>
      <trkpt lat="45.01821" lon="6.0452">
        <ele>1444</ele>
        <time>2020-09-05T10:55:15Z</time>
      </trkpt>
      <trkpt lat="45.01822" lon="6.04517">
        <ele>1444.4</ele>
        <time>2020-09-05T10:55:16Z</time>
      </trkpt>
      <trkpt lat="45.01822" lon="6.04514">
        <ele>1444.4</ele>
        <time>2020-09-05T10:55:17Z</time>
      </trkpt>
      <trkpt lat="45.01822" lon="6.04511">
        <ele>1445</ele>
        <time>2020-09-05T10:55:18Z</time>
      </trkpt>
      <trkpt lat="45.01823" lon="6.04509">
        <ele>1445.2</ele>
        <time>2020-09-05T10:55:19Z</time>
      </trkpt>
      <trkpt lat="45.01824" lon="6.04506">
        <ele>1445.4</ele>
        <time>2020-09-05T10:55:20Z</time>
      </trkpt>
      <trkpt lat="45.01824" lon="6.04503">
        <ele>1445.8</ele>
        <time>2020-09-05T10:55:21Z</time>
      </trkpt>
      <trkpt lat="45.01825" lon="6.04501">
        <ele>1445.8</ele>
        <time>2020-09-05T10:55:22Z</time>
      </trkpt>
      <trkpt lat="45.01825" lon="6.04498">
        <ele>1446</ele>
        <time>2020-09-05T10:55:23Z</time>
      </trkpt>
      <trkpt lat="45.01825" lon="6.04495">
        <ele>1446.4</ele>
        <time>2020-09-05T10:55:24Z</time>
      </trkpt>
      <trkpt lat="45.01825" lon="6.04492">
        <ele>1446.6</ele>
        <time>2020-09-05T10:55:25Z</time>
      </trkpt>
      <trkpt lat="45.01826" lon="6.04489">
        <ele>1446.8</ele>
        <time>2020-09-05T10:55:26Z</time>
      </trkpt>
      <trkpt lat="45.01826" lon="6.04487">
        <ele>1447</ele>
        <time>2020-09-05T10:55:27Z</time>
      </trkpt>
      <trkpt lat="45.01826" lon="6.04484">
        <ele>1447.2</ele>
        <time>2020-09-05T10:55:28Z</time>
      </trkpt>
      <trkpt lat="45.01825" lon="6.04481">
        <ele>1447.6</ele>
        <time>2020-09-05T10:55:29Z</time>
      </trkpt>
      <trkpt lat="45.01825" lon="6.04478">
        <ele>1447.6</ele>
        <time>2020-09-05T10:55:30Z</time>
      </trkpt>
      <trkpt lat="45.01825" lon="6.04475">
        <ele>1447.8</ele>
        <time>2020-09-05T10:55:31Z</time>
      </trkpt>
      <trkpt lat="45.01825" lon="6.04472">
        <ele>1448.2</ele>
        <time>2020-09-05T10:55:32Z</time>
      </trkpt>
      <trkpt lat="45.01825" lon="6.04469">
        <ele>1448.6</ele>
        <time>2020-09-05T10:55:33Z</time>
      </trkpt>
      <trkpt lat="45.01824" lon="6.04466">
        <ele>1448.8</ele>
        <time>2020-09-05T10:55:34Z</time>
      </trkpt>
      <trkpt lat="45.01824" lon="6.04464">
        <ele>1448.8</ele>
        <time>2020-09-05T10:55:35Z</time>
      </trkpt>
      <trkpt lat="45.01824" lon="6.04461">
        <ele>1449.2</ele>
        <time>2020-09-05T10:55:36Z</time>
      </trkpt>
      <trkpt lat="45.01824" lon="6.04458">
        <ele>1449.4</ele>
        <time>2020-09-05T10:55:37Z</time>
      </trkpt>
      <trkpt lat="45.01824" lon="6.04455">
        <ele>1449.6</ele>
        <time>2020-09-05T10:55:38Z</time>
      </trkpt>
      <trkpt lat="45.01824" lon="6.04453">
        <ele>1449.8</ele>
        <time>2020-09-05T10:55:39Z</time>
      </trkpt>
      <trkpt lat="45.01824" lon="6.0445">
        <ele>1450.2</ele>
        <time>2020-09-05T10:55:40Z</time>
      </trkpt>
      <trkpt lat="45.01824" lon="6.04447">
        <ele>1450.4</ele>
        <time>2020-09-05T10:55:41Z</time>
      </trkpt>
      <trkpt lat="45.01824" lon="6.04444">
        <ele>1450.4</ele>
        <time>2020-09-05T10:55:42Z</time>
      </trkpt>
      <trkpt lat="45.01824" lon="6.04442">
        <ele>1450.8</ele>
        <time>2020-09-05T10:55:43Z</time>
      </trkpt>
      <trkpt lat="45.01825" lon="6.04439">
        <ele>1451</ele>
        <time>2020-09-05T10:55:44Z</time>
      </trkpt>
      <trkpt lat="45.01825" lon="6.04436">
        <ele>1451</ele>
        <time>2020-09-05T10:55:45Z</time>
      </trkpt>
      <trkpt lat="45.01825" lon="6.04433">
        <ele>1451.4</ele>
        <time>2020-09-05T10:55:46Z</time>
      </trkpt>
      <trkpt lat="45.01824" lon="6.0443">
        <ele>1451.4</ele>
        <time>2020-09-05T10:55:47Z</time>
      </trkpt>
      <trkpt lat="45.01824" lon="6.04427">
        <ele>1451.8</ele>
        <time>2020-09-05T10:55:48Z</time>
      </trkpt>
      <trkpt lat="45.01824" lon="6.04424">
        <ele>1451.8</ele>
        <time>2020-09-05T10:55:49Z</time>
      </trkpt>
      <trkpt lat="45.01824" lon="6.04421">
        <ele>1451.8</ele>
        <time>2020-09-05T10:55:50Z</time>
      </trkpt>
      <trkpt lat="45.01824" lon="6.04418">
        <ele>1452.2</ele>
        <time>2020-09-05T10:55:51Z</time>
      </trkpt>
      <trkpt lat="45.01823" lon="6.04414">
        <ele>1452.4</ele>
        <time>2020-09-05T10:55:52Z</time>
      </trkpt>
      <trkpt lat="45.01823" lon="6.04411">
        <ele>1452.6</ele>
        <time>2020-09-05T10:55:53Z</time>
      </trkpt>
      <trkpt lat="45.01822" lon="6.04408">
        <ele>1452.8</ele>
        <time>2020-09-05T10:55:54Z</time>
      </trkpt>
      <trkpt lat="45.01822" lon="6.04404">
        <ele>1453.2</ele>
        <time>2020-09-05T10:55:55Z</time>
      </trkpt>
      <trkpt lat="45.01821" lon="6.04401">
        <ele>1453.6</ele>
        <time>2020-09-05T10:55:56Z</time>
      </trkpt>
      <trkpt lat="45.0182" lon="6.04398">
        <ele>1453.8</ele>
        <time>2020-09-05T10:55:57Z</time>
      </trkpt>
      <trkpt lat="45.01819" lon="6.04395">
        <ele>1454</ele>
        <time>2020-09-05T10:55:58Z</time>
      </trkpt>
      <trkpt lat="45.01819" lon="6.04392">
        <ele>1454.2</ele>
        <time>2020-09-05T10:55:59Z</time>
      </trkpt>
      <trkpt lat="45.01818" lon="6.0439">
        <ele>1454.4</ele>
        <time>2020-09-05T10:56:00Z</time>
      </trkpt>
      <trkpt lat="45.01817" lon="6.04387">
        <ele>1454.6</ele>
        <time>2020-09-05T10:56:01Z</time>
      </trkpt>
      <trkpt lat="45.01816" lon="6.04385">
        <ele>1454.8</ele>
        <time>2020-09-05T10:56:02Z</time>
      </trkpt>
      <trkpt lat="45.01815" lon="6.04382">
        <ele>1455</ele>
        <time>2020-09-05T10:56:03Z</time>
      </trkpt>
      <trkpt lat="45.01814" lon="6.0438">
        <ele>1455.2</ele>
        <time>2020-09-05T10:56:04Z</time>
      </trkpt>
      <trkpt lat="45.01814" lon="6.04377">
        <ele>1455.4</ele>
        <time>2020-09-05T10:56:05Z</time>
      </trkpt>
      <trkpt lat="45.01813" lon="6.04374">
        <ele>1455.8</ele>
        <time>2020-09-05T10:56:06Z</time>
      </trkpt>
      <trkpt lat="45.01813" lon="6.04372">
        <ele>1455.6</ele>
        <time>2020-09-05T10:56:07Z</time>
      </trkpt>
      <trkpt lat="45.01812" lon="6.04369">
        <ele>1456.2</ele>
        <time>2020-09-05T10:56:08Z</time>
      </trkpt>
      <trkpt lat="45.01812" lon="6.04366">
        <ele>1456.4</ele>
        <time>2020-09-05T10:56:09Z</time>
      </trkpt>
      <trkpt lat="45.01811" lon="6.04364">
        <ele>1456.8</ele>
        <time>2020-09-05T10:56:10Z</time>
      </trkpt>
      <trkpt lat="45.0181" lon="6.04361">
        <ele>1457</ele>
        <time>2020-09-05T10:56:11Z</time>
      </trkpt>
      <trkpt lat="45.01809" lon="6.04358">
        <ele>1457.2</ele>
        <time>2020-09-05T10:56:12Z</time>
      </trkpt>
      <trkpt lat="45.01809" lon="6.04356">
        <ele>1457.6</ele>
        <time>2020-09-05T10:56:13Z</time>
      </trkpt>
      <trkpt lat="45.01808" lon="6.04353">
        <ele>1457.6</ele>
        <time>2020-09-05T10:56:14Z</time>
      </trkpt>
      <trkpt lat="45.01807" lon="6.0435">
        <ele>1457.8</ele>
        <time>2020-09-05T10:56:15Z</time>
      </trkpt>
      <trkpt lat="45.01806" lon="6.04347">
        <ele>1458.2</ele>
        <time>2020-09-05T10:56:16Z</time>
      </trkpt>
      <trkpt lat="45.01805" lon="6.04344">
        <ele>1458.4</ele>
        <time>2020-09-05T10:56:17Z</time>
      </trkpt>
      <trkpt lat="45.01803" lon="6.0434">
        <ele>1459.2</ele>
        <time>2020-09-05T10:56:19Z</time>
      </trkpt>
      <trkpt lat="45.01801" lon="6.04336">
        <ele>1459.6</ele>
        <time>2020-09-05T10:56:21Z</time>
      </trkpt>
      <trkpt lat="45.018" lon="6.04333">
        <ele>1460</ele>
        <time>2020-09-05T10:56:22Z</time>
      </trkpt>
      <trkpt lat="45.01799" lon="6.04331">
        <ele>1460</ele>
        <time>2020-09-05T10:56:23Z</time>
      </trkpt>
      <trkpt lat="45.01798" lon="6.04328">
        <ele>1460</ele>
        <time>2020-09-05T10:56:24Z</time>
      </trkpt>
      <trkpt lat="45.01796" lon="6.04326">
        <ele>1460.4</ele>
        <time>2020-09-05T10:56:25Z</time>
      </trkpt>
      <trkpt lat="45.01795" lon="6.04323">
        <ele>1460.6</ele>
        <time>2020-09-05T10:56:26Z</time>
      </trkpt>
      <trkpt lat="45.01794" lon="6.0432">
        <ele>1461</ele>
        <time>2020-09-05T10:56:27Z</time>
      </trkpt>
      <trkpt lat="45.01792" lon="6.04318">
        <ele>1461.2</ele>
        <time>2020-09-05T10:56:28Z</time>
      </trkpt>
      <trkpt lat="45.01791" lon="6.04315">
        <ele>1461.4</ele>
        <time>2020-09-05T10:56:29Z</time>
      </trkpt>
      <trkpt lat="45.01791" lon="6.04312">
        <ele>1461.8</ele>
        <time>2020-09-05T10:56:30Z</time>
      </trkpt>
      <trkpt lat="45.0179" lon="6.04309">
        <ele>1461.8</ele>
        <time>2020-09-05T10:56:31Z</time>
      </trkpt>
      <trkpt lat="45.01789" lon="6.04306">
        <ele>1462.2</ele>
        <time>2020-09-05T10:56:32Z</time>
      </trkpt>
      <trkpt lat="45.01789" lon="6.04304">
        <ele>1462.6</ele>
        <time>2020-09-05T10:56:33Z</time>
      </trkpt>
      <trkpt lat="45.01788" lon="6.04301">
        <ele>1462.6</ele>
        <time>2020-09-05T10:56:34Z</time>
      </trkpt>
      <trkpt lat="45.01787" lon="6.04298">
        <ele>1462.6</ele>
        <time>2020-09-05T10:56:35Z</time>
      </trkpt>
      <trkpt lat="45.01786" lon="6.04294">
        <ele>1462.8</ele>
        <time>2020-09-05T10:56:36Z</time>
      </trkpt>
      <trkpt lat="45.01785" lon="6.04291">
        <ele>1462.8</ele>
        <time>2020-09-05T10:56:37Z</time>
      </trkpt>
      <trkpt lat="45.01785" lon="6.04288">
        <ele>1463.2</ele>
        <time>2020-09-05T10:56:38Z</time>
      </trkpt>
      <trkpt lat="45.01784" lon="6.04284">
        <ele>1463.4</ele>
        <time>2020-09-05T10:56:39Z</time>
      </trkpt>
      <trkpt lat="45.01784" lon="6.04281">
        <ele>1463.8</ele>
        <time>2020-09-05T10:56:40Z</time>
      </trkpt>
      <trkpt lat="45.01784" lon="6.04278">
        <ele>1463.8</ele>
        <time>2020-09-05T10:56:41Z</time>
      </trkpt>
      <trkpt lat="45.01784" lon="6.04276">
        <ele>1464</ele>
        <time>2020-09-05T10:56:42Z</time>
      </trkpt>
      <trkpt lat="45.01784" lon="6.04271">
        <ele>1464.6</ele>
        <time>2020-09-05T10:56:44Z</time>
      </trkpt>
      <trkpt lat="45.01784" lon="6.04268">
        <ele>1465</ele>
        <time>2020-09-05T10:56:45Z</time>
      </trkpt>
      <trkpt lat="45.01784" lon="6.04265">
        <ele>1465.2</ele>
        <time>2020-09-05T10:56:46Z</time>
      </trkpt>
      <trkpt lat="45.01783" lon="6.04263">
        <ele>1465.2</ele>
        <time>2020-09-05T10:56:47Z</time>
      </trkpt>
      <trkpt lat="45.01783" lon="6.0426">
        <ele>1465.6</ele>
        <time>2020-09-05T10:56:48Z</time>
      </trkpt>
      <trkpt lat="45.01782" lon="6.04257">
        <ele>1466</ele>
        <time>2020-09-05T10:56:49Z</time>
      </trkpt>
      <trkpt lat="45.01782" lon="6.04254">
        <ele>1466.2</ele>
        <time>2020-09-05T10:56:50Z</time>
      </trkpt>
      <trkpt lat="45.01782" lon="6.04251">
        <ele>1466.4</ele>
        <time>2020-09-05T10:56:51Z</time>
      </trkpt>
      <trkpt lat="45.01781" lon="6.04249">
        <ele>1466.6</ele>
        <time>2020-09-05T10:56:52Z</time>
      </trkpt>
      <trkpt lat="45.01781" lon="6.04246">
        <ele>1467</ele>
        <time>2020-09-05T10:56:53Z</time>
      </trkpt>
      <trkpt lat="45.01782" lon="6.04243">
        <ele>1467</ele>
        <time>2020-09-05T10:56:54Z</time>
      </trkpt>
      <trkpt lat="45.01781" lon="6.0424">
        <ele>1467.2</ele>
        <time>2020-09-05T10:56:55Z</time>
      </trkpt>
      <trkpt lat="45.01781" lon="6.04237">
        <ele>1467.4</ele>
        <time>2020-09-05T10:56:56Z</time>
      </trkpt>
      <trkpt lat="45.0178" lon="6.04234">
        <ele>1467.6</ele>
        <time>2020-09-05T10:56:57Z</time>
      </trkpt>
      <trkpt lat="45.0178" lon="6.04231">
        <ele>1468</ele>
        <time>2020-09-05T10:56:58Z</time>
      </trkpt>
      <trkpt lat="45.0178" lon="6.04229">
        <ele>1468.2</ele>
        <time>2020-09-05T10:56:59Z</time>
      </trkpt>
      <trkpt lat="45.0178" lon="6.04226">
        <ele>1468.2</ele>
        <time>2020-09-05T10:57:00Z</time>
      </trkpt>
      <trkpt lat="45.01779" lon="6.04223">
        <ele>1468.6</ele>
        <time>2020-09-05T10:57:01Z</time>
      </trkpt>
      <trkpt lat="45.01779" lon="6.0422">
        <ele>1468.8</ele>
        <time>2020-09-05T10:57:02Z</time>
      </trkpt>
      <trkpt lat="45.0178" lon="6.04217">
        <ele>1468.8</ele>
        <time>2020-09-05T10:57:03Z</time>
      </trkpt>
      <trkpt lat="45.0178" lon="6.04214">
        <ele>1469</ele>
        <time>2020-09-05T10:57:04Z</time>
      </trkpt>
      <trkpt lat="45.0178" lon="6.04211">
        <ele>1469</ele>
        <time>2020-09-05T10:57:05Z</time>
      </trkpt>
      <trkpt lat="45.01781" lon="6.04208">
        <ele>1469.4</ele>
        <time>2020-09-05T10:57:06Z</time>
      </trkpt>
      <trkpt lat="45.01781" lon="6.04205">
        <ele>1469.8</ele>
        <time>2020-09-05T10:57:07Z</time>
      </trkpt>
      <trkpt lat="45.01782" lon="6.04202">
        <ele>1470</ele>
        <time>2020-09-05T10:57:08Z</time>
      </trkpt>
      <trkpt lat="45.01782" lon="6.04199">
        <ele>1470</ele>
        <time>2020-09-05T10:57:09Z</time>
      </trkpt>
      <trkpt lat="45.01783" lon="6.04196">
        <ele>1470.4</ele>
        <time>2020-09-05T10:57:10Z</time>
      </trkpt>
      <trkpt lat="45.01783" lon="6.04193">
        <ele>1470.8</ele>
        <time>2020-09-05T10:57:11Z</time>
      </trkpt>
      <trkpt lat="45.01783" lon="6.0419">
        <ele>1471.2</ele>
        <time>2020-09-05T10:57:12Z</time>
      </trkpt>
      <trkpt lat="45.01784" lon="6.04187">
        <ele>1471.2</ele>
        <time>2020-09-05T10:57:13Z</time>
      </trkpt>
      <trkpt lat="45.01784" lon="6.04184">
        <ele>1471.8</ele>
        <time>2020-09-05T10:57:14Z</time>
      </trkpt>
      <trkpt lat="45.01785" lon="6.04181">
        <ele>1472</ele>
        <time>2020-09-05T10:57:15Z</time>
      </trkpt>
      <trkpt lat="45.01785" lon="6.04178">
        <ele>1472</ele>
        <time>2020-09-05T10:57:16Z</time>
      </trkpt>
      <trkpt lat="45.01785" lon="6.04175">
        <ele>1472.2</ele>
        <time>2020-09-05T10:57:17Z</time>
      </trkpt>
      <trkpt lat="45.01786" lon="6.04172">
        <ele>1472.6</ele>
        <time>2020-09-05T10:57:18Z</time>
      </trkpt>
      <trkpt lat="45.01786" lon="6.04168">
        <ele>1472.8</ele>
        <time>2020-09-05T10:57:19Z</time>
      </trkpt>
      <trkpt lat="45.01787" lon="6.04165">
        <ele>1473</ele>
        <time>2020-09-05T10:57:20Z</time>
      </trkpt>
      <trkpt lat="45.01787" lon="6.04162">
        <ele>1473.2</ele>
        <time>2020-09-05T10:57:21Z</time>
      </trkpt>
      <trkpt lat="45.01787" lon="6.04158">
        <ele>1473.2</ele>
        <time>2020-09-05T10:57:22Z</time>
      </trkpt>
      <trkpt lat="45.01788" lon="6.04155">
        <ele>1473.8</ele>
        <time>2020-09-05T10:57:23Z</time>
      </trkpt>
      <trkpt lat="45.01788" lon="6.04152">
        <ele>1474.2</ele>
        <time>2020-09-05T10:57:24Z</time>
      </trkpt>
      <trkpt lat="45.01789" lon="6.04148">
        <ele>1474.4</ele>
        <time>2020-09-05T10:57:25Z</time>
      </trkpt>
      <trkpt lat="45.01789" lon="6.04145">
        <ele>1474.6</ele>
        <time>2020-09-05T10:57:26Z</time>
      </trkpt>
      <trkpt lat="45.01789" lon="6.04141">
        <ele>1474.8</ele>
        <time>2020-09-05T10:57:27Z</time>
      </trkpt>
      <trkpt lat="45.0179" lon="6.04138">
        <ele>1475.2</ele>
        <time>2020-09-05T10:57:28Z</time>
      </trkpt>
      <trkpt lat="45.01789" lon="6.04134">
        <ele>1475.2</ele>
        <time>2020-09-05T10:57:29Z</time>
      </trkpt>
      <trkpt lat="45.01789" lon="6.04131">
        <ele>1475.4</ele>
        <time>2020-09-05T10:57:30Z</time>
      </trkpt>
      <trkpt lat="45.01789" lon="6.04127">
        <ele>1475.6</ele>
        <time>2020-09-05T10:57:31Z</time>
      </trkpt>
      <trkpt lat="45.01788" lon="6.04123">
        <ele>1476.4</ele>
        <time>2020-09-05T10:57:32Z</time>
      </trkpt>
      <trkpt lat="45.01788" lon="6.0412">
        <ele>1476.6</ele>
        <time>2020-09-05T10:57:33Z</time>
      </trkpt>
      <trkpt lat="45.01788" lon="6.04116">
        <ele>1476.8</ele>
        <time>2020-09-05T10:57:34Z</time>
      </trkpt>
      <trkpt lat="45.01788" lon="6.04112">
        <ele>1477.2</ele>
        <time>2020-09-05T10:57:35Z</time>
      </trkpt>
      <trkpt lat="45.01787" lon="6.04108">
        <ele>1477.4</ele>
        <time>2020-09-05T10:57:36Z</time>
      </trkpt>
      <trkpt lat="45.01787" lon="6.04104">
        <ele>1477.6</ele>
        <time>2020-09-05T10:57:37Z</time>
      </trkpt>
      <trkpt lat="45.01787" lon="6.04101">
        <ele>1477.6</ele>
        <time>2020-09-05T10:57:38Z</time>
      </trkpt>
      <trkpt lat="45.01786" lon="6.04097">
        <ele>1478</ele>
        <time>2020-09-05T10:57:39Z</time>
      </trkpt>
      <trkpt lat="45.01786" lon="6.04093">
        <ele>1478</ele>
        <time>2020-09-05T10:57:40Z</time>
      </trkpt>
      <trkpt lat="45.01786" lon="6.04089">
        <ele>1478.2</ele>
        <time>2020-09-05T10:57:41Z</time>
      </trkpt>
      <trkpt lat="45.01786" lon="6.04085">
        <ele>1478.4</ele>
        <time>2020-09-05T10:57:42Z</time>
      </trkpt>
      <trkpt lat="45.01786" lon="6.04081">
        <ele>1478.8</ele>
        <time>2020-09-05T10:57:43Z</time>
      </trkpt>
      <trkpt lat="45.01788" lon="6.04077">
        <ele>1479</ele>
        <time>2020-09-05T10:57:44Z</time>
      </trkpt>
      <trkpt lat="45.0179" lon="6.04075">
        <ele>1479</ele>
        <time>2020-09-05T10:57:45Z</time>
      </trkpt>
      <trkpt lat="45.01793" lon="6.04075">
        <ele>1479</ele>
        <time>2020-09-05T10:57:46Z</time>
      </trkpt>
      <trkpt lat="45.01795" lon="6.04076">
        <ele>1479.2</ele>
        <time>2020-09-05T10:57:47Z</time>
      </trkpt>
      <trkpt lat="45.01797" lon="6.04078">
        <ele>1479.4</ele>
        <time>2020-09-05T10:57:48Z</time>
      </trkpt>
      <trkpt lat="45.01799" lon="6.04078">
        <ele>1479.6</ele>
        <time>2020-09-05T10:57:49Z</time>
      </trkpt>
      <trkpt lat="45.01801" lon="6.04075">
        <ele>1479.2</ele>
        <time>2020-09-05T10:57:50Z</time>
      </trkpt>
      <trkpt lat="45.018" lon="6.04072">
        <ele>1479.6</ele>
        <time>2020-09-05T10:57:51Z</time>
      </trkpt>
      <trkpt lat="45.01799" lon="6.0407">
        <ele>1479.6</ele>
        <time>2020-09-05T10:57:52Z</time>
      </trkpt>
      <trkpt lat="45.01797" lon="6.04067">
        <ele>1479.6</ele>
        <time>2020-09-05T10:57:53Z</time>
      </trkpt>
      <trkpt lat="45.01794" lon="6.04066">
        <ele>1479.4</ele>
        <time>2020-09-05T10:57:54Z</time>
      </trkpt>
      <trkpt lat="45.01791" lon="6.04065">
        <ele>1479.4</ele>
        <time>2020-09-05T10:57:55Z</time>
      </trkpt>
      <trkpt lat="45.01788" lon="6.04066">
        <ele>1479.4</ele>
        <time>2020-09-05T10:57:56Z</time>
      </trkpt>
      <trkpt lat="45.01786" lon="6.04068">
        <ele>1479.4</ele>
        <time>2020-09-05T10:57:57Z</time>
      </trkpt>
      <trkpt lat="45.01785" lon="6.04071">
        <ele>1479.2</ele>
        <time>2020-09-05T10:57:58Z</time>
      </trkpt>
      <trkpt lat="45.01785" lon="6.04074">
        <ele>1479</ele>
        <time>2020-09-05T10:57:59Z</time>
      </trkpt>
      <trkpt lat="45.01789" lon="6.04075">
        <ele>1479</ele>
        <time>2020-09-05T10:58:01Z</time>
      </trkpt>
      <trkpt lat="45.01791" lon="6.04076">
        <ele>1479.2</ele>
        <time>2020-09-05T10:58:02Z</time>
      </trkpt>
      <trkpt lat="45.01794" lon="6.04079">
        <ele>1479.2</ele>
        <time>2020-09-05T10:58:03Z</time>
      </trkpt>
      <trkpt lat="45.01795" lon="6.04083">
        <ele>1479.4</ele>
        <time>2020-09-05T10:58:04Z</time>
      </trkpt>
      <trkpt lat="45.01795" lon="6.04087">
        <ele>1479.8</ele>
        <time>2020-09-05T10:58:05Z</time>
      </trkpt>
      <trkpt lat="45.01794" lon="6.04092">
        <ele>1480</ele>
        <time>2020-09-05T10:58:06Z</time>
      </trkpt>
      <trkpt lat="45.01793" lon="6.04096">
        <ele>1480</ele>
        <time>2020-09-05T10:58:07Z</time>
      </trkpt>
      <trkpt lat="45.01793" lon="6.04101">
        <ele>1480.4</ele>
        <time>2020-09-05T10:58:08Z</time>
      </trkpt>
      <trkpt lat="45.01793" lon="6.04105">
        <ele>1480.2</ele>
        <time>2020-09-05T10:58:09Z</time>
      </trkpt>
      <trkpt lat="45.01793" lon="6.0411">
        <ele>1480.4</ele>
        <time>2020-09-05T10:58:10Z</time>
      </trkpt>
      <trkpt lat="45.01793" lon="6.04115">
        <ele>1481</ele>
        <time>2020-09-05T10:58:11Z</time>
      </trkpt>
      <trkpt lat="45.01794" lon="6.04119">
        <ele>1481.2</ele>
        <time>2020-09-05T10:58:12Z</time>
      </trkpt>
      <trkpt lat="45.01795" lon="6.04123">
        <ele>1481.4</ele>
        <time>2020-09-05T10:58:13Z</time>
      </trkpt>
      <trkpt lat="45.01796" lon="6.04126">
        <ele>1481.4</ele>
        <time>2020-09-05T10:58:14Z</time>
      </trkpt>
      <trkpt lat="45.01797" lon="6.0413">
        <ele>1481.8</ele>
        <time>2020-09-05T10:58:15Z</time>
      </trkpt>
      <trkpt lat="45.01797" lon="6.04133">
        <ele>1482.2</ele>
        <time>2020-09-05T10:58:16Z</time>
      </trkpt>
      <trkpt lat="45.01798" lon="6.04137">
        <ele>1482.6</ele>
        <time>2020-09-05T10:58:17Z</time>
      </trkpt>
      <trkpt lat="45.01799" lon="6.0414">
        <ele>1482.8</ele>
        <time>2020-09-05T10:58:18Z</time>
      </trkpt>
      <trkpt lat="45.018" lon="6.04144">
        <ele>1483.2</ele>
        <time>2020-09-05T10:58:19Z</time>
      </trkpt>
      <trkpt lat="45.01801" lon="6.04147">
        <ele>1483.4</ele>
        <time>2020-09-05T10:58:20Z</time>
      </trkpt>
      <trkpt lat="45.01802" lon="6.0415">
        <ele>1483.4</ele>
        <time>2020-09-05T10:58:21Z</time>
      </trkpt>
      <trkpt lat="45.01803" lon="6.04154">
        <ele>1483.6</ele>
        <time>2020-09-05T10:58:22Z</time>
      </trkpt>
      <trkpt lat="45.01804" lon="6.04157">
        <ele>1484.2</ele>
        <time>2020-09-05T10:58:23Z</time>
      </trkpt>
      <trkpt lat="45.01804" lon="6.0416">
        <ele>1484.6</ele>
        <time>2020-09-05T10:58:24Z</time>
      </trkpt>
      <trkpt lat="45.01805" lon="6.04163">
        <ele>1485</ele>
        <time>2020-09-05T10:58:25Z</time>
      </trkpt>
      <trkpt lat="45.01806" lon="6.04166">
        <ele>1485.2</ele>
        <time>2020-09-05T10:58:26Z</time>
      </trkpt>
      <trkpt lat="45.01807" lon="6.04169">
        <ele>1485.2</ele>
        <time>2020-09-05T10:58:27Z</time>
      </trkpt>
      <trkpt lat="45.01808" lon="6.04173">
        <ele>1485.4</ele>
        <time>2020-09-05T10:58:28Z</time>
      </trkpt>
      <trkpt lat="45.01809" lon="6.04176">
        <ele>1485.4</ele>
        <time>2020-09-05T10:58:29Z</time>
      </trkpt>
      <trkpt lat="45.01809" lon="6.0418">
        <ele>1486</ele>
        <time>2020-09-05T10:58:30Z</time>
      </trkpt>
      <trkpt lat="45.0181" lon="6.04183">
        <ele>1486.4</ele>
        <time>2020-09-05T10:58:31Z</time>
      </trkpt>
      <trkpt lat="45.0181" lon="6.04187">
        <ele>1486.8</ele>
        <time>2020-09-05T10:58:32Z</time>
      </trkpt>
      <trkpt lat="45.01811" lon="6.0419">
        <ele>1487.2</ele>
        <time>2020-09-05T10:58:33Z</time>
      </trkpt>
      <trkpt lat="45.01811" lon="6.04193">
        <ele>1487.4</ele>
        <time>2020-09-05T10:58:34Z</time>
      </trkpt>
      <trkpt lat="45.01812" lon="6.04196">
        <ele>1487.6</ele>
        <time>2020-09-05T10:58:35Z</time>
      </trkpt>
      <trkpt lat="45.01812" lon="6.04198">
        <ele>1487.8</ele>
        <time>2020-09-05T10:58:36Z</time>
      </trkpt>
      <trkpt lat="45.01813" lon="6.04203">
        <ele>1488.2</ele>
        <time>2020-09-05T10:58:38Z</time>
      </trkpt>
      <trkpt lat="45.01814" lon="6.04206">
        <ele>1488.8</ele>
        <time>2020-09-05T10:58:39Z</time>
      </trkpt>
      <trkpt lat="45.01814" lon="6.04208">
        <ele>1488.8</ele>
        <time>2020-09-05T10:58:40Z</time>
      </trkpt>
      <trkpt lat="45.01815" lon="6.04211">
        <ele>1488.8</ele>
        <time>2020-09-05T10:58:41Z</time>
      </trkpt>
      <trkpt lat="45.01815" lon="6.04214">
        <ele>1489.2</ele>
        <time>2020-09-05T10:58:42Z</time>
      </trkpt>
      <trkpt lat="45.01816" lon="6.04217">
        <ele>1489.2</ele>
        <time>2020-09-05T10:58:43Z</time>
      </trkpt>
      <trkpt lat="45.01816" lon="6.0422">
        <ele>1489.6</ele>
        <time>2020-09-05T10:58:44Z</time>
      </trkpt>
      <trkpt lat="45.01816" lon="6.04223">
        <ele>1489.8</ele>
        <time>2020-09-05T10:58:45Z</time>
      </trkpt>
      <trkpt lat="45.01817" lon="6.04226">
        <ele>1490</ele>
        <time>2020-09-05T10:58:46Z</time>
      </trkpt>
      <trkpt lat="45.01818" lon="6.04228">
        <ele>1490.2</ele>
        <time>2020-09-05T10:58:47Z</time>
      </trkpt>
      <trkpt lat="45.01819" lon="6.04231">
        <ele>1490.6</ele>
        <time>2020-09-05T10:58:48Z</time>
      </trkpt>
      <trkpt lat="45.0182" lon="6.04234">
        <ele>1490.8</ele>
        <time>2020-09-05T10:58:49Z</time>
      </trkpt>
      <trkpt lat="45.0182" lon="6.04237">
        <ele>1491</ele>
        <time>2020-09-05T10:58:50Z</time>
      </trkpt>
      <trkpt lat="45.01821" lon="6.0424">
        <ele>1491.2</ele>
        <time>2020-09-05T10:58:51Z</time>
      </trkpt>
      <trkpt lat="45.01821" lon="6.04242">
        <ele>1491.4</ele>
        <time>2020-09-05T10:58:52Z</time>
      </trkpt>
      <trkpt lat="45.01822" lon="6.04245">
        <ele>1491.8</ele>
        <time>2020-09-05T10:58:53Z</time>
      </trkpt>
      <trkpt lat="45.01822" lon="6.04248">
        <ele>1492</ele>
        <time>2020-09-05T10:58:54Z</time>
      </trkpt>
      <trkpt lat="45.01823" lon="6.04251">
        <ele>1492.4</ele>
        <time>2020-09-05T10:58:55Z</time>
      </trkpt>
      <trkpt lat="45.01823" lon="6.04254">
        <ele>1492.8</ele>
        <time>2020-09-05T10:58:56Z</time>
      </trkpt>
      <trkpt lat="45.01824" lon="6.04257">
        <ele>1493</ele>
        <time>2020-09-05T10:58:57Z</time>
      </trkpt>
      <trkpt lat="45.01825" lon="6.0426">
        <ele>1493</ele>
        <time>2020-09-05T10:58:58Z</time>
      </trkpt>
      <trkpt lat="45.01826" lon="6.04263">
        <ele>1493.4</ele>
        <time>2020-09-05T10:58:59Z</time>
      </trkpt>
      <trkpt lat="45.01826" lon="6.04265">
        <ele>1493.8</ele>
        <time>2020-09-05T10:59:00Z</time>
      </trkpt>
      <trkpt lat="45.01827" lon="6.04268">
        <ele>1494</ele>
        <time>2020-09-05T10:59:01Z</time>
      </trkpt>
      <trkpt lat="45.01828" lon="6.04271">
        <ele>1494.2</ele>
        <time>2020-09-05T10:59:02Z</time>
      </trkpt>
      <trkpt lat="45.01829" lon="6.04273">
        <ele>1494.2</ele>
        <time>2020-09-05T10:59:03Z</time>
      </trkpt>
      <trkpt lat="45.0183" lon="6.04276">
        <ele>1494.4</ele>
        <time>2020-09-05T10:59:04Z</time>
      </trkpt>
      <trkpt lat="45.01831" lon="6.04279">
        <ele>1494.4</ele>
        <time>2020-09-05T10:59:05Z</time>
      </trkpt>
      <trkpt lat="45.01832" lon="6.04281">
        <ele>1495</ele>
        <time>2020-09-05T10:59:06Z</time>
      </trkpt>
      <trkpt lat="45.01833" lon="6.04284">
        <ele>1495.4</ele>
        <time>2020-09-05T10:59:07Z</time>
      </trkpt>
      <trkpt lat="45.01834" lon="6.04287">
        <ele>1495.6</ele>
        <time>2020-09-05T10:59:08Z</time>
      </trkpt>
      <trkpt lat="45.01835" lon="6.0429">
        <ele>1495.8</ele>
        <time>2020-09-05T10:59:09Z</time>
      </trkpt>
      <trkpt lat="45.01836" lon="6.04292">
        <ele>1495.8</ele>
        <time>2020-09-05T10:59:10Z</time>
      </trkpt>
      <trkpt lat="45.01838" lon="6.04295">
        <ele>1496.2</ele>
        <time>2020-09-05T10:59:11Z</time>
      </trkpt>
      <trkpt lat="45.01839" lon="6.04298">
        <ele>1496.6</ele>
        <time>2020-09-05T10:59:12Z</time>
      </trkpt>
      <trkpt lat="45.01841" lon="6.043">
        <ele>1496.8</ele>
        <time>2020-09-05T10:59:13Z</time>
      </trkpt>
      <trkpt lat="45.01843" lon="6.04302">
        <ele>1497</ele>
        <time>2020-09-05T10:59:14Z</time>
      </trkpt>
      <trkpt lat="45.01844" lon="6.04305">
        <ele>1497.2</ele>
        <time>2020-09-05T10:59:15Z</time>
      </trkpt>
      <trkpt lat="45.01846" lon="6.04307">
        <ele>1497.6</ele>
        <time>2020-09-05T10:59:16Z</time>
      </trkpt>
      <trkpt lat="45.01848" lon="6.04309">
        <ele>1497.8</ele>
        <time>2020-09-05T10:59:17Z</time>
      </trkpt>
      <trkpt lat="45.0185" lon="6.04311">
        <ele>1498.4</ele>
        <time>2020-09-05T10:59:18Z</time>
      </trkpt>
      <trkpt lat="45.01852" lon="6.04313">
        <ele>1498.4</ele>
        <time>2020-09-05T10:59:19Z</time>
      </trkpt>
      <trkpt lat="45.01854" lon="6.04315">
        <ele>1498.6</ele>
        <time>2020-09-05T10:59:20Z</time>
      </trkpt>
      <trkpt lat="45.01857" lon="6.04317">
        <ele>1498.6</ele>
        <time>2020-09-05T10:59:21Z</time>
      </trkpt>
      <trkpt lat="45.01859" lon="6.04318">
        <ele>1498.6</ele>
        <time>2020-09-05T10:59:22Z</time>
      </trkpt>
      <trkpt lat="45.01861" lon="6.0432">
        <ele>1498.8</ele>
        <time>2020-09-05T10:59:23Z</time>
      </trkpt>
      <trkpt lat="45.01863" lon="6.04322">
        <ele>1499.2</ele>
        <time>2020-09-05T10:59:24Z</time>
      </trkpt>
      <trkpt lat="45.01865" lon="6.04324">
        <ele>1499.6</ele>
        <time>2020-09-05T10:59:25Z</time>
      </trkpt>
      <trkpt lat="45.01867" lon="6.04326">
        <ele>1499.8</ele>
        <time>2020-09-05T10:59:26Z</time>
      </trkpt>
      <trkpt lat="45.0187" lon="6.04328">
        <ele>1500</ele>
        <time>2020-09-05T10:59:27Z</time>
      </trkpt>
      <trkpt lat="45.01872" lon="6.0433">
        <ele>1500</ele>
        <time>2020-09-05T10:59:28Z</time>
      </trkpt>
      <trkpt lat="45.01874" lon="6.04332">
        <ele>1500</ele>
        <time>2020-09-05T10:59:29Z</time>
      </trkpt>
      <trkpt lat="45.01876" lon="6.04334">
        <ele>1500.4</ele>
        <time>2020-09-05T10:59:30Z</time>
      </trkpt>
      <trkpt lat="45.01879" lon="6.04335">
        <ele>1500.8</ele>
        <time>2020-09-05T10:59:31Z</time>
      </trkpt>
      <trkpt lat="45.01881" lon="6.04337">
        <ele>1500.8</ele>
        <time>2020-09-05T10:59:32Z</time>
      </trkpt>
      <trkpt lat="45.01882" lon="6.04339">
        <ele>1501</ele>
        <time>2020-09-05T10:59:33Z</time>
      </trkpt>
      <trkpt lat="45.01883" lon="6.04341">
        <ele>1501.2</ele>
        <time>2020-09-05T10:59:34Z</time>
      </trkpt>
      <trkpt lat="45.01884" lon="6.04344">
        <ele>1501.4</ele>
        <time>2020-09-05T10:59:35Z</time>
      </trkpt>
      <trkpt lat="45.01885" lon="6.04346">
        <ele>1501.6</ele>
        <time>2020-09-05T10:59:36Z</time>
      </trkpt>
      <trkpt lat="45.01886" lon="6.04349">
        <ele>1501.6</ele>
        <time>2020-09-05T10:59:37Z</time>
      </trkpt>
      <trkpt lat="45.01888" lon="6.04352">
        <ele>1501.6</ele>
        <time>2020-09-05T10:59:38Z</time>
      </trkpt>
      <trkpt lat="45.01889" lon="6.04355">
        <ele>1502</ele>
        <time>2020-09-05T10:59:39Z</time>
      </trkpt>
      <trkpt lat="45.0189" lon="6.04358">
        <ele>1502.2</ele>
        <time>2020-09-05T10:59:40Z</time>
      </trkpt>
      <trkpt lat="45.01892" lon="6.04361">
        <ele>1502.6</ele>
        <time>2020-09-05T10:59:41Z</time>
      </trkpt>
      <trkpt lat="45.01893" lon="6.04364">
        <ele>1503</ele>
        <time>2020-09-05T10:59:42Z</time>
      </trkpt>
      <trkpt lat="45.01894" lon="6.04367">
        <ele>1503.4</ele>
        <time>2020-09-05T10:59:43Z</time>
      </trkpt>
      <trkpt lat="45.01896" lon="6.0437">
        <ele>1503.8</ele>
        <time>2020-09-05T10:59:44Z</time>
      </trkpt>
      <trkpt lat="45.01897" lon="6.04373">
        <ele>1504.2</ele>
        <time>2020-09-05T10:59:45Z</time>
      </trkpt>
      <trkpt lat="45.01897" lon="6.04376">
        <ele>1504.6</ele>
        <time>2020-09-05T10:59:46Z</time>
      </trkpt>
      <trkpt lat="45.01898" lon="6.04379">
        <ele>1505</ele>
        <time>2020-09-05T10:59:47Z</time>
      </trkpt>
      <trkpt lat="45.01898" lon="6.04382">
        <ele>1505.4</ele>
        <time>2020-09-05T10:59:48Z</time>
      </trkpt>
      <trkpt lat="45.01899" lon="6.04385">
        <ele>1505.6</ele>
        <time>2020-09-05T10:59:49Z</time>
      </trkpt>
      <trkpt lat="45.019" lon="6.04388">
        <ele>1505.8</ele>
        <time>2020-09-05T10:59:50Z</time>
      </trkpt>
      <trkpt lat="45.01901" lon="6.04391">
        <ele>1506</ele>
        <time>2020-09-05T10:59:51Z</time>
      </trkpt>
      <trkpt lat="45.01902" lon="6.04394">
        <ele>1506.2</ele>
        <time>2020-09-05T10:59:52Z</time>
      </trkpt>
      <trkpt lat="45.01903" lon="6.04397">
        <ele>1506.4</ele>
        <time>2020-09-05T10:59:53Z</time>
      </trkpt>
      <trkpt lat="45.01904" lon="6.04401">
        <ele>1507</ele>
        <time>2020-09-05T10:59:54Z</time>
      </trkpt>
      <trkpt lat="45.01905" lon="6.04404">
        <ele>1507.4</ele>
        <time>2020-09-05T10:59:55Z</time>
      </trkpt>
      <trkpt lat="45.01906" lon="6.04406">
        <ele>1507.4</ele>
        <time>2020-09-05T10:59:56Z</time>
      </trkpt>
      <trkpt lat="45.01908" lon="6.04409">
        <ele>1507.8</ele>
        <time>2020-09-05T10:59:57Z</time>
      </trkpt>
      <trkpt lat="45.0191" lon="6.04411">
        <ele>1508</ele>
        <time>2020-09-05T10:59:58Z</time>
      </trkpt>
      <trkpt lat="45.01912" lon="6.04413">
        <ele>1508</ele>
        <time>2020-09-05T10:59:59Z</time>
      </trkpt>
      <trkpt lat="45.01914" lon="6.04415">
        <ele>1508.4</ele>
        <time>2020-09-05T11:00:00Z</time>
      </trkpt>
      <trkpt lat="45.01917" lon="6.04417">
        <ele>1508.8</ele>
        <time>2020-09-05T11:00:01Z</time>
      </trkpt>
      <trkpt lat="45.01919" lon="6.04418">
        <ele>1509</ele>
        <time>2020-09-05T11:00:02Z</time>
      </trkpt>
      <trkpt lat="45.01921" lon="6.0442">
        <ele>1509.4</ele>
        <time>2020-09-05T11:00:03Z</time>
      </trkpt>
      <trkpt lat="45.01924" lon="6.04421">
        <ele>1509.6</ele>
        <time>2020-09-05T11:00:04Z</time>
      </trkpt>
      <trkpt lat="45.01926" lon="6.04422">
        <ele>1509.8</ele>
        <time>2020-09-05T11:00:05Z</time>
      </trkpt>
      <trkpt lat="45.01929" lon="6.04423">
        <ele>1510</ele>
        <time>2020-09-05T11:00:06Z</time>
      </trkpt>
      <trkpt lat="45.01931" lon="6.04424">
        <ele>1510.4</ele>
        <time>2020-09-05T11:00:07Z</time>
      </trkpt>
      <trkpt lat="45.01934" lon="6.04425">
        <ele>1510.6</ele>
        <time>2020-09-05T11:00:08Z</time>
      </trkpt>
      <trkpt lat="45.01937" lon="6.04425">
        <ele>1511</ele>
        <time>2020-09-05T11:00:09Z</time>
      </trkpt>
      <trkpt lat="45.01939" lon="6.04426">
        <ele>1511.2</ele>
        <time>2020-09-05T11:00:10Z</time>
      </trkpt>
      <trkpt lat="45.01942" lon="6.04426">
        <ele>1511.8</ele>
        <time>2020-09-05T11:00:11Z</time>
      </trkpt>
      <trkpt lat="45.01944" lon="6.04425">
        <ele>1512</ele>
        <time>2020-09-05T11:00:12Z</time>
      </trkpt>
      <trkpt lat="45.01947" lon="6.04425">
        <ele>1512</ele>
        <time>2020-09-05T11:00:13Z</time>
      </trkpt>
      <trkpt lat="45.01949" lon="6.04424">
        <ele>1512.4</ele>
        <time>2020-09-05T11:00:14Z</time>
      </trkpt>
      <trkpt lat="45.01951" lon="6.04422">
        <ele>1512.8</ele>
        <time>2020-09-05T11:00:15Z</time>
      </trkpt>
      <trkpt lat="45.01954" lon="6.0442">
        <ele>1513.2</ele>
        <time>2020-09-05T11:00:16Z</time>
      </trkpt>
      <trkpt lat="45.01956" lon="6.04419">
        <ele>1513.4</ele>
        <time>2020-09-05T11:00:17Z</time>
      </trkpt>
      <trkpt lat="45.01958" lon="6.04417">
        <ele>1513.8</ele>
        <time>2020-09-05T11:00:18Z</time>
      </trkpt>
      <trkpt lat="45.0196" lon="6.04415">
        <ele>1514</ele>
        <time>2020-09-05T11:00:19Z</time>
      </trkpt>
      <trkpt lat="45.01963" lon="6.04413">
        <ele>1514.2</ele>
        <time>2020-09-05T11:00:20Z</time>
      </trkpt>
      <trkpt lat="45.01965" lon="6.0441">
        <ele>1514.6</ele>
        <time>2020-09-05T11:00:21Z</time>
      </trkpt>
      <trkpt lat="45.01967" lon="6.04408">
        <ele>1514.8</ele>
        <time>2020-09-05T11:00:22Z</time>
      </trkpt>
      <trkpt lat="45.0197" lon="6.04405">
        <ele>1515</ele>
        <time>2020-09-05T11:00:23Z</time>
      </trkpt>
      <trkpt lat="45.01972" lon="6.04402">
        <ele>1515.2</ele>
        <time>2020-09-05T11:00:24Z</time>
      </trkpt>
      <trkpt lat="45.01974" lon="6.04399">
        <ele>1515.8</ele>
        <time>2020-09-05T11:00:25Z</time>
      </trkpt>
      <trkpt lat="45.01976" lon="6.04396">
        <ele>1516.2</ele>
        <time>2020-09-05T11:00:26Z</time>
      </trkpt>
      <trkpt lat="45.01978" lon="6.04393">
        <ele>1516.4</ele>
        <time>2020-09-05T11:00:27Z</time>
      </trkpt>
      <trkpt lat="45.01981" lon="6.04389">
        <ele>1516.8</ele>
        <time>2020-09-05T11:00:28Z</time>
      </trkpt>
      <trkpt lat="45.01983" lon="6.04386">
        <ele>1517</ele>
        <time>2020-09-05T11:00:29Z</time>
      </trkpt>
      <trkpt lat="45.01985" lon="6.04383">
        <ele>1517.2</ele>
        <time>2020-09-05T11:00:30Z</time>
      </trkpt>
      <trkpt lat="45.01988" lon="6.0438">
        <ele>1517</ele>
        <time>2020-09-05T11:00:31Z</time>
      </trkpt>
      <trkpt lat="45.0199" lon="6.04377">
        <ele>1517</ele>
        <time>2020-09-05T11:00:32Z</time>
      </trkpt>
      <trkpt lat="45.01992" lon="6.04374">
        <ele>1517.4</ele>
        <time>2020-09-05T11:00:33Z</time>
      </trkpt>
      <trkpt lat="45.01994" lon="6.0437">
        <ele>1517.4</ele>
        <time>2020-09-05T11:00:34Z</time>
      </trkpt>
      <trkpt lat="45.01995" lon="6.04365">
        <ele>1517.6</ele>
        <time>2020-09-05T11:00:35Z</time>
      </trkpt>
      <trkpt lat="45.01993" lon="6.0436">
        <ele>1517.8</ele>
        <time>2020-09-05T11:00:36Z</time>
      </trkpt>
      <trkpt lat="45.01991" lon="6.04358">
        <ele>1518</ele>
        <time>2020-09-05T11:00:37Z</time>
      </trkpt>
      <trkpt lat="45.01987" lon="6.04358">
        <ele>1518.4</ele>
        <time>2020-09-05T11:00:38Z</time>
      </trkpt>
      <trkpt lat="45.01984" lon="6.0436">
        <ele>1518.6</ele>
        <time>2020-09-05T11:00:39Z</time>
      </trkpt>
      <trkpt lat="45.01982" lon="6.04363">
        <ele>1518.8</ele>
        <time>2020-09-05T11:00:40Z</time>
      </trkpt>
      <trkpt lat="45.01979" lon="6.04366">
        <ele>1519</ele>
        <time>2020-09-05T11:00:41Z</time>
      </trkpt>
      <trkpt lat="45.01977" lon="6.04369">
        <ele>1519.4</ele>
        <time>2020-09-05T11:00:42Z</time>
      </trkpt>
      <trkpt lat="45.01974" lon="6.04371">
        <ele>1519.6</ele>
        <time>2020-09-05T11:00:43Z</time>
      </trkpt>
      <trkpt lat="45.01972" lon="6.04373">
        <ele>1520</ele>
        <time>2020-09-05T11:00:44Z</time>
      </trkpt>
      <trkpt lat="45.01969" lon="6.04375">
        <ele>1520.2</ele>
        <time>2020-09-05T11:00:45Z</time>
      </trkpt>
      <trkpt lat="45.01966" lon="6.04375">
        <ele>1520.4</ele>
        <time>2020-09-05T11:00:46Z</time>
      </trkpt>
      <trkpt lat="45.01963" lon="6.04375">
        <ele>1520.6</ele>
        <time>2020-09-05T11:00:47Z</time>
      </trkpt>
      <trkpt lat="45.0196" lon="6.04374">
        <ele>1520.6</ele>
        <time>2020-09-05T11:00:48Z</time>
      </trkpt>
      <trkpt lat="45.01958" lon="6.04372">
        <ele>1520.8</ele>
        <time>2020-09-05T11:00:49Z</time>
      </trkpt>
      <trkpt lat="45.01955" lon="6.04371">
        <ele>1521</ele>
        <time>2020-09-05T11:00:50Z</time>
      </trkpt>
      <trkpt lat="45.01953" lon="6.0437">
        <ele>1521.2</ele>
        <time>2020-09-05T11:00:51Z</time>
      </trkpt>
      <trkpt lat="45.01951" lon="6.04368">
        <ele>1521.2</ele>
        <time>2020-09-05T11:00:52Z</time>
      </trkpt>
      <trkpt lat="45.0195" lon="6.04366">
        <ele>1521.6</ele>
        <time>2020-09-05T11:00:53Z</time>
      </trkpt>
      <trkpt lat="45.01949" lon="6.04364">
        <ele>1521.8</ele>
        <time>2020-09-05T11:00:54Z</time>
      </trkpt>
      <trkpt lat="45.01947" lon="6.04361">
        <ele>1522.2</ele>
        <time>2020-09-05T11:00:55Z</time>
      </trkpt>
      <trkpt lat="45.01946" lon="6.0436">
        <ele>1522.2</ele>
        <time>2020-09-05T11:00:56Z</time>
      </trkpt>
      <trkpt lat="45.01943" lon="6.0436">
        <ele>1522.4</ele>
        <time>2020-09-05T11:00:58Z</time>
      </trkpt>
      <trkpt lat="45.01942" lon="6.04363">
        <ele>1522.4</ele>
        <time>2020-09-05T11:00:59Z</time>
      </trkpt>
      <trkpt lat="45.01943" lon="6.04366">
        <ele>1522.4</ele>
        <time>2020-09-05T11:01:00Z</time>
      </trkpt>
      <trkpt lat="45.01944" lon="6.04368">
        <ele>1522.4</ele>
        <time>2020-09-05T11:01:01Z</time>
      </trkpt>
      <trkpt lat="45.01947" lon="6.0437">
        <ele>1522.4</ele>
        <time>2020-09-05T11:01:03Z</time>
      </trkpt>
      <trkpt lat="45.01949" lon="6.0437">
        <ele>1522.2</ele>
        <time>2020-09-05T11:01:17Z</time>
      </trkpt>
      <trkpt lat="45.01951" lon="6.04368">
        <ele>1522.2</ele>
        <time>2020-09-05T11:01:19Z</time>
      </trkpt>
      <trkpt lat="45.01952" lon="6.04364">
        <ele>1522</ele>
        <time>2020-09-05T11:01:21Z</time>
      </trkpt>
      <trkpt lat="45.01952" lon="6.04361">
        <ele>1522</ele>
        <time>2020-09-05T11:01:22Z</time>
      </trkpt>
      <trkpt lat="45.01951" lon="6.04357">
        <ele>1522</ele>
        <time>2020-09-05T11:01:23Z</time>
      </trkpt>
      <trkpt lat="45.0195" lon="6.04353">
        <ele>1522.2</ele>
        <time>2020-09-05T11:01:24Z</time>
      </trkpt>
      <trkpt lat="45.0195" lon="6.0435">
        <ele>1522.8</ele>
        <time>2020-09-05T11:01:25Z</time>
      </trkpt>
      <trkpt lat="45.01949" lon="6.04346">
        <ele>1523</ele>
        <time>2020-09-05T11:01:26Z</time>
      </trkpt>
      <trkpt lat="45.01949" lon="6.04342">
        <ele>1523</ele>
        <time>2020-09-05T11:01:27Z</time>
      </trkpt>
      <trkpt lat="45.01948" lon="6.04338">
        <ele>1523.4</ele>
        <time>2020-09-05T11:01:28Z</time>
      </trkpt>
      <trkpt lat="45.01948" lon="6.04334">
        <ele>1523.8</ele>
        <time>2020-09-05T11:01:29Z</time>
      </trkpt>
      <trkpt lat="45.01947" lon="6.04329">
        <ele>1523.8</ele>
        <time>2020-09-05T11:01:30Z</time>
      </trkpt>
      <trkpt lat="45.01946" lon="6.04325">
        <ele>1524</ele>
        <time>2020-09-05T11:01:31Z</time>
      </trkpt>
      <trkpt lat="45.01944" lon="6.0432">
        <ele>1524.4</ele>
        <time>2020-09-05T11:01:32Z</time>
      </trkpt>
      <trkpt lat="45.01943" lon="6.04316">
        <ele>1524.4</ele>
        <time>2020-09-05T11:01:33Z</time>
      </trkpt>
      <trkpt lat="45.01941" lon="6.04311">
        <ele>1524.8</ele>
        <time>2020-09-05T11:01:34Z</time>
      </trkpt>
      <trkpt lat="45.0194" lon="6.04307">
        <ele>1525</ele>
        <time>2020-09-05T11:01:35Z</time>
      </trkpt>
      <trkpt lat="45.01938" lon="6.04304">
        <ele>1525.2</ele>
        <time>2020-09-05T11:01:36Z</time>
      </trkpt>
      <trkpt lat="45.01936" lon="6.04301">
        <ele>1525.6</ele>
        <time>2020-09-05T11:01:37Z</time>
      </trkpt>
      <trkpt lat="45.01934" lon="6.04298">
        <ele>1525.8</ele>
        <time>2020-09-05T11:01:38Z</time>
      </trkpt>
      <trkpt lat="45.01932" lon="6.04295">
        <ele>1526.2</ele>
        <time>2020-09-05T11:01:39Z</time>
      </trkpt>
      <trkpt lat="45.0193" lon="6.04292">
        <ele>1526.4</ele>
        <time>2020-09-05T11:01:40Z</time>
      </trkpt>
      <trkpt lat="45.01928" lon="6.04289">
        <ele>1526.6</ele>
        <time>2020-09-05T11:01:41Z</time>
      </trkpt>
      <trkpt lat="45.01927" lon="6.04286">
        <ele>1526.8</ele>
        <time>2020-09-05T11:01:42Z</time>
      </trkpt>
      <trkpt lat="45.01925" lon="6.04283">
        <ele>1526.8</ele>
        <time>2020-09-05T11:01:43Z</time>
      </trkpt>
      <trkpt lat="45.01923" lon="6.0428">
        <ele>1526.8</ele>
        <time>2020-09-05T11:01:44Z</time>
      </trkpt>
      <trkpt lat="45.01921" lon="6.04277">
        <ele>1527.2</ele>
        <time>2020-09-05T11:01:45Z</time>
      </trkpt>
      <trkpt lat="45.01919" lon="6.04274">
        <ele>1527.4</ele>
        <time>2020-09-05T11:01:46Z</time>
      </trkpt>
      <trkpt lat="45.01917" lon="6.04271">
        <ele>1527.6</ele>
        <time>2020-09-05T11:01:47Z</time>
      </trkpt>
      <trkpt lat="45.01915" lon="6.04268">
        <ele>1528</ele>
        <time>2020-09-05T11:01:48Z</time>
      </trkpt>
      <trkpt lat="45.01913" lon="6.04265">
        <ele>1528.2</ele>
        <time>2020-09-05T11:01:49Z</time>
      </trkpt>
      <trkpt lat="45.01911" lon="6.04262">
        <ele>1528.4</ele>
        <time>2020-09-05T11:01:50Z</time>
      </trkpt>
      <trkpt lat="45.01909" lon="6.0426">
        <ele>1528.6</ele>
        <time>2020-09-05T11:01:51Z</time>
      </trkpt>
      <trkpt lat="45.01908" lon="6.04257">
        <ele>1528.6</ele>
        <time>2020-09-05T11:01:52Z</time>
      </trkpt>
      <trkpt lat="45.01906" lon="6.04254">
        <ele>1528.6</ele>
        <time>2020-09-05T11:01:53Z</time>
      </trkpt>
      <trkpt lat="45.01904" lon="6.04251">
        <ele>1528.8</ele>
        <time>2020-09-05T11:01:54Z</time>
      </trkpt>
      <trkpt lat="45.01903" lon="6.04249">
        <ele>1528.8</ele>
        <time>2020-09-05T11:01:55Z</time>
      </trkpt>
      <trkpt lat="45.01901" lon="6.04246">
        <ele>1529</ele>
        <time>2020-09-05T11:01:56Z</time>
      </trkpt>
      <trkpt lat="45.01899" lon="6.04243">
        <ele>1529.4</ele>
        <time>2020-09-05T11:01:57Z</time>
      </trkpt>
      <trkpt lat="45.01898" lon="6.0424">
        <ele>1529.6</ele>
        <time>2020-09-05T11:01:58Z</time>
      </trkpt>
      <trkpt lat="45.01896" lon="6.04238">
        <ele>1529.8</ele>
        <time>2020-09-05T11:01:59Z</time>
      </trkpt>
      <trkpt lat="45.01894" lon="6.04235">
        <ele>1530</ele>
        <time>2020-09-05T11:02:00Z</time>
      </trkpt>
      <trkpt lat="45.01893" lon="6.04232">
        <ele>1530.2</ele>
        <time>2020-09-05T11:02:01Z</time>
      </trkpt>
      <trkpt lat="45.01891" lon="6.04229">
        <ele>1530.4</ele>
        <time>2020-09-05T11:02:02Z</time>
      </trkpt>
      <trkpt lat="45.01889" lon="6.04226">
        <ele>1530.6</ele>
        <time>2020-09-05T11:02:03Z</time>
      </trkpt>
      <trkpt lat="45.01887" lon="6.04223">
        <ele>1530.4</ele>
        <time>2020-09-05T11:02:04Z</time>
      </trkpt>
      <trkpt lat="45.01884" lon="6.0422">
        <ele>1530.6</ele>
        <time>2020-09-05T11:02:05Z</time>
      </trkpt>
      <trkpt lat="45.01882" lon="6.04217">
        <ele>1530.8</ele>
        <time>2020-09-05T11:02:06Z</time>
      </trkpt>
      <trkpt lat="45.0188" lon="6.04214">
        <ele>1530.8</ele>
        <time>2020-09-05T11:02:07Z</time>
      </trkpt>
      <trkpt lat="45.01879" lon="6.0421">
        <ele>1530.8</ele>
        <time>2020-09-05T11:02:08Z</time>
      </trkpt>
      <trkpt lat="45.01877" lon="6.04207">
        <ele>1531</ele>
        <time>2020-09-05T11:02:09Z</time>
      </trkpt>
      <trkpt lat="45.01876" lon="6.04203">
        <ele>1531</ele>
        <time>2020-09-05T11:02:10Z</time>
      </trkpt>
      <trkpt lat="45.01875" lon="6.042">
        <ele>1531.2</ele>
        <time>2020-09-05T11:02:11Z</time>
      </trkpt>
      <trkpt lat="45.01874" lon="6.04196">
        <ele>1531.2</ele>
        <time>2020-09-05T11:02:12Z</time>
      </trkpt>
      <trkpt lat="45.01873" lon="6.04193">
        <ele>1531.2</ele>
        <time>2020-09-05T11:02:13Z</time>
      </trkpt>
      <trkpt lat="45.01873" lon="6.04189">
        <ele>1531</ele>
        <time>2020-09-05T11:02:14Z</time>
      </trkpt>
      <trkpt lat="45.01872" lon="6.04186">
        <ele>1531</ele>
        <time>2020-09-05T11:02:15Z</time>
      </trkpt>
      <trkpt lat="45.01872" lon="6.04182">
        <ele>1531.2</ele>
        <time>2020-09-05T11:02:16Z</time>
      </trkpt>
      <trkpt lat="45.01872" lon="6.04178">
        <ele>1531.4</ele>
        <time>2020-09-05T11:02:17Z</time>
      </trkpt>
      <trkpt lat="45.01872" lon="6.04173">
        <ele>1531.6</ele>
        <time>2020-09-05T11:02:18Z</time>
      </trkpt>
      <trkpt lat="45.01872" lon="6.04168">
        <ele>1531.8</ele>
        <time>2020-09-05T11:02:19Z</time>
      </trkpt>
      <trkpt lat="45.01871" lon="6.04164">
        <ele>1532.2</ele>
        <time>2020-09-05T11:02:20Z</time>
      </trkpt>
      <trkpt lat="45.01871" lon="6.04159">
        <ele>1532.2</ele>
        <time>2020-09-05T11:02:21Z</time>
      </trkpt>
      <trkpt lat="45.01871" lon="6.04155">
        <ele>1532.2</ele>
        <time>2020-09-05T11:02:22Z</time>
      </trkpt>
      <trkpt lat="45.01871" lon="6.0415">
        <ele>1532.2</ele>
        <time>2020-09-05T11:02:23Z</time>
      </trkpt>
      <trkpt lat="45.01872" lon="6.04146">
        <ele>1532.2</ele>
        <time>2020-09-05T11:02:24Z</time>
      </trkpt>
      <trkpt lat="45.01872" lon="6.04142">
        <ele>1532.4</ele>
        <time>2020-09-05T11:02:25Z</time>
      </trkpt>
      <trkpt lat="45.01872" lon="6.04138">
        <ele>1532.6</ele>
        <time>2020-09-05T11:02:26Z</time>
      </trkpt>
      <trkpt lat="45.01872" lon="6.04133">
        <ele>1533</ele>
        <time>2020-09-05T11:02:27Z</time>
      </trkpt>
      <trkpt lat="45.01872" lon="6.04129">
        <ele>1533.2</ele>
        <time>2020-09-05T11:02:28Z</time>
      </trkpt>
      <trkpt lat="45.01873" lon="6.04126">
        <ele>1533.6</ele>
        <time>2020-09-05T11:02:29Z</time>
      </trkpt>
      <trkpt lat="45.01873" lon="6.04122">
        <ele>1533.6</ele>
        <time>2020-09-05T11:02:30Z</time>
      </trkpt>
      <trkpt lat="45.01874" lon="6.04118">
        <ele>1534.2</ele>
        <time>2020-09-05T11:02:31Z</time>
      </trkpt>
      <trkpt lat="45.01874" lon="6.04115">
        <ele>1534.2</ele>
        <time>2020-09-05T11:02:32Z</time>
      </trkpt>
      <trkpt lat="45.01875" lon="6.04111">
        <ele>1534.6</ele>
        <time>2020-09-05T11:02:33Z</time>
      </trkpt>
      <trkpt lat="45.01876" lon="6.04108">
        <ele>1535.2</ele>
        <time>2020-09-05T11:02:34Z</time>
      </trkpt>
      <trkpt lat="45.01876" lon="6.04105">
        <ele>1535.8</ele>
        <time>2020-09-05T11:02:35Z</time>
      </trkpt>
      <trkpt lat="45.01877" lon="6.04101">
        <ele>1536.2</ele>
        <time>2020-09-05T11:02:36Z</time>
      </trkpt>
      <trkpt lat="45.01878" lon="6.04098">
        <ele>1536.8</ele>
        <time>2020-09-05T11:02:37Z</time>
      </trkpt>
      <trkpt lat="45.01878" lon="6.04096">
        <ele>1537</ele>
        <time>2020-09-05T11:02:38Z</time>
      </trkpt>
      <trkpt lat="45.01879" lon="6.04093">
        <ele>1537.4</ele>
        <time>2020-09-05T11:02:39Z</time>
      </trkpt>
      <trkpt lat="45.0188" lon="6.04091">
        <ele>1537.6</ele>
        <time>2020-09-05T11:02:40Z</time>
      </trkpt>
      <trkpt lat="45.01881" lon="6.04088">
        <ele>1538</ele>
        <time>2020-09-05T11:02:41Z</time>
      </trkpt>
      <trkpt lat="45.01883" lon="6.04086">
        <ele>1538.4</ele>
        <time>2020-09-05T11:02:42Z</time>
      </trkpt>
      <trkpt lat="45.01884" lon="6.04084">
        <ele>1538.6</ele>
        <time>2020-09-05T11:02:43Z</time>
      </trkpt>
      <trkpt lat="45.01885" lon="6.04081">
        <ele>1538.8</ele>
        <time>2020-09-05T11:02:44Z</time>
      </trkpt>
      <trkpt lat="45.01887" lon="6.04078">
        <ele>1539.2</ele>
        <time>2020-09-05T11:02:45Z</time>
      </trkpt>
      <trkpt lat="45.01888" lon="6.04075">
        <ele>1539.2</ele>
        <time>2020-09-05T11:02:46Z</time>
      </trkpt>
      <trkpt lat="45.01889" lon="6.04072">
        <ele>1539.4</ele>
        <time>2020-09-05T11:02:47Z</time>
      </trkpt>
      <trkpt lat="45.0189" lon="6.04069">
        <ele>1539.6</ele>
        <time>2020-09-05T11:02:48Z</time>
      </trkpt>
      <trkpt lat="45.01891" lon="6.04066">
        <ele>1539.8</ele>
        <time>2020-09-05T11:02:49Z</time>
      </trkpt>
      <trkpt lat="45.01893" lon="6.04063">
        <ele>1540</ele>
        <time>2020-09-05T11:02:50Z</time>
      </trkpt>
      <trkpt lat="45.01894" lon="6.0406">
        <ele>1540</ele>
        <time>2020-09-05T11:02:51Z</time>
      </trkpt>
      <trkpt lat="45.01895" lon="6.04057">
        <ele>1540.4</ele>
        <time>2020-09-05T11:02:52Z</time>
      </trkpt>
      <trkpt lat="45.01896" lon="6.04053">
        <ele>1540.6</ele>
        <time>2020-09-05T11:02:53Z</time>
      </trkpt>
      <trkpt lat="45.01897" lon="6.0405">
        <ele>1540.6</ele>
        <time>2020-09-05T11:02:54Z</time>
      </trkpt>
      <trkpt lat="45.01898" lon="6.04046">
        <ele>1541</ele>
        <time>2020-09-05T11:02:55Z</time>
      </trkpt>
      <trkpt lat="45.01899" lon="6.04042">
        <ele>1541.2</ele>
        <time>2020-09-05T11:02:56Z</time>
      </trkpt>
      <trkpt lat="45.019" lon="6.04038">
        <ele>1541.2</ele>
        <time>2020-09-05T11:02:57Z</time>
      </trkpt>
      <trkpt lat="45.01901" lon="6.04034">
        <ele>1541.4</ele>
        <time>2020-09-05T11:02:58Z</time>
      </trkpt>
      <trkpt lat="45.01902" lon="6.0403">
        <ele>1541.6</ele>
        <time>2020-09-05T11:02:59Z</time>
      </trkpt>
      <trkpt lat="45.01903" lon="6.04026">
        <ele>1541.8</ele>
        <time>2020-09-05T11:03:00Z</time>
      </trkpt>
      <trkpt lat="45.01903" lon="6.04022">
        <ele>1541.8</ele>
        <time>2020-09-05T11:03:01Z</time>
      </trkpt>
      <trkpt lat="45.01904" lon="6.04017">
        <ele>1542.2</ele>
        <time>2020-09-05T11:03:02Z</time>
      </trkpt>
      <trkpt lat="45.01904" lon="6.04013">
        <ele>1542.2</ele>
        <time>2020-09-05T11:03:03Z</time>
      </trkpt>
      <trkpt lat="45.01904" lon="6.04009">
        <ele>1542.4</ele>
        <time>2020-09-05T11:03:04Z</time>
      </trkpt>
      <trkpt lat="45.01904" lon="6.04004">
        <ele>1542.4</ele>
        <time>2020-09-05T11:03:05Z</time>
      </trkpt>
      <trkpt lat="45.01903" lon="6.04">
        <ele>1542.4</ele>
        <time>2020-09-05T11:03:06Z</time>
      </trkpt>
      <trkpt lat="45.01903" lon="6.03996">
        <ele>1543</ele>
        <time>2020-09-05T11:03:07Z</time>
      </trkpt>
      <trkpt lat="45.01903" lon="6.03992">
        <ele>1543.2</ele>
        <time>2020-09-05T11:03:08Z</time>
      </trkpt>
      <trkpt lat="45.01903" lon="6.03988">
        <ele>1543.4</ele>
        <time>2020-09-05T11:03:09Z</time>
      </trkpt>
      <trkpt lat="45.01903" lon="6.03985">
        <ele>1543.6</ele>
        <time>2020-09-05T11:03:10Z</time>
      </trkpt>
      <trkpt lat="45.01902" lon="6.03982">
        <ele>1543.8</ele>
        <time>2020-09-05T11:03:11Z</time>
      </trkpt>
      <trkpt lat="45.01902" lon="6.03979">
        <ele>1543.8</ele>
        <time>2020-09-05T11:03:12Z</time>
      </trkpt>
      <trkpt lat="45.01902" lon="6.03975">
        <ele>1544.2</ele>
        <time>2020-09-05T11:03:13Z</time>
      </trkpt>
      <trkpt lat="45.01901" lon="6.03972">
        <ele>1544.4</ele>
        <time>2020-09-05T11:03:14Z</time>
      </trkpt>
      <trkpt lat="45.01901" lon="6.03969">
        <ele>1544.8</ele>
        <time>2020-09-05T11:03:15Z</time>
      </trkpt>
      <trkpt lat="45.01901" lon="6.03966">
        <ele>1545</ele>
        <time>2020-09-05T11:03:16Z</time>
      </trkpt>
      <trkpt lat="45.01901" lon="6.03964">
        <ele>1545.4</ele>
        <time>2020-09-05T11:03:17Z</time>
      </trkpt>
      <trkpt lat="45.019" lon="6.03961">
        <ele>1545.4</ele>
        <time>2020-09-05T11:03:18Z</time>
      </trkpt>
      <trkpt lat="45.019" lon="6.03957">
        <ele>1545.8</ele>
        <time>2020-09-05T11:03:19Z</time>
      </trkpt>
      <trkpt lat="45.019" lon="6.03954">
        <ele>1546</ele>
        <time>2020-09-05T11:03:20Z</time>
      </trkpt>
      <trkpt lat="45.01899" lon="6.03951">
        <ele>1546.4</ele>
        <time>2020-09-05T11:03:21Z</time>
      </trkpt>
      <trkpt lat="45.01899" lon="6.03947">
        <ele>1546.6</ele>
        <time>2020-09-05T11:03:22Z</time>
      </trkpt>
      <trkpt lat="45.01899" lon="6.03944">
        <ele>1546.8</ele>
        <time>2020-09-05T11:03:23Z</time>
      </trkpt>
      <trkpt lat="45.01899" lon="6.03941">
        <ele>1547</ele>
        <time>2020-09-05T11:03:24Z</time>
      </trkpt>
      <trkpt lat="45.01899" lon="6.03937">
        <ele>1547.4</ele>
        <time>2020-09-05T11:03:25Z</time>
      </trkpt>
      <trkpt lat="45.01899" lon="6.03934">
        <ele>1547.6</ele>
        <time>2020-09-05T11:03:26Z</time>
      </trkpt>
      <trkpt lat="45.01899" lon="6.03931">
        <ele>1547.8</ele>
        <time>2020-09-05T11:03:27Z</time>
      </trkpt>
      <trkpt lat="45.01899" lon="6.03928">
        <ele>1548</ele>
        <time>2020-09-05T11:03:28Z</time>
      </trkpt>
      <trkpt lat="45.01899" lon="6.03924">
        <ele>1548.4</ele>
        <time>2020-09-05T11:03:29Z</time>
      </trkpt>
      <trkpt lat="45.019" lon="6.03921">
        <ele>1548.8</ele>
        <time>2020-09-05T11:03:30Z</time>
      </trkpt>
      <trkpt lat="45.019" lon="6.03918">
        <ele>1549</ele>
        <time>2020-09-05T11:03:31Z</time>
      </trkpt>
      <trkpt lat="45.01901" lon="6.03914">
        <ele>1549.2</ele>
        <time>2020-09-05T11:03:32Z</time>
      </trkpt>
      <trkpt lat="45.01902" lon="6.03911">
        <ele>1549.4</ele>
        <time>2020-09-05T11:03:33Z</time>
      </trkpt>
      <trkpt lat="45.01902" lon="6.03907">
        <ele>1549.6</ele>
        <time>2020-09-05T11:03:34Z</time>
      </trkpt>
      <trkpt lat="45.01903" lon="6.03904">
        <ele>1550</ele>
        <time>2020-09-05T11:03:35Z</time>
      </trkpt>
      <trkpt lat="45.01904" lon="6.039">
        <ele>1550</ele>
        <time>2020-09-05T11:03:36Z</time>
      </trkpt>
      <trkpt lat="45.01905" lon="6.03897">
        <ele>1550.2</ele>
        <time>2020-09-05T11:03:37Z</time>
      </trkpt>
      <trkpt lat="45.01906" lon="6.03894">
        <ele>1550.6</ele>
        <time>2020-09-05T11:03:38Z</time>
      </trkpt>
      <trkpt lat="45.01908" lon="6.03891">
        <ele>1550.8</ele>
        <time>2020-09-05T11:03:39Z</time>
      </trkpt>
      <trkpt lat="45.01909" lon="6.03887">
        <ele>1551</ele>
        <time>2020-09-05T11:03:40Z</time>
      </trkpt>
      <trkpt lat="45.01911" lon="6.03884">
        <ele>1551.2</ele>
        <time>2020-09-05T11:03:41Z</time>
      </trkpt>
      <trkpt lat="45.01912" lon="6.03881">
        <ele>1551.6</ele>
        <time>2020-09-05T11:03:42Z</time>
      </trkpt>
      <trkpt lat="45.01913" lon="6.03878">
        <ele>1551.8</ele>
        <time>2020-09-05T11:03:43Z</time>
      </trkpt>
      <trkpt lat="45.01914" lon="6.03875">
        <ele>1552.2</ele>
        <time>2020-09-05T11:03:44Z</time>
      </trkpt>
      <trkpt lat="45.01916" lon="6.03872">
        <ele>1552.2</ele>
        <time>2020-09-05T11:03:45Z</time>
      </trkpt>
      <trkpt lat="45.01917" lon="6.03868">
        <ele>1552.2</ele>
        <time>2020-09-05T11:03:46Z</time>
      </trkpt>
      <trkpt lat="45.01918" lon="6.03865">
        <ele>1552.6</ele>
        <time>2020-09-05T11:03:47Z</time>
      </trkpt>
      <trkpt lat="45.01919" lon="6.03862">
        <ele>1553</ele>
        <time>2020-09-05T11:03:48Z</time>
      </trkpt>
      <trkpt lat="45.0192" lon="6.03858">
        <ele>1553.2</ele>
        <time>2020-09-05T11:03:49Z</time>
      </trkpt>
      <trkpt lat="45.0192" lon="6.03855">
        <ele>1553.6</ele>
        <time>2020-09-05T11:03:50Z</time>
      </trkpt>
      <trkpt lat="45.01921" lon="6.03852">
        <ele>1553.6</ele>
        <time>2020-09-05T11:03:51Z</time>
      </trkpt>
      <trkpt lat="45.01922" lon="6.03848">
        <ele>1553.6</ele>
        <time>2020-09-05T11:03:52Z</time>
      </trkpt>
      <trkpt lat="45.01923" lon="6.03845">
        <ele>1553.4</ele>
        <time>2020-09-05T11:03:53Z</time>
      </trkpt>
      <trkpt lat="45.01923" lon="6.03841">
        <ele>1553.6</ele>
        <time>2020-09-05T11:03:54Z</time>
      </trkpt>
      <trkpt lat="45.01923" lon="6.03837">
        <ele>1553.8</ele>
        <time>2020-09-05T11:03:55Z</time>
      </trkpt>
      <trkpt lat="45.01923" lon="6.03832">
        <ele>1554</ele>
        <time>2020-09-05T11:03:56Z</time>
      </trkpt>
      <trkpt lat="45.01922" lon="6.03828">
        <ele>1554</ele>
        <time>2020-09-05T11:03:57Z</time>
      </trkpt>
      <trkpt lat="45.01921" lon="6.03823">
        <ele>1553.8</ele>
        <time>2020-09-05T11:03:58Z</time>
      </trkpt>
      <trkpt lat="45.01919" lon="6.03819">
        <ele>1553.6</ele>
        <time>2020-09-05T11:03:59Z</time>
      </trkpt>
      <trkpt lat="45.01916" lon="6.03816">
        <ele>1553.6</ele>
        <time>2020-09-05T11:04:00Z</time>
      </trkpt>
      <trkpt lat="45.01914" lon="6.03813">
        <ele>1553.6</ele>
        <time>2020-09-05T11:04:01Z</time>
      </trkpt>
      <trkpt lat="45.01911" lon="6.0381">
        <ele>1553.6</ele>
        <time>2020-09-05T11:04:02Z</time>
      </trkpt>
      <trkpt lat="45.01908" lon="6.03807">
        <ele>1553.8</ele>
        <time>2020-09-05T11:04:03Z</time>
      </trkpt>
      <trkpt lat="45.01905" lon="6.03805">
        <ele>1553.6</ele>
        <time>2020-09-05T11:04:04Z</time>
      </trkpt>
      <trkpt lat="45.01902" lon="6.03803">
        <ele>1554</ele>
        <time>2020-09-05T11:04:05Z</time>
      </trkpt>
      <trkpt lat="45.01899" lon="6.038">
        <ele>1554</ele>
        <time>2020-09-05T11:04:06Z</time>
      </trkpt>
      <trkpt lat="45.01897" lon="6.03798">
        <ele>1553.8</ele>
        <time>2020-09-05T11:04:07Z</time>
      </trkpt>
      <trkpt lat="45.01894" lon="6.03796">
        <ele>1554.2</ele>
        <time>2020-09-05T11:04:08Z</time>
      </trkpt>
      <trkpt lat="45.01892" lon="6.03795">
        <ele>1554.6</ele>
        <time>2020-09-05T11:04:09Z</time>
      </trkpt>
      <trkpt lat="45.01889" lon="6.03793">
        <ele>1555</ele>
        <time>2020-09-05T11:04:10Z</time>
      </trkpt>
      <trkpt lat="45.01886" lon="6.03791">
        <ele>1555.2</ele>
        <time>2020-09-05T11:04:11Z</time>
      </trkpt>
      <trkpt lat="45.01883" lon="6.03788">
        <ele>1555.2</ele>
        <time>2020-09-05T11:04:12Z</time>
      </trkpt>
      <trkpt lat="45.0188" lon="6.03786">
        <ele>1555.6</ele>
        <time>2020-09-05T11:04:13Z</time>
      </trkpt>
      <trkpt lat="45.01877" lon="6.03784">
        <ele>1555.8</ele>
        <time>2020-09-05T11:04:14Z</time>
      </trkpt>
      <trkpt lat="45.01875" lon="6.03782">
        <ele>1556</ele>
        <time>2020-09-05T11:04:15Z</time>
      </trkpt>
      <trkpt lat="45.01872" lon="6.0378">
        <ele>1556.2</ele>
        <time>2020-09-05T11:04:16Z</time>
      </trkpt>
      <trkpt lat="45.0187" lon="6.03778">
        <ele>1556.6</ele>
        <time>2020-09-05T11:04:17Z</time>
      </trkpt>
      <trkpt lat="45.01867" lon="6.03776">
        <ele>1556.8</ele>
        <time>2020-09-05T11:04:18Z</time>
      </trkpt>
      <trkpt lat="45.01864" lon="6.03774">
        <ele>1556.8</ele>
        <time>2020-09-05T11:04:19Z</time>
      </trkpt>
      <trkpt lat="45.01861" lon="6.03772">
        <ele>1557.2</ele>
        <time>2020-09-05T11:04:20Z</time>
      </trkpt>
      <trkpt lat="45.01859" lon="6.0377">
        <ele>1557.4</ele>
        <time>2020-09-05T11:04:21Z</time>
      </trkpt>
      <trkpt lat="45.01856" lon="6.03769">
        <ele>1557.2</ele>
        <time>2020-09-05T11:04:22Z</time>
      </trkpt>
      <trkpt lat="45.01853" lon="6.03768">
        <ele>1557.6</ele>
        <time>2020-09-05T11:04:23Z</time>
      </trkpt>
      <trkpt lat="45.0185" lon="6.03767">
        <ele>1557.6</ele>
        <time>2020-09-05T11:04:24Z</time>
      </trkpt>
      <trkpt lat="45.01848" lon="6.03766">
        <ele>1557.8</ele>
        <time>2020-09-05T11:04:25Z</time>
      </trkpt>
      <trkpt lat="45.01846" lon="6.03765">
        <ele>1558</ele>
        <time>2020-09-05T11:04:26Z</time>
      </trkpt>
      <trkpt lat="45.01844" lon="6.03763">
        <ele>1558</ele>
        <time>2020-09-05T11:04:27Z</time>
      </trkpt>
      <trkpt lat="45.01842" lon="6.03762">
        <ele>1558.4</ele>
        <time>2020-09-05T11:04:28Z</time>
      </trkpt>
      <trkpt lat="45.01841" lon="6.0376">
        <ele>1558.6</ele>
        <time>2020-09-05T11:04:29Z</time>
      </trkpt>
      <trkpt lat="45.0184" lon="6.03757">
        <ele>1559</ele>
        <time>2020-09-05T11:04:30Z</time>
      </trkpt>
      <trkpt lat="45.01841" lon="6.03755">
        <ele>1559.2</ele>
        <time>2020-09-05T11:04:31Z</time>
      </trkpt>
      <trkpt lat="45.01842" lon="6.03753">
        <ele>1559.4</ele>
        <time>2020-09-05T11:04:32Z</time>
      </trkpt>
      <trkpt lat="45.01844" lon="6.03752">
        <ele>1559.4</ele>
        <time>2020-09-05T11:04:33Z</time>
      </trkpt>
      <trkpt lat="45.01846" lon="6.03752">
        <ele>1559.8</ele>
        <time>2020-09-05T11:04:34Z</time>
      </trkpt>
      <trkpt lat="45.01848" lon="6.03753">
        <ele>1559.6</ele>
        <time>2020-09-05T11:04:35Z</time>
      </trkpt>
      <trkpt lat="45.0185" lon="6.03754">
        <ele>1559.8</ele>
        <time>2020-09-05T11:04:36Z</time>
      </trkpt>
      <trkpt lat="45.01853" lon="6.03754">
        <ele>1560.2</ele>
        <time>2020-09-05T11:04:37Z</time>
      </trkpt>
      <trkpt lat="45.01855" lon="6.03754">
        <ele>1560.6</ele>
        <time>2020-09-05T11:04:38Z</time>
      </trkpt>
      <trkpt lat="45.01858" lon="6.03754">
        <ele>1560.8</ele>
        <time>2020-09-05T11:04:39Z</time>
      </trkpt>
      <trkpt lat="45.0186" lon="6.03754">
        <ele>1561</ele>
        <time>2020-09-05T11:04:40Z</time>
      </trkpt>
      <trkpt lat="45.01863" lon="6.03753">
        <ele>1561.4</ele>
        <time>2020-09-05T11:04:41Z</time>
      </trkpt>
      <trkpt lat="45.01865" lon="6.03752">
        <ele>1561.8</ele>
        <time>2020-09-05T11:04:42Z</time>
      </trkpt>
      <trkpt lat="45.01868" lon="6.03752">
        <ele>1562.2</ele>
        <time>2020-09-05T11:04:43Z</time>
      </trkpt>
      <trkpt lat="45.0187" lon="6.03751">
        <ele>1562.4</ele>
        <time>2020-09-05T11:04:44Z</time>
      </trkpt>
      <trkpt lat="45.01873" lon="6.0375">
        <ele>1562.6</ele>
        <time>2020-09-05T11:04:45Z</time>
      </trkpt>
      <trkpt lat="45.01875" lon="6.0375">
        <ele>1563.2</ele>
        <time>2020-09-05T11:04:46Z</time>
      </trkpt>
      <trkpt lat="45.01878" lon="6.03749">
        <ele>1563.4</ele>
        <time>2020-09-05T11:04:47Z</time>
      </trkpt>
      <trkpt lat="45.0188" lon="6.03748">
        <ele>1563.6</ele>
        <time>2020-09-05T11:04:48Z</time>
      </trkpt>
      <trkpt lat="45.01882" lon="6.03748">
        <ele>1563.8</ele>
        <time>2020-09-05T11:04:49Z</time>
      </trkpt>
      <trkpt lat="45.01885" lon="6.03747">
        <ele>1564</ele>
        <time>2020-09-05T11:04:50Z</time>
      </trkpt>
      <trkpt lat="45.01887" lon="6.03747">
        <ele>1564.2</ele>
        <time>2020-09-05T11:04:51Z</time>
      </trkpt>
      <trkpt lat="45.01889" lon="6.03746">
        <ele>1564.4</ele>
        <time>2020-09-05T11:04:52Z</time>
      </trkpt>
      <trkpt lat="45.01892" lon="6.03746">
        <ele>1564.6</ele>
        <time>2020-09-05T11:04:53Z</time>
      </trkpt>
      <trkpt lat="45.01894" lon="6.03745">
        <ele>1564.8</ele>
        <time>2020-09-05T11:04:54Z</time>
      </trkpt>
      <trkpt lat="45.01897" lon="6.03745">
        <ele>1565</ele>
        <time>2020-09-05T11:04:55Z</time>
      </trkpt>
      <trkpt lat="45.01899" lon="6.03744">
        <ele>1565.2</ele>
        <time>2020-09-05T11:04:56Z</time>
      </trkpt>
      <trkpt lat="45.01902" lon="6.03744">
        <ele>1565.6</ele>
        <time>2020-09-05T11:04:57Z</time>
      </trkpt>
      <trkpt lat="45.01904" lon="6.03743">
        <ele>1566.2</ele>
        <time>2020-09-05T11:04:58Z</time>
      </trkpt>
      <trkpt lat="45.01906" lon="6.03743">
        <ele>1566.4</ele>
        <time>2020-09-05T11:04:59Z</time>
      </trkpt>
      <trkpt lat="45.01908" lon="6.03743">
        <ele>1566.4</ele>
        <time>2020-09-05T11:05:00Z</time>
      </trkpt>
      <trkpt lat="45.01911" lon="6.03742">
        <ele>1566.6</ele>
        <time>2020-09-05T11:05:01Z</time>
      </trkpt>
      <trkpt lat="45.01913" lon="6.03742">
        <ele>1566.8</ele>
        <time>2020-09-05T11:05:02Z</time>
      </trkpt>
      <trkpt lat="45.01916" lon="6.03741">
        <ele>1567.2</ele>
        <time>2020-09-05T11:05:03Z</time>
      </trkpt>
      <trkpt lat="45.01918" lon="6.03741">
        <ele>1567.6</ele>
        <time>2020-09-05T11:05:04Z</time>
      </trkpt>
      <trkpt lat="45.01921" lon="6.03741">
        <ele>1568</ele>
        <time>2020-09-05T11:05:05Z</time>
      </trkpt>
      <trkpt lat="45.01923" lon="6.0374">
        <ele>1568.2</ele>
        <time>2020-09-05T11:05:06Z</time>
      </trkpt>
      <trkpt lat="45.01925" lon="6.0374">
        <ele>1568.4</ele>
        <time>2020-09-05T11:05:07Z</time>
      </trkpt>
      <trkpt lat="45.01928" lon="6.03739">
        <ele>1568.6</ele>
        <time>2020-09-05T11:05:08Z</time>
      </trkpt>
      <trkpt lat="45.0193" lon="6.03739">
        <ele>1569</ele>
        <time>2020-09-05T11:05:09Z</time>
      </trkpt>
      <trkpt lat="45.01933" lon="6.03738">
        <ele>1569.4</ele>
        <time>2020-09-05T11:05:10Z</time>
      </trkpt>
      <trkpt lat="45.01935" lon="6.03738">
        <ele>1569.6</ele>
        <time>2020-09-05T11:05:11Z</time>
      </trkpt>
      <trkpt lat="45.01938" lon="6.03737">
        <ele>1570</ele>
        <time>2020-09-05T11:05:12Z</time>
      </trkpt>
      <trkpt lat="45.0194" lon="6.03737">
        <ele>1570.2</ele>
        <time>2020-09-05T11:05:13Z</time>
      </trkpt>
      <trkpt lat="45.01942" lon="6.03736">
        <ele>1570.4</ele>
        <time>2020-09-05T11:05:14Z</time>
      </trkpt>
      <trkpt lat="45.01944" lon="6.03735">
        <ele>1570.8</ele>
        <time>2020-09-05T11:05:15Z</time>
      </trkpt>
      <trkpt lat="45.01946" lon="6.03735">
        <ele>1571</ele>
        <time>2020-09-05T11:05:16Z</time>
      </trkpt>
      <trkpt lat="45.01948" lon="6.03734">
        <ele>1571.2</ele>
        <time>2020-09-05T11:05:17Z</time>
      </trkpt>
      <trkpt lat="45.01951" lon="6.03734">
        <ele>1571.4</ele>
        <time>2020-09-05T11:05:18Z</time>
      </trkpt>
      <trkpt lat="45.01953" lon="6.03734">
        <ele>1571.8</ele>
        <time>2020-09-05T11:05:19Z</time>
      </trkpt>
      <trkpt lat="45.01955" lon="6.03733">
        <ele>1572</ele>
        <time>2020-09-05T11:05:20Z</time>
      </trkpt>
      <trkpt lat="45.01957" lon="6.03733">
        <ele>1572.2</ele>
        <time>2020-09-05T11:05:21Z</time>
      </trkpt>
      <trkpt lat="45.0196" lon="6.03733">
        <ele>1572.6</ele>
        <time>2020-09-05T11:05:22Z</time>
      </trkpt>
      <trkpt lat="45.01962" lon="6.03733">
        <ele>1572.8</ele>
        <time>2020-09-05T11:05:23Z</time>
      </trkpt>
      <trkpt lat="45.01964" lon="6.03734">
        <ele>1573</ele>
        <time>2020-09-05T11:05:24Z</time>
      </trkpt>
      <trkpt lat="45.01967" lon="6.03734">
        <ele>1573.4</ele>
        <time>2020-09-05T11:05:25Z</time>
      </trkpt>
      <trkpt lat="45.01969" lon="6.03735">
        <ele>1573.6</ele>
        <time>2020-09-05T11:05:26Z</time>
      </trkpt>
      <trkpt lat="45.01972" lon="6.03735">
        <ele>1574.2</ele>
        <time>2020-09-05T11:05:27Z</time>
      </trkpt>
      <trkpt lat="45.01974" lon="6.03736">
        <ele>1574.2</ele>
        <time>2020-09-05T11:05:28Z</time>
      </trkpt>
      <trkpt lat="45.01976" lon="6.03738">
        <ele>1574.4</ele>
        <time>2020-09-05T11:05:29Z</time>
      </trkpt>
      <trkpt lat="45.01979" lon="6.03739">
        <ele>1574.8</ele>
        <time>2020-09-05T11:05:30Z</time>
      </trkpt>
      <trkpt lat="45.01981" lon="6.03741">
        <ele>1575</ele>
        <time>2020-09-05T11:05:31Z</time>
      </trkpt>
      <trkpt lat="45.01983" lon="6.03742">
        <ele>1575.2</ele>
        <time>2020-09-05T11:05:32Z</time>
      </trkpt>
      <trkpt lat="45.01985" lon="6.03744">
        <ele>1575.4</ele>
        <time>2020-09-05T11:05:33Z</time>
      </trkpt>
      <trkpt lat="45.01988" lon="6.03745">
        <ele>1575.8</ele>
        <time>2020-09-05T11:05:34Z</time>
      </trkpt>
      <trkpt lat="45.0199" lon="6.03747">
        <ele>1576</ele>
        <time>2020-09-05T11:05:35Z</time>
      </trkpt>
      <trkpt lat="45.01992" lon="6.03749">
        <ele>1576.4</ele>
        <time>2020-09-05T11:05:36Z</time>
      </trkpt>
      <trkpt lat="45.01994" lon="6.03751">
        <ele>1576.4</ele>
        <time>2020-09-05T11:05:37Z</time>
      </trkpt>
      <trkpt lat="45.01996" lon="6.03753">
        <ele>1576.8</ele>
        <time>2020-09-05T11:05:38Z</time>
      </trkpt>
      <trkpt lat="45.01998" lon="6.03755">
        <ele>1577</ele>
        <time>2020-09-05T11:05:39Z</time>
      </trkpt>
      <trkpt lat="45.02" lon="6.03757">
        <ele>1577.2</ele>
        <time>2020-09-05T11:05:40Z</time>
      </trkpt>
      <trkpt lat="45.02002" lon="6.03758">
        <ele>1577.6</ele>
        <time>2020-09-05T11:05:41Z</time>
      </trkpt>
      <trkpt lat="45.02004" lon="6.03759">
        <ele>1578</ele>
        <time>2020-09-05T11:05:42Z</time>
      </trkpt>
      <trkpt lat="45.02006" lon="6.03759">
        <ele>1578</ele>
        <time>2020-09-05T11:05:43Z</time>
      </trkpt>
      <trkpt lat="45.02008" lon="6.03757">
        <ele>1578</ele>
        <time>2020-09-05T11:05:44Z</time>
      </trkpt>
      <trkpt lat="45.02009" lon="6.03755">
        <ele>1578.6</ele>
        <time>2020-09-05T11:05:45Z</time>
      </trkpt>
      <trkpt lat="45.02009" lon="6.03751">
        <ele>1578.8</ele>
        <time>2020-09-05T11:05:46Z</time>
      </trkpt>
      <trkpt lat="45.02009" lon="6.03748">
        <ele>1579</ele>
        <time>2020-09-05T11:05:47Z</time>
      </trkpt>
      <trkpt lat="45.02008" lon="6.03745">
        <ele>1579.4</ele>
        <time>2020-09-05T11:05:48Z</time>
      </trkpt>
      <trkpt lat="45.02006" lon="6.03742">
        <ele>1579.6</ele>
        <time>2020-09-05T11:05:49Z</time>
      </trkpt>
      <trkpt lat="45.02004" lon="6.0374">
        <ele>1579.8</ele>
        <time>2020-09-05T11:05:50Z</time>
      </trkpt>
      <trkpt lat="45.02002" lon="6.03736">
        <ele>1579.8</ele>
        <time>2020-09-05T11:05:51Z</time>
      </trkpt>
      <trkpt lat="45.02" lon="6.03733">
        <ele>1580.2</ele>
        <time>2020-09-05T11:05:52Z</time>
      </trkpt>
      <trkpt lat="45.01998" lon="6.0373">
        <ele>1580.2</ele>
        <time>2020-09-05T11:05:53Z</time>
      </trkpt>
      <trkpt lat="45.01996" lon="6.03726">
        <ele>1580.8</ele>
        <time>2020-09-05T11:05:54Z</time>
      </trkpt>
      <trkpt lat="45.01994" lon="6.03722">
        <ele>1580.6</ele>
        <time>2020-09-05T11:05:55Z</time>
      </trkpt>
      <trkpt lat="45.01992" lon="6.03719">
        <ele>1580.8</ele>
        <time>2020-09-05T11:05:56Z</time>
      </trkpt>
      <trkpt lat="45.01989" lon="6.03715">
        <ele>1580.8</ele>
        <time>2020-09-05T11:05:57Z</time>
      </trkpt>
      <trkpt lat="45.01987" lon="6.03712">
        <ele>1581.4</ele>
        <time>2020-09-05T11:05:58Z</time>
      </trkpt>
      <trkpt lat="45.01985" lon="6.03708">
        <ele>1581.4</ele>
        <time>2020-09-05T11:05:59Z</time>
      </trkpt>
      <trkpt lat="45.01983" lon="6.03704">
        <ele>1581.6</ele>
        <time>2020-09-05T11:06:00Z</time>
      </trkpt>
      <trkpt lat="45.01981" lon="6.03701">
        <ele>1581.6</ele>
        <time>2020-09-05T11:06:01Z</time>
      </trkpt>
      <trkpt lat="45.01978" lon="6.03697">
        <ele>1581.8</ele>
        <time>2020-09-05T11:06:02Z</time>
      </trkpt>
      <trkpt lat="45.01976" lon="6.03694">
        <ele>1582</ele>
        <time>2020-09-05T11:06:03Z</time>
      </trkpt>
      <trkpt lat="45.01974" lon="6.03691">
        <ele>1582.4</ele>
        <time>2020-09-05T11:06:04Z</time>
      </trkpt>
      <trkpt lat="45.01972" lon="6.03689">
        <ele>1582.8</ele>
        <time>2020-09-05T11:06:05Z</time>
      </trkpt>
      <trkpt lat="45.0197" lon="6.03686">
        <ele>1583</ele>
        <time>2020-09-05T11:06:06Z</time>
      </trkpt>
      <trkpt lat="45.01968" lon="6.03684">
        <ele>1583.2</ele>
        <time>2020-09-05T11:06:07Z</time>
      </trkpt>
      <trkpt lat="45.01966" lon="6.03682">
        <ele>1583.6</ele>
        <time>2020-09-05T11:06:08Z</time>
      </trkpt>
      <trkpt lat="45.01964" lon="6.03681">
        <ele>1583.6</ele>
        <time>2020-09-05T11:06:09Z</time>
      </trkpt>
      <trkpt lat="45.01962" lon="6.03679">
        <ele>1584.2</ele>
        <time>2020-09-05T11:06:10Z</time>
      </trkpt>
      <trkpt lat="45.0196" lon="6.03677">
        <ele>1584.2</ele>
        <time>2020-09-05T11:06:11Z</time>
      </trkpt>
      <trkpt lat="45.01958" lon="6.03676">
        <ele>1584.6</ele>
        <time>2020-09-05T11:06:12Z</time>
      </trkpt>
      <trkpt lat="45.01956" lon="6.03674">
        <ele>1584.8</ele>
        <time>2020-09-05T11:06:13Z</time>
      </trkpt>
      <trkpt lat="45.01954" lon="6.03672">
        <ele>1585.2</ele>
        <time>2020-09-05T11:06:14Z</time>
      </trkpt>
      <trkpt lat="45.01952" lon="6.03671">
        <ele>1585.6</ele>
        <time>2020-09-05T11:06:15Z</time>
      </trkpt>
      <trkpt lat="45.0195" lon="6.03669">
        <ele>1585.8</ele>
        <time>2020-09-05T11:06:16Z</time>
      </trkpt>
      <trkpt lat="45.01947" lon="6.03667">
        <ele>1586</ele>
        <time>2020-09-05T11:06:17Z</time>
      </trkpt>
      <trkpt lat="45.01945" lon="6.03665">
        <ele>1586.4</ele>
        <time>2020-09-05T11:06:18Z</time>
      </trkpt>
      <trkpt lat="45.01943" lon="6.03663">
        <ele>1586.8</ele>
        <time>2020-09-05T11:06:19Z</time>
      </trkpt>
      <trkpt lat="45.01941" lon="6.03661">
        <ele>1587</ele>
        <time>2020-09-05T11:06:20Z</time>
      </trkpt>
      <trkpt lat="45.01938" lon="6.03659">
        <ele>1587.4</ele>
        <time>2020-09-05T11:06:21Z</time>
      </trkpt>
      <trkpt lat="45.01936" lon="6.03658">
        <ele>1587.6</ele>
        <time>2020-09-05T11:06:22Z</time>
      </trkpt>
      <trkpt lat="45.01934" lon="6.03656">
        <ele>1587.6</ele>
        <time>2020-09-05T11:06:23Z</time>
      </trkpt>
      <trkpt lat="45.01931" lon="6.03655">
        <ele>1588</ele>
        <time>2020-09-05T11:06:24Z</time>
      </trkpt>
      <trkpt lat="45.01929" lon="6.03653">
        <ele>1588.2</ele>
        <time>2020-09-05T11:06:25Z</time>
      </trkpt>
      <trkpt lat="45.01926" lon="6.03651">
        <ele>1588.4</ele>
        <time>2020-09-05T11:06:26Z</time>
      </trkpt>
      <trkpt lat="45.01923" lon="6.03649">
        <ele>1589</ele>
        <time>2020-09-05T11:06:27Z</time>
      </trkpt>
      <trkpt lat="45.0192" lon="6.03647">
        <ele>1589</ele>
        <time>2020-09-05T11:06:28Z</time>
      </trkpt>
      <trkpt lat="45.01917" lon="6.03645">
        <ele>1589.2</ele>
        <time>2020-09-05T11:06:29Z</time>
      </trkpt>
      <trkpt lat="45.01915" lon="6.03643">
        <ele>1589.8</ele>
        <time>2020-09-05T11:06:30Z</time>
      </trkpt>
      <trkpt lat="45.01912" lon="6.03642">
        <ele>1590.2</ele>
        <time>2020-09-05T11:06:31Z</time>
      </trkpt>
      <trkpt lat="45.0191" lon="6.0364">
        <ele>1590.4</ele>
        <time>2020-09-05T11:06:32Z</time>
      </trkpt>
      <trkpt lat="45.01908" lon="6.03638">
        <ele>1590.6</ele>
        <time>2020-09-05T11:06:33Z</time>
      </trkpt>
      <trkpt lat="45.01905" lon="6.03637">
        <ele>1590.8</ele>
        <time>2020-09-05T11:06:34Z</time>
      </trkpt>
      <trkpt lat="45.01903" lon="6.03636">
        <ele>1591</ele>
        <time>2020-09-05T11:06:35Z</time>
      </trkpt>
      <trkpt lat="45.01901" lon="6.03634">
        <ele>1591.4</ele>
        <time>2020-09-05T11:06:36Z</time>
      </trkpt>
      <trkpt lat="45.01899" lon="6.03633">
        <ele>1591.4</ele>
        <time>2020-09-05T11:06:37Z</time>
      </trkpt>
      <trkpt lat="45.01896" lon="6.03632">
        <ele>1591.8</ele>
        <time>2020-09-05T11:06:38Z</time>
      </trkpt>
      <trkpt lat="45.01894" lon="6.0363">
        <ele>1591.8</ele>
        <time>2020-09-05T11:06:39Z</time>
      </trkpt>
      <trkpt lat="45.01891" lon="6.03628">
        <ele>1592.2</ele>
        <time>2020-09-05T11:06:40Z</time>
      </trkpt>
      <trkpt lat="45.01889" lon="6.03627">
        <ele>1592.4</ele>
        <time>2020-09-05T11:06:41Z</time>
      </trkpt>
      <trkpt lat="45.01886" lon="6.03625">
        <ele>1592.8</ele>
        <time>2020-09-05T11:06:42Z</time>
      </trkpt>
      <trkpt lat="45.01884" lon="6.03623">
        <ele>1593.2</ele>
        <time>2020-09-05T11:06:43Z</time>
      </trkpt>
      <trkpt lat="45.01881" lon="6.03622">
        <ele>1593.2</ele>
        <time>2020-09-05T11:06:44Z</time>
      </trkpt>
      <trkpt lat="45.01879" lon="6.0362">
        <ele>1593.4</ele>
        <time>2020-09-05T11:06:45Z</time>
      </trkpt>
      <trkpt lat="45.01876" lon="6.03618">
        <ele>1593.8</ele>
        <time>2020-09-05T11:06:46Z</time>
      </trkpt>
      <trkpt lat="45.01874" lon="6.03617">
        <ele>1594</ele>
        <time>2020-09-05T11:06:47Z</time>
      </trkpt>
      <trkpt lat="45.01871" lon="6.03615">
        <ele>1594</ele>
        <time>2020-09-05T11:06:48Z</time>
      </trkpt>
      <trkpt lat="45.01868" lon="6.03614">
        <ele>1594</ele>
        <time>2020-09-05T11:06:49Z</time>
      </trkpt>
      <trkpt lat="45.01866" lon="6.03613">
        <ele>1594.4</ele>
        <time>2020-09-05T11:06:50Z</time>
      </trkpt>
      <trkpt lat="45.01863" lon="6.03611">
        <ele>1594.6</ele>
        <time>2020-09-05T11:06:51Z</time>
      </trkpt>
      <trkpt lat="45.01861" lon="6.03609">
        <ele>1594.6</ele>
        <time>2020-09-05T11:06:52Z</time>
      </trkpt>
      <trkpt lat="45.01859" lon="6.03606">
        <ele>1594.8</ele>
        <time>2020-09-05T11:06:53Z</time>
      </trkpt>
      <trkpt lat="45.0186" lon="6.03603">
        <ele>1595.2</ele>
        <time>2020-09-05T11:06:54Z</time>
      </trkpt>
      <trkpt lat="45.01861" lon="6.036">
        <ele>1595.4</ele>
        <time>2020-09-05T11:06:55Z</time>
      </trkpt>
      <trkpt lat="45.01864" lon="6.036">
        <ele>1595.6</ele>
        <time>2020-09-05T11:06:56Z</time>
      </trkpt>
      <trkpt lat="45.01866" lon="6.036">
        <ele>1595.6</ele>
        <time>2020-09-05T11:06:57Z</time>
      </trkpt>
      <trkpt lat="45.01869" lon="6.03601">
        <ele>1596.2</ele>
        <time>2020-09-05T11:06:58Z</time>
      </trkpt>
      <trkpt lat="45.01872" lon="6.03602">
        <ele>1596.4</ele>
        <time>2020-09-05T11:06:59Z</time>
      </trkpt>
      <trkpt lat="45.01875" lon="6.03603">
        <ele>1596.4</ele>
        <time>2020-09-05T11:07:00Z</time>
      </trkpt>
      <trkpt lat="45.01878" lon="6.03604">
        <ele>1596.6</ele>
        <time>2020-09-05T11:07:01Z</time>
      </trkpt>
      <trkpt lat="45.0188" lon="6.03605">
        <ele>1596.8</ele>
        <time>2020-09-05T11:07:02Z</time>
      </trkpt>
      <trkpt lat="45.01884" lon="6.03605">
        <ele>1597</ele>
        <time>2020-09-05T11:07:03Z</time>
      </trkpt>
      <trkpt lat="45.01887" lon="6.03606">
        <ele>1597.2</ele>
        <time>2020-09-05T11:07:04Z</time>
      </trkpt>
      <trkpt lat="45.0189" lon="6.03606">
        <ele>1597.4</ele>
        <time>2020-09-05T11:07:05Z</time>
      </trkpt>
      <trkpt lat="45.01894" lon="6.03606">
        <ele>1597.6</ele>
        <time>2020-09-05T11:07:06Z</time>
      </trkpt>
      <trkpt lat="45.01897" lon="6.03606">
        <ele>1598.2</ele>
        <time>2020-09-05T11:07:07Z</time>
      </trkpt>
      <trkpt lat="45.01901" lon="6.03606">
        <ele>1598.4</ele>
        <time>2020-09-05T11:07:08Z</time>
      </trkpt>
      <trkpt lat="45.01904" lon="6.03606">
        <ele>1598.8</ele>
        <time>2020-09-05T11:07:09Z</time>
      </trkpt>
      <trkpt lat="45.01907" lon="6.03606">
        <ele>1599</ele>
        <time>2020-09-05T11:07:10Z</time>
      </trkpt>
      <trkpt lat="45.01911" lon="6.03605">
        <ele>1599.6</ele>
        <time>2020-09-05T11:07:11Z</time>
      </trkpt>
      <trkpt lat="45.01914" lon="6.03605">
        <ele>1599.8</ele>
        <time>2020-09-05T11:07:12Z</time>
      </trkpt>
      <trkpt lat="45.01917" lon="6.03604">
        <ele>1600.2</ele>
        <time>2020-09-05T11:07:13Z</time>
      </trkpt>
      <trkpt lat="45.01921" lon="6.03603">
        <ele>1600.6</ele>
        <time>2020-09-05T11:07:14Z</time>
      </trkpt>
      <trkpt lat="45.01924" lon="6.03602">
        <ele>1600.8</ele>
        <time>2020-09-05T11:07:15Z</time>
      </trkpt>
      <trkpt lat="45.01927" lon="6.03601">
        <ele>1601</ele>
        <time>2020-09-05T11:07:16Z</time>
      </trkpt>
      <trkpt lat="45.01931" lon="6.03601">
        <ele>1601.2</ele>
        <time>2020-09-05T11:07:17Z</time>
      </trkpt>
      <trkpt lat="45.01934" lon="6.036">
        <ele>1601</ele>
        <time>2020-09-05T11:07:18Z</time>
      </trkpt>
      <trkpt lat="45.01937" lon="6.03599">
        <ele>1601.4</ele>
        <time>2020-09-05T11:07:19Z</time>
      </trkpt>
      <trkpt lat="45.0194" lon="6.03598">
        <ele>1602</ele>
        <time>2020-09-05T11:07:20Z</time>
      </trkpt>
      <trkpt lat="45.01943" lon="6.03598">
        <ele>1602</ele>
        <time>2020-09-05T11:07:21Z</time>
      </trkpt>
      <trkpt lat="45.01946" lon="6.03597">
        <ele>1602.2</ele>
        <time>2020-09-05T11:07:22Z</time>
      </trkpt>
      <trkpt lat="45.01949" lon="6.03597">
        <ele>1602.8</ele>
        <time>2020-09-05T11:07:23Z</time>
      </trkpt>
      <trkpt lat="45.01952" lon="6.03597">
        <ele>1603</ele>
        <time>2020-09-05T11:07:24Z</time>
      </trkpt>
      <trkpt lat="45.01955" lon="6.03597">
        <ele>1603.2</ele>
        <time>2020-09-05T11:07:25Z</time>
      </trkpt>
      <trkpt lat="45.01958" lon="6.03598">
        <ele>1603.4</ele>
        <time>2020-09-05T11:07:26Z</time>
      </trkpt>
      <trkpt lat="45.01961" lon="6.03599">
        <ele>1603.6</ele>
        <time>2020-09-05T11:07:27Z</time>
      </trkpt>
      <trkpt lat="45.01964" lon="6.03601">
        <ele>1604</ele>
        <time>2020-09-05T11:07:28Z</time>
      </trkpt>
      <trkpt lat="45.01968" lon="6.03603">
        <ele>1603.8</ele>
        <time>2020-09-05T11:07:29Z</time>
      </trkpt>
      <trkpt lat="45.01971" lon="6.03605">
        <ele>1604.2</ele>
        <time>2020-09-05T11:07:30Z</time>
      </trkpt>
      <trkpt lat="45.01974" lon="6.03608">
        <ele>1604.2</ele>
        <time>2020-09-05T11:07:31Z</time>
      </trkpt>
      <trkpt lat="45.01977" lon="6.0361">
        <ele>1604.6</ele>
        <time>2020-09-05T11:07:32Z</time>
      </trkpt>
      <trkpt lat="45.0198" lon="6.03613">
        <ele>1604.6</ele>
        <time>2020-09-05T11:07:33Z</time>
      </trkpt>
      <trkpt lat="45.01983" lon="6.03615">
        <ele>1604.8</ele>
        <time>2020-09-05T11:07:34Z</time>
      </trkpt>
      <trkpt lat="45.01986" lon="6.03616">
        <ele>1605</ele>
        <time>2020-09-05T11:07:35Z</time>
      </trkpt>
      <trkpt lat="45.0199" lon="6.03617">
        <ele>1605</ele>
        <time>2020-09-05T11:07:36Z</time>
      </trkpt>
      <trkpt lat="45.01993" lon="6.03617">
        <ele>1605.6</ele>
        <time>2020-09-05T11:07:37Z</time>
      </trkpt>
      <trkpt lat="45.01997" lon="6.03617">
        <ele>1606</ele>
        <time>2020-09-05T11:07:38Z</time>
      </trkpt>
      <trkpt lat="45.02" lon="6.03617">
        <ele>1606</ele>
        <time>2020-09-05T11:07:39Z</time>
      </trkpt>
      <trkpt lat="45.02003" lon="6.03617">
        <ele>1606.2</ele>
        <time>2020-09-05T11:07:40Z</time>
      </trkpt>
      <trkpt lat="45.02007" lon="6.03616">
        <ele>1606.4</ele>
        <time>2020-09-05T11:07:41Z</time>
      </trkpt>
      <trkpt lat="45.0201" lon="6.03616">
        <ele>1607</ele>
        <time>2020-09-05T11:07:42Z</time>
      </trkpt>
      <trkpt lat="45.02013" lon="6.03615">
        <ele>1607.6</ele>
        <time>2020-09-05T11:07:43Z</time>
      </trkpt>
      <trkpt lat="45.02015" lon="6.03614">
        <ele>1608</ele>
        <time>2020-09-05T11:07:44Z</time>
      </trkpt>
      <trkpt lat="45.02018" lon="6.03613">
        <ele>1608.6</ele>
        <time>2020-09-05T11:07:45Z</time>
      </trkpt>
      <trkpt lat="45.02021" lon="6.03612">
        <ele>1608.8</ele>
        <time>2020-09-05T11:07:46Z</time>
      </trkpt>
      <trkpt lat="45.02024" lon="6.03611">
        <ele>1609.2</ele>
        <time>2020-09-05T11:07:47Z</time>
      </trkpt>
      <trkpt lat="45.02027" lon="6.0361">
        <ele>1609.6</ele>
        <time>2020-09-05T11:07:48Z</time>
      </trkpt>
      <trkpt lat="45.02029" lon="6.03608">
        <ele>1610</ele>
        <time>2020-09-05T11:07:49Z</time>
      </trkpt>
      <trkpt lat="45.02032" lon="6.03607">
        <ele>1610</ele>
        <time>2020-09-05T11:07:50Z</time>
      </trkpt>
      <trkpt lat="45.02035" lon="6.03606">
        <ele>1610.2</ele>
        <time>2020-09-05T11:07:51Z</time>
      </trkpt>
      <trkpt lat="45.02038" lon="6.03605">
        <ele>1610.6</ele>
        <time>2020-09-05T11:07:52Z</time>
      </trkpt>
      <trkpt lat="45.02041" lon="6.03604">
        <ele>1610.6</ele>
        <time>2020-09-05T11:07:53Z</time>
      </trkpt>
      <trkpt lat="45.02044" lon="6.03603">
        <ele>1611</ele>
        <time>2020-09-05T11:07:54Z</time>
      </trkpt>
      <trkpt lat="45.02047" lon="6.03602">
        <ele>1611</ele>
        <time>2020-09-05T11:07:55Z</time>
      </trkpt>
      <trkpt lat="45.02049" lon="6.03602">
        <ele>1611.4</ele>
        <time>2020-09-05T11:07:56Z</time>
      </trkpt>
      <trkpt lat="45.02052" lon="6.03601">
        <ele>1611.6</ele>
        <time>2020-09-05T11:07:57Z</time>
      </trkpt>
      <trkpt lat="45.02054" lon="6.036">
        <ele>1612</ele>
        <time>2020-09-05T11:07:58Z</time>
      </trkpt>
      <trkpt lat="45.02057" lon="6.03599">
        <ele>1612.4</ele>
        <time>2020-09-05T11:07:59Z</time>
      </trkpt>
      <trkpt lat="45.02059" lon="6.03598">
        <ele>1612.6</ele>
        <time>2020-09-05T11:08:00Z</time>
      </trkpt>
      <trkpt lat="45.02061" lon="6.03597">
        <ele>1612.6</ele>
        <time>2020-09-05T11:08:01Z</time>
      </trkpt>
      <trkpt lat="45.02063" lon="6.03596">
        <ele>1613</ele>
        <time>2020-09-05T11:08:02Z</time>
      </trkpt>
      <trkpt lat="45.02065" lon="6.03595">
        <ele>1613.4</ele>
        <time>2020-09-05T11:08:03Z</time>
      </trkpt>
      <trkpt lat="45.02067" lon="6.03594">
        <ele>1613.6</ele>
        <time>2020-09-05T11:08:04Z</time>
      </trkpt>
      <trkpt lat="45.02069" lon="6.03592">
        <ele>1613.8</ele>
        <time>2020-09-05T11:08:05Z</time>
      </trkpt>
      <trkpt lat="45.02071" lon="6.0359">
        <ele>1614</ele>
        <time>2020-09-05T11:08:06Z</time>
      </trkpt>
      <trkpt lat="45.02073" lon="6.03588">
        <ele>1614.2</ele>
        <time>2020-09-05T11:08:07Z</time>
      </trkpt>
      <trkpt lat="45.02075" lon="6.03586">
        <ele>1614.6</ele>
        <time>2020-09-05T11:08:08Z</time>
      </trkpt>
      <trkpt lat="45.02077" lon="6.03584">
        <ele>1614.8</ele>
        <time>2020-09-05T11:08:09Z</time>
      </trkpt>
      <trkpt lat="45.02079" lon="6.03583">
        <ele>1615.4</ele>
        <time>2020-09-05T11:08:10Z</time>
      </trkpt>
      <trkpt lat="45.02082" lon="6.03581">
        <ele>1615.4</ele>
        <time>2020-09-05T11:08:11Z</time>
      </trkpt>
      <trkpt lat="45.02084" lon="6.03579">
        <ele>1615.6</ele>
        <time>2020-09-05T11:08:12Z</time>
      </trkpt>
      <trkpt lat="45.02086" lon="6.03577">
        <ele>1616</ele>
        <time>2020-09-05T11:08:13Z</time>
      </trkpt>
      <trkpt lat="45.02088" lon="6.03575">
        <ele>1616</ele>
        <time>2020-09-05T11:08:14Z</time>
      </trkpt>
      <trkpt lat="45.0209" lon="6.03574">
        <ele>1616.4</ele>
        <time>2020-09-05T11:08:15Z</time>
      </trkpt>
      <trkpt lat="45.02093" lon="6.03573">
        <ele>1616.6</ele>
        <time>2020-09-05T11:08:16Z</time>
      </trkpt>
      <trkpt lat="45.02095" lon="6.03571">
        <ele>1617</ele>
        <time>2020-09-05T11:08:17Z</time>
      </trkpt>
      <trkpt lat="45.02097" lon="6.0357">
        <ele>1617.4</ele>
        <time>2020-09-05T11:08:18Z</time>
      </trkpt>
      <trkpt lat="45.021" lon="6.0357">
        <ele>1617.4</ele>
        <time>2020-09-05T11:08:19Z</time>
      </trkpt>
      <trkpt lat="45.02102" lon="6.03569">
        <ele>1617.8</ele>
        <time>2020-09-05T11:08:20Z</time>
      </trkpt>
      <trkpt lat="45.02105" lon="6.03569">
        <ele>1618</ele>
        <time>2020-09-05T11:08:21Z</time>
      </trkpt>
      <trkpt lat="45.02108" lon="6.03569">
        <ele>1618.2</ele>
        <time>2020-09-05T11:08:22Z</time>
      </trkpt>
      <trkpt lat="45.0211" lon="6.0357">
        <ele>1618.2</ele>
        <time>2020-09-05T11:08:23Z</time>
      </trkpt>
      <trkpt lat="45.02112" lon="6.03571">
        <ele>1618.6</ele>
        <time>2020-09-05T11:08:24Z</time>
      </trkpt>
      <trkpt lat="45.02115" lon="6.03572">
        <ele>1618.6</ele>
        <time>2020-09-05T11:08:25Z</time>
      </trkpt>
      <trkpt lat="45.02117" lon="6.03573">
        <ele>1618.6</ele>
        <time>2020-09-05T11:08:26Z</time>
      </trkpt>
      <trkpt lat="45.0212" lon="6.03574">
        <ele>1619</ele>
        <time>2020-09-05T11:08:27Z</time>
      </trkpt>
      <trkpt lat="45.02122" lon="6.03577">
        <ele>1619.6</ele>
        <time>2020-09-05T11:08:28Z</time>
      </trkpt>
      <trkpt lat="45.02124" lon="6.03579">
        <ele>1620</ele>
        <time>2020-09-05T11:08:29Z</time>
      </trkpt>
      <trkpt lat="45.02126" lon="6.03582">
        <ele>1620.6</ele>
        <time>2020-09-05T11:08:30Z</time>
      </trkpt>
      <trkpt lat="45.02128" lon="6.03585">
        <ele>1620.8</ele>
        <time>2020-09-05T11:08:31Z</time>
      </trkpt>
      <trkpt lat="45.02129" lon="6.03589">
        <ele>1621</ele>
        <time>2020-09-05T11:08:32Z</time>
      </trkpt>
      <trkpt lat="45.02131" lon="6.03592">
        <ele>1621.6</ele>
        <time>2020-09-05T11:08:33Z</time>
      </trkpt>
      <trkpt lat="45.02132" lon="6.03595">
        <ele>1621.8</ele>
        <time>2020-09-05T11:08:34Z</time>
      </trkpt>
      <trkpt lat="45.02134" lon="6.03598">
        <ele>1622</ele>
        <time>2020-09-05T11:08:35Z</time>
      </trkpt>
      <trkpt lat="45.02136" lon="6.03601">
        <ele>1622.4</ele>
        <time>2020-09-05T11:08:36Z</time>
      </trkpt>
      <trkpt lat="45.02138" lon="6.03603">
        <ele>1622.4</ele>
        <time>2020-09-05T11:08:37Z</time>
      </trkpt>
      <trkpt lat="45.0214" lon="6.03606">
        <ele>1622.8</ele>
        <time>2020-09-05T11:08:38Z</time>
      </trkpt>
      <trkpt lat="45.02142" lon="6.03609">
        <ele>1623.2</ele>
        <time>2020-09-05T11:08:39Z</time>
      </trkpt>
      <trkpt lat="45.02145" lon="6.03612">
        <ele>1623.4</ele>
        <time>2020-09-05T11:08:40Z</time>
      </trkpt>
      <trkpt lat="45.02147" lon="6.03615">
        <ele>1623.6</ele>
        <time>2020-09-05T11:08:41Z</time>
      </trkpt>
      <trkpt lat="45.02149" lon="6.03618">
        <ele>1624</ele>
        <time>2020-09-05T11:08:42Z</time>
      </trkpt>
      <trkpt lat="45.02151" lon="6.03622">
        <ele>1624.4</ele>
        <time>2020-09-05T11:08:43Z</time>
      </trkpt>
      <trkpt lat="45.02153" lon="6.03626">
        <ele>1624.6</ele>
        <time>2020-09-05T11:08:44Z</time>
      </trkpt>
      <trkpt lat="45.02155" lon="6.0363">
        <ele>1625</ele>
        <time>2020-09-05T11:08:45Z</time>
      </trkpt>
      <trkpt lat="45.02156" lon="6.03634">
        <ele>1625.4</ele>
        <time>2020-09-05T11:08:46Z</time>
      </trkpt>
      <trkpt lat="45.02157" lon="6.03638">
        <ele>1625.6</ele>
        <time>2020-09-05T11:08:47Z</time>
      </trkpt>
      <trkpt lat="45.02158" lon="6.03643">
        <ele>1625.8</ele>
        <time>2020-09-05T11:08:48Z</time>
      </trkpt>
      <trkpt lat="45.02159" lon="6.03647">
        <ele>1626.2</ele>
        <time>2020-09-05T11:08:49Z</time>
      </trkpt>
      <trkpt lat="45.0216" lon="6.03652">
        <ele>1626.6</ele>
        <time>2020-09-05T11:08:50Z</time>
      </trkpt>
      <trkpt lat="45.02161" lon="6.03657">
        <ele>1627.2</ele>
        <time>2020-09-05T11:08:51Z</time>
      </trkpt>
      <trkpt lat="45.02162" lon="6.03662">
        <ele>1627.6</ele>
        <time>2020-09-05T11:08:52Z</time>
      </trkpt>
      <trkpt lat="45.02162" lon="6.03666">
        <ele>1628.2</ele>
        <time>2020-09-05T11:08:53Z</time>
      </trkpt>
      <trkpt lat="45.02163" lon="6.03671">
        <ele>1628.4</ele>
        <time>2020-09-05T11:08:54Z</time>
      </trkpt>
      <trkpt lat="45.02164" lon="6.03676">
        <ele>1628.6</ele>
        <time>2020-09-05T11:08:55Z</time>
      </trkpt>
      <trkpt lat="45.02165" lon="6.0368">
        <ele>1629</ele>
        <time>2020-09-05T11:08:56Z</time>
      </trkpt>
      <trkpt lat="45.02165" lon="6.03685">
        <ele>1629.2</ele>
        <time>2020-09-05T11:08:57Z</time>
      </trkpt>
      <trkpt lat="45.02166" lon="6.0369">
        <ele>1629.4</ele>
        <time>2020-09-05T11:08:58Z</time>
      </trkpt>
      <trkpt lat="45.02167" lon="6.03695">
        <ele>1629.6</ele>
        <time>2020-09-05T11:08:59Z</time>
      </trkpt>
      <trkpt lat="45.02168" lon="6.037">
        <ele>1630</ele>
        <time>2020-09-05T11:09:00Z</time>
      </trkpt>
      <trkpt lat="45.02168" lon="6.03705">
        <ele>1630.4</ele>
        <time>2020-09-05T11:09:01Z</time>
      </trkpt>
      <trkpt lat="45.02169" lon="6.03709">
        <ele>1630.8</ele>
        <time>2020-09-05T11:09:02Z</time>
      </trkpt>
      <trkpt lat="45.0217" lon="6.03714">
        <ele>1631.2</ele>
        <time>2020-09-05T11:09:03Z</time>
      </trkpt>
      <trkpt lat="45.0217" lon="6.03719">
        <ele>1631.4</ele>
        <time>2020-09-05T11:09:04Z</time>
      </trkpt>
      <trkpt lat="45.02171" lon="6.03724">
        <ele>1631.4</ele>
        <time>2020-09-05T11:09:05Z</time>
      </trkpt>
      <trkpt lat="45.02171" lon="6.03728">
        <ele>1631.4</ele>
        <time>2020-09-05T11:09:06Z</time>
      </trkpt>
      <trkpt lat="45.02172" lon="6.03733">
        <ele>1631.6</ele>
        <time>2020-09-05T11:09:07Z</time>
      </trkpt>
      <trkpt lat="45.02172" lon="6.03737">
        <ele>1631.6</ele>
        <time>2020-09-05T11:09:08Z</time>
      </trkpt>
      <trkpt lat="45.02173" lon="6.03741">
        <ele>1632</ele>
        <time>2020-09-05T11:09:09Z</time>
      </trkpt>
      <trkpt lat="45.02173" lon="6.03746">
        <ele>1632.4</ele>
        <time>2020-09-05T11:09:10Z</time>
      </trkpt>
      <trkpt lat="45.02174" lon="6.03751">
        <ele>1632.6</ele>
        <time>2020-09-05T11:09:11Z</time>
      </trkpt>
      <trkpt lat="45.02175" lon="6.03756">
        <ele>1632.6</ele>
        <time>2020-09-05T11:09:12Z</time>
      </trkpt>
      <trkpt lat="45.02175" lon="6.03761">
        <ele>1632.8</ele>
        <time>2020-09-05T11:09:13Z</time>
      </trkpt>
      <trkpt lat="45.02176" lon="6.03765">
        <ele>1633.2</ele>
        <time>2020-09-05T11:09:14Z</time>
      </trkpt>
      <trkpt lat="45.02177" lon="6.03771">
        <ele>1633.2</ele>
        <time>2020-09-05T11:09:15Z</time>
      </trkpt>
      <trkpt lat="45.02178" lon="6.03776">
        <ele>1633.4</ele>
        <time>2020-09-05T11:09:16Z</time>
      </trkpt>
      <trkpt lat="45.02181" lon="6.03781">
        <ele>1633.2</ele>
        <time>2020-09-05T11:09:17Z</time>
      </trkpt>
      <trkpt lat="45.02183" lon="6.03786">
        <ele>1633.4</ele>
        <time>2020-09-05T11:09:18Z</time>
      </trkpt>
      <trkpt lat="45.02185" lon="6.0379">
        <ele>1633.4</ele>
        <time>2020-09-05T11:09:19Z</time>
      </trkpt>
      <trkpt lat="45.02188" lon="6.03793">
        <ele>1633.8</ele>
        <time>2020-09-05T11:09:20Z</time>
      </trkpt>
      <trkpt lat="45.02192" lon="6.03796">
        <ele>1633.2</ele>
        <time>2020-09-05T11:09:21Z</time>
      </trkpt>
      <trkpt lat="45.02196" lon="6.03798">
        <ele>1633.2</ele>
        <time>2020-09-05T11:09:22Z</time>
      </trkpt>
      <trkpt lat="45.022" lon="6.03799">
        <ele>1633.4</ele>
        <time>2020-09-05T11:09:23Z</time>
      </trkpt>
      <trkpt lat="45.02204" lon="6.038">
        <ele>1633.2</ele>
        <time>2020-09-05T11:09:24Z</time>
      </trkpt>
      <trkpt lat="45.02208" lon="6.03801">
        <ele>1633.2</ele>
        <time>2020-09-05T11:09:25Z</time>
      </trkpt>
      <trkpt lat="45.02211" lon="6.03801">
        <ele>1633</ele>
        <time>2020-09-05T11:09:26Z</time>
      </trkpt>
      <trkpt lat="45.02214" lon="6.038">
        <ele>1632.8</ele>
        <time>2020-09-05T11:09:27Z</time>
      </trkpt>
      <trkpt lat="45.02216" lon="6.03799">
        <ele>1633</ele>
        <time>2020-09-05T11:09:28Z</time>
      </trkpt>
      <trkpt lat="45.02218" lon="6.03798">
        <ele>1632.8</ele>
        <time>2020-09-05T11:09:29Z</time>
      </trkpt>
      <trkpt lat="45.0222" lon="6.03797">
        <ele>1632.8</ele>
        <time>2020-09-05T11:09:30Z</time>
      </trkpt>
      <trkpt lat="45.02222" lon="6.03795">
        <ele>1632.8</ele>
        <time>2020-09-05T11:09:32Z</time>
      </trkpt>
      <trkpt lat="45.02225" lon="6.03794">
        <ele>1632.6</ele>
        <time>2020-09-05T11:10:07Z</time>
      </trkpt>
      <trkpt lat="45.02228" lon="6.03792">
        <ele>1632.6</ele>
        <time>2020-09-05T11:10:09Z</time>
      </trkpt>
      <trkpt lat="45.0223" lon="6.0379">
        <ele>1632.6</ele>
        <time>2020-09-05T11:10:10Z</time>
      </trkpt>
      <trkpt lat="45.02232" lon="6.03789">
        <ele>1632.4</ele>
        <time>2020-09-05T11:10:11Z</time>
      </trkpt>
      <trkpt lat="45.02235" lon="6.03787">
        <ele>1632.4</ele>
        <time>2020-09-05T11:10:12Z</time>
      </trkpt>
      <trkpt lat="45.02238" lon="6.03785">
        <ele>1632.2</ele>
        <time>2020-09-05T11:10:13Z</time>
      </trkpt>
      <trkpt lat="45.0224" lon="6.03783">
        <ele>1632.4</ele>
        <time>2020-09-05T11:10:14Z</time>
      </trkpt>
      <trkpt lat="45.02243" lon="6.03781">
        <ele>1632</ele>
        <time>2020-09-05T11:10:15Z</time>
      </trkpt>
      <trkpt lat="45.02245" lon="6.03779">
        <ele>1631.6</ele>
        <time>2020-09-05T11:10:16Z</time>
      </trkpt>
      <trkpt lat="45.02247" lon="6.03778">
        <ele>1631.8</ele>
        <time>2020-09-05T11:10:17Z</time>
      </trkpt>
      <trkpt lat="45.02249" lon="6.03776">
        <ele>1631.6</ele>
        <time>2020-09-05T11:10:19Z</time>
      </trkpt>
      <trkpt lat="45.02251" lon="6.03775">
        <ele>1631.4</ele>
        <time>2020-09-05T11:11:14Z</time>
      </trkpt>
      <trkpt lat="45.02254" lon="6.03773">
        <ele>1631.6</ele>
        <time>2020-09-05T11:11:16Z</time>
      </trkpt>
      <trkpt lat="45.02256" lon="6.03771">
        <ele>1631.4</ele>
        <time>2020-09-05T11:11:17Z</time>
      </trkpt>
      <trkpt lat="45.02258" lon="6.03769">
        <ele>1631</ele>
        <time>2020-09-05T11:11:18Z</time>
      </trkpt>
      <trkpt lat="45.02261" lon="6.03767">
        <ele>1631.2</ele>
        <time>2020-09-05T11:11:19Z</time>
      </trkpt>
      <trkpt lat="45.02264" lon="6.03765">
        <ele>1631.2</ele>
        <time>2020-09-05T11:11:20Z</time>
      </trkpt>
      <trkpt lat="45.02268" lon="6.03762">
        <ele>1631.2</ele>
        <time>2020-09-05T11:11:21Z</time>
      </trkpt>
      <trkpt lat="45.02272" lon="6.03759">
        <ele>1631.4</ele>
        <time>2020-09-05T11:11:22Z</time>
      </trkpt>
      <trkpt lat="45.02276" lon="6.03756">
        <ele>1631</ele>
        <time>2020-09-05T11:11:23Z</time>
      </trkpt>
      <trkpt lat="45.02279" lon="6.03753">
        <ele>1630.8</ele>
        <time>2020-09-05T11:11:24Z</time>
      </trkpt>
      <trkpt lat="45.02283" lon="6.0375">
        <ele>1630.4</ele>
        <time>2020-09-05T11:11:25Z</time>
      </trkpt>
      <trkpt lat="45.02288" lon="6.03747">
        <ele>1630.4</ele>
        <time>2020-09-05T11:11:26Z</time>
      </trkpt>
      <trkpt lat="45.02292" lon="6.03744">
        <ele>1630.6</ele>
        <time>2020-09-05T11:11:27Z</time>
      </trkpt>
      <trkpt lat="45.02296" lon="6.03741">
        <ele>1630.6</ele>
        <time>2020-09-05T11:11:28Z</time>
      </trkpt>
      <trkpt lat="45.023" lon="6.03737">
        <ele>1630</ele>
        <time>2020-09-05T11:11:29Z</time>
      </trkpt>
      <trkpt lat="45.02305" lon="6.03734">
        <ele>1630</ele>
        <time>2020-09-05T11:11:30Z</time>
      </trkpt>
      <trkpt lat="45.02308" lon="6.03731">
        <ele>1630.2</ele>
        <time>2020-09-05T11:11:31Z</time>
      </trkpt>
      <trkpt lat="45.02312" lon="6.03728">
        <ele>1630.6</ele>
        <time>2020-09-05T11:11:32Z</time>
      </trkpt>
      <trkpt lat="45.02316" lon="6.03725">
        <ele>1630.4</ele>
        <time>2020-09-05T11:11:33Z</time>
      </trkpt>
      <trkpt lat="45.02319" lon="6.03722">
        <ele>1630.2</ele>
        <time>2020-09-05T11:11:34Z</time>
      </trkpt>
      <trkpt lat="45.02323" lon="6.03719">
        <ele>1630</ele>
        <time>2020-09-05T11:11:35Z</time>
      </trkpt>
      <trkpt lat="45.02327" lon="6.03716">
        <ele>1629.8</ele>
        <time>2020-09-05T11:11:36Z</time>
      </trkpt>
      <trkpt lat="45.02331" lon="6.03713">
        <ele>1629.8</ele>
        <time>2020-09-05T11:11:37Z</time>
      </trkpt>
      <trkpt lat="45.02336" lon="6.0371">
        <ele>1630</ele>
        <time>2020-09-05T11:11:38Z</time>
      </trkpt>
      <trkpt lat="45.0234" lon="6.03707">
        <ele>1630</ele>
        <time>2020-09-05T11:11:39Z</time>
      </trkpt>
      <trkpt lat="45.02345" lon="6.03703">
        <ele>1629.6</ele>
        <time>2020-09-05T11:11:40Z</time>
      </trkpt>
      <trkpt lat="45.02349" lon="6.037">
        <ele>1629.4</ele>
        <time>2020-09-05T11:11:41Z</time>
      </trkpt>
      <trkpt lat="45.02354" lon="6.03697">
        <ele>1629.4</ele>
        <time>2020-09-05T11:11:42Z</time>
      </trkpt>
      <trkpt lat="45.02358" lon="6.03694">
        <ele>1629.4</ele>
        <time>2020-09-05T11:11:43Z</time>
      </trkpt>
      <trkpt lat="45.02363" lon="6.03691">
        <ele>1629.2</ele>
        <time>2020-09-05T11:11:44Z</time>
      </trkpt>
      <trkpt lat="45.02367" lon="6.03688">
        <ele>1629.4</ele>
        <time>2020-09-05T11:11:45Z</time>
      </trkpt>
      <trkpt lat="45.02372" lon="6.03685">
        <ele>1630</ele>
        <time>2020-09-05T11:11:46Z</time>
      </trkpt>
      <trkpt lat="45.02376" lon="6.03682">
        <ele>1630</ele>
        <time>2020-09-05T11:11:47Z</time>
      </trkpt>
      <trkpt lat="45.02381" lon="6.03679">
        <ele>1630</ele>
        <time>2020-09-05T11:11:48Z</time>
      </trkpt>
      <trkpt lat="45.02386" lon="6.03676">
        <ele>1629.6</ele>
        <time>2020-09-05T11:11:49Z</time>
      </trkpt>
      <trkpt lat="45.0239" lon="6.03674">
        <ele>1629.4</ele>
        <time>2020-09-05T11:11:50Z</time>
      </trkpt>
      <trkpt lat="45.02394" lon="6.03671">
        <ele>1629.4</ele>
        <time>2020-09-05T11:11:51Z</time>
      </trkpt>
      <trkpt lat="45.02398" lon="6.03668">
        <ele>1629.6</ele>
        <time>2020-09-05T11:11:52Z</time>
      </trkpt>
      <trkpt lat="45.02402" lon="6.03666">
        <ele>1629.8</ele>
        <time>2020-09-05T11:11:53Z</time>
      </trkpt>
      <trkpt lat="45.02405" lon="6.03664">
        <ele>1629.6</ele>
        <time>2020-09-05T11:11:54Z</time>
      </trkpt>
      <trkpt lat="45.02409" lon="6.03662">
        <ele>1629.6</ele>
        <time>2020-09-05T11:11:55Z</time>
      </trkpt>
      <trkpt lat="45.02412" lon="6.03661">
        <ele>1629.6</ele>
        <time>2020-09-05T11:11:56Z</time>
      </trkpt>
      <trkpt lat="45.02415" lon="6.03659">
        <ele>1629.6</ele>
        <time>2020-09-05T11:11:57Z</time>
      </trkpt>
      <trkpt lat="45.02419" lon="6.03657">
        <ele>1629.4</ele>
        <time>2020-09-05T11:11:58Z</time>
      </trkpt>
      <trkpt lat="45.02422" lon="6.03656">
        <ele>1629.2</ele>
        <time>2020-09-05T11:11:59Z</time>
      </trkpt>
      <trkpt lat="45.02426" lon="6.03655">
        <ele>1629.6</ele>
        <time>2020-09-05T11:12:00Z</time>
      </trkpt>
      <trkpt lat="45.02429" lon="6.03653">
        <ele>1629.2</ele>
        <time>2020-09-05T11:12:01Z</time>
      </trkpt>
      <trkpt lat="45.02433" lon="6.03652">
        <ele>1629.4</ele>
        <time>2020-09-05T11:12:02Z</time>
      </trkpt>
      <trkpt lat="45.02436" lon="6.03651">
        <ele>1629</ele>
        <time>2020-09-05T11:12:03Z</time>
      </trkpt>
      <trkpt lat="45.0244" lon="6.0365">
        <ele>1629</ele>
        <time>2020-09-05T11:12:04Z</time>
      </trkpt>
      <trkpt lat="45.02443" lon="6.03649">
        <ele>1629</ele>
        <time>2020-09-05T11:12:05Z</time>
      </trkpt>
      <trkpt lat="45.02446" lon="6.03648">
        <ele>1629.2</ele>
        <time>2020-09-05T11:12:06Z</time>
      </trkpt>
      <trkpt lat="45.0245" lon="6.03647">
        <ele>1629.2</ele>
        <time>2020-09-05T11:12:07Z</time>
      </trkpt>
      <trkpt lat="45.02453" lon="6.03645">
        <ele>1629.2</ele>
        <time>2020-09-05T11:12:08Z</time>
      </trkpt>
      <trkpt lat="45.02457" lon="6.03644">
        <ele>1629</ele>
        <time>2020-09-05T11:12:09Z</time>
      </trkpt>
      <trkpt lat="45.02461" lon="6.03642">
        <ele>1628.8</ele>
        <time>2020-09-05T11:12:10Z</time>
      </trkpt>
      <trkpt lat="45.02464" lon="6.03641">
        <ele>1629</ele>
        <time>2020-09-05T11:12:11Z</time>
      </trkpt>
      <trkpt lat="45.02468" lon="6.03639">
        <ele>1629.2</ele>
        <time>2020-09-05T11:12:12Z</time>
      </trkpt>
      <trkpt lat="45.02471" lon="6.03637">
        <ele>1629.2</ele>
        <time>2020-09-05T11:12:13Z</time>
      </trkpt>
      <trkpt lat="45.02474" lon="6.03635">
        <ele>1629.2</ele>
        <time>2020-09-05T11:12:14Z</time>
      </trkpt>
      <trkpt lat="45.02478" lon="6.03633">
        <ele>1629.4</ele>
        <time>2020-09-05T11:12:15Z</time>
      </trkpt>
      <trkpt lat="45.02481" lon="6.0363">
        <ele>1629.8</ele>
        <time>2020-09-05T11:12:16Z</time>
      </trkpt>
      <trkpt lat="45.02484" lon="6.03628">
        <ele>1629.6</ele>
        <time>2020-09-05T11:12:17Z</time>
      </trkpt>
      <trkpt lat="45.02487" lon="6.03625">
        <ele>1629.8</ele>
        <time>2020-09-05T11:12:18Z</time>
      </trkpt>
      <trkpt lat="45.0249" lon="6.03622">
        <ele>1629.8</ele>
        <time>2020-09-05T11:12:19Z</time>
      </trkpt>
      <trkpt lat="45.02493" lon="6.03619">
        <ele>1629.6</ele>
        <time>2020-09-05T11:12:20Z</time>
      </trkpt>
      <trkpt lat="45.02496" lon="6.03616">
        <ele>1630</ele>
        <time>2020-09-05T11:12:21Z</time>
      </trkpt>
      <trkpt lat="45.025" lon="6.03613">
        <ele>1630</ele>
        <time>2020-09-05T11:12:22Z</time>
      </trkpt>
      <trkpt lat="45.02503" lon="6.03609">
        <ele>1629.8</ele>
        <time>2020-09-05T11:12:23Z</time>
      </trkpt>
      <trkpt lat="45.02506" lon="6.03606">
        <ele>1629.8</ele>
        <time>2020-09-05T11:12:24Z</time>
      </trkpt>
      <trkpt lat="45.02509" lon="6.03602">
        <ele>1629.6</ele>
        <time>2020-09-05T11:12:25Z</time>
      </trkpt>
      <trkpt lat="45.02511" lon="6.03598">
        <ele>1629.6</ele>
        <time>2020-09-05T11:12:26Z</time>
      </trkpt>
      <trkpt lat="45.02514" lon="6.03595">
        <ele>1629.8</ele>
        <time>2020-09-05T11:12:27Z</time>
      </trkpt>
      <trkpt lat="45.02515" lon="6.03593">
        <ele>1630</ele>
        <time>2020-09-05T11:12:28Z</time>
      </trkpt>
      <trkpt lat="45.02517" lon="6.0359">
        <ele>1630.2</ele>
        <time>2020-09-05T11:12:29Z</time>
      </trkpt>
      <trkpt lat="45.02519" lon="6.03589">
        <ele>1630.2</ele>
        <time>2020-09-05T11:12:30Z</time>
      </trkpt>
      <trkpt lat="45.02521" lon="6.03587">
        <ele>1630.2</ele>
        <time>2020-09-05T11:12:31Z</time>
      </trkpt>
      <trkpt lat="45.02524" lon="6.03586">
        <ele>1630.4</ele>
        <time>2020-09-05T11:12:32Z</time>
      </trkpt>
      <trkpt lat="45.02527" lon="6.03584">
        <ele>1630.2</ele>
        <time>2020-09-05T11:12:33Z</time>
      </trkpt>
      <trkpt lat="45.0253" lon="6.03583">
        <ele>1630.4</ele>
        <time>2020-09-05T11:12:34Z</time>
      </trkpt>
      <trkpt lat="45.02534" lon="6.03581">
        <ele>1630.8</ele>
        <time>2020-09-05T11:12:35Z</time>
      </trkpt>
      <trkpt lat="45.02538" lon="6.03578">
        <ele>1630.6</ele>
        <time>2020-09-05T11:12:36Z</time>
      </trkpt>
      <trkpt lat="45.02542" lon="6.03576">
        <ele>1630.6</ele>
        <time>2020-09-05T11:12:37Z</time>
      </trkpt>
      <trkpt lat="45.02546" lon="6.03573">
        <ele>1630.6</ele>
        <time>2020-09-05T11:12:38Z</time>
      </trkpt>
      <trkpt lat="45.02549" lon="6.0357">
        <ele>1631</ele>
        <time>2020-09-05T11:12:39Z</time>
      </trkpt>
      <trkpt lat="45.02553" lon="6.03567">
        <ele>1631</ele>
        <time>2020-09-05T11:12:40Z</time>
      </trkpt>
      <trkpt lat="45.02555" lon="6.03563">
        <ele>1631.4</ele>
        <time>2020-09-05T11:12:41Z</time>
      </trkpt>
      <trkpt lat="45.02558" lon="6.0356">
        <ele>1631.4</ele>
        <time>2020-09-05T11:12:42Z</time>
      </trkpt>
      <trkpt lat="45.0256" lon="6.03557">
        <ele>1631.4</ele>
        <time>2020-09-05T11:12:43Z</time>
      </trkpt>
      <trkpt lat="45.02562" lon="6.03554">
        <ele>1631.6</ele>
        <time>2020-09-05T11:12:44Z</time>
      </trkpt>
      <trkpt lat="45.02564" lon="6.03551">
        <ele>1631.8</ele>
        <time>2020-09-05T11:12:45Z</time>
      </trkpt>
      <trkpt lat="45.02566" lon="6.03548">
        <ele>1632.2</ele>
        <time>2020-09-05T11:12:46Z</time>
      </trkpt>
      <trkpt lat="45.02568" lon="6.03545">
        <ele>1632</ele>
        <time>2020-09-05T11:12:47Z</time>
      </trkpt>
      <trkpt lat="45.0257" lon="6.03542">
        <ele>1632</ele>
        <time>2020-09-05T11:12:48Z</time>
      </trkpt>
      <trkpt lat="45.02572" lon="6.03539">
        <ele>1632.2</ele>
        <time>2020-09-05T11:12:49Z</time>
      </trkpt>
      <trkpt lat="45.02574" lon="6.03537">
        <ele>1632.4</ele>
        <time>2020-09-05T11:12:50Z</time>
      </trkpt>
      <trkpt lat="45.02576" lon="6.03534">
        <ele>1632.4</ele>
        <time>2020-09-05T11:12:51Z</time>
      </trkpt>
      <trkpt lat="45.02577" lon="6.03532">
        <ele>1632.4</ele>
        <time>2020-09-05T11:12:52Z</time>
      </trkpt>
      <trkpt lat="45.02579" lon="6.03529">
        <ele>1632.4</ele>
        <time>2020-09-05T11:12:53Z</time>
      </trkpt>
      <trkpt lat="45.02581" lon="6.03526">
        <ele>1632.4</ele>
        <time>2020-09-05T11:12:54Z</time>
      </trkpt>
      <trkpt lat="45.02582" lon="6.03523">
        <ele>1632.2</ele>
        <time>2020-09-05T11:12:55Z</time>
      </trkpt>
      <trkpt lat="45.02583" lon="6.03519">
        <ele>1632.2</ele>
        <time>2020-09-05T11:12:56Z</time>
      </trkpt>
      <trkpt lat="45.02585" lon="6.03516">
        <ele>1632.2</ele>
        <time>2020-09-05T11:12:57Z</time>
      </trkpt>
      <trkpt lat="45.02586" lon="6.03511">
        <ele>1632.2</ele>
        <time>2020-09-05T11:12:58Z</time>
      </trkpt>
      <trkpt lat="45.02587" lon="6.03507">
        <ele>1632</ele>
        <time>2020-09-05T11:12:59Z</time>
      </trkpt>
      <trkpt lat="45.02589" lon="6.03503">
        <ele>1632</ele>
        <time>2020-09-05T11:13:00Z</time>
      </trkpt>
      <trkpt lat="45.0259" lon="6.03498">
        <ele>1632</ele>
        <time>2020-09-05T11:13:01Z</time>
      </trkpt>
      <trkpt lat="45.02591" lon="6.03493">
        <ele>1632</ele>
        <time>2020-09-05T11:13:02Z</time>
      </trkpt>
      <trkpt lat="45.02592" lon="6.03488">
        <ele>1631.8</ele>
        <time>2020-09-05T11:13:03Z</time>
      </trkpt>
      <trkpt lat="45.02593" lon="6.03484">
        <ele>1631.8</ele>
        <time>2020-09-05T11:13:04Z</time>
      </trkpt>
      <trkpt lat="45.02594" lon="6.03481">
        <ele>1631.6</ele>
        <time>2020-09-05T11:13:05Z</time>
      </trkpt>
      <trkpt lat="45.02594" lon="6.03477">
        <ele>1631.6</ele>
        <time>2020-09-05T11:13:06Z</time>
      </trkpt>
      <trkpt lat="45.02595" lon="6.03473">
        <ele>1631.8</ele>
        <time>2020-09-05T11:13:07Z</time>
      </trkpt>
      <trkpt lat="45.02596" lon="6.03469">
        <ele>1631.8</ele>
        <time>2020-09-05T11:13:08Z</time>
      </trkpt>
      <trkpt lat="45.02597" lon="6.03465">
        <ele>1631.6</ele>
        <time>2020-09-05T11:13:09Z</time>
      </trkpt>
      <trkpt lat="45.02598" lon="6.03461">
        <ele>1631.8</ele>
        <time>2020-09-05T11:13:10Z</time>
      </trkpt>
      <trkpt lat="45.026" lon="6.03456">
        <ele>1631.8</ele>
        <time>2020-09-05T11:13:11Z</time>
      </trkpt>
      <trkpt lat="45.02602" lon="6.03451">
        <ele>1632</ele>
        <time>2020-09-05T11:13:12Z</time>
      </trkpt>
      <trkpt lat="45.02603" lon="6.03447">
        <ele>1632.2</ele>
        <time>2020-09-05T11:13:13Z</time>
      </trkpt>
      <trkpt lat="45.02605" lon="6.03442">
        <ele>1632.4</ele>
        <time>2020-09-05T11:13:14Z</time>
      </trkpt>
      <trkpt lat="45.02606" lon="6.03438">
        <ele>1632.6</ele>
        <time>2020-09-05T11:13:15Z</time>
      </trkpt>
      <trkpt lat="45.02608" lon="6.03433">
        <ele>1632.6</ele>
        <time>2020-09-05T11:13:16Z</time>
      </trkpt>
      <trkpt lat="45.0261" lon="6.03429">
        <ele>1632.6</ele>
        <time>2020-09-05T11:13:17Z</time>
      </trkpt>
      <trkpt lat="45.02612" lon="6.03424">
        <ele>1632.4</ele>
        <time>2020-09-05T11:13:18Z</time>
      </trkpt>
      <trkpt lat="45.02613" lon="6.0342">
        <ele>1632.4</ele>
        <time>2020-09-05T11:13:19Z</time>
      </trkpt>
      <trkpt lat="45.02615" lon="6.03415">
        <ele>1632.6</ele>
        <time>2020-09-05T11:13:20Z</time>
      </trkpt>
      <trkpt lat="45.02616" lon="6.0341">
        <ele>1632.6</ele>
        <time>2020-09-05T11:13:21Z</time>
      </trkpt>
      <trkpt lat="45.02618" lon="6.03405">
        <ele>1632.6</ele>
        <time>2020-09-05T11:13:22Z</time>
      </trkpt>
      <trkpt lat="45.02621" lon="6.03401">
        <ele>1632.6</ele>
        <time>2020-09-05T11:13:23Z</time>
      </trkpt>
      <trkpt lat="45.02624" lon="6.03396">
        <ele>1632.6</ele>
        <time>2020-09-05T11:13:24Z</time>
      </trkpt>
      <trkpt lat="45.02627" lon="6.03392">
        <ele>1632.6</ele>
        <time>2020-09-05T11:13:25Z</time>
      </trkpt>
      <trkpt lat="45.0263" lon="6.03388">
        <ele>1632.6</ele>
        <time>2020-09-05T11:13:26Z</time>
      </trkpt>
      <trkpt lat="45.02633" lon="6.03384">
        <ele>1632.2</ele>
        <time>2020-09-05T11:13:27Z</time>
      </trkpt>
      <trkpt lat="45.02636" lon="6.0338">
        <ele>1632.4</ele>
        <time>2020-09-05T11:13:28Z</time>
      </trkpt>
      <trkpt lat="45.0264" lon="6.03376">
        <ele>1632.6</ele>
        <time>2020-09-05T11:13:29Z</time>
      </trkpt>
      <trkpt lat="45.02643" lon="6.03372">
        <ele>1632.2</ele>
        <time>2020-09-05T11:13:30Z</time>
      </trkpt>
      <trkpt lat="45.02647" lon="6.03368">
        <ele>1632.2</ele>
        <time>2020-09-05T11:13:31Z</time>
      </trkpt>
      <trkpt lat="45.0265" lon="6.03364">
        <ele>1632</ele>
        <time>2020-09-05T11:13:32Z</time>
      </trkpt>
      <trkpt lat="45.02653" lon="6.0336">
        <ele>1632</ele>
        <time>2020-09-05T11:13:33Z</time>
      </trkpt>
      <trkpt lat="45.02656" lon="6.03355">
        <ele>1631.8</ele>
        <time>2020-09-05T11:13:34Z</time>
      </trkpt>
      <trkpt lat="45.02658" lon="6.03349">
        <ele>1631.8</ele>
        <time>2020-09-05T11:13:35Z</time>
      </trkpt>
      <trkpt lat="45.02661" lon="6.03344">
        <ele>1631.8</ele>
        <time>2020-09-05T11:13:36Z</time>
      </trkpt>
      <trkpt lat="45.02663" lon="6.03339">
        <ele>1632</ele>
        <time>2020-09-05T11:13:37Z</time>
      </trkpt>
      <trkpt lat="45.02666" lon="6.03333">
        <ele>1632</ele>
        <time>2020-09-05T11:13:38Z</time>
      </trkpt>
      <trkpt lat="45.02667" lon="6.03328">
        <ele>1632</ele>
        <time>2020-09-05T11:13:39Z</time>
      </trkpt>
      <trkpt lat="45.0267" lon="6.03322">
        <ele>1632.2</ele>
        <time>2020-09-05T11:13:40Z</time>
      </trkpt>
      <trkpt lat="45.02671" lon="6.03316">
        <ele>1632.2</ele>
        <time>2020-09-05T11:13:41Z</time>
      </trkpt>
      <trkpt lat="45.02673" lon="6.0331">
        <ele>1632.4</ele>
        <time>2020-09-05T11:13:42Z</time>
      </trkpt>
      <trkpt lat="45.02676" lon="6.03304">
        <ele>1632.2</ele>
        <time>2020-09-05T11:13:43Z</time>
      </trkpt>
      <trkpt lat="45.02678" lon="6.033">
        <ele>1632</ele>
        <time>2020-09-05T11:13:44Z</time>
      </trkpt>
      <trkpt lat="45.02681" lon="6.03295">
        <ele>1632</ele>
        <time>2020-09-05T11:13:45Z</time>
      </trkpt>
      <trkpt lat="45.02684" lon="6.03291">
        <ele>1632</ele>
        <time>2020-09-05T11:13:46Z</time>
      </trkpt>
      <trkpt lat="45.02686" lon="6.03285">
        <ele>1632</ele>
        <time>2020-09-05T11:13:47Z</time>
      </trkpt>
      <trkpt lat="45.02687" lon="6.03278">
        <ele>1631.8</ele>
        <time>2020-09-05T11:13:48Z</time>
      </trkpt>
      <trkpt lat="45.02688" lon="6.03272">
        <ele>1632</ele>
        <time>2020-09-05T11:13:49Z</time>
      </trkpt>
      <trkpt lat="45.0269" lon="6.03266">
        <ele>1632.2</ele>
        <time>2020-09-05T11:13:50Z</time>
      </trkpt>
      <trkpt lat="45.02693" lon="6.0326">
        <ele>1632</ele>
        <time>2020-09-05T11:13:51Z</time>
      </trkpt>
      <trkpt lat="45.02696" lon="6.03254">
        <ele>1631.8</ele>
        <time>2020-09-05T11:13:52Z</time>
      </trkpt>
      <trkpt lat="45.02699" lon="6.03249">
        <ele>1631.6</ele>
        <time>2020-09-05T11:13:53Z</time>
      </trkpt>
      <trkpt lat="45.02702" lon="6.03244">
        <ele>1632.2</ele>
        <time>2020-09-05T11:13:54Z</time>
      </trkpt>
      <trkpt lat="45.02704" lon="6.03238">
        <ele>1632.2</ele>
        <time>2020-09-05T11:13:55Z</time>
      </trkpt>
      <trkpt lat="45.02707" lon="6.03231">
        <ele>1632.8</ele>
        <time>2020-09-05T11:13:56Z</time>
      </trkpt>
      <trkpt lat="45.02708" lon="6.03224">
        <ele>1632.2</ele>
        <time>2020-09-05T11:13:57Z</time>
      </trkpt>
      <trkpt lat="45.02708" lon="6.03217">
        <ele>1632.2</ele>
        <time>2020-09-05T11:13:58Z</time>
      </trkpt>
      <trkpt lat="45.02709" lon="6.03209">
        <ele>1631.8</ele>
        <time>2020-09-05T11:13:59Z</time>
      </trkpt>
      <trkpt lat="45.0271" lon="6.03202">
        <ele>1631.4</ele>
        <time>2020-09-05T11:14:00Z</time>
      </trkpt>
      <trkpt lat="45.02711" lon="6.03195">
        <ele>1631.4</ele>
        <time>2020-09-05T11:14:01Z</time>
      </trkpt>
      <trkpt lat="45.02713" lon="6.03189">
        <ele>1631</ele>
        <time>2020-09-05T11:14:02Z</time>
      </trkpt>
      <trkpt lat="45.02715" lon="6.03183">
        <ele>1630.6</ele>
        <time>2020-09-05T11:14:03Z</time>
      </trkpt>
      <trkpt lat="45.02717" lon="6.03179">
        <ele>1630.2</ele>
        <time>2020-09-05T11:14:04Z</time>
      </trkpt>
      <trkpt lat="45.0272" lon="6.03176">
        <ele>1630.4</ele>
        <time>2020-09-05T11:14:05Z</time>
      </trkpt>
      <trkpt lat="45.02724" lon="6.03175">
        <ele>1630.2</ele>
        <time>2020-09-05T11:14:06Z</time>
      </trkpt>
      <trkpt lat="45.02727" lon="6.03175">
        <ele>1630</ele>
        <time>2020-09-05T11:14:07Z</time>
      </trkpt>
      <trkpt lat="45.0273" lon="6.03175">
        <ele>1630</ele>
        <time>2020-09-05T11:14:08Z</time>
      </trkpt>
      <trkpt lat="45.02734" lon="6.03176">
        <ele>1630</ele>
        <time>2020-09-05T11:14:09Z</time>
      </trkpt>
      <trkpt lat="45.02738" lon="6.03177">
        <ele>1629.8</ele>
        <time>2020-09-05T11:14:10Z</time>
      </trkpt>
      <trkpt lat="45.02742" lon="6.03179">
        <ele>1629.6</ele>
        <time>2020-09-05T11:14:11Z</time>
      </trkpt>
      <trkpt lat="45.02746" lon="6.03181">
        <ele>1629.2</ele>
        <time>2020-09-05T11:14:12Z</time>
      </trkpt>
      <trkpt lat="45.02749" lon="6.03183">
        <ele>1629.4</ele>
        <time>2020-09-05T11:14:13Z</time>
      </trkpt>
      <trkpt lat="45.02753" lon="6.03186">
        <ele>1629.4</ele>
        <time>2020-09-05T11:14:14Z</time>
      </trkpt>
      <trkpt lat="45.02757" lon="6.03188">
        <ele>1629</ele>
        <time>2020-09-05T11:14:15Z</time>
      </trkpt>
      <trkpt lat="45.0276" lon="6.03191">
        <ele>1628.8</ele>
        <time>2020-09-05T11:14:16Z</time>
      </trkpt>
      <trkpt lat="45.02764" lon="6.03195">
        <ele>1628.6</ele>
        <time>2020-09-05T11:14:17Z</time>
      </trkpt>
      <trkpt lat="45.02768" lon="6.03198">
        <ele>1628.4</ele>
        <time>2020-09-05T11:14:18Z</time>
      </trkpt>
      <trkpt lat="45.02772" lon="6.03201">
        <ele>1628.4</ele>
        <time>2020-09-05T11:14:19Z</time>
      </trkpt>
      <trkpt lat="45.02776" lon="6.03204">
        <ele>1628</ele>
        <time>2020-09-05T11:14:20Z</time>
      </trkpt>
      <trkpt lat="45.0278" lon="6.03208">
        <ele>1627.6</ele>
        <time>2020-09-05T11:14:21Z</time>
      </trkpt>
      <trkpt lat="45.02785" lon="6.03212">
        <ele>1627.6</ele>
        <time>2020-09-05T11:14:22Z</time>
      </trkpt>
      <trkpt lat="45.02789" lon="6.03217">
        <ele>1627.2</ele>
        <time>2020-09-05T11:14:23Z</time>
      </trkpt>
      <trkpt lat="45.02794" lon="6.03221">
        <ele>1627</ele>
        <time>2020-09-05T11:14:24Z</time>
      </trkpt>
      <trkpt lat="45.02799" lon="6.03226">
        <ele>1627</ele>
        <time>2020-09-05T11:14:25Z</time>
      </trkpt>
      <trkpt lat="45.02803" lon="6.03231">
        <ele>1626.2</ele>
        <time>2020-09-05T11:14:26Z</time>
      </trkpt>
      <trkpt lat="45.02807" lon="6.03236">
        <ele>1626</ele>
        <time>2020-09-05T11:14:27Z</time>
      </trkpt>
      <trkpt lat="45.02811" lon="6.0324">
        <ele>1626.2</ele>
        <time>2020-09-05T11:14:28Z</time>
      </trkpt>
      <trkpt lat="45.02815" lon="6.03244">
        <ele>1625.8</ele>
        <time>2020-09-05T11:14:29Z</time>
      </trkpt>
      <trkpt lat="45.02818" lon="6.03249">
        <ele>1626.2</ele>
        <time>2020-09-05T11:14:30Z</time>
      </trkpt>
      <trkpt lat="45.02822" lon="6.03253">
        <ele>1626.2</ele>
        <time>2020-09-05T11:14:31Z</time>
      </trkpt>
      <trkpt lat="45.02826" lon="6.03256">
        <ele>1626.6</ele>
        <time>2020-09-05T11:14:32Z</time>
      </trkpt>
      <trkpt lat="45.0283" lon="6.03258">
        <ele>1626.4</ele>
        <time>2020-09-05T11:14:33Z</time>
      </trkpt>
      <trkpt lat="45.02834" lon="6.03259">
        <ele>1626.2</ele>
        <time>2020-09-05T11:14:34Z</time>
      </trkpt>
      <trkpt lat="45.02838" lon="6.03257">
        <ele>1626</ele>
        <time>2020-09-05T11:14:35Z</time>
      </trkpt>
      <trkpt lat="45.02841" lon="6.03254">
        <ele>1625.8</ele>
        <time>2020-09-05T11:14:36Z</time>
      </trkpt>
      <trkpt lat="45.02844" lon="6.03249">
        <ele>1626</ele>
        <time>2020-09-05T11:14:37Z</time>
      </trkpt>
      <trkpt lat="45.02846" lon="6.03244">
        <ele>1625.8</ele>
        <time>2020-09-05T11:14:38Z</time>
      </trkpt>
      <trkpt lat="45.02849" lon="6.03239">
        <ele>1625.8</ele>
        <time>2020-09-05T11:14:39Z</time>
      </trkpt>
      <trkpt lat="45.02851" lon="6.03233">
        <ele>1625.8</ele>
        <time>2020-09-05T11:14:40Z</time>
      </trkpt>
      <trkpt lat="45.02853" lon="6.03226">
        <ele>1625.6</ele>
        <time>2020-09-05T11:14:41Z</time>
      </trkpt>
      <trkpt lat="45.02854" lon="6.0322">
        <ele>1625.4</ele>
        <time>2020-09-05T11:14:42Z</time>
      </trkpt>
      <trkpt lat="45.02854" lon="6.03214">
        <ele>1625.2</ele>
        <time>2020-09-05T11:14:43Z</time>
      </trkpt>
      <trkpt lat="45.02855" lon="6.03207">
        <ele>1624.8</ele>
        <time>2020-09-05T11:14:44Z</time>
      </trkpt>
      <trkpt lat="45.02855" lon="6.03201">
        <ele>1624.8</ele>
        <time>2020-09-05T11:14:45Z</time>
      </trkpt>
      <trkpt lat="45.02855" lon="6.03194">
        <ele>1624.4</ele>
        <time>2020-09-05T11:14:46Z</time>
      </trkpt>
      <trkpt lat="45.02856" lon="6.03188">
        <ele>1624.8</ele>
        <time>2020-09-05T11:14:47Z</time>
      </trkpt>
      <trkpt lat="45.02856" lon="6.03182">
        <ele>1624.4</ele>
        <time>2020-09-05T11:14:48Z</time>
      </trkpt>
      <trkpt lat="45.02856" lon="6.03176">
        <ele>1624.4</ele>
        <time>2020-09-05T11:14:49Z</time>
      </trkpt>
      <trkpt lat="45.02857" lon="6.0317">
        <ele>1624.2</ele>
        <time>2020-09-05T11:14:50Z</time>
      </trkpt>
      <trkpt lat="45.02857" lon="6.03163">
        <ele>1624.4</ele>
        <time>2020-09-05T11:14:51Z</time>
      </trkpt>
      <trkpt lat="45.02858" lon="6.03157">
        <ele>1624.4</ele>
        <time>2020-09-05T11:14:52Z</time>
      </trkpt>
      <trkpt lat="45.02859" lon="6.0315">
        <ele>1624.4</ele>
        <time>2020-09-05T11:14:53Z</time>
      </trkpt>
      <trkpt lat="45.0286" lon="6.03144">
        <ele>1624.2</ele>
        <time>2020-09-05T11:14:54Z</time>
      </trkpt>
      <trkpt lat="45.02862" lon="6.03137">
        <ele>1624</ele>
        <time>2020-09-05T11:14:55Z</time>
      </trkpt>
      <trkpt lat="45.02864" lon="6.03131">
        <ele>1624.2</ele>
        <time>2020-09-05T11:14:56Z</time>
      </trkpt>
      <trkpt lat="45.02866" lon="6.03124">
        <ele>1624.2</ele>
        <time>2020-09-05T11:14:57Z</time>
      </trkpt>
      <trkpt lat="45.02868" lon="6.03118">
        <ele>1624</ele>
        <time>2020-09-05T11:14:58Z</time>
      </trkpt>
      <trkpt lat="45.02871" lon="6.03112">
        <ele>1624</ele>
        <time>2020-09-05T11:14:59Z</time>
      </trkpt>
      <trkpt lat="45.02874" lon="6.03106">
        <ele>1624</ele>
        <time>2020-09-05T11:15:00Z</time>
      </trkpt>
      <trkpt lat="45.02878" lon="6.031">
        <ele>1624</ele>
        <time>2020-09-05T11:15:01Z</time>
      </trkpt>
      <trkpt lat="45.02882" lon="6.03093">
        <ele>1623.8</ele>
        <time>2020-09-05T11:15:02Z</time>
      </trkpt>
      <trkpt lat="45.02885" lon="6.03085">
        <ele>1623.6</ele>
        <time>2020-09-05T11:15:03Z</time>
      </trkpt>
      <trkpt lat="45.02888" lon="6.03078">
        <ele>1623.4</ele>
        <time>2020-09-05T11:15:04Z</time>
      </trkpt>
      <trkpt lat="45.02891" lon="6.03072">
        <ele>1623.4</ele>
        <time>2020-09-05T11:15:05Z</time>
      </trkpt>
      <trkpt lat="45.02894" lon="6.03066">
        <ele>1623.6</ele>
        <time>2020-09-05T11:15:06Z</time>
      </trkpt>
      <trkpt lat="45.02897" lon="6.03061">
        <ele>1623.2</ele>
        <time>2020-09-05T11:15:07Z</time>
      </trkpt>
      <trkpt lat="45.02902" lon="6.03059">
        <ele>1623.4</ele>
        <time>2020-09-05T11:15:08Z</time>
      </trkpt>
      <trkpt lat="45.02906" lon="6.03058">
        <ele>1623</ele>
        <time>2020-09-05T11:15:09Z</time>
      </trkpt>
      <trkpt lat="45.02909" lon="6.0306">
        <ele>1623</ele>
        <time>2020-09-05T11:15:10Z</time>
      </trkpt>
      <trkpt lat="45.02912" lon="6.03063">
        <ele>1623</ele>
        <time>2020-09-05T11:15:11Z</time>
      </trkpt>
      <trkpt lat="45.02915" lon="6.03066">
        <ele>1623.2</ele>
        <time>2020-09-05T11:15:12Z</time>
      </trkpt>
      <trkpt lat="45.02919" lon="6.03069">
        <ele>1623</ele>
        <time>2020-09-05T11:15:13Z</time>
      </trkpt>
      <trkpt lat="45.02922" lon="6.03072">
        <ele>1622.6</ele>
        <time>2020-09-05T11:15:14Z</time>
      </trkpt>
      <trkpt lat="45.02926" lon="6.03074">
        <ele>1622.4</ele>
        <time>2020-09-05T11:15:15Z</time>
      </trkpt>
      <trkpt lat="45.02931" lon="6.03076">
        <ele>1622.4</ele>
        <time>2020-09-05T11:15:16Z</time>
      </trkpt>
      <trkpt lat="45.02936" lon="6.03076">
        <ele>1622.8</ele>
        <time>2020-09-05T11:15:17Z</time>
      </trkpt>
      <trkpt lat="45.02941" lon="6.03076">
        <ele>1622.8</ele>
        <time>2020-09-05T11:15:18Z</time>
      </trkpt>
      <trkpt lat="45.02946" lon="6.03075">
        <ele>1622.6</ele>
        <time>2020-09-05T11:15:19Z</time>
      </trkpt>
      <trkpt lat="45.02951" lon="6.03075">
        <ele>1622.4</ele>
        <time>2020-09-05T11:15:20Z</time>
      </trkpt>
      <trkpt lat="45.02956" lon="6.03075">
        <ele>1622.2</ele>
        <time>2020-09-05T11:15:21Z</time>
      </trkpt>
      <trkpt lat="45.02962" lon="6.03075">
        <ele>1621.6</ele>
        <time>2020-09-05T11:15:22Z</time>
      </trkpt>
      <trkpt lat="45.02966" lon="6.03074">
        <ele>1621.4</ele>
        <time>2020-09-05T11:15:23Z</time>
      </trkpt>
      <trkpt lat="45.02971" lon="6.03074">
        <ele>1621.2</ele>
        <time>2020-09-05T11:15:24Z</time>
      </trkpt>
      <trkpt lat="45.02976" lon="6.03073">
        <ele>1621</ele>
        <time>2020-09-05T11:15:25Z</time>
      </trkpt>
      <trkpt lat="45.02981" lon="6.03072">
        <ele>1621</ele>
        <time>2020-09-05T11:15:26Z</time>
      </trkpt>
      <trkpt lat="45.02986" lon="6.03071">
        <ele>1621.2</ele>
        <time>2020-09-05T11:15:27Z</time>
      </trkpt>
      <trkpt lat="45.02991" lon="6.0307">
        <ele>1621.2</ele>
        <time>2020-09-05T11:15:28Z</time>
      </trkpt>
      <trkpt lat="45.02997" lon="6.0307">
        <ele>1621</ele>
        <time>2020-09-05T11:15:29Z</time>
      </trkpt>
      <trkpt lat="45.03002" lon="6.03069">
        <ele>1620.6</ele>
        <time>2020-09-05T11:15:30Z</time>
      </trkpt>
      <trkpt lat="45.03008" lon="6.03069">
        <ele>1620.6</ele>
        <time>2020-09-05T11:15:31Z</time>
      </trkpt>
      <trkpt lat="45.03013" lon="6.03069">
        <ele>1620.4</ele>
        <time>2020-09-05T11:15:32Z</time>
      </trkpt>
      <trkpt lat="45.03019" lon="6.0307">
        <ele>1620.6</ele>
        <time>2020-09-05T11:15:33Z</time>
      </trkpt>
      <trkpt lat="45.03024" lon="6.03071">
        <ele>1620.4</ele>
        <time>2020-09-05T11:15:34Z</time>
      </trkpt>
      <trkpt lat="45.03029" lon="6.03071">
        <ele>1620.2</ele>
        <time>2020-09-05T11:15:35Z</time>
      </trkpt>
      <trkpt lat="45.03035" lon="6.0307">
        <ele>1620</ele>
        <time>2020-09-05T11:15:36Z</time>
      </trkpt>
      <trkpt lat="45.0304" lon="6.03067">
        <ele>1619.8</ele>
        <time>2020-09-05T11:15:37Z</time>
      </trkpt>
      <trkpt lat="45.03045" lon="6.03063">
        <ele>1619.6</ele>
        <time>2020-09-05T11:15:38Z</time>
      </trkpt>
      <trkpt lat="45.03049" lon="6.03058">
        <ele>1619.6</ele>
        <time>2020-09-05T11:15:39Z</time>
      </trkpt>
      <trkpt lat="45.03053" lon="6.03053">
        <ele>1619.6</ele>
        <time>2020-09-05T11:15:40Z</time>
      </trkpt>
      <trkpt lat="45.03057" lon="6.03046">
        <ele>1619.8</ele>
        <time>2020-09-05T11:15:41Z</time>
      </trkpt>
      <trkpt lat="45.0306" lon="6.03039">
        <ele>1619.8</ele>
        <time>2020-09-05T11:15:42Z</time>
      </trkpt>
      <trkpt lat="45.03063" lon="6.03033">
        <ele>1619.4</ele>
        <time>2020-09-05T11:15:43Z</time>
      </trkpt>
      <trkpt lat="45.03066" lon="6.03026">
        <ele>1619.4</ele>
        <time>2020-09-05T11:15:44Z</time>
      </trkpt>
      <trkpt lat="45.03068" lon="6.0302">
        <ele>1619.2</ele>
        <time>2020-09-05T11:15:45Z</time>
      </trkpt>
      <trkpt lat="45.0307" lon="6.03014">
        <ele>1619</ele>
        <time>2020-09-05T11:15:46Z</time>
      </trkpt>
      <trkpt lat="45.03073" lon="6.03008">
        <ele>1619</ele>
        <time>2020-09-05T11:15:47Z</time>
      </trkpt>
      <trkpt lat="45.03075" lon="6.03002">
        <ele>1619.2</ele>
        <time>2020-09-05T11:15:48Z</time>
      </trkpt>
      <trkpt lat="45.03077" lon="6.02997">
        <ele>1619</ele>
        <time>2020-09-05T11:15:49Z</time>
      </trkpt>
      <trkpt lat="45.03078" lon="6.02991">
        <ele>1618.8</ele>
        <time>2020-09-05T11:15:50Z</time>
      </trkpt>
      <trkpt lat="45.0308" lon="6.02985">
        <ele>1618.6</ele>
        <time>2020-09-05T11:15:51Z</time>
      </trkpt>
      <trkpt lat="45.03082" lon="6.02978">
        <ele>1619</ele>
        <time>2020-09-05T11:15:52Z</time>
      </trkpt>
      <trkpt lat="45.03082" lon="6.02971">
        <ele>1619</ele>
        <time>2020-09-05T11:15:53Z</time>
      </trkpt>
      <trkpt lat="45.03083" lon="6.02964">
        <ele>1619</ele>
        <time>2020-09-05T11:15:54Z</time>
      </trkpt>
      <trkpt lat="45.03083" lon="6.02956">
        <ele>1619</ele>
        <time>2020-09-05T11:15:55Z</time>
      </trkpt>
      <trkpt lat="45.03083" lon="6.02949">
        <ele>1618.4</ele>
        <time>2020-09-05T11:15:56Z</time>
      </trkpt>
      <trkpt lat="45.03084" lon="6.02941">
        <ele>1618.4</ele>
        <time>2020-09-05T11:15:57Z</time>
      </trkpt>
      <trkpt lat="45.03084" lon="6.02934">
        <ele>1618.2</ele>
        <time>2020-09-05T11:15:58Z</time>
      </trkpt>
      <trkpt lat="45.03084" lon="6.02926">
        <ele>1618</ele>
        <time>2020-09-05T11:15:59Z</time>
      </trkpt>
      <trkpt lat="45.03085" lon="6.02918">
        <ele>1617.6</ele>
        <time>2020-09-05T11:16:00Z</time>
      </trkpt>
      <trkpt lat="45.03086" lon="6.0291">
        <ele>1617.8</ele>
        <time>2020-09-05T11:16:01Z</time>
      </trkpt>
      <trkpt lat="45.03087" lon="6.02903">
        <ele>1617.6</ele>
        <time>2020-09-05T11:16:02Z</time>
      </trkpt>
      <trkpt lat="45.03088" lon="6.02895">
        <ele>1617.6</ele>
        <time>2020-09-05T11:16:03Z</time>
      </trkpt>
      <trkpt lat="45.0309" lon="6.02887">
        <ele>1617.6</ele>
        <time>2020-09-05T11:16:04Z</time>
      </trkpt>
      <trkpt lat="45.03092" lon="6.0288">
        <ele>1617.4</ele>
        <time>2020-09-05T11:16:05Z</time>
      </trkpt>
      <trkpt lat="45.03095" lon="6.02874">
        <ele>1617.4</ele>
        <time>2020-09-05T11:16:06Z</time>
      </trkpt>
      <trkpt lat="45.03098" lon="6.02867">
        <ele>1617.6</ele>
        <time>2020-09-05T11:16:07Z</time>
      </trkpt>
      <trkpt lat="45.03101" lon="6.02861">
        <ele>1617.4</ele>
        <time>2020-09-05T11:16:08Z</time>
      </trkpt>
      <trkpt lat="45.03104" lon="6.02854">
        <ele>1617</ele>
        <time>2020-09-05T11:16:09Z</time>
      </trkpt>
      <trkpt lat="45.03107" lon="6.02848">
        <ele>1617.2</ele>
        <time>2020-09-05T11:16:10Z</time>
      </trkpt>
      <trkpt lat="45.03109" lon="6.02841">
        <ele>1617.2</ele>
        <time>2020-09-05T11:16:11Z</time>
      </trkpt>
      <trkpt lat="45.0311" lon="6.02834">
        <ele>1617</ele>
        <time>2020-09-05T11:16:12Z</time>
      </trkpt>
      <trkpt lat="45.03111" lon="6.02827">
        <ele>1617</ele>
        <time>2020-09-05T11:16:13Z</time>
      </trkpt>
      <trkpt lat="45.03112" lon="6.0282">
        <ele>1616.8</ele>
        <time>2020-09-05T11:16:14Z</time>
      </trkpt>
      <trkpt lat="45.03114" lon="6.02814">
        <ele>1616.4</ele>
        <time>2020-09-05T11:16:15Z</time>
      </trkpt>
      <trkpt lat="45.03117" lon="6.02808">
        <ele>1616.2</ele>
        <time>2020-09-05T11:16:16Z</time>
      </trkpt>
      <trkpt lat="45.0312" lon="6.02804">
        <ele>1616</ele>
        <time>2020-09-05T11:16:17Z</time>
      </trkpt>
      <trkpt lat="45.03124" lon="6.02802">
        <ele>1616</ele>
        <time>2020-09-05T11:16:18Z</time>
      </trkpt>
      <trkpt lat="45.03128" lon="6.028">
        <ele>1616</ele>
        <time>2020-09-05T11:16:19Z</time>
      </trkpt>
      <trkpt lat="45.03133" lon="6.028">
        <ele>1616</ele>
        <time>2020-09-05T11:16:20Z</time>
      </trkpt>
      <trkpt lat="45.03137" lon="6.02801">
        <ele>1615.8</ele>
        <time>2020-09-05T11:16:21Z</time>
      </trkpt>
      <trkpt lat="45.03141" lon="6.028">
        <ele>1615.8</ele>
        <time>2020-09-05T11:16:22Z</time>
      </trkpt>
      <trkpt lat="45.03146" lon="6.02799">
        <ele>1616</ele>
        <time>2020-09-05T11:16:23Z</time>
      </trkpt>
      <trkpt lat="45.0315" lon="6.02798">
        <ele>1616.2</ele>
        <time>2020-09-05T11:16:24Z</time>
      </trkpt>
      <trkpt lat="45.03154" lon="6.02796">
        <ele>1616</ele>
        <time>2020-09-05T11:16:25Z</time>
      </trkpt>
      <trkpt lat="45.03159" lon="6.02795">
        <ele>1616</ele>
        <time>2020-09-05T11:16:26Z</time>
      </trkpt>
      <trkpt lat="45.03163" lon="6.02794">
        <ele>1615.8</ele>
        <time>2020-09-05T11:16:27Z</time>
      </trkpt>
      <trkpt lat="45.03168" lon="6.02793">
        <ele>1615.4</ele>
        <time>2020-09-05T11:16:28Z</time>
      </trkpt>
      <trkpt lat="45.03172" lon="6.02792">
        <ele>1615.4</ele>
        <time>2020-09-05T11:16:29Z</time>
      </trkpt>
      <trkpt lat="45.03176" lon="6.02792">
        <ele>1614.8</ele>
        <time>2020-09-05T11:16:30Z</time>
      </trkpt>
      <trkpt lat="45.03181" lon="6.02792">
        <ele>1615</ele>
        <time>2020-09-05T11:16:31Z</time>
      </trkpt>
      <trkpt lat="45.03185" lon="6.02791">
        <ele>1614.6</ele>
        <time>2020-09-05T11:16:32Z</time>
      </trkpt>
      <trkpt lat="45.03189" lon="6.0279">
        <ele>1614.6</ele>
        <time>2020-09-05T11:16:33Z</time>
      </trkpt>
      <trkpt lat="45.03193" lon="6.02787">
        <ele>1614.2</ele>
        <time>2020-09-05T11:16:34Z</time>
      </trkpt>
      <trkpt lat="45.03197" lon="6.02782">
        <ele>1614</ele>
        <time>2020-09-05T11:16:35Z</time>
      </trkpt>
      <trkpt lat="45.032" lon="6.02777">
        <ele>1614</ele>
        <time>2020-09-05T11:16:36Z</time>
      </trkpt>
      <trkpt lat="45.03203" lon="6.02771">
        <ele>1614</ele>
        <time>2020-09-05T11:16:37Z</time>
      </trkpt>
      <trkpt lat="45.03205" lon="6.02765">
        <ele>1614</ele>
        <time>2020-09-05T11:16:38Z</time>
      </trkpt>
      <trkpt lat="45.03206" lon="6.02759">
        <ele>1614.2</ele>
        <time>2020-09-05T11:16:39Z</time>
      </trkpt>
      <trkpt lat="45.03208" lon="6.02753">
        <ele>1614.2</ele>
        <time>2020-09-05T11:16:40Z</time>
      </trkpt>
      <trkpt lat="45.0321" lon="6.02748">
        <ele>1614.2</ele>
        <time>2020-09-05T11:16:41Z</time>
      </trkpt>
      <trkpt lat="45.03212" lon="6.02743">
        <ele>1614</ele>
        <time>2020-09-05T11:16:42Z</time>
      </trkpt>
      <trkpt lat="45.03214" lon="6.02738">
        <ele>1614.2</ele>
        <time>2020-09-05T11:16:43Z</time>
      </trkpt>
      <trkpt lat="45.03217" lon="6.02734">
        <ele>1614.2</ele>
        <time>2020-09-05T11:16:44Z</time>
      </trkpt>
      <trkpt lat="45.0322" lon="6.02729">
        <ele>1614</ele>
        <time>2020-09-05T11:16:45Z</time>
      </trkpt>
      <trkpt lat="45.03223" lon="6.02725">
        <ele>1614</ele>
        <time>2020-09-05T11:16:46Z</time>
      </trkpt>
      <trkpt lat="45.03226" lon="6.02721">
        <ele>1613.8</ele>
        <time>2020-09-05T11:16:47Z</time>
      </trkpt>
      <trkpt lat="45.03228" lon="6.02716">
        <ele>1613.8</ele>
        <time>2020-09-05T11:16:48Z</time>
      </trkpt>
      <trkpt lat="45.03229" lon="6.02711">
        <ele>1613.6</ele>
        <time>2020-09-05T11:16:49Z</time>
      </trkpt>
      <trkpt lat="45.03231" lon="6.02705">
        <ele>1613.4</ele>
        <time>2020-09-05T11:16:50Z</time>
      </trkpt>
      <trkpt lat="45.03232" lon="6.02698">
        <ele>1613.2</ele>
        <time>2020-09-05T11:16:51Z</time>
      </trkpt>
      <trkpt lat="45.03234" lon="6.02692">
        <ele>1613.2</ele>
        <time>2020-09-05T11:16:52Z</time>
      </trkpt>
      <trkpt lat="45.03236" lon="6.02686">
        <ele>1613.2</ele>
        <time>2020-09-05T11:16:53Z</time>
      </trkpt>
      <trkpt lat="45.03238" lon="6.0268">
        <ele>1613</ele>
        <time>2020-09-05T11:16:54Z</time>
      </trkpt>
      <trkpt lat="45.0324" lon="6.02674">
        <ele>1613.2</ele>
        <time>2020-09-05T11:16:55Z</time>
      </trkpt>
      <trkpt lat="45.03242" lon="6.02668">
        <ele>1613.2</ele>
        <time>2020-09-05T11:16:56Z</time>
      </trkpt>
      <trkpt lat="45.03245" lon="6.02663">
        <ele>1612.8</ele>
        <time>2020-09-05T11:16:57Z</time>
      </trkpt>
      <trkpt lat="45.03248" lon="6.02658">
        <ele>1612.6</ele>
        <time>2020-09-05T11:16:58Z</time>
      </trkpt>
      <trkpt lat="45.0325" lon="6.02652">
        <ele>1612.4</ele>
        <time>2020-09-05T11:16:59Z</time>
      </trkpt>
      <trkpt lat="45.03253" lon="6.02646">
        <ele>1612.4</ele>
        <time>2020-09-05T11:17:00Z</time>
      </trkpt>
      <trkpt lat="45.03256" lon="6.02641">
        <ele>1612.4</ele>
        <time>2020-09-05T11:17:01Z</time>
      </trkpt>
      <trkpt lat="45.0326" lon="6.02636">
        <ele>1612.6</ele>
        <time>2020-09-05T11:17:02Z</time>
      </trkpt>
      <trkpt lat="45.03264" lon="6.02632">
        <ele>1612.2</ele>
        <time>2020-09-05T11:17:03Z</time>
      </trkpt>
      <trkpt lat="45.03269" lon="6.02627">
        <ele>1611.8</ele>
        <time>2020-09-05T11:17:04Z</time>
      </trkpt>
      <trkpt lat="45.03273" lon="6.02623">
        <ele>1612</ele>
        <time>2020-09-05T11:17:05Z</time>
      </trkpt>
      <trkpt lat="45.03277" lon="6.0262">
        <ele>1612</ele>
        <time>2020-09-05T11:17:06Z</time>
      </trkpt>
      <trkpt lat="45.03281" lon="6.02617">
        <ele>1612</ele>
        <time>2020-09-05T11:17:07Z</time>
      </trkpt>
      <trkpt lat="45.03286" lon="6.02614">
        <ele>1612</ele>
        <time>2020-09-05T11:17:08Z</time>
      </trkpt>
      <trkpt lat="45.0329" lon="6.02612">
        <ele>1611.8</ele>
        <time>2020-09-05T11:17:09Z</time>
      </trkpt>
      <trkpt lat="45.03295" lon="6.0261">
        <ele>1611.8</ele>
        <time>2020-09-05T11:17:10Z</time>
      </trkpt>
      <trkpt lat="45.03303" lon="6.02603">
        <ele>1611.4</ele>
        <time>2020-09-05T11:17:12Z</time>
      </trkpt>
      <trkpt lat="45.03311" lon="6.02595">
        <ele>1611</ele>
        <time>2020-09-05T11:17:14Z</time>
      </trkpt>
      <trkpt lat="45.03314" lon="6.02592">
        <ele>1610.4</ele>
        <time>2020-09-05T11:17:15Z</time>
      </trkpt>
      <trkpt lat="45.03318" lon="6.02588">
        <ele>1609.8</ele>
        <time>2020-09-05T11:17:16Z</time>
      </trkpt>
      <trkpt lat="45.03321" lon="6.02584">
        <ele>1609.4</ele>
        <time>2020-09-05T11:17:17Z</time>
      </trkpt>
      <trkpt lat="45.03325" lon="6.0258">
        <ele>1609</ele>
        <time>2020-09-05T11:17:18Z</time>
      </trkpt>
      <trkpt lat="45.03328" lon="6.02576">
        <ele>1608.6</ele>
        <time>2020-09-05T11:17:19Z</time>
      </trkpt>
      <trkpt lat="45.03333" lon="6.02573">
        <ele>1608.4</ele>
        <time>2020-09-05T11:17:20Z</time>
      </trkpt>
      <trkpt lat="45.03338" lon="6.02572">
        <ele>1608.2</ele>
        <time>2020-09-05T11:17:21Z</time>
      </trkpt>
      <trkpt lat="45.03344" lon="6.02571">
        <ele>1608</ele>
        <time>2020-09-05T11:17:22Z</time>
      </trkpt>
      <trkpt lat="45.0335" lon="6.02571">
        <ele>1608</ele>
        <time>2020-09-05T11:17:23Z</time>
      </trkpt>
      <trkpt lat="45.03355" lon="6.02571">
        <ele>1607.8</ele>
        <time>2020-09-05T11:17:24Z</time>
      </trkpt>
      <trkpt lat="45.03361" lon="6.02571">
        <ele>1607.8</ele>
        <time>2020-09-05T11:17:25Z</time>
      </trkpt>
      <trkpt lat="45.03366" lon="6.02571">
        <ele>1608</ele>
        <time>2020-09-05T11:17:26Z</time>
      </trkpt>
      <trkpt lat="45.03371" lon="6.02571">
        <ele>1607.8</ele>
        <time>2020-09-05T11:17:27Z</time>
      </trkpt>
      <trkpt lat="45.03376" lon="6.02571">
        <ele>1607.8</ele>
        <time>2020-09-05T11:17:28Z</time>
      </trkpt>
      <trkpt lat="45.03382" lon="6.02572">
        <ele>1607.6</ele>
        <time>2020-09-05T11:17:29Z</time>
      </trkpt>
      <trkpt lat="45.03387" lon="6.02573">
        <ele>1607.4</ele>
        <time>2020-09-05T11:17:30Z</time>
      </trkpt>
      <trkpt lat="45.03392" lon="6.02572">
        <ele>1607.2</ele>
        <time>2020-09-05T11:17:31Z</time>
      </trkpt>
      <trkpt lat="45.03396" lon="6.02569">
        <ele>1607</ele>
        <time>2020-09-05T11:17:32Z</time>
      </trkpt>
      <trkpt lat="45.034" lon="6.02564">
        <ele>1606.8</ele>
        <time>2020-09-05T11:17:33Z</time>
      </trkpt>
      <trkpt lat="45.03404" lon="6.02559">
        <ele>1606.8</ele>
        <time>2020-09-05T11:17:34Z</time>
      </trkpt>
      <trkpt lat="45.03407" lon="6.02554">
        <ele>1606.6</ele>
        <time>2020-09-05T11:17:35Z</time>
      </trkpt>
      <trkpt lat="45.03409" lon="6.02548">
        <ele>1606.4</ele>
        <time>2020-09-05T11:17:36Z</time>
      </trkpt>
      <trkpt lat="45.03412" lon="6.02542">
        <ele>1606.2</ele>
        <time>2020-09-05T11:17:37Z</time>
      </trkpt>
      <trkpt lat="45.03414" lon="6.02535">
        <ele>1606</ele>
        <time>2020-09-05T11:17:38Z</time>
      </trkpt>
      <trkpt lat="45.03416" lon="6.02529">
        <ele>1605.8</ele>
        <time>2020-09-05T11:17:39Z</time>
      </trkpt>
      <trkpt lat="45.03418" lon="6.02523">
        <ele>1605.6</ele>
        <time>2020-09-05T11:17:40Z</time>
      </trkpt>
      <trkpt lat="45.03419" lon="6.02517">
        <ele>1605.4</ele>
        <time>2020-09-05T11:17:41Z</time>
      </trkpt>
      <trkpt lat="45.0342" lon="6.02511">
        <ele>1605.4</ele>
        <time>2020-09-05T11:17:42Z</time>
      </trkpt>
      <trkpt lat="45.03421" lon="6.02505">
        <ele>1604.8</ele>
        <time>2020-09-05T11:17:43Z</time>
      </trkpt>
      <trkpt lat="45.03422" lon="6.02498">
        <ele>1604.4</ele>
        <time>2020-09-05T11:17:44Z</time>
      </trkpt>
      <trkpt lat="45.03424" lon="6.02492">
        <ele>1603.8</ele>
        <time>2020-09-05T11:17:45Z</time>
      </trkpt>
      <trkpt lat="45.03426" lon="6.02487">
        <ele>1603.8</ele>
        <time>2020-09-05T11:17:46Z</time>
      </trkpt>
      <trkpt lat="45.03429" lon="6.02483">
        <ele>1603.6</ele>
        <time>2020-09-05T11:17:47Z</time>
      </trkpt>
      <trkpt lat="45.03432" lon="6.02479">
        <ele>1603</ele>
        <time>2020-09-05T11:17:48Z</time>
      </trkpt>
      <trkpt lat="45.03435" lon="6.02476">
        <ele>1603</ele>
        <time>2020-09-05T11:17:49Z</time>
      </trkpt>
      <trkpt lat="45.03439" lon="6.02473">
        <ele>1603</ele>
        <time>2020-09-05T11:17:50Z</time>
      </trkpt>
      <trkpt lat="45.03441" lon="6.0247">
        <ele>1603</ele>
        <time>2020-09-05T11:17:51Z</time>
      </trkpt>
      <trkpt lat="45.03443" lon="6.02465">
        <ele>1603</ele>
        <time>2020-09-05T11:17:52Z</time>
      </trkpt>
      <trkpt lat="45.03444" lon="6.02461">
        <ele>1603</ele>
        <time>2020-09-05T11:17:53Z</time>
      </trkpt>
      <trkpt lat="45.03445" lon="6.02457">
        <ele>1603</ele>
        <time>2020-09-05T11:17:54Z</time>
      </trkpt>
      <trkpt lat="45.03446" lon="6.02454">
        <ele>1603.2</ele>
        <time>2020-09-05T11:17:55Z</time>
      </trkpt>
      <trkpt lat="45.03447" lon="6.0245">
        <ele>1603.2</ele>
        <time>2020-09-05T11:17:56Z</time>
      </trkpt>
      <trkpt lat="45.03447" lon="6.02447">
        <ele>1603</ele>
        <time>2020-09-05T11:17:57Z</time>
      </trkpt>
      <trkpt lat="45.03448" lon="6.02444">
        <ele>1603.4</ele>
        <time>2020-09-05T11:17:58Z</time>
      </trkpt>
      <trkpt lat="45.03448" lon="6.02441">
        <ele>1603.6</ele>
        <time>2020-09-05T11:17:59Z</time>
      </trkpt>
      <trkpt lat="45.03449" lon="6.02438">
        <ele>1603.8</ele>
        <time>2020-09-05T11:18:00Z</time>
      </trkpt>
      <trkpt lat="45.03449" lon="6.02435">
        <ele>1604.2</ele>
        <time>2020-09-05T11:18:01Z</time>
      </trkpt>
      <trkpt lat="45.03449" lon="6.02432">
        <ele>1604.2</ele>
        <time>2020-09-05T11:18:02Z</time>
      </trkpt>
      <trkpt lat="45.03448" lon="6.02429">
        <ele>1604.4</ele>
        <time>2020-09-05T11:18:03Z</time>
      </trkpt>
      <trkpt lat="45.03448" lon="6.02426">
        <ele>1604.4</ele>
        <time>2020-09-05T11:18:04Z</time>
      </trkpt>
      <trkpt lat="45.03448" lon="6.02423">
        <ele>1604.8</ele>
        <time>2020-09-05T11:18:05Z</time>
      </trkpt>
      <trkpt lat="45.03447" lon="6.02418">
        <ele>1605.4</ele>
        <time>2020-09-05T11:18:07Z</time>
      </trkpt>
      <trkpt lat="45.03448" lon="6.02415">
        <ele>1605.6</ele>
        <time>2020-09-05T11:18:08Z</time>
      </trkpt>
      <trkpt lat="45.03448" lon="6.02412">
        <ele>1605.8</ele>
        <time>2020-09-05T11:18:09Z</time>
      </trkpt>
      <trkpt lat="45.03449" lon="6.02409">
        <ele>1606.4</ele>
        <time>2020-09-05T11:18:10Z</time>
      </trkpt>
      <trkpt lat="45.0345" lon="6.02406">
        <ele>1606.8</ele>
        <time>2020-09-05T11:18:11Z</time>
      </trkpt>
      <trkpt lat="45.03451" lon="6.02404">
        <ele>1606.8</ele>
        <time>2020-09-05T11:18:12Z</time>
      </trkpt>
      <trkpt lat="45.03452" lon="6.02401">
        <ele>1607</ele>
        <time>2020-09-05T11:18:13Z</time>
      </trkpt>
      <trkpt lat="45.03453" lon="6.02396">
        <ele>1608</ele>
        <time>2020-09-05T11:18:15Z</time>
      </trkpt>
      <trkpt lat="45.03454" lon="6.02393">
        <ele>1608.2</ele>
        <time>2020-09-05T11:18:16Z</time>
      </trkpt>
      <trkpt lat="45.03456" lon="6.0239">
        <ele>1608.4</ele>
        <time>2020-09-05T11:18:17Z</time>
      </trkpt>
      <trkpt lat="45.03457" lon="6.02388">
        <ele>1608.6</ele>
        <time>2020-09-05T11:18:18Z</time>
      </trkpt>
      <trkpt lat="45.03458" lon="6.02385">
        <ele>1608.8</ele>
        <time>2020-09-05T11:18:19Z</time>
      </trkpt>
      <trkpt lat="45.03459" lon="6.02383">
        <ele>1609</ele>
        <time>2020-09-05T11:18:20Z</time>
      </trkpt>
      <trkpt lat="45.03461" lon="6.02381">
        <ele>1609.4</ele>
        <time>2020-09-05T11:18:21Z</time>
      </trkpt>
      <trkpt lat="45.03462" lon="6.02379">
        <ele>1609.6</ele>
        <time>2020-09-05T11:18:22Z</time>
      </trkpt>
      <trkpt lat="45.03464" lon="6.02377">
        <ele>1609.8</ele>
        <time>2020-09-05T11:18:23Z</time>
      </trkpt>
      <trkpt lat="45.03472" lon="6.02366">
        <ele>1611</ele>
        <time>2020-09-05T11:18:28Z</time>
      </trkpt>
      <trkpt lat="45.03478" lon="6.02358">
        <ele>1611.6</ele>
        <time>2020-09-05T11:18:32Z</time>
      </trkpt>
      <trkpt lat="45.03488" lon="6.02354">
        <ele>1612.8</ele>
        <time>2020-09-05T11:18:37Z</time>
      </trkpt>
      <trkpt lat="45.03491" lon="6.02352">
        <ele>1613.4</ele>
        <time>2020-09-05T11:18:39Z</time>
      </trkpt>
      <trkpt lat="45.03493" lon="6.02351">
        <ele>1613.6</ele>
        <time>2020-09-05T11:18:40Z</time>
      </trkpt>
      <trkpt lat="45.03495" lon="6.02349">
        <ele>1613.6</ele>
        <time>2020-09-05T11:18:41Z</time>
      </trkpt>
      <trkpt lat="45.03503" lon="6.02341">
        <ele>1614.2</ele>
        <time>2020-09-05T11:18:45Z</time>
      </trkpt>
      <trkpt lat="45.03508" lon="6.02336">
        <ele>1614.4</ele>
        <time>2020-09-05T11:18:48Z</time>
      </trkpt>
      <trkpt lat="45.03516" lon="6.02331">
        <ele>1615.6</ele>
        <time>2020-09-05T11:18:52Z</time>
      </trkpt>
      <trkpt lat="45.0352" lon="6.02328">
        <ele>1616.4</ele>
        <time>2020-09-05T11:18:54Z</time>
      </trkpt>
      <trkpt lat="45.03524" lon="6.02326">
        <ele>1616.6</ele>
        <time>2020-09-05T11:18:56Z</time>
      </trkpt>
      <trkpt lat="45.03526" lon="6.02325">
        <ele>1616.8</ele>
        <time>2020-09-05T11:18:57Z</time>
      </trkpt>
      <trkpt lat="45.03528" lon="6.02323">
        <ele>1616.8</ele>
        <time>2020-09-05T11:18:58Z</time>
      </trkpt>
      <trkpt lat="45.0353" lon="6.02322">
        <ele>1617.4</ele>
        <time>2020-09-05T11:18:59Z</time>
      </trkpt>
      <trkpt lat="45.03532" lon="6.02321">
        <ele>1617.8</ele>
        <time>2020-09-05T11:19:00Z</time>
      </trkpt>
      <trkpt lat="45.03534" lon="6.0232">
        <ele>1618</ele>
        <time>2020-09-05T11:19:01Z</time>
      </trkpt>
      <trkpt lat="45.03537" lon="6.02317">
        <ele>1618.2</ele>
        <time>2020-09-05T11:19:03Z</time>
      </trkpt>
      <trkpt lat="45.03539" lon="6.02315">
        <ele>1618.4</ele>
        <time>2020-09-05T11:19:04Z</time>
      </trkpt>
      <trkpt lat="45.03541" lon="6.02314">
        <ele>1618.6</ele>
        <time>2020-09-05T11:19:05Z</time>
      </trkpt>
      <trkpt lat="45.03544" lon="6.02312">
        <ele>1619.2</ele>
        <time>2020-09-05T11:19:07Z</time>
      </trkpt>
      <trkpt lat="45.03547" lon="6.0231">
        <ele>1619.6</ele>
        <time>2020-09-05T11:19:09Z</time>
      </trkpt>
      <trkpt lat="45.03549" lon="6.02309">
        <ele>1619.6</ele>
        <time>2020-09-05T11:19:10Z</time>
      </trkpt>
      <trkpt lat="45.0355" lon="6.02308">
        <ele>1619.6</ele>
        <time>2020-09-05T11:19:11Z</time>
      </trkpt>
      <trkpt lat="45.03552" lon="6.02307">
        <ele>1619.8</ele>
        <time>2020-09-05T11:19:12Z</time>
      </trkpt>
      <trkpt lat="45.03554" lon="6.02306">
        <ele>1620.2</ele>
        <time>2020-09-05T11:19:13Z</time>
      </trkpt>
      <trkpt lat="45.03556" lon="6.02304">
        <ele>1620.6</ele>
        <time>2020-09-05T11:19:14Z</time>
      </trkpt>
      <trkpt lat="45.03558" lon="6.02303">
        <ele>1620.6</ele>
        <time>2020-09-05T11:19:15Z</time>
      </trkpt>
      <trkpt lat="45.0356" lon="6.02302">
        <ele>1621</ele>
        <time>2020-09-05T11:19:16Z</time>
      </trkpt>
      <trkpt lat="45.03562" lon="6.02301">
        <ele>1621</ele>
        <time>2020-09-05T11:19:17Z</time>
      </trkpt>
      <trkpt lat="45.03564" lon="6.023">
        <ele>1621</ele>
        <time>2020-09-05T11:19:18Z</time>
      </trkpt>
      <trkpt lat="45.03566" lon="6.02299">
        <ele>1621.2</ele>
        <time>2020-09-05T11:19:19Z</time>
      </trkpt>
      <trkpt lat="45.03567" lon="6.02297">
        <ele>1621.4</ele>
        <time>2020-09-05T11:19:20Z</time>
      </trkpt>
      <trkpt lat="45.03569" lon="6.02295">
        <ele>1621.6</ele>
        <time>2020-09-05T11:19:21Z</time>
      </trkpt>
      <trkpt lat="45.0357" lon="6.02293">
        <ele>1621.8</ele>
        <time>2020-09-05T11:19:22Z</time>
      </trkpt>
      <trkpt lat="45.03572" lon="6.02291">
        <ele>1622.2</ele>
        <time>2020-09-05T11:19:23Z</time>
      </trkpt>
      <trkpt lat="45.03574" lon="6.02289">
        <ele>1622.4</ele>
        <time>2020-09-05T11:19:24Z</time>
      </trkpt>
      <trkpt lat="45.03576" lon="6.02287">
        <ele>1622.4</ele>
        <time>2020-09-05T11:19:25Z</time>
      </trkpt>
      <trkpt lat="45.03578" lon="6.02285">
        <ele>1622.8</ele>
        <time>2020-09-05T11:19:26Z</time>
      </trkpt>
      <trkpt lat="45.03579" lon="6.02283">
        <ele>1623.2</ele>
        <time>2020-09-05T11:19:27Z</time>
      </trkpt>
      <trkpt lat="45.03581" lon="6.02281">
        <ele>1623.4</ele>
        <time>2020-09-05T11:19:28Z</time>
      </trkpt>
      <trkpt lat="45.03583" lon="6.02279">
        <ele>1623.6</ele>
        <time>2020-09-05T11:19:29Z</time>
      </trkpt>
      <trkpt lat="45.03585" lon="6.02277">
        <ele>1624.2</ele>
        <time>2020-09-05T11:19:30Z</time>
      </trkpt>
      <trkpt lat="45.03586" lon="6.02274">
        <ele>1624.4</ele>
        <time>2020-09-05T11:19:31Z</time>
      </trkpt>
      <trkpt lat="45.03587" lon="6.02271">
        <ele>1624.6</ele>
        <time>2020-09-05T11:19:32Z</time>
      </trkpt>
      <trkpt lat="45.03588" lon="6.02268">
        <ele>1624.8</ele>
        <time>2020-09-05T11:19:33Z</time>
      </trkpt>
      <trkpt lat="45.03589" lon="6.02265">
        <ele>1624.8</ele>
        <time>2020-09-05T11:19:34Z</time>
      </trkpt>
      <trkpt lat="45.03589" lon="6.02261">
        <ele>1625</ele>
        <time>2020-09-05T11:19:35Z</time>
      </trkpt>
      <trkpt lat="45.0359" lon="6.02258">
        <ele>1624.6</ele>
        <time>2020-09-05T11:19:36Z</time>
      </trkpt>
      <trkpt lat="45.03591" lon="6.02255">
        <ele>1624.8</ele>
        <time>2020-09-05T11:19:37Z</time>
      </trkpt>
      <trkpt lat="45.03591" lon="6.02251">
        <ele>1625</ele>
        <time>2020-09-05T11:19:38Z</time>
      </trkpt>
      <trkpt lat="45.03592" lon="6.02248">
        <ele>1625.2</ele>
        <time>2020-09-05T11:19:39Z</time>
      </trkpt>
      <trkpt lat="45.03593" lon="6.02245">
        <ele>1625.2</ele>
        <time>2020-09-05T11:19:40Z</time>
      </trkpt>
      <trkpt lat="45.03594" lon="6.02242">
        <ele>1625.4</ele>
        <time>2020-09-05T11:19:41Z</time>
      </trkpt>
      <trkpt lat="45.03595" lon="6.02239">
        <ele>1625.4</ele>
        <time>2020-09-05T11:19:42Z</time>
      </trkpt>
      <trkpt lat="45.03597" lon="6.02236">
        <ele>1625.6</ele>
        <time>2020-09-05T11:19:43Z</time>
      </trkpt>
      <trkpt lat="45.03598" lon="6.02234">
        <ele>1625.6</ele>
        <time>2020-09-05T11:19:44Z</time>
      </trkpt>
      <trkpt lat="45.03599" lon="6.02231">
        <ele>1625.8</ele>
        <time>2020-09-05T11:19:45Z</time>
      </trkpt>
      <trkpt lat="45.03601" lon="6.02229">
        <ele>1626</ele>
        <time>2020-09-05T11:19:46Z</time>
      </trkpt>
      <trkpt lat="45.03602" lon="6.02226">
        <ele>1626.2</ele>
        <time>2020-09-05T11:19:47Z</time>
      </trkpt>
      <trkpt lat="45.03604" lon="6.02224">
        <ele>1626.6</ele>
        <time>2020-09-05T11:19:48Z</time>
      </trkpt>
      <trkpt lat="45.03606" lon="6.02222">
        <ele>1626.6</ele>
        <time>2020-09-05T11:19:49Z</time>
      </trkpt>
      <trkpt lat="45.03607" lon="6.02219">
        <ele>1627</ele>
        <time>2020-09-05T11:19:50Z</time>
      </trkpt>
      <trkpt lat="45.03609" lon="6.02217">
        <ele>1627</ele>
        <time>2020-09-05T11:19:51Z</time>
      </trkpt>
      <trkpt lat="45.0361" lon="6.02214">
        <ele>1627.2</ele>
        <time>2020-09-05T11:19:52Z</time>
      </trkpt>
      <trkpt lat="45.03611" lon="6.02212">
        <ele>1627.6</ele>
        <time>2020-09-05T11:19:53Z</time>
      </trkpt>
      <trkpt lat="45.03613" lon="6.02209">
        <ele>1627.8</ele>
        <time>2020-09-05T11:19:54Z</time>
      </trkpt>
      <trkpt lat="45.03614" lon="6.02207">
        <ele>1627.8</ele>
        <time>2020-09-05T11:19:55Z</time>
      </trkpt>
      <trkpt lat="45.03615" lon="6.02204">
        <ele>1628.4</ele>
        <time>2020-09-05T11:19:56Z</time>
      </trkpt>
      <trkpt lat="45.03616" lon="6.02201">
        <ele>1628.6</ele>
        <time>2020-09-05T11:19:57Z</time>
      </trkpt>
      <trkpt lat="45.03618" lon="6.02199">
        <ele>1628.8</ele>
        <time>2020-09-05T11:19:58Z</time>
      </trkpt>
      <trkpt lat="45.0362" lon="6.02196">
        <ele>1629.4</ele>
        <time>2020-09-05T11:19:59Z</time>
      </trkpt>
      <trkpt lat="45.03622" lon="6.02193">
        <ele>1629.6</ele>
        <time>2020-09-05T11:20:00Z</time>
      </trkpt>
      <trkpt lat="45.03623" lon="6.02191">
        <ele>1629.8</ele>
        <time>2020-09-05T11:20:01Z</time>
      </trkpt>
      <trkpt lat="45.03625" lon="6.02189">
        <ele>1630.2</ele>
        <time>2020-09-05T11:20:02Z</time>
      </trkpt>
      <trkpt lat="45.03626" lon="6.02187">
        <ele>1630.2</ele>
        <time>2020-09-05T11:20:03Z</time>
      </trkpt>
      <trkpt lat="45.03627" lon="6.02185">
        <ele>1630.4</ele>
        <time>2020-09-05T11:20:04Z</time>
      </trkpt>
      <trkpt lat="45.03629" lon="6.02181">
        <ele>1631.2</ele>
        <time>2020-09-05T11:20:06Z</time>
      </trkpt>
      <trkpt lat="45.03631" lon="6.02177">
        <ele>1631.4</ele>
        <time>2020-09-05T11:20:08Z</time>
      </trkpt>
      <trkpt lat="45.03631" lon="6.02172">
        <ele>1632.2</ele>
        <time>2020-09-05T11:20:10Z</time>
      </trkpt>
      <trkpt lat="45.03631" lon="6.02169">
        <ele>1632.4</ele>
        <time>2020-09-05T11:20:11Z</time>
      </trkpt>
      <trkpt lat="45.03631" lon="6.02166">
        <ele>1632.8</ele>
        <time>2020-09-05T11:20:12Z</time>
      </trkpt>
      <trkpt lat="45.03631" lon="6.02163">
        <ele>1632.8</ele>
        <time>2020-09-05T11:20:13Z</time>
      </trkpt>
      <trkpt lat="45.0363" lon="6.0216">
        <ele>1633.2</ele>
        <time>2020-09-05T11:20:14Z</time>
      </trkpt>
      <trkpt lat="45.03629" lon="6.02158">
        <ele>1633.4</ele>
        <time>2020-09-05T11:20:15Z</time>
      </trkpt>
      <trkpt lat="45.03628" lon="6.02155">
        <ele>1633.6</ele>
        <time>2020-09-05T11:20:16Z</time>
      </trkpt>
      <trkpt lat="45.03627" lon="6.02153">
        <ele>1633.6</ele>
        <time>2020-09-05T11:20:17Z</time>
      </trkpt>
      <trkpt lat="45.03626" lon="6.0215">
        <ele>1634</ele>
        <time>2020-09-05T11:20:18Z</time>
      </trkpt>
      <trkpt lat="45.03625" lon="6.02148">
        <ele>1634.4</ele>
        <time>2020-09-05T11:20:19Z</time>
      </trkpt>
      <trkpt lat="45.03623" lon="6.02146">
        <ele>1634.2</ele>
        <time>2020-09-05T11:20:20Z</time>
      </trkpt>
      <trkpt lat="45.03621" lon="6.02144">
        <ele>1634.4</ele>
        <time>2020-09-05T11:20:21Z</time>
      </trkpt>
      <trkpt lat="45.03619" lon="6.02141">
        <ele>1634.6</ele>
        <time>2020-09-05T11:20:22Z</time>
      </trkpt>
      <trkpt lat="45.03617" lon="6.02139">
        <ele>1634.6</ele>
        <time>2020-09-05T11:20:23Z</time>
      </trkpt>
      <trkpt lat="45.03616" lon="6.02136">
        <ele>1635</ele>
        <time>2020-09-05T11:20:24Z</time>
      </trkpt>
      <trkpt lat="45.03614" lon="6.02134">
        <ele>1635</ele>
        <time>2020-09-05T11:20:25Z</time>
      </trkpt>
      <trkpt lat="45.03613" lon="6.02131">
        <ele>1635.2</ele>
        <time>2020-09-05T11:20:26Z</time>
      </trkpt>
      <trkpt lat="45.03612" lon="6.02127">
        <ele>1635.4</ele>
        <time>2020-09-05T11:20:28Z</time>
      </trkpt>
      <trkpt lat="45.03612" lon="6.02124">
        <ele>1635.8</ele>
        <time>2020-09-05T11:20:29Z</time>
      </trkpt>
      <trkpt lat="45.03612" lon="6.02121">
        <ele>1636.2</ele>
        <time>2020-09-05T11:20:30Z</time>
      </trkpt>
      <trkpt lat="45.03613" lon="6.02118">
        <ele>1636.4</ele>
        <time>2020-09-05T11:20:31Z</time>
      </trkpt>
      <trkpt lat="45.03613" lon="6.02115">
        <ele>1636.4</ele>
        <time>2020-09-05T11:20:32Z</time>
      </trkpt>
      <trkpt lat="45.03614" lon="6.02112">
        <ele>1636.6</ele>
        <time>2020-09-05T11:20:33Z</time>
      </trkpt>
      <trkpt lat="45.03614" lon="6.02109">
        <ele>1637</ele>
        <time>2020-09-05T11:20:34Z</time>
      </trkpt>
      <trkpt lat="45.03614" lon="6.02106">
        <ele>1637.2</ele>
        <time>2020-09-05T11:20:35Z</time>
      </trkpt>
      <trkpt lat="45.03614" lon="6.02103">
        <ele>1637.4</ele>
        <time>2020-09-05T11:20:36Z</time>
      </trkpt>
      <trkpt lat="45.03614" lon="6.021">
        <ele>1637.4</ele>
        <time>2020-09-05T11:20:37Z</time>
      </trkpt>
      <trkpt lat="45.03614" lon="6.02097">
        <ele>1637.8</ele>
        <time>2020-09-05T11:20:38Z</time>
      </trkpt>
      <trkpt lat="45.03614" lon="6.02093">
        <ele>1638</ele>
        <time>2020-09-05T11:20:39Z</time>
      </trkpt>
      <trkpt lat="45.03615" lon="6.02089">
        <ele>1638</ele>
        <time>2020-09-05T11:20:40Z</time>
      </trkpt>
      <trkpt lat="45.03616" lon="6.02086">
        <ele>1638.4</ele>
        <time>2020-09-05T11:20:41Z</time>
      </trkpt>
      <trkpt lat="45.03617" lon="6.02082">
        <ele>1638.4</ele>
        <time>2020-09-05T11:20:42Z</time>
      </trkpt>
      <trkpt lat="45.03618" lon="6.02079">
        <ele>1638.6</ele>
        <time>2020-09-05T11:20:43Z</time>
      </trkpt>
      <trkpt lat="45.03619" lon="6.02077">
        <ele>1638.8</ele>
        <time>2020-09-05T11:20:44Z</time>
      </trkpt>
      <trkpt lat="45.0362" lon="6.02074">
        <ele>1639</ele>
        <time>2020-09-05T11:20:45Z</time>
      </trkpt>
      <trkpt lat="45.03622" lon="6.02071">
        <ele>1639.2</ele>
        <time>2020-09-05T11:20:46Z</time>
      </trkpt>
      <trkpt lat="45.03623" lon="6.02068">
        <ele>1639.8</ele>
        <time>2020-09-05T11:20:47Z</time>
      </trkpt>
      <trkpt lat="45.03624" lon="6.02065">
        <ele>1639.8</ele>
        <time>2020-09-05T11:20:48Z</time>
      </trkpt>
      <trkpt lat="45.03625" lon="6.02063">
        <ele>1640.2</ele>
        <time>2020-09-05T11:20:49Z</time>
      </trkpt>
      <trkpt lat="45.03627" lon="6.02062">
        <ele>1640.4</ele>
        <time>2020-09-05T11:20:50Z</time>
      </trkpt>
      <trkpt lat="45.03629" lon="6.0206">
        <ele>1640.6</ele>
        <time>2020-09-05T11:20:51Z</time>
      </trkpt>
      <trkpt lat="45.03631" lon="6.02058">
        <ele>1640.8</ele>
        <time>2020-09-05T11:20:52Z</time>
      </trkpt>
      <trkpt lat="45.03632" lon="6.02056">
        <ele>1641</ele>
        <time>2020-09-05T11:20:53Z</time>
      </trkpt>
      <trkpt lat="45.03634" lon="6.02054">
        <ele>1641.6</ele>
        <time>2020-09-05T11:20:54Z</time>
      </trkpt>
      <trkpt lat="45.03635" lon="6.02051">
        <ele>1641.8</ele>
        <time>2020-09-05T11:20:55Z</time>
      </trkpt>
      <trkpt lat="45.03637" lon="6.02049">
        <ele>1642</ele>
        <time>2020-09-05T11:20:56Z</time>
      </trkpt>
      <trkpt lat="45.03638" lon="6.02046">
        <ele>1642.2</ele>
        <time>2020-09-05T11:20:57Z</time>
      </trkpt>
      <trkpt lat="45.0364" lon="6.02044">
        <ele>1642.2</ele>
        <time>2020-09-05T11:20:58Z</time>
      </trkpt>
      <trkpt lat="45.03641" lon="6.02041">
        <ele>1642.6</ele>
        <time>2020-09-05T11:20:59Z</time>
      </trkpt>
      <trkpt lat="45.03643" lon="6.02039">
        <ele>1642.8</ele>
        <time>2020-09-05T11:21:00Z</time>
      </trkpt>
      <trkpt lat="45.03644" lon="6.02036">
        <ele>1643</ele>
        <time>2020-09-05T11:21:01Z</time>
      </trkpt>
      <trkpt lat="45.03645" lon="6.02034">
        <ele>1643.2</ele>
        <time>2020-09-05T11:21:02Z</time>
      </trkpt>
      <trkpt lat="45.03647" lon="6.02032">
        <ele>1643.6</ele>
        <time>2020-09-05T11:21:03Z</time>
      </trkpt>
      <trkpt lat="45.03648" lon="6.02029">
        <ele>1644</ele>
        <time>2020-09-05T11:21:04Z</time>
      </trkpt>
      <trkpt lat="45.03649" lon="6.02026">
        <ele>1644</ele>
        <time>2020-09-05T11:21:05Z</time>
      </trkpt>
      <trkpt lat="45.03651" lon="6.02024">
        <ele>1644.4</ele>
        <time>2020-09-05T11:21:06Z</time>
      </trkpt>
      <trkpt lat="45.03658" lon="6.02012">
        <ele>1645.4</ele>
        <time>2020-09-05T11:21:10Z</time>
      </trkpt>
      <trkpt lat="45.03662" lon="6.02006">
        <ele>1646.4</ele>
        <time>2020-09-05T11:21:12Z</time>
      </trkpt>
      <trkpt lat="45.03665" lon="6.02003">
        <ele>1646.6</ele>
        <time>2020-09-05T11:21:13Z</time>
      </trkpt>
      <trkpt lat="45.03667" lon="6.02">
        <ele>1646.8</ele>
        <time>2020-09-05T11:21:14Z</time>
      </trkpt>
      <trkpt lat="45.03669" lon="6.01997">
        <ele>1647</ele>
        <time>2020-09-05T11:21:15Z</time>
      </trkpt>
      <trkpt lat="45.03671" lon="6.01995">
        <ele>1647.4</ele>
        <time>2020-09-05T11:21:16Z</time>
      </trkpt>
      <trkpt lat="45.03673" lon="6.01992">
        <ele>1647.8</ele>
        <time>2020-09-05T11:21:17Z</time>
      </trkpt>
      <trkpt lat="45.03674" lon="6.01989">
        <ele>1647.6</ele>
        <time>2020-09-05T11:21:18Z</time>
      </trkpt>
      <trkpt lat="45.03676" lon="6.01986">
        <ele>1648</ele>
        <time>2020-09-05T11:21:19Z</time>
      </trkpt>
      <trkpt lat="45.03678" lon="6.01983">
        <ele>1648.2</ele>
        <time>2020-09-05T11:21:20Z</time>
      </trkpt>
      <trkpt lat="45.0368" lon="6.0198">
        <ele>1648.2</ele>
        <time>2020-09-05T11:21:21Z</time>
      </trkpt>
      <trkpt lat="45.03682" lon="6.01976">
        <ele>1648.4</ele>
        <time>2020-09-05T11:21:22Z</time>
      </trkpt>
      <trkpt lat="45.03684" lon="6.01973">
        <ele>1648.6</ele>
        <time>2020-09-05T11:21:23Z</time>
      </trkpt>
      <trkpt lat="45.03686" lon="6.01969">
        <ele>1648.6</ele>
        <time>2020-09-05T11:21:24Z</time>
      </trkpt>
      <trkpt lat="45.03687" lon="6.01966">
        <ele>1648.8</ele>
        <time>2020-09-05T11:21:25Z</time>
      </trkpt>
      <trkpt lat="45.03689" lon="6.01962">
        <ele>1648.8</ele>
        <time>2020-09-05T11:21:26Z</time>
      </trkpt>
      <trkpt lat="45.03691" lon="6.01959">
        <ele>1649.2</ele>
        <time>2020-09-05T11:21:27Z</time>
      </trkpt>
      <trkpt lat="45.03693" lon="6.01956">
        <ele>1649.4</ele>
        <time>2020-09-05T11:21:28Z</time>
      </trkpt>
      <trkpt lat="45.03695" lon="6.01954">
        <ele>1649.4</ele>
        <time>2020-09-05T11:21:29Z</time>
      </trkpt>
      <trkpt lat="45.03697" lon="6.01951">
        <ele>1649.4</ele>
        <time>2020-09-05T11:21:30Z</time>
      </trkpt>
      <trkpt lat="45.03698" lon="6.01948">
        <ele>1649.6</ele>
        <time>2020-09-05T11:21:31Z</time>
      </trkpt>
      <trkpt lat="45.03698" lon="6.01945">
        <ele>1649.8</ele>
        <time>2020-09-05T11:21:32Z</time>
      </trkpt>
      <trkpt lat="45.03697" lon="6.01943">
        <ele>1650</ele>
        <time>2020-09-05T11:21:33Z</time>
      </trkpt>
      <trkpt lat="45.03695" lon="6.01941">
        <ele>1650.2</ele>
        <time>2020-09-05T11:21:34Z</time>
      </trkpt>
      <trkpt lat="45.03693" lon="6.0194">
        <ele>1650.4</ele>
        <time>2020-09-05T11:21:35Z</time>
      </trkpt>
      <trkpt lat="45.03691" lon="6.0194">
        <ele>1650.4</ele>
        <time>2020-09-05T11:21:36Z</time>
      </trkpt>
      <trkpt lat="45.03689" lon="6.01942">
        <ele>1650.8</ele>
        <time>2020-09-05T11:21:37Z</time>
      </trkpt>
      <trkpt lat="45.03687" lon="6.01944">
        <ele>1651</ele>
        <time>2020-09-05T11:21:38Z</time>
      </trkpt>
      <trkpt lat="45.03686" lon="6.01946">
        <ele>1651</ele>
        <time>2020-09-05T11:21:39Z</time>
      </trkpt>
      <trkpt lat="45.03684" lon="6.01948">
        <ele>1651</ele>
        <time>2020-09-05T11:21:40Z</time>
      </trkpt>
      <trkpt lat="45.03683" lon="6.0195">
        <ele>1651.2</ele>
        <time>2020-09-05T11:21:41Z</time>
      </trkpt>
      <trkpt lat="45.03681" lon="6.01952">
        <ele>1651.4</ele>
        <time>2020-09-05T11:21:42Z</time>
      </trkpt>
      <trkpt lat="45.0368" lon="6.01954">
        <ele>1651.4</ele>
        <time>2020-09-05T11:21:43Z</time>
      </trkpt>
      <trkpt lat="45.03679" lon="6.01956">
        <ele>1651.8</ele>
        <time>2020-09-05T11:21:44Z</time>
      </trkpt>
      <trkpt lat="45.03678" lon="6.01958">
        <ele>1652</ele>
        <time>2020-09-05T11:21:45Z</time>
      </trkpt>
      <trkpt lat="45.03677" lon="6.01961">
        <ele>1652.2</ele>
        <time>2020-09-05T11:21:46Z</time>
      </trkpt>
      <trkpt lat="45.03676" lon="6.01963">
        <ele>1652.4</ele>
        <time>2020-09-05T11:21:47Z</time>
      </trkpt>
      <trkpt lat="45.03675" lon="6.01965">
        <ele>1652.8</ele>
        <time>2020-09-05T11:21:48Z</time>
      </trkpt>
      <trkpt lat="45.03673" lon="6.01967">
        <ele>1653.4</ele>
        <time>2020-09-05T11:21:49Z</time>
      </trkpt>
      <trkpt lat="45.03672" lon="6.01969">
        <ele>1653.6</ele>
        <time>2020-09-05T11:21:50Z</time>
      </trkpt>
      <trkpt lat="45.0367" lon="6.01971">
        <ele>1654</ele>
        <time>2020-09-05T11:21:51Z</time>
      </trkpt>
      <trkpt lat="45.03669" lon="6.01973">
        <ele>1654.2</ele>
        <time>2020-09-05T11:21:52Z</time>
      </trkpt>
      <trkpt lat="45.03667" lon="6.01975">
        <ele>1654.4</ele>
        <time>2020-09-05T11:21:53Z</time>
      </trkpt>
      <trkpt lat="45.03666" lon="6.01977">
        <ele>1654.6</ele>
        <time>2020-09-05T11:21:54Z</time>
      </trkpt>
      <trkpt lat="45.03664" lon="6.01979">
        <ele>1655</ele>
        <time>2020-09-05T11:21:55Z</time>
      </trkpt>
      <trkpt lat="45.03662" lon="6.01981">
        <ele>1655.4</ele>
        <time>2020-09-05T11:21:56Z</time>
      </trkpt>
      <trkpt lat="45.03661" lon="6.01982">
        <ele>1655.4</ele>
        <time>2020-09-05T11:21:57Z</time>
      </trkpt>
      <trkpt lat="45.03659" lon="6.01984">
        <ele>1655.6</ele>
        <time>2020-09-05T11:21:58Z</time>
      </trkpt>
      <trkpt lat="45.03656" lon="6.01986">
        <ele>1656</ele>
        <time>2020-09-05T11:21:59Z</time>
      </trkpt>
      <trkpt lat="45.03654" lon="6.01987">
        <ele>1656.2</ele>
        <time>2020-09-05T11:22:00Z</time>
      </trkpt>
      <trkpt lat="45.03652" lon="6.01989">
        <ele>1656.4</ele>
        <time>2020-09-05T11:22:01Z</time>
      </trkpt>
      <trkpt lat="45.03649" lon="6.01991">
        <ele>1656.8</ele>
        <time>2020-09-05T11:22:02Z</time>
      </trkpt>
      <trkpt lat="45.03647" lon="6.01994">
        <ele>1657.2</ele>
        <time>2020-09-05T11:22:03Z</time>
      </trkpt>
      <trkpt lat="45.03644" lon="6.01996">
        <ele>1657.4</ele>
        <time>2020-09-05T11:22:04Z</time>
      </trkpt>
      <trkpt lat="45.03642" lon="6.01997">
        <ele>1658</ele>
        <time>2020-09-05T11:22:05Z</time>
      </trkpt>
      <trkpt lat="45.0364" lon="6.01999">
        <ele>1658.2</ele>
        <time>2020-09-05T11:22:06Z</time>
      </trkpt>
      <trkpt lat="45.03637" lon="6.02">
        <ele>1658.4</ele>
        <time>2020-09-05T11:22:07Z</time>
      </trkpt>
      <trkpt lat="45.03635" lon="6.02002">
        <ele>1658.6</ele>
        <time>2020-09-05T11:22:08Z</time>
      </trkpt>
      <trkpt lat="45.03632" lon="6.02003">
        <ele>1658.8</ele>
        <time>2020-09-05T11:22:09Z</time>
      </trkpt>
      <trkpt lat="45.0363" lon="6.02004">
        <ele>1659.2</ele>
        <time>2020-09-05T11:22:10Z</time>
      </trkpt>
      <trkpt lat="45.03627" lon="6.02004">
        <ele>1659.6</ele>
        <time>2020-09-05T11:22:11Z</time>
      </trkpt>
      <trkpt lat="45.03625" lon="6.02004">
        <ele>1659.8</ele>
        <time>2020-09-05T11:22:12Z</time>
      </trkpt>
      <trkpt lat="45.03623" lon="6.02004">
        <ele>1660.4</ele>
        <time>2020-09-05T11:22:13Z</time>
      </trkpt>
      <trkpt lat="45.0362" lon="6.02002">
        <ele>1660.8</ele>
        <time>2020-09-05T11:22:14Z</time>
      </trkpt>
      <trkpt lat="45.03619" lon="6.02001">
        <ele>1661.2</ele>
        <time>2020-09-05T11:22:15Z</time>
      </trkpt>
      <trkpt lat="45.03617" lon="6.01998">
        <ele>1661.6</ele>
        <time>2020-09-05T11:22:16Z</time>
      </trkpt>
      <trkpt lat="45.03616" lon="6.01996">
        <ele>1661.8</ele>
        <time>2020-09-05T11:22:17Z</time>
      </trkpt>
      <trkpt lat="45.03615" lon="6.01993">
        <ele>1661.8</ele>
        <time>2020-09-05T11:22:18Z</time>
      </trkpt>
      <trkpt lat="45.03615" lon="6.0199">
        <ele>1662</ele>
        <time>2020-09-05T11:22:19Z</time>
      </trkpt>
      <trkpt lat="45.03615" lon="6.01988">
        <ele>1662.4</ele>
        <time>2020-09-05T11:22:20Z</time>
      </trkpt>
      <trkpt lat="45.03615" lon="6.01985">
        <ele>1663</ele>
        <time>2020-09-05T11:22:21Z</time>
      </trkpt>
      <trkpt lat="45.03615" lon="6.01982">
        <ele>1663.2</ele>
        <time>2020-09-05T11:22:22Z</time>
      </trkpt>
      <trkpt lat="45.03614" lon="6.01979">
        <ele>1663.6</ele>
        <time>2020-09-05T11:22:23Z</time>
      </trkpt>
      <trkpt lat="45.03613" lon="6.01976">
        <ele>1663.8</ele>
        <time>2020-09-05T11:22:24Z</time>
      </trkpt>
      <trkpt lat="45.03613" lon="6.01973">
        <ele>1663.8</ele>
        <time>2020-09-05T11:22:25Z</time>
      </trkpt>
      <trkpt lat="45.03612" lon="6.01969">
        <ele>1663.6</ele>
        <time>2020-09-05T11:22:26Z</time>
      </trkpt>
      <trkpt lat="45.0361" lon="6.01966">
        <ele>1664</ele>
        <time>2020-09-05T11:22:27Z</time>
      </trkpt>
      <trkpt lat="45.03609" lon="6.01962">
        <ele>1663.8</ele>
        <time>2020-09-05T11:22:28Z</time>
      </trkpt>
      <trkpt lat="45.03607" lon="6.01958">
        <ele>1663.4</ele>
        <time>2020-09-05T11:22:29Z</time>
      </trkpt>
      <trkpt lat="45.03606" lon="6.01955">
        <ele>1663.2</ele>
        <time>2020-09-05T11:22:30Z</time>
      </trkpt>
      <trkpt lat="45.03604" lon="6.01952">
        <ele>1662.6</ele>
        <time>2020-09-05T11:22:31Z</time>
      </trkpt>
      <trkpt lat="45.03603" lon="6.0195">
        <ele>1662.4</ele>
        <time>2020-09-05T11:22:33Z</time>
      </trkpt>
      <trkpt lat="45.03601" lon="6.01946">
        <ele>1661.8</ele>
        <time>2020-09-05T11:26:19Z</time>
      </trkpt>
      <trkpt lat="45.036" lon="6.01944">
        <ele>1662</ele>
        <time>2020-09-05T11:26:20Z</time>
      </trkpt>
      <trkpt lat="45.03598" lon="6.01941">
        <ele>1661.8</ele>
        <time>2020-09-05T11:26:21Z</time>
      </trkpt>
      <trkpt lat="45.03597" lon="6.01938">
        <ele>1661.8</ele>
        <time>2020-09-05T11:26:22Z</time>
      </trkpt>
      <trkpt lat="45.03595" lon="6.01935">
        <ele>1661.6</ele>
        <time>2020-09-05T11:26:23Z</time>
      </trkpt>
      <trkpt lat="45.03593" lon="6.0193">
        <ele>1661.6</ele>
        <time>2020-09-05T11:26:24Z</time>
      </trkpt>
      <trkpt lat="45.03591" lon="6.01926">
        <ele>1661.4</ele>
        <time>2020-09-05T11:26:25Z</time>
      </trkpt>
      <trkpt lat="45.03589" lon="6.01921">
        <ele>1661.2</ele>
        <time>2020-09-05T11:26:26Z</time>
      </trkpt>
      <trkpt lat="45.03587" lon="6.01915">
        <ele>1661.2</ele>
        <time>2020-09-05T11:26:27Z</time>
      </trkpt>
      <trkpt lat="45.03584" lon="6.01908">
        <ele>1661</ele>
        <time>2020-09-05T11:26:28Z</time>
      </trkpt>
      <trkpt lat="45.03581" lon="6.01902">
        <ele>1660.6</ele>
        <time>2020-09-05T11:26:29Z</time>
      </trkpt>
      <trkpt lat="45.03579" lon="6.01895">
        <ele>1660</ele>
        <time>2020-09-05T11:26:30Z</time>
      </trkpt>
      <trkpt lat="45.03576" lon="6.01889">
        <ele>1660</ele>
        <time>2020-09-05T11:26:31Z</time>
      </trkpt>
      <trkpt lat="45.03573" lon="6.01882">
        <ele>1659.6</ele>
        <time>2020-09-05T11:26:32Z</time>
      </trkpt>
      <trkpt lat="45.03571" lon="6.01875">
        <ele>1659.2</ele>
        <time>2020-09-05T11:26:33Z</time>
      </trkpt>
      <trkpt lat="45.0357" lon="6.01867">
        <ele>1658.6</ele>
        <time>2020-09-05T11:26:34Z</time>
      </trkpt>
      <trkpt lat="45.03568" lon="6.0186">
        <ele>1658.2</ele>
        <time>2020-09-05T11:26:35Z</time>
      </trkpt>
      <trkpt lat="45.03568" lon="6.01853">
        <ele>1657.6</ele>
        <time>2020-09-05T11:26:36Z</time>
      </trkpt>
      <trkpt lat="45.03568" lon="6.01846">
        <ele>1657</ele>
        <time>2020-09-05T11:26:37Z</time>
      </trkpt>
      <trkpt lat="45.03568" lon="6.01841">
        <ele>1656.6</ele>
        <time>2020-09-05T11:26:38Z</time>
      </trkpt>
      <trkpt lat="45.03569" lon="6.01835">
        <ele>1656.4</ele>
        <time>2020-09-05T11:26:39Z</time>
      </trkpt>
      <trkpt lat="45.03571" lon="6.0183">
        <ele>1656</ele>
        <time>2020-09-05T11:26:40Z</time>
      </trkpt>
      <trkpt lat="45.03572" lon="6.01826">
        <ele>1655.6</ele>
        <time>2020-09-05T11:26:41Z</time>
      </trkpt>
      <trkpt lat="45.03574" lon="6.01823">
        <ele>1655.2</ele>
        <time>2020-09-05T11:26:42Z</time>
      </trkpt>
      <trkpt lat="45.03575" lon="6.0182">
        <ele>1655.2</ele>
        <time>2020-09-05T11:26:43Z</time>
      </trkpt>
      <trkpt lat="45.03576" lon="6.01818">
        <ele>1655</ele>
        <time>2020-09-05T11:26:44Z</time>
      </trkpt>
      <trkpt lat="45.03575" lon="6.01815">
        <ele>1654.6</ele>
        <time>2020-09-05T11:26:46Z</time>
      </trkpt>
      <trkpt lat="45.03573" lon="6.01814">
        <ele>1653.8</ele>
        <time>2020-09-05T11:26:48Z</time>
      </trkpt>
      <trkpt lat="45.03571" lon="6.01815">
        <ele>1653.8</ele>
        <time>2020-09-05T11:26:49Z</time>
      </trkpt>
      <trkpt lat="45.03569" lon="6.01817">
        <ele>1653.4</ele>
        <time>2020-09-05T11:26:50Z</time>
      </trkpt>
      <trkpt lat="45.03567" lon="6.01819">
        <ele>1653.4</ele>
        <time>2020-09-05T11:26:51Z</time>
      </trkpt>
      <trkpt lat="45.03564" lon="6.01821">
        <ele>1653</ele>
        <time>2020-09-05T11:26:52Z</time>
      </trkpt>
      <trkpt lat="45.03561" lon="6.01823">
        <ele>1652.8</ele>
        <time>2020-09-05T11:26:53Z</time>
      </trkpt>
      <trkpt lat="45.03559" lon="6.01825">
        <ele>1652.4</ele>
        <time>2020-09-05T11:26:54Z</time>
      </trkpt>
      <trkpt lat="45.03557" lon="6.01827">
        <ele>1652.2</ele>
        <time>2020-09-05T11:26:55Z</time>
      </trkpt>
      <trkpt lat="45.03556" lon="6.01829">
        <ele>1651.8</ele>
        <time>2020-09-05T11:26:56Z</time>
      </trkpt>
      <trkpt lat="45.03555" lon="6.01832">
        <ele>1651.6</ele>
        <time>2020-09-05T11:26:57Z</time>
      </trkpt>
      <trkpt lat="45.03553" lon="6.01834">
        <ele>1651.4</ele>
        <time>2020-09-05T11:26:58Z</time>
      </trkpt>
      <trkpt lat="45.0355" lon="6.01836">
        <ele>1651.4</ele>
        <time>2020-09-05T11:27:00Z</time>
      </trkpt>
      <trkpt lat="45.03548" lon="6.01835">
        <ele>1650.6</ele>
        <time>2020-09-05T11:27:02Z</time>
      </trkpt>
      <trkpt lat="45.03547" lon="6.01832">
        <ele>1650.6</ele>
        <time>2020-09-05T11:27:04Z</time>
      </trkpt>
      <trkpt lat="45.03546" lon="6.01829">
        <ele>1650.4</ele>
        <time>2020-09-05T11:27:06Z</time>
      </trkpt>
      <trkpt lat="45.03546" lon="6.01823">
        <ele>1650.2</ele>
        <time>2020-09-05T11:27:08Z</time>
      </trkpt>
      <trkpt lat="45.03547" lon="6.0182">
        <ele>1650</ele>
        <time>2020-09-05T11:27:09Z</time>
      </trkpt>
      <trkpt lat="45.03548" lon="6.01817">
        <ele>1650</ele>
        <time>2020-09-05T11:27:10Z</time>
      </trkpt>
      <trkpt lat="45.03549" lon="6.01813">
        <ele>1649.8</ele>
        <time>2020-09-05T11:27:11Z</time>
      </trkpt>
      <trkpt lat="45.03551" lon="6.01809">
        <ele>1649.6</ele>
        <time>2020-09-05T11:27:12Z</time>
      </trkpt>
      <trkpt lat="45.03552" lon="6.01805">
        <ele>1649.6</ele>
        <time>2020-09-05T11:27:13Z</time>
      </trkpt>
      <trkpt lat="45.03554" lon="6.01801">
        <ele>1649.4</ele>
        <time>2020-09-05T11:27:14Z</time>
      </trkpt>
      <trkpt lat="45.03556" lon="6.01797">
        <ele>1649</ele>
        <time>2020-09-05T11:27:15Z</time>
      </trkpt>
      <trkpt lat="45.03556" lon="6.01794">
        <ele>1648.8</ele>
        <time>2020-09-05T11:27:16Z</time>
      </trkpt>
      <trkpt lat="45.03556" lon="6.01792">
        <ele>1648.4</ele>
        <time>2020-09-05T11:27:17Z</time>
      </trkpt>
      <trkpt lat="45.03556" lon="6.01789">
        <ele>1647.8</ele>
        <time>2020-09-05T11:27:18Z</time>
      </trkpt>
      <trkpt lat="45.03554" lon="6.01788">
        <ele>1647.6</ele>
        <time>2020-09-05T11:27:19Z</time>
      </trkpt>
      <trkpt lat="45.03552" lon="6.01787">
        <ele>1647.2</ele>
        <time>2020-09-05T11:27:20Z</time>
      </trkpt>
      <trkpt lat="45.0355" lon="6.01787">
        <ele>1646.8</ele>
        <time>2020-09-05T11:27:21Z</time>
      </trkpt>
      <trkpt lat="45.03547" lon="6.01789">
        <ele>1646.6</ele>
        <time>2020-09-05T11:27:22Z</time>
      </trkpt>
      <trkpt lat="45.03545" lon="6.01791">
        <ele>1646.4</ele>
        <time>2020-09-05T11:27:23Z</time>
      </trkpt>
      <trkpt lat="45.03543" lon="6.01792">
        <ele>1646.2</ele>
        <time>2020-09-05T11:27:24Z</time>
      </trkpt>
      <trkpt lat="45.0354" lon="6.01794">
        <ele>1646</ele>
        <time>2020-09-05T11:27:25Z</time>
      </trkpt>
      <trkpt lat="45.03539" lon="6.01796">
        <ele>1646</ele>
        <time>2020-09-05T11:27:26Z</time>
      </trkpt>
      <trkpt lat="45.03537" lon="6.01798">
        <ele>1645.8</ele>
        <time>2020-09-05T11:27:27Z</time>
      </trkpt>
      <trkpt lat="45.03535" lon="6.018">
        <ele>1645.6</ele>
        <time>2020-09-05T11:27:28Z</time>
      </trkpt>
      <trkpt lat="45.03534" lon="6.01802">
        <ele>1645.4</ele>
        <time>2020-09-05T11:27:29Z</time>
      </trkpt>
      <trkpt lat="45.03532" lon="6.01805">
        <ele>1645.6</ele>
        <time>2020-09-05T11:27:30Z</time>
      </trkpt>
      <trkpt lat="45.0353" lon="6.01808">
        <ele>1645.4</ele>
        <time>2020-09-05T11:27:31Z</time>
      </trkpt>
      <trkpt lat="45.03528" lon="6.01811">
        <ele>1645</ele>
        <time>2020-09-05T11:27:32Z</time>
      </trkpt>
      <trkpt lat="45.03526" lon="6.01814">
        <ele>1645</ele>
        <time>2020-09-05T11:27:33Z</time>
      </trkpt>
      <trkpt lat="45.03525" lon="6.01818">
        <ele>1644.4</ele>
        <time>2020-09-05T11:27:34Z</time>
      </trkpt>
      <trkpt lat="45.03524" lon="6.01821">
        <ele>1644.2</ele>
        <time>2020-09-05T11:27:35Z</time>
      </trkpt>
      <trkpt lat="45.03523" lon="6.01824">
        <ele>1644</ele>
        <time>2020-09-05T11:27:36Z</time>
      </trkpt>
      <trkpt lat="45.03523" lon="6.01827">
        <ele>1643.6</ele>
        <time>2020-09-05T11:27:37Z</time>
      </trkpt>
      <trkpt lat="45.03523" lon="6.0183">
        <ele>1643.4</ele>
        <time>2020-09-05T11:27:38Z</time>
      </trkpt>
      <trkpt lat="45.03524" lon="6.01834">
        <ele>1643.2</ele>
        <time>2020-09-05T11:27:39Z</time>
      </trkpt>
      <trkpt lat="45.03525" lon="6.01837">
        <ele>1642.8</ele>
        <time>2020-09-05T11:27:40Z</time>
      </trkpt>
      <trkpt lat="45.03526" lon="6.01841">
        <ele>1642.8</ele>
        <time>2020-09-05T11:27:41Z</time>
      </trkpt>
      <trkpt lat="45.03526" lon="6.01844">
        <ele>1643</ele>
        <time>2020-09-05T11:27:42Z</time>
      </trkpt>
      <trkpt lat="45.03525" lon="6.01846">
        <ele>1642.8</ele>
        <time>2020-09-05T11:27:43Z</time>
      </trkpt>
      <trkpt lat="45.03523" lon="6.01846">
        <ele>1642.6</ele>
        <time>2020-09-05T11:27:44Z</time>
      </trkpt>
      <trkpt lat="45.0352" lon="6.01844">
        <ele>1641.8</ele>
        <time>2020-09-05T11:27:46Z</time>
      </trkpt>
      <trkpt lat="45.03518" lon="6.01841">
        <ele>1641.8</ele>
        <time>2020-09-05T11:27:47Z</time>
      </trkpt>
      <trkpt lat="45.03517" lon="6.01838">
        <ele>1641.6</ele>
        <time>2020-09-05T11:27:48Z</time>
      </trkpt>
      <trkpt lat="45.03516" lon="6.01835">
        <ele>1641.2</ele>
        <time>2020-09-05T11:27:49Z</time>
      </trkpt>
      <trkpt lat="45.03515" lon="6.01831">
        <ele>1641</ele>
        <time>2020-09-05T11:27:50Z</time>
      </trkpt>
      <trkpt lat="45.03514" lon="6.01827">
        <ele>1640.6</ele>
        <time>2020-09-05T11:27:51Z</time>
      </trkpt>
      <trkpt lat="45.03513" lon="6.01822">
        <ele>1640.2</ele>
        <time>2020-09-05T11:27:52Z</time>
      </trkpt>
      <trkpt lat="45.03512" lon="6.01818">
        <ele>1640</ele>
        <time>2020-09-05T11:27:53Z</time>
      </trkpt>
      <trkpt lat="45.03512" lon="6.01814">
        <ele>1639.8</ele>
        <time>2020-09-05T11:27:54Z</time>
      </trkpt>
      <trkpt lat="45.03511" lon="6.01811">
        <ele>1639.4</ele>
        <time>2020-09-05T11:27:55Z</time>
      </trkpt>
      <trkpt lat="45.03511" lon="6.01808">
        <ele>1639</ele>
        <time>2020-09-05T11:27:56Z</time>
      </trkpt>
      <trkpt lat="45.0351" lon="6.01805">
        <ele>1638.6</ele>
        <time>2020-09-05T11:27:57Z</time>
      </trkpt>
      <trkpt lat="45.0351" lon="6.01802">
        <ele>1638.6</ele>
        <time>2020-09-05T11:27:58Z</time>
      </trkpt>
      <trkpt lat="45.03509" lon="6.01799">
        <ele>1638.4</ele>
        <time>2020-09-05T11:27:59Z</time>
      </trkpt>
      <trkpt lat="45.03508" lon="6.01796">
        <ele>1638.4</ele>
        <time>2020-09-05T11:28:00Z</time>
      </trkpt>
      <trkpt lat="45.03508" lon="6.01793">
        <ele>1637.8</ele>
        <time>2020-09-05T11:28:01Z</time>
      </trkpt>
      <trkpt lat="45.03507" lon="6.0179">
        <ele>1637.6</ele>
        <time>2020-09-05T11:28:02Z</time>
      </trkpt>
      <trkpt lat="45.03506" lon="6.01787">
        <ele>1637</ele>
        <time>2020-09-05T11:28:03Z</time>
      </trkpt>
      <trkpt lat="45.03506" lon="6.01783">
        <ele>1636.6</ele>
        <time>2020-09-05T11:28:04Z</time>
      </trkpt>
      <trkpt lat="45.03505" lon="6.0178">
        <ele>1636.4</ele>
        <time>2020-09-05T11:28:05Z</time>
      </trkpt>
      <trkpt lat="45.03505" lon="6.01776">
        <ele>1636.2</ele>
        <time>2020-09-05T11:28:06Z</time>
      </trkpt>
      <trkpt lat="45.03505" lon="6.01773">
        <ele>1636</ele>
        <time>2020-09-05T11:28:07Z</time>
      </trkpt>
      <trkpt lat="45.03504" lon="6.0177">
        <ele>1635.6</ele>
        <time>2020-09-05T11:28:08Z</time>
      </trkpt>
      <trkpt lat="45.03504" lon="6.01767">
        <ele>1635.4</ele>
        <time>2020-09-05T11:28:09Z</time>
      </trkpt>
      <trkpt lat="45.03504" lon="6.01764">
        <ele>1635.2</ele>
        <time>2020-09-05T11:28:10Z</time>
      </trkpt>
      <trkpt lat="45.03504" lon="6.01762">
        <ele>1634.8</ele>
        <time>2020-09-05T11:28:11Z</time>
      </trkpt>
      <trkpt lat="45.03503" lon="6.0176">
        <ele>1634.4</ele>
        <time>2020-09-05T11:28:12Z</time>
      </trkpt>
      <trkpt lat="45.03501" lon="6.01758">
        <ele>1634.2</ele>
        <time>2020-09-05T11:28:13Z</time>
      </trkpt>
      <trkpt lat="45.03499" lon="6.01757">
        <ele>1633.6</ele>
        <time>2020-09-05T11:28:14Z</time>
      </trkpt>
      <trkpt lat="45.03497" lon="6.01756">
        <ele>1633.4</ele>
        <time>2020-09-05T11:28:15Z</time>
      </trkpt>
      <trkpt lat="45.03495" lon="6.01756">
        <ele>1632.8</ele>
        <time>2020-09-05T11:28:16Z</time>
      </trkpt>
      <trkpt lat="45.03493" lon="6.01756">
        <ele>1632.4</ele>
        <time>2020-09-05T11:28:17Z</time>
      </trkpt>
      <trkpt lat="45.03491" lon="6.01757">
        <ele>1632</ele>
        <time>2020-09-05T11:28:18Z</time>
      </trkpt>
      <trkpt lat="45.03489" lon="6.01757">
        <ele>1631.4</ele>
        <time>2020-09-05T11:28:19Z</time>
      </trkpt>
      <trkpt lat="45.03487" lon="6.01759">
        <ele>1631.2</ele>
        <time>2020-09-05T11:28:20Z</time>
      </trkpt>
      <trkpt lat="45.03485" lon="6.0176">
        <ele>1631.2</ele>
        <time>2020-09-05T11:28:21Z</time>
      </trkpt>
      <trkpt lat="45.03483" lon="6.01762">
        <ele>1630.8</ele>
        <time>2020-09-05T11:28:22Z</time>
      </trkpt>
      <trkpt lat="45.03481" lon="6.01763">
        <ele>1630.6</ele>
        <time>2020-09-05T11:28:23Z</time>
      </trkpt>
      <trkpt lat="45.03479" lon="6.01765">
        <ele>1630.2</ele>
        <time>2020-09-05T11:28:24Z</time>
      </trkpt>
      <trkpt lat="45.03476" lon="6.01768">
        <ele>1630</ele>
        <time>2020-09-05T11:28:25Z</time>
      </trkpt>
      <trkpt lat="45.03474" lon="6.0177">
        <ele>1629.6</ele>
        <time>2020-09-05T11:28:26Z</time>
      </trkpt>
      <trkpt lat="45.03471" lon="6.01774">
        <ele>1629.6</ele>
        <time>2020-09-05T11:28:27Z</time>
      </trkpt>
      <trkpt lat="45.03469" lon="6.01778">
        <ele>1629.2</ele>
        <time>2020-09-05T11:28:28Z</time>
      </trkpt>
      <trkpt lat="45.03467" lon="6.01781">
        <ele>1628.8</ele>
        <time>2020-09-05T11:28:29Z</time>
      </trkpt>
      <trkpt lat="45.03466" lon="6.01782">
        <ele>1628.4</ele>
        <time>2020-09-05T11:28:30Z</time>
      </trkpt>
      <trkpt lat="45.03464" lon="6.01784">
        <ele>1628.2</ele>
        <time>2020-09-05T11:28:32Z</time>
      </trkpt>
      <trkpt lat="45.03462" lon="6.01785">
        <ele>1627.6</ele>
        <time>2020-09-05T11:28:40Z</time>
      </trkpt>
      <trkpt lat="45.03459" lon="6.01786">
        <ele>1627.2</ele>
        <time>2020-09-05T11:28:41Z</time>
      </trkpt>
      <trkpt lat="45.03456" lon="6.01787">
        <ele>1627</ele>
        <time>2020-09-05T11:28:42Z</time>
      </trkpt>
      <trkpt lat="45.03453" lon="6.01787">
        <ele>1626.8</ele>
        <time>2020-09-05T11:28:43Z</time>
      </trkpt>
      <trkpt lat="45.0345" lon="6.01788">
        <ele>1626.6</ele>
        <time>2020-09-05T11:28:44Z</time>
      </trkpt>
      <trkpt lat="45.03447" lon="6.01788">
        <ele>1626.4</ele>
        <time>2020-09-05T11:28:45Z</time>
      </trkpt>
      <trkpt lat="45.03444" lon="6.01788">
        <ele>1626</ele>
        <time>2020-09-05T11:28:46Z</time>
      </trkpt>
      <trkpt lat="45.03442" lon="6.01789">
        <ele>1625.6</ele>
        <time>2020-09-05T11:28:47Z</time>
      </trkpt>
      <trkpt lat="45.0344" lon="6.0179">
        <ele>1625.2</ele>
        <time>2020-09-05T11:28:48Z</time>
      </trkpt>
      <trkpt lat="45.03438" lon="6.01792">
        <ele>1625</ele>
        <time>2020-09-05T11:28:49Z</time>
      </trkpt>
      <trkpt lat="45.03436" lon="6.01794">
        <ele>1624.6</ele>
        <time>2020-09-05T11:28:50Z</time>
      </trkpt>
      <trkpt lat="45.03433" lon="6.01796">
        <ele>1624</ele>
        <time>2020-09-05T11:28:52Z</time>
      </trkpt>
      <trkpt lat="45.03431" lon="6.01796">
        <ele>1622.8</ele>
        <time>2020-09-05T11:29:52Z</time>
      </trkpt>
      <trkpt lat="45.03429" lon="6.01796">
        <ele>1623</ele>
        <time>2020-09-05T11:30:02Z</time>
      </trkpt>
      <trkpt lat="45.03427" lon="6.01795">
        <ele>1622.4</ele>
        <time>2020-09-05T11:30:03Z</time>
      </trkpt>
      <trkpt lat="45.03423" lon="6.01795">
        <ele>1622.4</ele>
        <time>2020-09-05T11:30:04Z</time>
      </trkpt>
      <trkpt lat="45.03419" lon="6.01795">
        <ele>1622.4</ele>
        <time>2020-09-05T11:30:05Z</time>
      </trkpt>
      <trkpt lat="45.03414" lon="6.01796">
        <ele>1622.4</ele>
        <time>2020-09-05T11:30:06Z</time>
      </trkpt>
      <trkpt lat="45.0341" lon="6.01797">
        <ele>1622.2</ele>
        <time>2020-09-05T11:30:07Z</time>
      </trkpt>
      <trkpt lat="45.03406" lon="6.01798">
        <ele>1621.8</ele>
        <time>2020-09-05T11:30:08Z</time>
      </trkpt>
      <trkpt lat="45.03403" lon="6.01798">
        <ele>1621.4</ele>
        <time>2020-09-05T11:30:09Z</time>
      </trkpt>
      <trkpt lat="45.034" lon="6.01799">
        <ele>1621.2</ele>
        <time>2020-09-05T11:30:10Z</time>
      </trkpt>
      <trkpt lat="45.03397" lon="6.018">
        <ele>1621</ele>
        <time>2020-09-05T11:30:11Z</time>
      </trkpt>
      <trkpt lat="45.03395" lon="6.01801">
        <ele>1620.8</ele>
        <time>2020-09-05T11:30:12Z</time>
      </trkpt>
      <trkpt lat="45.03393" lon="6.01801">
        <ele>1620.4</ele>
        <time>2020-09-05T11:30:13Z</time>
      </trkpt>
      <trkpt lat="45.03391" lon="6.01801">
        <ele>1620.6</ele>
        <time>2020-09-05T11:30:14Z</time>
      </trkpt>
      <trkpt lat="45.03389" lon="6.01801">
        <ele>1620.2</ele>
        <time>2020-09-05T11:30:15Z</time>
      </trkpt>
      <trkpt lat="45.03387" lon="6.01802">
        <ele>1619.8</ele>
        <time>2020-09-05T11:30:16Z</time>
      </trkpt>
      <trkpt lat="45.03384" lon="6.01802">
        <ele>1619.8</ele>
        <time>2020-09-05T11:30:17Z</time>
      </trkpt>
      <trkpt lat="45.03381" lon="6.01803">
        <ele>1619.8</ele>
        <time>2020-09-05T11:30:18Z</time>
      </trkpt>
      <trkpt lat="45.03378" lon="6.01803">
        <ele>1619.6</ele>
        <time>2020-09-05T11:30:19Z</time>
      </trkpt>
      <trkpt lat="45.03375" lon="6.01803">
        <ele>1619.4</ele>
        <time>2020-09-05T11:30:20Z</time>
      </trkpt>
      <trkpt lat="45.03373" lon="6.01803">
        <ele>1619.4</ele>
        <time>2020-09-05T11:30:21Z</time>
      </trkpt>
      <trkpt lat="45.0337" lon="6.01803">
        <ele>1619.2</ele>
        <time>2020-09-05T11:30:22Z</time>
      </trkpt>
      <trkpt lat="45.03367" lon="6.01804">
        <ele>1619.2</ele>
        <time>2020-09-05T11:30:23Z</time>
      </trkpt>
      <trkpt lat="45.03365" lon="6.01804">
        <ele>1618.8</ele>
        <time>2020-09-05T11:30:24Z</time>
      </trkpt>
      <trkpt lat="45.03362" lon="6.01803">
        <ele>1619</ele>
        <time>2020-09-05T11:30:25Z</time>
      </trkpt>
      <trkpt lat="45.03359" lon="6.01803">
        <ele>1619</ele>
        <time>2020-09-05T11:30:26Z</time>
      </trkpt>
      <trkpt lat="45.03357" lon="6.01803">
        <ele>1618.8</ele>
        <time>2020-09-05T11:30:27Z</time>
      </trkpt>
      <trkpt lat="45.03354" lon="6.01803">
        <ele>1618.4</ele>
        <time>2020-09-05T11:30:28Z</time>
      </trkpt>
      <trkpt lat="45.03352" lon="6.01803">
        <ele>1618.2</ele>
        <time>2020-09-05T11:30:29Z</time>
      </trkpt>
      <trkpt lat="45.03349" lon="6.01804">
        <ele>1618</ele>
        <time>2020-09-05T11:30:30Z</time>
      </trkpt>
      <trkpt lat="45.03346" lon="6.01804">
        <ele>1617.8</ele>
        <time>2020-09-05T11:30:31Z</time>
      </trkpt>
      <trkpt lat="45.03342" lon="6.01805">
        <ele>1617.6</ele>
        <time>2020-09-05T11:30:32Z</time>
      </trkpt>
      <trkpt lat="45.03339" lon="6.01805">
        <ele>1617.2</ele>
        <time>2020-09-05T11:30:33Z</time>
      </trkpt>
      <trkpt lat="45.03335" lon="6.01806">
        <ele>1616.6</ele>
        <time>2020-09-05T11:30:34Z</time>
      </trkpt>
      <trkpt lat="45.03331" lon="6.01807">
        <ele>1616.4</ele>
        <time>2020-09-05T11:30:35Z</time>
      </trkpt>
      <trkpt lat="45.03327" lon="6.01808">
        <ele>1616</ele>
        <time>2020-09-05T11:30:36Z</time>
      </trkpt>
      <trkpt lat="45.03324" lon="6.0181">
        <ele>1615.6</ele>
        <time>2020-09-05T11:30:37Z</time>
      </trkpt>
      <trkpt lat="45.0332" lon="6.01813">
        <ele>1615.2</ele>
        <time>2020-09-05T11:30:38Z</time>
      </trkpt>
      <trkpt lat="45.03316" lon="6.01815">
        <ele>1615.4</ele>
        <time>2020-09-05T11:30:39Z</time>
      </trkpt>
      <trkpt lat="45.03312" lon="6.01818">
        <ele>1615.2</ele>
        <time>2020-09-05T11:30:40Z</time>
      </trkpt>
      <trkpt lat="45.03308" lon="6.0182">
        <ele>1614.8</ele>
        <time>2020-09-05T11:30:41Z</time>
      </trkpt>
      <trkpt lat="45.03305" lon="6.01821">
        <ele>1614.2</ele>
        <time>2020-09-05T11:30:42Z</time>
      </trkpt>
      <trkpt lat="45.03301" lon="6.01822">
        <ele>1613.8</ele>
        <time>2020-09-05T11:30:43Z</time>
      </trkpt>
      <trkpt lat="45.03297" lon="6.01823">
        <ele>1613.6</ele>
        <time>2020-09-05T11:30:44Z</time>
      </trkpt>
      <trkpt lat="45.03292" lon="6.01823">
        <ele>1613.4</ele>
        <time>2020-09-05T11:30:45Z</time>
      </trkpt>
      <trkpt lat="45.03288" lon="6.01822">
        <ele>1613.4</ele>
        <time>2020-09-05T11:30:46Z</time>
      </trkpt>
      <trkpt lat="45.03283" lon="6.01822">
        <ele>1613.2</ele>
        <time>2020-09-05T11:30:47Z</time>
      </trkpt>
      <trkpt lat="45.0328" lon="6.01823">
        <ele>1612.8</ele>
        <time>2020-09-05T11:30:48Z</time>
      </trkpt>
      <trkpt lat="45.03276" lon="6.01822">
        <ele>1612.2</ele>
        <time>2020-09-05T11:30:49Z</time>
      </trkpt>
      <trkpt lat="45.03272" lon="6.01822">
        <ele>1612.2</ele>
        <time>2020-09-05T11:30:50Z</time>
      </trkpt>
      <trkpt lat="45.03267" lon="6.01823">
        <ele>1611.8</ele>
        <time>2020-09-05T11:30:51Z</time>
      </trkpt>
      <trkpt lat="45.03262" lon="6.01823">
        <ele>1611.4</ele>
        <time>2020-09-05T11:30:52Z</time>
      </trkpt>
      <trkpt lat="45.03258" lon="6.01822">
        <ele>1611</ele>
        <time>2020-09-05T11:30:53Z</time>
      </trkpt>
      <trkpt lat="45.03253" lon="6.01822">
        <ele>1610.6</ele>
        <time>2020-09-05T11:30:54Z</time>
      </trkpt>
      <trkpt lat="45.03248" lon="6.01821">
        <ele>1610.2</ele>
        <time>2020-09-05T11:30:55Z</time>
      </trkpt>
      <trkpt lat="45.03243" lon="6.01821">
        <ele>1609.8</ele>
        <time>2020-09-05T11:30:56Z</time>
      </trkpt>
      <trkpt lat="45.03238" lon="6.0182">
        <ele>1609.2</ele>
        <time>2020-09-05T11:30:57Z</time>
      </trkpt>
      <trkpt lat="45.03234" lon="6.01819">
        <ele>1608.8</ele>
        <time>2020-09-05T11:30:58Z</time>
      </trkpt>
      <trkpt lat="45.0323" lon="6.0182">
        <ele>1608.4</ele>
        <time>2020-09-05T11:30:59Z</time>
      </trkpt>
      <trkpt lat="45.03227" lon="6.01821">
        <ele>1608</ele>
        <time>2020-09-05T11:31:00Z</time>
      </trkpt>
      <trkpt lat="45.03224" lon="6.01822">
        <ele>1607.6</ele>
        <time>2020-09-05T11:31:01Z</time>
      </trkpt>
      <trkpt lat="45.03222" lon="6.01823">
        <ele>1607.2</ele>
        <time>2020-09-05T11:31:02Z</time>
      </trkpt>
      <trkpt lat="45.03219" lon="6.01825">
        <ele>1607.2</ele>
        <time>2020-09-05T11:31:03Z</time>
      </trkpt>
      <trkpt lat="45.03216" lon="6.01827">
        <ele>1607</ele>
        <time>2020-09-05T11:31:04Z</time>
      </trkpt>
      <trkpt lat="45.03214" lon="6.01829">
        <ele>1606.6</ele>
        <time>2020-09-05T11:31:05Z</time>
      </trkpt>
      <trkpt lat="45.03211" lon="6.01832">
        <ele>1619.3</ele>
        <time>2020-09-05T11:31:06Z</time>
      </trkpt>
      <trkpt lat="45.03208" lon="6.01836">
        <ele>1606.4</ele>
        <time>2020-09-05T11:31:07Z</time>
      </trkpt>
      <trkpt lat="45.03205" lon="6.0184">
        <ele>1606.2</ele>
        <time>2020-09-05T11:31:08Z</time>
      </trkpt>
      <trkpt lat="45.03202" lon="6.01844">
        <ele>1606.2</ele>
        <time>2020-09-05T11:31:09Z</time>
      </trkpt>
      <trkpt lat="45.032" lon="6.01848">
        <ele>1606</ele>
        <time>2020-09-05T11:31:10Z</time>
      </trkpt>
      <trkpt lat="45.03196" lon="6.01852">
        <ele>1605.8</ele>
        <time>2020-09-05T11:31:11Z</time>
      </trkpt>
      <trkpt lat="45.03193" lon="6.01856">
        <ele>1605.8</ele>
        <time>2020-09-05T11:31:12Z</time>
      </trkpt>
      <trkpt lat="45.0319" lon="6.01861">
        <ele>1605.4</ele>
        <time>2020-09-05T11:31:13Z</time>
      </trkpt>
      <trkpt lat="45.03187" lon="6.01865">
        <ele>1605</ele>
        <time>2020-09-05T11:31:14Z</time>
      </trkpt>
      <trkpt lat="45.03183" lon="6.01869">
        <ele>1604.4</ele>
        <time>2020-09-05T11:31:15Z</time>
      </trkpt>
      <trkpt lat="45.03179" lon="6.01873">
        <ele>1603.8</ele>
        <time>2020-09-05T11:31:16Z</time>
      </trkpt>
      <trkpt lat="45.03175" lon="6.01877">
        <ele>1603.4</ele>
        <time>2020-09-05T11:31:17Z</time>
      </trkpt>
      <trkpt lat="45.0317" lon="6.01881">
        <ele>1603</ele>
        <time>2020-09-05T11:31:18Z</time>
      </trkpt>
      <trkpt lat="45.03165" lon="6.01884">
        <ele>1602.4</ele>
        <time>2020-09-05T11:31:19Z</time>
      </trkpt>
      <trkpt lat="45.0316" lon="6.01888">
        <ele>1602</ele>
        <time>2020-09-05T11:31:20Z</time>
      </trkpt>
      <trkpt lat="45.03155" lon="6.01891">
        <ele>1601.6</ele>
        <time>2020-09-05T11:31:21Z</time>
      </trkpt>
      <trkpt lat="45.0315" lon="6.01895">
        <ele>1601.4</ele>
        <time>2020-09-05T11:31:22Z</time>
      </trkpt>
      <trkpt lat="45.03144" lon="6.01899">
        <ele>1601.2</ele>
        <time>2020-09-05T11:31:23Z</time>
      </trkpt>
      <trkpt lat="45.03137" lon="6.01903">
        <ele>1600.6</ele>
        <time>2020-09-05T11:31:24Z</time>
      </trkpt>
      <trkpt lat="45.0313" lon="6.01907">
        <ele>1600.4</ele>
        <time>2020-09-05T11:31:25Z</time>
      </trkpt>
      <trkpt lat="45.03124" lon="6.0191">
        <ele>1599.6</ele>
        <time>2020-09-05T11:31:26Z</time>
      </trkpt>
      <trkpt lat="45.03118" lon="6.01913">
        <ele>1598.4</ele>
        <time>2020-09-05T11:31:27Z</time>
      </trkpt>
      <trkpt lat="45.03112" lon="6.01915">
        <ele>1597.8</ele>
        <time>2020-09-05T11:31:28Z</time>
      </trkpt>
      <trkpt lat="45.03107" lon="6.01918">
        <ele>1597.2</ele>
        <time>2020-09-05T11:31:29Z</time>
      </trkpt>
      <trkpt lat="45.03101" lon="6.01921">
        <ele>1597</ele>
        <time>2020-09-05T11:31:30Z</time>
      </trkpt>
      <trkpt lat="45.03095" lon="6.01924">
        <ele>1596.4</ele>
        <time>2020-09-05T11:31:31Z</time>
      </trkpt>
      <trkpt lat="45.03088" lon="6.01926">
        <ele>1596.2</ele>
        <time>2020-09-05T11:31:32Z</time>
      </trkpt>
      <trkpt lat="45.03081" lon="6.0193">
        <ele>1596.2</ele>
        <time>2020-09-05T11:31:33Z</time>
      </trkpt>
      <trkpt lat="45.03074" lon="6.01935">
        <ele>1596.2</ele>
        <time>2020-09-05T11:31:34Z</time>
      </trkpt>
      <trkpt lat="45.03067" lon="6.01942">
        <ele>1595.8</ele>
        <time>2020-09-05T11:31:35Z</time>
      </trkpt>
      <trkpt lat="45.03059" lon="6.01948">
        <ele>1595.2</ele>
        <time>2020-09-05T11:31:36Z</time>
      </trkpt>
      <trkpt lat="45.0305" lon="6.01954">
        <ele>1594.6</ele>
        <time>2020-09-05T11:31:37Z</time>
      </trkpt>
      <trkpt lat="45.03041" lon="6.0196">
        <ele>1594.4</ele>
        <time>2020-09-05T11:31:38Z</time>
      </trkpt>
      <trkpt lat="45.03032" lon="6.01964">
        <ele>1593.6</ele>
        <time>2020-09-05T11:31:39Z</time>
      </trkpt>
      <trkpt lat="45.03023" lon="6.01968">
        <ele>1592.6</ele>
        <time>2020-09-05T11:31:40Z</time>
      </trkpt>
      <trkpt lat="45.03015" lon="6.01971">
        <ele>1591.2</ele>
        <time>2020-09-05T11:31:41Z</time>
      </trkpt>
      <trkpt lat="45.03007" lon="6.01973">
        <ele>1589.8</ele>
        <time>2020-09-05T11:31:42Z</time>
      </trkpt>
      <trkpt lat="45.02999" lon="6.01973">
        <ele>1589</ele>
        <time>2020-09-05T11:31:43Z</time>
      </trkpt>
      <trkpt lat="45.02992" lon="6.01973">
        <ele>1588.2</ele>
        <time>2020-09-05T11:31:44Z</time>
      </trkpt>
      <trkpt lat="45.02985" lon="6.0197">
        <ele>1587.4</ele>
        <time>2020-09-05T11:31:45Z</time>
      </trkpt>
      <trkpt lat="45.02978" lon="6.01966">
        <ele>1587</ele>
        <time>2020-09-05T11:31:46Z</time>
      </trkpt>
      <trkpt lat="45.02971" lon="6.0196">
        <ele>1586.2</ele>
        <time>2020-09-05T11:31:47Z</time>
      </trkpt>
      <trkpt lat="45.02964" lon="6.01953">
        <ele>1585.4</ele>
        <time>2020-09-05T11:31:48Z</time>
      </trkpt>
      <trkpt lat="45.02958" lon="6.01946">
        <ele>1584.8</ele>
        <time>2020-09-05T11:31:49Z</time>
      </trkpt>
      <trkpt lat="45.02952" lon="6.01938">
        <ele>1583.8</ele>
        <time>2020-09-05T11:31:50Z</time>
      </trkpt>
      <trkpt lat="45.02947" lon="6.01931">
        <ele>1583</ele>
        <time>2020-09-05T11:31:51Z</time>
      </trkpt>
      <trkpt lat="45.02942" lon="6.01924">
        <ele>1582.6</ele>
        <time>2020-09-05T11:31:52Z</time>
      </trkpt>
      <trkpt lat="45.02937" lon="6.01916">
        <ele>1582.4</ele>
        <time>2020-09-05T11:31:53Z</time>
      </trkpt>
      <trkpt lat="45.02931" lon="6.01907">
        <ele>1582.2</ele>
        <time>2020-09-05T11:31:54Z</time>
      </trkpt>
      <trkpt lat="45.02926" lon="6.01898">
        <ele>1582.2</ele>
        <time>2020-09-05T11:31:55Z</time>
      </trkpt>
      <trkpt lat="45.0292" lon="6.01889">
        <ele>1581.8</ele>
        <time>2020-09-05T11:31:56Z</time>
      </trkpt>
      <trkpt lat="45.02914" lon="6.01879">
        <ele>1581.4</ele>
        <time>2020-09-05T11:31:57Z</time>
      </trkpt>
      <trkpt lat="45.02908" lon="6.01869">
        <ele>1580.8</ele>
        <time>2020-09-05T11:31:58Z</time>
      </trkpt>
      <trkpt lat="45.02901" lon="6.01859">
        <ele>1580.8</ele>
        <time>2020-09-05T11:31:59Z</time>
      </trkpt>
      <trkpt lat="45.02894" lon="6.01849">
        <ele>1580.8</ele>
        <time>2020-09-05T11:32:00Z</time>
      </trkpt>
      <trkpt lat="45.02888" lon="6.01838">
        <ele>1580</ele>
        <time>2020-09-05T11:32:01Z</time>
      </trkpt>
      <trkpt lat="45.02881" lon="6.01827">
        <ele>1579.4</ele>
        <time>2020-09-05T11:32:02Z</time>
      </trkpt>
      <trkpt lat="45.02873" lon="6.01815">
        <ele>1578.2</ele>
        <time>2020-09-05T11:32:03Z</time>
      </trkpt>
      <trkpt lat="45.02866" lon="6.01803">
        <ele>1577.2</ele>
        <time>2020-09-05T11:32:04Z</time>
      </trkpt>
      <trkpt lat="45.02859" lon="6.01792">
        <ele>1575.6</ele>
        <time>2020-09-05T11:32:05Z</time>
      </trkpt>
      <trkpt lat="45.02852" lon="6.01782">
        <ele>1574.4</ele>
        <time>2020-09-05T11:32:06Z</time>
      </trkpt>
      <trkpt lat="45.02845" lon="6.01775">
        <ele>1573.2</ele>
        <time>2020-09-05T11:32:07Z</time>
      </trkpt>
      <trkpt lat="45.02836" lon="6.01768">
        <ele>1572.4</ele>
        <time>2020-09-05T11:32:08Z</time>
      </trkpt>
      <trkpt lat="45.02827" lon="6.01764">
        <ele>1571.6</ele>
        <time>2020-09-05T11:32:09Z</time>
      </trkpt>
      <trkpt lat="45.02816" lon="6.01761">
        <ele>1570.8</ele>
        <time>2020-09-05T11:32:10Z</time>
      </trkpt>
      <trkpt lat="45.02806" lon="6.01758">
        <ele>1569.4</ele>
        <time>2020-09-05T11:32:11Z</time>
      </trkpt>
      <trkpt lat="45.02795" lon="6.01754">
        <ele>1568.8</ele>
        <time>2020-09-05T11:32:12Z</time>
      </trkpt>
      <trkpt lat="45.02784" lon="6.01751">
        <ele>1568</ele>
        <time>2020-09-05T11:32:13Z</time>
      </trkpt>
      <trkpt lat="45.02774" lon="6.01749">
        <ele>1566.4</ele>
        <time>2020-09-05T11:32:14Z</time>
      </trkpt>
      <trkpt lat="45.02765" lon="6.01747">
        <ele>1564.8</ele>
        <time>2020-09-05T11:32:15Z</time>
      </trkpt>
      <trkpt lat="45.02757" lon="6.01746">
        <ele>1563.4</ele>
        <time>2020-09-05T11:32:16Z</time>
      </trkpt>
      <trkpt lat="45.02751" lon="6.01745">
        <ele>1562</ele>
        <time>2020-09-05T11:32:17Z</time>
      </trkpt>
      <trkpt lat="45.02747" lon="6.01743">
        <ele>1560.8</ele>
        <time>2020-09-05T11:32:18Z</time>
      </trkpt>
      <trkpt lat="45.02745" lon="6.01739">
        <ele>1559.8</ele>
        <time>2020-09-05T11:32:19Z</time>
      </trkpt>
      <trkpt lat="45.02747" lon="6.01735">
        <ele>1559.4</ele>
        <time>2020-09-05T11:32:20Z</time>
      </trkpt>
      <trkpt lat="45.02752" lon="6.01733">
        <ele>1558.8</ele>
        <time>2020-09-05T11:32:21Z</time>
      </trkpt>
      <trkpt lat="45.02756" lon="6.01733">
        <ele>1558.2</ele>
        <time>2020-09-05T11:32:22Z</time>
      </trkpt>
      <trkpt lat="45.02761" lon="6.01733">
        <ele>1557.8</ele>
        <time>2020-09-05T11:32:23Z</time>
      </trkpt>
      <trkpt lat="45.02766" lon="6.01734">
        <ele>1557</ele>
        <time>2020-09-05T11:32:24Z</time>
      </trkpt>
      <trkpt lat="45.02771" lon="6.01734">
        <ele>1556.4</ele>
        <time>2020-09-05T11:32:25Z</time>
      </trkpt>
      <trkpt lat="45.02777" lon="6.01734">
        <ele>1556.2</ele>
        <time>2020-09-05T11:32:26Z</time>
      </trkpt>
      <trkpt lat="45.02784" lon="6.01734">
        <ele>1555.8</ele>
        <time>2020-09-05T11:32:27Z</time>
      </trkpt>
      <trkpt lat="45.0279" lon="6.01732">
        <ele>1555.2</ele>
        <time>2020-09-05T11:32:28Z</time>
      </trkpt>
      <trkpt lat="45.02798" lon="6.01729">
        <ele>1555</ele>
        <time>2020-09-05T11:32:29Z</time>
      </trkpt>
      <trkpt lat="45.02805" lon="6.01725">
        <ele>1554.6</ele>
        <time>2020-09-05T11:32:30Z</time>
      </trkpt>
      <trkpt lat="45.02812" lon="6.0172">
        <ele>1554</ele>
        <time>2020-09-05T11:32:31Z</time>
      </trkpt>
      <trkpt lat="45.02819" lon="6.01716">
        <ele>1553.4</ele>
        <time>2020-09-05T11:32:32Z</time>
      </trkpt>
      <trkpt lat="45.02825" lon="6.01713">
        <ele>1553</ele>
        <time>2020-09-05T11:32:33Z</time>
      </trkpt>
      <trkpt lat="45.02831" lon="6.01711">
        <ele>1552.4</ele>
        <time>2020-09-05T11:32:34Z</time>
      </trkpt>
      <trkpt lat="45.02837" lon="6.01709">
        <ele>1551.8</ele>
        <time>2020-09-05T11:32:35Z</time>
      </trkpt>
      <trkpt lat="45.02842" lon="6.01708">
        <ele>1551.4</ele>
        <time>2020-09-05T11:32:36Z</time>
      </trkpt>
      <trkpt lat="45.02848" lon="6.01708">
        <ele>1550.8</ele>
        <time>2020-09-05T11:32:37Z</time>
      </trkpt>
      <trkpt lat="45.02854" lon="6.01708">
        <ele>1550.4</ele>
        <time>2020-09-05T11:32:38Z</time>
      </trkpt>
      <trkpt lat="45.02861" lon="6.01709">
        <ele>1549.8</ele>
        <time>2020-09-05T11:32:39Z</time>
      </trkpt>
      <trkpt lat="45.02868" lon="6.01711">
        <ele>1549.4</ele>
        <time>2020-09-05T11:32:40Z</time>
      </trkpt>
      <trkpt lat="45.02875" lon="6.01712">
        <ele>1548.8</ele>
        <time>2020-09-05T11:32:41Z</time>
      </trkpt>
      <trkpt lat="45.02882" lon="6.01714">
        <ele>1548.4</ele>
        <time>2020-09-05T11:32:42Z</time>
      </trkpt>
      <trkpt lat="45.0289" lon="6.01715">
        <ele>1547.8</ele>
        <time>2020-09-05T11:32:43Z</time>
      </trkpt>
      <trkpt lat="45.02898" lon="6.01717">
        <ele>1547.4</ele>
        <time>2020-09-05T11:32:44Z</time>
      </trkpt>
      <trkpt lat="45.02907" lon="6.01718">
        <ele>1547</ele>
        <time>2020-09-05T11:32:45Z</time>
      </trkpt>
      <trkpt lat="45.02916" lon="6.01718">
        <ele>1547</ele>
        <time>2020-09-05T11:32:46Z</time>
      </trkpt>
      <trkpt lat="45.02926" lon="6.01718">
        <ele>1546.4</ele>
        <time>2020-09-05T11:32:47Z</time>
      </trkpt>
      <trkpt lat="45.02935" lon="6.01717">
        <ele>1545.4</ele>
        <time>2020-09-05T11:32:48Z</time>
      </trkpt>
      <trkpt lat="45.02946" lon="6.01716">
        <ele>1544.8</ele>
        <time>2020-09-05T11:32:49Z</time>
      </trkpt>
      <trkpt lat="45.02956" lon="6.01714">
        <ele>1544.2</ele>
        <time>2020-09-05T11:32:50Z</time>
      </trkpt>
      <trkpt lat="45.02965" lon="6.01712">
        <ele>1543.6</ele>
        <time>2020-09-05T11:32:51Z</time>
      </trkpt>
      <trkpt lat="45.02973" lon="6.01709">
        <ele>1542.6</ele>
        <time>2020-09-05T11:32:52Z</time>
      </trkpt>
      <trkpt lat="45.02981" lon="6.01706">
        <ele>1541.8</ele>
        <time>2020-09-05T11:32:53Z</time>
      </trkpt>
      <trkpt lat="45.02988" lon="6.01703">
        <ele>1541</ele>
        <time>2020-09-05T11:32:54Z</time>
      </trkpt>
      <trkpt lat="45.02994" lon="6.01699">
        <ele>1540</ele>
        <time>2020-09-05T11:32:55Z</time>
      </trkpt>
      <trkpt lat="45.02999" lon="6.01694">
        <ele>1539.2</ele>
        <time>2020-09-05T11:32:56Z</time>
      </trkpt>
      <trkpt lat="45.03004" lon="6.01687">
        <ele>1538.4</ele>
        <time>2020-09-05T11:32:57Z</time>
      </trkpt>
      <trkpt lat="45.03008" lon="6.0168">
        <ele>1538</ele>
        <time>2020-09-05T11:32:58Z</time>
      </trkpt>
      <trkpt lat="45.03013" lon="6.01672">
        <ele>1537.4</ele>
        <time>2020-09-05T11:32:59Z</time>
      </trkpt>
      <trkpt lat="45.03018" lon="6.01665">
        <ele>1536.8</ele>
        <time>2020-09-05T11:33:00Z</time>
      </trkpt>
      <trkpt lat="45.03025" lon="6.01658">
        <ele>1536.2</ele>
        <time>2020-09-05T11:33:01Z</time>
      </trkpt>
      <trkpt lat="45.03032" lon="6.01653">
        <ele>1536</ele>
        <time>2020-09-05T11:33:02Z</time>
      </trkpt>
      <trkpt lat="45.0304" lon="6.01648">
        <ele>1535.4</ele>
        <time>2020-09-05T11:33:03Z</time>
      </trkpt>
      <trkpt lat="45.03049" lon="6.01643">
        <ele>1535</ele>
        <time>2020-09-05T11:33:04Z</time>
      </trkpt>
      <trkpt lat="45.03058" lon="6.01638">
        <ele>1534.6</ele>
        <time>2020-09-05T11:33:05Z</time>
      </trkpt>
      <trkpt lat="45.03067" lon="6.01633">
        <ele>1534</ele>
        <time>2020-09-05T11:33:06Z</time>
      </trkpt>
      <trkpt lat="45.03076" lon="6.01628">
        <ele>1533.4</ele>
        <time>2020-09-05T11:33:07Z</time>
      </trkpt>
      <trkpt lat="45.03087" lon="6.01623">
        <ele>1532.6</ele>
        <time>2020-09-05T11:33:08Z</time>
      </trkpt>
      <trkpt lat="45.03097" lon="6.01616">
        <ele>1532.2</ele>
        <time>2020-09-05T11:33:09Z</time>
      </trkpt>
      <trkpt lat="45.03108" lon="6.0161">
        <ele>1531.8</ele>
        <time>2020-09-05T11:33:10Z</time>
      </trkpt>
      <trkpt lat="45.03119" lon="6.01603">
        <ele>1531.4</ele>
        <time>2020-09-05T11:33:11Z</time>
      </trkpt>
      <trkpt lat="45.03129" lon="6.01597">
        <ele>1530.6</ele>
        <time>2020-09-05T11:33:12Z</time>
      </trkpt>
      <trkpt lat="45.03139" lon="6.01591">
        <ele>1529.8</ele>
        <time>2020-09-05T11:33:13Z</time>
      </trkpt>
      <trkpt lat="45.03149" lon="6.01587">
        <ele>1528.6</ele>
        <time>2020-09-05T11:33:14Z</time>
      </trkpt>
      <trkpt lat="45.03158" lon="6.01583">
        <ele>1527.8</ele>
        <time>2020-09-05T11:33:15Z</time>
      </trkpt>
      <trkpt lat="45.03167" lon="6.01578">
        <ele>1526.8</ele>
        <time>2020-09-05T11:33:16Z</time>
      </trkpt>
      <trkpt lat="45.03176" lon="6.01573">
        <ele>1525.8</ele>
        <time>2020-09-05T11:33:17Z</time>
      </trkpt>
      <trkpt lat="45.03184" lon="6.01567">
        <ele>1525.2</ele>
        <time>2020-09-05T11:33:18Z</time>
      </trkpt>
      <trkpt lat="45.03193" lon="6.01559">
        <ele>1524.2</ele>
        <time>2020-09-05T11:33:19Z</time>
      </trkpt>
      <trkpt lat="45.03202" lon="6.01552">
        <ele>1524</ele>
        <time>2020-09-05T11:33:20Z</time>
      </trkpt>
      <trkpt lat="45.03211" lon="6.01543">
        <ele>1523.6</ele>
        <time>2020-09-05T11:33:21Z</time>
      </trkpt>
      <trkpt lat="45.03219" lon="6.01534">
        <ele>1522.6</ele>
        <time>2020-09-05T11:33:22Z</time>
      </trkpt>
      <trkpt lat="45.03228" lon="6.01524">
        <ele>1521.6</ele>
        <time>2020-09-05T11:33:23Z</time>
      </trkpt>
      <trkpt lat="45.03236" lon="6.01514">
        <ele>1521</ele>
        <time>2020-09-05T11:33:24Z</time>
      </trkpt>
      <trkpt lat="45.03245" lon="6.01504">
        <ele>1520.2</ele>
        <time>2020-09-05T11:33:25Z</time>
      </trkpt>
      <trkpt lat="45.03253" lon="6.01494">
        <ele>1519.4</ele>
        <time>2020-09-05T11:33:26Z</time>
      </trkpt>
      <trkpt lat="45.03261" lon="6.01485">
        <ele>1518</ele>
        <time>2020-09-05T11:33:27Z</time>
      </trkpt>
      <trkpt lat="45.03269" lon="6.01478">
        <ele>1517</ele>
        <time>2020-09-05T11:33:28Z</time>
      </trkpt>
      <trkpt lat="45.03277" lon="6.01471">
        <ele>1515.6</ele>
        <time>2020-09-05T11:33:29Z</time>
      </trkpt>
      <trkpt lat="45.03286" lon="6.01465">
        <ele>1515.4</ele>
        <time>2020-09-05T11:33:30Z</time>
      </trkpt>
      <trkpt lat="45.03295" lon="6.0146">
        <ele>1514.4</ele>
        <time>2020-09-05T11:33:31Z</time>
      </trkpt>
      <trkpt lat="45.03305" lon="6.01456">
        <ele>1513.4</ele>
        <time>2020-09-05T11:33:32Z</time>
      </trkpt>
      <trkpt lat="45.03315" lon="6.01453">
        <ele>1512</ele>
        <time>2020-09-05T11:33:33Z</time>
      </trkpt>
      <trkpt lat="45.03324" lon="6.01449">
        <ele>1510.4</ele>
        <time>2020-09-05T11:33:34Z</time>
      </trkpt>
      <trkpt lat="45.03332" lon="6.01444">
        <ele>1509.8</ele>
        <time>2020-09-05T11:33:35Z</time>
      </trkpt>
      <trkpt lat="45.0334" lon="6.01439">
        <ele>1508.8</ele>
        <time>2020-09-05T11:33:36Z</time>
      </trkpt>
      <trkpt lat="45.03348" lon="6.01434">
        <ele>1507.8</ele>
        <time>2020-09-05T11:33:37Z</time>
      </trkpt>
      <trkpt lat="45.03357" lon="6.01427">
        <ele>1506.8</ele>
        <time>2020-09-05T11:33:38Z</time>
      </trkpt>
      <trkpt lat="45.03365" lon="6.0142">
        <ele>1506.4</ele>
        <time>2020-09-05T11:33:39Z</time>
      </trkpt>
      <trkpt lat="45.03373" lon="6.01411">
        <ele>1506</ele>
        <time>2020-09-05T11:33:40Z</time>
      </trkpt>
      <trkpt lat="45.03381" lon="6.01402">
        <ele>1505</ele>
        <time>2020-09-05T11:33:41Z</time>
      </trkpt>
      <trkpt lat="45.03389" lon="6.01394">
        <ele>1503.8</ele>
        <time>2020-09-05T11:33:42Z</time>
      </trkpt>
      <trkpt lat="45.03395" lon="6.01385">
        <ele>1502.6</ele>
        <time>2020-09-05T11:33:43Z</time>
      </trkpt>
      <trkpt lat="45.03401" lon="6.01376">
        <ele>1501.6</ele>
        <time>2020-09-05T11:33:44Z</time>
      </trkpt>
      <trkpt lat="45.03405" lon="6.01367">
        <ele>1500.8</ele>
        <time>2020-09-05T11:33:45Z</time>
      </trkpt>
      <trkpt lat="45.03409" lon="6.01357">
        <ele>1499.6</ele>
        <time>2020-09-05T11:33:46Z</time>
      </trkpt>
      <trkpt lat="45.03412" lon="6.01345">
        <ele>1498.6</ele>
        <time>2020-09-05T11:33:47Z</time>
      </trkpt>
      <trkpt lat="45.03416" lon="6.01333">
        <ele>1497.6</ele>
        <time>2020-09-05T11:33:48Z</time>
      </trkpt>
      <trkpt lat="45.0342" lon="6.01321">
        <ele>1496.8</ele>
        <time>2020-09-05T11:33:49Z</time>
      </trkpt>
      <trkpt lat="45.03425" lon="6.0131">
        <ele>1495.6</ele>
        <time>2020-09-05T11:33:50Z</time>
      </trkpt>
      <trkpt lat="45.03428" lon="6.01301">
        <ele>1494.6</ele>
        <time>2020-09-05T11:33:51Z</time>
      </trkpt>
      <trkpt lat="45.03427" lon="6.01293">
        <ele>1494</ele>
        <time>2020-09-05T11:33:52Z</time>
      </trkpt>
      <trkpt lat="45.03425" lon="6.01284">
        <ele>1493.4</ele>
        <time>2020-09-05T11:33:53Z</time>
      </trkpt>
      <trkpt lat="45.03421" lon="6.01276">
        <ele>1493</ele>
        <time>2020-09-05T11:33:54Z</time>
      </trkpt>
      <trkpt lat="45.03418" lon="6.01267">
        <ele>1492.2</ele>
        <time>2020-09-05T11:33:55Z</time>
      </trkpt>
      <trkpt lat="45.03415" lon="6.01257">
        <ele>1491.4</ele>
        <time>2020-09-05T11:33:56Z</time>
      </trkpt>
      <trkpt lat="45.03415" lon="6.01248">
        <ele>1491</ele>
        <time>2020-09-05T11:33:57Z</time>
      </trkpt>
      <trkpt lat="45.03414" lon="6.01239">
        <ele>1490.4</ele>
        <time>2020-09-05T11:33:58Z</time>
      </trkpt>
      <trkpt lat="45.03415" lon="6.01228">
        <ele>1490</ele>
        <time>2020-09-05T11:33:59Z</time>
      </trkpt>
      <trkpt lat="45.03416" lon="6.01217">
        <ele>1489.4</ele>
        <time>2020-09-05T11:34:00Z</time>
      </trkpt>
      <trkpt lat="45.03418" lon="6.01205">
        <ele>1488.4</ele>
        <time>2020-09-05T11:34:01Z</time>
      </trkpt>
      <trkpt lat="45.03421" lon="6.01194">
        <ele>1488</ele>
        <time>2020-09-05T11:34:02Z</time>
      </trkpt>
      <trkpt lat="45.03424" lon="6.01183">
        <ele>1487.8</ele>
        <time>2020-09-05T11:34:03Z</time>
      </trkpt>
      <trkpt lat="45.03427" lon="6.01171">
        <ele>1487.6</ele>
        <time>2020-09-05T11:34:04Z</time>
      </trkpt>
      <trkpt lat="45.03431" lon="6.0116">
        <ele>1487.2</ele>
        <time>2020-09-05T11:34:05Z</time>
      </trkpt>
      <trkpt lat="45.03435" lon="6.01148">
        <ele>1487</ele>
        <time>2020-09-05T11:34:06Z</time>
      </trkpt>
      <trkpt lat="45.03439" lon="6.01135">
        <ele>1486.6</ele>
        <time>2020-09-05T11:34:07Z</time>
      </trkpt>
      <trkpt lat="45.03445" lon="6.01122">
        <ele>1485.8</ele>
        <time>2020-09-05T11:34:08Z</time>
      </trkpt>
      <trkpt lat="45.0345" lon="6.01109">
        <ele>1485</ele>
        <time>2020-09-05T11:34:09Z</time>
      </trkpt>
      <trkpt lat="45.03455" lon="6.01097">
        <ele>1484.2</ele>
        <time>2020-09-05T11:34:10Z</time>
      </trkpt>
      <trkpt lat="45.0346" lon="6.01086">
        <ele>1483.4</ele>
        <time>2020-09-05T11:34:11Z</time>
      </trkpt>
      <trkpt lat="45.03465" lon="6.01074">
        <ele>1482.4</ele>
        <time>2020-09-05T11:34:12Z</time>
      </trkpt>
      <trkpt lat="45.03471" lon="6.01062">
        <ele>1481.6</ele>
        <time>2020-09-05T11:34:13Z</time>
      </trkpt>
      <trkpt lat="45.03477" lon="6.01051">
        <ele>1480.8</ele>
        <time>2020-09-05T11:34:14Z</time>
      </trkpt>
      <trkpt lat="45.03483" lon="6.01041">
        <ele>1480.2</ele>
        <time>2020-09-05T11:34:15Z</time>
      </trkpt>
      <trkpt lat="45.0349" lon="6.01031">
        <ele>1479.2</ele>
        <time>2020-09-05T11:34:16Z</time>
      </trkpt>
      <trkpt lat="45.03498" lon="6.01022">
        <ele>1478</ele>
        <time>2020-09-05T11:34:17Z</time>
      </trkpt>
      <trkpt lat="45.03505" lon="6.01014">
        <ele>1476.6</ele>
        <time>2020-09-05T11:34:18Z</time>
      </trkpt>
      <trkpt lat="45.03512" lon="6.01007">
        <ele>1475.6</ele>
        <time>2020-09-05T11:34:19Z</time>
      </trkpt>
      <trkpt lat="45.0352" lon="6.01001">
        <ele>1474.8</ele>
        <time>2020-09-05T11:34:20Z</time>
      </trkpt>
      <trkpt lat="45.03527" lon="6.00996">
        <ele>1473.6</ele>
        <time>2020-09-05T11:34:21Z</time>
      </trkpt>
      <trkpt lat="45.03536" lon="6.0099">
        <ele>1471.6</ele>
        <time>2020-09-05T11:34:23Z</time>
      </trkpt>
      <trkpt lat="45.03537" lon="6.00986">
        <ele>1471</ele>
        <time>2020-09-05T11:34:24Z</time>
      </trkpt>
      <trkpt lat="45.03536" lon="6.00982">
        <ele>1470.2</ele>
        <time>2020-09-05T11:34:25Z</time>
      </trkpt>
      <trkpt lat="45.03532" lon="6.0098">
        <ele>1469.6</ele>
        <time>2020-09-05T11:34:26Z</time>
      </trkpt>
      <trkpt lat="45.03527" lon="6.0098">
        <ele>1469</ele>
        <time>2020-09-05T11:34:27Z</time>
      </trkpt>
      <trkpt lat="45.03522" lon="6.00984">
        <ele>1468.6</ele>
        <time>2020-09-05T11:34:28Z</time>
      </trkpt>
      <trkpt lat="45.03517" lon="6.00989">
        <ele>1468.4</ele>
        <time>2020-09-05T11:34:29Z</time>
      </trkpt>
      <trkpt lat="45.03512" lon="6.00994">
        <ele>1468</ele>
        <time>2020-09-05T11:34:30Z</time>
      </trkpt>
      <trkpt lat="45.03506" lon="6.00999">
        <ele>1467.8</ele>
        <time>2020-09-05T11:34:31Z</time>
      </trkpt>
      <trkpt lat="45.035" lon="6.01004">
        <ele>1467.6</ele>
        <time>2020-09-05T11:34:32Z</time>
      </trkpt>
      <trkpt lat="45.03493" lon="6.01009">
        <ele>1467.4</ele>
        <time>2020-09-05T11:34:33Z</time>
      </trkpt>
      <trkpt lat="45.03486" lon="6.01014">
        <ele>1467.2</ele>
        <time>2020-09-05T11:34:34Z</time>
      </trkpt>
      <trkpt lat="45.03479" lon="6.0102">
        <ele>1467.2</ele>
        <time>2020-09-05T11:34:35Z</time>
      </trkpt>
      <trkpt lat="45.03472" lon="6.01027">
        <ele>1466.8</ele>
        <time>2020-09-05T11:34:36Z</time>
      </trkpt>
      <trkpt lat="45.03464" lon="6.01035">
        <ele>1466.4</ele>
        <time>2020-09-05T11:34:37Z</time>
      </trkpt>
      <trkpt lat="45.03457" lon="6.01043">
        <ele>1466</ele>
        <time>2020-09-05T11:34:38Z</time>
      </trkpt>
      <trkpt lat="45.03449" lon="6.01052">
        <ele>1465.4</ele>
        <time>2020-09-05T11:34:39Z</time>
      </trkpt>
      <trkpt lat="45.03441" lon="6.01062">
        <ele>1464.8</ele>
        <time>2020-09-05T11:34:40Z</time>
      </trkpt>
      <trkpt lat="45.03433" lon="6.01071">
        <ele>1463.6</ele>
        <time>2020-09-05T11:34:41Z</time>
      </trkpt>
      <trkpt lat="45.03424" lon="6.01082">
        <ele>1462.6</ele>
        <time>2020-09-05T11:34:42Z</time>
      </trkpt>
      <trkpt lat="45.03415" lon="6.01093">
        <ele>1462.4</ele>
        <time>2020-09-05T11:34:43Z</time>
      </trkpt>
      <trkpt lat="45.03407" lon="6.01103">
        <ele>1461.4</ele>
        <time>2020-09-05T11:34:44Z</time>
      </trkpt>
      <trkpt lat="45.03398" lon="6.01112">
        <ele>1460.2</ele>
        <time>2020-09-05T11:34:45Z</time>
      </trkpt>
      <trkpt lat="45.03391" lon="6.01121">
        <ele>1459.2</ele>
        <time>2020-09-05T11:34:46Z</time>
      </trkpt>
      <trkpt lat="45.03384" lon="6.0113">
        <ele>1458.4</ele>
        <time>2020-09-05T11:34:47Z</time>
      </trkpt>
      <trkpt lat="45.03377" lon="6.0114">
        <ele>1457.4</ele>
        <time>2020-09-05T11:34:48Z</time>
      </trkpt>
      <trkpt lat="45.0337" lon="6.01152">
        <ele>1456.8</ele>
        <time>2020-09-05T11:34:49Z</time>
      </trkpt>
      <trkpt lat="45.03365" lon="6.01165">
        <ele>1455.8</ele>
        <time>2020-09-05T11:34:50Z</time>
      </trkpt>
      <trkpt lat="45.03359" lon="6.01178">
        <ele>1455</ele>
        <time>2020-09-05T11:34:51Z</time>
      </trkpt>
      <trkpt lat="45.03354" lon="6.01192">
        <ele>1454.2</ele>
        <time>2020-09-05T11:34:52Z</time>
      </trkpt>
      <trkpt lat="45.0335" lon="6.01207">
        <ele>1453.2</ele>
        <time>2020-09-05T11:34:53Z</time>
      </trkpt>
      <trkpt lat="45.03345" lon="6.01219">
        <ele>1452.2</ele>
        <time>2020-09-05T11:34:54Z</time>
      </trkpt>
      <trkpt lat="45.03341" lon="6.0123">
        <ele>1451.4</ele>
        <time>2020-09-05T11:34:55Z</time>
      </trkpt>
      <trkpt lat="45.03336" lon="6.01239">
        <ele>1450.2</ele>
        <time>2020-09-05T11:34:56Z</time>
      </trkpt>
      <trkpt lat="45.0333" lon="6.01245">
        <ele>1449.4</ele>
        <time>2020-09-05T11:34:57Z</time>
      </trkpt>
      <trkpt lat="45.03324" lon="6.01247">
        <ele>1448.4</ele>
        <time>2020-09-05T11:34:58Z</time>
      </trkpt>
      <trkpt lat="45.03317" lon="6.01244">
        <ele>1447.8</ele>
        <time>2020-09-05T11:34:59Z</time>
      </trkpt>
      <trkpt lat="45.03309" lon="6.01239">
        <ele>1446.8</ele>
        <time>2020-09-05T11:35:00Z</time>
      </trkpt>
      <trkpt lat="45.03301" lon="6.01235">
        <ele>1446</ele>
        <time>2020-09-05T11:35:01Z</time>
      </trkpt>
      <trkpt lat="45.03293" lon="6.01232">
        <ele>1445.2</ele>
        <time>2020-09-05T11:35:02Z</time>
      </trkpt>
      <trkpt lat="45.03285" lon="6.01231">
        <ele>1445.2</ele>
        <time>2020-09-05T11:35:03Z</time>
      </trkpt>
      <trkpt lat="45.03277" lon="6.01231">
        <ele>1445</ele>
        <time>2020-09-05T11:35:04Z</time>
      </trkpt>
      <trkpt lat="45.03268" lon="6.01231">
        <ele>1444.4</ele>
        <time>2020-09-05T11:35:05Z</time>
      </trkpt>
      <trkpt lat="45.03259" lon="6.01233">
        <ele>1443.8</ele>
        <time>2020-09-05T11:35:06Z</time>
      </trkpt>
      <trkpt lat="45.0325" lon="6.01236">
        <ele>1443.4</ele>
        <time>2020-09-05T11:35:07Z</time>
      </trkpt>
      <trkpt lat="45.0324" lon="6.0124">
        <ele>1442.6</ele>
        <time>2020-09-05T11:35:08Z</time>
      </trkpt>
      <trkpt lat="45.03231" lon="6.01245">
        <ele>1442.2</ele>
        <time>2020-09-05T11:35:09Z</time>
      </trkpt>
      <trkpt lat="45.03222" lon="6.01251">
        <ele>1441</ele>
        <time>2020-09-05T11:35:10Z</time>
      </trkpt>
      <trkpt lat="45.03211" lon="6.01258">
        <ele>1440.2</ele>
        <time>2020-09-05T11:35:11Z</time>
      </trkpt>
      <trkpt lat="45.03201" lon="6.01264">
        <ele>1439.2</ele>
        <time>2020-09-05T11:35:12Z</time>
      </trkpt>
      <trkpt lat="45.03191" lon="6.0127">
        <ele>1438.2</ele>
        <time>2020-09-05T11:35:13Z</time>
      </trkpt>
      <trkpt lat="45.03181" lon="6.01276">
        <ele>1437.2</ele>
        <time>2020-09-05T11:35:14Z</time>
      </trkpt>
      <trkpt lat="45.03173" lon="6.01282">
        <ele>1436.4</ele>
        <time>2020-09-05T11:35:15Z</time>
      </trkpt>
      <trkpt lat="45.03166" lon="6.01288">
        <ele>1435.4</ele>
        <time>2020-09-05T11:35:16Z</time>
      </trkpt>
      <trkpt lat="45.0316" lon="6.01292">
        <ele>1434.2</ele>
        <time>2020-09-05T11:35:17Z</time>
      </trkpt>
      <trkpt lat="45.03154" lon="6.01293">
        <ele>1433</ele>
        <time>2020-09-05T11:35:18Z</time>
      </trkpt>
      <trkpt lat="45.03151" lon="6.01289">
        <ele>1431.6</ele>
        <time>2020-09-05T11:35:19Z</time>
      </trkpt>
      <trkpt lat="45.03151" lon="6.01284">
        <ele>1430.8</ele>
        <time>2020-09-05T11:35:20Z</time>
      </trkpt>
      <trkpt lat="45.03154" lon="6.01278">
        <ele>1429.8</ele>
        <time>2020-09-05T11:35:21Z</time>
      </trkpt>
      <trkpt lat="45.03158" lon="6.01275">
        <ele>1429.4</ele>
        <time>2020-09-05T11:35:22Z</time>
      </trkpt>
      <trkpt lat="45.03163" lon="6.01273">
        <ele>1428.6</ele>
        <time>2020-09-05T11:35:23Z</time>
      </trkpt>
      <trkpt lat="45.03168" lon="6.0127">
        <ele>1428.6</ele>
        <time>2020-09-05T11:35:24Z</time>
      </trkpt>
      <trkpt lat="45.03172" lon="6.01267">
        <ele>1428</ele>
        <time>2020-09-05T11:35:25Z</time>
      </trkpt>
      <trkpt lat="45.03177" lon="6.01262">
        <ele>1427.6</ele>
        <time>2020-09-05T11:35:26Z</time>
      </trkpt>
      <trkpt lat="45.03181" lon="6.01256">
        <ele>1427.6</ele>
        <time>2020-09-05T11:35:27Z</time>
      </trkpt>
      <trkpt lat="45.03186" lon="6.01249">
        <ele>1427.6</ele>
        <time>2020-09-05T11:35:28Z</time>
      </trkpt>
      <trkpt lat="45.03191" lon="6.01242">
        <ele>1427.6</ele>
        <time>2020-09-05T11:35:29Z</time>
      </trkpt>
      <trkpt lat="45.03197" lon="6.01234">
        <ele>1427.2</ele>
        <time>2020-09-05T11:35:30Z</time>
      </trkpt>
      <trkpt lat="45.03204" lon="6.01227">
        <ele>1427</ele>
        <time>2020-09-05T11:35:31Z</time>
      </trkpt>
      <trkpt lat="45.03211" lon="6.01219">
        <ele>1426.6</ele>
        <time>2020-09-05T11:35:32Z</time>
      </trkpt>
      <trkpt lat="45.03218" lon="6.01211">
        <ele>1425.8</ele>
        <time>2020-09-05T11:35:33Z</time>
      </trkpt>
      <trkpt lat="45.03225" lon="6.01202">
        <ele>1425.2</ele>
        <time>2020-09-05T11:35:34Z</time>
      </trkpt>
      <trkpt lat="45.03232" lon="6.01192">
        <ele>1424.6</ele>
        <time>2020-09-05T11:35:35Z</time>
      </trkpt>
      <trkpt lat="45.03239" lon="6.01183">
        <ele>1424</ele>
        <time>2020-09-05T11:35:36Z</time>
      </trkpt>
      <trkpt lat="45.03246" lon="6.01175">
        <ele>1423.2</ele>
        <time>2020-09-05T11:35:37Z</time>
      </trkpt>
      <trkpt lat="45.03255" lon="6.01168">
        <ele>1422.4</ele>
        <time>2020-09-05T11:35:38Z</time>
      </trkpt>
      <trkpt lat="45.03265" lon="6.01164">
        <ele>1421</ele>
        <time>2020-09-05T11:35:39Z</time>
      </trkpt>
      <trkpt lat="45.03275" lon="6.01161">
        <ele>1420.4</ele>
        <time>2020-09-05T11:35:40Z</time>
      </trkpt>
      <trkpt lat="45.03284" lon="6.01159">
        <ele>1419.4</ele>
        <time>2020-09-05T11:35:41Z</time>
      </trkpt>
      <trkpt lat="45.03293" lon="6.01158">
        <ele>1418.2</ele>
        <time>2020-09-05T11:35:42Z</time>
      </trkpt>
      <trkpt lat="45.033" lon="6.01157">
        <ele>1417</ele>
        <time>2020-09-05T11:35:43Z</time>
      </trkpt>
      <trkpt lat="45.03306" lon="6.01153">
        <ele>1416.4</ele>
        <time>2020-09-05T11:35:44Z</time>
      </trkpt>
      <trkpt lat="45.03309" lon="6.01145">
        <ele>1415.8</ele>
        <time>2020-09-05T11:35:45Z</time>
      </trkpt>
      <trkpt lat="45.03311" lon="6.01135">
        <ele>1415.2</ele>
        <time>2020-09-05T11:35:46Z</time>
      </trkpt>
      <trkpt lat="45.03313" lon="6.01125">
        <ele>1414.6</ele>
        <time>2020-09-05T11:35:47Z</time>
      </trkpt>
      <trkpt lat="45.03316" lon="6.01113">
        <ele>1414.2</ele>
        <time>2020-09-05T11:35:48Z</time>
      </trkpt>
      <trkpt lat="45.03319" lon="6.01101">
        <ele>1413.6</ele>
        <time>2020-09-05T11:35:49Z</time>
      </trkpt>
      <trkpt lat="45.03321" lon="6.01089">
        <ele>1412.8</ele>
        <time>2020-09-05T11:35:50Z</time>
      </trkpt>
      <trkpt lat="45.03324" lon="6.01076">
        <ele>1411.8</ele>
        <time>2020-09-05T11:35:51Z</time>
      </trkpt>
      <trkpt lat="45.03328" lon="6.01063">
        <ele>1411.2</ele>
        <time>2020-09-05T11:35:52Z</time>
      </trkpt>
      <trkpt lat="45.03333" lon="6.01051">
        <ele>1410.6</ele>
        <time>2020-09-05T11:35:53Z</time>
      </trkpt>
      <trkpt lat="45.03338" lon="6.01038">
        <ele>1410.4</ele>
        <time>2020-09-05T11:35:54Z</time>
      </trkpt>
      <trkpt lat="45.03344" lon="6.01025">
        <ele>1409.8</ele>
        <time>2020-09-05T11:35:55Z</time>
      </trkpt>
      <trkpt lat="45.03349" lon="6.01012">
        <ele>1408.8</ele>
        <time>2020-09-05T11:35:56Z</time>
      </trkpt>
      <trkpt lat="45.03353" lon="6.00998">
        <ele>1408.4</ele>
        <time>2020-09-05T11:35:57Z</time>
      </trkpt>
      <trkpt lat="45.03358" lon="6.00984">
        <ele>1407.2</ele>
        <time>2020-09-05T11:35:58Z</time>
      </trkpt>
      <trkpt lat="45.03363" lon="6.00971">
        <ele>1406</ele>
        <time>2020-09-05T11:35:59Z</time>
      </trkpt>
      <trkpt lat="45.03369" lon="6.0096">
        <ele>1404.8</ele>
        <time>2020-09-05T11:36:00Z</time>
      </trkpt>
      <trkpt lat="45.03376" lon="6.00948">
        <ele>1403.8</ele>
        <time>2020-09-05T11:36:01Z</time>
      </trkpt>
      <trkpt lat="45.03384" lon="6.00937">
        <ele>1403</ele>
        <time>2020-09-05T11:36:02Z</time>
      </trkpt>
      <trkpt lat="45.03393" lon="6.00927">
        <ele>1402.6</ele>
        <time>2020-09-05T11:36:03Z</time>
      </trkpt>
      <trkpt lat="45.03402" lon="6.00916">
        <ele>1401.8</ele>
        <time>2020-09-05T11:36:04Z</time>
      </trkpt>
      <trkpt lat="45.03411" lon="6.00905">
        <ele>1401</ele>
        <time>2020-09-05T11:36:05Z</time>
      </trkpt>
      <trkpt lat="45.03419" lon="6.00895">
        <ele>1399.4</ele>
        <time>2020-09-05T11:36:06Z</time>
      </trkpt>
      <trkpt lat="45.03426" lon="6.00885">
        <ele>1398.2</ele>
        <time>2020-09-05T11:36:07Z</time>
      </trkpt>
      <trkpt lat="45.03433" lon="6.00876">
        <ele>1397.2</ele>
        <time>2020-09-05T11:36:08Z</time>
      </trkpt>
      <trkpt lat="45.0344" lon="6.00868">
        <ele>1396</ele>
        <time>2020-09-05T11:36:09Z</time>
      </trkpt>
      <trkpt lat="45.03448" lon="6.00861">
        <ele>1395.2</ele>
        <time>2020-09-05T11:36:10Z</time>
      </trkpt>
      <trkpt lat="45.03458" lon="6.00855">
        <ele>1394.4</ele>
        <time>2020-09-05T11:36:11Z</time>
      </trkpt>
      <trkpt lat="45.03467" lon="6.00848">
        <ele>1393.4</ele>
        <time>2020-09-05T11:36:12Z</time>
      </trkpt>
      <trkpt lat="45.03477" lon="6.00842">
        <ele>1392</ele>
        <time>2020-09-05T11:36:13Z</time>
      </trkpt>
      <trkpt lat="45.03485" lon="6.00837">
        <ele>1391</ele>
        <time>2020-09-05T11:36:14Z</time>
      </trkpt>
      <trkpt lat="45.03492" lon="6.00831">
        <ele>1389.6</ele>
        <time>2020-09-05T11:36:15Z</time>
      </trkpt>
      <trkpt lat="45.03498" lon="6.00822">
        <ele>1388.2</ele>
        <time>2020-09-05T11:36:16Z</time>
      </trkpt>
      <trkpt lat="45.03503" lon="6.0081">
        <ele>1387.6</ele>
        <time>2020-09-05T11:36:17Z</time>
      </trkpt>
      <trkpt lat="45.03509" lon="6.00796">
        <ele>1386.8</ele>
        <time>2020-09-05T11:36:18Z</time>
      </trkpt>
      <trkpt lat="45.03515" lon="6.00784">
        <ele>1386.2</ele>
        <time>2020-09-05T11:36:19Z</time>
      </trkpt>
      <trkpt lat="45.03521" lon="6.00772">
        <ele>1385.4</ele>
        <time>2020-09-05T11:36:20Z</time>
      </trkpt>
      <trkpt lat="45.03529" lon="6.00762">
        <ele>1384.6</ele>
        <time>2020-09-05T11:36:21Z</time>
      </trkpt>
      <trkpt lat="45.03536" lon="6.00752">
        <ele>1383.2</ele>
        <time>2020-09-05T11:36:22Z</time>
      </trkpt>
      <trkpt lat="45.03543" lon="6.00743">
        <ele>1381.4</ele>
        <time>2020-09-05T11:36:23Z</time>
      </trkpt>
      <trkpt lat="45.03549" lon="6.00734">
        <ele>1380.2</ele>
        <time>2020-09-05T11:36:24Z</time>
      </trkpt>
      <trkpt lat="45.03553" lon="6.00724">
        <ele>1378.8</ele>
        <time>2020-09-05T11:36:25Z</time>
      </trkpt>
      <trkpt lat="45.03556" lon="6.00715">
        <ele>1377.8</ele>
        <time>2020-09-05T11:36:26Z</time>
      </trkpt>
      <trkpt lat="45.03567" lon="6.007">
        <ele>1376.4</ele>
        <time>2020-09-05T11:36:28Z</time>
      </trkpt>
      <trkpt lat="45.03574" lon="6.00694">
        <ele>1375.8</ele>
        <time>2020-09-05T11:36:29Z</time>
      </trkpt>
      <trkpt lat="45.03582" lon="6.00687">
        <ele>1375.6</ele>
        <time>2020-09-05T11:36:30Z</time>
      </trkpt>
      <trkpt lat="45.0359" lon="6.0068">
        <ele>1374.8</ele>
        <time>2020-09-05T11:36:31Z</time>
      </trkpt>
      <trkpt lat="45.03596" lon="6.00671">
        <ele>1374</ele>
        <time>2020-09-05T11:36:32Z</time>
      </trkpt>
      <trkpt lat="45.03603" lon="6.00662">
        <ele>1372.8</ele>
        <time>2020-09-05T11:36:33Z</time>
      </trkpt>
      <trkpt lat="45.03611" lon="6.00653">
        <ele>1371.8</ele>
        <time>2020-09-05T11:36:34Z</time>
      </trkpt>
      <trkpt lat="45.0362" lon="6.00645">
        <ele>1371.2</ele>
        <time>2020-09-05T11:36:35Z</time>
      </trkpt>
      <trkpt lat="45.0363" lon="6.00637">
        <ele>1371</ele>
        <time>2020-09-05T11:36:36Z</time>
      </trkpt>
      <trkpt lat="45.0364" lon="6.00629">
        <ele>1370</ele>
        <time>2020-09-05T11:36:37Z</time>
      </trkpt>
      <trkpt lat="45.03651" lon="6.00621">
        <ele>1369.4</ele>
        <time>2020-09-05T11:36:38Z</time>
      </trkpt>
      <trkpt lat="45.03662" lon="6.00612">
        <ele>1368.4</ele>
        <time>2020-09-05T11:36:39Z</time>
      </trkpt>
      <trkpt lat="45.03673" lon="6.00604">
        <ele>1367.8</ele>
        <time>2020-09-05T11:36:40Z</time>
      </trkpt>
      <trkpt lat="45.03684" lon="6.00595">
        <ele>1366.8</ele>
        <time>2020-09-05T11:36:41Z</time>
      </trkpt>
      <trkpt lat="45.03695" lon="6.00588">
        <ele>1365.6</ele>
        <time>2020-09-05T11:36:42Z</time>
      </trkpt>
      <trkpt lat="45.03705" lon="6.0058">
        <ele>1364.2</ele>
        <time>2020-09-05T11:36:43Z</time>
      </trkpt>
      <trkpt lat="45.03715" lon="6.00573">
        <ele>1363.2</ele>
        <time>2020-09-05T11:36:44Z</time>
      </trkpt>
      <trkpt lat="45.03724" lon="6.00568">
        <ele>1362</ele>
        <time>2020-09-05T11:36:45Z</time>
      </trkpt>
      <trkpt lat="45.03733" lon="6.00562">
        <ele>1361</ele>
        <time>2020-09-05T11:36:46Z</time>
      </trkpt>
      <trkpt lat="45.03743" lon="6.00557">
        <ele>1360</ele>
        <time>2020-09-05T11:36:47Z</time>
      </trkpt>
      <trkpt lat="45.03753" lon="6.00553">
        <ele>1359</ele>
        <time>2020-09-05T11:36:48Z</time>
      </trkpt>
      <trkpt lat="45.03764" lon="6.00552">
        <ele>1358.6</ele>
        <time>2020-09-05T11:36:49Z</time>
      </trkpt>
      <trkpt lat="45.03775" lon="6.00552">
        <ele>1357.8</ele>
        <time>2020-09-05T11:36:50Z</time>
      </trkpt>
      <trkpt lat="45.03786" lon="6.00554">
        <ele>1356.4</ele>
        <time>2020-09-05T11:36:51Z</time>
      </trkpt>
      <trkpt lat="45.03797" lon="6.00557">
        <ele>1355</ele>
        <time>2020-09-05T11:36:52Z</time>
      </trkpt>
      <trkpt lat="45.03807" lon="6.00561">
        <ele>1353.2</ele>
        <time>2020-09-05T11:36:53Z</time>
      </trkpt>
      <trkpt lat="45.03816" lon="6.00565">
        <ele>1351.6</ele>
        <time>2020-09-05T11:36:54Z</time>
      </trkpt>
      <trkpt lat="45.03822" lon="6.00568">
        <ele>1350</ele>
        <time>2020-09-05T11:36:55Z</time>
      </trkpt>
      <trkpt lat="45.03828" lon="6.00569">
        <ele>1348.6</ele>
        <time>2020-09-05T11:36:56Z</time>
      </trkpt>
      <trkpt lat="45.03831" lon="6.00565">
        <ele>1347.6</ele>
        <time>2020-09-05T11:36:57Z</time>
      </trkpt>
      <trkpt lat="45.0383" lon="6.0056">
        <ele>1346.6</ele>
        <time>2020-09-05T11:36:58Z</time>
      </trkpt>
      <trkpt lat="45.03827" lon="6.00555">
        <ele>1345.4</ele>
        <time>2020-09-05T11:36:59Z</time>
      </trkpt>
      <trkpt lat="45.03821" lon="6.00552">
        <ele>1344.8</ele>
        <time>2020-09-05T11:37:00Z</time>
      </trkpt>
      <trkpt lat="45.03815" lon="6.00549">
        <ele>1344.6</ele>
        <time>2020-09-05T11:37:01Z</time>
      </trkpt>
      <trkpt lat="45.03808" lon="6.00546">
        <ele>1343.6</ele>
        <time>2020-09-05T11:37:02Z</time>
      </trkpt>
      <trkpt lat="45.038" lon="6.00543">
        <ele>1343</ele>
        <time>2020-09-05T11:37:03Z</time>
      </trkpt>
      <trkpt lat="45.03793" lon="6.00539">
        <ele>1343</ele>
        <time>2020-09-05T11:37:04Z</time>
      </trkpt>
      <trkpt lat="45.03785" lon="6.00535">
        <ele>1342.8</ele>
        <time>2020-09-05T11:37:05Z</time>
      </trkpt>
      <trkpt lat="45.03777" lon="6.0053">
        <ele>1342.2</ele>
        <time>2020-09-05T11:37:06Z</time>
      </trkpt>
      <trkpt lat="45.03768" lon="6.00526">
        <ele>1341.8</ele>
        <time>2020-09-05T11:37:07Z</time>
      </trkpt>
      <trkpt lat="45.03759" lon="6.00522">
        <ele>1341.4</ele>
        <time>2020-09-05T11:37:08Z</time>
      </trkpt>
      <trkpt lat="45.03749" lon="6.0052">
        <ele>1341.2</ele>
        <time>2020-09-05T11:37:09Z</time>
      </trkpt>
      <trkpt lat="45.03737" lon="6.00518">
        <ele>1341.4</ele>
        <time>2020-09-05T11:37:10Z</time>
      </trkpt>
      <trkpt lat="45.03726" lon="6.00518">
        <ele>1340.8</ele>
        <time>2020-09-05T11:37:11Z</time>
      </trkpt>
      <trkpt lat="45.03714" lon="6.00519">
        <ele>1340.2</ele>
        <time>2020-09-05T11:37:12Z</time>
      </trkpt>
      <trkpt lat="45.03702" lon="6.0052">
        <ele>1339.8</ele>
        <time>2020-09-05T11:37:13Z</time>
      </trkpt>
      <trkpt lat="45.03689" lon="6.00522">
        <ele>1339</ele>
        <time>2020-09-05T11:37:14Z</time>
      </trkpt>
      <trkpt lat="45.03677" lon="6.00527">
        <ele>1337.8</ele>
        <time>2020-09-05T11:37:15Z</time>
      </trkpt>
      <trkpt lat="45.03664" lon="6.00531">
        <ele>1337.2</ele>
        <time>2020-09-05T11:37:16Z</time>
      </trkpt>
      <trkpt lat="45.03651" lon="6.00536">
        <ele>1336.2</ele>
        <time>2020-09-05T11:37:17Z</time>
      </trkpt>
      <trkpt lat="45.03639" lon="6.00541">
        <ele>1335</ele>
        <time>2020-09-05T11:37:18Z</time>
      </trkpt>
      <trkpt lat="45.03627" lon="6.00545">
        <ele>1334.2</ele>
        <time>2020-09-05T11:37:19Z</time>
      </trkpt>
      <trkpt lat="45.03616" lon="6.0055">
        <ele>1332.8</ele>
        <time>2020-09-05T11:37:20Z</time>
      </trkpt>
      <trkpt lat="45.03605" lon="6.00556">
        <ele>1331.6</ele>
        <time>2020-09-05T11:37:21Z</time>
      </trkpt>
      <trkpt lat="45.03596" lon="6.00563">
        <ele>1330.2</ele>
        <time>2020-09-05T11:37:22Z</time>
      </trkpt>
      <trkpt lat="45.03589" lon="6.00569">
        <ele>1328.8</ele>
        <time>2020-09-05T11:37:23Z</time>
      </trkpt>
      <trkpt lat="45.03584" lon="6.00574">
        <ele>1327.4</ele>
        <time>2020-09-05T11:37:24Z</time>
      </trkpt>
      <trkpt lat="45.0358" lon="6.00574">
        <ele>1326.4</ele>
        <time>2020-09-05T11:37:25Z</time>
      </trkpt>
      <trkpt lat="45.0358" lon="6.00569">
        <ele>1325.6</ele>
        <time>2020-09-05T11:37:26Z</time>
      </trkpt>
      <trkpt lat="45.03583" lon="6.00563">
        <ele>1324.6</ele>
        <time>2020-09-05T11:37:27Z</time>
      </trkpt>
      <trkpt lat="45.03587" lon="6.00558">
        <ele>1324</ele>
        <time>2020-09-05T11:37:28Z</time>
      </trkpt>
      <trkpt lat="45.03592" lon="6.00555">
        <ele>1323.8</ele>
        <time>2020-09-05T11:37:29Z</time>
      </trkpt>
      <trkpt lat="45.03598" lon="6.00551">
        <ele>1323.6</ele>
        <time>2020-09-05T11:37:30Z</time>
      </trkpt>
      <trkpt lat="45.03604" lon="6.00547">
        <ele>1323.4</ele>
        <time>2020-09-05T11:37:31Z</time>
      </trkpt>
      <trkpt lat="45.03612" lon="6.00542">
        <ele>1323.2</ele>
        <time>2020-09-05T11:37:32Z</time>
      </trkpt>
      <trkpt lat="45.0362" lon="6.00536">
        <ele>1322.8</ele>
        <time>2020-09-05T11:37:33Z</time>
      </trkpt>
      <trkpt lat="45.03628" lon="6.0053">
        <ele>1322.4</ele>
        <time>2020-09-05T11:37:34Z</time>
      </trkpt>
      <trkpt lat="45.03636" lon="6.00524">
        <ele>1322.2</ele>
        <time>2020-09-05T11:37:35Z</time>
      </trkpt>
      <trkpt lat="45.03645" lon="6.00517">
        <ele>1321.6</ele>
        <time>2020-09-05T11:37:36Z</time>
      </trkpt>
      <trkpt lat="45.03655" lon="6.0051">
        <ele>1321.4</ele>
        <time>2020-09-05T11:37:37Z</time>
      </trkpt>
      <trkpt lat="45.03664" lon="6.00502">
        <ele>1321</ele>
        <time>2020-09-05T11:37:38Z</time>
      </trkpt>
      <trkpt lat="45.03673" lon="6.00493">
        <ele>1320.4</ele>
        <time>2020-09-05T11:37:39Z</time>
      </trkpt>
      <trkpt lat="45.03682" lon="6.00484">
        <ele>1319.4</ele>
        <time>2020-09-05T11:37:40Z</time>
      </trkpt>
      <trkpt lat="45.03692" lon="6.00475">
        <ele>1318.6</ele>
        <time>2020-09-05T11:37:41Z</time>
      </trkpt>
      <trkpt lat="45.03701" lon="6.00467">
        <ele>1317.8</ele>
        <time>2020-09-05T11:37:42Z</time>
      </trkpt>
      <trkpt lat="45.03712" lon="6.00461">
        <ele>1317</ele>
        <time>2020-09-05T11:37:43Z</time>
      </trkpt>
      <trkpt lat="45.03722" lon="6.00456">
        <ele>1315.6</ele>
        <time>2020-09-05T11:37:44Z</time>
      </trkpt>
      <trkpt lat="45.03732" lon="6.00453">
        <ele>1314.6</ele>
        <time>2020-09-05T11:37:45Z</time>
      </trkpt>
      <trkpt lat="45.03742" lon="6.00453">
        <ele>1313.8</ele>
        <time>2020-09-05T11:37:46Z</time>
      </trkpt>
      <trkpt lat="45.03753" lon="6.00455">
        <ele>1312.6</ele>
        <time>2020-09-05T11:37:47Z</time>
      </trkpt>
      <trkpt lat="45.03764" lon="6.00458">
        <ele>1311.4</ele>
        <time>2020-09-05T11:37:48Z</time>
      </trkpt>
      <trkpt lat="45.03776" lon="6.00462">
        <ele>1310.4</ele>
        <time>2020-09-05T11:37:49Z</time>
      </trkpt>
      <trkpt lat="45.03786" lon="6.00466">
        <ele>1309</ele>
        <time>2020-09-05T11:37:50Z</time>
      </trkpt>
      <trkpt lat="45.03798" lon="6.0047">
        <ele>1307.8</ele>
        <time>2020-09-05T11:37:51Z</time>
      </trkpt>
      <trkpt lat="45.03809" lon="6.00474">
        <ele>1306.4</ele>
        <time>2020-09-05T11:37:52Z</time>
      </trkpt>
      <trkpt lat="45.0382" lon="6.00478">
        <ele>1305</ele>
        <time>2020-09-05T11:37:53Z</time>
      </trkpt>
      <trkpt lat="45.03831" lon="6.00481">
        <ele>1303.6</ele>
        <time>2020-09-05T11:37:54Z</time>
      </trkpt>
      <trkpt lat="45.0384" lon="6.00483">
        <ele>1302</ele>
        <time>2020-09-05T11:37:55Z</time>
      </trkpt>
      <trkpt lat="45.03855" lon="6.00481">
        <ele>1299.2</ele>
        <time>2020-09-05T11:37:57Z</time>
      </trkpt>
      <trkpt lat="45.03861" lon="6.00476">
        <ele>1297.8</ele>
        <time>2020-09-05T11:37:58Z</time>
      </trkpt>
      <trkpt lat="45.03867" lon="6.00456">
        <ele>1296.8</ele>
        <time>2020-09-05T11:38:00Z</time>
      </trkpt>
      <trkpt lat="45.03869" lon="6.00444">
        <ele>1296</ele>
        <time>2020-09-05T11:38:01Z</time>
      </trkpt>
      <trkpt lat="45.03872" lon="6.00432">
        <ele>1295.2</ele>
        <time>2020-09-05T11:38:02Z</time>
      </trkpt>
      <trkpt lat="45.03883" lon="6.00414">
        <ele>1293.8</ele>
        <time>2020-09-05T11:38:04Z</time>
      </trkpt>
      <trkpt lat="45.03889" lon="6.00409">
        <ele>1293</ele>
        <time>2020-09-05T11:38:05Z</time>
      </trkpt>
      <trkpt lat="45.03903" lon="6.00396">
        <ele>1292.2</ele>
        <time>2020-09-05T11:38:07Z</time>
      </trkpt>
      <trkpt lat="45.03909" lon="6.00388">
        <ele>1291.4</ele>
        <time>2020-09-05T11:38:08Z</time>
      </trkpt>
      <trkpt lat="45.03915" lon="6.00378">
        <ele>1290.8</ele>
        <time>2020-09-05T11:38:09Z</time>
      </trkpt>
      <trkpt lat="45.03921" lon="6.00368">
        <ele>1290.2</ele>
        <time>2020-09-05T11:38:10Z</time>
      </trkpt>
      <trkpt lat="45.03927" lon="6.00357">
        <ele>1289.4</ele>
        <time>2020-09-05T11:38:11Z</time>
      </trkpt>
      <trkpt lat="45.03933" lon="6.00348">
        <ele>1288.8</ele>
        <time>2020-09-05T11:38:12Z</time>
      </trkpt>
      <trkpt lat="45.03942" lon="6.00339">
        <ele>1287.8</ele>
        <time>2020-09-05T11:38:13Z</time>
      </trkpt>
      <trkpt lat="45.03952" lon="6.0033">
        <ele>1287</ele>
        <time>2020-09-05T11:38:14Z</time>
      </trkpt>
      <trkpt lat="45.03962" lon="6.00322">
        <ele>1286.2</ele>
        <time>2020-09-05T11:38:15Z</time>
      </trkpt>
      <trkpt lat="45.03972" lon="6.00312">
        <ele>1285.6</ele>
        <time>2020-09-05T11:38:16Z</time>
      </trkpt>
      <trkpt lat="45.03981" lon="6.00301">
        <ele>1284.8</ele>
        <time>2020-09-05T11:38:17Z</time>
      </trkpt>
      <trkpt lat="45.0399" lon="6.00289">
        <ele>1284</ele>
        <time>2020-09-05T11:38:18Z</time>
      </trkpt>
      <trkpt lat="45.03999" lon="6.00277">
        <ele>1283.8</ele>
        <time>2020-09-05T11:38:19Z</time>
      </trkpt>
      <trkpt lat="45.0401" lon="6.00264">
        <ele>1283.4</ele>
        <time>2020-09-05T11:38:20Z</time>
      </trkpt>
      <trkpt lat="45.0402" lon="6.00251">
        <ele>1282.4</ele>
        <time>2020-09-05T11:38:21Z</time>
      </trkpt>
      <trkpt lat="45.0403" lon="6.00239">
        <ele>1281.2</ele>
        <time>2020-09-05T11:38:22Z</time>
      </trkpt>
      <trkpt lat="45.0404" lon="6.00225">
        <ele>1280.4</ele>
        <time>2020-09-05T11:38:23Z</time>
      </trkpt>
      <trkpt lat="45.04049" lon="6.00212">
        <ele>1279.2</ele>
        <time>2020-09-05T11:38:24Z</time>
      </trkpt>
      <trkpt lat="45.04057" lon="6.00199">
        <ele>1277.8</ele>
        <time>2020-09-05T11:38:25Z</time>
      </trkpt>
      <trkpt lat="45.04063" lon="6.00187">
        <ele>1276.2</ele>
        <time>2020-09-05T11:38:26Z</time>
      </trkpt>
      <trkpt lat="45.0407" lon="6.00175">
        <ele>1274.4</ele>
        <time>2020-09-05T11:38:27Z</time>
      </trkpt>
      <trkpt lat="45.04077" lon="6.00165">
        <ele>1273</ele>
        <time>2020-09-05T11:38:28Z</time>
      </trkpt>
      <trkpt lat="45.04086" lon="6.00157">
        <ele>1271.6</ele>
        <time>2020-09-05T11:38:29Z</time>
      </trkpt>
      <trkpt lat="45.04095" lon="6.00152">
        <ele>1271.2</ele>
        <time>2020-09-05T11:38:30Z</time>
      </trkpt>
      <trkpt lat="45.04105" lon="6.00149">
        <ele>1270.2</ele>
        <time>2020-09-05T11:38:31Z</time>
      </trkpt>
      <trkpt lat="45.04114" lon="6.00149">
        <ele>1268.8</ele>
        <time>2020-09-05T11:38:32Z</time>
      </trkpt>
      <trkpt lat="45.04123" lon="6.0015">
        <ele>1267.6</ele>
        <time>2020-09-05T11:38:33Z</time>
      </trkpt>
      <trkpt lat="45.04131" lon="6.00154">
        <ele>1266.8</ele>
        <time>2020-09-05T11:38:34Z</time>
      </trkpt>
      <trkpt lat="45.04138" lon="6.00161">
        <ele>1264.8</ele>
        <time>2020-09-05T11:38:35Z</time>
      </trkpt>
      <trkpt lat="45.04145" lon="6.00167">
        <ele>1263.4</ele>
        <time>2020-09-05T11:38:36Z</time>
      </trkpt>
      <trkpt lat="45.04152" lon="6.00171">
        <ele>1262</ele>
        <time>2020-09-05T11:38:37Z</time>
      </trkpt>
      <trkpt lat="45.0416" lon="6.00173">
        <ele>1260.6</ele>
        <time>2020-09-05T11:38:38Z</time>
      </trkpt>
      <trkpt lat="45.04168" lon="6.00172">
        <ele>1259.4</ele>
        <time>2020-09-05T11:38:39Z</time>
      </trkpt>
      <trkpt lat="45.04175" lon="6.00167">
        <ele>1258.6</ele>
        <time>2020-09-05T11:38:40Z</time>
      </trkpt>
      <trkpt lat="45.0418" lon="6.0016">
        <ele>1258</ele>
        <time>2020-09-05T11:38:41Z</time>
      </trkpt>
      <trkpt lat="45.04182" lon="6.00152">
        <ele>1257.2</ele>
        <time>2020-09-05T11:38:42Z</time>
      </trkpt>
      <trkpt lat="45.04176" lon="6.00133">
        <ele>1256</ele>
        <time>2020-09-05T11:38:44Z</time>
      </trkpt>
      <trkpt lat="45.0417" lon="6.00122">
        <ele>1255.2</ele>
        <time>2020-09-05T11:38:45Z</time>
      </trkpt>
      <trkpt lat="45.04165" lon="6.0011">
        <ele>1254</ele>
        <time>2020-09-05T11:38:46Z</time>
      </trkpt>
      <trkpt lat="45.04161" lon="6.00098">
        <ele>1253</ele>
        <time>2020-09-05T11:38:47Z</time>
      </trkpt>
      <trkpt lat="45.04157" lon="6.00086">
        <ele>1252.2</ele>
        <time>2020-09-05T11:38:48Z</time>
      </trkpt>
      <trkpt lat="45.04154" lon="6.00073">
        <ele>1251.4</ele>
        <time>2020-09-05T11:38:49Z</time>
      </trkpt>
      <trkpt lat="45.04152" lon="6.0006">
        <ele>1251.2</ele>
        <time>2020-09-05T11:38:50Z</time>
      </trkpt>
      <trkpt lat="45.04154" lon="6.00035">
        <ele>1250.4</ele>
        <time>2020-09-05T11:38:52Z</time>
      </trkpt>
      <trkpt lat="45.0416" lon="6.00025">
        <ele>1250.4</ele>
        <time>2020-09-05T11:38:53Z</time>
      </trkpt>
      <trkpt lat="45.04166" lon="6.00015">
        <ele>1249.8</ele>
        <time>2020-09-05T11:38:54Z</time>
      </trkpt>
      <trkpt lat="45.04174" lon="6.00006">
        <ele>1249.6</ele>
        <time>2020-09-05T11:38:55Z</time>
      </trkpt>
      <trkpt lat="45.04181" lon="5.99998">
        <ele>1249.2</ele>
        <time>2020-09-05T11:38:56Z</time>
      </trkpt>
      <trkpt lat="45.0419" lon="5.9999">
        <ele>1248.6</ele>
        <time>2020-09-05T11:38:57Z</time>
      </trkpt>
      <trkpt lat="45.04199" lon="5.99985">
        <ele>1247.4</ele>
        <time>2020-09-05T11:38:58Z</time>
      </trkpt>
      <trkpt lat="45.04208" lon="5.99982">
        <ele>1246</ele>
        <time>2020-09-05T11:38:59Z</time>
      </trkpt>
      <trkpt lat="45.04215" lon="5.99979">
        <ele>1244.8</ele>
        <time>2020-09-05T11:39:00Z</time>
      </trkpt>
      <trkpt lat="45.04221" lon="5.99977">
        <ele>1243.8</ele>
        <time>2020-09-05T11:39:01Z</time>
      </trkpt>
      <trkpt lat="45.04226" lon="5.99972">
        <ele>1242.6</ele>
        <time>2020-09-05T11:39:02Z</time>
      </trkpt>
      <trkpt lat="45.0423" lon="5.99965">
        <ele>1241.4</ele>
        <time>2020-09-05T11:39:03Z</time>
      </trkpt>
      <trkpt lat="45.04232" lon="5.99956">
        <ele>1240.6</ele>
        <time>2020-09-05T11:39:04Z</time>
      </trkpt>
      <trkpt lat="45.04235" lon="5.99947">
        <ele>1239.6</ele>
        <time>2020-09-05T11:39:05Z</time>
      </trkpt>
      <trkpt lat="45.04238" lon="5.99936">
        <ele>1238.8</ele>
        <time>2020-09-05T11:39:06Z</time>
      </trkpt>
      <trkpt lat="45.0424" lon="5.99925">
        <ele>1238</ele>
        <time>2020-09-05T11:39:07Z</time>
      </trkpt>
      <trkpt lat="45.04239" lon="5.99914">
        <ele>1237</ele>
        <time>2020-09-05T11:39:08Z</time>
      </trkpt>
      <trkpt lat="45.04236" lon="5.99903">
        <ele>1236.6</ele>
        <time>2020-09-05T11:39:09Z</time>
      </trkpt>
      <trkpt lat="45.04226" lon="5.99884">
        <ele>1235.2</ele>
        <time>2020-09-05T11:39:11Z</time>
      </trkpt>
      <trkpt lat="45.04219" lon="5.99876">
        <ele>1234.6</ele>
        <time>2020-09-05T11:39:12Z</time>
      </trkpt>
      <trkpt lat="45.04213" lon="5.99866">
        <ele>1233.8</ele>
        <time>2020-09-05T11:39:13Z</time>
      </trkpt>
      <trkpt lat="45.04207" lon="5.99856">
        <ele>1233.6</ele>
        <time>2020-09-05T11:39:14Z</time>
      </trkpt>
      <trkpt lat="45.04202" lon="5.99844">
        <ele>1233.2</ele>
        <time>2020-09-05T11:39:15Z</time>
      </trkpt>
      <trkpt lat="45.04198" lon="5.99831">
        <ele>1232.2</ele>
        <time>2020-09-05T11:39:16Z</time>
      </trkpt>
      <trkpt lat="45.04195" lon="5.99818">
        <ele>1231.6</ele>
        <time>2020-09-05T11:39:17Z</time>
      </trkpt>
      <trkpt lat="45.04193" lon="5.99805">
        <ele>1231</ele>
        <time>2020-09-05T11:39:18Z</time>
      </trkpt>
      <trkpt lat="45.04191" lon="5.99793">
        <ele>1230</ele>
        <time>2020-09-05T11:39:19Z</time>
      </trkpt>
      <trkpt lat="45.04196" lon="5.9977">
        <ele>1229.4</ele>
        <time>2020-09-05T11:39:21Z</time>
      </trkpt>
      <trkpt lat="45.04202" lon="5.99762">
        <ele>1228.8</ele>
        <time>2020-09-05T11:39:22Z</time>
      </trkpt>
      <trkpt lat="45.04211" lon="5.99755">
        <ele>1228.4</ele>
        <time>2020-09-05T11:39:23Z</time>
      </trkpt>
      <trkpt lat="45.0422" lon="5.99748">
        <ele>1228.8</ele>
        <time>2020-09-05T11:39:24Z</time>
      </trkpt>
      <trkpt lat="45.04229" lon="5.99742">
        <ele>1228.8</ele>
        <time>2020-09-05T11:39:25Z</time>
      </trkpt>
      <trkpt lat="45.04239" lon="5.99736">
        <ele>1228.6</ele>
        <time>2020-09-05T11:39:26Z</time>
      </trkpt>
      <trkpt lat="45.04248" lon="5.99731">
        <ele>1228</ele>
        <time>2020-09-05T11:39:27Z</time>
      </trkpt>
      <trkpt lat="45.04257" lon="5.99727">
        <ele>1227.2</ele>
        <time>2020-09-05T11:39:28Z</time>
      </trkpt>
      <trkpt lat="45.04267" lon="5.99723">
        <ele>1226.4</ele>
        <time>2020-09-05T11:39:29Z</time>
      </trkpt>
      <trkpt lat="45.04276" lon="5.9972">
        <ele>1225.8</ele>
        <time>2020-09-05T11:39:30Z</time>
      </trkpt>
      <trkpt lat="45.04286" lon="5.99718">
        <ele>1225.4</ele>
        <time>2020-09-05T11:39:31Z</time>
      </trkpt>
      <trkpt lat="45.04297" lon="5.99715">
        <ele>1224.8</ele>
        <time>2020-09-05T11:39:32Z</time>
      </trkpt>
      <trkpt lat="45.04307" lon="5.99711">
        <ele>1223.6</ele>
        <time>2020-09-05T11:39:33Z</time>
      </trkpt>
      <trkpt lat="45.04318" lon="5.99707">
        <ele>1223.4</ele>
        <time>2020-09-05T11:39:34Z</time>
      </trkpt>
      <trkpt lat="45.04329" lon="5.99702">
        <ele>1223</ele>
        <time>2020-09-05T11:39:35Z</time>
      </trkpt>
      <trkpt lat="45.0434" lon="5.99698">
        <ele>1222</ele>
        <time>2020-09-05T11:39:36Z</time>
      </trkpt>
      <trkpt lat="45.04352" lon="5.99695">
        <ele>1220.8</ele>
        <time>2020-09-05T11:39:37Z</time>
      </trkpt>
      <trkpt lat="45.04364" lon="5.99692">
        <ele>1220</ele>
        <time>2020-09-05T11:39:38Z</time>
      </trkpt>
      <trkpt lat="45.04377" lon="5.99688">
        <ele>1218.4</ele>
        <time>2020-09-05T11:39:39Z</time>
      </trkpt>
      <trkpt lat="45.0439" lon="5.99682">
        <ele>1217.2</ele>
        <time>2020-09-05T11:39:40Z</time>
      </trkpt>
      <trkpt lat="45.04403" lon="5.99675">
        <ele>1215.2</ele>
        <time>2020-09-05T11:39:41Z</time>
      </trkpt>
      <trkpt lat="45.04416" lon="5.99668">
        <ele>1214</ele>
        <time>2020-09-05T11:39:42Z</time>
      </trkpt>
      <trkpt lat="45.04429" lon="5.99662">
        <ele>1212.4</ele>
        <time>2020-09-05T11:39:43Z</time>
      </trkpt>
      <trkpt lat="45.04443" lon="5.99657">
        <ele>1211.2</ele>
        <time>2020-09-05T11:39:44Z</time>
      </trkpt>
      <trkpt lat="45.04456" lon="5.99652">
        <ele>1210</ele>
        <time>2020-09-05T11:39:45Z</time>
      </trkpt>
      <trkpt lat="45.04469" lon="5.99647">
        <ele>1208.8</ele>
        <time>2020-09-05T11:39:46Z</time>
      </trkpt>
      <trkpt lat="45.04481" lon="5.99643">
        <ele>1207.4</ele>
        <time>2020-09-05T11:39:47Z</time>
      </trkpt>
      <trkpt lat="45.04492" lon="5.99638">
        <ele>1205.2</ele>
        <time>2020-09-05T11:39:48Z</time>
      </trkpt>
      <trkpt lat="45.04503" lon="5.99634">
        <ele>1203.4</ele>
        <time>2020-09-05T11:39:49Z</time>
      </trkpt>
      <trkpt lat="45.04512" lon="5.99631">
        <ele>1201.8</ele>
        <time>2020-09-05T11:39:50Z</time>
      </trkpt>
      <trkpt lat="45.04521" lon="5.99632">
        <ele>1200.4</ele>
        <time>2020-09-05T11:39:51Z</time>
      </trkpt>
      <trkpt lat="45.0453" lon="5.99633">
        <ele>1199</ele>
        <time>2020-09-05T11:39:52Z</time>
      </trkpt>
      <trkpt lat="45.04537" lon="5.99633">
        <ele>1197.8</ele>
        <time>2020-09-05T11:39:53Z</time>
      </trkpt>
      <trkpt lat="45.04544" lon="5.99629">
        <ele>1196.8</ele>
        <time>2020-09-05T11:39:54Z</time>
      </trkpt>
      <trkpt lat="45.04549" lon="5.99623">
        <ele>1196</ele>
        <time>2020-09-05T11:39:55Z</time>
      </trkpt>
      <trkpt lat="45.04553" lon="5.99602">
        <ele>1195.2</ele>
        <time>2020-09-05T11:39:57Z</time>
      </trkpt>
      <trkpt lat="45.04553" lon="5.99591">
        <ele>1195.6</ele>
        <time>2020-09-05T11:39:58Z</time>
      </trkpt>
      <trkpt lat="45.04554" lon="5.99578">
        <ele>1195.2</ele>
        <time>2020-09-05T11:39:59Z</time>
      </trkpt>
      <trkpt lat="45.04556" lon="5.99564">
        <ele>1194.6</ele>
        <time>2020-09-05T11:40:00Z</time>
      </trkpt>
      <trkpt lat="45.04559" lon="5.9955">
        <ele>1194.2</ele>
        <time>2020-09-05T11:40:01Z</time>
      </trkpt>
      <trkpt lat="45.04563" lon="5.99536">
        <ele>1193.8</ele>
        <time>2020-09-05T11:40:02Z</time>
      </trkpt>
      <trkpt lat="45.04568" lon="5.99522">
        <ele>1193.2</ele>
        <time>2020-09-05T11:40:03Z</time>
      </trkpt>
      <trkpt lat="45.04574" lon="5.9951">
        <ele>1193.2</ele>
        <time>2020-09-05T11:40:04Z</time>
      </trkpt>
      <trkpt lat="45.04583" lon="5.99498">
        <ele>1192.4</ele>
        <time>2020-09-05T11:40:05Z</time>
      </trkpt>
      <trkpt lat="45.04592" lon="5.99487">
        <ele>1191</ele>
        <time>2020-09-05T11:40:06Z</time>
      </trkpt>
      <trkpt lat="45.04602" lon="5.99477">
        <ele>1189.8</ele>
        <time>2020-09-05T11:40:07Z</time>
      </trkpt>
      <trkpt lat="45.04612" lon="5.99467">
        <ele>1188.4</ele>
        <time>2020-09-05T11:40:08Z</time>
      </trkpt>
      <trkpt lat="45.04621" lon="5.99458">
        <ele>1186.8</ele>
        <time>2020-09-05T11:40:09Z</time>
      </trkpt>
      <trkpt lat="45.04629" lon="5.99448">
        <ele>1185.8</ele>
        <time>2020-09-05T11:40:10Z</time>
      </trkpt>
      <trkpt lat="45.04636" lon="5.99438">
        <ele>1184.6</ele>
        <time>2020-09-05T11:40:11Z</time>
      </trkpt>
      <trkpt lat="45.04643" lon="5.99428">
        <ele>1183.4</ele>
        <time>2020-09-05T11:40:12Z</time>
      </trkpt>
      <trkpt lat="45.04648" lon="5.99417">
        <ele>1182.2</ele>
        <time>2020-09-05T11:40:13Z</time>
      </trkpt>
      <trkpt lat="45.04653" lon="5.99405">
        <ele>1181</ele>
        <time>2020-09-05T11:40:14Z</time>
      </trkpt>
      <trkpt lat="45.04657" lon="5.99394">
        <ele>1179.6</ele>
        <time>2020-09-05T11:40:15Z</time>
      </trkpt>
      <trkpt lat="45.04661" lon="5.99383">
        <ele>1178.4</ele>
        <time>2020-09-05T11:40:16Z</time>
      </trkpt>
      <trkpt lat="45.04668" lon="5.99374">
        <ele>1177.8</ele>
        <time>2020-09-05T11:40:17Z</time>
      </trkpt>
      <trkpt lat="45.04676" lon="5.99365">
        <ele>1176.6</ele>
        <time>2020-09-05T11:40:18Z</time>
      </trkpt>
      <trkpt lat="45.04684" lon="5.99357">
        <ele>1175.8</ele>
        <time>2020-09-05T11:40:19Z</time>
      </trkpt>
      <trkpt lat="45.04693" lon="5.99348">
        <ele>1175.6</ele>
        <time>2020-09-05T11:40:20Z</time>
      </trkpt>
      <trkpt lat="45.04702" lon="5.9934">
        <ele>1174.8</ele>
        <time>2020-09-05T11:40:21Z</time>
      </trkpt>
      <trkpt lat="45.04709" lon="5.99332">
        <ele>1173.4</ele>
        <time>2020-09-05T11:40:22Z</time>
      </trkpt>
      <trkpt lat="45.04716" lon="5.99323">
        <ele>1172.4</ele>
        <time>2020-09-05T11:40:23Z</time>
      </trkpt>
      <trkpt lat="45.04722" lon="5.99312">
        <ele>1171.4</ele>
        <time>2020-09-05T11:40:24Z</time>
      </trkpt>
      <trkpt lat="45.04726" lon="5.993">
        <ele>1170.2</ele>
        <time>2020-09-05T11:40:25Z</time>
      </trkpt>
      <trkpt lat="45.04731" lon="5.99287">
        <ele>1169.2</ele>
        <time>2020-09-05T11:40:26Z</time>
      </trkpt>
      <trkpt lat="45.04735" lon="5.99274">
        <ele>1168.2</ele>
        <time>2020-09-05T11:40:27Z</time>
      </trkpt>
      <trkpt lat="45.0474" lon="5.99262">
        <ele>1166.6</ele>
        <time>2020-09-05T11:40:28Z</time>
      </trkpt>
      <trkpt lat="45.04746" lon="5.99252">
        <ele>1165</ele>
        <time>2020-09-05T11:40:29Z</time>
      </trkpt>
      <trkpt lat="45.04754" lon="5.99245">
        <ele>1163.8</ele>
        <time>2020-09-05T11:40:30Z</time>
      </trkpt>
      <trkpt lat="45.04764" lon="5.9924">
        <ele>1163</ele>
        <time>2020-09-05T11:40:31Z</time>
      </trkpt>
      <trkpt lat="45.04774" lon="5.99237">
        <ele>1162</ele>
        <time>2020-09-05T11:40:32Z</time>
      </trkpt>
      <trkpt lat="45.04785" lon="5.99235">
        <ele>1161.6</ele>
        <time>2020-09-05T11:40:33Z</time>
      </trkpt>
      <trkpt lat="45.04796" lon="5.99236">
        <ele>1160.6</ele>
        <time>2020-09-05T11:40:34Z</time>
      </trkpt>
      <trkpt lat="45.04808" lon="5.99238">
        <ele>1160.2</ele>
        <time>2020-09-05T11:40:35Z</time>
      </trkpt>
      <trkpt lat="45.0482" lon="5.99241">
        <ele>1159.8</ele>
        <time>2020-09-05T11:40:36Z</time>
      </trkpt>
      <trkpt lat="45.04833" lon="5.99245">
        <ele>1159</ele>
        <time>2020-09-05T11:40:37Z</time>
      </trkpt>
      <trkpt lat="45.04845" lon="5.9925">
        <ele>1158.4</ele>
        <time>2020-09-05T11:40:38Z</time>
      </trkpt>
      <trkpt lat="45.04857" lon="5.99255">
        <ele>1157.4</ele>
        <time>2020-09-05T11:40:39Z</time>
      </trkpt>
      <trkpt lat="45.04869" lon="5.9926">
        <ele>1155.8</ele>
        <time>2020-09-05T11:40:40Z</time>
      </trkpt>
      <trkpt lat="45.04881" lon="5.99263">
        <ele>1155.2</ele>
        <time>2020-09-05T11:40:41Z</time>
      </trkpt>
      <trkpt lat="45.04893" lon="5.99267">
        <ele>1154.2</ele>
        <time>2020-09-05T11:40:42Z</time>
      </trkpt>
      <trkpt lat="45.04904" lon="5.99272">
        <ele>1152.8</ele>
        <time>2020-09-05T11:40:43Z</time>
      </trkpt>
      <trkpt lat="45.04915" lon="5.99275">
        <ele>1151.6</ele>
        <time>2020-09-05T11:40:44Z</time>
      </trkpt>
      <trkpt lat="45.04926" lon="5.99278">
        <ele>1150.2</ele>
        <time>2020-09-05T11:40:45Z</time>
      </trkpt>
      <trkpt lat="45.04935" lon="5.99282">
        <ele>1148.8</ele>
        <time>2020-09-05T11:40:46Z</time>
      </trkpt>
      <trkpt lat="45.04954" lon="5.99288">
        <ele>1146.8</ele>
        <time>2020-09-05T11:40:48Z</time>
      </trkpt>
      <trkpt lat="45.04965" lon="5.99292">
        <ele>1145.8</ele>
        <time>2020-09-05T11:40:49Z</time>
      </trkpt>
      <trkpt lat="45.04976" lon="5.99297">
        <ele>1144.8</ele>
        <time>2020-09-05T11:40:50Z</time>
      </trkpt>
      <trkpt lat="45.04987" lon="5.99301">
        <ele>1143.4</ele>
        <time>2020-09-05T11:40:51Z</time>
      </trkpt>
      <trkpt lat="45.04998" lon="5.99304">
        <ele>1142.6</ele>
        <time>2020-09-05T11:40:52Z</time>
      </trkpt>
      <trkpt lat="45.0501" lon="5.99308">
        <ele>1141.6</ele>
        <time>2020-09-05T11:40:53Z</time>
      </trkpt>
      <trkpt lat="45.05021" lon="5.99315">
        <ele>1140.6</ele>
        <time>2020-09-05T11:40:54Z</time>
      </trkpt>
      <trkpt lat="45.05031" lon="5.99324">
        <ele>1139.4</ele>
        <time>2020-09-05T11:40:55Z</time>
      </trkpt>
      <trkpt lat="45.05041" lon="5.99333">
        <ele>1138</ele>
        <time>2020-09-05T11:40:56Z</time>
      </trkpt>
      <trkpt lat="45.0505" lon="5.99343">
        <ele>1136.6</ele>
        <time>2020-09-05T11:40:57Z</time>
      </trkpt>
      <trkpt lat="45.05058" lon="5.99351">
        <ele>1135.2</ele>
        <time>2020-09-05T11:40:58Z</time>
      </trkpt>
      <trkpt lat="45.0507" lon="5.99364">
        <ele>1132.2</ele>
        <time>2020-09-05T11:41:00Z</time>
      </trkpt>
      <trkpt lat="45.05075" lon="5.99363">
        <ele>1130.8</ele>
        <time>2020-09-05T11:41:01Z</time>
      </trkpt>
      <trkpt lat="45.05078" lon="5.99359">
        <ele>1130.2</ele>
        <time>2020-09-05T11:41:02Z</time>
      </trkpt>
      <trkpt lat="45.05078" lon="5.99353">
        <ele>1129.6</ele>
        <time>2020-09-05T11:41:03Z</time>
      </trkpt>
      <trkpt lat="45.05074" lon="5.99346">
        <ele>1129.2</ele>
        <time>2020-09-05T11:41:04Z</time>
      </trkpt>
      <trkpt lat="45.0507" lon="5.99341">
        <ele>1128.6</ele>
        <time>2020-09-05T11:41:05Z</time>
      </trkpt>
      <trkpt lat="45.05064" lon="5.99337">
        <ele>1128</ele>
        <time>2020-09-05T11:41:06Z</time>
      </trkpt>
      <trkpt lat="45.05052" lon="5.99328">
        <ele>1127.4</ele>
        <time>2020-09-05T11:41:08Z</time>
      </trkpt>
      <trkpt lat="45.05047" lon="5.99321">
        <ele>1127.2</ele>
        <time>2020-09-05T11:41:09Z</time>
      </trkpt>
      <trkpt lat="45.05042" lon="5.99313">
        <ele>1126.8</ele>
        <time>2020-09-05T11:41:10Z</time>
      </trkpt>
      <trkpt lat="45.05037" lon="5.99303">
        <ele>1126.6</ele>
        <time>2020-09-05T11:41:11Z</time>
      </trkpt>
      <trkpt lat="45.05031" lon="5.99294">
        <ele>1126.6</ele>
        <time>2020-09-05T11:41:12Z</time>
      </trkpt>
      <trkpt lat="45.05024" lon="5.99286">
        <ele>1125.8</ele>
        <time>2020-09-05T11:41:13Z</time>
      </trkpt>
      <trkpt lat="45.05016" lon="5.9928">
        <ele>1125.6</ele>
        <time>2020-09-05T11:41:14Z</time>
      </trkpt>
      <trkpt lat="45.05008" lon="5.99274">
        <ele>1125</ele>
        <time>2020-09-05T11:41:15Z</time>
      </trkpt>
      <trkpt lat="45.04998" lon="5.99267">
        <ele>1125</ele>
        <time>2020-09-05T11:41:16Z</time>
      </trkpt>
      <trkpt lat="45.04988" lon="5.9926">
        <ele>1124.6</ele>
        <time>2020-09-05T11:41:17Z</time>
      </trkpt>
      <trkpt lat="45.04978" lon="5.99253">
        <ele>1124.4</ele>
        <time>2020-09-05T11:41:18Z</time>
      </trkpt>
      <trkpt lat="45.04967" lon="5.99246">
        <ele>1123.4</ele>
        <time>2020-09-05T11:41:19Z</time>
      </trkpt>
      <trkpt lat="45.04956" lon="5.99238">
        <ele>1123.2</ele>
        <time>2020-09-05T11:41:20Z</time>
      </trkpt>
      <trkpt lat="45.04945" lon="5.99232">
        <ele>1122</ele>
        <time>2020-09-05T11:41:21Z</time>
      </trkpt>
      <trkpt lat="45.04934" lon="5.99225">
        <ele>1121.2</ele>
        <time>2020-09-05T11:41:22Z</time>
      </trkpt>
      <trkpt lat="45.04922" lon="5.99218">
        <ele>1121</ele>
        <time>2020-09-05T11:41:23Z</time>
      </trkpt>
      <trkpt lat="45.04911" lon="5.99211">
        <ele>1120.2</ele>
        <time>2020-09-05T11:41:24Z</time>
      </trkpt>
      <trkpt lat="45.04899" lon="5.99203">
        <ele>1119</ele>
        <time>2020-09-05T11:41:25Z</time>
      </trkpt>
      <trkpt lat="45.04887" lon="5.99195">
        <ele>1117.8</ele>
        <time>2020-09-05T11:41:26Z</time>
      </trkpt>
      <trkpt lat="45.04876" lon="5.99186">
        <ele>1116.6</ele>
        <time>2020-09-05T11:41:27Z</time>
      </trkpt>
      <trkpt lat="45.04866" lon="5.99176">
        <ele>1115.4</ele>
        <time>2020-09-05T11:41:28Z</time>
      </trkpt>
      <trkpt lat="45.04857" lon="5.99165">
        <ele>1114.4</ele>
        <time>2020-09-05T11:41:29Z</time>
      </trkpt>
      <trkpt lat="45.04847" lon="5.99154">
        <ele>1113.6</ele>
        <time>2020-09-05T11:41:30Z</time>
      </trkpt>
      <trkpt lat="45.04838" lon="5.99142">
        <ele>1113</ele>
        <time>2020-09-05T11:41:31Z</time>
      </trkpt>
      <trkpt lat="45.04828" lon="5.99129">
        <ele>1111.8</ele>
        <time>2020-09-05T11:41:32Z</time>
      </trkpt>
      <trkpt lat="45.04819" lon="5.99116">
        <ele>1110.6</ele>
        <time>2020-09-05T11:41:33Z</time>
      </trkpt>
      <trkpt lat="45.0481" lon="5.99103">
        <ele>1109</ele>
        <time>2020-09-05T11:41:34Z</time>
      </trkpt>
      <trkpt lat="45.04802" lon="5.99091">
        <ele>1107.6</ele>
        <time>2020-09-05T11:41:35Z</time>
      </trkpt>
      <trkpt lat="45.04796" lon="5.99079">
        <ele>1106.2</ele>
        <time>2020-09-05T11:41:36Z</time>
      </trkpt>
      <trkpt lat="45.0479" lon="5.99068">
        <ele>1104.4</ele>
        <time>2020-09-05T11:41:37Z</time>
      </trkpt>
      <trkpt lat="45.04779" lon="5.99052">
        <ele>1101.2</ele>
        <time>2020-09-05T11:41:39Z</time>
      </trkpt>
      <trkpt lat="45.04774" lon="5.99051">
        <ele>1099.6</ele>
        <time>2020-09-05T11:41:40Z</time>
      </trkpt>
      <trkpt lat="45.04768" lon="5.99063">
        <ele>1097.2</ele>
        <time>2020-09-05T11:41:42Z</time>
      </trkpt>
      <trkpt lat="45.04766" lon="5.9907">
        <ele>1096.2</ele>
        <time>2020-09-05T11:41:43Z</time>
      </trkpt>
      <trkpt lat="45.04762" lon="5.99074">
        <ele>1095.4</ele>
        <time>2020-09-05T11:41:44Z</time>
      </trkpt>
      <trkpt lat="45.04758" lon="5.99072">
        <ele>1094.4</ele>
        <time>2020-09-05T11:41:45Z</time>
      </trkpt>
      <trkpt lat="45.04758" lon="5.99066">
        <ele>1093.8</ele>
        <time>2020-09-05T11:41:46Z</time>
      </trkpt>
      <trkpt lat="45.0476" lon="5.99058">
        <ele>1093.4</ele>
        <time>2020-09-05T11:41:47Z</time>
      </trkpt>
      <trkpt lat="45.04764" lon="5.99052">
        <ele>1092.8</ele>
        <time>2020-09-05T11:41:48Z</time>
      </trkpt>
      <trkpt lat="45.04769" lon="5.99047">
        <ele>1092.4</ele>
        <time>2020-09-05T11:41:49Z</time>
      </trkpt>
      <trkpt lat="45.04775" lon="5.99044">
        <ele>1092</ele>
        <time>2020-09-05T11:41:50Z</time>
      </trkpt>
      <trkpt lat="45.04782" lon="5.99045">
        <ele>1091.8</ele>
        <time>2020-09-05T11:41:51Z</time>
      </trkpt>
      <trkpt lat="45.04788" lon="5.99048">
        <ele>1091.4</ele>
        <time>2020-09-05T11:41:52Z</time>
      </trkpt>
      <trkpt lat="45.04794" lon="5.99054">
        <ele>1091.2</ele>
        <time>2020-09-05T11:41:53Z</time>
      </trkpt>
      <trkpt lat="45.048" lon="5.99061">
        <ele>1091</ele>
        <time>2020-09-05T11:41:54Z</time>
      </trkpt>
      <trkpt lat="45.04806" lon="5.99069">
        <ele>1090.8</ele>
        <time>2020-09-05T11:41:55Z</time>
      </trkpt>
      <trkpt lat="45.04821" lon="5.99084">
        <ele>1089.4</ele>
        <time>2020-09-05T11:41:57Z</time>
      </trkpt>
      <trkpt lat="45.04829" lon="5.99091">
        <ele>1089</ele>
        <time>2020-09-05T11:41:58Z</time>
      </trkpt>
      <trkpt lat="45.04838" lon="5.99098">
        <ele>1088.2</ele>
        <time>2020-09-05T11:41:59Z</time>
      </trkpt>
      <trkpt lat="45.04848" lon="5.99104">
        <ele>1087.4</ele>
        <time>2020-09-05T11:42:00Z</time>
      </trkpt>
      <trkpt lat="45.04857" lon="5.99111">
        <ele>1086.8</ele>
        <time>2020-09-05T11:42:01Z</time>
      </trkpt>
      <trkpt lat="45.04865" lon="5.99119">
        <ele>1086.4</ele>
        <time>2020-09-05T11:42:02Z</time>
      </trkpt>
      <trkpt lat="45.04873" lon="5.99128">
        <ele>1085.8</ele>
        <time>2020-09-05T11:42:03Z</time>
      </trkpt>
      <trkpt lat="45.04881" lon="5.99136">
        <ele>1085.2</ele>
        <time>2020-09-05T11:42:04Z</time>
      </trkpt>
      <trkpt lat="45.04891" lon="5.99141">
        <ele>1084.6</ele>
        <time>2020-09-05T11:42:05Z</time>
      </trkpt>
      <trkpt lat="45.04902" lon="5.99147">
        <ele>1084</ele>
        <time>2020-09-05T11:42:06Z</time>
      </trkpt>
      <trkpt lat="45.04912" lon="5.99154">
        <ele>1083.6</ele>
        <time>2020-09-05T11:42:07Z</time>
      </trkpt>
      <trkpt lat="45.04923" lon="5.99157">
        <ele>1082.4</ele>
        <time>2020-09-05T11:42:08Z</time>
      </trkpt>
      <trkpt lat="45.04935" lon="5.99159">
        <ele>1081.2</ele>
        <time>2020-09-05T11:42:09Z</time>
      </trkpt>
      <trkpt lat="45.04948" lon="5.99159">
        <ele>1079.6</ele>
        <time>2020-09-05T11:42:10Z</time>
      </trkpt>
      <trkpt lat="45.0496" lon="5.9916">
        <ele>1078.8</ele>
        <time>2020-09-05T11:42:11Z</time>
      </trkpt>
      <trkpt lat="45.0497" lon="5.99161">
        <ele>1077.8</ele>
        <time>2020-09-05T11:42:12Z</time>
      </trkpt>
      <trkpt lat="45.04981" lon="5.99162">
        <ele>1076.2</ele>
        <time>2020-09-05T11:42:13Z</time>
      </trkpt>
      <trkpt lat="45.0499" lon="5.99164">
        <ele>1074.8</ele>
        <time>2020-09-05T11:42:14Z</time>
      </trkpt>
      <trkpt lat="45.05004" lon="5.9917">
        <ele>1072</ele>
        <time>2020-09-05T11:42:16Z</time>
      </trkpt>
      <trkpt lat="45.05013" lon="5.99167">
        <ele>1069.8</ele>
        <time>2020-09-05T11:42:18Z</time>
      </trkpt>
      <trkpt lat="45.05008" lon="5.99156">
        <ele>1068.6</ele>
        <time>2020-09-05T11:42:20Z</time>
      </trkpt>
      <trkpt lat="45.05003" lon="5.99151">
        <ele>1067.8</ele>
        <time>2020-09-05T11:42:21Z</time>
      </trkpt>
      <trkpt lat="45.04995" lon="5.99147">
        <ele>1067.2</ele>
        <time>2020-09-05T11:42:22Z</time>
      </trkpt>
      <trkpt lat="45.04988" lon="5.99143">
        <ele>1066.6</ele>
        <time>2020-09-05T11:42:23Z</time>
      </trkpt>
      <trkpt lat="45.04979" lon="5.9914">
        <ele>1066.2</ele>
        <time>2020-09-05T11:42:24Z</time>
      </trkpt>
      <trkpt lat="45.0497" lon="5.99137">
        <ele>1065.8</ele>
        <time>2020-09-05T11:42:25Z</time>
      </trkpt>
      <trkpt lat="45.04961" lon="5.99134">
        <ele>1065.2</ele>
        <time>2020-09-05T11:42:26Z</time>
      </trkpt>
      <trkpt lat="45.04952" lon="5.99129">
        <ele>1065</ele>
        <time>2020-09-05T11:42:27Z</time>
      </trkpt>
      <trkpt lat="45.04942" lon="5.99123">
        <ele>1064.6</ele>
        <time>2020-09-05T11:42:28Z</time>
      </trkpt>
      <trkpt lat="45.04933" lon="5.99116">
        <ele>1064.4</ele>
        <time>2020-09-05T11:42:29Z</time>
      </trkpt>
      <trkpt lat="45.04923" lon="5.99109">
        <ele>1064.2</ele>
        <time>2020-09-05T11:42:30Z</time>
      </trkpt>
      <trkpt lat="45.04913" lon="5.99101">
        <ele>1063.2</ele>
        <time>2020-09-05T11:42:31Z</time>
      </trkpt>
      <trkpt lat="45.04904" lon="5.99091">
        <ele>1062.2</ele>
        <time>2020-09-05T11:42:32Z</time>
      </trkpt>
      <trkpt lat="45.04895" lon="5.9908">
        <ele>1061.2</ele>
        <time>2020-09-05T11:42:33Z</time>
      </trkpt>
      <trkpt lat="45.04885" lon="5.99068">
        <ele>1061</ele>
        <time>2020-09-05T11:42:34Z</time>
      </trkpt>
      <trkpt lat="45.04875" lon="5.99056">
        <ele>1060.8</ele>
        <time>2020-09-05T11:42:35Z</time>
      </trkpt>
      <trkpt lat="45.04866" lon="5.99043">
        <ele>1060.2</ele>
        <time>2020-09-05T11:42:36Z</time>
      </trkpt>
      <trkpt lat="45.04857" lon="5.99029">
        <ele>1059.4</ele>
        <time>2020-09-05T11:42:37Z</time>
      </trkpt>
      <trkpt lat="45.04848" lon="5.99014">
        <ele>1058.2</ele>
        <time>2020-09-05T11:42:38Z</time>
      </trkpt>
      <trkpt lat="45.04841" lon="5.99001">
        <ele>1056.8</ele>
        <time>2020-09-05T11:42:39Z</time>
      </trkpt>
      <trkpt lat="45.04835" lon="5.98988">
        <ele>1055.4</ele>
        <time>2020-09-05T11:42:40Z</time>
      </trkpt>
      <trkpt lat="45.04831" lon="5.98975">
        <ele>1053.8</ele>
        <time>2020-09-05T11:42:41Z</time>
      </trkpt>
      <trkpt lat="45.04826" lon="5.98962">
        <ele>1052.4</ele>
        <time>2020-09-05T11:42:42Z</time>
      </trkpt>
      <trkpt lat="45.04819" lon="5.98951">
        <ele>1051.4</ele>
        <time>2020-09-05T11:42:43Z</time>
      </trkpt>
      <trkpt lat="45.04811" lon="5.98939">
        <ele>1050</ele>
        <time>2020-09-05T11:42:44Z</time>
      </trkpt>
      <trkpt lat="45.04803" lon="5.98928">
        <ele>1049.2</ele>
        <time>2020-09-05T11:42:45Z</time>
      </trkpt>
      <trkpt lat="45.04793" lon="5.98917">
        <ele>1048.2</ele>
        <time>2020-09-05T11:42:46Z</time>
      </trkpt>
      <trkpt lat="45.04782" lon="5.98908">
        <ele>1046.6</ele>
        <time>2020-09-05T11:42:47Z</time>
      </trkpt>
      <trkpt lat="45.04773" lon="5.98898">
        <ele>1045.2</ele>
        <time>2020-09-05T11:42:48Z</time>
      </trkpt>
      <trkpt lat="45.04755" lon="5.98894">
        <ele>1042.8</ele>
        <time>2020-09-05T11:42:50Z</time>
      </trkpt>
      <trkpt lat="45.04745" lon="5.98898">
        <ele>1042</ele>
        <time>2020-09-05T11:42:51Z</time>
      </trkpt>
      <trkpt lat="45.04735" lon="5.98903">
        <ele>1041.6</ele>
        <time>2020-09-05T11:42:52Z</time>
      </trkpt>
      <trkpt lat="45.04725" lon="5.9891">
        <ele>1040.8</ele>
        <time>2020-09-05T11:42:53Z</time>
      </trkpt>
      <trkpt lat="45.04715" lon="5.98917">
        <ele>1039.8</ele>
        <time>2020-09-05T11:42:54Z</time>
      </trkpt>
      <trkpt lat="45.04705" lon="5.98925">
        <ele>1038.6</ele>
        <time>2020-09-05T11:42:55Z</time>
      </trkpt>
      <trkpt lat="45.04696" lon="5.98934">
        <ele>1036.8</ele>
        <time>2020-09-05T11:42:56Z</time>
      </trkpt>
      <trkpt lat="45.04689" lon="5.98944">
        <ele>1035.6</ele>
        <time>2020-09-05T11:42:57Z</time>
      </trkpt>
      <trkpt lat="45.04684" lon="5.98954">
        <ele>1034.6</ele>
        <time>2020-09-05T11:42:58Z</time>
      </trkpt>
      <trkpt lat="45.04681" lon="5.98965">
        <ele>1033.6</ele>
        <time>2020-09-05T11:42:59Z</time>
      </trkpt>
      <trkpt lat="45.04678" lon="5.98974">
        <ele>1032.4</ele>
        <time>2020-09-05T11:43:00Z</time>
      </trkpt>
      <trkpt lat="45.04674" lon="5.9898">
        <ele>1031.6</ele>
        <time>2020-09-05T11:43:01Z</time>
      </trkpt>
      <trkpt lat="45.04669" lon="5.98981">
        <ele>1031.2</ele>
        <time>2020-09-05T11:43:02Z</time>
      </trkpt>
      <trkpt lat="45.04668" lon="5.98974">
        <ele>1030.4</ele>
        <time>2020-09-05T11:43:03Z</time>
      </trkpt>
      <trkpt lat="45.04669" lon="5.98966">
        <ele>1030</ele>
        <time>2020-09-05T11:43:04Z</time>
      </trkpt>
      <trkpt lat="45.04673" lon="5.98957">
        <ele>1030</ele>
        <time>2020-09-05T11:43:05Z</time>
      </trkpt>
      <trkpt lat="45.04677" lon="5.98949">
        <ele>1029.6</ele>
        <time>2020-09-05T11:43:06Z</time>
      </trkpt>
      <trkpt lat="45.04681" lon="5.98939">
        <ele>1029</ele>
        <time>2020-09-05T11:43:07Z</time>
      </trkpt>
      <trkpt lat="45.04685" lon="5.9893">
        <ele>1028.6</ele>
        <time>2020-09-05T11:43:08Z</time>
      </trkpt>
      <trkpt lat="45.0469" lon="5.98921">
        <ele>1028.2</ele>
        <time>2020-09-05T11:43:09Z</time>
      </trkpt>
      <trkpt lat="45.04696" lon="5.98912">
        <ele>1028.4</ele>
        <time>2020-09-05T11:43:10Z</time>
      </trkpt>
      <trkpt lat="45.04702" lon="5.98902">
        <ele>1027.8</ele>
        <time>2020-09-05T11:43:11Z</time>
      </trkpt>
      <trkpt lat="45.04708" lon="5.98893">
        <ele>1027.4</ele>
        <time>2020-09-05T11:43:12Z</time>
      </trkpt>
      <trkpt lat="45.04715" lon="5.98884">
        <ele>1026.8</ele>
        <time>2020-09-05T11:43:13Z</time>
      </trkpt>
      <trkpt lat="45.04723" lon="5.98874">
        <ele>1026</ele>
        <time>2020-09-05T11:43:14Z</time>
      </trkpt>
      <trkpt lat="45.04731" lon="5.98865">
        <ele>1025.6</ele>
        <time>2020-09-05T11:43:15Z</time>
      </trkpt>
      <trkpt lat="45.04739" lon="5.98856">
        <ele>1024.8</ele>
        <time>2020-09-05T11:43:16Z</time>
      </trkpt>
      <trkpt lat="45.04748" lon="5.98849">
        <ele>1023.8</ele>
        <time>2020-09-05T11:43:17Z</time>
      </trkpt>
      <trkpt lat="45.04757" lon="5.98846">
        <ele>1023.2</ele>
        <time>2020-09-05T11:43:18Z</time>
      </trkpt>
      <trkpt lat="45.04766" lon="5.98847">
        <ele>1022.2</ele>
        <time>2020-09-05T11:43:19Z</time>
      </trkpt>
      <trkpt lat="45.04776" lon="5.9885">
        <ele>1021.6</ele>
        <time>2020-09-05T11:43:20Z</time>
      </trkpt>
      <trkpt lat="45.04786" lon="5.98854">
        <ele>1021</ele>
        <time>2020-09-05T11:43:21Z</time>
      </trkpt>
      <trkpt lat="45.04796" lon="5.98858">
        <ele>1020</ele>
        <time>2020-09-05T11:43:22Z</time>
      </trkpt>
      <trkpt lat="45.04806" lon="5.98864">
        <ele>1019.4</ele>
        <time>2020-09-05T11:43:23Z</time>
      </trkpt>
      <trkpt lat="45.04816" lon="5.9887">
        <ele>1018.4</ele>
        <time>2020-09-05T11:43:24Z</time>
      </trkpt>
      <trkpt lat="45.04826" lon="5.98876">
        <ele>1017.2</ele>
        <time>2020-09-05T11:43:25Z</time>
      </trkpt>
      <trkpt lat="45.04835" lon="5.98884">
        <ele>1016.2</ele>
        <time>2020-09-05T11:43:26Z</time>
      </trkpt>
      <trkpt lat="45.04843" lon="5.98892">
        <ele>1014.6</ele>
        <time>2020-09-05T11:43:27Z</time>
      </trkpt>
      <trkpt lat="45.04853" lon="5.98905">
        <ele>1011.6</ele>
        <time>2020-09-05T11:43:29Z</time>
      </trkpt>
      <trkpt lat="45.04857" lon="5.98891">
        <ele>1009.4</ele>
        <time>2020-09-05T11:43:32Z</time>
      </trkpt>
      <trkpt lat="45.04848" lon="5.9888">
        <ele>1008.6</ele>
        <time>2020-09-05T11:43:34Z</time>
      </trkpt>
      <trkpt lat="45.04837" lon="5.98869">
        <ele>1007.6</ele>
        <time>2020-09-05T11:43:36Z</time>
      </trkpt>
      <trkpt lat="45.04831" lon="5.98862">
        <ele>1007.2</ele>
        <time>2020-09-05T11:43:37Z</time>
      </trkpt>
      <trkpt lat="45.04823" lon="5.98855">
        <ele>1007</ele>
        <time>2020-09-05T11:43:38Z</time>
      </trkpt>
      <trkpt lat="45.04815" lon="5.98848">
        <ele>1006.8</ele>
        <time>2020-09-05T11:43:39Z</time>
      </trkpt>
      <trkpt lat="45.04807" lon="5.9884">
        <ele>1006.6</ele>
        <time>2020-09-05T11:43:40Z</time>
      </trkpt>
      <trkpt lat="45.04799" lon="5.98832">
        <ele>1006.2</ele>
        <time>2020-09-05T11:43:41Z</time>
      </trkpt>
      <trkpt lat="45.0479" lon="5.98823">
        <ele>1005.2</ele>
        <time>2020-09-05T11:43:42Z</time>
      </trkpt>
      <trkpt lat="45.0478" lon="5.98815">
        <ele>1004.6</ele>
        <time>2020-09-05T11:43:43Z</time>
      </trkpt>
      <trkpt lat="45.0477" lon="5.98807">
        <ele>1004</ele>
        <time>2020-09-05T11:43:44Z</time>
      </trkpt>
      <trkpt lat="45.04759" lon="5.98802">
        <ele>1003</ele>
        <time>2020-09-05T11:43:45Z</time>
      </trkpt>
      <trkpt lat="45.04748" lon="5.98801">
        <ele>1002</ele>
        <time>2020-09-05T11:43:46Z</time>
      </trkpt>
      <trkpt lat="45.04737" lon="5.98802">
        <ele>1001</ele>
        <time>2020-09-05T11:43:47Z</time>
      </trkpt>
      <trkpt lat="45.04725" lon="5.98806">
        <ele>1000.2</ele>
        <time>2020-09-05T11:43:48Z</time>
      </trkpt>
      <trkpt lat="45.04714" lon="5.98812">
        <ele>999.6</ele>
        <time>2020-09-05T11:43:49Z</time>
      </trkpt>
      <trkpt lat="45.04703" lon="5.98819">
        <ele>998.6</ele>
        <time>2020-09-05T11:43:50Z</time>
      </trkpt>
      <trkpt lat="45.04693" lon="5.98826">
        <ele>997.8</ele>
        <time>2020-09-05T11:43:51Z</time>
      </trkpt>
      <trkpt lat="45.04681" lon="5.98833">
        <ele>997</ele>
        <time>2020-09-05T11:43:52Z</time>
      </trkpt>
      <trkpt lat="45.0467" lon="5.98839">
        <ele>995.8</ele>
        <time>2020-09-05T11:43:53Z</time>
      </trkpt>
      <trkpt lat="45.04659" lon="5.98845">
        <ele>994.8</ele>
        <time>2020-09-05T11:43:54Z</time>
      </trkpt>
      <trkpt lat="45.04651" lon="5.98853">
        <ele>993.2</ele>
        <time>2020-09-05T11:43:55Z</time>
      </trkpt>
      <trkpt lat="45.04644" lon="5.98861">
        <ele>992.2</ele>
        <time>2020-09-05T11:43:56Z</time>
      </trkpt>
      <trkpt lat="45.04638" lon="5.9887">
        <ele>990.8</ele>
        <time>2020-09-05T11:43:57Z</time>
      </trkpt>
      <trkpt lat="45.04635" lon="5.9888">
        <ele>989.8</ele>
        <time>2020-09-05T11:43:58Z</time>
      </trkpt>
      <trkpt lat="45.04632" lon="5.98887">
        <ele>988.4</ele>
        <time>2020-09-05T11:43:59Z</time>
      </trkpt>
      <trkpt lat="45.04627" lon="5.98891">
        <ele>987.6</ele>
        <time>2020-09-05T11:44:00Z</time>
      </trkpt>
      <trkpt lat="45.04624" lon="5.98873">
        <ele>986</ele>
        <time>2020-09-05T11:44:03Z</time>
      </trkpt>
      <trkpt lat="45.04631" lon="5.98857">
        <ele>985.2</ele>
        <time>2020-09-05T11:44:05Z</time>
      </trkpt>
      <trkpt lat="45.04636" lon="5.98847">
        <ele>984.8</ele>
        <time>2020-09-05T11:44:06Z</time>
      </trkpt>
      <trkpt lat="45.04641" lon="5.98839">
        <ele>984</ele>
        <time>2020-09-05T11:44:07Z</time>
      </trkpt>
      <trkpt lat="45.04647" lon="5.98829">
        <ele>982.8</ele>
        <time>2020-09-05T11:44:08Z</time>
      </trkpt>
      <trkpt lat="45.04654" lon="5.98819">
        <ele>982.4</ele>
        <time>2020-09-05T11:44:09Z</time>
      </trkpt>
      <trkpt lat="45.04662" lon="5.9881">
        <ele>981.6</ele>
        <time>2020-09-05T11:44:10Z</time>
      </trkpt>
      <trkpt lat="45.04669" lon="5.988">
        <ele>981</ele>
        <time>2020-09-05T11:44:11Z</time>
      </trkpt>
      <trkpt lat="45.04674" lon="5.98791">
        <ele>980.2</ele>
        <time>2020-09-05T11:44:12Z</time>
      </trkpt>
      <trkpt lat="45.04679" lon="5.98781">
        <ele>979.4</ele>
        <time>2020-09-05T11:44:13Z</time>
      </trkpt>
      <trkpt lat="45.04687" lon="5.98759">
        <ele>978</ele>
        <time>2020-09-05T11:44:15Z</time>
      </trkpt>
      <trkpt lat="45.04694" lon="5.98749">
        <ele>977.4</ele>
        <time>2020-09-05T11:44:16Z</time>
      </trkpt>
      <trkpt lat="45.04702" lon="5.9874">
        <ele>976.8</ele>
        <time>2020-09-05T11:44:17Z</time>
      </trkpt>
      <trkpt lat="45.0471" lon="5.98731">
        <ele>976</ele>
        <time>2020-09-05T11:44:18Z</time>
      </trkpt>
      <trkpt lat="45.04718" lon="5.9872">
        <ele>975.2</ele>
        <time>2020-09-05T11:44:19Z</time>
      </trkpt>
      <trkpt lat="45.04726" lon="5.9871">
        <ele>974.2</ele>
        <time>2020-09-05T11:44:20Z</time>
      </trkpt>
      <trkpt lat="45.0474" lon="5.98696">
        <ele>971.6</ele>
        <time>2020-09-05T11:44:22Z</time>
      </trkpt>
      <trkpt lat="45.04754" lon="5.98687">
        <ele>969.6</ele>
        <time>2020-09-05T11:44:24Z</time>
      </trkpt>
      <trkpt lat="45.04763" lon="5.98686">
        <ele>969.2</ele>
        <time>2020-09-05T11:44:25Z</time>
      </trkpt>
      <trkpt lat="45.0478" lon="5.98688">
        <ele>968.6</ele>
        <time>2020-09-05T11:44:27Z</time>
      </trkpt>
      <trkpt lat="45.0479" lon="5.98691">
        <ele>968</ele>
        <time>2020-09-05T11:44:28Z</time>
      </trkpt>
      <trkpt lat="45.04798" lon="5.98695">
        <ele>967</ele>
        <time>2020-09-05T11:44:29Z</time>
      </trkpt>
      <trkpt lat="45.04809" lon="5.98702">
        <ele>965.8</ele>
        <time>2020-09-05T11:44:30Z</time>
      </trkpt>
      <trkpt lat="45.04818" lon="5.98706">
        <ele>965.2</ele>
        <time>2020-09-05T11:44:31Z</time>
      </trkpt>
      <trkpt lat="45.04834" lon="5.98709">
        <ele>963.4</ele>
        <time>2020-09-05T11:44:33Z</time>
      </trkpt>
      <trkpt lat="45.0485" lon="5.98713">
        <ele>962.4</ele>
        <time>2020-09-05T11:44:35Z</time>
      </trkpt>
      <trkpt lat="45.04864" lon="5.98725">
        <ele>961.4</ele>
        <time>2020-09-05T11:44:37Z</time>
      </trkpt>
      <trkpt lat="45.04872" lon="5.98746">
        <ele>960</ele>
        <time>2020-09-05T11:44:39Z</time>
      </trkpt>
      <trkpt lat="45.04874" lon="5.98758">
        <ele>959.6</ele>
        <time>2020-09-05T11:44:40Z</time>
      </trkpt>
      <trkpt lat="45.04881" lon="5.98779">
        <ele>957.8</ele>
        <time>2020-09-05T11:44:42Z</time>
      </trkpt>
      <trkpt lat="45.04886" lon="5.98787">
        <ele>957</ele>
        <time>2020-09-05T11:44:43Z</time>
      </trkpt>
      <trkpt lat="45.04891" lon="5.98794">
        <ele>956.2</ele>
        <time>2020-09-05T11:44:44Z</time>
      </trkpt>
      <trkpt lat="45.04903" lon="5.98809">
        <ele>955</ele>
        <time>2020-09-05T11:44:46Z</time>
      </trkpt>
      <trkpt lat="45.04915" lon="5.98822">
        <ele>953.4</ele>
        <time>2020-09-05T11:44:48Z</time>
      </trkpt>
      <trkpt lat="45.04924" lon="5.98832">
        <ele>951.8</ele>
        <time>2020-09-05T11:44:50Z</time>
      </trkpt>
      <trkpt lat="45.0493" lon="5.98822">
        <ele>949.6</ele>
        <time>2020-09-05T11:44:53Z</time>
      </trkpt>
      <trkpt lat="45.04926" lon="5.98804">
        <ele>948.2</ele>
        <time>2020-09-05T11:44:56Z</time>
      </trkpt>
      <trkpt lat="45.04916" lon="5.98788">
        <ele>947.6</ele>
        <time>2020-09-05T11:44:58Z</time>
      </trkpt>
      <trkpt lat="45.0491" lon="5.98775">
        <ele>947</ele>
        <time>2020-09-05T11:44:59Z</time>
      </trkpt>
      <trkpt lat="45.04904" lon="5.98761">
        <ele>946.4</ele>
        <time>2020-09-05T11:45:00Z</time>
      </trkpt>
      <trkpt lat="45.04898" lon="5.98747">
        <ele>946.2</ele>
        <time>2020-09-05T11:45:01Z</time>
      </trkpt>
      <trkpt lat="45.04894" lon="5.98732">
        <ele>945.8</ele>
        <time>2020-09-05T11:45:02Z</time>
      </trkpt>
      <trkpt lat="45.04891" lon="5.98718">
        <ele>945.2</ele>
        <time>2020-09-05T11:45:03Z</time>
      </trkpt>
      <trkpt lat="45.04886" lon="5.98706">
        <ele>944</ele>
        <time>2020-09-05T11:45:04Z</time>
      </trkpt>
      <trkpt lat="45.04881" lon="5.98695">
        <ele>943.2</ele>
        <time>2020-09-05T11:45:05Z</time>
      </trkpt>
      <trkpt lat="45.04869" lon="5.98676">
        <ele>942.2</ele>
        <time>2020-09-05T11:45:07Z</time>
      </trkpt>
      <trkpt lat="45.04863" lon="5.98669">
        <ele>941.4</ele>
        <time>2020-09-05T11:45:08Z</time>
      </trkpt>
      <trkpt lat="45.04856" lon="5.98664">
        <ele>940.8</ele>
        <time>2020-09-05T11:45:09Z</time>
      </trkpt>
      <trkpt lat="45.0485" lon="5.98658">
        <ele>940.2</ele>
        <time>2020-09-05T11:45:10Z</time>
      </trkpt>
      <trkpt lat="45.04845" lon="5.98651">
        <ele>939</ele>
        <time>2020-09-05T11:45:11Z</time>
      </trkpt>
      <trkpt lat="45.04843" lon="5.98641">
        <ele>938.8</ele>
        <time>2020-09-05T11:45:12Z</time>
      </trkpt>
      <trkpt lat="45.04839" lon="5.98623">
        <ele>938.8</ele>
        <time>2020-09-05T11:45:14Z</time>
      </trkpt>
      <trkpt lat="45.04837" lon="5.98606">
        <ele>938.6</ele>
        <time>2020-09-05T11:45:16Z</time>
      </trkpt>
      <trkpt lat="45.04837" lon="5.98597">
        <ele>938.4</ele>
        <time>2020-09-05T11:45:17Z</time>
      </trkpt>
      <trkpt lat="45.04838" lon="5.9859">
        <ele>938</ele>
        <time>2020-09-05T11:45:18Z</time>
      </trkpt>
      <trkpt lat="45.04842" lon="5.98584">
        <ele>937.8</ele>
        <time>2020-09-05T11:45:19Z</time>
      </trkpt>
      <trkpt lat="45.04846" lon="5.98581">
        <ele>937.6</ele>
        <time>2020-09-05T11:45:20Z</time>
      </trkpt>
      <trkpt lat="45.04852" lon="5.98582">
        <ele>937.8</ele>
        <time>2020-09-05T11:45:21Z</time>
      </trkpt>
      <trkpt lat="45.04857" lon="5.98583">
        <ele>937.8</ele>
        <time>2020-09-05T11:45:22Z</time>
      </trkpt>
      <trkpt lat="45.04861" lon="5.98583">
        <ele>938</ele>
        <time>2020-09-05T11:45:23Z</time>
      </trkpt>
      <trkpt lat="45.04865" lon="5.98583">
        <ele>938.2</ele>
        <time>2020-09-05T11:45:24Z</time>
      </trkpt>
      <trkpt lat="45.0487" lon="5.98583">
        <ele>938.4</ele>
        <time>2020-09-05T11:45:25Z</time>
      </trkpt>
      <trkpt lat="45.04873" lon="5.98584">
        <ele>938.6</ele>
        <time>2020-09-05T11:45:26Z</time>
      </trkpt>
      <trkpt lat="45.04877" lon="5.98585">
        <ele>938.6</ele>
        <time>2020-09-05T11:45:27Z</time>
      </trkpt>
      <trkpt lat="45.04881" lon="5.98585">
        <ele>939</ele>
        <time>2020-09-05T11:45:28Z</time>
      </trkpt>
      <trkpt lat="45.04891" lon="5.98588">
        <ele>939.6</ele>
        <time>2020-09-05T11:45:31Z</time>
      </trkpt>
      <trkpt lat="45.04903" lon="5.98592">
        <ele>940.4</ele>
        <time>2020-09-05T11:45:35Z</time>
      </trkpt>
      <trkpt lat="45.04912" lon="5.98597">
        <ele>941</ele>
        <time>2020-09-05T11:45:38Z</time>
      </trkpt>
      <trkpt lat="45.0492" lon="5.98604">
        <ele>941.4</ele>
        <time>2020-09-05T11:45:41Z</time>
      </trkpt>
      <trkpt lat="45.04927" lon="5.98616">
        <ele>942.4</ele>
        <time>2020-09-05T11:45:45Z</time>
      </trkpt>
      <trkpt lat="45.04935" lon="5.98624">
        <ele>943</ele>
        <time>2020-09-05T11:45:49Z</time>
      </trkpt>
      <trkpt lat="45.04945" lon="5.98628">
        <ele>943.2</ele>
        <time>2020-09-05T11:45:53Z</time>
      </trkpt>
      <trkpt lat="45.04955" lon="5.98632">
        <ele>944</ele>
        <time>2020-09-05T11:45:57Z</time>
      </trkpt>
      <trkpt lat="45.04965" lon="5.98639">
        <ele>945</ele>
        <time>2020-09-05T11:46:01Z</time>
      </trkpt>
      <trkpt lat="45.04973" lon="5.98649">
        <ele>945.6</ele>
        <time>2020-09-05T11:46:05Z</time>
      </trkpt>
      <trkpt lat="45.04982" lon="5.98655">
        <ele>946.4</ele>
        <time>2020-09-05T11:46:08Z</time>
      </trkpt>
      <trkpt lat="45.04989" lon="5.98661">
        <ele>946.8</ele>
        <time>2020-09-05T11:46:11Z</time>
      </trkpt>
      <trkpt lat="45.04998" lon="5.98672">
        <ele>947.8</ele>
        <time>2020-09-05T11:46:15Z</time>
      </trkpt>
      <trkpt lat="45.04999" lon="5.98675">
        <ele>948.2</ele>
        <time>2020-09-05T11:46:16Z</time>
      </trkpt>
      <trkpt lat="45.05002" lon="5.98683">
        <ele>948.4</ele>
        <time>2020-09-05T11:46:18Z</time>
      </trkpt>
      <trkpt lat="45.05003" lon="5.98686">
        <ele>949</ele>
        <time>2020-09-05T11:46:19Z</time>
      </trkpt>
      <trkpt lat="45.05004" lon="5.9869">
        <ele>949.2</ele>
        <time>2020-09-05T11:46:20Z</time>
      </trkpt>
      <trkpt lat="45.05005" lon="5.98694">
        <ele>949.2</ele>
        <time>2020-09-05T11:46:21Z</time>
      </trkpt>
      <trkpt lat="45.05007" lon="5.98697">
        <ele>949.6</ele>
        <time>2020-09-05T11:46:22Z</time>
      </trkpt>
      <trkpt lat="45.05008" lon="5.98702">
        <ele>949.8</ele>
        <time>2020-09-05T11:46:23Z</time>
      </trkpt>
      <trkpt lat="45.05008" lon="5.98706">
        <ele>949.8</ele>
        <time>2020-09-05T11:46:24Z</time>
      </trkpt>
      <trkpt lat="45.05009" lon="5.98719">
        <ele>950.2</ele>
        <time>2020-09-05T11:46:27Z</time>
      </trkpt>
      <trkpt lat="45.0501" lon="5.98722">
        <ele>950.6</ele>
        <time>2020-09-05T11:46:28Z</time>
      </trkpt>
      <trkpt lat="45.05016" lon="5.98735">
        <ele>951.2</ele>
        <time>2020-09-05T11:46:32Z</time>
      </trkpt>
      <trkpt lat="45.05022" lon="5.9875">
        <ele>952.2</ele>
        <time>2020-09-05T11:46:36Z</time>
      </trkpt>
      <trkpt lat="45.05026" lon="5.98762">
        <ele>952.4</ele>
        <time>2020-09-05T11:46:39Z</time>
      </trkpt>
      <trkpt lat="45.05035" lon="5.9877">
        <ele>953.2</ele>
        <time>2020-09-05T11:46:43Z</time>
      </trkpt>
      <trkpt lat="45.05047" lon="5.98768">
        <ele>954.2</ele>
        <time>2020-09-05T11:46:48Z</time>
      </trkpt>
      <trkpt lat="45.05056" lon="5.98765">
        <ele>954.8</ele>
        <time>2020-09-05T11:46:51Z</time>
      </trkpt>
      <trkpt lat="45.05067" lon="5.98762">
        <ele>955.2</ele>
        <time>2020-09-05T11:46:54Z</time>
      </trkpt>
      <trkpt lat="45.05077" lon="5.98759">
        <ele>956</ele>
        <time>2020-09-05T11:46:57Z</time>
      </trkpt>
      <trkpt lat="45.05086" lon="5.9875">
        <ele>956.8</ele>
        <time>2020-09-05T11:47:00Z</time>
      </trkpt>
      <trkpt lat="45.05094" lon="5.98742">
        <ele>957.4</ele>
        <time>2020-09-05T11:47:03Z</time>
      </trkpt>
      <trkpt lat="45.051" lon="5.98739">
        <ele>957.8</ele>
        <time>2020-09-05T11:47:05Z</time>
      </trkpt>
      <trkpt lat="45.05103" lon="5.98738">
        <ele>958.2</ele>
        <time>2020-09-05T11:47:06Z</time>
      </trkpt>
      <trkpt lat="45.05106" lon="5.98737">
        <ele>958.4</ele>
        <time>2020-09-05T11:47:07Z</time>
      </trkpt>
      <trkpt lat="45.05109" lon="5.98737">
        <ele>958.4</ele>
        <time>2020-09-05T11:47:08Z</time>
      </trkpt>
      <trkpt lat="45.05112" lon="5.98738">
        <ele>958.6</ele>
        <time>2020-09-05T11:47:09Z</time>
      </trkpt>
      <trkpt lat="45.05115" lon="5.98738">
        <ele>959</ele>
        <time>2020-09-05T11:47:10Z</time>
      </trkpt>
      <trkpt lat="45.05118" lon="5.9874">
        <ele>959</ele>
        <time>2020-09-05T11:47:11Z</time>
      </trkpt>
      <trkpt lat="45.05126" lon="5.98747">
        <ele>959.4</ele>
        <time>2020-09-05T11:47:14Z</time>
      </trkpt>
      <trkpt lat="45.05127" lon="5.9875">
        <ele>959.6</ele>
        <time>2020-09-05T11:47:15Z</time>
      </trkpt>
      <trkpt lat="45.05128" lon="5.98753">
        <ele>960</ele>
        <time>2020-09-05T11:47:16Z</time>
      </trkpt>
      <trkpt lat="45.0513" lon="5.98757">
        <ele>960</ele>
        <time>2020-09-05T11:47:17Z</time>
      </trkpt>
      <trkpt lat="45.05131" lon="5.9876">
        <ele>960.2</ele>
        <time>2020-09-05T11:47:18Z</time>
      </trkpt>
      <trkpt lat="45.05131" lon="5.98763">
        <ele>960.6</ele>
        <time>2020-09-05T11:47:19Z</time>
      </trkpt>
      <trkpt lat="45.05132" lon="5.98766">
        <ele>960.6</ele>
        <time>2020-09-05T11:47:20Z</time>
      </trkpt>
      <trkpt lat="45.05132" lon="5.9877">
        <ele>960.8</ele>
        <time>2020-09-05T11:47:21Z</time>
      </trkpt>
      <trkpt lat="45.05133" lon="5.98773">
        <ele>961</ele>
        <time>2020-09-05T11:47:22Z</time>
      </trkpt>
      <trkpt lat="45.05133" lon="5.98776">
        <ele>961.4</ele>
        <time>2020-09-05T11:47:23Z</time>
      </trkpt>
      <trkpt lat="45.05134" lon="5.98779">
        <ele>961.2</ele>
        <time>2020-09-05T11:47:24Z</time>
      </trkpt>
      <trkpt lat="45.05135" lon="5.98782">
        <ele>961</ele>
        <time>2020-09-05T11:47:25Z</time>
      </trkpt>
      <trkpt lat="45.05136" lon="5.98785">
        <ele>961.2</ele>
        <time>2020-09-05T11:47:26Z</time>
      </trkpt>
      <trkpt lat="45.05137" lon="5.98788">
        <ele>961.2</ele>
        <time>2020-09-05T11:47:27Z</time>
      </trkpt>
      <trkpt lat="45.05139" lon="5.9879">
        <ele>961.2</ele>
        <time>2020-09-05T11:47:28Z</time>
      </trkpt>
      <trkpt lat="45.0514" lon="5.98792">
        <ele>961.4</ele>
        <time>2020-09-05T11:47:43Z</time>
      </trkpt>
      <trkpt lat="45.05141" lon="5.98795">
        <ele>961.4</ele>
        <time>2020-09-05T11:47:45Z</time>
      </trkpt>
      <trkpt lat="45.05142" lon="5.98798">
        <ele>961.4</ele>
        <time>2020-09-05T11:47:46Z</time>
      </trkpt>
      <trkpt lat="45.05142" lon="5.98802">
        <ele>961.4</ele>
        <time>2020-09-05T11:47:47Z</time>
      </trkpt>
      <trkpt lat="45.05142" lon="5.98805">
        <ele>961.4</ele>
        <time>2020-09-05T11:47:48Z</time>
      </trkpt>
      <trkpt lat="45.05142" lon="5.9881">
        <ele>961.4</ele>
        <time>2020-09-05T11:47:49Z</time>
      </trkpt>
      <trkpt lat="45.05142" lon="5.98816">
        <ele>961.2</ele>
        <time>2020-09-05T11:47:50Z</time>
      </trkpt>
      <trkpt lat="45.05143" lon="5.98822">
        <ele>961</ele>
        <time>2020-09-05T11:47:51Z</time>
      </trkpt>
      <trkpt lat="45.05144" lon="5.98828">
        <ele>960.6</ele>
        <time>2020-09-05T11:47:52Z</time>
      </trkpt>
      <trkpt lat="45.05145" lon="5.98834">
        <ele>960.6</ele>
        <time>2020-09-05T11:47:53Z</time>
      </trkpt>
      <trkpt lat="45.05147" lon="5.98841">
        <ele>960.6</ele>
        <time>2020-09-05T11:47:54Z</time>
      </trkpt>
      <trkpt lat="45.05149" lon="5.98848">
        <ele>960.2</ele>
        <time>2020-09-05T11:47:55Z</time>
      </trkpt>
      <trkpt lat="45.05154" lon="5.98863">
        <ele>959.8</ele>
        <time>2020-09-05T11:47:57Z</time>
      </trkpt>
      <trkpt lat="45.05156" lon="5.98871">
        <ele>959.4</ele>
        <time>2020-09-05T11:47:58Z</time>
      </trkpt>
      <trkpt lat="45.05159" lon="5.98879">
        <ele>959.2</ele>
        <time>2020-09-05T11:47:59Z</time>
      </trkpt>
      <trkpt lat="45.05164" lon="5.98897">
        <ele>958.2</ele>
        <time>2020-09-05T11:48:01Z</time>
      </trkpt>
      <trkpt lat="45.05172" lon="5.98914">
        <ele>957.6</ele>
        <time>2020-09-05T11:48:03Z</time>
      </trkpt>
      <trkpt lat="45.05182" lon="5.98929">
        <ele>957.2</ele>
        <time>2020-09-05T11:48:05Z</time>
      </trkpt>
      <trkpt lat="45.05196" lon="5.98943">
        <ele>956.8</ele>
        <time>2020-09-05T11:48:07Z</time>
      </trkpt>
      <trkpt lat="45.05209" lon="5.98957">
        <ele>955.8</ele>
        <time>2020-09-05T11:48:09Z</time>
      </trkpt>
      <trkpt lat="45.05222" lon="5.98973">
        <ele>954.6</ele>
        <time>2020-09-05T11:48:11Z</time>
      </trkpt>
      <trkpt lat="45.05237" lon="5.98988">
        <ele>954</ele>
        <time>2020-09-05T11:48:13Z</time>
      </trkpt>
      <trkpt lat="45.05246" lon="5.98992">
        <ele>953.4</ele>
        <time>2020-09-05T11:48:14Z</time>
      </trkpt>
      <trkpt lat="45.05255" lon="5.98995">
        <ele>952.6</ele>
        <time>2020-09-05T11:48:15Z</time>
      </trkpt>
      <trkpt lat="45.05265" lon="5.98994">
        <ele>952.2</ele>
        <time>2020-09-05T11:48:16Z</time>
      </trkpt>
      <trkpt lat="45.05275" lon="5.98993">
        <ele>951.8</ele>
        <time>2020-09-05T11:48:17Z</time>
      </trkpt>
      <trkpt lat="45.05285" lon="5.9899">
        <ele>951.8</ele>
        <time>2020-09-05T11:48:18Z</time>
      </trkpt>
      <trkpt lat="45.05296" lon="5.98987">
        <ele>952</ele>
        <time>2020-09-05T11:48:19Z</time>
      </trkpt>
      <trkpt lat="45.05307" lon="5.98985">
        <ele>952</ele>
        <time>2020-09-05T11:48:20Z</time>
      </trkpt>
      <trkpt lat="45.05318" lon="5.98984">
        <ele>951.4</ele>
        <time>2020-09-05T11:48:21Z</time>
      </trkpt>
      <trkpt lat="45.05329" lon="5.98986">
        <ele>951</ele>
        <time>2020-09-05T11:48:22Z</time>
      </trkpt>
      <trkpt lat="45.0534" lon="5.98988">
        <ele>950.6</ele>
        <time>2020-09-05T11:48:23Z</time>
      </trkpt>
      <trkpt lat="45.05349" lon="5.98987">
        <ele>949.8</ele>
        <time>2020-09-05T11:48:24Z</time>
      </trkpt>
      <trkpt lat="45.05359" lon="5.98979">
        <ele>949.4</ele>
        <time>2020-09-05T11:48:25Z</time>
      </trkpt>
      <trkpt lat="45.0537" lon="5.98968">
        <ele>948.4</ele>
        <time>2020-09-05T11:48:26Z</time>
      </trkpt>
      <trkpt lat="45.05381" lon="5.98957">
        <ele>947.8</ele>
        <time>2020-09-05T11:48:27Z</time>
      </trkpt>
      <trkpt lat="45.05393" lon="5.98949">
        <ele>947.6</ele>
        <time>2020-09-05T11:48:28Z</time>
      </trkpt>
      <trkpt lat="45.05405" lon="5.98942">
        <ele>946.8</ele>
        <time>2020-09-05T11:48:29Z</time>
      </trkpt>
      <trkpt lat="45.05418" lon="5.98936">
        <ele>946</ele>
        <time>2020-09-05T11:48:30Z</time>
      </trkpt>
      <trkpt lat="45.0543" lon="5.9893">
        <ele>945.4</ele>
        <time>2020-09-05T11:48:31Z</time>
      </trkpt>
      <trkpt lat="45.05442" lon="5.98923">
        <ele>944.4</ele>
        <time>2020-09-05T11:48:32Z</time>
      </trkpt>
      <trkpt lat="45.05454" lon="5.98916">
        <ele>943.6</ele>
        <time>2020-09-05T11:48:33Z</time>
      </trkpt>
      <trkpt lat="45.05465" lon="5.9891">
        <ele>942.6</ele>
        <time>2020-09-05T11:48:34Z</time>
      </trkpt>
      <trkpt lat="45.05477" lon="5.98908">
        <ele>941.2</ele>
        <time>2020-09-05T11:48:35Z</time>
      </trkpt>
      <trkpt lat="45.05489" lon="5.98908">
        <ele>940.4</ele>
        <time>2020-09-05T11:48:36Z</time>
      </trkpt>
      <trkpt lat="45.05502" lon="5.98911">
        <ele>939.6</ele>
        <time>2020-09-05T11:48:37Z</time>
      </trkpt>
      <trkpt lat="45.05513" lon="5.98917">
        <ele>939.6</ele>
        <time>2020-09-05T11:48:38Z</time>
      </trkpt>
      <trkpt lat="45.05525" lon="5.98922">
        <ele>939.4</ele>
        <time>2020-09-05T11:48:39Z</time>
      </trkpt>
      <trkpt lat="45.05536" lon="5.98928">
        <ele>938.8</ele>
        <time>2020-09-05T11:48:40Z</time>
      </trkpt>
      <trkpt lat="45.05546" lon="5.98933">
        <ele>938.2</ele>
        <time>2020-09-05T11:48:41Z</time>
      </trkpt>
      <trkpt lat="45.05557" lon="5.98937">
        <ele>937.6</ele>
        <time>2020-09-05T11:48:42Z</time>
      </trkpt>
      <trkpt lat="45.05568" lon="5.98942">
        <ele>937.2</ele>
        <time>2020-09-05T11:48:43Z</time>
      </trkpt>
      <trkpt lat="45.05577" lon="5.9895">
        <ele>937</ele>
        <time>2020-09-05T11:48:44Z</time>
      </trkpt>
      <trkpt lat="45.05583" lon="5.98962">
        <ele>936.6</ele>
        <time>2020-09-05T11:48:45Z</time>
      </trkpt>
      <trkpt lat="45.05586" lon="5.98976">
        <ele>936.4</ele>
        <time>2020-09-05T11:48:46Z</time>
      </trkpt>
      <trkpt lat="45.05588" lon="5.9899">
        <ele>936</ele>
        <time>2020-09-05T11:48:47Z</time>
      </trkpt>
      <trkpt lat="45.05588" lon="5.99004">
        <ele>935.8</ele>
        <time>2020-09-05T11:48:48Z</time>
      </trkpt>
      <trkpt lat="45.05588" lon="5.99017">
        <ele>935.4</ele>
        <time>2020-09-05T11:48:49Z</time>
      </trkpt>
      <trkpt lat="45.05586" lon="5.99031">
        <ele>935.6</ele>
        <time>2020-09-05T11:48:50Z</time>
      </trkpt>
      <trkpt lat="45.05584" lon="5.99043">
        <ele>935.6</ele>
        <time>2020-09-05T11:48:51Z</time>
      </trkpt>
      <trkpt lat="45.05582" lon="5.99056">
        <ele>935.4</ele>
        <time>2020-09-05T11:48:52Z</time>
      </trkpt>
      <trkpt lat="45.05579" lon="5.99068">
        <ele>935.4</ele>
        <time>2020-09-05T11:48:53Z</time>
      </trkpt>
      <trkpt lat="45.05576" lon="5.9908">
        <ele>935.4</ele>
        <time>2020-09-05T11:48:54Z</time>
      </trkpt>
      <trkpt lat="45.05573" lon="5.99092">
        <ele>935</ele>
        <time>2020-09-05T11:48:55Z</time>
      </trkpt>
      <trkpt lat="45.05567" lon="5.99116">
        <ele>935.2</ele>
        <time>2020-09-05T11:48:57Z</time>
      </trkpt>
      <trkpt lat="45.05563" lon="5.99139">
        <ele>935.6</ele>
        <time>2020-09-05T11:48:59Z</time>
      </trkpt>
      <trkpt lat="45.05559" lon="5.99161">
        <ele>935.4</ele>
        <time>2020-09-05T11:49:01Z</time>
      </trkpt>
      <trkpt lat="45.05558" lon="5.99172">
        <ele>935.4</ele>
        <time>2020-09-05T11:49:02Z</time>
      </trkpt>
      <trkpt lat="45.05556" lon="5.99182">
        <ele>935.2</ele>
        <time>2020-09-05T11:49:03Z</time>
      </trkpt>
      <trkpt lat="45.05553" lon="5.99193">
        <ele>935.4</ele>
        <time>2020-09-05T11:49:04Z</time>
      </trkpt>
      <trkpt lat="45.0555" lon="5.99203">
        <ele>935.4</ele>
        <time>2020-09-05T11:49:05Z</time>
      </trkpt>
      <trkpt lat="45.05547" lon="5.99212">
        <ele>935.8</ele>
        <time>2020-09-05T11:49:06Z</time>
      </trkpt>
      <trkpt lat="45.05544" lon="5.99222">
        <ele>935.8</ele>
        <time>2020-09-05T11:49:07Z</time>
      </trkpt>
      <trkpt lat="45.05537" lon="5.99239">
        <ele>936.4</ele>
        <time>2020-09-05T11:49:09Z</time>
      </trkpt>
      <trkpt lat="45.05538" lon="5.99257">
        <ele>936.4</ele>
        <time>2020-09-05T11:49:11Z</time>
      </trkpt>
      <trkpt lat="45.05542" lon="5.99264">
        <ele>936.6</ele>
        <time>2020-09-05T11:49:12Z</time>
      </trkpt>
      <trkpt lat="45.05548" lon="5.99269">
        <ele>936.6</ele>
        <time>2020-09-05T11:49:13Z</time>
      </trkpt>
      <trkpt lat="45.05554" lon="5.99272">
        <ele>936.2</ele>
        <time>2020-09-05T11:49:14Z</time>
      </trkpt>
      <trkpt lat="45.05561" lon="5.99274">
        <ele>936</ele>
        <time>2020-09-05T11:49:15Z</time>
      </trkpt>
      <trkpt lat="45.05568" lon="5.99277">
        <ele>936</ele>
        <time>2020-09-05T11:49:16Z</time>
      </trkpt>
      <trkpt lat="45.05574" lon="5.9928">
        <ele>935.6</ele>
        <time>2020-09-05T11:49:17Z</time>
      </trkpt>
      <trkpt lat="45.05581" lon="5.99285">
        <ele>935.4</ele>
        <time>2020-09-05T11:49:18Z</time>
      </trkpt>
      <trkpt lat="45.05587" lon="5.99292">
        <ele>935.6</ele>
        <time>2020-09-05T11:49:19Z</time>
      </trkpt>
      <trkpt lat="45.05593" lon="5.99299">
        <ele>935.6</ele>
        <time>2020-09-05T11:49:20Z</time>
      </trkpt>
      <trkpt lat="45.05605" lon="5.99314">
        <ele>935.4</ele>
        <time>2020-09-05T11:49:22Z</time>
      </trkpt>
      <trkpt lat="45.05611" lon="5.99322">
        <ele>935.2</ele>
        <time>2020-09-05T11:49:23Z</time>
      </trkpt>
      <trkpt lat="45.05619" lon="5.99328">
        <ele>935</ele>
        <time>2020-09-05T11:49:24Z</time>
      </trkpt>
      <trkpt lat="45.05626" lon="5.99334">
        <ele>935</ele>
        <time>2020-09-05T11:49:25Z</time>
      </trkpt>
      <trkpt lat="45.05641" lon="5.99341">
        <ele>935</ele>
        <time>2020-09-05T11:49:27Z</time>
      </trkpt>
      <trkpt lat="45.05657" lon="5.99353">
        <ele>934.6</ele>
        <time>2020-09-05T11:49:29Z</time>
      </trkpt>
      <trkpt lat="45.05665" lon="5.99357">
        <ele>934.6</ele>
        <time>2020-09-05T11:49:30Z</time>
      </trkpt>
      <trkpt lat="45.05674" lon="5.99362">
        <ele>934.2</ele>
        <time>2020-09-05T11:49:31Z</time>
      </trkpt>
      <trkpt lat="45.05683" lon="5.99368">
        <ele>933.6</ele>
        <time>2020-09-05T11:49:32Z</time>
      </trkpt>
      <trkpt lat="45.05691" lon="5.99376">
        <ele>933</ele>
        <time>2020-09-05T11:49:33Z</time>
      </trkpt>
      <trkpt lat="45.057" lon="5.99386">
        <ele>932.2</ele>
        <time>2020-09-05T11:49:34Z</time>
      </trkpt>
      <trkpt lat="45.05709" lon="5.99396">
        <ele>931.8</ele>
        <time>2020-09-05T11:49:35Z</time>
      </trkpt>
      <trkpt lat="45.05717" lon="5.99405">
        <ele>931.2</ele>
        <time>2020-09-05T11:49:36Z</time>
      </trkpt>
      <trkpt lat="45.05726" lon="5.99413">
        <ele>930.6</ele>
        <time>2020-09-05T11:49:37Z</time>
      </trkpt>
      <trkpt lat="45.05739" lon="5.99417">
        <ele>930</ele>
        <time>2020-09-05T11:49:38Z</time>
      </trkpt>
      <trkpt lat="45.05751" lon="5.99421">
        <ele>929.4</ele>
        <time>2020-09-05T11:49:39Z</time>
      </trkpt>
      <trkpt lat="45.05763" lon="5.99425">
        <ele>928.8</ele>
        <time>2020-09-05T11:49:40Z</time>
      </trkpt>
      <trkpt lat="45.05774" lon="5.99431">
        <ele>928.4</ele>
        <time>2020-09-05T11:49:41Z</time>
      </trkpt>
      <trkpt lat="45.05786" lon="5.99435">
        <ele>927.4</ele>
        <time>2020-09-05T11:49:42Z</time>
      </trkpt>
      <trkpt lat="45.05798" lon="5.99436">
        <ele>926.4</ele>
        <time>2020-09-05T11:49:43Z</time>
      </trkpt>
      <trkpt lat="45.0581" lon="5.99436">
        <ele>925.2</ele>
        <time>2020-09-05T11:49:44Z</time>
      </trkpt>
      <trkpt lat="45.05822" lon="5.99436">
        <ele>923.8</ele>
        <time>2020-09-05T11:49:45Z</time>
      </trkpt>
      <trkpt lat="45.05832" lon="5.99439">
        <ele>922.6</ele>
        <time>2020-09-05T11:49:46Z</time>
      </trkpt>
      <trkpt lat="45.0584" lon="5.99446">
        <ele>921.6</ele>
        <time>2020-09-05T11:49:47Z</time>
      </trkpt>
      <trkpt lat="45.05849" lon="5.99468">
        <ele>920</ele>
        <time>2020-09-05T11:49:49Z</time>
      </trkpt>
      <trkpt lat="45.05855" lon="5.9948">
        <ele>919.4</ele>
        <time>2020-09-05T11:49:50Z</time>
      </trkpt>
      <trkpt lat="45.05861" lon="5.9949">
        <ele>919</ele>
        <time>2020-09-05T11:49:51Z</time>
      </trkpt>
      <trkpt lat="45.05869" lon="5.99499">
        <ele>918.6</ele>
        <time>2020-09-05T11:49:52Z</time>
      </trkpt>
      <trkpt lat="45.05876" lon="5.99508">
        <ele>918.4</ele>
        <time>2020-09-05T11:49:53Z</time>
      </trkpt>
      <trkpt lat="45.05886" lon="5.99517">
        <ele>917.8</ele>
        <time>2020-09-05T11:49:54Z</time>
      </trkpt>
      <trkpt lat="45.05894" lon="5.99527">
        <ele>918.4</ele>
        <time>2020-09-05T11:49:55Z</time>
      </trkpt>
      <trkpt lat="45.05903" lon="5.99538">
        <ele>917.8</ele>
        <time>2020-09-05T11:49:56Z</time>
      </trkpt>
      <trkpt lat="45.05911" lon="5.99549">
        <ele>917</ele>
        <time>2020-09-05T11:49:57Z</time>
      </trkpt>
      <trkpt lat="45.05919" lon="5.9956">
        <ele>916</ele>
        <time>2020-09-05T11:49:58Z</time>
      </trkpt>
      <trkpt lat="45.05927" lon="5.99569">
        <ele>915.4</ele>
        <time>2020-09-05T11:49:59Z</time>
      </trkpt>
      <trkpt lat="45.05935" lon="5.99576">
        <ele>914.2</ele>
        <time>2020-09-05T11:50:00Z</time>
      </trkpt>
      <trkpt lat="45.0595" lon="5.9958">
        <ele>912.2</ele>
        <time>2020-09-05T11:50:02Z</time>
      </trkpt>
      <trkpt lat="45.05959" lon="5.99577">
        <ele>911.2</ele>
        <time>2020-09-05T11:50:03Z</time>
      </trkpt>
      <trkpt lat="45.05971" lon="5.99577">
        <ele>910.6</ele>
        <time>2020-09-05T11:50:04Z</time>
      </trkpt>
      <trkpt lat="45.05983" lon="5.99578">
        <ele>910</ele>
        <time>2020-09-05T11:50:05Z</time>
      </trkpt>
      <trkpt lat="45.05996" lon="5.99584">
        <ele>909.8</ele>
        <time>2020-09-05T11:50:06Z</time>
      </trkpt>
      <trkpt lat="45.06006" lon="5.99593">
        <ele>909.4</ele>
        <time>2020-09-05T11:50:07Z</time>
      </trkpt>
      <trkpt lat="45.06017" lon="5.99601">
        <ele>909.6</ele>
        <time>2020-09-05T11:50:08Z</time>
      </trkpt>
      <trkpt lat="45.06028" lon="5.99609">
        <ele>909.6</ele>
        <time>2020-09-05T11:50:09Z</time>
      </trkpt>
      <trkpt lat="45.06038" lon="5.99617">
        <ele>909</ele>
        <time>2020-09-05T11:50:10Z</time>
      </trkpt>
      <trkpt lat="45.06048" lon="5.99625">
        <ele>908.2</ele>
        <time>2020-09-05T11:50:11Z</time>
      </trkpt>
      <trkpt lat="45.06058" lon="5.99632">
        <ele>907.8</ele>
        <time>2020-09-05T11:50:12Z</time>
      </trkpt>
      <trkpt lat="45.06068" lon="5.99635">
        <ele>907</ele>
        <time>2020-09-05T11:50:13Z</time>
      </trkpt>
      <trkpt lat="45.0608" lon="5.99637">
        <ele>906.4</ele>
        <time>2020-09-05T11:50:14Z</time>
      </trkpt>
      <trkpt lat="45.06091" lon="5.9964">
        <ele>905.4</ele>
        <time>2020-09-05T11:50:15Z</time>
      </trkpt>
      <trkpt lat="45.06102" lon="5.99644">
        <ele>904.8</ele>
        <time>2020-09-05T11:50:16Z</time>
      </trkpt>
      <trkpt lat="45.06111" lon="5.99645">
        <ele>904.2</ele>
        <time>2020-09-05T11:50:17Z</time>
      </trkpt>
      <trkpt lat="45.06121" lon="5.99643">
        <ele>903</ele>
        <time>2020-09-05T11:50:18Z</time>
      </trkpt>
      <trkpt lat="45.06132" lon="5.9964">
        <ele>901.4</ele>
        <time>2020-09-05T11:50:19Z</time>
      </trkpt>
      <trkpt lat="45.06142" lon="5.99639">
        <ele>899.8</ele>
        <time>2020-09-05T11:50:20Z</time>
      </trkpt>
      <trkpt lat="45.06152" lon="5.99636">
        <ele>898.4</ele>
        <time>2020-09-05T11:50:21Z</time>
      </trkpt>
      <trkpt lat="45.06163" lon="5.99634">
        <ele>897.2</ele>
        <time>2020-09-05T11:50:22Z</time>
      </trkpt>
      <trkpt lat="45.06174" lon="5.99635">
        <ele>896.6</ele>
        <time>2020-09-05T11:50:23Z</time>
      </trkpt>
      <trkpt lat="45.06186" lon="5.99639">
        <ele>895.2</ele>
        <time>2020-09-05T11:50:24Z</time>
      </trkpt>
      <trkpt lat="45.06197" lon="5.99643">
        <ele>894.8</ele>
        <time>2020-09-05T11:50:25Z</time>
      </trkpt>
      <trkpt lat="45.06208" lon="5.99649">
        <ele>894</ele>
        <time>2020-09-05T11:50:26Z</time>
      </trkpt>
      <trkpt lat="45.06218" lon="5.99656">
        <ele>893.8</ele>
        <time>2020-09-05T11:50:27Z</time>
      </trkpt>
      <trkpt lat="45.06227" lon="5.99665">
        <ele>893.8</ele>
        <time>2020-09-05T11:50:28Z</time>
      </trkpt>
      <trkpt lat="45.06236" lon="5.99675">
        <ele>893.8</ele>
        <time>2020-09-05T11:50:29Z</time>
      </trkpt>
      <trkpt lat="45.06246" lon="5.99684">
        <ele>893.6</ele>
        <time>2020-09-05T11:50:30Z</time>
      </trkpt>
      <trkpt lat="45.06255" lon="5.99693">
        <ele>893</ele>
        <time>2020-09-05T11:50:31Z</time>
      </trkpt>
      <trkpt lat="45.06265" lon="5.99703">
        <ele>892.4</ele>
        <time>2020-09-05T11:50:32Z</time>
      </trkpt>
      <trkpt lat="45.06275" lon="5.99712">
        <ele>891.4</ele>
        <time>2020-09-05T11:50:33Z</time>
      </trkpt>
      <trkpt lat="45.06286" lon="5.99721">
        <ele>890.4</ele>
        <time>2020-09-05T11:50:34Z</time>
      </trkpt>
      <trkpt lat="45.06297" lon="5.99728">
        <ele>889.6</ele>
        <time>2020-09-05T11:50:35Z</time>
      </trkpt>
      <trkpt lat="45.06308" lon="5.99734">
        <ele>889</ele>
        <time>2020-09-05T11:50:36Z</time>
      </trkpt>
      <trkpt lat="45.0632" lon="5.99741">
        <ele>888.6</ele>
        <time>2020-09-05T11:50:37Z</time>
      </trkpt>
      <trkpt lat="45.06331" lon="5.99749">
        <ele>888.2</ele>
        <time>2020-09-05T11:50:38Z</time>
      </trkpt>
      <trkpt lat="45.06343" lon="5.99756">
        <ele>887.4</ele>
        <time>2020-09-05T11:50:39Z</time>
      </trkpt>
      <trkpt lat="45.06356" lon="5.99762">
        <ele>887.4</ele>
        <time>2020-09-05T11:50:40Z</time>
      </trkpt>
      <trkpt lat="45.06369" lon="5.99766">
        <ele>886.2</ele>
        <time>2020-09-05T11:50:41Z</time>
      </trkpt>
      <trkpt lat="45.06382" lon="5.99769">
        <ele>884.6</ele>
        <time>2020-09-05T11:50:42Z</time>
      </trkpt>
      <trkpt lat="45.06393" lon="5.99771">
        <ele>882.6</ele>
        <time>2020-09-05T11:50:43Z</time>
      </trkpt>
      <trkpt lat="45.06402" lon="5.9977">
        <ele>881</ele>
        <time>2020-09-05T11:50:44Z</time>
      </trkpt>
      <trkpt lat="45.0642" lon="5.99765">
        <ele>877.2</ele>
        <time>2020-09-05T11:50:46Z</time>
      </trkpt>
      <trkpt lat="45.06431" lon="5.99765">
        <ele>876</ele>
        <time>2020-09-05T11:50:47Z</time>
      </trkpt>
      <trkpt lat="45.06441" lon="5.9977">
        <ele>875</ele>
        <time>2020-09-05T11:50:48Z</time>
      </trkpt>
      <trkpt lat="45.06451" lon="5.99777">
        <ele>874.8</ele>
        <time>2020-09-05T11:50:49Z</time>
      </trkpt>
      <trkpt lat="45.06461" lon="5.99786">
        <ele>874.2</ele>
        <time>2020-09-05T11:50:50Z</time>
      </trkpt>
      <trkpt lat="45.06471" lon="5.99794">
        <ele>873.6</ele>
        <time>2020-09-05T11:50:51Z</time>
      </trkpt>
      <trkpt lat="45.06481" lon="5.99803">
        <ele>873.2</ele>
        <time>2020-09-05T11:50:52Z</time>
      </trkpt>
      <trkpt lat="45.06492" lon="5.99813">
        <ele>872.2</ele>
        <time>2020-09-05T11:50:53Z</time>
      </trkpt>
      <trkpt lat="45.06503" lon="5.99821">
        <ele>871.8</ele>
        <time>2020-09-05T11:50:54Z</time>
      </trkpt>
      <trkpt lat="45.06514" lon="5.99827">
        <ele>870.8</ele>
        <time>2020-09-05T11:50:55Z</time>
      </trkpt>
      <trkpt lat="45.06526" lon="5.99834">
        <ele>869.8</ele>
        <time>2020-09-05T11:50:56Z</time>
      </trkpt>
      <trkpt lat="45.06538" lon="5.99842">
        <ele>869</ele>
        <time>2020-09-05T11:50:57Z</time>
      </trkpt>
      <trkpt lat="45.06549" lon="5.9985">
        <ele>867.6</ele>
        <time>2020-09-05T11:50:58Z</time>
      </trkpt>
      <trkpt lat="45.06559" lon="5.99861">
        <ele>867</ele>
        <time>2020-09-05T11:50:59Z</time>
      </trkpt>
      <trkpt lat="45.06569" lon="5.99872">
        <ele>866.4</ele>
        <time>2020-09-05T11:51:00Z</time>
      </trkpt>
      <trkpt lat="45.06579" lon="5.99883">
        <ele>866.2</ele>
        <time>2020-09-05T11:51:01Z</time>
      </trkpt>
      <trkpt lat="45.06588" lon="5.99895">
        <ele>866.4</ele>
        <time>2020-09-05T11:51:02Z</time>
      </trkpt>
      <trkpt lat="45.06598" lon="5.99907">
        <ele>865.8</ele>
        <time>2020-09-05T11:51:03Z</time>
      </trkpt>
      <trkpt lat="45.06608" lon="5.99917">
        <ele>865.6</ele>
        <time>2020-09-05T11:51:04Z</time>
      </trkpt>
      <trkpt lat="45.06619" lon="5.99926">
        <ele>864.8</ele>
        <time>2020-09-05T11:51:05Z</time>
      </trkpt>
      <trkpt lat="45.0663" lon="5.99934">
        <ele>864.4</ele>
        <time>2020-09-05T11:51:06Z</time>
      </trkpt>
      <trkpt lat="45.06642" lon="5.9994">
        <ele>863.8</ele>
        <time>2020-09-05T11:51:07Z</time>
      </trkpt>
      <trkpt lat="45.06654" lon="5.99946">
        <ele>862</ele>
        <time>2020-09-05T11:51:08Z</time>
      </trkpt>
      <trkpt lat="45.06666" lon="5.99951">
        <ele>860.6</ele>
        <time>2020-09-05T11:51:09Z</time>
      </trkpt>
      <trkpt lat="45.06678" lon="5.99954">
        <ele>859.2</ele>
        <time>2020-09-05T11:51:10Z</time>
      </trkpt>
      <trkpt lat="45.06689" lon="5.99955">
        <ele>858.2</ele>
        <time>2020-09-05T11:51:11Z</time>
      </trkpt>
      <trkpt lat="45.06699" lon="5.99952">
        <ele>857.2</ele>
        <time>2020-09-05T11:51:12Z</time>
      </trkpt>
      <trkpt lat="45.06709" lon="5.99949">
        <ele>856</ele>
        <time>2020-09-05T11:51:13Z</time>
      </trkpt>
      <trkpt lat="45.0672" lon="5.99948">
        <ele>855.2</ele>
        <time>2020-09-05T11:51:14Z</time>
      </trkpt>
      <trkpt lat="45.0673" lon="5.9995">
        <ele>853.8</ele>
        <time>2020-09-05T11:51:15Z</time>
      </trkpt>
      <trkpt lat="45.06741" lon="5.99953">
        <ele>852.8</ele>
        <time>2020-09-05T11:51:16Z</time>
      </trkpt>
      <trkpt lat="45.06752" lon="5.99956">
        <ele>852</ele>
        <time>2020-09-05T11:51:17Z</time>
      </trkpt>
      <trkpt lat="45.06762" lon="5.9996">
        <ele>851.8</ele>
        <time>2020-09-05T11:51:18Z</time>
      </trkpt>
      <trkpt lat="45.06773" lon="5.99965">
        <ele>851.2</ele>
        <time>2020-09-05T11:51:19Z</time>
      </trkpt>
      <trkpt lat="45.06784" lon="5.99969">
        <ele>850.8</ele>
        <time>2020-09-05T11:51:20Z</time>
      </trkpt>
      <trkpt lat="45.06796" lon="5.99975">
        <ele>850.8</ele>
        <time>2020-09-05T11:51:21Z</time>
      </trkpt>
      <trkpt lat="45.06806" lon="5.99983">
        <ele>850.2</ele>
        <time>2020-09-05T11:51:22Z</time>
      </trkpt>
      <trkpt lat="45.06816" lon="5.99993">
        <ele>849.6</ele>
        <time>2020-09-05T11:51:23Z</time>
      </trkpt>
      <trkpt lat="45.06824" lon="6.00005">
        <ele>849</ele>
        <time>2020-09-05T11:51:24Z</time>
      </trkpt>
      <trkpt lat="45.06832" lon="6.00017">
        <ele>849</ele>
        <time>2020-09-05T11:51:25Z</time>
      </trkpt>
      <trkpt lat="45.06841" lon="6.00029">
        <ele>848.4</ele>
        <time>2020-09-05T11:51:26Z</time>
      </trkpt>
      <trkpt lat="45.0685" lon="6.00039">
        <ele>847.2</ele>
        <time>2020-09-05T11:51:27Z</time>
      </trkpt>
      <trkpt lat="45.0686" lon="6.00047">
        <ele>845.4</ele>
        <time>2020-09-05T11:51:28Z</time>
      </trkpt>
      <trkpt lat="45.06869" lon="6.00054">
        <ele>843.6</ele>
        <time>2020-09-05T11:51:29Z</time>
      </trkpt>
      <trkpt lat="45.06878" lon="6.00058">
        <ele>842</ele>
        <time>2020-09-05T11:51:30Z</time>
      </trkpt>
      <trkpt lat="45.06895" lon="6.00049">
        <ele>839.4</ele>
        <time>2020-09-05T11:51:32Z</time>
      </trkpt>
      <trkpt lat="45.06901" lon="6.00038">
        <ele>838.2</ele>
        <time>2020-09-05T11:51:33Z</time>
      </trkpt>
      <trkpt lat="45.06907" lon="6.00024">
        <ele>836.8</ele>
        <time>2020-09-05T11:51:34Z</time>
      </trkpt>
      <trkpt lat="45.06914" lon="6.00011">
        <ele>835.8</ele>
        <time>2020-09-05T11:51:35Z</time>
      </trkpt>
      <trkpt lat="45.06922" lon="6.00003">
        <ele>834.8</ele>
        <time>2020-09-05T11:51:36Z</time>
      </trkpt>
      <trkpt lat="45.06931" lon="6">
        <ele>833.6</ele>
        <time>2020-09-05T11:51:37Z</time>
      </trkpt>
      <trkpt lat="45.06942" lon="6">
        <ele>832.6</ele>
        <time>2020-09-05T11:51:38Z</time>
      </trkpt>
      <trkpt lat="45.06952" lon="6.00002">
        <ele>831.4</ele>
        <time>2020-09-05T11:51:39Z</time>
      </trkpt>
      <trkpt lat="45.06961" lon="6.00003">
        <ele>830.8</ele>
        <time>2020-09-05T11:51:40Z</time>
      </trkpt>
      <trkpt lat="45.06979" lon="6.00003">
        <ele>829</ele>
        <time>2020-09-05T11:51:42Z</time>
      </trkpt>
      <trkpt lat="45.06993" lon="6.00014">
        <ele>827.2</ele>
        <time>2020-09-05T11:51:44Z</time>
      </trkpt>
      <trkpt lat="45.06993" lon="6.00026">
        <ele>826.2</ele>
        <time>2020-09-05T11:51:45Z</time>
      </trkpt>
      <trkpt lat="45.06983" lon="6.00045">
        <ele>825.2</ele>
        <time>2020-09-05T11:51:47Z</time>
      </trkpt>
      <trkpt lat="45.06976" lon="6.00054">
        <ele>824.6</ele>
        <time>2020-09-05T11:51:48Z</time>
      </trkpt>
      <trkpt lat="45.06969" lon="6.00064">
        <ele>824.2</ele>
        <time>2020-09-05T11:51:49Z</time>
      </trkpt>
      <trkpt lat="45.06964" lon="6.00076">
        <ele>824</ele>
        <time>2020-09-05T11:51:50Z</time>
      </trkpt>
      <trkpt lat="45.06961" lon="6.00089">
        <ele>823.8</ele>
        <time>2020-09-05T11:51:51Z</time>
      </trkpt>
      <trkpt lat="45.06959" lon="6.00104">
        <ele>823.6</ele>
        <time>2020-09-05T11:51:52Z</time>
      </trkpt>
      <trkpt lat="45.06956" lon="6.00119">
        <ele>823.2</ele>
        <time>2020-09-05T11:51:53Z</time>
      </trkpt>
      <trkpt lat="45.06954" lon="6.00134">
        <ele>822.8</ele>
        <time>2020-09-05T11:51:54Z</time>
      </trkpt>
      <trkpt lat="45.06953" lon="6.0015">
        <ele>822.4</ele>
        <time>2020-09-05T11:51:55Z</time>
      </trkpt>
      <trkpt lat="45.06953" lon="6.00167">
        <ele>821.6</ele>
        <time>2020-09-05T11:51:56Z</time>
      </trkpt>
      <trkpt lat="45.06955" lon="6.00183">
        <ele>820.4</ele>
        <time>2020-09-05T11:51:57Z</time>
      </trkpt>
      <trkpt lat="45.0696" lon="6.00198">
        <ele>819.8</ele>
        <time>2020-09-05T11:51:58Z</time>
      </trkpt>
      <trkpt lat="45.06967" lon="6.00212">
        <ele>819</ele>
        <time>2020-09-05T11:51:59Z</time>
      </trkpt>
      <trkpt lat="45.06977" lon="6.00224">
        <ele>817.8</ele>
        <time>2020-09-05T11:52:00Z</time>
      </trkpt>
      <trkpt lat="45.06988" lon="6.00232">
        <ele>817</ele>
        <time>2020-09-05T11:52:01Z</time>
      </trkpt>
      <trkpt lat="45.07" lon="6.00237">
        <ele>816.2</ele>
        <time>2020-09-05T11:52:02Z</time>
      </trkpt>
      <trkpt lat="45.07012" lon="6.0024">
        <ele>815.2</ele>
        <time>2020-09-05T11:52:03Z</time>
      </trkpt>
      <trkpt lat="45.07025" lon="6.00242">
        <ele>814.2</ele>
        <time>2020-09-05T11:52:04Z</time>
      </trkpt>
      <trkpt lat="45.07038" lon="6.00245">
        <ele>812.8</ele>
        <time>2020-09-05T11:52:05Z</time>
      </trkpt>
      <trkpt lat="45.07051" lon="6.00251">
        <ele>811.4</ele>
        <time>2020-09-05T11:52:06Z</time>
      </trkpt>
      <trkpt lat="45.0706" lon="6.00262">
        <ele>810.2</ele>
        <time>2020-09-05T11:52:07Z</time>
      </trkpt>
      <trkpt lat="45.07069" lon="6.00276">
        <ele>809.2</ele>
        <time>2020-09-05T11:52:08Z</time>
      </trkpt>
      <trkpt lat="45.07077" lon="6.00292">
        <ele>807.8</ele>
        <time>2020-09-05T11:52:09Z</time>
      </trkpt>
      <trkpt lat="45.07085" lon="6.00305">
        <ele>807</ele>
        <time>2020-09-05T11:52:10Z</time>
      </trkpt>
      <trkpt lat="45.07095" lon="6.00319">
        <ele>806.4</ele>
        <time>2020-09-05T11:52:11Z</time>
      </trkpt>
      <trkpt lat="45.07105" lon="6.00332">
        <ele>805.4</ele>
        <time>2020-09-05T11:52:12Z</time>
      </trkpt>
      <trkpt lat="45.07115" lon="6.00345">
        <ele>804.6</ele>
        <time>2020-09-05T11:52:13Z</time>
      </trkpt>
      <trkpt lat="45.07124" lon="6.00358">
        <ele>803.8</ele>
        <time>2020-09-05T11:52:14Z</time>
      </trkpt>
      <trkpt lat="45.07132" lon="6.00372">
        <ele>802.6</ele>
        <time>2020-09-05T11:52:15Z</time>
      </trkpt>
      <trkpt lat="45.07138" lon="6.00388">
        <ele>801.2</ele>
        <time>2020-09-05T11:52:16Z</time>
      </trkpt>
      <trkpt lat="45.07141" lon="6.00406">
        <ele>800.2</ele>
        <time>2020-09-05T11:52:17Z</time>
      </trkpt>
      <trkpt lat="45.07141" lon="6.00425">
        <ele>799.2</ele>
        <time>2020-09-05T11:52:18Z</time>
      </trkpt>
      <trkpt lat="45.07138" lon="6.00443">
        <ele>798.2</ele>
        <time>2020-09-05T11:52:19Z</time>
      </trkpt>
      <trkpt lat="45.07137" lon="6.00461">
        <ele>797.4</ele>
        <time>2020-09-05T11:52:20Z</time>
      </trkpt>
      <trkpt lat="45.07138" lon="6.00478">
        <ele>796.2</ele>
        <time>2020-09-05T11:52:21Z</time>
      </trkpt>
      <trkpt lat="45.07142" lon="6.00495">
        <ele>794.8</ele>
        <time>2020-09-05T11:52:22Z</time>
      </trkpt>
      <trkpt lat="45.07149" lon="6.0051">
        <ele>794</ele>
        <time>2020-09-05T11:52:23Z</time>
      </trkpt>
      <trkpt lat="45.07156" lon="6.00526">
        <ele>793.2</ele>
        <time>2020-09-05T11:52:24Z</time>
      </trkpt>
      <trkpt lat="45.07163" lon="6.00541">
        <ele>792.2</ele>
        <time>2020-09-05T11:52:25Z</time>
      </trkpt>
      <trkpt lat="45.07168" lon="6.00559">
        <ele>791</ele>
        <time>2020-09-05T11:52:26Z</time>
      </trkpt>
      <trkpt lat="45.07173" lon="6.00577">
        <ele>789.8</ele>
        <time>2020-09-05T11:52:27Z</time>
      </trkpt>
      <trkpt lat="45.07177" lon="6.00595">
        <ele>788.8</ele>
        <time>2020-09-05T11:52:28Z</time>
      </trkpt>
      <trkpt lat="45.07181" lon="6.00613">
        <ele>787.8</ele>
        <time>2020-09-05T11:52:29Z</time>
      </trkpt>
      <trkpt lat="45.07185" lon="6.00631">
        <ele>786.8</ele>
        <time>2020-09-05T11:52:30Z</time>
      </trkpt>
      <trkpt lat="45.07187" lon="6.0065">
        <ele>785.6</ele>
        <time>2020-09-05T11:52:31Z</time>
      </trkpt>
      <trkpt lat="45.07186" lon="6.00671">
        <ele>784.6</ele>
        <time>2020-09-05T11:52:32Z</time>
      </trkpt>
      <trkpt lat="45.07182" lon="6.00691">
        <ele>783.4</ele>
        <time>2020-09-05T11:52:33Z</time>
      </trkpt>
      <trkpt lat="45.07169" lon="6.00722">
        <ele>781.4</ele>
        <time>2020-09-05T11:52:35Z</time>
      </trkpt>
      <trkpt lat="45.07164" lon="6.00738">
        <ele>780</ele>
        <time>2020-09-05T11:52:36Z</time>
      </trkpt>
      <trkpt lat="45.07159" lon="6.00767">
        <ele>777</ele>
        <time>2020-09-05T11:52:38Z</time>
      </trkpt>
      <trkpt lat="45.07162" lon="6.00783">
        <ele>776.4</ele>
        <time>2020-09-05T11:52:39Z</time>
      </trkpt>
      <trkpt lat="45.07169" lon="6.00801">
        <ele>775.8</ele>
        <time>2020-09-05T11:52:40Z</time>
      </trkpt>
      <trkpt lat="45.07173" lon="6.00818">
        <ele>774.8</ele>
        <time>2020-09-05T11:52:41Z</time>
      </trkpt>
      <trkpt lat="45.07177" lon="6.00834">
        <ele>773.8</ele>
        <time>2020-09-05T11:52:42Z</time>
      </trkpt>
      <trkpt lat="45.0718" lon="6.00851">
        <ele>772.6</ele>
        <time>2020-09-05T11:52:43Z</time>
      </trkpt>
      <trkpt lat="45.07184" lon="6.00869">
        <ele>771.4</ele>
        <time>2020-09-05T11:52:44Z</time>
      </trkpt>
      <trkpt lat="45.07189" lon="6.00888">
        <ele>770.8</ele>
        <time>2020-09-05T11:52:45Z</time>
      </trkpt>
      <trkpt lat="45.07194" lon="6.00908">
        <ele>770.2</ele>
        <time>2020-09-05T11:52:46Z</time>
      </trkpt>
      <trkpt lat="45.07198" lon="6.00927">
        <ele>768.8</ele>
        <time>2020-09-05T11:52:47Z</time>
      </trkpt>
      <trkpt lat="45.07201" lon="6.00945">
        <ele>767.8</ele>
        <time>2020-09-05T11:52:48Z</time>
      </trkpt>
      <trkpt lat="45.07203" lon="6.00964">
        <ele>766.8</ele>
        <time>2020-09-05T11:52:49Z</time>
      </trkpt>
      <trkpt lat="45.07205" lon="6.00982">
        <ele>765.8</ele>
        <time>2020-09-05T11:52:50Z</time>
      </trkpt>
      <trkpt lat="45.07206" lon="6.01001">
        <ele>764.4</ele>
        <time>2020-09-05T11:52:51Z</time>
      </trkpt>
      <trkpt lat="45.07207" lon="6.0102">
        <ele>763.4</ele>
        <time>2020-09-05T11:52:52Z</time>
      </trkpt>
      <trkpt lat="45.07209" lon="6.01036">
        <ele>761.8</ele>
        <time>2020-09-05T11:52:53Z</time>
      </trkpt>
      <trkpt lat="45.07213" lon="6.01053">
        <ele>761.2</ele>
        <time>2020-09-05T11:52:54Z</time>
      </trkpt>
      <trkpt lat="45.07219" lon="6.01071">
        <ele>760.2</ele>
        <time>2020-09-05T11:52:55Z</time>
      </trkpt>
      <trkpt lat="45.07224" lon="6.01088">
        <ele>759.2</ele>
        <time>2020-09-05T11:52:56Z</time>
      </trkpt>
      <trkpt lat="45.0723" lon="6.01106">
        <ele>757.6</ele>
        <time>2020-09-05T11:52:57Z</time>
      </trkpt>
      <trkpt lat="45.07235" lon="6.01123">
        <ele>756.8</ele>
        <time>2020-09-05T11:52:58Z</time>
      </trkpt>
      <trkpt lat="45.0724" lon="6.01139">
        <ele>756.6</ele>
        <time>2020-09-05T11:52:59Z</time>
      </trkpt>
      <trkpt lat="45.07246" lon="6.01156">
        <ele>756</ele>
        <time>2020-09-05T11:53:00Z</time>
      </trkpt>
      <trkpt lat="45.07252" lon="6.01173">
        <ele>754.6</ele>
        <time>2020-09-05T11:53:01Z</time>
      </trkpt>
      <trkpt lat="45.07258" lon="6.01189">
        <ele>753.6</ele>
        <time>2020-09-05T11:53:02Z</time>
      </trkpt>
      <trkpt lat="45.07264" lon="6.01205">
        <ele>753.8</ele>
        <time>2020-09-05T11:53:03Z</time>
      </trkpt>
      <trkpt lat="45.0727" lon="6.01222">
        <ele>753.6</ele>
        <time>2020-09-05T11:53:04Z</time>
      </trkpt>
      <trkpt lat="45.07276" lon="6.01237">
        <ele>753.4</ele>
        <time>2020-09-05T11:53:05Z</time>
      </trkpt>
      <trkpt lat="45.07281" lon="6.01251">
        <ele>753.2</ele>
        <time>2020-09-05T11:53:06Z</time>
      </trkpt>
      <trkpt lat="45.07287" lon="6.01266">
        <ele>752.8</ele>
        <time>2020-09-05T11:53:07Z</time>
      </trkpt>
      <trkpt lat="45.07292" lon="6.0128">
        <ele>752.4</ele>
        <time>2020-09-05T11:53:08Z</time>
      </trkpt>
      <trkpt lat="45.07297" lon="6.01294">
        <ele>752.4</ele>
        <time>2020-09-05T11:53:09Z</time>
      </trkpt>
      <trkpt lat="45.07302" lon="6.01308">
        <ele>752</ele>
        <time>2020-09-05T11:53:10Z</time>
      </trkpt>
      <trkpt lat="45.07307" lon="6.01322">
        <ele>751.2</ele>
        <time>2020-09-05T11:53:11Z</time>
      </trkpt>
      <trkpt lat="45.07312" lon="6.01336">
        <ele>751.2</ele>
        <time>2020-09-05T11:53:12Z</time>
      </trkpt>
      <trkpt lat="45.07318" lon="6.01351">
        <ele>751.4</ele>
        <time>2020-09-05T11:53:13Z</time>
      </trkpt>
      <trkpt lat="45.07323" lon="6.01365">
        <ele>751.6</ele>
        <time>2020-09-05T11:53:14Z</time>
      </trkpt>
      <trkpt lat="45.07328" lon="6.01379">
        <ele>751.6</ele>
        <time>2020-09-05T11:53:15Z</time>
      </trkpt>
      <trkpt lat="45.07333" lon="6.01393">
        <ele>751.6</ele>
        <time>2020-09-05T11:53:16Z</time>
      </trkpt>
      <trkpt lat="45.07338" lon="6.01406">
        <ele>751.2</ele>
        <time>2020-09-05T11:53:17Z</time>
      </trkpt>
      <trkpt lat="45.07343" lon="6.01419">
        <ele>750.8</ele>
        <time>2020-09-05T11:53:18Z</time>
      </trkpt>
      <trkpt lat="45.07348" lon="6.01432">
        <ele>750.8</ele>
        <time>2020-09-05T11:53:19Z</time>
      </trkpt>
      <trkpt lat="45.07353" lon="6.01445">
        <ele>751</ele>
        <time>2020-09-05T11:53:20Z</time>
      </trkpt>
      <trkpt lat="45.07359" lon="6.01457">
        <ele>750.8</ele>
        <time>2020-09-05T11:53:21Z</time>
      </trkpt>
      <trkpt lat="45.07365" lon="6.01468">
        <ele>750.2</ele>
        <time>2020-09-05T11:53:22Z</time>
      </trkpt>
      <trkpt lat="45.07371" lon="6.01479">
        <ele>749.8</ele>
        <time>2020-09-05T11:53:23Z</time>
      </trkpt>
      <trkpt lat="45.07377" lon="6.0149">
        <ele>749.6</ele>
        <time>2020-09-05T11:53:24Z</time>
      </trkpt>
      <trkpt lat="45.07382" lon="6.015">
        <ele>748.8</ele>
        <time>2020-09-05T11:53:25Z</time>
      </trkpt>
      <trkpt lat="45.07386" lon="6.01512">
        <ele>748.8</ele>
        <time>2020-09-05T11:53:26Z</time>
      </trkpt>
      <trkpt lat="45.07388" lon="6.01524">
        <ele>749</ele>
        <time>2020-09-05T11:53:27Z</time>
      </trkpt>
      <trkpt lat="45.07388" lon="6.01535">
        <ele>749.2</ele>
        <time>2020-09-05T11:53:28Z</time>
      </trkpt>
      <trkpt lat="45.07385" lon="6.01546">
        <ele>749.4</ele>
        <time>2020-09-05T11:53:29Z</time>
      </trkpt>
      <trkpt lat="45.07381" lon="6.01556">
        <ele>749.4</ele>
        <time>2020-09-05T11:53:30Z</time>
      </trkpt>
      <trkpt lat="45.07376" lon="6.01565">
        <ele>749.8</ele>
        <time>2020-09-05T11:53:31Z</time>
      </trkpt>
      <trkpt lat="45.07369" lon="6.01573">
        <ele>750.2</ele>
        <time>2020-09-05T11:53:32Z</time>
      </trkpt>
      <trkpt lat="45.07362" lon="6.01579">
        <ele>750.4</ele>
        <time>2020-09-05T11:53:33Z</time>
      </trkpt>
      <trkpt lat="45.07354" lon="6.01585">
        <ele>750.4</ele>
        <time>2020-09-05T11:53:34Z</time>
      </trkpt>
      <trkpt lat="45.07345" lon="6.01591">
        <ele>750.4</ele>
        <time>2020-09-05T11:53:35Z</time>
      </trkpt>
      <trkpt lat="45.07337" lon="6.01596">
        <ele>750.2</ele>
        <time>2020-09-05T11:53:36Z</time>
      </trkpt>
      <trkpt lat="45.07328" lon="6.01602">
        <ele>750.2</ele>
        <time>2020-09-05T11:53:37Z</time>
      </trkpt>
      <trkpt lat="45.07319" lon="6.01608">
        <ele>750</ele>
        <time>2020-09-05T11:53:38Z</time>
      </trkpt>
      <trkpt lat="45.0731" lon="6.01615">
        <ele>749.8</ele>
        <time>2020-09-05T11:53:39Z</time>
      </trkpt>
      <trkpt lat="45.07302" lon="6.01622">
        <ele>749.6</ele>
        <time>2020-09-05T11:53:40Z</time>
      </trkpt>
      <trkpt lat="45.07293" lon="6.0163">
        <ele>749.4</ele>
        <time>2020-09-05T11:53:41Z</time>
      </trkpt>
      <trkpt lat="45.07285" lon="6.01638">
        <ele>749.2</ele>
        <time>2020-09-05T11:53:42Z</time>
      </trkpt>
      <trkpt lat="45.07277" lon="6.01646">
        <ele>749</ele>
        <time>2020-09-05T11:53:43Z</time>
      </trkpt>
      <trkpt lat="45.07269" lon="6.01655">
        <ele>748.6</ele>
        <time>2020-09-05T11:53:44Z</time>
      </trkpt>
      <trkpt lat="45.07262" lon="6.01663">
        <ele>748.6</ele>
        <time>2020-09-05T11:53:45Z</time>
      </trkpt>
      <trkpt lat="45.07254" lon="6.01672">
        <ele>748</ele>
        <time>2020-09-05T11:53:46Z</time>
      </trkpt>
      <trkpt lat="45.07247" lon="6.0168">
        <ele>747.8</ele>
        <time>2020-09-05T11:53:47Z</time>
      </trkpt>
      <trkpt lat="45.07239" lon="6.01687">
        <ele>747.4</ele>
        <time>2020-09-05T11:53:48Z</time>
      </trkpt>
      <trkpt lat="45.07232" lon="6.01694">
        <ele>747.2</ele>
        <time>2020-09-05T11:53:49Z</time>
      </trkpt>
      <trkpt lat="45.07225" lon="6.01701">
        <ele>747</ele>
        <time>2020-09-05T11:53:50Z</time>
      </trkpt>
      <trkpt lat="45.07219" lon="6.01709">
        <ele>746.8</ele>
        <time>2020-09-05T11:53:51Z</time>
      </trkpt>
      <trkpt lat="45.07213" lon="6.01718">
        <ele>746.4</ele>
        <time>2020-09-05T11:53:52Z</time>
      </trkpt>
      <trkpt lat="45.07208" lon="6.01728">
        <ele>746</ele>
        <time>2020-09-05T11:53:53Z</time>
      </trkpt>
      <trkpt lat="45.07204" lon="6.01739">
        <ele>745.8</ele>
        <time>2020-09-05T11:53:54Z</time>
      </trkpt>
      <trkpt lat="45.07202" lon="6.0175">
        <ele>745.4</ele>
        <time>2020-09-05T11:53:55Z</time>
      </trkpt>
      <trkpt lat="45.07202" lon="6.01761">
        <ele>745.2</ele>
        <time>2020-09-05T11:53:56Z</time>
      </trkpt>
      <trkpt lat="45.07202" lon="6.0177">
        <ele>745.2</ele>
        <time>2020-09-05T11:53:57Z</time>
      </trkpt>
      <trkpt lat="45.07203" lon="6.01778">
        <ele>745</ele>
        <time>2020-09-05T11:53:58Z</time>
      </trkpt>
      <trkpt lat="45.07204" lon="6.01785">
        <ele>745</ele>
        <time>2020-09-05T11:53:59Z</time>
      </trkpt>
      <trkpt lat="45.07206" lon="6.0179">
        <ele>744.8</ele>
        <time>2020-09-05T11:54:00Z</time>
      </trkpt>
      <trkpt lat="45.07207" lon="6.01794">
        <ele>744.6</ele>
        <time>2020-09-05T11:54:01Z</time>
      </trkpt>
      <trkpt lat="45.07209" lon="6.01796">
        <ele>744.6</ele>
        <time>2020-09-05T11:54:02Z</time>
      </trkpt>
      <trkpt lat="45.0721" lon="6.01798">
        <ele>744.6</ele>
        <time>2020-09-05T11:54:04Z</time>
      </trkpt>
      <trkpt lat="45.07212" lon="6.018">
        <ele>744.6</ele>
        <time>2020-09-05T11:54:22Z</time>
      </trkpt>
      <trkpt lat="45.07214" lon="6.01804">
        <ele>744.8</ele>
        <time>2020-09-05T11:54:24Z</time>
      </trkpt>
      <trkpt lat="45.07215" lon="6.01807">
        <ele>744.6</ele>
        <time>2020-09-05T11:54:26Z</time>
      </trkpt>
      <trkpt lat="45.07216" lon="6.01811">
        <ele>744.4</ele>
        <time>2020-09-05T11:54:28Z</time>
      </trkpt>
      <trkpt lat="45.07218" lon="6.01814">
        <ele>744.8</ele>
        <time>2020-09-05T11:54:29Z</time>
      </trkpt>
      <trkpt lat="45.0722" lon="6.01817">
        <ele>744.6</ele>
        <time>2020-09-05T11:54:30Z</time>
      </trkpt>
      <trkpt lat="45.07223" lon="6.01821">
        <ele>744.4</ele>
        <time>2020-09-05T11:54:31Z</time>
      </trkpt>
      <trkpt lat="45.07224" lon="6.01827">
        <ele>744.2</ele>
        <time>2020-09-05T11:54:32Z</time>
      </trkpt>
      <trkpt lat="45.07224" lon="6.01834">
        <ele>744</ele>
        <time>2020-09-05T11:54:33Z</time>
      </trkpt>
      <trkpt lat="45.07222" lon="6.01839">
        <ele>743.8</ele>
        <time>2020-09-05T11:54:34Z</time>
      </trkpt>
      <trkpt lat="45.07218" lon="6.01843">
        <ele>743.8</ele>
        <time>2020-09-05T11:54:35Z</time>
      </trkpt>
      <trkpt lat="45.07213" lon="6.01845">
        <ele>743.8</ele>
        <time>2020-09-05T11:54:36Z</time>
      </trkpt>
      <trkpt lat="45.07208" lon="6.01847">
        <ele>743.8</ele>
        <time>2020-09-05T11:54:37Z</time>
      </trkpt>
      <trkpt lat="45.07203" lon="6.01848">
        <ele>743.6</ele>
        <time>2020-09-05T11:54:38Z</time>
      </trkpt>
      <trkpt lat="45.07198" lon="6.0185">
        <ele>743.6</ele>
        <time>2020-09-05T11:54:39Z</time>
      </trkpt>
      <trkpt lat="45.07193" lon="6.01852">
        <ele>743.6</ele>
        <time>2020-09-05T11:54:40Z</time>
      </trkpt>
      <trkpt lat="45.07187" lon="6.01853">
        <ele>743.6</ele>
        <time>2020-09-05T11:54:41Z</time>
      </trkpt>
      <trkpt lat="45.07182" lon="6.01855">
        <ele>743.6</ele>
        <time>2020-09-05T11:54:42Z</time>
      </trkpt>
      <trkpt lat="45.07177" lon="6.01858">
        <ele>743.4</ele>
        <time>2020-09-05T11:54:43Z</time>
      </trkpt>
      <trkpt lat="45.07173" lon="6.01862">
        <ele>743.4</ele>
        <time>2020-09-05T11:54:44Z</time>
      </trkpt>
      <trkpt lat="45.0717" lon="6.01868">
        <ele>743.2</ele>
        <time>2020-09-05T11:54:45Z</time>
      </trkpt>
      <trkpt lat="45.07168" lon="6.01874">
        <ele>742.8</ele>
        <time>2020-09-05T11:54:46Z</time>
      </trkpt>
      <trkpt lat="45.07169" lon="6.01881">
        <ele>743</ele>
        <time>2020-09-05T11:54:47Z</time>
      </trkpt>
      <trkpt lat="45.0717" lon="6.01889">
        <ele>743</ele>
        <time>2020-09-05T11:54:48Z</time>
      </trkpt>
      <trkpt lat="45.07172" lon="6.01896">
        <ele>743</ele>
        <time>2020-09-05T11:54:49Z</time>
      </trkpt>
      <trkpt lat="45.07173" lon="6.01903">
        <ele>742.6</ele>
        <time>2020-09-05T11:54:50Z</time>
      </trkpt>
      <trkpt lat="45.07174" lon="6.0191">
        <ele>742.4</ele>
        <time>2020-09-05T11:54:51Z</time>
      </trkpt>
      <trkpt lat="45.07175" lon="6.01917">
        <ele>742.2</ele>
        <time>2020-09-05T11:54:52Z</time>
      </trkpt>
      <trkpt lat="45.07176" lon="6.01925">
        <ele>742.4</ele>
        <time>2020-09-05T11:54:53Z</time>
      </trkpt>
      <trkpt lat="45.07176" lon="6.01932">
        <ele>742.4</ele>
        <time>2020-09-05T11:54:54Z</time>
      </trkpt>
      <trkpt lat="45.07177" lon="6.0194">
        <ele>742.2</ele>
        <time>2020-09-05T11:54:55Z</time>
      </trkpt>
      <trkpt lat="45.07177" lon="6.01946">
        <ele>742.2</ele>
        <time>2020-09-05T11:54:56Z</time>
      </trkpt>
      <trkpt lat="45.07178" lon="6.01954">
        <ele>742.2</ele>
        <time>2020-09-05T11:54:57Z</time>
      </trkpt>
      <trkpt lat="45.07179" lon="6.01962">
        <ele>741.8</ele>
        <time>2020-09-05T11:54:58Z</time>
      </trkpt>
      <trkpt lat="45.07181" lon="6.01971">
        <ele>741.8</ele>
        <time>2020-09-05T11:54:59Z</time>
      </trkpt>
      <trkpt lat="45.07183" lon="6.0198">
        <ele>741.8</ele>
        <time>2020-09-05T11:55:00Z</time>
      </trkpt>
      <trkpt lat="45.07185" lon="6.01989">
        <ele>741.8</ele>
        <time>2020-09-05T11:55:01Z</time>
      </trkpt>
      <trkpt lat="45.07186" lon="6.01998">
        <ele>741.6</ele>
        <time>2020-09-05T11:55:02Z</time>
      </trkpt>
      <trkpt lat="45.07187" lon="6.02008">
        <ele>741.4</ele>
        <time>2020-09-05T11:55:03Z</time>
      </trkpt>
      <trkpt lat="45.07189" lon="6.02018">
        <ele>741.6</ele>
        <time>2020-09-05T11:55:04Z</time>
      </trkpt>
      <trkpt lat="45.0719" lon="6.02027">
        <ele>741.6</ele>
        <time>2020-09-05T11:55:05Z</time>
      </trkpt>
      <trkpt lat="45.07191" lon="6.02037">
        <ele>741.4</ele>
        <time>2020-09-05T11:55:06Z</time>
      </trkpt>
      <trkpt lat="45.07192" lon="6.02046">
        <ele>741.2</ele>
        <time>2020-09-05T11:55:07Z</time>
      </trkpt>
      <trkpt lat="45.07194" lon="6.02055">
        <ele>741</ele>
        <time>2020-09-05T11:55:08Z</time>
      </trkpt>
      <trkpt lat="45.07196" lon="6.02063">
        <ele>741.2</ele>
        <time>2020-09-05T11:55:09Z</time>
      </trkpt>
      <trkpt lat="45.07197" lon="6.02072">
        <ele>741</ele>
        <time>2020-09-05T11:55:10Z</time>
      </trkpt>
      <trkpt lat="45.07198" lon="6.0208">
        <ele>740.8</ele>
        <time>2020-09-05T11:55:11Z</time>
      </trkpt>
      <trkpt lat="45.07199" lon="6.0209">
        <ele>740.8</ele>
        <time>2020-09-05T11:55:12Z</time>
      </trkpt>
      <trkpt lat="45.07201" lon="6.02098">
        <ele>740.6</ele>
        <time>2020-09-05T11:55:13Z</time>
      </trkpt>
      <trkpt lat="45.07203" lon="6.02107">
        <ele>740.6</ele>
        <time>2020-09-05T11:55:14Z</time>
      </trkpt>
      <trkpt lat="45.07204" lon="6.02116">
        <ele>740.2</ele>
        <time>2020-09-05T11:55:15Z</time>
      </trkpt>
      <trkpt lat="45.07206" lon="6.02126">
        <ele>740.2</ele>
        <time>2020-09-05T11:55:16Z</time>
      </trkpt>
      <trkpt lat="45.07208" lon="6.02135">
        <ele>739.8</ele>
        <time>2020-09-05T11:55:17Z</time>
      </trkpt>
      <trkpt lat="45.0721" lon="6.02142">
        <ele>739.6</ele>
        <time>2020-09-05T11:55:18Z</time>
      </trkpt>
      <trkpt lat="45.07211" lon="6.02149">
        <ele>739.6</ele>
        <time>2020-09-05T11:55:19Z</time>
      </trkpt>
      <trkpt lat="45.07212" lon="6.02154">
        <ele>739.4</ele>
        <time>2020-09-05T11:55:20Z</time>
      </trkpt>
      <trkpt lat="45.07213" lon="6.02159">
        <ele>739.2</ele>
        <time>2020-09-05T11:55:21Z</time>
      </trkpt>
      <trkpt lat="45.07214" lon="6.02162">
        <ele>739</ele>
        <time>2020-09-05T11:55:22Z</time>
      </trkpt>
      <trkpt lat="45.07216" lon="6.02164">
        <ele>738.8</ele>
        <time>2020-09-05T11:55:23Z</time>
      </trkpt>
      <trkpt lat="45.07219" lon="6.02163">
        <ele>738.8</ele>
        <time>2020-09-05T11:55:25Z</time>
      </trkpt>
      <trkpt lat="45.07217" lon="6.02159">
        <ele>738.8</ele>
        <time>2020-09-05T11:55:27Z</time>
      </trkpt>
      <trkpt lat="45.07215" lon="6.02157">
        <ele>739</ele>
        <time>2020-09-05T11:55:28Z</time>
      </trkpt>
      <trkpt lat="45.07213" lon="6.02155">
        <ele>739</ele>
        <time>2020-09-05T11:55:29Z</time>
      </trkpt>
      <trkpt lat="45.07212" lon="6.02152">
        <ele>739</ele>
        <time>2020-09-05T11:55:30Z</time>
      </trkpt>
      <trkpt lat="45.07211" lon="6.02148">
        <ele>739</ele>
        <time>2020-09-05T11:55:31Z</time>
      </trkpt>
      <trkpt lat="45.0721" lon="6.02143">
        <ele>739</ele>
        <time>2020-09-05T11:55:32Z</time>
      </trkpt>
      <trkpt lat="45.0721" lon="6.02139">
        <ele>739.2</ele>
        <time>2020-09-05T11:55:33Z</time>
      </trkpt>
      <trkpt lat="45.07209" lon="6.02134">
        <ele>739.2</ele>
        <time>2020-09-05T11:55:34Z</time>
      </trkpt>
      <trkpt lat="45.07208" lon="6.02128">
        <ele>739.4</ele>
        <time>2020-09-05T11:55:35Z</time>
      </trkpt>
      <trkpt lat="45.07207" lon="6.02123">
        <ele>739.4</ele>
        <time>2020-09-05T11:55:36Z</time>
      </trkpt>
      <trkpt lat="45.07206" lon="6.02117">
        <ele>739.4</ele>
        <time>2020-09-05T11:55:37Z</time>
      </trkpt>
      <trkpt lat="45.07205" lon="6.02111">
        <ele>739.4</ele>
        <time>2020-09-05T11:55:38Z</time>
      </trkpt>
      <trkpt lat="45.07204" lon="6.02106">
        <ele>739.6</ele>
        <time>2020-09-05T11:55:39Z</time>
      </trkpt>
      <trkpt lat="45.07203" lon="6.021">
        <ele>739.6</ele>
        <time>2020-09-05T11:55:40Z</time>
      </trkpt>
      <trkpt lat="45.07201" lon="6.02095">
        <ele>739.6</ele>
        <time>2020-09-05T11:55:41Z</time>
      </trkpt>
      <trkpt lat="45.072" lon="6.02089">
        <ele>739.6</ele>
        <time>2020-09-05T11:55:42Z</time>
      </trkpt>
      <trkpt lat="45.07199" lon="6.02083">
        <ele>739.6</ele>
        <time>2020-09-05T11:55:43Z</time>
      </trkpt>
      <trkpt lat="45.07198" lon="6.02077">
        <ele>739.8</ele>
        <time>2020-09-05T11:55:44Z</time>
      </trkpt>
      <trkpt lat="45.07197" lon="6.0207">
        <ele>739.8</ele>
        <time>2020-09-05T11:55:45Z</time>
      </trkpt>
      <trkpt lat="45.07197" lon="6.02064">
        <ele>740</ele>
        <time>2020-09-05T11:55:46Z</time>
      </trkpt>
      <trkpt lat="45.07196" lon="6.02058">
        <ele>740</ele>
        <time>2020-09-05T11:55:47Z</time>
      </trkpt>
      <trkpt lat="45.07195" lon="6.02052">
        <ele>740.2</ele>
        <time>2020-09-05T11:55:48Z</time>
      </trkpt>
      <trkpt lat="45.07194" lon="6.02047">
        <ele>740.2</ele>
        <time>2020-09-05T11:55:49Z</time>
      </trkpt>
      <trkpt lat="45.07192" lon="6.02041">
        <ele>740.2</ele>
        <time>2020-09-05T11:55:50Z</time>
      </trkpt>
      <trkpt lat="45.07191" lon="6.02035">
        <ele>740.4</ele>
        <time>2020-09-05T11:55:51Z</time>
      </trkpt>
      <trkpt lat="45.0719" lon="6.02029">
        <ele>740.4</ele>
        <time>2020-09-05T11:55:52Z</time>
      </trkpt>
      <trkpt lat="45.07189" lon="6.02023">
        <ele>740.6</ele>
        <time>2020-09-05T11:55:53Z</time>
      </trkpt>
      <trkpt lat="45.07188" lon="6.02017">
        <ele>740.4</ele>
        <time>2020-09-05T11:55:54Z</time>
      </trkpt>
      <trkpt lat="45.07187" lon="6.0201">
        <ele>740.4</ele>
        <time>2020-09-05T11:55:55Z</time>
      </trkpt>
      <trkpt lat="45.07187" lon="6.02003">
        <ele>740.6</ele>
        <time>2020-09-05T11:55:56Z</time>
      </trkpt>
      <trkpt lat="45.07186" lon="6.01997">
        <ele>740.6</ele>
        <time>2020-09-05T11:55:57Z</time>
      </trkpt>
      <trkpt lat="45.07184" lon="6.0199">
        <ele>740.6</ele>
        <time>2020-09-05T11:55:58Z</time>
      </trkpt>
      <trkpt lat="45.07184" lon="6.01984">
        <ele>740.8</ele>
        <time>2020-09-05T11:55:59Z</time>
      </trkpt>
      <trkpt lat="45.07183" lon="6.01977">
        <ele>740.8</ele>
        <time>2020-09-05T11:56:00Z</time>
      </trkpt>
      <trkpt lat="45.07182" lon="6.01971">
        <ele>740.8</ele>
        <time>2020-09-05T11:56:01Z</time>
      </trkpt>
      <trkpt lat="45.0718" lon="6.01964">
        <ele>740.8</ele>
        <time>2020-09-05T11:56:02Z</time>
      </trkpt>
      <trkpt lat="45.0718" lon="6.01958">
        <ele>740.8</ele>
        <time>2020-09-05T11:56:03Z</time>
      </trkpt>
      <trkpt lat="45.07179" lon="6.01951">
        <ele>740.8</ele>
        <time>2020-09-05T11:56:04Z</time>
      </trkpt>
      <trkpt lat="45.07178" lon="6.01945">
        <ele>740.8</ele>
        <time>2020-09-05T11:56:05Z</time>
      </trkpt>
      <trkpt lat="45.07178" lon="6.01939">
        <ele>741</ele>
        <time>2020-09-05T11:56:06Z</time>
      </trkpt>
      <trkpt lat="45.07177" lon="6.01933">
        <ele>741</ele>
        <time>2020-09-05T11:56:07Z</time>
      </trkpt>
      <trkpt lat="45.07177" lon="6.01927">
        <ele>741.6</ele>
        <time>2020-09-05T11:56:08Z</time>
      </trkpt>
      <trkpt lat="45.07177" lon="6.0192">
        <ele>741.8</ele>
        <time>2020-09-05T11:56:09Z</time>
      </trkpt>
      <trkpt lat="45.07177" lon="6.01914">
        <ele>741.8</ele>
        <time>2020-09-05T11:56:10Z</time>
      </trkpt>
      <trkpt lat="45.07176" lon="6.01908">
        <ele>741.8</ele>
        <time>2020-09-05T11:56:11Z</time>
      </trkpt>
      <trkpt lat="45.07175" lon="6.01903">
        <ele>742.2</ele>
        <time>2020-09-05T11:56:12Z</time>
      </trkpt>
      <trkpt lat="45.07174" lon="6.01898">
        <ele>742.2</ele>
        <time>2020-09-05T11:56:13Z</time>
      </trkpt>
      <trkpt lat="45.07173" lon="6.01893">
        <ele>742.2</ele>
        <time>2020-09-05T11:56:14Z</time>
      </trkpt>
      <trkpt lat="45.07172" lon="6.01889">
        <ele>742.2</ele>
        <time>2020-09-05T11:56:15Z</time>
      </trkpt>
      <trkpt lat="45.07171" lon="6.01884">
        <ele>742</ele>
        <time>2020-09-05T11:56:16Z</time>
      </trkpt>
      <trkpt lat="45.07171" lon="6.0188">
        <ele>742</ele>
        <time>2020-09-05T11:56:17Z</time>
      </trkpt>
      <trkpt lat="45.0717" lon="6.01877">
        <ele>742.2</ele>
        <time>2020-09-05T11:56:18Z</time>
      </trkpt>
      <trkpt lat="45.0717" lon="6.01873">
        <ele>742.4</ele>
        <time>2020-09-05T11:56:19Z</time>
      </trkpt>
      <trkpt lat="45.0717" lon="6.01869">
        <ele>742.4</ele>
        <time>2020-09-05T11:56:20Z</time>
      </trkpt>
      <trkpt lat="45.07171" lon="6.01865">
        <ele>742.6</ele>
        <time>2020-09-05T11:56:21Z</time>
      </trkpt>
      <trkpt lat="45.07173" lon="6.01862">
        <ele>742.8</ele>
        <time>2020-09-05T11:56:22Z</time>
      </trkpt>
      <trkpt lat="45.07176" lon="6.01859">
        <ele>743</ele>
        <time>2020-09-05T11:56:23Z</time>
      </trkpt>
      <trkpt lat="45.0718" lon="6.01857">
        <ele>743.2</ele>
        <time>2020-09-05T11:56:24Z</time>
      </trkpt>
      <trkpt lat="45.07184" lon="6.01856">
        <ele>743.2</ele>
        <time>2020-09-05T11:56:25Z</time>
      </trkpt>
      <trkpt lat="45.07188" lon="6.01854">
        <ele>743.2</ele>
        <time>2020-09-05T11:56:26Z</time>
      </trkpt>
      <trkpt lat="45.07192" lon="6.01853">
        <ele>743.4</ele>
        <time>2020-09-05T11:56:27Z</time>
      </trkpt>
      <trkpt lat="45.07196" lon="6.01852">
        <ele>743.2</ele>
        <time>2020-09-05T11:56:28Z</time>
      </trkpt>
      <trkpt lat="45.07199" lon="6.01851">
        <ele>743.4</ele>
        <time>2020-09-05T11:56:29Z</time>
      </trkpt>
      <trkpt lat="45.07203" lon="6.0185">
        <ele>743.2</ele>
        <time>2020-09-05T11:56:30Z</time>
      </trkpt>
      <trkpt lat="45.07206" lon="6.01849">
        <ele>743.2</ele>
        <time>2020-09-05T11:56:31Z</time>
      </trkpt>
      <trkpt lat="45.0721" lon="6.01849">
        <ele>743</ele>
        <time>2020-09-05T11:56:32Z</time>
      </trkpt>
      <trkpt lat="45.07214" lon="6.01848">
        <ele>743</ele>
        <time>2020-09-05T11:56:33Z</time>
      </trkpt>
      <trkpt lat="45.07218" lon="6.01847">
        <ele>743.2</ele>
        <time>2020-09-05T11:56:34Z</time>
      </trkpt>
      <trkpt lat="45.07222" lon="6.01847">
        <ele>743.6</ele>
        <time>2020-09-05T11:56:35Z</time>
      </trkpt>
      <trkpt lat="45.07225" lon="6.01846">
        <ele>743.6</ele>
        <time>2020-09-05T11:56:36Z</time>
      </trkpt>
      <trkpt lat="45.07228" lon="6.01844">
        <ele>744</ele>
        <time>2020-09-05T11:56:37Z</time>
      </trkpt>
      <trkpt lat="45.0723" lon="6.01842">
        <ele>744</ele>
        <time>2020-09-05T11:56:38Z</time>
      </trkpt>
      <trkpt lat="45.07232" lon="6.01839">
        <ele>743.8</ele>
        <time>2020-09-05T11:56:39Z</time>
      </trkpt>
      <trkpt lat="45.07234" lon="6.01835">
        <ele>744</ele>
        <time>2020-09-05T11:56:40Z</time>
      </trkpt>
      <trkpt lat="45.07235" lon="6.01831">
        <ele>744.2</ele>
        <time>2020-09-05T11:56:41Z</time>
      </trkpt>
      <trkpt lat="45.07237" lon="6.01827">
        <ele>744.4</ele>
        <time>2020-09-05T11:56:42Z</time>
      </trkpt>
      <trkpt lat="45.07239" lon="6.01823">
        <ele>744.6</ele>
        <time>2020-09-05T11:56:43Z</time>
      </trkpt>
      <trkpt lat="45.07239" lon="6.01818">
        <ele>745</ele>
        <time>2020-09-05T11:56:44Z</time>
      </trkpt>
      <trkpt lat="45.0724" lon="6.01814">
        <ele>745.2</ele>
        <time>2020-09-05T11:56:45Z</time>
      </trkpt>
      <trkpt lat="45.0724" lon="6.01809">
        <ele>745.2</ele>
        <time>2020-09-05T11:56:46Z</time>
      </trkpt>
      <trkpt lat="45.0724" lon="6.01805">
        <ele>745.2</ele>
        <time>2020-09-05T11:56:47Z</time>
      </trkpt>
      <trkpt lat="45.07241" lon="6.018">
        <ele>745.2</ele>
        <time>2020-09-05T11:56:48Z</time>
      </trkpt>
      <trkpt lat="45.07243" lon="6.01796">
        <ele>745</ele>
        <time>2020-09-05T11:56:49Z</time>
      </trkpt>
      <trkpt lat="45.07245" lon="6.01792">
        <ele>745</ele>
        <time>2020-09-05T11:56:50Z</time>
      </trkpt>
      <trkpt lat="45.07248" lon="6.01788">
        <ele>745</ele>
        <time>2020-09-05T11:56:51Z</time>
      </trkpt>
      <trkpt lat="45.07252" lon="6.01785">
        <ele>745</ele>
        <time>2020-09-05T11:56:52Z</time>
      </trkpt>
      <trkpt lat="45.07255" lon="6.01782">
        <ele>745.2</ele>
        <time>2020-09-05T11:56:53Z</time>
      </trkpt>
      <trkpt lat="45.07259" lon="6.01779">
        <ele>745.2</ele>
        <time>2020-09-05T11:56:54Z</time>
      </trkpt>
      <trkpt lat="45.07263" lon="6.01775">
        <ele>745.2</ele>
        <time>2020-09-05T11:56:55Z</time>
      </trkpt>
      <trkpt lat="45.07268" lon="6.01772">
        <ele>745.4</ele>
        <time>2020-09-05T11:56:56Z</time>
      </trkpt>
      <trkpt lat="45.07272" lon="6.01769">
        <ele>746.2</ele>
        <time>2020-09-05T11:56:57Z</time>
      </trkpt>
      <trkpt lat="45.07276" lon="6.01765">
        <ele>746</ele>
        <time>2020-09-05T11:56:58Z</time>
      </trkpt>
      <trkpt lat="45.07281" lon="6.01762">
        <ele>746.2</ele>
        <time>2020-09-05T11:56:59Z</time>
      </trkpt>
      <trkpt lat="45.07285" lon="6.01758">
        <ele>745.6</ele>
        <time>2020-09-05T11:57:00Z</time>
      </trkpt>
      <trkpt lat="45.0729" lon="6.01754">
        <ele>746</ele>
        <time>2020-09-05T11:57:01Z</time>
      </trkpt>
      <trkpt lat="45.07294" lon="6.0175">
        <ele>746.2</ele>
        <time>2020-09-05T11:57:02Z</time>
      </trkpt>
      <trkpt lat="45.07299" lon="6.01747">
        <ele>746.4</ele>
        <time>2020-09-05T11:57:03Z</time>
      </trkpt>
      <trkpt lat="45.07303" lon="6.01743">
        <ele>746.6</ele>
        <time>2020-09-05T11:57:04Z</time>
      </trkpt>
      <trkpt lat="45.07307" lon="6.01739">
        <ele>746.8</ele>
        <time>2020-09-05T11:57:05Z</time>
      </trkpt>
      <trkpt lat="45.07312" lon="6.01735">
        <ele>747</ele>
        <time>2020-09-05T11:57:06Z</time>
      </trkpt>
      <trkpt lat="45.07316" lon="6.01732">
        <ele>747</ele>
        <time>2020-09-05T11:57:07Z</time>
      </trkpt>
      <trkpt lat="45.0732" lon="6.01728">
        <ele>747.2</ele>
        <time>2020-09-05T11:57:08Z</time>
      </trkpt>
      <trkpt lat="45.07325" lon="6.01724">
        <ele>747</ele>
        <time>2020-09-05T11:57:09Z</time>
      </trkpt>
      <trkpt lat="45.07329" lon="6.0172">
        <ele>747.2</ele>
        <time>2020-09-05T11:57:10Z</time>
      </trkpt>
      <trkpt lat="45.07333" lon="6.01716">
        <ele>747.2</ele>
        <time>2020-09-05T11:57:11Z</time>
      </trkpt>
      <trkpt lat="45.07337" lon="6.01712">
        <ele>747.4</ele>
        <time>2020-09-05T11:57:12Z</time>
      </trkpt>
      <trkpt lat="45.07341" lon="6.01708">
        <ele>747.6</ele>
        <time>2020-09-05T11:57:13Z</time>
      </trkpt>
      <trkpt lat="45.07345" lon="6.01705">
        <ele>747.8</ele>
        <time>2020-09-05T11:57:14Z</time>
      </trkpt>
      <trkpt lat="45.07349" lon="6.01701">
        <ele>748</ele>
        <time>2020-09-05T11:57:15Z</time>
      </trkpt>
      <trkpt lat="45.07353" lon="6.01697">
        <ele>748.2</ele>
        <time>2020-09-05T11:57:16Z</time>
      </trkpt>
      <trkpt lat="45.07357" lon="6.01693">
        <ele>748.4</ele>
        <time>2020-09-05T11:57:17Z</time>
      </trkpt>
      <trkpt lat="45.07361" lon="6.0169">
        <ele>748.8</ele>
        <time>2020-09-05T11:57:18Z</time>
      </trkpt>
      <trkpt lat="45.07365" lon="6.01687">
        <ele>749.2</ele>
        <time>2020-09-05T11:57:19Z</time>
      </trkpt>
      <trkpt lat="45.0737" lon="6.01684">
        <ele>749</ele>
        <time>2020-09-05T11:57:20Z</time>
      </trkpt>
      <trkpt lat="45.07374" lon="6.01681">
        <ele>749.2</ele>
        <time>2020-09-05T11:57:21Z</time>
      </trkpt>
      <trkpt lat="45.07378" lon="6.01677">
        <ele>749.8</ele>
        <time>2020-09-05T11:57:22Z</time>
      </trkpt>
      <trkpt lat="45.07382" lon="6.01674">
        <ele>749.8</ele>
        <time>2020-09-05T11:57:23Z</time>
      </trkpt>
      <trkpt lat="45.07386" lon="6.01671">
        <ele>749.8</ele>
        <time>2020-09-05T11:57:24Z</time>
      </trkpt>
      <trkpt lat="45.0739" lon="6.01668">
        <ele>749.6</ele>
        <time>2020-09-05T11:57:25Z</time>
      </trkpt>
      <trkpt lat="45.07394" lon="6.01666">
        <ele>749.6</ele>
        <time>2020-09-05T11:57:26Z</time>
      </trkpt>
      <trkpt lat="45.07397" lon="6.01664">
        <ele>749.6</ele>
        <time>2020-09-05T11:57:27Z</time>
      </trkpt>
      <trkpt lat="45.074" lon="6.01663">
        <ele>749.6</ele>
        <time>2020-09-05T11:57:28Z</time>
      </trkpt>
      <trkpt lat="45.07402" lon="6.01665">
        <ele>749.4</ele>
        <time>2020-09-05T11:57:29Z</time>
      </trkpt>
      <trkpt lat="45.07405" lon="6.01668">
        <ele>749.4</ele>
        <time>2020-09-05T11:57:30Z</time>
      </trkpt>
      <trkpt lat="45.07408" lon="6.01671">
        <ele>749.2</ele>
        <time>2020-09-05T11:57:31Z</time>
      </trkpt>
      <trkpt lat="45.0741" lon="6.01675">
        <ele>749</ele>
        <time>2020-09-05T11:57:32Z</time>
      </trkpt>
      <trkpt lat="45.07412" lon="6.01678">
        <ele>749</ele>
        <time>2020-09-05T11:57:33Z</time>
      </trkpt>
      <trkpt lat="45.07413" lon="6.01681">
        <ele>748.8</ele>
        <time>2020-09-05T11:57:34Z</time>
      </trkpt>
      <trkpt lat="45.07415" lon="6.01683">
        <ele>748.4</ele>
        <time>2020-09-05T11:57:36Z</time>
      </trkpt>
      <trkpt lat="45.07414" lon="6.01681">
        <ele>747.8</ele>
        <time>2020-09-05T11:58:05Z</time>
      </trkpt>
      <trkpt lat="45.07413" lon="6.01678">
        <ele>748.2</ele>
        <time>2020-09-05T11:58:07Z</time>
      </trkpt>
      <trkpt lat="45.0741" lon="6.01674">
        <ele>748.4</ele>
        <time>2020-09-05T11:58:09Z</time>
      </trkpt>
      <trkpt lat="45.07409" lon="6.01672">
        <ele>748.8</ele>
        <time>2020-09-05T11:58:10Z</time>
      </trkpt>
      <trkpt lat="45.07407" lon="6.01669">
        <ele>749</ele>
        <time>2020-09-05T11:58:11Z</time>
      </trkpt>
      <trkpt lat="45.07405" lon="6.01668">
        <ele>749.2</ele>
        <time>2020-09-05T11:58:12Z</time>
      </trkpt>
      <trkpt lat="45.07403" lon="6.01665">
        <ele>749.4</ele>
        <time>2020-09-05T11:58:14Z</time>
      </trkpt>
      <trkpt lat="45.07403" lon="6.0166">
        <ele>749.4</ele>
        <time>2020-09-05T11:58:16Z</time>
      </trkpt>
      <trkpt lat="45.07404" lon="6.01658">
        <ele>749.6</ele>
        <time>2020-09-05T11:58:17Z</time>
      </trkpt>
      <trkpt lat="45.07406" lon="6.01655">
        <ele>749.6</ele>
        <time>2020-09-05T11:58:18Z</time>
      </trkpt>
      <trkpt lat="45.07409" lon="6.01653">
        <ele>749.8</ele>
        <time>2020-09-05T11:58:19Z</time>
      </trkpt>
      <trkpt lat="45.07412" lon="6.01651">
        <ele>749.6</ele>
        <time>2020-09-05T11:58:20Z</time>
      </trkpt>
      <trkpt lat="45.07415" lon="6.01649">
        <ele>749.8</ele>
        <time>2020-09-05T11:58:21Z</time>
      </trkpt>
      <trkpt lat="45.07418" lon="6.01647">
        <ele>750.2</ele>
        <time>2020-09-05T11:58:22Z</time>
      </trkpt>
      <trkpt lat="45.0742" lon="6.01645">
        <ele>750.2</ele>
        <time>2020-09-05T11:58:23Z</time>
      </trkpt>
      <trkpt lat="45.07422" lon="6.01643">
        <ele>750.2</ele>
        <time>2020-09-05T11:58:24Z</time>
      </trkpt>
      <trkpt lat="45.07425" lon="6.01645">
        <ele>750</ele>
        <time>2020-09-05T11:58:26Z</time>
      </trkpt>
      <trkpt lat="45.07425" lon="6.01647">
        <ele>749.8</ele>
        <time>2020-09-05T11:58:27Z</time>
      </trkpt>
      <trkpt lat="45.07427" lon="6.01651">
        <ele>749.4</ele>
        <time>2020-09-05T11:58:28Z</time>
      </trkpt>
      <trkpt lat="45.07428" lon="6.01655">
        <ele>749.4</ele>
        <time>2020-09-05T11:58:29Z</time>
      </trkpt>
      <trkpt lat="45.07429" lon="6.01659">
        <ele>749</ele>
        <time>2020-09-05T11:58:30Z</time>
      </trkpt>
      <trkpt lat="45.07431" lon="6.01664">
        <ele>749.2</ele>
        <time>2020-09-05T11:58:31Z</time>
      </trkpt>
      <trkpt lat="45.07432" lon="6.01669">
        <ele>748.6</ele>
        <time>2020-09-05T11:58:32Z</time>
      </trkpt>
      <trkpt lat="45.07433" lon="6.01675">
        <ele>748.4</ele>
        <time>2020-09-05T11:58:33Z</time>
      </trkpt>
      <trkpt lat="45.07434" lon="6.0168">
        <ele>748</ele>
        <time>2020-09-05T11:58:34Z</time>
      </trkpt>
      <trkpt lat="45.07436" lon="6.01685">
        <ele>748</ele>
        <time>2020-09-05T11:58:35Z</time>
      </trkpt>
      <trkpt lat="45.07438" lon="6.01689">
        <ele>748</ele>
        <time>2020-09-05T11:58:36Z</time>
      </trkpt>
      <trkpt lat="45.07441" lon="6.01694">
        <ele>748.2</ele>
        <time>2020-09-05T11:58:37Z</time>
      </trkpt>
      <trkpt lat="45.07443" lon="6.01699">
        <ele>748.2</ele>
        <time>2020-09-05T11:58:38Z</time>
      </trkpt>
      <trkpt lat="45.07447" lon="6.01705">
        <ele>748.6</ele>
        <time>2020-09-05T11:58:39Z</time>
      </trkpt>
      <trkpt lat="45.0745" lon="6.01711">
        <ele>748.4</ele>
        <time>2020-09-05T11:58:40Z</time>
      </trkpt>
      <trkpt lat="45.07454" lon="6.01717">
        <ele>748.4</ele>
        <time>2020-09-05T11:58:41Z</time>
      </trkpt>
      <trkpt lat="45.07459" lon="6.01722">
        <ele>748.4</ele>
        <time>2020-09-05T11:58:42Z</time>
      </trkpt>
      <trkpt lat="45.07463" lon="6.01728">
        <ele>748.6</ele>
        <time>2020-09-05T11:58:43Z</time>
      </trkpt>
      <trkpt lat="45.07468" lon="6.01733">
        <ele>748.4</ele>
        <time>2020-09-05T11:58:44Z</time>
      </trkpt>
      <trkpt lat="45.07473" lon="6.01739">
        <ele>748.6</ele>
        <time>2020-09-05T11:58:45Z</time>
      </trkpt>
      <trkpt lat="45.07478" lon="6.01744">
        <ele>748.4</ele>
        <time>2020-09-05T11:58:46Z</time>
      </trkpt>
      <trkpt lat="45.07483" lon="6.01749">
        <ele>748.2</ele>
        <time>2020-09-05T11:58:47Z</time>
      </trkpt>
      <trkpt lat="45.07489" lon="6.01754">
        <ele>748.2</ele>
        <time>2020-09-05T11:58:48Z</time>
      </trkpt>
      <trkpt lat="45.07495" lon="6.01759">
        <ele>748.2</ele>
        <time>2020-09-05T11:58:49Z</time>
      </trkpt>
      <trkpt lat="45.07502" lon="6.01763">
        <ele>748.2</ele>
        <time>2020-09-05T11:58:50Z</time>
      </trkpt>
      <trkpt lat="45.07508" lon="6.01767">
        <ele>748.2</ele>
        <time>2020-09-05T11:58:51Z</time>
      </trkpt>
      <trkpt lat="45.07515" lon="6.01771">
        <ele>748</ele>
        <time>2020-09-05T11:58:52Z</time>
      </trkpt>
      <trkpt lat="45.07522" lon="6.01775">
        <ele>748</ele>
        <time>2020-09-05T11:58:53Z</time>
      </trkpt>
      <trkpt lat="45.07529" lon="6.01778">
        <ele>748</ele>
        <time>2020-09-05T11:58:54Z</time>
      </trkpt>
      <trkpt lat="45.07536" lon="6.01782">
        <ele>747.8</ele>
        <time>2020-09-05T11:58:55Z</time>
      </trkpt>
      <trkpt lat="45.07544" lon="6.01785">
        <ele>747.8</ele>
        <time>2020-09-05T11:58:56Z</time>
      </trkpt>
      <trkpt lat="45.07551" lon="6.01788">
        <ele>747.8</ele>
        <time>2020-09-05T11:58:57Z</time>
      </trkpt>
      <trkpt lat="45.07559" lon="6.01791">
        <ele>747.8</ele>
        <time>2020-09-05T11:58:58Z</time>
      </trkpt>
      <trkpt lat="45.07567" lon="6.01794">
        <ele>747.6</ele>
        <time>2020-09-05T11:58:59Z</time>
      </trkpt>
      <trkpt lat="45.07575" lon="6.01796">
        <ele>747.8</ele>
        <time>2020-09-05T11:59:00Z</time>
      </trkpt>
      <trkpt lat="45.07583" lon="6.01798">
        <ele>747.8</ele>
        <time>2020-09-05T11:59:01Z</time>
      </trkpt>
      <trkpt lat="45.0759" lon="6.018">
        <ele>747.8</ele>
        <time>2020-09-05T11:59:02Z</time>
      </trkpt>
      <trkpt lat="45.07598" lon="6.01802">
        <ele>747.6</ele>
        <time>2020-09-05T11:59:03Z</time>
      </trkpt>
      <trkpt lat="45.07606" lon="6.01803">
        <ele>747.8</ele>
        <time>2020-09-05T11:59:04Z</time>
      </trkpt>
      <trkpt lat="45.07615" lon="6.01804">
        <ele>747.6</ele>
        <time>2020-09-05T11:59:05Z</time>
      </trkpt>
      <trkpt lat="45.07622" lon="6.01806">
        <ele>747.4</ele>
        <time>2020-09-05T11:59:06Z</time>
      </trkpt>
      <trkpt lat="45.0763" lon="6.01807">
        <ele>747.4</ele>
        <time>2020-09-05T11:59:07Z</time>
      </trkpt>
      <trkpt lat="45.07638" lon="6.01807">
        <ele>747.4</ele>
        <time>2020-09-05T11:59:08Z</time>
      </trkpt>
      <trkpt lat="45.07647" lon="6.01808">
        <ele>747.4</ele>
        <time>2020-09-05T11:59:09Z</time>
      </trkpt>
      <trkpt lat="45.07655" lon="6.01808">
        <ele>747.4</ele>
        <time>2020-09-05T11:59:10Z</time>
      </trkpt>
      <trkpt lat="45.07663" lon="6.01808">
        <ele>747.2</ele>
        <time>2020-09-05T11:59:11Z</time>
      </trkpt>
      <trkpt lat="45.07671" lon="6.01807">
        <ele>746.8</ele>
        <time>2020-09-05T11:59:12Z</time>
      </trkpt>
      <trkpt lat="45.07679" lon="6.01807">
        <ele>746.6</ele>
        <time>2020-09-05T11:59:13Z</time>
      </trkpt>
      <trkpt lat="45.07687" lon="6.01806">
        <ele>746.6</ele>
        <time>2020-09-05T11:59:14Z</time>
      </trkpt>
      <trkpt lat="45.07695" lon="6.01806">
        <ele>746.4</ele>
        <time>2020-09-05T11:59:15Z</time>
      </trkpt>
      <trkpt lat="45.07702" lon="6.01806">
        <ele>746.2</ele>
        <time>2020-09-05T11:59:16Z</time>
      </trkpt>
      <trkpt lat="45.0771" lon="6.01806">
        <ele>746</ele>
        <time>2020-09-05T11:59:17Z</time>
      </trkpt>
      <trkpt lat="45.07718" lon="6.01805">
        <ele>746</ele>
        <time>2020-09-05T11:59:18Z</time>
      </trkpt>
      <trkpt lat="45.07726" lon="6.01805">
        <ele>746</ele>
        <time>2020-09-05T11:59:19Z</time>
      </trkpt>
      <trkpt lat="45.07733" lon="6.01805">
        <ele>746.2</ele>
        <time>2020-09-05T11:59:20Z</time>
      </trkpt>
      <trkpt lat="45.07741" lon="6.01805">
        <ele>746</ele>
        <time>2020-09-05T11:59:21Z</time>
      </trkpt>
      <trkpt lat="45.07749" lon="6.01805">
        <ele>745.8</ele>
        <time>2020-09-05T11:59:22Z</time>
      </trkpt>
      <trkpt lat="45.07758" lon="6.01805">
        <ele>745.8</ele>
        <time>2020-09-05T11:59:23Z</time>
      </trkpt>
      <trkpt lat="45.07766" lon="6.01805">
        <ele>746</ele>
        <time>2020-09-05T11:59:24Z</time>
      </trkpt>
      <trkpt lat="45.07774" lon="6.01805">
        <ele>745.8</ele>
        <time>2020-09-05T11:59:25Z</time>
      </trkpt>
      <trkpt lat="45.07782" lon="6.01804">
        <ele>745.8</ele>
        <time>2020-09-05T11:59:26Z</time>
      </trkpt>
      <trkpt lat="45.07791" lon="6.01804">
        <ele>746</ele>
        <time>2020-09-05T11:59:27Z</time>
      </trkpt>
      <trkpt lat="45.07799" lon="6.01804">
        <ele>746</ele>
        <time>2020-09-05T11:59:28Z</time>
      </trkpt>
      <trkpt lat="45.07807" lon="6.01804">
        <ele>745.6</ele>
        <time>2020-09-05T11:59:29Z</time>
      </trkpt>
      <trkpt lat="45.07815" lon="6.01803">
        <ele>745.6</ele>
        <time>2020-09-05T11:59:30Z</time>
      </trkpt>
      <trkpt lat="45.07823" lon="6.01803">
        <ele>745.4</ele>
        <time>2020-09-05T11:59:31Z</time>
      </trkpt>
      <trkpt lat="45.07832" lon="6.01803">
        <ele>745.2</ele>
        <time>2020-09-05T11:59:32Z</time>
      </trkpt>
      <trkpt lat="45.0784" lon="6.01803">
        <ele>745.2</ele>
        <time>2020-09-05T11:59:33Z</time>
      </trkpt>
      <trkpt lat="45.07848" lon="6.01803">
        <ele>745.4</ele>
        <time>2020-09-05T11:59:34Z</time>
      </trkpt>
      <trkpt lat="45.07857" lon="6.01802">
        <ele>745.4</ele>
        <time>2020-09-05T11:59:35Z</time>
      </trkpt>
      <trkpt lat="45.07865" lon="6.01802">
        <ele>745.4</ele>
        <time>2020-09-05T11:59:36Z</time>
      </trkpt>
      <trkpt lat="45.07873" lon="6.01802">
        <ele>745.2</ele>
        <time>2020-09-05T11:59:37Z</time>
      </trkpt>
      <trkpt lat="45.07881" lon="6.01802">
        <ele>745.4</ele>
        <time>2020-09-05T11:59:38Z</time>
      </trkpt>
      <trkpt lat="45.07889" lon="6.01801">
        <ele>745.2</ele>
        <time>2020-09-05T11:59:39Z</time>
      </trkpt>
      <trkpt lat="45.07897" lon="6.01801">
        <ele>745.2</ele>
        <time>2020-09-05T11:59:40Z</time>
      </trkpt>
      <trkpt lat="45.07906" lon="6.01801">
        <ele>745</ele>
        <time>2020-09-05T11:59:41Z</time>
      </trkpt>
      <trkpt lat="45.07914" lon="6.01801">
        <ele>744.8</ele>
        <time>2020-09-05T11:59:42Z</time>
      </trkpt>
      <trkpt lat="45.07922" lon="6.01801">
        <ele>744.8</ele>
        <time>2020-09-05T11:59:43Z</time>
      </trkpt>
      <trkpt lat="45.0793" lon="6.018">
        <ele>744.4</ele>
        <time>2020-09-05T11:59:44Z</time>
      </trkpt>
      <trkpt lat="45.07938" lon="6.018">
        <ele>744.8</ele>
        <time>2020-09-05T11:59:45Z</time>
      </trkpt>
      <trkpt lat="45.07946" lon="6.018">
        <ele>744.4</ele>
        <time>2020-09-05T11:59:46Z</time>
      </trkpt>
      <trkpt lat="45.07954" lon="6.018">
        <ele>744.4</ele>
        <time>2020-09-05T11:59:47Z</time>
      </trkpt>
      <trkpt lat="45.07962" lon="6.018">
        <ele>744.6</ele>
        <time>2020-09-05T11:59:48Z</time>
      </trkpt>
      <trkpt lat="45.0797" lon="6.01799">
        <ele>744.4</ele>
        <time>2020-09-05T11:59:49Z</time>
      </trkpt>
      <trkpt lat="45.07978" lon="6.01799">
        <ele>744.2</ele>
        <time>2020-09-05T11:59:50Z</time>
      </trkpt>
      <trkpt lat="45.07986" lon="6.01799">
        <ele>744.2</ele>
        <time>2020-09-05T11:59:51Z</time>
      </trkpt>
      <trkpt lat="45.07994" lon="6.01799">
        <ele>744</ele>
        <time>2020-09-05T11:59:52Z</time>
      </trkpt>
      <trkpt lat="45.08002" lon="6.01799">
        <ele>744</ele>
        <time>2020-09-05T11:59:53Z</time>
      </trkpt>
      <trkpt lat="45.0801" lon="6.01799">
        <ele>743.8</ele>
        <time>2020-09-05T11:59:54Z</time>
      </trkpt>
      <trkpt lat="45.08018" lon="6.01798">
        <ele>743.8</ele>
        <time>2020-09-05T11:59:55Z</time>
      </trkpt>
      <trkpt lat="45.08025" lon="6.01798">
        <ele>743.4</ele>
        <time>2020-09-05T11:59:56Z</time>
      </trkpt>
      <trkpt lat="45.08033" lon="6.01798">
        <ele>743.4</ele>
        <time>2020-09-05T11:59:57Z</time>
      </trkpt>
      <trkpt lat="45.08041" lon="6.01798">
        <ele>743</ele>
        <time>2020-09-05T11:59:58Z</time>
      </trkpt>
      <trkpt lat="45.08049" lon="6.01797">
        <ele>742.8</ele>
        <time>2020-09-05T11:59:59Z</time>
      </trkpt>
      <trkpt lat="45.08057" lon="6.01797">
        <ele>742.6</ele>
        <time>2020-09-05T12:00:00Z</time>
      </trkpt>
      <trkpt lat="45.08065" lon="6.01797">
        <ele>742.4</ele>
        <time>2020-09-05T12:00:01Z</time>
      </trkpt>
      <trkpt lat="45.08073" lon="6.01797">
        <ele>742.4</ele>
        <time>2020-09-05T12:00:02Z</time>
      </trkpt>
      <trkpt lat="45.08081" lon="6.01796">
        <ele>742.6</ele>
        <time>2020-09-05T12:00:03Z</time>
      </trkpt>
      <trkpt lat="45.08089" lon="6.01796">
        <ele>742.6</ele>
        <time>2020-09-05T12:00:04Z</time>
      </trkpt>
      <trkpt lat="45.08096" lon="6.01796">
        <ele>743</ele>
        <time>2020-09-05T12:00:05Z</time>
      </trkpt>
      <trkpt lat="45.08104" lon="6.01796">
        <ele>743.4</ele>
        <time>2020-09-05T12:00:06Z</time>
      </trkpt>
      <trkpt lat="45.08112" lon="6.01795">
        <ele>743.2</ele>
        <time>2020-09-05T12:00:07Z</time>
      </trkpt>
      <trkpt lat="45.0812" lon="6.01795">
        <ele>743</ele>
        <time>2020-09-05T12:00:08Z</time>
      </trkpt>
      <trkpt lat="45.08127" lon="6.01795">
        <ele>743</ele>
        <time>2020-09-05T12:00:09Z</time>
      </trkpt>
      <trkpt lat="45.08135" lon="6.01795">
        <ele>743</ele>
        <time>2020-09-05T12:00:10Z</time>
      </trkpt>
      <trkpt lat="45.08143" lon="6.01795">
        <ele>743</ele>
        <time>2020-09-05T12:00:11Z</time>
      </trkpt>
      <trkpt lat="45.0815" lon="6.01795">
        <ele>742.6</ele>
        <time>2020-09-05T12:00:12Z</time>
      </trkpt>
      <trkpt lat="45.08158" lon="6.01794">
        <ele>742.2</ele>
        <time>2020-09-05T12:00:13Z</time>
      </trkpt>
      <trkpt lat="45.08165" lon="6.01794">
        <ele>742.2</ele>
        <time>2020-09-05T12:00:14Z</time>
      </trkpt>
      <trkpt lat="45.08173" lon="6.01794">
        <ele>742.6</ele>
        <time>2020-09-05T12:00:15Z</time>
      </trkpt>
      <trkpt lat="45.08181" lon="6.01793">
        <ele>742.8</ele>
        <time>2020-09-05T12:00:16Z</time>
      </trkpt>
      <trkpt lat="45.08188" lon="6.01793">
        <ele>743</ele>
        <time>2020-09-05T12:00:17Z</time>
      </trkpt>
      <trkpt lat="45.08196" lon="6.01793">
        <ele>742.8</ele>
        <time>2020-09-05T12:00:18Z</time>
      </trkpt>
      <trkpt lat="45.08204" lon="6.01792">
        <ele>742.6</ele>
        <time>2020-09-05T12:00:19Z</time>
      </trkpt>
      <trkpt lat="45.08212" lon="6.01792">
        <ele>742.6</ele>
        <time>2020-09-05T12:00:20Z</time>
      </trkpt>
      <trkpt lat="45.08219" lon="6.01792">
        <ele>742.6</ele>
        <time>2020-09-05T12:00:21Z</time>
      </trkpt>
      <trkpt lat="45.08226" lon="6.01791">
        <ele>743.2</ele>
        <time>2020-09-05T12:00:22Z</time>
      </trkpt>
      <trkpt lat="45.08234" lon="6.01791">
        <ele>743.2</ele>
        <time>2020-09-05T12:00:23Z</time>
      </trkpt>
      <trkpt lat="45.08242" lon="6.01791">
        <ele>743.2</ele>
        <time>2020-09-05T12:00:24Z</time>
      </trkpt>
      <trkpt lat="45.08249" lon="6.01792">
        <ele>743</ele>
        <time>2020-09-05T12:00:25Z</time>
      </trkpt>
      <trkpt lat="45.08256" lon="6.01792">
        <ele>742.6</ele>
        <time>2020-09-05T12:00:26Z</time>
      </trkpt>
      <trkpt lat="45.08263" lon="6.01792">
        <ele>743</ele>
        <time>2020-09-05T12:00:27Z</time>
      </trkpt>
      <trkpt lat="45.08271" lon="6.01792">
        <ele>742.8</ele>
        <time>2020-09-05T12:00:28Z</time>
      </trkpt>
      <trkpt lat="45.08278" lon="6.01792">
        <ele>742.6</ele>
        <time>2020-09-05T12:00:29Z</time>
      </trkpt>
      <trkpt lat="45.08285" lon="6.01792">
        <ele>742.6</ele>
        <time>2020-09-05T12:00:30Z</time>
      </trkpt>
      <trkpt lat="45.08293" lon="6.01792">
        <ele>742.2</ele>
        <time>2020-09-05T12:00:31Z</time>
      </trkpt>
      <trkpt lat="45.083" lon="6.01791">
        <ele>741.8</ele>
        <time>2020-09-05T12:00:32Z</time>
      </trkpt>
      <trkpt lat="45.08308" lon="6.01791">
        <ele>741.8</ele>
        <time>2020-09-05T12:00:33Z</time>
      </trkpt>
      <trkpt lat="45.08315" lon="6.01791">
        <ele>741.2</ele>
        <time>2020-09-05T12:00:34Z</time>
      </trkpt>
      <trkpt lat="45.08323" lon="6.01791">
        <ele>741.4</ele>
        <time>2020-09-05T12:00:35Z</time>
      </trkpt>
      <trkpt lat="45.08331" lon="6.01791">
        <ele>741.6</ele>
        <time>2020-09-05T12:00:36Z</time>
      </trkpt>
      <trkpt lat="45.08338" lon="6.01791">
        <ele>741.6</ele>
        <time>2020-09-05T12:00:37Z</time>
      </trkpt>
      <trkpt lat="45.08346" lon="6.01791">
        <ele>742.2</ele>
        <time>2020-09-05T12:00:38Z</time>
      </trkpt>
      <trkpt lat="45.08353" lon="6.0179">
        <ele>741.8</ele>
        <time>2020-09-05T12:00:39Z</time>
      </trkpt>
      <trkpt lat="45.0836" lon="6.0179">
        <ele>741.6</ele>
        <time>2020-09-05T12:00:40Z</time>
      </trkpt>
      <trkpt lat="45.08367" lon="6.0179">
        <ele>741.4</ele>
        <time>2020-09-05T12:00:41Z</time>
      </trkpt>
      <trkpt lat="45.08374" lon="6.0179">
        <ele>741</ele>
        <time>2020-09-05T12:00:42Z</time>
      </trkpt>
      <trkpt lat="45.08381" lon="6.01789">
        <ele>741</ele>
        <time>2020-09-05T12:00:43Z</time>
      </trkpt>
      <trkpt lat="45.08387" lon="6.01789">
        <ele>740.8</ele>
        <time>2020-09-05T12:00:44Z</time>
      </trkpt>
      <trkpt lat="45.08394" lon="6.01789">
        <ele>740.8</ele>
        <time>2020-09-05T12:00:45Z</time>
      </trkpt>
      <trkpt lat="45.08401" lon="6.01789">
        <ele>740.8</ele>
        <time>2020-09-05T12:00:46Z</time>
      </trkpt>
      <trkpt lat="45.08407" lon="6.01789">
        <ele>741</ele>
        <time>2020-09-05T12:00:47Z</time>
      </trkpt>
      <trkpt lat="45.08414" lon="6.01789">
        <ele>741</ele>
        <time>2020-09-05T12:00:48Z</time>
      </trkpt>
      <trkpt lat="45.0842" lon="6.01789">
        <ele>740.8</ele>
        <time>2020-09-05T12:00:49Z</time>
      </trkpt>
      <trkpt lat="45.08426" lon="6.01788">
        <ele>740.6</ele>
        <time>2020-09-05T12:00:50Z</time>
      </trkpt>
      <trkpt lat="45.08432" lon="6.01788">
        <ele>740.6</ele>
        <time>2020-09-05T12:00:51Z</time>
      </trkpt>
      <trkpt lat="45.08438" lon="6.01788">
        <ele>740</ele>
        <time>2020-09-05T12:00:52Z</time>
      </trkpt>
      <trkpt lat="45.08444" lon="6.01787">
        <ele>740.2</ele>
        <time>2020-09-05T12:00:53Z</time>
      </trkpt>
      <trkpt lat="45.08449" lon="6.01787">
        <ele>740.4</ele>
        <time>2020-09-05T12:00:54Z</time>
      </trkpt>
      <trkpt lat="45.08455" lon="6.01787">
        <ele>740.4</ele>
        <time>2020-09-05T12:00:55Z</time>
      </trkpt>
      <trkpt lat="45.0846" lon="6.01787">
        <ele>740.2</ele>
        <time>2020-09-05T12:00:56Z</time>
      </trkpt>
      <trkpt lat="45.08466" lon="6.01787">
        <ele>740</ele>
        <time>2020-09-05T12:00:57Z</time>
      </trkpt>
      <trkpt lat="45.08471" lon="6.01787">
        <ele>739.8</ele>
        <time>2020-09-05T12:00:58Z</time>
      </trkpt>
      <trkpt lat="45.08477" lon="6.01787">
        <ele>739.8</ele>
        <time>2020-09-05T12:00:59Z</time>
      </trkpt>
      <trkpt lat="45.08483" lon="6.01787">
        <ele>740</ele>
        <time>2020-09-05T12:01:00Z</time>
      </trkpt>
      <trkpt lat="45.08489" lon="6.01787">
        <ele>740.6</ele>
        <time>2020-09-05T12:01:01Z</time>
      </trkpt>
      <trkpt lat="45.08495" lon="6.01787">
        <ele>740.8</ele>
        <time>2020-09-05T12:01:02Z</time>
      </trkpt>
      <trkpt lat="45.08501" lon="6.01787">
        <ele>740.6</ele>
        <time>2020-09-05T12:01:03Z</time>
      </trkpt>
      <trkpt lat="45.08507" lon="6.01787">
        <ele>740.4</ele>
        <time>2020-09-05T12:01:04Z</time>
      </trkpt>
      <trkpt lat="45.08513" lon="6.01787">
        <ele>740.2</ele>
        <time>2020-09-05T12:01:05Z</time>
      </trkpt>
      <trkpt lat="45.08519" lon="6.01787">
        <ele>740.2</ele>
        <time>2020-09-05T12:01:06Z</time>
      </trkpt>
      <trkpt lat="45.08525" lon="6.01787">
        <ele>739.8</ele>
        <time>2020-09-05T12:01:07Z</time>
      </trkpt>
      <trkpt lat="45.08531" lon="6.01787">
        <ele>739.8</ele>
        <time>2020-09-05T12:01:08Z</time>
      </trkpt>
      <trkpt lat="45.08537" lon="6.01787">
        <ele>740</ele>
        <time>2020-09-05T12:01:09Z</time>
      </trkpt>
      <trkpt lat="45.08542" lon="6.01787">
        <ele>740</ele>
        <time>2020-09-05T12:01:10Z</time>
      </trkpt>
      <trkpt lat="45.08548" lon="6.01787">
        <ele>739.8</ele>
        <time>2020-09-05T12:01:11Z</time>
      </trkpt>
      <trkpt lat="45.08553" lon="6.01787">
        <ele>739.8</ele>
        <time>2020-09-05T12:01:12Z</time>
      </trkpt>
      <trkpt lat="45.08559" lon="6.01787">
        <ele>740</ele>
        <time>2020-09-05T12:01:13Z</time>
      </trkpt>
      <trkpt lat="45.08564" lon="6.01787">
        <ele>740</ele>
        <time>2020-09-05T12:01:14Z</time>
      </trkpt>
      <trkpt lat="45.08569" lon="6.01788">
        <ele>739.8</ele>
        <time>2020-09-05T12:01:15Z</time>
      </trkpt>
      <trkpt lat="45.08575" lon="6.01788">
        <ele>739.8</ele>
        <time>2020-09-05T12:01:16Z</time>
      </trkpt>
      <trkpt lat="45.08581" lon="6.01788">
        <ele>739.6</ele>
        <time>2020-09-05T12:01:17Z</time>
      </trkpt>
      <trkpt lat="45.08586" lon="6.01789">
        <ele>740</ele>
        <time>2020-09-05T12:01:18Z</time>
      </trkpt>
      <trkpt lat="45.08592" lon="6.01788">
        <ele>740.2</ele>
        <time>2020-09-05T12:01:19Z</time>
      </trkpt>
      <trkpt lat="45.08598" lon="6.01789">
        <ele>740.2</ele>
        <time>2020-09-05T12:01:20Z</time>
      </trkpt>
      <trkpt lat="45.08604" lon="6.01789">
        <ele>740.6</ele>
        <time>2020-09-05T12:01:21Z</time>
      </trkpt>
      <trkpt lat="45.0861" lon="6.0179">
        <ele>740.4</ele>
        <time>2020-09-05T12:01:22Z</time>
      </trkpt>
      <trkpt lat="45.08615" lon="6.0179">
        <ele>740.2</ele>
        <time>2020-09-05T12:01:23Z</time>
      </trkpt>
      <trkpt lat="45.08622" lon="6.01791">
        <ele>740</ele>
        <time>2020-09-05T12:01:24Z</time>
      </trkpt>
      <trkpt lat="45.08628" lon="6.01792">
        <ele>740.2</ele>
        <time>2020-09-05T12:01:25Z</time>
      </trkpt>
      <trkpt lat="45.08634" lon="6.01792">
        <ele>740</ele>
        <time>2020-09-05T12:01:26Z</time>
      </trkpt>
      <trkpt lat="45.0864" lon="6.01793">
        <ele>740</ele>
        <time>2020-09-05T12:01:27Z</time>
      </trkpt>
      <trkpt lat="45.08646" lon="6.01793">
        <ele>739.8</ele>
        <time>2020-09-05T12:01:28Z</time>
      </trkpt>
      <trkpt lat="45.08652" lon="6.01793">
        <ele>739.6</ele>
        <time>2020-09-05T12:01:29Z</time>
      </trkpt>
      <trkpt lat="45.08658" lon="6.01794">
        <ele>739.6</ele>
        <time>2020-09-05T12:01:30Z</time>
      </trkpt>
      <trkpt lat="45.08665" lon="6.01794">
        <ele>739.2</ele>
        <time>2020-09-05T12:01:31Z</time>
      </trkpt>
      <trkpt lat="45.08671" lon="6.01795">
        <ele>739.2</ele>
        <time>2020-09-05T12:01:32Z</time>
      </trkpt>
      <trkpt lat="45.08677" lon="6.01795">
        <ele>739.2</ele>
        <time>2020-09-05T12:01:33Z</time>
      </trkpt>
      <trkpt lat="45.08684" lon="6.01795">
        <ele>739.2</ele>
        <time>2020-09-05T12:01:34Z</time>
      </trkpt>
      <trkpt lat="45.0869" lon="6.01796">
        <ele>739</ele>
        <time>2020-09-05T12:01:35Z</time>
      </trkpt>
      <trkpt lat="45.08696" lon="6.01796">
        <ele>738.8</ele>
        <time>2020-09-05T12:01:36Z</time>
      </trkpt>
      <trkpt lat="45.08702" lon="6.01797">
        <ele>739</ele>
        <time>2020-09-05T12:01:37Z</time>
      </trkpt>
      <trkpt lat="45.08708" lon="6.01797">
        <ele>739.2</ele>
        <time>2020-09-05T12:01:38Z</time>
      </trkpt>
      <trkpt lat="45.08714" lon="6.01797">
        <ele>739</ele>
        <time>2020-09-05T12:01:39Z</time>
      </trkpt>
      <trkpt lat="45.0872" lon="6.01798">
        <ele>739</ele>
        <time>2020-09-05T12:01:40Z</time>
      </trkpt>
      <trkpt lat="45.08726" lon="6.01798">
        <ele>739</ele>
        <time>2020-09-05T12:01:41Z</time>
      </trkpt>
      <trkpt lat="45.08732" lon="6.01799">
        <ele>738.6</ele>
        <time>2020-09-05T12:01:42Z</time>
      </trkpt>
      <trkpt lat="45.08738" lon="6.018">
        <ele>738.6</ele>
        <time>2020-09-05T12:01:43Z</time>
      </trkpt>
      <trkpt lat="45.08745" lon="6.018">
        <ele>738.6</ele>
        <time>2020-09-05T12:01:44Z</time>
      </trkpt>
      <trkpt lat="45.08751" lon="6.01801">
        <ele>738.6</ele>
        <time>2020-09-05T12:01:45Z</time>
      </trkpt>
      <trkpt lat="45.08757" lon="6.01801">
        <ele>738.6</ele>
        <time>2020-09-05T12:01:46Z</time>
      </trkpt>
      <trkpt lat="45.08764" lon="6.01801">
        <ele>738.6</ele>
        <time>2020-09-05T12:01:47Z</time>
      </trkpt>
      <trkpt lat="45.0877" lon="6.01802">
        <ele>738.8</ele>
        <time>2020-09-05T12:01:48Z</time>
      </trkpt>
      <trkpt lat="45.08776" lon="6.01802">
        <ele>738.8</ele>
        <time>2020-09-05T12:01:49Z</time>
      </trkpt>
      <trkpt lat="45.08783" lon="6.01802">
        <ele>738.6</ele>
        <time>2020-09-05T12:01:50Z</time>
      </trkpt>
      <trkpt lat="45.08789" lon="6.01802">
        <ele>738.6</ele>
        <time>2020-09-05T12:01:51Z</time>
      </trkpt>
      <trkpt lat="45.08796" lon="6.01803">
        <ele>738.6</ele>
        <time>2020-09-05T12:01:52Z</time>
      </trkpt>
      <trkpt lat="45.08802" lon="6.01802">
        <ele>738.6</ele>
        <time>2020-09-05T12:01:53Z</time>
      </trkpt>
      <trkpt lat="45.08809" lon="6.01803">
        <ele>738.8</ele>
        <time>2020-09-05T12:01:54Z</time>
      </trkpt>
      <trkpt lat="45.08815" lon="6.01803">
        <ele>738.8</ele>
        <time>2020-09-05T12:01:55Z</time>
      </trkpt>
      <trkpt lat="45.08821" lon="6.01803">
        <ele>739</ele>
        <time>2020-09-05T12:01:56Z</time>
      </trkpt>
      <trkpt lat="45.08827" lon="6.01804">
        <ele>739.2</ele>
        <time>2020-09-05T12:01:57Z</time>
      </trkpt>
      <trkpt lat="45.08833" lon="6.01805">
        <ele>739.2</ele>
        <time>2020-09-05T12:01:58Z</time>
      </trkpt>
      <trkpt lat="45.0884" lon="6.01805">
        <ele>739</ele>
        <time>2020-09-05T12:01:59Z</time>
      </trkpt>
      <trkpt lat="45.08846" lon="6.01805">
        <ele>738.8</ele>
        <time>2020-09-05T12:02:00Z</time>
      </trkpt>
      <trkpt lat="45.08853" lon="6.01806">
        <ele>738.6</ele>
        <time>2020-09-05T12:02:01Z</time>
      </trkpt>
      <trkpt lat="45.08859" lon="6.01806">
        <ele>738.4</ele>
        <time>2020-09-05T12:02:02Z</time>
      </trkpt>
      <trkpt lat="45.08866" lon="6.01807">
        <ele>738.4</ele>
        <time>2020-09-05T12:02:03Z</time>
      </trkpt>
      <trkpt lat="45.08872" lon="6.01807">
        <ele>738.2</ele>
        <time>2020-09-05T12:02:04Z</time>
      </trkpt>
      <trkpt lat="45.08879" lon="6.01808">
        <ele>738.4</ele>
        <time>2020-09-05T12:02:05Z</time>
      </trkpt>
      <trkpt lat="45.08885" lon="6.01808">
        <ele>738.4</ele>
        <time>2020-09-05T12:02:06Z</time>
      </trkpt>
      <trkpt lat="45.08892" lon="6.01809">
        <ele>738.8</ele>
        <time>2020-09-05T12:02:07Z</time>
      </trkpt>
      <trkpt lat="45.08898" lon="6.01809">
        <ele>738.6</ele>
        <time>2020-09-05T12:02:08Z</time>
      </trkpt>
      <trkpt lat="45.08904" lon="6.0181">
        <ele>738.6</ele>
        <time>2020-09-05T12:02:09Z</time>
      </trkpt>
      <trkpt lat="45.08911" lon="6.0181">
        <ele>738.8</ele>
        <time>2020-09-05T12:02:10Z</time>
      </trkpt>
      <trkpt lat="45.08917" lon="6.0181">
        <ele>739.4</ele>
        <time>2020-09-05T12:02:11Z</time>
      </trkpt>
      <trkpt lat="45.08923" lon="6.01811">
        <ele>739.2</ele>
        <time>2020-09-05T12:02:12Z</time>
      </trkpt>
      <trkpt lat="45.08929" lon="6.01811">
        <ele>739.4</ele>
        <time>2020-09-05T12:02:13Z</time>
      </trkpt>
      <trkpt lat="45.08935" lon="6.01811">
        <ele>739.4</ele>
        <time>2020-09-05T12:02:14Z</time>
      </trkpt>
      <trkpt lat="45.08941" lon="6.01812">
        <ele>739.4</ele>
        <time>2020-09-05T12:02:15Z</time>
      </trkpt>
      <trkpt lat="45.08947" lon="6.01812">
        <ele>739.4</ele>
        <time>2020-09-05T12:02:16Z</time>
      </trkpt>
      <trkpt lat="45.08953" lon="6.01812">
        <ele>739.4</ele>
        <time>2020-09-05T12:02:17Z</time>
      </trkpt>
      <trkpt lat="45.08959" lon="6.01812">
        <ele>739.4</ele>
        <time>2020-09-05T12:02:18Z</time>
      </trkpt>
      <trkpt lat="45.08964" lon="6.01813">
        <ele>739</ele>
        <time>2020-09-05T12:02:19Z</time>
      </trkpt>
      <trkpt lat="45.0897" lon="6.01813">
        <ele>738.8</ele>
        <time>2020-09-05T12:02:20Z</time>
      </trkpt>
      <trkpt lat="45.08976" lon="6.01814">
        <ele>739.6</ele>
        <time>2020-09-05T12:02:21Z</time>
      </trkpt>
      <trkpt lat="45.08981" lon="6.01814">
        <ele>739.4</ele>
        <time>2020-09-05T12:02:22Z</time>
      </trkpt>
      <trkpt lat="45.08987" lon="6.01814">
        <ele>739.4</ele>
        <time>2020-09-05T12:02:23Z</time>
      </trkpt>
      <trkpt lat="45.08992" lon="6.01815">
        <ele>739.2</ele>
        <time>2020-09-05T12:02:24Z</time>
      </trkpt>
      <trkpt lat="45.08998" lon="6.01815">
        <ele>739.2</ele>
        <time>2020-09-05T12:02:25Z</time>
      </trkpt>
      <trkpt lat="45.09004" lon="6.01816">
        <ele>739</ele>
        <time>2020-09-05T12:02:26Z</time>
      </trkpt>
      <trkpt lat="45.0901" lon="6.01816">
        <ele>739.2</ele>
        <time>2020-09-05T12:02:27Z</time>
      </trkpt>
      <trkpt lat="45.09016" lon="6.01816">
        <ele>739</ele>
        <time>2020-09-05T12:02:28Z</time>
      </trkpt>
      <trkpt lat="45.09021" lon="6.01817">
        <ele>738.8</ele>
        <time>2020-09-05T12:02:29Z</time>
      </trkpt>
      <trkpt lat="45.09027" lon="6.01817">
        <ele>738.6</ele>
        <time>2020-09-05T12:02:30Z</time>
      </trkpt>
      <trkpt lat="45.09033" lon="6.01817">
        <ele>738.6</ele>
        <time>2020-09-05T12:02:31Z</time>
      </trkpt>
      <trkpt lat="45.09039" lon="6.01818">
        <ele>738.4</ele>
        <time>2020-09-05T12:02:32Z</time>
      </trkpt>
      <trkpt lat="45.09045" lon="6.01818">
        <ele>738.4</ele>
        <time>2020-09-05T12:02:33Z</time>
      </trkpt>
      <trkpt lat="45.09051" lon="6.01819">
        <ele>738</ele>
        <time>2020-09-05T12:02:34Z</time>
      </trkpt>
      <trkpt lat="45.09057" lon="6.01819">
        <ele>738</ele>
        <time>2020-09-05T12:02:35Z</time>
      </trkpt>
      <trkpt lat="45.09063" lon="6.01819">
        <ele>737.8</ele>
        <time>2020-09-05T12:02:36Z</time>
      </trkpt>
      <trkpt lat="45.09069" lon="6.0182">
        <ele>737.6</ele>
        <time>2020-09-05T12:02:37Z</time>
      </trkpt>
      <trkpt lat="45.09075" lon="6.0182">
        <ele>737.8</ele>
        <time>2020-09-05T12:02:38Z</time>
      </trkpt>
      <trkpt lat="45.09081" lon="6.01821">
        <ele>738</ele>
        <time>2020-09-05T12:02:39Z</time>
      </trkpt>
      <trkpt lat="45.09087" lon="6.01821">
        <ele>737.8</ele>
        <time>2020-09-05T12:02:40Z</time>
      </trkpt>
      <trkpt lat="45.09093" lon="6.01821">
        <ele>737.6</ele>
        <time>2020-09-05T12:02:41Z</time>
      </trkpt>
      <trkpt lat="45.09099" lon="6.01822">
        <ele>737.8</ele>
        <time>2020-09-05T12:02:42Z</time>
      </trkpt>
      <trkpt lat="45.09106" lon="6.01822">
        <ele>737.8</ele>
        <time>2020-09-05T12:02:43Z</time>
      </trkpt>
      <trkpt lat="45.09112" lon="6.01822">
        <ele>737.6</ele>
        <time>2020-09-05T12:02:44Z</time>
      </trkpt>
      <trkpt lat="45.09118" lon="6.01822">
        <ele>737.4</ele>
        <time>2020-09-05T12:02:45Z</time>
      </trkpt>
      <trkpt lat="45.09124" lon="6.01823">
        <ele>737.4</ele>
        <time>2020-09-05T12:02:46Z</time>
      </trkpt>
      <trkpt lat="45.0913" lon="6.01823">
        <ele>737.6</ele>
        <time>2020-09-05T12:02:47Z</time>
      </trkpt>
      <trkpt lat="45.09136" lon="6.01823">
        <ele>737.6</ele>
        <time>2020-09-05T12:02:48Z</time>
      </trkpt>
      <trkpt lat="45.09142" lon="6.01824">
        <ele>737.8</ele>
        <time>2020-09-05T12:02:49Z</time>
      </trkpt>
      <trkpt lat="45.09148" lon="6.01824">
        <ele>737.8</ele>
        <time>2020-09-05T12:02:50Z</time>
      </trkpt>
      <trkpt lat="45.09154" lon="6.01825">
        <ele>737.8</ele>
        <time>2020-09-05T12:02:51Z</time>
      </trkpt>
      <trkpt lat="45.0916" lon="6.01825">
        <ele>737.8</ele>
        <time>2020-09-05T12:02:52Z</time>
      </trkpt>
      <trkpt lat="45.09166" lon="6.01825">
        <ele>737.6</ele>
        <time>2020-09-05T12:02:53Z</time>
      </trkpt>
      <trkpt lat="45.09172" lon="6.01826">
        <ele>737.4</ele>
        <time>2020-09-05T12:02:54Z</time>
      </trkpt>
      <trkpt lat="45.09178" lon="6.01826">
        <ele>737.2</ele>
        <time>2020-09-05T12:02:55Z</time>
      </trkpt>
      <trkpt lat="45.09185" lon="6.01827">
        <ele>737.2</ele>
        <time>2020-09-05T12:02:56Z</time>
      </trkpt>
      <trkpt lat="45.09191" lon="6.01827">
        <ele>737.4</ele>
        <time>2020-09-05T12:02:57Z</time>
      </trkpt>
      <trkpt lat="45.09197" lon="6.01828">
        <ele>737.4</ele>
        <time>2020-09-05T12:02:58Z</time>
      </trkpt>
      <trkpt lat="45.09203" lon="6.01828">
        <ele>737.4</ele>
        <time>2020-09-05T12:02:59Z</time>
      </trkpt>
      <trkpt lat="45.09208" lon="6.01829">
        <ele>737.6</ele>
        <time>2020-09-05T12:03:00Z</time>
      </trkpt>
      <trkpt lat="45.09214" lon="6.0183">
        <ele>714.8</ele>
        <time>2020-09-05T12:03:01Z</time>
      </trkpt>
      <trkpt lat="45.09221" lon="6.0183">
        <ele>737.2</ele>
        <time>2020-09-05T12:03:02Z</time>
      </trkpt>
      <trkpt lat="45.09227" lon="6.01831">
        <ele>737</ele>
        <time>2020-09-05T12:03:03Z</time>
      </trkpt>
      <trkpt lat="45.09233" lon="6.01832">
        <ele>737.2</ele>
        <time>2020-09-05T12:03:04Z</time>
      </trkpt>
      <trkpt lat="45.09239" lon="6.01832">
        <ele>737</ele>
        <time>2020-09-05T12:03:05Z</time>
      </trkpt>
      <trkpt lat="45.09246" lon="6.01833">
        <ele>737</ele>
        <time>2020-09-05T12:03:06Z</time>
      </trkpt>
      <trkpt lat="45.09253" lon="6.01834">
        <ele>737</ele>
        <time>2020-09-05T12:03:07Z</time>
      </trkpt>
      <trkpt lat="45.0926" lon="6.01834">
        <ele>736.8</ele>
        <time>2020-09-05T12:03:08Z</time>
      </trkpt>
      <trkpt lat="45.09267" lon="6.01834">
        <ele>737.4</ele>
        <time>2020-09-05T12:03:09Z</time>
      </trkpt>
      <trkpt lat="45.09274" lon="6.01835">
        <ele>737</ele>
        <time>2020-09-05T12:03:10Z</time>
      </trkpt>
      <trkpt lat="45.0928" lon="6.01835">
        <ele>737</ele>
        <time>2020-09-05T12:03:11Z</time>
      </trkpt>
      <trkpt lat="45.09287" lon="6.01836">
        <ele>737.2</ele>
        <time>2020-09-05T12:03:12Z</time>
      </trkpt>
      <trkpt lat="45.09294" lon="6.01837">
        <ele>737.2</ele>
        <time>2020-09-05T12:03:13Z</time>
      </trkpt>
      <trkpt lat="45.093" lon="6.01838">
        <ele>737</ele>
        <time>2020-09-05T12:03:14Z</time>
      </trkpt>
      <trkpt lat="45.09306" lon="6.01838">
        <ele>737</ele>
        <time>2020-09-05T12:03:15Z</time>
      </trkpt>
      <trkpt lat="45.09313" lon="6.01838">
        <ele>737</ele>
        <time>2020-09-05T12:03:16Z</time>
      </trkpt>
      <trkpt lat="45.0932" lon="6.01838">
        <ele>736.8</ele>
        <time>2020-09-05T12:03:17Z</time>
      </trkpt>
      <trkpt lat="45.09327" lon="6.01839">
        <ele>737</ele>
        <time>2020-09-05T12:03:18Z</time>
      </trkpt>
      <trkpt lat="45.09334" lon="6.0184">
        <ele>736.8</ele>
        <time>2020-09-05T12:03:19Z</time>
      </trkpt>
      <trkpt lat="45.0934" lon="6.01841">
        <ele>736.8</ele>
        <time>2020-09-05T12:03:20Z</time>
      </trkpt>
      <trkpt lat="45.09347" lon="6.01842">
        <ele>736.8</ele>
        <time>2020-09-05T12:03:21Z</time>
      </trkpt>
      <trkpt lat="45.09354" lon="6.01843">
        <ele>736.4</ele>
        <time>2020-09-05T12:03:22Z</time>
      </trkpt>
      <trkpt lat="45.0936" lon="6.01845">
        <ele>736.6</ele>
        <time>2020-09-05T12:03:23Z</time>
      </trkpt>
      <trkpt lat="45.09367" lon="6.01846">
        <ele>736.8</ele>
        <time>2020-09-05T12:03:24Z</time>
      </trkpt>
      <trkpt lat="45.09373" lon="6.01847">
        <ele>736.8</ele>
        <time>2020-09-05T12:03:25Z</time>
      </trkpt>
      <trkpt lat="45.0938" lon="6.01849">
        <ele>736.8</ele>
        <time>2020-09-05T12:03:26Z</time>
      </trkpt>
      <trkpt lat="45.09386" lon="6.01851">
        <ele>736.6</ele>
        <time>2020-09-05T12:03:27Z</time>
      </trkpt>
      <trkpt lat="45.09393" lon="6.01852">
        <ele>736.8</ele>
        <time>2020-09-05T12:03:28Z</time>
      </trkpt>
      <trkpt lat="45.094" lon="6.01854">
        <ele>736.6</ele>
        <time>2020-09-05T12:03:29Z</time>
      </trkpt>
      <trkpt lat="45.09407" lon="6.01856">
        <ele>736.6</ele>
        <time>2020-09-05T12:03:30Z</time>
      </trkpt>
      <trkpt lat="45.09414" lon="6.01858">
        <ele>736.6</ele>
        <time>2020-09-05T12:03:31Z</time>
      </trkpt>
      <trkpt lat="45.09421" lon="6.0186">
        <ele>736.6</ele>
        <time>2020-09-05T12:03:32Z</time>
      </trkpt>
      <trkpt lat="45.09428" lon="6.01862">
        <ele>736.6</ele>
        <time>2020-09-05T12:03:33Z</time>
      </trkpt>
      <trkpt lat="45.09435" lon="6.01864">
        <ele>736.6</ele>
        <time>2020-09-05T12:03:34Z</time>
      </trkpt>
      <trkpt lat="45.09442" lon="6.01866">
        <ele>736.8</ele>
        <time>2020-09-05T12:03:35Z</time>
      </trkpt>
      <trkpt lat="45.09449" lon="6.01867">
        <ele>736.8</ele>
        <time>2020-09-05T12:03:36Z</time>
      </trkpt>
      <trkpt lat="45.09455" lon="6.01869">
        <ele>736.8</ele>
        <time>2020-09-05T12:03:37Z</time>
      </trkpt>
      <trkpt lat="45.09462" lon="6.01871">
        <ele>736.8</ele>
        <time>2020-09-05T12:03:38Z</time>
      </trkpt>
      <trkpt lat="45.09469" lon="6.01873">
        <ele>736.6</ele>
        <time>2020-09-05T12:03:39Z</time>
      </trkpt>
      <trkpt lat="45.09475" lon="6.01875">
        <ele>736.4</ele>
        <time>2020-09-05T12:03:40Z</time>
      </trkpt>
      <trkpt lat="45.09482" lon="6.01876">
        <ele>736.4</ele>
        <time>2020-09-05T12:03:41Z</time>
      </trkpt>
      <trkpt lat="45.09489" lon="6.01878">
        <ele>736.4</ele>
        <time>2020-09-05T12:03:42Z</time>
      </trkpt>
      <trkpt lat="45.09495" lon="6.0188">
        <ele>736.4</ele>
        <time>2020-09-05T12:03:43Z</time>
      </trkpt>
      <trkpt lat="45.09502" lon="6.01882">
        <ele>736.6</ele>
        <time>2020-09-05T12:03:44Z</time>
      </trkpt>
      <trkpt lat="45.09509" lon="6.01884">
        <ele>736.6</ele>
        <time>2020-09-05T12:03:45Z</time>
      </trkpt>
      <trkpt lat="45.09515" lon="6.01886">
        <ele>736.6</ele>
        <time>2020-09-05T12:03:46Z</time>
      </trkpt>
      <trkpt lat="45.09522" lon="6.01888">
        <ele>736.8</ele>
        <time>2020-09-05T12:03:47Z</time>
      </trkpt>
      <trkpt lat="45.09529" lon="6.0189">
        <ele>736.6</ele>
        <time>2020-09-05T12:03:48Z</time>
      </trkpt>
      <trkpt lat="45.09536" lon="6.01892">
        <ele>736.6</ele>
        <time>2020-09-05T12:03:49Z</time>
      </trkpt>
      <trkpt lat="45.09542" lon="6.01894">
        <ele>737</ele>
        <time>2020-09-05T12:03:50Z</time>
      </trkpt>
      <trkpt lat="45.09549" lon="6.01896">
        <ele>737</ele>
        <time>2020-09-05T12:03:51Z</time>
      </trkpt>
      <trkpt lat="45.09556" lon="6.01898">
        <ele>737</ele>
        <time>2020-09-05T12:03:52Z</time>
      </trkpt>
      <trkpt lat="45.09563" lon="6.019">
        <ele>737.2</ele>
        <time>2020-09-05T12:03:53Z</time>
      </trkpt>
      <trkpt lat="45.0957" lon="6.01902">
        <ele>737.4</ele>
        <time>2020-09-05T12:03:54Z</time>
      </trkpt>
      <trkpt lat="45.09576" lon="6.01904">
        <ele>737</ele>
        <time>2020-09-05T12:03:55Z</time>
      </trkpt>
      <trkpt lat="45.09583" lon="6.01906">
        <ele>737</ele>
        <time>2020-09-05T12:03:56Z</time>
      </trkpt>
      <trkpt lat="45.0959" lon="6.01908">
        <ele>736.6</ele>
        <time>2020-09-05T12:03:57Z</time>
      </trkpt>
      <trkpt lat="45.09597" lon="6.0191">
        <ele>736.6</ele>
        <time>2020-09-05T12:03:58Z</time>
      </trkpt>
      <trkpt lat="45.09605" lon="6.01911">
        <ele>736.6</ele>
        <time>2020-09-05T12:03:59Z</time>
      </trkpt>
      <trkpt lat="45.09612" lon="6.01913">
        <ele>736.4</ele>
        <time>2020-09-05T12:04:00Z</time>
      </trkpt>
      <trkpt lat="45.09619" lon="6.01915">
        <ele>736.8</ele>
        <time>2020-09-05T12:04:01Z</time>
      </trkpt>
      <trkpt lat="45.09626" lon="6.01918">
        <ele>737</ele>
        <time>2020-09-05T12:04:02Z</time>
      </trkpt>
      <trkpt lat="45.09634" lon="6.0192">
        <ele>737</ele>
        <time>2020-09-05T12:04:03Z</time>
      </trkpt>
      <trkpt lat="45.09641" lon="6.01922">
        <ele>736.8</ele>
        <time>2020-09-05T12:04:04Z</time>
      </trkpt>
      <trkpt lat="45.09648" lon="6.01924">
        <ele>736.8</ele>
        <time>2020-09-05T12:04:05Z</time>
      </trkpt>
      <trkpt lat="45.09655" lon="6.01926">
        <ele>736.6</ele>
        <time>2020-09-05T12:04:06Z</time>
      </trkpt>
      <trkpt lat="45.09662" lon="6.01929">
        <ele>737.2</ele>
        <time>2020-09-05T12:04:07Z</time>
      </trkpt>
      <trkpt lat="45.09669" lon="6.01931">
        <ele>737.4</ele>
        <time>2020-09-05T12:04:08Z</time>
      </trkpt>
      <trkpt lat="45.09676" lon="6.01933">
        <ele>737.2</ele>
        <time>2020-09-05T12:04:09Z</time>
      </trkpt>
      <trkpt lat="45.09683" lon="6.01934">
        <ele>737</ele>
        <time>2020-09-05T12:04:10Z</time>
      </trkpt>
      <trkpt lat="45.0969" lon="6.01936">
        <ele>737</ele>
        <time>2020-09-05T12:04:11Z</time>
      </trkpt>
      <trkpt lat="45.09696" lon="6.01938">
        <ele>737</ele>
        <time>2020-09-05T12:04:12Z</time>
      </trkpt>
      <trkpt lat="45.09703" lon="6.0194">
        <ele>736.6</ele>
        <time>2020-09-05T12:04:13Z</time>
      </trkpt>
      <trkpt lat="45.0971" lon="6.01942">
        <ele>736.6</ele>
        <time>2020-09-05T12:04:14Z</time>
      </trkpt>
      <trkpt lat="45.09717" lon="6.01944">
        <ele>736.6</ele>
        <time>2020-09-05T12:04:15Z</time>
      </trkpt>
      <trkpt lat="45.09724" lon="6.01946">
        <ele>736.8</ele>
        <time>2020-09-05T12:04:16Z</time>
      </trkpt>
      <trkpt lat="45.09731" lon="6.01948">
        <ele>736.6</ele>
        <time>2020-09-05T12:04:17Z</time>
      </trkpt>
      <trkpt lat="45.09738" lon="6.0195">
        <ele>736.6</ele>
        <time>2020-09-05T12:04:18Z</time>
      </trkpt>
      <trkpt lat="45.09745" lon="6.01952">
        <ele>736.4</ele>
        <time>2020-09-05T12:04:19Z</time>
      </trkpt>
      <trkpt lat="45.09752" lon="6.01954">
        <ele>736.6</ele>
        <time>2020-09-05T12:04:20Z</time>
      </trkpt>
      <trkpt lat="45.09759" lon="6.01956">
        <ele>737</ele>
        <time>2020-09-05T12:04:21Z</time>
      </trkpt>
      <trkpt lat="45.09765" lon="6.01958">
        <ele>736.8</ele>
        <time>2020-09-05T12:04:22Z</time>
      </trkpt>
      <trkpt lat="45.09772" lon="6.0196">
        <ele>737</ele>
        <time>2020-09-05T12:04:23Z</time>
      </trkpt>
      <trkpt lat="45.09779" lon="6.01962">
        <ele>736.8</ele>
        <time>2020-09-05T12:04:24Z</time>
      </trkpt>
      <trkpt lat="45.09786" lon="6.01964">
        <ele>737</ele>
        <time>2020-09-05T12:04:25Z</time>
      </trkpt>
      <trkpt lat="45.09793" lon="6.01966">
        <ele>736.8</ele>
        <time>2020-09-05T12:04:26Z</time>
      </trkpt>
      <trkpt lat="45.09799" lon="6.01969">
        <ele>736.6</ele>
        <time>2020-09-05T12:04:27Z</time>
      </trkpt>
      <trkpt lat="45.09806" lon="6.01971">
        <ele>736.6</ele>
        <time>2020-09-05T12:04:28Z</time>
      </trkpt>
      <trkpt lat="45.09813" lon="6.01973">
        <ele>736.4</ele>
        <time>2020-09-05T12:04:29Z</time>
      </trkpt>
      <trkpt lat="45.09819" lon="6.01975">
        <ele>736.4</ele>
        <time>2020-09-05T12:04:30Z</time>
      </trkpt>
      <trkpt lat="45.09826" lon="6.01977">
        <ele>736.4</ele>
        <time>2020-09-05T12:04:31Z</time>
      </trkpt>
      <trkpt lat="45.09832" lon="6.01979">
        <ele>736.2</ele>
        <time>2020-09-05T12:04:32Z</time>
      </trkpt>
      <trkpt lat="45.09839" lon="6.01981">
        <ele>736</ele>
        <time>2020-09-05T12:04:33Z</time>
      </trkpt>
      <trkpt lat="45.09846" lon="6.01983">
        <ele>735.8</ele>
        <time>2020-09-05T12:04:34Z</time>
      </trkpt>
      <trkpt lat="45.09852" lon="6.01985">
        <ele>736.4</ele>
        <time>2020-09-05T12:04:35Z</time>
      </trkpt>
      <trkpt lat="45.09859" lon="6.01988">
        <ele>736.6</ele>
        <time>2020-09-05T12:04:36Z</time>
      </trkpt>
      <trkpt lat="45.09866" lon="6.0199">
        <ele>736.4</ele>
        <time>2020-09-05T12:04:37Z</time>
      </trkpt>
      <trkpt lat="45.09873" lon="6.01992">
        <ele>736.4</ele>
        <time>2020-09-05T12:04:38Z</time>
      </trkpt>
      <trkpt lat="45.0988" lon="6.01994">
        <ele>736.2</ele>
        <time>2020-09-05T12:04:39Z</time>
      </trkpt>
      <trkpt lat="45.09887" lon="6.01996">
        <ele>736.2</ele>
        <time>2020-09-05T12:04:40Z</time>
      </trkpt>
      <trkpt lat="45.09893" lon="6.01998">
        <ele>736.2</ele>
        <time>2020-09-05T12:04:41Z</time>
      </trkpt>
      <trkpt lat="45.099" lon="6.02">
        <ele>736.2</ele>
        <time>2020-09-05T12:04:42Z</time>
      </trkpt>
      <trkpt lat="45.09907" lon="6.02002">
        <ele>736</ele>
        <time>2020-09-05T12:04:43Z</time>
      </trkpt>
      <trkpt lat="45.09914" lon="6.02004">
        <ele>736.2</ele>
        <time>2020-09-05T12:04:44Z</time>
      </trkpt>
      <trkpt lat="45.09922" lon="6.02006">
        <ele>736</ele>
        <time>2020-09-05T12:04:45Z</time>
      </trkpt>
      <trkpt lat="45.09929" lon="6.02008">
        <ele>735.8</ele>
        <time>2020-09-05T12:04:46Z</time>
      </trkpt>
      <trkpt lat="45.09936" lon="6.0201">
        <ele>735.8</ele>
        <time>2020-09-05T12:04:47Z</time>
      </trkpt>
      <trkpt lat="45.09943" lon="6.02013">
        <ele>735.6</ele>
        <time>2020-09-05T12:04:48Z</time>
      </trkpt>
      <trkpt lat="45.0995" lon="6.02015">
        <ele>735.8</ele>
        <time>2020-09-05T12:04:49Z</time>
      </trkpt>
      <trkpt lat="45.09958" lon="6.02017">
        <ele>735.8</ele>
        <time>2020-09-05T12:04:50Z</time>
      </trkpt>
      <trkpt lat="45.09965" lon="6.02019">
        <ele>735.6</ele>
        <time>2020-09-05T12:04:51Z</time>
      </trkpt>
      <trkpt lat="45.09972" lon="6.02021">
        <ele>735.6</ele>
        <time>2020-09-05T12:04:52Z</time>
      </trkpt>
      <trkpt lat="45.0998" lon="6.02023">
        <ele>735.6</ele>
        <time>2020-09-05T12:04:53Z</time>
      </trkpt>
      <trkpt lat="45.09987" lon="6.02026">
        <ele>735.6</ele>
        <time>2020-09-05T12:04:54Z</time>
      </trkpt>
      <trkpt lat="45.09994" lon="6.02028">
        <ele>735.6</ele>
        <time>2020-09-05T12:04:55Z</time>
      </trkpt>
      <trkpt lat="45.10001" lon="6.0203">
        <ele>735.6</ele>
        <time>2020-09-05T12:04:56Z</time>
      </trkpt>
      <trkpt lat="45.10009" lon="6.02032">
        <ele>735.6</ele>
        <time>2020-09-05T12:04:57Z</time>
      </trkpt>
      <trkpt lat="45.10016" lon="6.02034">
        <ele>735.8</ele>
        <time>2020-09-05T12:04:58Z</time>
      </trkpt>
      <trkpt lat="45.10023" lon="6.02036">
        <ele>736.2</ele>
        <time>2020-09-05T12:04:59Z</time>
      </trkpt>
      <trkpt lat="45.10031" lon="6.02038">
        <ele>736.4</ele>
        <time>2020-09-05T12:05:00Z</time>
      </trkpt>
      <trkpt lat="45.10038" lon="6.0204">
        <ele>736.8</ele>
        <time>2020-09-05T12:05:01Z</time>
      </trkpt>
      <trkpt lat="45.10045" lon="6.02042">
        <ele>736.8</ele>
        <time>2020-09-05T12:05:02Z</time>
      </trkpt>
      <trkpt lat="45.10052" lon="6.02044">
        <ele>736.6</ele>
        <time>2020-09-05T12:05:03Z</time>
      </trkpt>
      <trkpt lat="45.10059" lon="6.02046">
        <ele>736.8</ele>
        <time>2020-09-05T12:05:04Z</time>
      </trkpt>
      <trkpt lat="45.10066" lon="6.02048">
        <ele>736.8</ele>
        <time>2020-09-05T12:05:05Z</time>
      </trkpt>
      <trkpt lat="45.10073" lon="6.0205">
        <ele>736.6</ele>
        <time>2020-09-05T12:05:06Z</time>
      </trkpt>
      <trkpt lat="45.1008" lon="6.02052">
        <ele>736.6</ele>
        <time>2020-09-05T12:05:07Z</time>
      </trkpt>
      <trkpt lat="45.10087" lon="6.02054">
        <ele>736.2</ele>
        <time>2020-09-05T12:05:08Z</time>
      </trkpt>
      <trkpt lat="45.10095" lon="6.02057">
        <ele>736.2</ele>
        <time>2020-09-05T12:05:09Z</time>
      </trkpt>
      <trkpt lat="45.10102" lon="6.02059">
        <ele>736.2</ele>
        <time>2020-09-05T12:05:10Z</time>
      </trkpt>
      <trkpt lat="45.10109" lon="6.02061">
        <ele>736.2</ele>
        <time>2020-09-05T12:05:11Z</time>
      </trkpt>
      <trkpt lat="45.10116" lon="6.02063">
        <ele>736.2</ele>
        <time>2020-09-05T12:05:12Z</time>
      </trkpt>
      <trkpt lat="45.10123" lon="6.02065">
        <ele>736.4</ele>
        <time>2020-09-05T12:05:13Z</time>
      </trkpt>
      <trkpt lat="45.1013" lon="6.02067">
        <ele>736.4</ele>
        <time>2020-09-05T12:05:14Z</time>
      </trkpt>
      <trkpt lat="45.10137" lon="6.02069">
        <ele>736.2</ele>
        <time>2020-09-05T12:05:15Z</time>
      </trkpt>
      <trkpt lat="45.10145" lon="6.02071">
        <ele>736.2</ele>
        <time>2020-09-05T12:05:16Z</time>
      </trkpt>
      <trkpt lat="45.10152" lon="6.02073">
        <ele>736</ele>
        <time>2020-09-05T12:05:17Z</time>
      </trkpt>
      <trkpt lat="45.10159" lon="6.02076">
        <ele>736</ele>
        <time>2020-09-05T12:05:18Z</time>
      </trkpt>
      <trkpt lat="45.10167" lon="6.02078">
        <ele>736</ele>
        <time>2020-09-05T12:05:19Z</time>
      </trkpt>
      <trkpt lat="45.10174" lon="6.0208">
        <ele>736</ele>
        <time>2020-09-05T12:05:20Z</time>
      </trkpt>
      <trkpt lat="45.10182" lon="6.02082">
        <ele>736</ele>
        <time>2020-09-05T12:05:21Z</time>
      </trkpt>
      <trkpt lat="45.10189" lon="6.02085">
        <ele>736</ele>
        <time>2020-09-05T12:05:22Z</time>
      </trkpt>
      <trkpt lat="45.10197" lon="6.02087">
        <ele>736.2</ele>
        <time>2020-09-05T12:05:23Z</time>
      </trkpt>
      <trkpt lat="45.10204" lon="6.02089">
        <ele>736.4</ele>
        <time>2020-09-05T12:05:24Z</time>
      </trkpt>
      <trkpt lat="45.10212" lon="6.02091">
        <ele>736</ele>
        <time>2020-09-05T12:05:25Z</time>
      </trkpt>
      <trkpt lat="45.10219" lon="6.02094">
        <ele>736.2</ele>
        <time>2020-09-05T12:05:26Z</time>
      </trkpt>
      <trkpt lat="45.10227" lon="6.02096">
        <ele>736.2</ele>
        <time>2020-09-05T12:05:27Z</time>
      </trkpt>
      <trkpt lat="45.10235" lon="6.02098">
        <ele>736.2</ele>
        <time>2020-09-05T12:05:28Z</time>
      </trkpt>
      <trkpt lat="45.10242" lon="6.02099">
        <ele>736.4</ele>
        <time>2020-09-05T12:05:29Z</time>
      </trkpt>
      <trkpt lat="45.1025" lon="6.02101">
        <ele>736.2</ele>
        <time>2020-09-05T12:05:30Z</time>
      </trkpt>
      <trkpt lat="45.10257" lon="6.02103">
        <ele>735.8</ele>
        <time>2020-09-05T12:05:31Z</time>
      </trkpt>
      <trkpt lat="45.10265" lon="6.02104">
        <ele>736</ele>
        <time>2020-09-05T12:05:32Z</time>
      </trkpt>
      <trkpt lat="45.10273" lon="6.02104">
        <ele>735.6</ele>
        <time>2020-09-05T12:05:33Z</time>
      </trkpt>
      <trkpt lat="45.1028" lon="6.02105">
        <ele>735.6</ele>
        <time>2020-09-05T12:05:34Z</time>
      </trkpt>
      <trkpt lat="45.10288" lon="6.02105">
        <ele>735.6</ele>
        <time>2020-09-05T12:05:35Z</time>
      </trkpt>
      <trkpt lat="45.10296" lon="6.02105">
        <ele>735.8</ele>
        <time>2020-09-05T12:05:36Z</time>
      </trkpt>
      <trkpt lat="45.10304" lon="6.02105">
        <ele>736</ele>
        <time>2020-09-05T12:05:37Z</time>
      </trkpt>
      <trkpt lat="45.10311" lon="6.02104">
        <ele>736</ele>
        <time>2020-09-05T12:05:38Z</time>
      </trkpt>
      <trkpt lat="45.10319" lon="6.02104">
        <ele>736</ele>
        <time>2020-09-05T12:05:39Z</time>
      </trkpt>
      <trkpt lat="45.10327" lon="6.02104">
        <ele>736</ele>
        <time>2020-09-05T12:05:40Z</time>
      </trkpt>
      <trkpt lat="45.10335" lon="6.02104">
        <ele>736</ele>
        <time>2020-09-05T12:05:41Z</time>
      </trkpt>
      <trkpt lat="45.10343" lon="6.02104">
        <ele>736</ele>
        <time>2020-09-05T12:05:42Z</time>
      </trkpt>
      <trkpt lat="45.10351" lon="6.02104">
        <ele>736</ele>
        <time>2020-09-05T12:05:43Z</time>
      </trkpt>
      <trkpt lat="45.10359" lon="6.02105">
        <ele>736</ele>
        <time>2020-09-05T12:05:44Z</time>
      </trkpt>
      <trkpt lat="45.10367" lon="6.02105">
        <ele>736.2</ele>
        <time>2020-09-05T12:05:45Z</time>
      </trkpt>
      <trkpt lat="45.10375" lon="6.02106">
        <ele>736.4</ele>
        <time>2020-09-05T12:05:46Z</time>
      </trkpt>
      <trkpt lat="45.10382" lon="6.02106">
        <ele>736.4</ele>
        <time>2020-09-05T12:05:47Z</time>
      </trkpt>
      <trkpt lat="45.1039" lon="6.02106">
        <ele>736.2</ele>
        <time>2020-09-05T12:05:48Z</time>
      </trkpt>
      <trkpt lat="45.10398" lon="6.02106">
        <ele>736.4</ele>
        <time>2020-09-05T12:05:49Z</time>
      </trkpt>
      <trkpt lat="45.10406" lon="6.02106">
        <ele>736.2</ele>
        <time>2020-09-05T12:05:50Z</time>
      </trkpt>
      <trkpt lat="45.10414" lon="6.02106">
        <ele>736</ele>
        <time>2020-09-05T12:05:51Z</time>
      </trkpt>
      <trkpt lat="45.10422" lon="6.02106">
        <ele>736</ele>
        <time>2020-09-05T12:05:52Z</time>
      </trkpt>
      <trkpt lat="45.10429" lon="6.02106">
        <ele>736</ele>
        <time>2020-09-05T12:05:53Z</time>
      </trkpt>
      <trkpt lat="45.10437" lon="6.02106">
        <ele>735.8</ele>
        <time>2020-09-05T12:05:54Z</time>
      </trkpt>
      <trkpt lat="45.10445" lon="6.02106">
        <ele>735.8</ele>
        <time>2020-09-05T12:05:55Z</time>
      </trkpt>
      <trkpt lat="45.10453" lon="6.02106">
        <ele>736</ele>
        <time>2020-09-05T12:05:56Z</time>
      </trkpt>
      <trkpt lat="45.1046" lon="6.02106">
        <ele>735.8</ele>
        <time>2020-09-05T12:05:57Z</time>
      </trkpt>
      <trkpt lat="45.10468" lon="6.02107">
        <ele>736</ele>
        <time>2020-09-05T12:05:58Z</time>
      </trkpt>
      <trkpt lat="45.10476" lon="6.02107">
        <ele>736</ele>
        <time>2020-09-05T12:05:59Z</time>
      </trkpt>
      <trkpt lat="45.10484" lon="6.02107">
        <ele>736.2</ele>
        <time>2020-09-05T12:06:00Z</time>
      </trkpt>
      <trkpt lat="45.10492" lon="6.02107">
        <ele>736.4</ele>
        <time>2020-09-05T12:06:01Z</time>
      </trkpt>
      <trkpt lat="45.10499" lon="6.02107">
        <ele>736.6</ele>
        <time>2020-09-05T12:06:02Z</time>
      </trkpt>
      <trkpt lat="45.10507" lon="6.02107">
        <ele>736.6</ele>
        <time>2020-09-05T12:06:03Z</time>
      </trkpt>
      <trkpt lat="45.10515" lon="6.02107">
        <ele>736.6</ele>
        <time>2020-09-05T12:06:04Z</time>
      </trkpt>
      <trkpt lat="45.10523" lon="6.02107">
        <ele>736.4</ele>
        <time>2020-09-05T12:06:05Z</time>
      </trkpt>
      <trkpt lat="45.10531" lon="6.02107">
        <ele>736.2</ele>
        <time>2020-09-05T12:06:06Z</time>
      </trkpt>
      <trkpt lat="45.10538" lon="6.02107">
        <ele>736</ele>
        <time>2020-09-05T12:06:07Z</time>
      </trkpt>
      <trkpt lat="45.10546" lon="6.02107">
        <ele>736</ele>
        <time>2020-09-05T12:06:08Z</time>
      </trkpt>
      <trkpt lat="45.10554" lon="6.02107">
        <ele>736.4</ele>
        <time>2020-09-05T12:06:09Z</time>
      </trkpt>
      <trkpt lat="45.10561" lon="6.02106">
        <ele>736.6</ele>
        <time>2020-09-05T12:06:10Z</time>
      </trkpt>
      <trkpt lat="45.10569" lon="6.02106">
        <ele>736.6</ele>
        <time>2020-09-05T12:06:11Z</time>
      </trkpt>
      <trkpt lat="45.10576" lon="6.02106">
        <ele>736.8</ele>
        <time>2020-09-05T12:06:12Z</time>
      </trkpt>
      <trkpt lat="45.10584" lon="6.02105">
        <ele>736.8</ele>
        <time>2020-09-05T12:06:13Z</time>
      </trkpt>
      <trkpt lat="45.10591" lon="6.02105">
        <ele>736.4</ele>
        <time>2020-09-05T12:06:14Z</time>
      </trkpt>
      <trkpt lat="45.10599" lon="6.02105">
        <ele>736.4</ele>
        <time>2020-09-05T12:06:15Z</time>
      </trkpt>
      <trkpt lat="45.10606" lon="6.02104">
        <ele>736.4</ele>
        <time>2020-09-05T12:06:16Z</time>
      </trkpt>
      <trkpt lat="45.10613" lon="6.02103">
        <ele>736.6</ele>
        <time>2020-09-05T12:06:17Z</time>
      </trkpt>
      <trkpt lat="45.10621" lon="6.02103">
        <ele>736.4</ele>
        <time>2020-09-05T12:06:18Z</time>
      </trkpt>
      <trkpt lat="45.10628" lon="6.02102">
        <ele>736.4</ele>
        <time>2020-09-05T12:06:19Z</time>
      </trkpt>
      <trkpt lat="45.10635" lon="6.02101">
        <ele>736.2</ele>
        <time>2020-09-05T12:06:20Z</time>
      </trkpt>
      <trkpt lat="45.10642" lon="6.021">
        <ele>736.2</ele>
        <time>2020-09-05T12:06:21Z</time>
      </trkpt>
      <trkpt lat="45.1065" lon="6.02099">
        <ele>736.2</ele>
        <time>2020-09-05T12:06:22Z</time>
      </trkpt>
      <trkpt lat="45.10657" lon="6.02098">
        <ele>736.2</ele>
        <time>2020-09-05T12:06:23Z</time>
      </trkpt>
      <trkpt lat="45.10665" lon="6.02097">
        <ele>736.2</ele>
        <time>2020-09-05T12:06:24Z</time>
      </trkpt>
      <trkpt lat="45.10672" lon="6.02097">
        <ele>736.2</ele>
        <time>2020-09-05T12:06:25Z</time>
      </trkpt>
      <trkpt lat="45.10679" lon="6.02096">
        <ele>736.2</ele>
        <time>2020-09-05T12:06:26Z</time>
      </trkpt>
      <trkpt lat="45.10687" lon="6.02094">
        <ele>736</ele>
        <time>2020-09-05T12:06:27Z</time>
      </trkpt>
      <trkpt lat="45.10694" lon="6.02093">
        <ele>735.8</ele>
        <time>2020-09-05T12:06:28Z</time>
      </trkpt>
      <trkpt lat="45.10702" lon="6.02092">
        <ele>735.8</ele>
        <time>2020-09-05T12:06:29Z</time>
      </trkpt>
      <trkpt lat="45.10709" lon="6.02091">
        <ele>735.6</ele>
        <time>2020-09-05T12:06:30Z</time>
      </trkpt>
      <trkpt lat="45.10717" lon="6.02089">
        <ele>735.4</ele>
        <time>2020-09-05T12:06:31Z</time>
      </trkpt>
      <trkpt lat="45.10724" lon="6.02088">
        <ele>735.6</ele>
        <time>2020-09-05T12:06:32Z</time>
      </trkpt>
      <trkpt lat="45.10732" lon="6.02086">
        <ele>735.6</ele>
        <time>2020-09-05T12:06:33Z</time>
      </trkpt>
      <trkpt lat="45.1074" lon="6.02084">
        <ele>735.4</ele>
        <time>2020-09-05T12:06:34Z</time>
      </trkpt>
      <trkpt lat="45.10747" lon="6.02082">
        <ele>735.4</ele>
        <time>2020-09-05T12:06:35Z</time>
      </trkpt>
      <trkpt lat="45.10755" lon="6.02079">
        <ele>735.4</ele>
        <time>2020-09-05T12:06:36Z</time>
      </trkpt>
      <trkpt lat="45.10763" lon="6.02077">
        <ele>735.4</ele>
        <time>2020-09-05T12:06:37Z</time>
      </trkpt>
      <trkpt lat="45.1077" lon="6.02076">
        <ele>735.4</ele>
        <time>2020-09-05T12:06:38Z</time>
      </trkpt>
      <trkpt lat="45.10778" lon="6.02074">
        <ele>735.8</ele>
        <time>2020-09-05T12:06:39Z</time>
      </trkpt>
      <trkpt lat="45.10785" lon="6.02072">
        <ele>735.8</ele>
        <time>2020-09-05T12:06:40Z</time>
      </trkpt>
      <trkpt lat="45.10793" lon="6.0207">
        <ele>735.6</ele>
        <time>2020-09-05T12:06:41Z</time>
      </trkpt>
      <trkpt lat="45.108" lon="6.02067">
        <ele>736</ele>
        <time>2020-09-05T12:06:42Z</time>
      </trkpt>
      <trkpt lat="45.10808" lon="6.02065">
        <ele>735.8</ele>
        <time>2020-09-05T12:06:43Z</time>
      </trkpt>
      <trkpt lat="45.10815" lon="6.02062">
        <ele>735.8</ele>
        <time>2020-09-05T12:06:44Z</time>
      </trkpt>
      <trkpt lat="45.10823" lon="6.02058">
        <ele>735.8</ele>
        <time>2020-09-05T12:06:45Z</time>
      </trkpt>
      <trkpt lat="45.1083" lon="6.02055">
        <ele>735.4</ele>
        <time>2020-09-05T12:06:46Z</time>
      </trkpt>
      <trkpt lat="45.10838" lon="6.02051">
        <ele>735.2</ele>
        <time>2020-09-05T12:06:47Z</time>
      </trkpt>
      <trkpt lat="45.10845" lon="6.02048">
        <ele>735.4</ele>
        <time>2020-09-05T12:06:48Z</time>
      </trkpt>
      <trkpt lat="45.10853" lon="6.02045">
        <ele>735.4</ele>
        <time>2020-09-05T12:06:49Z</time>
      </trkpt>
      <trkpt lat="45.10861" lon="6.02042">
        <ele>735.4</ele>
        <time>2020-09-05T12:06:50Z</time>
      </trkpt>
      <trkpt lat="45.10868" lon="6.02039">
        <ele>735.2</ele>
        <time>2020-09-05T12:06:51Z</time>
      </trkpt>
      <trkpt lat="45.10876" lon="6.02036">
        <ele>735.2</ele>
        <time>2020-09-05T12:06:52Z</time>
      </trkpt>
      <trkpt lat="45.10884" lon="6.02033">
        <ele>735.2</ele>
        <time>2020-09-05T12:06:53Z</time>
      </trkpt>
      <trkpt lat="45.10891" lon="6.0203">
        <ele>735.6</ele>
        <time>2020-09-05T12:06:54Z</time>
      </trkpt>
      <trkpt lat="45.10899" lon="6.02026">
        <ele>735.4</ele>
        <time>2020-09-05T12:06:55Z</time>
      </trkpt>
      <trkpt lat="45.10906" lon="6.02022">
        <ele>735.6</ele>
        <time>2020-09-05T12:06:56Z</time>
      </trkpt>
      <trkpt lat="45.10914" lon="6.02018">
        <ele>736.2</ele>
        <time>2020-09-05T12:06:57Z</time>
      </trkpt>
      <trkpt lat="45.10921" lon="6.02014">
        <ele>736.4</ele>
        <time>2020-09-05T12:06:58Z</time>
      </trkpt>
      <trkpt lat="45.10928" lon="6.0201">
        <ele>736.2</ele>
        <time>2020-09-05T12:06:59Z</time>
      </trkpt>
      <trkpt lat="45.10935" lon="6.02006">
        <ele>736</ele>
        <time>2020-09-05T12:07:00Z</time>
      </trkpt>
      <trkpt lat="45.10942" lon="6.02003">
        <ele>736</ele>
        <time>2020-09-05T12:07:01Z</time>
      </trkpt>
      <trkpt lat="45.10949" lon="6.01999">
        <ele>736</ele>
        <time>2020-09-05T12:07:02Z</time>
      </trkpt>
      <trkpt lat="45.10956" lon="6.01995">
        <ele>735.8</ele>
        <time>2020-09-05T12:07:03Z</time>
      </trkpt>
      <trkpt lat="45.10963" lon="6.01992">
        <ele>735.4</ele>
        <time>2020-09-05T12:07:04Z</time>
      </trkpt>
      <trkpt lat="45.1097" lon="6.01988">
        <ele>735.8</ele>
        <time>2020-09-05T12:07:05Z</time>
      </trkpt>
      <trkpt lat="45.10977" lon="6.01984">
        <ele>735.6</ele>
        <time>2020-09-05T12:07:06Z</time>
      </trkpt>
      <trkpt lat="45.10985" lon="6.01979">
        <ele>735.2</ele>
        <time>2020-09-05T12:07:07Z</time>
      </trkpt>
      <trkpt lat="45.10992" lon="6.01975">
        <ele>735</ele>
        <time>2020-09-05T12:07:08Z</time>
      </trkpt>
      <trkpt lat="45.10999" lon="6.01971">
        <ele>735.2</ele>
        <time>2020-09-05T12:07:09Z</time>
      </trkpt>
      <trkpt lat="45.11006" lon="6.01967">
        <ele>735.2</ele>
        <time>2020-09-05T12:07:10Z</time>
      </trkpt>
      <trkpt lat="45.11014" lon="6.01963">
        <ele>735.2</ele>
        <time>2020-09-05T12:07:11Z</time>
      </trkpt>
      <trkpt lat="45.11021" lon="6.01959">
        <ele>735.2</ele>
        <time>2020-09-05T12:07:12Z</time>
      </trkpt>
      <trkpt lat="45.11028" lon="6.01955">
        <ele>734.8</ele>
        <time>2020-09-05T12:07:13Z</time>
      </trkpt>
      <trkpt lat="45.11035" lon="6.01951">
        <ele>734.6</ele>
        <time>2020-09-05T12:07:14Z</time>
      </trkpt>
      <trkpt lat="45.11042" lon="6.01947">
        <ele>734.4</ele>
        <time>2020-09-05T12:07:15Z</time>
      </trkpt>
      <trkpt lat="45.1105" lon="6.01942">
        <ele>734.4</ele>
        <time>2020-09-05T12:07:16Z</time>
      </trkpt>
      <trkpt lat="45.11057" lon="6.01939">
        <ele>734.2</ele>
        <time>2020-09-05T12:07:17Z</time>
      </trkpt>
      <trkpt lat="45.11065" lon="6.01935">
        <ele>734.2</ele>
        <time>2020-09-05T12:07:18Z</time>
      </trkpt>
      <trkpt lat="45.11072" lon="6.0193">
        <ele>734.2</ele>
        <time>2020-09-05T12:07:19Z</time>
      </trkpt>
      <trkpt lat="45.1108" lon="6.01926">
        <ele>733.8</ele>
        <time>2020-09-05T12:07:20Z</time>
      </trkpt>
      <trkpt lat="45.11088" lon="6.01922">
        <ele>734</ele>
        <time>2020-09-05T12:07:21Z</time>
      </trkpt>
      <trkpt lat="45.11095" lon="6.01918">
        <ele>734.2</ele>
        <time>2020-09-05T12:07:22Z</time>
      </trkpt>
      <trkpt lat="45.11103" lon="6.01913">
        <ele>734.2</ele>
        <time>2020-09-05T12:07:23Z</time>
      </trkpt>
      <trkpt lat="45.1111" lon="6.01909">
        <ele>734.6</ele>
        <time>2020-09-05T12:07:24Z</time>
      </trkpt>
      <trkpt lat="45.11118" lon="6.01905">
        <ele>734.6</ele>
        <time>2020-09-05T12:07:25Z</time>
      </trkpt>
      <trkpt lat="45.11125" lon="6.01901">
        <ele>734.6</ele>
        <time>2020-09-05T12:07:26Z</time>
      </trkpt>
      <trkpt lat="45.11133" lon="6.01896">
        <ele>734.4</ele>
        <time>2020-09-05T12:07:27Z</time>
      </trkpt>
      <trkpt lat="45.1114" lon="6.01892">
        <ele>734.2</ele>
        <time>2020-09-05T12:07:28Z</time>
      </trkpt>
      <trkpt lat="45.11148" lon="6.01888">
        <ele>734.2</ele>
        <time>2020-09-05T12:07:29Z</time>
      </trkpt>
      <trkpt lat="45.11155" lon="6.01883">
        <ele>734</ele>
        <time>2020-09-05T12:07:30Z</time>
      </trkpt>
      <trkpt lat="45.11163" lon="6.01879">
        <ele>734</ele>
        <time>2020-09-05T12:07:31Z</time>
      </trkpt>
      <trkpt lat="45.1117" lon="6.01874">
        <ele>734</ele>
        <time>2020-09-05T12:07:32Z</time>
      </trkpt>
      <trkpt lat="45.11178" lon="6.01869">
        <ele>734.2</ele>
        <time>2020-09-05T12:07:33Z</time>
      </trkpt>
      <trkpt lat="45.11185" lon="6.01865">
        <ele>734.6</ele>
        <time>2020-09-05T12:07:34Z</time>
      </trkpt>
      <trkpt lat="45.11193" lon="6.0186">
        <ele>734.4</ele>
        <time>2020-09-05T12:07:35Z</time>
      </trkpt>
      <trkpt lat="45.112" lon="6.01855">
        <ele>734.4</ele>
        <time>2020-09-05T12:07:36Z</time>
      </trkpt>
      <trkpt lat="45.11208" lon="6.0185">
        <ele>734.8</ele>
        <time>2020-09-05T12:07:37Z</time>
      </trkpt>
      <trkpt lat="45.11215" lon="6.01844">
        <ele>734.4</ele>
        <time>2020-09-05T12:07:38Z</time>
      </trkpt>
      <trkpt lat="45.11222" lon="6.01838">
        <ele>734.4</ele>
        <time>2020-09-05T12:07:39Z</time>
      </trkpt>
      <trkpt lat="45.11229" lon="6.01832">
        <ele>734.4</ele>
        <time>2020-09-05T12:07:40Z</time>
      </trkpt>
      <trkpt lat="45.11236" lon="6.01825">
        <ele>734.6</ele>
        <time>2020-09-05T12:07:41Z</time>
      </trkpt>
      <trkpt lat="45.11243" lon="6.01818">
        <ele>734.6</ele>
        <time>2020-09-05T12:07:42Z</time>
      </trkpt>
      <trkpt lat="45.11249" lon="6.01811">
        <ele>734.4</ele>
        <time>2020-09-05T12:07:43Z</time>
      </trkpt>
      <trkpt lat="45.11256" lon="6.01803">
        <ele>734.4</ele>
        <time>2020-09-05T12:07:44Z</time>
      </trkpt>
      <trkpt lat="45.11262" lon="6.01796">
        <ele>734.6</ele>
        <time>2020-09-05T12:07:45Z</time>
      </trkpt>
      <trkpt lat="45.11269" lon="6.01788">
        <ele>734.2</ele>
        <time>2020-09-05T12:07:46Z</time>
      </trkpt>
      <trkpt lat="45.11275" lon="6.01781">
        <ele>734.4</ele>
        <time>2020-09-05T12:07:47Z</time>
      </trkpt>
      <trkpt lat="45.11282" lon="6.01774">
        <ele>734.2</ele>
        <time>2020-09-05T12:07:48Z</time>
      </trkpt>
      <trkpt lat="45.11288" lon="6.01766">
        <ele>734.2</ele>
        <time>2020-09-05T12:07:49Z</time>
      </trkpt>
      <trkpt lat="45.11295" lon="6.01759">
        <ele>734.2</ele>
        <time>2020-09-05T12:07:50Z</time>
      </trkpt>
      <trkpt lat="45.11301" lon="6.01752">
        <ele>734.2</ele>
        <time>2020-09-05T12:07:51Z</time>
      </trkpt>
      <trkpt lat="45.11308" lon="6.01745">
        <ele>734</ele>
        <time>2020-09-05T12:07:52Z</time>
      </trkpt>
      <trkpt lat="45.11314" lon="6.01738">
        <ele>733.8</ele>
        <time>2020-09-05T12:07:53Z</time>
      </trkpt>
      <trkpt lat="45.11321" lon="6.0173">
        <ele>733.6</ele>
        <time>2020-09-05T12:07:54Z</time>
      </trkpt>
      <trkpt lat="45.11327" lon="6.01723">
        <ele>733.6</ele>
        <time>2020-09-05T12:07:55Z</time>
      </trkpt>
      <trkpt lat="45.11333" lon="6.01714">
        <ele>733.6</ele>
        <time>2020-09-05T12:07:56Z</time>
      </trkpt>
      <trkpt lat="45.11339" lon="6.01706">
        <ele>733.6</ele>
        <time>2020-09-05T12:07:57Z</time>
      </trkpt>
      <trkpt lat="45.11344" lon="6.01698">
        <ele>733.6</ele>
        <time>2020-09-05T12:07:58Z</time>
      </trkpt>
      <trkpt lat="45.1135" lon="6.01689">
        <ele>733.6</ele>
        <time>2020-09-05T12:07:59Z</time>
      </trkpt>
      <trkpt lat="45.11355" lon="6.0168">
        <ele>733.6</ele>
        <time>2020-09-05T12:08:00Z</time>
      </trkpt>
      <trkpt lat="45.1136" lon="6.01671">
        <ele>733.6</ele>
        <time>2020-09-05T12:08:01Z</time>
      </trkpt>
      <trkpt lat="45.11365" lon="6.01661">
        <ele>733.8</ele>
        <time>2020-09-05T12:08:02Z</time>
      </trkpt>
      <trkpt lat="45.1137" lon="6.01651">
        <ele>733.8</ele>
        <time>2020-09-05T12:08:03Z</time>
      </trkpt>
      <trkpt lat="45.11376" lon="6.01642">
        <ele>734</ele>
        <time>2020-09-05T12:08:04Z</time>
      </trkpt>
      <trkpt lat="45.11381" lon="6.01632">
        <ele>734.4</ele>
        <time>2020-09-05T12:08:05Z</time>
      </trkpt>
      <trkpt lat="45.11387" lon="6.01623">
        <ele>734.2</ele>
        <time>2020-09-05T12:08:06Z</time>
      </trkpt>
      <trkpt lat="45.11392" lon="6.01613">
        <ele>734.4</ele>
        <time>2020-09-05T12:08:07Z</time>
      </trkpt>
      <trkpt lat="45.11398" lon="6.01603">
        <ele>734.4</ele>
        <time>2020-09-05T12:08:08Z</time>
      </trkpt>
      <trkpt lat="45.11403" lon="6.01593">
        <ele>734.6</ele>
        <time>2020-09-05T12:08:09Z</time>
      </trkpt>
      <trkpt lat="45.11408" lon="6.01583">
        <ele>734.8</ele>
        <time>2020-09-05T12:08:10Z</time>
      </trkpt>
      <trkpt lat="45.11414" lon="6.01573">
        <ele>734.8</ele>
        <time>2020-09-05T12:08:11Z</time>
      </trkpt>
      <trkpt lat="45.11419" lon="6.01563">
        <ele>734.4</ele>
        <time>2020-09-05T12:08:12Z</time>
      </trkpt>
      <trkpt lat="45.11424" lon="6.01553">
        <ele>734.6</ele>
        <time>2020-09-05T12:08:13Z</time>
      </trkpt>
      <trkpt lat="45.11429" lon="6.01543">
        <ele>734.4</ele>
        <time>2020-09-05T12:08:14Z</time>
      </trkpt>
      <trkpt lat="45.11434" lon="6.01533">
        <ele>734.4</ele>
        <time>2020-09-05T12:08:15Z</time>
      </trkpt>
      <trkpt lat="45.1144" lon="6.01523">
        <ele>734.4</ele>
        <time>2020-09-05T12:08:16Z</time>
      </trkpt>
      <trkpt lat="45.11445" lon="6.01513">
        <ele>734.6</ele>
        <time>2020-09-05T12:08:17Z</time>
      </trkpt>
      <trkpt lat="45.1145" lon="6.01504">
        <ele>734.6</ele>
        <time>2020-09-05T12:08:18Z</time>
      </trkpt>
      <trkpt lat="45.11455" lon="6.01494">
        <ele>734.2</ele>
        <time>2020-09-05T12:08:19Z</time>
      </trkpt>
      <trkpt lat="45.1146" lon="6.01484">
        <ele>734.2</ele>
        <time>2020-09-05T12:08:20Z</time>
      </trkpt>
      <trkpt lat="45.11466" lon="6.01475">
        <ele>734.2</ele>
        <time>2020-09-05T12:08:21Z</time>
      </trkpt>
      <trkpt lat="45.11471" lon="6.01465">
        <ele>734.2</ele>
        <time>2020-09-05T12:08:22Z</time>
      </trkpt>
      <trkpt lat="45.11476" lon="6.01456">
        <ele>734.6</ele>
        <time>2020-09-05T12:08:23Z</time>
      </trkpt>
      <trkpt lat="45.11482" lon="6.01447">
        <ele>734.4</ele>
        <time>2020-09-05T12:08:24Z</time>
      </trkpt>
      <trkpt lat="45.11487" lon="6.01437">
        <ele>734.6</ele>
        <time>2020-09-05T12:08:25Z</time>
      </trkpt>
      <trkpt lat="45.11492" lon="6.01428">
        <ele>734.4</ele>
        <time>2020-09-05T12:08:26Z</time>
      </trkpt>
      <trkpt lat="45.11496" lon="6.01419">
        <ele>734.4</ele>
        <time>2020-09-05T12:08:27Z</time>
      </trkpt>
      <trkpt lat="45.11501" lon="6.0141">
        <ele>734</ele>
        <time>2020-09-05T12:08:28Z</time>
      </trkpt>
      <trkpt lat="45.11506" lon="6.01401">
        <ele>733.6</ele>
        <time>2020-09-05T12:08:29Z</time>
      </trkpt>
      <trkpt lat="45.1151" lon="6.01392">
        <ele>733.6</ele>
        <time>2020-09-05T12:08:30Z</time>
      </trkpt>
      <trkpt lat="45.11515" lon="6.01383">
        <ele>733.4</ele>
        <time>2020-09-05T12:08:31Z</time>
      </trkpt>
      <trkpt lat="45.11519" lon="6.01375">
        <ele>733.6</ele>
        <time>2020-09-05T12:08:32Z</time>
      </trkpt>
      <trkpt lat="45.11524" lon="6.01367">
        <ele>733.6</ele>
        <time>2020-09-05T12:08:33Z</time>
      </trkpt>
      <trkpt lat="45.11528" lon="6.01359">
        <ele>733.6</ele>
        <time>2020-09-05T12:08:34Z</time>
      </trkpt>
      <trkpt lat="45.11533" lon="6.01351">
        <ele>733.6</ele>
        <time>2020-09-05T12:08:35Z</time>
      </trkpt>
      <trkpt lat="45.11537" lon="6.01343">
        <ele>733.6</ele>
        <time>2020-09-05T12:08:36Z</time>
      </trkpt>
      <trkpt lat="45.11541" lon="6.01335">
        <ele>733.4</ele>
        <time>2020-09-05T12:08:37Z</time>
      </trkpt>
      <trkpt lat="45.11544" lon="6.01328">
        <ele>733.4</ele>
        <time>2020-09-05T12:08:38Z</time>
      </trkpt>
      <trkpt lat="45.11547" lon="6.01322">
        <ele>733.4</ele>
        <time>2020-09-05T12:08:39Z</time>
      </trkpt>
      <trkpt lat="45.11549" lon="6.01317">
        <ele>733.2</ele>
        <time>2020-09-05T12:08:40Z</time>
      </trkpt>
      <trkpt lat="45.11552" lon="6.01315">
        <ele>733.2</ele>
        <time>2020-09-05T12:08:41Z</time>
      </trkpt>
      <trkpt lat="45.11554" lon="6.01315">
        <ele>733.2</ele>
        <time>2020-09-05T12:08:42Z</time>
      </trkpt>
      <trkpt lat="45.11557" lon="6.01317">
        <ele>733.2</ele>
        <time>2020-09-05T12:08:43Z</time>
      </trkpt>
      <trkpt lat="45.1156" lon="6.0132">
        <ele>733.4</ele>
        <time>2020-09-05T12:08:44Z</time>
      </trkpt>
      <trkpt lat="45.11563" lon="6.01323">
        <ele>733.2</ele>
        <time>2020-09-05T12:08:45Z</time>
      </trkpt>
      <trkpt lat="45.11566" lon="6.01327">
        <ele>733</ele>
        <time>2020-09-05T12:08:46Z</time>
      </trkpt>
      <trkpt lat="45.1157" lon="6.01331">
        <ele>733.4</ele>
        <time>2020-09-05T12:08:47Z</time>
      </trkpt>
      <trkpt lat="45.11574" lon="6.01336">
        <ele>733.6</ele>
        <time>2020-09-05T12:08:48Z</time>
      </trkpt>
      <trkpt lat="45.11579" lon="6.01341">
        <ele>734</ele>
        <time>2020-09-05T12:08:49Z</time>
      </trkpt>
      <trkpt lat="45.11583" lon="6.01347">
        <ele>734</ele>
        <time>2020-09-05T12:08:50Z</time>
      </trkpt>
      <trkpt lat="45.11588" lon="6.01352">
        <ele>734.2</ele>
        <time>2020-09-05T12:08:51Z</time>
      </trkpt>
      <trkpt lat="45.11593" lon="6.01358">
        <ele>734</ele>
        <time>2020-09-05T12:08:52Z</time>
      </trkpt>
      <trkpt lat="45.11598" lon="6.01363">
        <ele>734</ele>
        <time>2020-09-05T12:08:53Z</time>
      </trkpt>
      <trkpt lat="45.11603" lon="6.01369">
        <ele>733.8</ele>
        <time>2020-09-05T12:08:54Z</time>
      </trkpt>
      <trkpt lat="45.11608" lon="6.01375">
        <ele>733.8</ele>
        <time>2020-09-05T12:08:55Z</time>
      </trkpt>
      <trkpt lat="45.11613" lon="6.01381">
        <ele>733.6</ele>
        <time>2020-09-05T12:08:56Z</time>
      </trkpt>
      <trkpt lat="45.11618" lon="6.01386">
        <ele>733.6</ele>
        <time>2020-09-05T12:08:57Z</time>
      </trkpt>
      <trkpt lat="45.11624" lon="6.01392">
        <ele>734</ele>
        <time>2020-09-05T12:08:58Z</time>
      </trkpt>
      <trkpt lat="45.11629" lon="6.01399">
        <ele>733.8</ele>
        <time>2020-09-05T12:08:59Z</time>
      </trkpt>
      <trkpt lat="45.11636" lon="6.01405">
        <ele>734.2</ele>
        <time>2020-09-05T12:09:00Z</time>
      </trkpt>
      <trkpt lat="45.11642" lon="6.01411">
        <ele>734.2</ele>
        <time>2020-09-05T12:09:01Z</time>
      </trkpt>
      <trkpt lat="45.11648" lon="6.01418">
        <ele>734.4</ele>
        <time>2020-09-05T12:09:02Z</time>
      </trkpt>
      <trkpt lat="45.11655" lon="6.01425">
        <ele>734.6</ele>
        <time>2020-09-05T12:09:03Z</time>
      </trkpt>
      <trkpt lat="45.11661" lon="6.01432">
        <ele>734</ele>
        <time>2020-09-05T12:09:04Z</time>
      </trkpt>
      <trkpt lat="45.11667" lon="6.0144">
        <ele>733.8</ele>
        <time>2020-09-05T12:09:05Z</time>
      </trkpt>
      <trkpt lat="45.11674" lon="6.01447">
        <ele>733.6</ele>
        <time>2020-09-05T12:09:06Z</time>
      </trkpt>
      <trkpt lat="45.1168" lon="6.01454">
        <ele>733.2</ele>
        <time>2020-09-05T12:09:07Z</time>
      </trkpt>
      <trkpt lat="45.11686" lon="6.01462">
        <ele>733.2</ele>
        <time>2020-09-05T12:09:08Z</time>
      </trkpt>
      <trkpt lat="45.11693" lon="6.0147">
        <ele>733</ele>
        <time>2020-09-05T12:09:09Z</time>
      </trkpt>
      <trkpt lat="45.11699" lon="6.01478">
        <ele>732.8</ele>
        <time>2020-09-05T12:09:10Z</time>
      </trkpt>
      <trkpt lat="45.11706" lon="6.01486">
        <ele>732.4</ele>
        <time>2020-09-05T12:09:11Z</time>
      </trkpt>
      <trkpt lat="45.11712" lon="6.01494">
        <ele>732.4</ele>
        <time>2020-09-05T12:09:12Z</time>
      </trkpt>
      <trkpt lat="45.11718" lon="6.01501">
        <ele>732.4</ele>
        <time>2020-09-05T12:09:13Z</time>
      </trkpt>
      <trkpt lat="45.11725" lon="6.01509">
        <ele>732.6</ele>
        <time>2020-09-05T12:09:14Z</time>
      </trkpt>
      <trkpt lat="45.11731" lon="6.01516">
        <ele>732.6</ele>
        <time>2020-09-05T12:09:15Z</time>
      </trkpt>
      <trkpt lat="45.11737" lon="6.01524">
        <ele>733.2</ele>
        <time>2020-09-05T12:09:16Z</time>
      </trkpt>
      <trkpt lat="45.11743" lon="6.01531">
        <ele>733.2</ele>
        <time>2020-09-05T12:09:17Z</time>
      </trkpt>
      <trkpt lat="45.1175" lon="6.01539">
        <ele>733</ele>
        <time>2020-09-05T12:09:18Z</time>
      </trkpt>
      <trkpt lat="45.11756" lon="6.01546">
        <ele>732.8</ele>
        <time>2020-09-05T12:09:19Z</time>
      </trkpt>
      <trkpt lat="45.11762" lon="6.01554">
        <ele>732.4</ele>
        <time>2020-09-05T12:09:20Z</time>
      </trkpt>
      <trkpt lat="45.11768" lon="6.01561">
        <ele>732.8</ele>
        <time>2020-09-05T12:09:21Z</time>
      </trkpt>
      <trkpt lat="45.11774" lon="6.01569">
        <ele>732.6</ele>
        <time>2020-09-05T12:09:22Z</time>
      </trkpt>
      <trkpt lat="45.1178" lon="6.01577">
        <ele>732.8</ele>
        <time>2020-09-05T12:09:23Z</time>
      </trkpt>
      <trkpt lat="45.11786" lon="6.01584">
        <ele>732.8</ele>
        <time>2020-09-05T12:09:24Z</time>
      </trkpt>
      <trkpt lat="45.11792" lon="6.01591">
        <ele>732.6</ele>
        <time>2020-09-05T12:09:25Z</time>
      </trkpt>
      <trkpt lat="45.11799" lon="6.01599">
        <ele>732.8</ele>
        <time>2020-09-05T12:09:26Z</time>
      </trkpt>
      <trkpt lat="45.11805" lon="6.01606">
        <ele>732.6</ele>
        <time>2020-09-05T12:09:27Z</time>
      </trkpt>
      <trkpt lat="45.11811" lon="6.01614">
        <ele>732.4</ele>
        <time>2020-09-05T12:09:28Z</time>
      </trkpt>
      <trkpt lat="45.11817" lon="6.01621">
        <ele>732.6</ele>
        <time>2020-09-05T12:09:29Z</time>
      </trkpt>
      <trkpt lat="45.11823" lon="6.01629">
        <ele>732.6</ele>
        <time>2020-09-05T12:09:30Z</time>
      </trkpt>
      <trkpt lat="45.11829" lon="6.01636">
        <ele>732.6</ele>
        <time>2020-09-05T12:09:31Z</time>
      </trkpt>
      <trkpt lat="45.11835" lon="6.01644">
        <ele>732.6</ele>
        <time>2020-09-05T12:09:32Z</time>
      </trkpt>
      <trkpt lat="45.11841" lon="6.01651">
        <ele>733</ele>
        <time>2020-09-05T12:09:33Z</time>
      </trkpt>
      <trkpt lat="45.11847" lon="6.01658">
        <ele>733.2</ele>
        <time>2020-09-05T12:09:34Z</time>
      </trkpt>
      <trkpt lat="45.11853" lon="6.01666">
        <ele>732.8</ele>
        <time>2020-09-05T12:09:35Z</time>
      </trkpt>
      <trkpt lat="45.11859" lon="6.01674">
        <ele>733</ele>
        <time>2020-09-05T12:09:36Z</time>
      </trkpt>
      <trkpt lat="45.11865" lon="6.01681">
        <ele>733.2</ele>
        <time>2020-09-05T12:09:37Z</time>
      </trkpt>
      <trkpt lat="45.11871" lon="6.01689">
        <ele>733</ele>
        <time>2020-09-05T12:09:38Z</time>
      </trkpt>
      <trkpt lat="45.11877" lon="6.01696">
        <ele>733.6</ele>
        <time>2020-09-05T12:09:39Z</time>
      </trkpt>
      <trkpt lat="45.11883" lon="6.01704">
        <ele>733.6</ele>
        <time>2020-09-05T12:09:40Z</time>
      </trkpt>
      <trkpt lat="45.11889" lon="6.01711">
        <ele>733.8</ele>
        <time>2020-09-05T12:09:41Z</time>
      </trkpt>
      <trkpt lat="45.11895" lon="6.01718">
        <ele>733.4</ele>
        <time>2020-09-05T12:09:42Z</time>
      </trkpt>
      <trkpt lat="45.11901" lon="6.01725">
        <ele>733.2</ele>
        <time>2020-09-05T12:09:43Z</time>
      </trkpt>
      <trkpt lat="45.11907" lon="6.01733">
        <ele>733.6</ele>
        <time>2020-09-05T12:09:44Z</time>
      </trkpt>
      <trkpt lat="45.11913" lon="6.0174">
        <ele>733.8</ele>
        <time>2020-09-05T12:09:45Z</time>
      </trkpt>
      <trkpt lat="45.11919" lon="6.01748">
        <ele>733.4</ele>
        <time>2020-09-05T12:09:46Z</time>
      </trkpt>
      <trkpt lat="45.11925" lon="6.01756">
        <ele>733.6</ele>
        <time>2020-09-05T12:09:47Z</time>
      </trkpt>
      <trkpt lat="45.1193" lon="6.01765">
        <ele>733.8</ele>
        <time>2020-09-05T12:09:48Z</time>
      </trkpt>
      <trkpt lat="45.11935" lon="6.01773">
        <ele>733.8</ele>
        <time>2020-09-05T12:09:49Z</time>
      </trkpt>
      <trkpt lat="45.11941" lon="6.01782">
        <ele>733.8</ele>
        <time>2020-09-05T12:09:50Z</time>
      </trkpt>
      <trkpt lat="45.11946" lon="6.0179">
        <ele>733.8</ele>
        <time>2020-09-05T12:09:51Z</time>
      </trkpt>
      <trkpt lat="45.11951" lon="6.01799">
        <ele>734</ele>
        <time>2020-09-05T12:09:52Z</time>
      </trkpt>
      <trkpt lat="45.11956" lon="6.01808">
        <ele>733.8</ele>
        <time>2020-09-05T12:09:53Z</time>
      </trkpt>
      <trkpt lat="45.11961" lon="6.01816">
        <ele>733.6</ele>
        <time>2020-09-05T12:09:54Z</time>
      </trkpt>
      <trkpt lat="45.11965" lon="6.01825">
        <ele>733.8</ele>
        <time>2020-09-05T12:09:55Z</time>
      </trkpt>
      <trkpt lat="45.1197" lon="6.01834">
        <ele>733.8</ele>
        <time>2020-09-05T12:09:56Z</time>
      </trkpt>
      <trkpt lat="45.11974" lon="6.01844">
        <ele>733.8</ele>
        <time>2020-09-05T12:09:57Z</time>
      </trkpt>
      <trkpt lat="45.11979" lon="6.01853">
        <ele>733.6</ele>
        <time>2020-09-05T12:09:58Z</time>
      </trkpt>
      <trkpt lat="45.11983" lon="6.01863">
        <ele>733.6</ele>
        <time>2020-09-05T12:09:59Z</time>
      </trkpt>
      <trkpt lat="45.11988" lon="6.01872">
        <ele>733.6</ele>
        <time>2020-09-05T12:10:00Z</time>
      </trkpt>
      <trkpt lat="45.11992" lon="6.01882">
        <ele>733.8</ele>
        <time>2020-09-05T12:10:01Z</time>
      </trkpt>
      <trkpt lat="45.11996" lon="6.01892">
        <ele>734</ele>
        <time>2020-09-05T12:10:02Z</time>
      </trkpt>
      <trkpt lat="45.12" lon="6.01902">
        <ele>734</ele>
        <time>2020-09-05T12:10:03Z</time>
      </trkpt>
      <trkpt lat="45.12004" lon="6.01912">
        <ele>734.2</ele>
        <time>2020-09-05T12:10:04Z</time>
      </trkpt>
      <trkpt lat="45.12008" lon="6.01922">
        <ele>734.4</ele>
        <time>2020-09-05T12:10:05Z</time>
      </trkpt>
      <trkpt lat="45.12013" lon="6.01932">
        <ele>734.4</ele>
        <time>2020-09-05T12:10:06Z</time>
      </trkpt>
      <trkpt lat="45.12017" lon="6.01942">
        <ele>735</ele>
        <time>2020-09-05T12:10:07Z</time>
      </trkpt>
      <trkpt lat="45.12021" lon="6.01953">
        <ele>735.2</ele>
        <time>2020-09-05T12:10:08Z</time>
      </trkpt>
      <trkpt lat="45.12025" lon="6.01963">
        <ele>735.4</ele>
        <time>2020-09-05T12:10:09Z</time>
      </trkpt>
      <trkpt lat="45.12029" lon="6.01973">
        <ele>735.2</ele>
        <time>2020-09-05T12:10:10Z</time>
      </trkpt>
      <trkpt lat="45.12033" lon="6.01983">
        <ele>734.8</ele>
        <time>2020-09-05T12:10:11Z</time>
      </trkpt>
      <trkpt lat="45.12037" lon="6.01993">
        <ele>734.8</ele>
        <time>2020-09-05T12:10:12Z</time>
      </trkpt>
      <trkpt lat="45.12042" lon="6.02003">
        <ele>735</ele>
        <time>2020-09-05T12:10:13Z</time>
      </trkpt>
      <trkpt lat="45.12046" lon="6.02014">
        <ele>735</ele>
        <time>2020-09-05T12:10:14Z</time>
      </trkpt>
      <trkpt lat="45.12051" lon="6.02024">
        <ele>735.2</ele>
        <time>2020-09-05T12:10:15Z</time>
      </trkpt>
      <trkpt lat="45.12055" lon="6.02034">
        <ele>735.4</ele>
        <time>2020-09-05T12:10:16Z</time>
      </trkpt>
      <trkpt lat="45.12059" lon="6.02045">
        <ele>735.4</ele>
        <time>2020-09-05T12:10:17Z</time>
      </trkpt>
      <trkpt lat="45.12064" lon="6.02055">
        <ele>735.4</ele>
        <time>2020-09-05T12:10:18Z</time>
      </trkpt>
      <trkpt lat="45.12068" lon="6.02066">
        <ele>735.4</ele>
        <time>2020-09-05T12:10:19Z</time>
      </trkpt>
      <trkpt lat="45.12073" lon="6.02076">
        <ele>735.6</ele>
        <time>2020-09-05T12:10:20Z</time>
      </trkpt>
      <trkpt lat="45.12077" lon="6.02087">
        <ele>735.8</ele>
        <time>2020-09-05T12:10:21Z</time>
      </trkpt>
      <trkpt lat="45.12081" lon="6.02098">
        <ele>736.2</ele>
        <time>2020-09-05T12:10:22Z</time>
      </trkpt>
      <trkpt lat="45.12085" lon="6.02109">
        <ele>736.4</ele>
        <time>2020-09-05T12:10:23Z</time>
      </trkpt>
      <trkpt lat="45.12089" lon="6.02121">
        <ele>736.6</ele>
        <time>2020-09-05T12:10:24Z</time>
      </trkpt>
      <trkpt lat="45.12091" lon="6.02132">
        <ele>736.8</ele>
        <time>2020-09-05T12:10:25Z</time>
      </trkpt>
      <trkpt lat="45.12093" lon="6.02144">
        <ele>736.8</ele>
        <time>2020-09-05T12:10:26Z</time>
      </trkpt>
      <trkpt lat="45.12095" lon="6.02155">
        <ele>737</ele>
        <time>2020-09-05T12:10:27Z</time>
      </trkpt>
      <trkpt lat="45.12097" lon="6.02166">
        <ele>737.4</ele>
        <time>2020-09-05T12:10:28Z</time>
      </trkpt>
      <trkpt lat="45.12099" lon="6.02178">
        <ele>737.8</ele>
        <time>2020-09-05T12:10:29Z</time>
      </trkpt>
      <trkpt lat="45.12102" lon="6.02188">
        <ele>737.6</ele>
        <time>2020-09-05T12:10:30Z</time>
      </trkpt>
      <trkpt lat="45.12104" lon="6.02199">
        <ele>737.8</ele>
        <time>2020-09-05T12:10:31Z</time>
      </trkpt>
      <trkpt lat="45.12108" lon="6.02209">
        <ele>738</ele>
        <time>2020-09-05T12:10:32Z</time>
      </trkpt>
      <trkpt lat="45.12111" lon="6.02218">
        <ele>738.4</ele>
        <time>2020-09-05T12:10:33Z</time>
      </trkpt>
      <trkpt lat="45.12115" lon="6.02227">
        <ele>739</ele>
        <time>2020-09-05T12:10:34Z</time>
      </trkpt>
      <trkpt lat="45.1212" lon="6.02235">
        <ele>739</ele>
        <time>2020-09-05T12:10:35Z</time>
      </trkpt>
      <trkpt lat="45.12124" lon="6.02243">
        <ele>739</ele>
        <time>2020-09-05T12:10:36Z</time>
      </trkpt>
      <trkpt lat="45.12129" lon="6.0225">
        <ele>738.6</ele>
        <time>2020-09-05T12:10:37Z</time>
      </trkpt>
      <trkpt lat="45.12135" lon="6.02256">
        <ele>738.4</ele>
        <time>2020-09-05T12:10:38Z</time>
      </trkpt>
      <trkpt lat="45.1214" lon="6.02262">
        <ele>738.6</ele>
        <time>2020-09-05T12:10:39Z</time>
      </trkpt>
      <trkpt lat="45.12147" lon="6.02267">
        <ele>739</ele>
        <time>2020-09-05T12:10:40Z</time>
      </trkpt>
      <trkpt lat="45.12153" lon="6.02272">
        <ele>739</ele>
        <time>2020-09-05T12:10:41Z</time>
      </trkpt>
      <trkpt lat="45.1216" lon="6.02275">
        <ele>738.6</ele>
        <time>2020-09-05T12:10:42Z</time>
      </trkpt>
      <trkpt lat="45.12167" lon="6.02277">
        <ele>738.6</ele>
        <time>2020-09-05T12:10:43Z</time>
      </trkpt>
      <trkpt lat="45.12175" lon="6.02279">
        <ele>738.8</ele>
        <time>2020-09-05T12:10:44Z</time>
      </trkpt>
      <trkpt lat="45.12182" lon="6.02282">
        <ele>738.8</ele>
        <time>2020-09-05T12:10:45Z</time>
      </trkpt>
      <trkpt lat="45.12189" lon="6.02284">
        <ele>739</ele>
        <time>2020-09-05T12:10:46Z</time>
      </trkpt>
      <trkpt lat="45.12196" lon="6.02287">
        <ele>738.6</ele>
        <time>2020-09-05T12:10:47Z</time>
      </trkpt>
      <trkpt lat="45.12203" lon="6.02291">
        <ele>738.8</ele>
        <time>2020-09-05T12:10:48Z</time>
      </trkpt>
      <trkpt lat="45.1221" lon="6.02295">
        <ele>739</ele>
        <time>2020-09-05T12:10:49Z</time>
      </trkpt>
      <trkpt lat="45.12217" lon="6.02302">
        <ele>739</ele>
        <time>2020-09-05T12:10:50Z</time>
      </trkpt>
      <trkpt lat="45.12222" lon="6.02309">
        <ele>738.8</ele>
        <time>2020-09-05T12:10:51Z</time>
      </trkpt>
      <trkpt lat="45.12228" lon="6.02318">
        <ele>738.8</ele>
        <time>2020-09-05T12:10:52Z</time>
      </trkpt>
      <trkpt lat="45.12232" lon="6.02328">
        <ele>738.8</ele>
        <time>2020-09-05T12:10:53Z</time>
      </trkpt>
      <trkpt lat="45.12235" lon="6.02338">
        <ele>738.6</ele>
        <time>2020-09-05T12:10:54Z</time>
      </trkpt>
      <trkpt lat="45.12238" lon="6.02349">
        <ele>738.6</ele>
        <time>2020-09-05T12:10:55Z</time>
      </trkpt>
      <trkpt lat="45.12241" lon="6.02359">
        <ele>738.8</ele>
        <time>2020-09-05T12:10:56Z</time>
      </trkpt>
      <trkpt lat="45.12244" lon="6.02369">
        <ele>738.8</ele>
        <time>2020-09-05T12:10:57Z</time>
      </trkpt>
      <trkpt lat="45.12246" lon="6.0238">
        <ele>738.4</ele>
        <time>2020-09-05T12:10:58Z</time>
      </trkpt>
      <trkpt lat="45.12248" lon="6.0239">
        <ele>738.4</ele>
        <time>2020-09-05T12:10:59Z</time>
      </trkpt>
      <trkpt lat="45.1225" lon="6.024">
        <ele>738.2</ele>
        <time>2020-09-05T12:11:00Z</time>
      </trkpt>
      <trkpt lat="45.12253" lon="6.02409">
        <ele>738</ele>
        <time>2020-09-05T12:11:01Z</time>
      </trkpt>
      <trkpt lat="45.12256" lon="6.02418">
        <ele>738</ele>
        <time>2020-09-05T12:11:02Z</time>
      </trkpt>
      <trkpt lat="45.12259" lon="6.02427">
        <ele>737.8</ele>
        <time>2020-09-05T12:11:03Z</time>
      </trkpt>
      <trkpt lat="45.12262" lon="6.02436">
        <ele>737.8</ele>
        <time>2020-09-05T12:11:04Z</time>
      </trkpt>
      <trkpt lat="45.12265" lon="6.02445">
        <ele>737.8</ele>
        <time>2020-09-05T12:11:05Z</time>
      </trkpt>
      <trkpt lat="45.12269" lon="6.02455">
        <ele>737.4</ele>
        <time>2020-09-05T12:11:06Z</time>
      </trkpt>
      <trkpt lat="45.12273" lon="6.02464">
        <ele>737.2</ele>
        <time>2020-09-05T12:11:07Z</time>
      </trkpt>
      <trkpt lat="45.12276" lon="6.02473">
        <ele>737</ele>
        <time>2020-09-05T12:11:08Z</time>
      </trkpt>
      <trkpt lat="45.1228" lon="6.02482">
        <ele>737</ele>
        <time>2020-09-05T12:11:09Z</time>
      </trkpt>
      <trkpt lat="45.12284" lon="6.02492">
        <ele>736.8</ele>
        <time>2020-09-05T12:11:10Z</time>
      </trkpt>
      <trkpt lat="45.12287" lon="6.02501">
        <ele>736.8</ele>
        <time>2020-09-05T12:11:11Z</time>
      </trkpt>
      <trkpt lat="45.12291" lon="6.02511">
        <ele>736.6</ele>
        <time>2020-09-05T12:11:12Z</time>
      </trkpt>
      <trkpt lat="45.12295" lon="6.0252">
        <ele>736.8</ele>
        <time>2020-09-05T12:11:13Z</time>
      </trkpt>
      <trkpt lat="45.12299" lon="6.0253">
        <ele>737.2</ele>
        <time>2020-09-05T12:11:14Z</time>
      </trkpt>
      <trkpt lat="45.12303" lon="6.0254">
        <ele>737.6</ele>
        <time>2020-09-05T12:11:15Z</time>
      </trkpt>
      <trkpt lat="45.12307" lon="6.02549">
        <ele>737.6</ele>
        <time>2020-09-05T12:11:16Z</time>
      </trkpt>
      <trkpt lat="45.1231" lon="6.02559">
        <ele>737.8</ele>
        <time>2020-09-05T12:11:17Z</time>
      </trkpt>
      <trkpt lat="45.12314" lon="6.02568">
        <ele>737.6</ele>
        <time>2020-09-05T12:11:18Z</time>
      </trkpt>
      <trkpt lat="45.12318" lon="6.02578">
        <ele>737.4</ele>
        <time>2020-09-05T12:11:19Z</time>
      </trkpt>
      <trkpt lat="45.12321" lon="6.02588">
        <ele>737.4</ele>
        <time>2020-09-05T12:11:20Z</time>
      </trkpt>
      <trkpt lat="45.12325" lon="6.02598">
        <ele>737.2</ele>
        <time>2020-09-05T12:11:21Z</time>
      </trkpt>
      <trkpt lat="45.12328" lon="6.02607">
        <ele>737.2</ele>
        <time>2020-09-05T12:11:22Z</time>
      </trkpt>
      <trkpt lat="45.12332" lon="6.02617">
        <ele>737.2</ele>
        <time>2020-09-05T12:11:23Z</time>
      </trkpt>
      <trkpt lat="45.12335" lon="6.02627">
        <ele>737.4</ele>
        <time>2020-09-05T12:11:24Z</time>
      </trkpt>
      <trkpt lat="45.12338" lon="6.02638">
        <ele>737.2</ele>
        <time>2020-09-05T12:11:25Z</time>
      </trkpt>
      <trkpt lat="45.12341" lon="6.02648">
        <ele>737.2</ele>
        <time>2020-09-05T12:11:26Z</time>
      </trkpt>
      <trkpt lat="45.12345" lon="6.02657">
        <ele>737.6</ele>
        <time>2020-09-05T12:11:27Z</time>
      </trkpt>
      <trkpt lat="45.12349" lon="6.02667">
        <ele>737.6</ele>
        <time>2020-09-05T12:11:28Z</time>
      </trkpt>
      <trkpt lat="45.12354" lon="6.02676">
        <ele>737.6</ele>
        <time>2020-09-05T12:11:29Z</time>
      </trkpt>
      <trkpt lat="45.12358" lon="6.02685">
        <ele>738</ele>
        <time>2020-09-05T12:11:30Z</time>
      </trkpt>
      <trkpt lat="45.12363" lon="6.02694">
        <ele>737.8</ele>
        <time>2020-09-05T12:11:31Z</time>
      </trkpt>
      <trkpt lat="45.12367" lon="6.02703">
        <ele>737.8</ele>
        <time>2020-09-05T12:11:32Z</time>
      </trkpt>
      <trkpt lat="45.1237" lon="6.02712">
        <ele>738</ele>
        <time>2020-09-05T12:11:33Z</time>
      </trkpt>
      <trkpt lat="45.12374" lon="6.02721">
        <ele>738</ele>
        <time>2020-09-05T12:11:34Z</time>
      </trkpt>
      <trkpt lat="45.12378" lon="6.02731">
        <ele>738</ele>
        <time>2020-09-05T12:11:35Z</time>
      </trkpt>
      <trkpt lat="45.12382" lon="6.0274">
        <ele>737.8</ele>
        <time>2020-09-05T12:11:36Z</time>
      </trkpt>
      <trkpt lat="45.12386" lon="6.0275">
        <ele>737.8</ele>
        <time>2020-09-05T12:11:37Z</time>
      </trkpt>
      <trkpt lat="45.1239" lon="6.0276">
        <ele>737.8</ele>
        <time>2020-09-05T12:11:38Z</time>
      </trkpt>
      <trkpt lat="45.12394" lon="6.02769">
        <ele>738</ele>
        <time>2020-09-05T12:11:39Z</time>
      </trkpt>
      <trkpt lat="45.12398" lon="6.02779">
        <ele>737.8</ele>
        <time>2020-09-05T12:11:40Z</time>
      </trkpt>
      <trkpt lat="45.12402" lon="6.02788">
        <ele>738.2</ele>
        <time>2020-09-05T12:11:41Z</time>
      </trkpt>
      <trkpt lat="45.12406" lon="6.02798">
        <ele>738.2</ele>
        <time>2020-09-05T12:11:42Z</time>
      </trkpt>
      <trkpt lat="45.12409" lon="6.02808">
        <ele>738</ele>
        <time>2020-09-05T12:11:43Z</time>
      </trkpt>
      <trkpt lat="45.12413" lon="6.02818">
        <ele>737.8</ele>
        <time>2020-09-05T12:11:44Z</time>
      </trkpt>
      <trkpt lat="45.12417" lon="6.02827">
        <ele>738</ele>
        <time>2020-09-05T12:11:45Z</time>
      </trkpt>
      <trkpt lat="45.12421" lon="6.02837">
        <ele>737.8</ele>
        <time>2020-09-05T12:11:46Z</time>
      </trkpt>
      <trkpt lat="45.12425" lon="6.02847">
        <ele>737.6</ele>
        <time>2020-09-05T12:11:47Z</time>
      </trkpt>
      <trkpt lat="45.12429" lon="6.02857">
        <ele>738</ele>
        <time>2020-09-05T12:11:48Z</time>
      </trkpt>
      <trkpt lat="45.12432" lon="6.02867">
        <ele>738.2</ele>
        <time>2020-09-05T12:11:49Z</time>
      </trkpt>
      <trkpt lat="45.12436" lon="6.02876">
        <ele>738.2</ele>
        <time>2020-09-05T12:11:50Z</time>
      </trkpt>
      <trkpt lat="45.1244" lon="6.02886">
        <ele>738.2</ele>
        <time>2020-09-05T12:11:51Z</time>
      </trkpt>
      <trkpt lat="45.12444" lon="6.02896">
        <ele>738.2</ele>
        <time>2020-09-05T12:11:52Z</time>
      </trkpt>
      <trkpt lat="45.12448" lon="6.02906">
        <ele>738</ele>
        <time>2020-09-05T12:11:53Z</time>
      </trkpt>
      <trkpt lat="45.12453" lon="6.02915">
        <ele>738.2</ele>
        <time>2020-09-05T12:11:54Z</time>
      </trkpt>
      <trkpt lat="45.12457" lon="6.02925">
        <ele>738.4</ele>
        <time>2020-09-05T12:11:55Z</time>
      </trkpt>
      <trkpt lat="45.12461" lon="6.02934">
        <ele>738.6</ele>
        <time>2020-09-05T12:11:56Z</time>
      </trkpt>
      <trkpt lat="45.12465" lon="6.02944">
        <ele>739.2</ele>
        <time>2020-09-05T12:11:57Z</time>
      </trkpt>
      <trkpt lat="45.12469" lon="6.02953">
        <ele>739</ele>
        <time>2020-09-05T12:11:58Z</time>
      </trkpt>
      <trkpt lat="45.12473" lon="6.02963">
        <ele>739.4</ele>
        <time>2020-09-05T12:11:59Z</time>
      </trkpt>
      <trkpt lat="45.12476" lon="6.02972">
        <ele>739.6</ele>
        <time>2020-09-05T12:12:00Z</time>
      </trkpt>
      <trkpt lat="45.1248" lon="6.02981">
        <ele>739.6</ele>
        <time>2020-09-05T12:12:01Z</time>
      </trkpt>
      <trkpt lat="45.12484" lon="6.0299">
        <ele>739.2</ele>
        <time>2020-09-05T12:12:02Z</time>
      </trkpt>
      <trkpt lat="45.12487" lon="6.02999">
        <ele>739.6</ele>
        <time>2020-09-05T12:12:03Z</time>
      </trkpt>
      <trkpt lat="45.12491" lon="6.03008">
        <ele>740</ele>
        <time>2020-09-05T12:12:04Z</time>
      </trkpt>
      <trkpt lat="45.12495" lon="6.03017">
        <ele>739.8</ele>
        <time>2020-09-05T12:12:05Z</time>
      </trkpt>
      <trkpt lat="45.12499" lon="6.03026">
        <ele>739.6</ele>
        <time>2020-09-05T12:12:06Z</time>
      </trkpt>
      <trkpt lat="45.12502" lon="6.03035">
        <ele>739.4</ele>
        <time>2020-09-05T12:12:07Z</time>
      </trkpt>
      <trkpt lat="45.12506" lon="6.03044">
        <ele>739.4</ele>
        <time>2020-09-05T12:12:08Z</time>
      </trkpt>
      <trkpt lat="45.1251" lon="6.03054">
        <ele>739.4</ele>
        <time>2020-09-05T12:12:09Z</time>
      </trkpt>
      <trkpt lat="45.12514" lon="6.03063">
        <ele>739.4</ele>
        <time>2020-09-05T12:12:10Z</time>
      </trkpt>
      <trkpt lat="45.12518" lon="6.03073">
        <ele>739.2</ele>
        <time>2020-09-05T12:12:11Z</time>
      </trkpt>
      <trkpt lat="45.12522" lon="6.03082">
        <ele>739.2</ele>
        <time>2020-09-05T12:12:12Z</time>
      </trkpt>
      <trkpt lat="45.12526" lon="6.03092">
        <ele>738.8</ele>
        <time>2020-09-05T12:12:13Z</time>
      </trkpt>
      <trkpt lat="45.1253" lon="6.03101">
        <ele>738.6</ele>
        <time>2020-09-05T12:12:14Z</time>
      </trkpt>
      <trkpt lat="45.12534" lon="6.03111">
        <ele>738.8</ele>
        <time>2020-09-05T12:12:15Z</time>
      </trkpt>
      <trkpt lat="45.12537" lon="6.03121">
        <ele>738.8</ele>
        <time>2020-09-05T12:12:16Z</time>
      </trkpt>
      <trkpt lat="45.12542" lon="6.03131">
        <ele>739</ele>
        <time>2020-09-05T12:12:17Z</time>
      </trkpt>
      <trkpt lat="45.12546" lon="6.03141">
        <ele>739</ele>
        <time>2020-09-05T12:12:18Z</time>
      </trkpt>
      <trkpt lat="45.1255" lon="6.03151">
        <ele>739</ele>
        <time>2020-09-05T12:12:19Z</time>
      </trkpt>
      <trkpt lat="45.12554" lon="6.03161">
        <ele>739</ele>
        <time>2020-09-05T12:12:20Z</time>
      </trkpt>
      <trkpt lat="45.12558" lon="6.03171">
        <ele>739</ele>
        <time>2020-09-05T12:12:21Z</time>
      </trkpt>
      <trkpt lat="45.12562" lon="6.03181">
        <ele>739.2</ele>
        <time>2020-09-05T12:12:22Z</time>
      </trkpt>
      <trkpt lat="45.12566" lon="6.03191">
        <ele>739.2</ele>
        <time>2020-09-05T12:12:23Z</time>
      </trkpt>
      <trkpt lat="45.1257" lon="6.032">
        <ele>739.6</ele>
        <time>2020-09-05T12:12:24Z</time>
      </trkpt>
      <trkpt lat="45.12574" lon="6.0321">
        <ele>739.8</ele>
        <time>2020-09-05T12:12:25Z</time>
      </trkpt>
      <trkpt lat="45.12578" lon="6.0322">
        <ele>740.2</ele>
        <time>2020-09-05T12:12:26Z</time>
      </trkpt>
      <trkpt lat="45.12582" lon="6.0323">
        <ele>740.4</ele>
        <time>2020-09-05T12:12:27Z</time>
      </trkpt>
      <trkpt lat="45.12586" lon="6.0324">
        <ele>740.4</ele>
        <time>2020-09-05T12:12:28Z</time>
      </trkpt>
      <trkpt lat="45.12591" lon="6.03249">
        <ele>739.8</ele>
        <time>2020-09-05T12:12:29Z</time>
      </trkpt>
      <trkpt lat="45.12595" lon="6.03259">
        <ele>739.8</ele>
        <time>2020-09-05T12:12:30Z</time>
      </trkpt>
      <trkpt lat="45.12599" lon="6.03269">
        <ele>740</ele>
        <time>2020-09-05T12:12:31Z</time>
      </trkpt>
      <trkpt lat="45.12603" lon="6.03279">
        <ele>740</ele>
        <time>2020-09-05T12:12:32Z</time>
      </trkpt>
      <trkpt lat="45.12607" lon="6.03289">
        <ele>740</ele>
        <time>2020-09-05T12:12:33Z</time>
      </trkpt>
      <trkpt lat="45.12611" lon="6.03299">
        <ele>740.2</ele>
        <time>2020-09-05T12:12:34Z</time>
      </trkpt>
      <trkpt lat="45.12615" lon="6.03309">
        <ele>740.2</ele>
        <time>2020-09-05T12:12:35Z</time>
      </trkpt>
      <trkpt lat="45.12619" lon="6.03319">
        <ele>740.2</ele>
        <time>2020-09-05T12:12:36Z</time>
      </trkpt>
      <trkpt lat="45.12623" lon="6.03329">
        <ele>740.4</ele>
        <time>2020-09-05T12:12:37Z</time>
      </trkpt>
      <trkpt lat="45.12627" lon="6.03339">
        <ele>740.2</ele>
        <time>2020-09-05T12:12:38Z</time>
      </trkpt>
      <trkpt lat="45.12631" lon="6.03349">
        <ele>739.8</ele>
        <time>2020-09-05T12:12:39Z</time>
      </trkpt>
      <trkpt lat="45.12635" lon="6.0336">
        <ele>739.6</ele>
        <time>2020-09-05T12:12:40Z</time>
      </trkpt>
      <trkpt lat="45.12639" lon="6.0337">
        <ele>740</ele>
        <time>2020-09-05T12:12:41Z</time>
      </trkpt>
      <trkpt lat="45.12644" lon="6.03381">
        <ele>740</ele>
        <time>2020-09-05T12:12:42Z</time>
      </trkpt>
      <trkpt lat="45.12648" lon="6.03391">
        <ele>740.2</ele>
        <time>2020-09-05T12:12:43Z</time>
      </trkpt>
      <trkpt lat="45.12652" lon="6.03402">
        <ele>740.4</ele>
        <time>2020-09-05T12:12:44Z</time>
      </trkpt>
      <trkpt lat="45.12657" lon="6.03412">
        <ele>740.2</ele>
        <time>2020-09-05T12:12:45Z</time>
      </trkpt>
      <trkpt lat="45.12661" lon="6.03423">
        <ele>740.4</ele>
        <time>2020-09-05T12:12:46Z</time>
      </trkpt>
      <trkpt lat="45.12665" lon="6.03434">
        <ele>740.2</ele>
        <time>2020-09-05T12:12:47Z</time>
      </trkpt>
      <trkpt lat="45.12669" lon="6.03444">
        <ele>740.6</ele>
        <time>2020-09-05T12:12:48Z</time>
      </trkpt>
      <trkpt lat="45.12674" lon="6.03454">
        <ele>740.8</ele>
        <time>2020-09-05T12:12:49Z</time>
      </trkpt>
      <trkpt lat="45.12678" lon="6.03464">
        <ele>740.8</ele>
        <time>2020-09-05T12:12:50Z</time>
      </trkpt>
      <trkpt lat="45.12682" lon="6.03475">
        <ele>741.2</ele>
        <time>2020-09-05T12:12:51Z</time>
      </trkpt>
      <trkpt lat="45.12687" lon="6.03485">
        <ele>741.2</ele>
        <time>2020-09-05T12:12:52Z</time>
      </trkpt>
      <trkpt lat="45.12691" lon="6.03496">
        <ele>741.2</ele>
        <time>2020-09-05T12:12:53Z</time>
      </trkpt>
      <trkpt lat="45.12695" lon="6.03506">
        <ele>740.6</ele>
        <time>2020-09-05T12:12:54Z</time>
      </trkpt>
      <trkpt lat="45.12699" lon="6.03517">
        <ele>740.8</ele>
        <time>2020-09-05T12:12:55Z</time>
      </trkpt>
      <trkpt lat="45.12703" lon="6.03527">
        <ele>740.8</ele>
        <time>2020-09-05T12:12:56Z</time>
      </trkpt>
      <trkpt lat="45.12707" lon="6.03537">
        <ele>740.6</ele>
        <time>2020-09-05T12:12:57Z</time>
      </trkpt>
      <trkpt lat="45.12711" lon="6.03548">
        <ele>740.6</ele>
        <time>2020-09-05T12:12:58Z</time>
      </trkpt>
      <trkpt lat="45.12715" lon="6.03558">
        <ele>741</ele>
        <time>2020-09-05T12:12:59Z</time>
      </trkpt>
      <trkpt lat="45.12719" lon="6.03568">
        <ele>741.2</ele>
        <time>2020-09-05T12:13:00Z</time>
      </trkpt>
      <trkpt lat="45.12723" lon="6.03577">
        <ele>741</ele>
        <time>2020-09-05T12:13:01Z</time>
      </trkpt>
      <trkpt lat="45.12727" lon="6.03587">
        <ele>740.8</ele>
        <time>2020-09-05T12:13:02Z</time>
      </trkpt>
      <trkpt lat="45.12731" lon="6.03597">
        <ele>740.8</ele>
        <time>2020-09-05T12:13:03Z</time>
      </trkpt>
      <trkpt lat="45.12735" lon="6.03607">
        <ele>740.8</ele>
        <time>2020-09-05T12:13:04Z</time>
      </trkpt>
      <trkpt lat="45.12739" lon="6.03617">
        <ele>741.2</ele>
        <time>2020-09-05T12:13:05Z</time>
      </trkpt>
      <trkpt lat="45.12743" lon="6.03627">
        <ele>741.2</ele>
        <time>2020-09-05T12:13:06Z</time>
      </trkpt>
      <trkpt lat="45.12747" lon="6.03636">
        <ele>741</ele>
        <time>2020-09-05T12:13:07Z</time>
      </trkpt>
      <trkpt lat="45.12751" lon="6.03646">
        <ele>741.4</ele>
        <time>2020-09-05T12:13:08Z</time>
      </trkpt>
      <trkpt lat="45.12755" lon="6.03656">
        <ele>741.6</ele>
        <time>2020-09-05T12:13:09Z</time>
      </trkpt>
      <trkpt lat="45.12759" lon="6.03666">
        <ele>741.6</ele>
        <time>2020-09-05T12:13:10Z</time>
      </trkpt>
      <trkpt lat="45.12763" lon="6.03676">
        <ele>741.8</ele>
        <time>2020-09-05T12:13:11Z</time>
      </trkpt>
      <trkpt lat="45.12767" lon="6.03685">
        <ele>742</ele>
        <time>2020-09-05T12:13:12Z</time>
      </trkpt>
      <trkpt lat="45.12771" lon="6.03695">
        <ele>742</ele>
        <time>2020-09-05T12:13:13Z</time>
      </trkpt>
      <trkpt lat="45.12775" lon="6.03705">
        <ele>742</ele>
        <time>2020-09-05T12:13:14Z</time>
      </trkpt>
      <trkpt lat="45.12779" lon="6.03716">
        <ele>742</ele>
        <time>2020-09-05T12:13:15Z</time>
      </trkpt>
      <trkpt lat="45.12783" lon="6.03726">
        <ele>742.2</ele>
        <time>2020-09-05T12:13:16Z</time>
      </trkpt>
      <trkpt lat="45.12787" lon="6.03736">
        <ele>742.4</ele>
        <time>2020-09-05T12:13:17Z</time>
      </trkpt>
      <trkpt lat="45.12792" lon="6.03759">
        <ele>742.2</ele>
        <time>2020-09-05T12:13:19Z</time>
      </trkpt>
      <trkpt lat="45.12789" lon="6.03782">
        <ele>742.8</ele>
        <time>2020-09-05T12:13:21Z</time>
      </trkpt>
      <trkpt lat="45.12785" lon="6.03803">
        <ele>743.4</ele>
        <time>2020-09-05T12:13:23Z</time>
      </trkpt>
      <trkpt lat="45.12788" lon="6.03823">
        <ele>743</ele>
        <time>2020-09-05T12:13:25Z</time>
      </trkpt>
      <trkpt lat="45.12795" lon="6.03843">
        <ele>743</ele>
        <time>2020-09-05T12:13:27Z</time>
      </trkpt>
      <trkpt lat="45.12803" lon="6.03862">
        <ele>743.2</ele>
        <time>2020-09-05T12:13:29Z</time>
      </trkpt>
      <trkpt lat="45.12807" lon="6.03872">
        <ele>743.2</ele>
        <time>2020-09-05T12:13:30Z</time>
      </trkpt>
      <trkpt lat="45.12811" lon="6.03881">
        <ele>743</ele>
        <time>2020-09-05T12:13:31Z</time>
      </trkpt>
      <trkpt lat="45.12814" lon="6.03891">
        <ele>743</ele>
        <time>2020-09-05T12:13:32Z</time>
      </trkpt>
      <trkpt lat="45.12817" lon="6.039">
        <ele>743.2</ele>
        <time>2020-09-05T12:13:33Z</time>
      </trkpt>
      <trkpt lat="45.12821" lon="6.03909">
        <ele>742.8</ele>
        <time>2020-09-05T12:13:34Z</time>
      </trkpt>
      <trkpt lat="45.12825" lon="6.03918">
        <ele>743</ele>
        <time>2020-09-05T12:13:35Z</time>
      </trkpt>
      <trkpt lat="45.12829" lon="6.03928">
        <ele>743</ele>
        <time>2020-09-05T12:13:36Z</time>
      </trkpt>
      <trkpt lat="45.12834" lon="6.03938">
        <ele>743</ele>
        <time>2020-09-05T12:13:37Z</time>
      </trkpt>
      <trkpt lat="45.12839" lon="6.03947">
        <ele>743.2</ele>
        <time>2020-09-05T12:13:38Z</time>
      </trkpt>
      <trkpt lat="45.12843" lon="6.03956">
        <ele>743.2</ele>
        <time>2020-09-05T12:13:39Z</time>
      </trkpt>
      <trkpt lat="45.12848" lon="6.03965">
        <ele>743.4</ele>
        <time>2020-09-05T12:13:40Z</time>
      </trkpt>
      <trkpt lat="45.12852" lon="6.03974">
        <ele>743.6</ele>
        <time>2020-09-05T12:13:41Z</time>
      </trkpt>
      <trkpt lat="45.12856" lon="6.03983">
        <ele>743.8</ele>
        <time>2020-09-05T12:13:42Z</time>
      </trkpt>
      <trkpt lat="45.12859" lon="6.03992">
        <ele>744</ele>
        <time>2020-09-05T12:13:43Z</time>
      </trkpt>
      <trkpt lat="45.12863" lon="6.04001">
        <ele>744.2</ele>
        <time>2020-09-05T12:13:44Z</time>
      </trkpt>
      <trkpt lat="45.12867" lon="6.04009">
        <ele>744.4</ele>
        <time>2020-09-05T12:13:45Z</time>
      </trkpt>
      <trkpt lat="45.12874" lon="6.04025">
        <ele>745</ele>
        <time>2020-09-05T12:13:47Z</time>
      </trkpt>
      <trkpt lat="45.12877" lon="6.04032">
        <ele>745</ele>
        <time>2020-09-05T12:13:48Z</time>
      </trkpt>
      <trkpt lat="45.1288" lon="6.04038">
        <ele>745.2</ele>
        <time>2020-09-05T12:13:49Z</time>
      </trkpt>
      <trkpt lat="45.12882" lon="6.04045">
        <ele>745.2</ele>
        <time>2020-09-05T12:13:50Z</time>
      </trkpt>
      <trkpt lat="45.12884" lon="6.0405">
        <ele>745.2</ele>
        <time>2020-09-05T12:13:51Z</time>
      </trkpt>
      <trkpt lat="45.12886" lon="6.04056">
        <ele>745.4</ele>
        <time>2020-09-05T12:13:52Z</time>
      </trkpt>
      <trkpt lat="45.12888" lon="6.04061">
        <ele>745.6</ele>
        <time>2020-09-05T12:13:53Z</time>
      </trkpt>
      <trkpt lat="45.12889" lon="6.04066">
        <ele>745.6</ele>
        <time>2020-09-05T12:13:54Z</time>
      </trkpt>
      <trkpt lat="45.12888" lon="6.04071">
        <ele>746</ele>
        <time>2020-09-05T12:13:55Z</time>
      </trkpt>
      <trkpt lat="45.12886" lon="6.04073">
        <ele>746</ele>
        <time>2020-09-05T12:13:56Z</time>
      </trkpt>
      <trkpt lat="45.12883" lon="6.04073">
        <ele>745.8</ele>
        <time>2020-09-05T12:13:57Z</time>
      </trkpt>
      <trkpt lat="45.12881" lon="6.04074">
        <ele>745.4</ele>
        <time>2020-09-05T12:13:59Z</time>
      </trkpt>
      <trkpt lat="45.12882" lon="6.04072">
        <ele>745.4</ele>
        <time>2020-09-05T12:14:07Z</time>
      </trkpt>
    </trkseg>
  </trk>
</gpx>